<?xml version="1.0" encoding="UTF-8" standalone="no" ?>
<gpx xmlns="http://www.topografix.com/GPX/1/1" xmlns:xsi="http://www.w3.org/2001/XMLSchema-instance" xsi:schemaLocation="http://www.topografix.com/GPX/1/1 http://www.topografix.com/GPX/1/1/gpx.xsd" version="1.1" creator="VisuGPX - https://www.visugpx.com">
  <metadata>
    <name>Vers Etupes et Pont Sarrazin</name>
    <desc><![CDATA[Vers Etupes et Pont Sarrazin]]></desc>
  </metadata>
  <trk>
    <name><![CDATA[Rue Antoine Coysevox]]></name>
    <desc><![CDATA[]]></desc>
    <trkseg>
      <trkpt lat="47.51812" lon="6.77493">
        <ele>388</ele>
        <time>2015-04-06T07:02:03.030Z</time>
      </trkpt>
      <trkpt lat="47.51814" lon="6.77502">
        <ele>388</ele>
        <time>2015-04-06T07:02:04.047Z</time>
      </trkpt>
      <trkpt lat="47.51819" lon="6.775">
        <ele>388</ele>
        <time>2015-04-06T07:02:06.000Z</time>
      </trkpt>
      <trkpt lat="47.51819" lon="6.775">
        <ele>387</ele>
        <time>2015-04-06T07:02:07.000Z</time>
      </trkpt>
      <trkpt lat="47.51815" lon="6.77498">
        <ele>387</ele>
        <time>2015-04-06T07:02:20.000Z</time>
      </trkpt>
      <trkpt lat="47.51814" lon="6.77498">
        <ele>387</ele>
        <time>2015-04-06T07:02:21.000Z</time>
      </trkpt>
      <trkpt lat="47.51817" lon="6.77498">
        <ele>387</ele>
        <time>2015-04-06T07:06:48.000Z</time>
      </trkpt>
      <trkpt lat="47.51809" lon="6.77485">
        <ele>388</ele>
        <time>2015-04-06T07:06:49.000Z</time>
      </trkpt>
      <trkpt lat="47.51808" lon="6.7749">
        <ele>388</ele>
        <time>2015-04-06T07:08:09.000Z</time>
      </trkpt>
      <trkpt lat="47.5181" lon="6.77491">
        <ele>388</ele>
        <time>2015-04-06T07:08:10.000Z</time>
      </trkpt>
      <trkpt lat="47.51813" lon="6.77495">
        <ele>388</ele>
        <time>2015-04-06T07:08:12.000Z</time>
      </trkpt>
      <trkpt lat="47.51816" lon="6.77497">
        <ele>387</ele>
        <time>2015-04-06T07:08:13.000Z</time>
      </trkpt>
      <trkpt lat="47.51818" lon="6.775">
        <ele>387</ele>
        <time>2015-04-06T07:08:14.000Z</time>
      </trkpt>
      <trkpt lat="47.51821" lon="6.77502">
        <ele>388</ele>
        <time>2015-04-06T07:08:15.000Z</time>
      </trkpt>
      <trkpt lat="47.51824" lon="6.77503">
        <ele>388</ele>
        <time>2015-04-06T07:08:16.000Z</time>
      </trkpt>
      <trkpt lat="47.51826" lon="6.77503">
        <ele>388</ele>
        <time>2015-04-06T07:08:17.000Z</time>
      </trkpt>
      <trkpt lat="47.5183" lon="6.77504">
        <ele>388</ele>
        <time>2015-04-06T07:08:18.000Z</time>
      </trkpt>
      <trkpt lat="47.51834" lon="6.77506">
        <ele>387</ele>
        <time>2015-04-06T07:08:19.000Z</time>
      </trkpt>
      <trkpt lat="47.51839" lon="6.77508">
        <ele>388</ele>
        <time>2015-04-06T07:08:20.000Z</time>
      </trkpt>
      <trkpt lat="47.51843" lon="6.7751">
        <ele>388</ele>
        <time>2015-04-06T07:08:21.000Z</time>
      </trkpt>
      <trkpt lat="47.51848" lon="6.77511">
        <ele>388</ele>
        <time>2015-04-06T07:08:22.000Z</time>
      </trkpt>
      <trkpt lat="47.51848" lon="6.77505">
        <ele>388</ele>
        <time>2015-04-06T07:08:26.000Z</time>
      </trkpt>
      <trkpt lat="47.51845" lon="6.77504">
        <ele>388</ele>
        <time>2015-04-06T07:08:27.000Z</time>
      </trkpt>
      <trkpt lat="47.51832" lon="6.775">
        <ele>387</ele>
        <time>2015-04-06T07:08:28.000Z</time>
      </trkpt>
      <trkpt lat="47.51828" lon="6.77498">
        <ele>387</ele>
        <time>2015-04-06T07:08:29.000Z</time>
      </trkpt>
      <trkpt lat="47.51825" lon="6.77498">
        <ele>387</ele>
        <time>2015-04-06T07:08:30.000Z</time>
      </trkpt>
      <trkpt lat="47.51821" lon="6.77496">
        <ele>387</ele>
        <time>2015-04-06T07:08:31.000Z</time>
      </trkpt>
      <trkpt lat="47.51817" lon="6.77495">
        <ele>387</ele>
        <time>2015-04-06T07:08:32.000Z</time>
      </trkpt>
      <trkpt lat="47.51814" lon="6.77496">
        <ele>388</ele>
        <time>2015-04-06T07:08:33.000Z</time>
      </trkpt>
      <trkpt lat="47.51811" lon="6.77495">
        <ele>388</ele>
        <time>2015-04-06T07:08:34.000Z</time>
      </trkpt>
      <trkpt lat="47.51808" lon="6.77494">
        <ele>388</ele>
        <time>2015-04-06T07:08:35.000Z</time>
      </trkpt>
      <trkpt lat="47.51806" lon="6.77494">
        <ele>388</ele>
        <time>2015-04-06T07:08:36.000Z</time>
      </trkpt>
      <trkpt lat="47.51803" lon="6.77495">
        <ele>388</ele>
        <time>2015-04-06T07:08:37.000Z</time>
      </trkpt>
      <trkpt lat="47.518" lon="6.77494">
        <ele>388</ele>
        <time>2015-04-06T07:08:38.000Z</time>
      </trkpt>
      <trkpt lat="47.51797" lon="6.77493">
        <ele>388</ele>
        <time>2015-04-06T07:08:39.000Z</time>
      </trkpt>
      <trkpt lat="47.51794" lon="6.77492">
        <ele>388</ele>
        <time>2015-04-06T07:08:40.000Z</time>
      </trkpt>
      <trkpt lat="47.51791" lon="6.7749">
        <ele>388</ele>
        <time>2015-04-06T07:08:41.000Z</time>
      </trkpt>
      <trkpt lat="47.51788" lon="6.77488">
        <ele>388</ele>
        <time>2015-04-06T07:08:42.000Z</time>
      </trkpt>
      <trkpt lat="47.51785" lon="6.77486">
        <ele>388</ele>
        <time>2015-04-06T07:08:43.000Z</time>
      </trkpt>
      <trkpt lat="47.51782" lon="6.77484">
        <ele>388</ele>
        <time>2015-04-06T07:08:44.000Z</time>
      </trkpt>
      <trkpt lat="47.51778" lon="6.77483">
        <ele>388</ele>
        <time>2015-04-06T07:08:45.000Z</time>
      </trkpt>
      <trkpt lat="47.51775" lon="6.77482">
        <ele>388</ele>
        <time>2015-04-06T07:08:46.000Z</time>
      </trkpt>
      <trkpt lat="47.51772" lon="6.77482">
        <ele>388</ele>
        <time>2015-04-06T07:08:47.000Z</time>
      </trkpt>
      <trkpt lat="47.51769" lon="6.77483">
        <ele>389</ele>
        <time>2015-04-06T07:08:48.000Z</time>
      </trkpt>
      <trkpt lat="47.51766" lon="6.77482">
        <ele>389</ele>
        <time>2015-04-06T07:08:49.000Z</time>
      </trkpt>
      <trkpt lat="47.51763" lon="6.77482">
        <ele>389</ele>
        <time>2015-04-06T07:08:50.000Z</time>
      </trkpt>
      <trkpt lat="47.51759" lon="6.77482">
        <ele>389</ele>
        <time>2015-04-06T07:08:51.000Z</time>
      </trkpt>
      <trkpt lat="47.51756" lon="6.77482">
        <ele>389</ele>
        <time>2015-04-06T07:08:52.000Z</time>
      </trkpt>
      <trkpt lat="47.51753" lon="6.77481">
        <ele>389</ele>
        <time>2015-04-06T07:08:53.000Z</time>
      </trkpt>
      <trkpt lat="47.51751" lon="6.77479">
        <ele>389</ele>
        <time>2015-04-06T07:08:54.000Z</time>
      </trkpt>
      <trkpt lat="47.51748" lon="6.77478">
        <ele>389</ele>
        <time>2015-04-06T07:08:55.000Z</time>
      </trkpt>
      <trkpt lat="47.51745" lon="6.77477">
        <ele>389</ele>
        <time>2015-04-06T07:08:56.000Z</time>
      </trkpt>
      <trkpt lat="47.51742" lon="6.77476">
        <ele>389</ele>
        <time>2015-04-06T07:08:57.000Z</time>
      </trkpt>
      <trkpt lat="47.51739" lon="6.77475">
        <ele>389</ele>
        <time>2015-04-06T07:08:58.000Z</time>
      </trkpt>
      <trkpt lat="47.51736" lon="6.77475">
        <ele>389</ele>
        <time>2015-04-06T07:08:59.000Z</time>
      </trkpt>
      <trkpt lat="47.51733" lon="6.77477">
        <ele>389</ele>
        <time>2015-04-06T07:09:00.000Z</time>
      </trkpt>
      <trkpt lat="47.5173" lon="6.7748">
        <ele>389</ele>
        <time>2015-04-06T07:09:01.000Z</time>
      </trkpt>
      <trkpt lat="47.51727" lon="6.77483">
        <ele>389</ele>
        <time>2015-04-06T07:09:02.000Z</time>
      </trkpt>
      <trkpt lat="47.51725" lon="6.77487">
        <ele>389</ele>
        <time>2015-04-06T07:09:03.000Z</time>
      </trkpt>
      <trkpt lat="47.51723" lon="6.77491">
        <ele>389</ele>
        <time>2015-04-06T07:09:04.000Z</time>
      </trkpt>
      <trkpt lat="47.51722" lon="6.77495">
        <ele>389</ele>
        <time>2015-04-06T07:09:05.000Z</time>
      </trkpt>
      <trkpt lat="47.51721" lon="6.77499">
        <ele>389</ele>
        <time>2015-04-06T07:09:06.000Z</time>
      </trkpt>
      <trkpt lat="47.5172" lon="6.77504">
        <ele>390</ele>
        <time>2015-04-06T07:09:07.000Z</time>
      </trkpt>
      <trkpt lat="47.5172" lon="6.77509">
        <ele>390</ele>
        <time>2015-04-06T07:09:08.000Z</time>
      </trkpt>
      <trkpt lat="47.51719" lon="6.77516">
        <ele>390</ele>
        <time>2015-04-06T07:09:09.000Z</time>
      </trkpt>
      <trkpt lat="47.51719" lon="6.77523">
        <ele>390</ele>
        <time>2015-04-06T07:09:10.000Z</time>
      </trkpt>
      <trkpt lat="47.51719" lon="6.7753">
        <ele>390</ele>
        <time>2015-04-06T07:09:11.000Z</time>
      </trkpt>
      <trkpt lat="47.51719" lon="6.77537">
        <ele>390</ele>
        <time>2015-04-06T07:09:12.000Z</time>
      </trkpt>
      <trkpt lat="47.51718" lon="6.77543">
        <ele>390</ele>
        <time>2015-04-06T07:09:13.000Z</time>
      </trkpt>
      <trkpt lat="47.51717" lon="6.77547">
        <ele>390</ele>
        <time>2015-04-06T07:09:14.000Z</time>
      </trkpt>
      <trkpt lat="47.51715" lon="6.7755">
        <ele>390</ele>
        <time>2015-04-06T07:09:15.000Z</time>
      </trkpt>
      <trkpt lat="47.51713" lon="6.77552">
        <ele>390</ele>
        <time>2015-04-06T07:09:16.000Z</time>
      </trkpt>
      <trkpt lat="47.5171" lon="6.77552">
        <ele>390</ele>
        <time>2015-04-06T07:09:17.000Z</time>
      </trkpt>
      <trkpt lat="47.51707" lon="6.7755">
        <ele>390</ele>
        <time>2015-04-06T07:09:18.000Z</time>
      </trkpt>
      <trkpt lat="47.51704" lon="6.77548">
        <ele>390</ele>
        <time>2015-04-06T07:09:19.000Z</time>
      </trkpt>
      <trkpt lat="47.51701" lon="6.77545">
        <ele>390</ele>
        <time>2015-04-06T07:09:20.000Z</time>
      </trkpt>
      <trkpt lat="47.51699" lon="6.77541">
        <ele>390</ele>
        <time>2015-04-06T07:09:21.000Z</time>
      </trkpt>
      <trkpt lat="47.51696" lon="6.77537">
        <ele>390</ele>
        <time>2015-04-06T07:09:22.000Z</time>
      </trkpt>
      <trkpt lat="47.51692" lon="6.77533">
        <ele>390</ele>
        <time>2015-04-06T07:09:23.000Z</time>
      </trkpt>
      <trkpt lat="47.51689" lon="6.77529">
        <ele>390</ele>
        <time>2015-04-06T07:09:24.000Z</time>
      </trkpt>
      <trkpt lat="47.51686" lon="6.77525">
        <ele>390</ele>
        <time>2015-04-06T07:09:25.000Z</time>
      </trkpt>
      <trkpt lat="47.51681" lon="6.7752">
        <ele>390</ele>
        <time>2015-04-06T07:09:26.000Z</time>
      </trkpt>
      <trkpt lat="47.51677" lon="6.77515">
        <ele>389</ele>
        <time>2015-04-06T07:09:27.000Z</time>
      </trkpt>
      <trkpt lat="47.51674" lon="6.77512">
        <ele>389</ele>
        <time>2015-04-06T07:09:28.000Z</time>
      </trkpt>
      <trkpt lat="47.51671" lon="6.77506">
        <ele>389</ele>
        <time>2015-04-06T07:09:29.000Z</time>
      </trkpt>
      <trkpt lat="47.51667" lon="6.77502">
        <ele>389</ele>
        <time>2015-04-06T07:09:30.000Z</time>
      </trkpt>
      <trkpt lat="47.51663" lon="6.77498">
        <ele>388</ele>
        <time>2015-04-06T07:09:31.000Z</time>
      </trkpt>
      <trkpt lat="47.51659" lon="6.77494">
        <ele>388</ele>
        <time>2015-04-06T07:09:32.000Z</time>
      </trkpt>
      <trkpt lat="47.51655" lon="6.7749">
        <ele>387</ele>
        <time>2015-04-06T07:09:33.000Z</time>
      </trkpt>
      <trkpt lat="47.51651" lon="6.77485">
        <ele>387</ele>
        <time>2015-04-06T07:09:34.000Z</time>
      </trkpt>
      <trkpt lat="47.51646" lon="6.7748">
        <ele>387</ele>
        <time>2015-04-06T07:09:35.000Z</time>
      </trkpt>
      <trkpt lat="47.51642" lon="6.77475">
        <ele>386</ele>
        <time>2015-04-06T07:09:36.000Z</time>
      </trkpt>
      <trkpt lat="47.51638" lon="6.7747">
        <ele>386</ele>
        <time>2015-04-06T07:09:37.000Z</time>
      </trkpt>
      <trkpt lat="47.51634" lon="6.77464">
        <ele>386</ele>
        <time>2015-04-06T07:09:38.000Z</time>
      </trkpt>
      <trkpt lat="47.51628" lon="6.77458">
        <ele>386</ele>
        <time>2015-04-06T07:09:39.000Z</time>
      </trkpt>
      <trkpt lat="47.51623" lon="6.77453">
        <ele>386</ele>
        <time>2015-04-06T07:09:40.000Z</time>
      </trkpt>
      <trkpt lat="47.51619" lon="6.77449">
        <ele>385</ele>
        <time>2015-04-06T07:09:41.000Z</time>
      </trkpt>
      <trkpt lat="47.51614" lon="6.77444">
        <ele>385</ele>
        <time>2015-04-06T07:09:42.000Z</time>
      </trkpt>
      <trkpt lat="47.51609" lon="6.77438">
        <ele>385</ele>
        <time>2015-04-06T07:09:43.000Z</time>
      </trkpt>
      <trkpt lat="47.51604" lon="6.77432">
        <ele>385</ele>
        <time>2015-04-06T07:09:44.000Z</time>
      </trkpt>
      <trkpt lat="47.51599" lon="6.77427">
        <ele>384</ele>
        <time>2015-04-06T07:09:45.000Z</time>
      </trkpt>
      <trkpt lat="47.51594" lon="6.7742">
        <ele>384</ele>
        <time>2015-04-06T07:09:46.000Z</time>
      </trkpt>
      <trkpt lat="47.51589" lon="6.77414">
        <ele>383</ele>
        <time>2015-04-06T07:09:47.000Z</time>
      </trkpt>
      <trkpt lat="47.51584" lon="6.77407">
        <ele>383</ele>
        <time>2015-04-06T07:09:48.000Z</time>
      </trkpt>
      <trkpt lat="47.51578" lon="6.77401">
        <ele>382</ele>
        <time>2015-04-06T07:09:49.000Z</time>
      </trkpt>
      <trkpt lat="47.51572" lon="6.77394">
        <ele>381</ele>
        <time>2015-04-06T07:09:50.000Z</time>
      </trkpt>
      <trkpt lat="47.5156" lon="6.77381">
        <ele>381</ele>
        <time>2015-04-06T07:09:52.001Z</time>
      </trkpt>
      <trkpt lat="47.51555" lon="6.77376">
        <ele>381</ele>
        <time>2015-04-06T07:09:53.000Z</time>
      </trkpt>
      <trkpt lat="47.51549" lon="6.77369">
        <ele>381</ele>
        <time>2015-04-06T07:09:54.000Z</time>
      </trkpt>
      <trkpt lat="47.51542" lon="6.77358">
        <ele>380</ele>
        <time>2015-04-06T07:09:55.000Z</time>
      </trkpt>
      <trkpt lat="47.51536" lon="6.7735">
        <ele>380</ele>
        <time>2015-04-06T07:09:56.000Z</time>
      </trkpt>
      <trkpt lat="47.5153" lon="6.77341">
        <ele>380</ele>
        <time>2015-04-06T07:09:57.000Z</time>
      </trkpt>
      <trkpt lat="47.51525" lon="6.77337">
        <ele>380</ele>
        <time>2015-04-06T07:09:58.000Z</time>
      </trkpt>
      <trkpt lat="47.51519" lon="6.77331">
        <ele>378</ele>
        <time>2015-04-06T07:09:59.000Z</time>
      </trkpt>
      <trkpt lat="47.51513" lon="6.77325">
        <ele>378</ele>
        <time>2015-04-06T07:10:00.000Z</time>
      </trkpt>
      <trkpt lat="47.51507" lon="6.77316">
        <ele>378</ele>
        <time>2015-04-06T07:10:01.000Z</time>
      </trkpt>
      <trkpt lat="47.51503" lon="6.77307">
        <ele>378</ele>
        <time>2015-04-06T07:10:02.000Z</time>
      </trkpt>
      <trkpt lat="47.51499" lon="6.77298">
        <ele>377</ele>
        <time>2015-04-06T07:10:03.000Z</time>
      </trkpt>
      <trkpt lat="47.51497" lon="6.77289">
        <ele>377</ele>
        <time>2015-04-06T07:10:04.000Z</time>
      </trkpt>
      <trkpt lat="47.51495" lon="6.77279">
        <ele>377</ele>
        <time>2015-04-06T07:10:05.000Z</time>
      </trkpt>
      <trkpt lat="47.51495" lon="6.77269">
        <ele>376</ele>
        <time>2015-04-06T07:10:06.000Z</time>
      </trkpt>
      <trkpt lat="47.51494" lon="6.77259">
        <ele>376</ele>
        <time>2015-04-06T07:10:07.000Z</time>
      </trkpt>
      <trkpt lat="47.51494" lon="6.77251">
        <ele>376</ele>
        <time>2015-04-06T07:10:08.000Z</time>
      </trkpt>
      <trkpt lat="47.51494" lon="6.77242">
        <ele>376</ele>
        <time>2015-04-06T07:10:09.000Z</time>
      </trkpt>
      <trkpt lat="47.51492" lon="6.77234">
        <ele>375</ele>
        <time>2015-04-06T07:10:10.000Z</time>
      </trkpt>
      <trkpt lat="47.5149" lon="6.77226">
        <ele>375</ele>
        <time>2015-04-06T07:10:11.000Z</time>
      </trkpt>
      <trkpt lat="47.51486" lon="6.77216">
        <ele>375</ele>
        <time>2015-04-06T07:10:12.000Z</time>
      </trkpt>
      <trkpt lat="47.51484" lon="6.77208">
        <ele>375</ele>
        <time>2015-04-06T07:10:13.000Z</time>
      </trkpt>
      <trkpt lat="47.51482" lon="6.77204">
        <ele>375</ele>
        <time>2015-04-06T07:10:14.000Z</time>
      </trkpt>
      <trkpt lat="47.51477" lon="6.772">
        <ele>375</ele>
        <time>2015-04-06T07:10:15.000Z</time>
      </trkpt>
      <trkpt lat="47.5147" lon="6.772">
        <ele>375</ele>
        <time>2015-04-06T07:10:16.000Z</time>
      </trkpt>
      <trkpt lat="47.51463" lon="6.77201">
        <ele>375</ele>
        <time>2015-04-06T07:10:17.000Z</time>
      </trkpt>
      <trkpt lat="47.51455" lon="6.77203">
        <ele>375</ele>
        <time>2015-04-06T07:10:18.000Z</time>
      </trkpt>
      <trkpt lat="47.51449" lon="6.77207">
        <ele>375</ele>
        <time>2015-04-06T07:10:19.000Z</time>
      </trkpt>
      <trkpt lat="47.51442" lon="6.77212">
        <ele>375</ele>
        <time>2015-04-06T07:10:20.000Z</time>
      </trkpt>
      <trkpt lat="47.51435" lon="6.77216">
        <ele>375</ele>
        <time>2015-04-06T07:10:21.000Z</time>
      </trkpt>
      <trkpt lat="47.51428" lon="6.7722">
        <ele>375</ele>
        <time>2015-04-06T07:10:22.000Z</time>
      </trkpt>
      <trkpt lat="47.51421" lon="6.77222">
        <ele>375</ele>
        <time>2015-04-06T07:10:23.000Z</time>
      </trkpt>
      <trkpt lat="47.51416" lon="6.77224">
        <ele>376</ele>
        <time>2015-04-06T07:10:24.000Z</time>
      </trkpt>
      <trkpt lat="47.51411" lon="6.77227">
        <ele>376</ele>
        <time>2015-04-06T07:10:25.000Z</time>
      </trkpt>
      <trkpt lat="47.51407" lon="6.7723">
        <ele>376</ele>
        <time>2015-04-06T07:10:26.000Z</time>
      </trkpt>
      <trkpt lat="47.514" lon="6.77232">
        <ele>376</ele>
        <time>2015-04-06T07:10:27.000Z</time>
      </trkpt>
      <trkpt lat="47.51395" lon="6.77237">
        <ele>376</ele>
        <time>2015-04-06T07:10:28.000Z</time>
      </trkpt>
      <trkpt lat="47.5139" lon="6.77241">
        <ele>376</ele>
        <time>2015-04-06T07:10:29.000Z</time>
      </trkpt>
      <trkpt lat="47.51386" lon="6.77244">
        <ele>376</ele>
        <time>2015-04-06T07:10:30.000Z</time>
      </trkpt>
      <trkpt lat="47.51383" lon="6.77247">
        <ele>376</ele>
        <time>2015-04-06T07:10:31.000Z</time>
      </trkpt>
      <trkpt lat="47.51378" lon="6.77248">
        <ele>376</ele>
        <time>2015-04-06T07:10:32.000Z</time>
      </trkpt>
      <trkpt lat="47.51374" lon="6.77251">
        <ele>377</ele>
        <time>2015-04-06T07:10:33.000Z</time>
      </trkpt>
      <trkpt lat="47.51371" lon="6.77253">
        <ele>377</ele>
        <time>2015-04-06T07:10:34.000Z</time>
      </trkpt>
      <trkpt lat="47.51368" lon="6.77256">
        <ele>378</ele>
        <time>2015-04-06T07:10:35.000Z</time>
      </trkpt>
      <trkpt lat="47.51364" lon="6.77258">
        <ele>378</ele>
        <time>2015-04-06T07:10:36.000Z</time>
      </trkpt>
      <trkpt lat="47.51361" lon="6.7726">
        <ele>378</ele>
        <time>2015-04-06T07:10:37.000Z</time>
      </trkpt>
      <trkpt lat="47.5136" lon="6.77262">
        <ele>378</ele>
        <time>2015-04-06T07:10:38.000Z</time>
      </trkpt>
      <trkpt lat="47.51357" lon="6.77264">
        <ele>378</ele>
        <time>2015-04-06T07:10:39.000Z</time>
      </trkpt>
      <trkpt lat="47.51355" lon="6.77267">
        <ele>378</ele>
        <time>2015-04-06T07:10:40.000Z</time>
      </trkpt>
      <trkpt lat="47.51353" lon="6.77269">
        <ele>378</ele>
        <time>2015-04-06T07:10:41.000Z</time>
      </trkpt>
      <trkpt lat="47.5135" lon="6.77272">
        <ele>378</ele>
        <time>2015-04-06T07:10:42.000Z</time>
      </trkpt>
      <trkpt lat="47.51348" lon="6.77274">
        <ele>378</ele>
        <time>2015-04-06T07:10:43.000Z</time>
      </trkpt>
      <trkpt lat="47.51345" lon="6.77277">
        <ele>378</ele>
        <time>2015-04-06T07:10:44.000Z</time>
      </trkpt>
      <trkpt lat="47.51343" lon="6.77279">
        <ele>378</ele>
        <time>2015-04-06T07:10:45.000Z</time>
      </trkpt>
      <trkpt lat="47.51341" lon="6.77281">
        <ele>378</ele>
        <time>2015-04-06T07:10:46.000Z</time>
      </trkpt>
      <trkpt lat="47.51337" lon="6.77284">
        <ele>378</ele>
        <time>2015-04-06T07:10:48.000Z</time>
      </trkpt>
      <trkpt lat="47.51335" lon="6.77284">
        <ele>378</ele>
        <time>2015-04-06T07:10:49.000Z</time>
      </trkpt>
      <trkpt lat="47.51332" lon="6.77284">
        <ele>378</ele>
        <time>2015-04-06T07:10:50.000Z</time>
      </trkpt>
      <trkpt lat="47.51327" lon="6.77285">
        <ele>378</ele>
        <time>2015-04-06T07:10:52.000Z</time>
      </trkpt>
      <trkpt lat="47.51324" lon="6.77285">
        <ele>378</ele>
        <time>2015-04-06T07:10:53.000Z</time>
      </trkpt>
      <trkpt lat="47.51321" lon="6.77286">
        <ele>377</ele>
        <time>2015-04-06T07:10:54.000Z</time>
      </trkpt>
      <trkpt lat="47.51318" lon="6.77285">
        <ele>377</ele>
        <time>2015-04-06T07:10:55.000Z</time>
      </trkpt>
      <trkpt lat="47.51315" lon="6.77285">
        <ele>377</ele>
        <time>2015-04-06T07:10:56.000Z</time>
      </trkpt>
      <trkpt lat="47.51312" lon="6.77284">
        <ele>377</ele>
        <time>2015-04-06T07:10:57.000Z</time>
      </trkpt>
      <trkpt lat="47.51309" lon="6.77282">
        <ele>377</ele>
        <time>2015-04-06T07:10:58.000Z</time>
      </trkpt>
      <trkpt lat="47.51306" lon="6.7728">
        <ele>377</ele>
        <time>2015-04-06T07:10:59.000Z</time>
      </trkpt>
      <trkpt lat="47.51303" lon="6.77278">
        <ele>377</ele>
        <time>2015-04-06T07:11:00.000Z</time>
      </trkpt>
      <trkpt lat="47.513" lon="6.77277">
        <ele>377</ele>
        <time>2015-04-06T07:11:01.001Z</time>
      </trkpt>
      <trkpt lat="47.51296" lon="6.77275">
        <ele>377</ele>
        <time>2015-04-06T07:11:02.000Z</time>
      </trkpt>
      <trkpt lat="47.51293" lon="6.77273">
        <ele>377</ele>
        <time>2015-04-06T07:11:03.000Z</time>
      </trkpt>
      <trkpt lat="47.51289" lon="6.77271">
        <ele>377</ele>
        <time>2015-04-06T07:11:04.000Z</time>
      </trkpt>
      <trkpt lat="47.51286" lon="6.77269">
        <ele>377</ele>
        <time>2015-04-06T07:11:05.000Z</time>
      </trkpt>
      <trkpt lat="47.51283" lon="6.77267">
        <ele>377</ele>
        <time>2015-04-06T07:11:06.000Z</time>
      </trkpt>
      <trkpt lat="47.5128" lon="6.77265">
        <ele>377</ele>
        <time>2015-04-06T07:11:07.000Z</time>
      </trkpt>
      <trkpt lat="47.51277" lon="6.77263">
        <ele>377</ele>
        <time>2015-04-06T07:11:08.000Z</time>
      </trkpt>
      <trkpt lat="47.51274" lon="6.77261">
        <ele>377</ele>
        <time>2015-04-06T07:11:09.000Z</time>
      </trkpt>
      <trkpt lat="47.51271" lon="6.77259">
        <ele>377</ele>
        <time>2015-04-06T07:11:10.000Z</time>
      </trkpt>
      <trkpt lat="47.51268" lon="6.77257">
        <ele>378</ele>
        <time>2015-04-06T07:11:11.000Z</time>
      </trkpt>
      <trkpt lat="47.51265" lon="6.77254">
        <ele>378</ele>
        <time>2015-04-06T07:11:12.000Z</time>
      </trkpt>
      <trkpt lat="47.51262" lon="6.7725">
        <ele>378</ele>
        <time>2015-04-06T07:11:13.000Z</time>
      </trkpt>
      <trkpt lat="47.51259" lon="6.77247">
        <ele>379</ele>
        <time>2015-04-06T07:11:14.000Z</time>
      </trkpt>
      <trkpt lat="47.51256" lon="6.77242">
        <ele>379</ele>
        <time>2015-04-06T07:11:15.000Z</time>
      </trkpt>
      <trkpt lat="47.51254" lon="6.77237">
        <ele>378</ele>
        <time>2015-04-06T07:11:16.000Z</time>
      </trkpt>
      <trkpt lat="47.51251" lon="6.77231">
        <ele>378</ele>
        <time>2015-04-06T07:11:17.000Z</time>
      </trkpt>
      <trkpt lat="47.51248" lon="6.77226">
        <ele>377</ele>
        <time>2015-04-06T07:11:18.000Z</time>
      </trkpt>
      <trkpt lat="47.51245" lon="6.77221">
        <ele>376</ele>
        <time>2015-04-06T07:11:19.000Z</time>
      </trkpt>
      <trkpt lat="47.51243" lon="6.77216">
        <ele>376</ele>
        <time>2015-04-06T07:11:20.000Z</time>
      </trkpt>
      <trkpt lat="47.51241" lon="6.77211">
        <ele>376</ele>
        <time>2015-04-06T07:11:21.000Z</time>
      </trkpt>
      <trkpt lat="47.51239" lon="6.77206">
        <ele>376</ele>
        <time>2015-04-06T07:11:22.000Z</time>
      </trkpt>
      <trkpt lat="47.51237" lon="6.772">
        <ele>376</ele>
        <time>2015-04-06T07:11:23.000Z</time>
      </trkpt>
      <trkpt lat="47.51234" lon="6.77195">
        <ele>376</ele>
        <time>2015-04-06T07:11:24.000Z</time>
      </trkpt>
      <trkpt lat="47.51232" lon="6.7719">
        <ele>376</ele>
        <time>2015-04-06T07:11:25.000Z</time>
      </trkpt>
      <trkpt lat="47.5123" lon="6.77186">
        <ele>377</ele>
        <time>2015-04-06T07:11:26.000Z</time>
      </trkpt>
      <trkpt lat="47.51228" lon="6.77181">
        <ele>377</ele>
        <time>2015-04-06T07:11:27.000Z</time>
      </trkpt>
      <trkpt lat="47.51226" lon="6.77176">
        <ele>377</ele>
        <time>2015-04-06T07:11:28.000Z</time>
      </trkpt>
      <trkpt lat="47.51223" lon="6.77171">
        <ele>377</ele>
        <time>2015-04-06T07:11:29.000Z</time>
      </trkpt>
      <trkpt lat="47.51221" lon="6.77164">
        <ele>378</ele>
        <time>2015-04-06T07:11:30.000Z</time>
      </trkpt>
      <trkpt lat="47.51218" lon="6.77159">
        <ele>378</ele>
        <time>2015-04-06T07:11:31.000Z</time>
      </trkpt>
      <trkpt lat="47.51215" lon="6.77153">
        <ele>378</ele>
        <time>2015-04-06T07:11:32.000Z</time>
      </trkpt>
      <trkpt lat="47.51212" lon="6.77147">
        <ele>378</ele>
        <time>2015-04-06T07:11:33.000Z</time>
      </trkpt>
      <trkpt lat="47.51208" lon="6.77141">
        <ele>378</ele>
        <time>2015-04-06T07:11:34.000Z</time>
      </trkpt>
      <trkpt lat="47.51205" lon="6.77136">
        <ele>378</ele>
        <time>2015-04-06T07:11:35.000Z</time>
      </trkpt>
      <trkpt lat="47.51202" lon="6.77128">
        <ele>378</ele>
        <time>2015-04-06T07:11:36.000Z</time>
      </trkpt>
      <trkpt lat="47.51198" lon="6.77122">
        <ele>378</ele>
        <time>2015-04-06T07:11:37.000Z</time>
      </trkpt>
      <trkpt lat="47.51195" lon="6.77114">
        <ele>378</ele>
        <time>2015-04-06T07:11:38.000Z</time>
      </trkpt>
      <trkpt lat="47.51191" lon="6.77107">
        <ele>378</ele>
        <time>2015-04-06T07:11:39.000Z</time>
      </trkpt>
      <trkpt lat="47.51188" lon="6.77101">
        <ele>378</ele>
        <time>2015-04-06T07:11:40.000Z</time>
      </trkpt>
      <trkpt lat="47.51184" lon="6.77093">
        <ele>378</ele>
        <time>2015-04-06T07:11:41.000Z</time>
      </trkpt>
      <trkpt lat="47.51179" lon="6.77088">
        <ele>378</ele>
        <time>2015-04-06T07:11:42.000Z</time>
      </trkpt>
      <trkpt lat="47.51175" lon="6.77081">
        <ele>377</ele>
        <time>2015-04-06T07:11:43.000Z</time>
      </trkpt>
      <trkpt lat="47.5117" lon="6.77074">
        <ele>377</ele>
        <time>2015-04-06T07:11:44.000Z</time>
      </trkpt>
      <trkpt lat="47.51165" lon="6.77067">
        <ele>377</ele>
        <time>2015-04-06T07:11:45.000Z</time>
      </trkpt>
      <trkpt lat="47.51161" lon="6.77061">
        <ele>376</ele>
        <time>2015-04-06T07:11:46.000Z</time>
      </trkpt>
      <trkpt lat="47.51156" lon="6.77056">
        <ele>376</ele>
        <time>2015-04-06T07:11:47.000Z</time>
      </trkpt>
      <trkpt lat="47.51151" lon="6.77051">
        <ele>376</ele>
        <time>2015-04-06T07:11:48.000Z</time>
      </trkpt>
      <trkpt lat="47.51146" lon="6.77047">
        <ele>376</ele>
        <time>2015-04-06T07:11:49.000Z</time>
      </trkpt>
      <trkpt lat="47.51141" lon="6.77043">
        <ele>375</ele>
        <time>2015-04-06T07:11:50.000Z</time>
      </trkpt>
      <trkpt lat="47.51133" lon="6.77036">
        <ele>375</ele>
        <time>2015-04-06T07:11:52.000Z</time>
      </trkpt>
      <trkpt lat="47.51128" lon="6.77032">
        <ele>375</ele>
        <time>2015-04-06T07:11:53.000Z</time>
      </trkpt>
      <trkpt lat="47.51123" lon="6.77027">
        <ele>375</ele>
        <time>2015-04-06T07:11:54.000Z</time>
      </trkpt>
      <trkpt lat="47.51119" lon="6.77022">
        <ele>375</ele>
        <time>2015-04-06T07:11:55.000Z</time>
      </trkpt>
      <trkpt lat="47.51114" lon="6.77017">
        <ele>375</ele>
        <time>2015-04-06T07:11:56.000Z</time>
      </trkpt>
      <trkpt lat="47.51109" lon="6.77013">
        <ele>375</ele>
        <time>2015-04-06T07:11:57.000Z</time>
      </trkpt>
      <trkpt lat="47.51106" lon="6.77007">
        <ele>375</ele>
        <time>2015-04-06T07:11:58.000Z</time>
      </trkpt>
      <trkpt lat="47.51102" lon="6.77003">
        <ele>375</ele>
        <time>2015-04-06T07:11:58.999Z</time>
      </trkpt>
      <trkpt lat="47.511" lon="6.76999">
        <ele>375</ele>
        <time>2015-04-06T07:12:00.000Z</time>
      </trkpt>
      <trkpt lat="47.51094" lon="6.76997">
        <ele>375</ele>
        <time>2015-04-06T07:12:01.000Z</time>
      </trkpt>
      <trkpt lat="47.51091" lon="6.76993">
        <ele>375</ele>
        <time>2015-04-06T07:12:02.000Z</time>
      </trkpt>
      <trkpt lat="47.51089" lon="6.76994">
        <ele>375</ele>
        <time>2015-04-06T07:12:03.000Z</time>
      </trkpt>
      <trkpt lat="47.51085" lon="6.76989">
        <ele>375</ele>
        <time>2015-04-06T07:12:04.000Z</time>
      </trkpt>
      <trkpt lat="47.5108" lon="6.76984">
        <ele>375</ele>
        <time>2015-04-06T07:12:05.000Z</time>
      </trkpt>
      <trkpt lat="47.51076" lon="6.76981">
        <ele>375</ele>
        <time>2015-04-06T07:12:06.000Z</time>
      </trkpt>
      <trkpt lat="47.51071" lon="6.76978">
        <ele>375</ele>
        <time>2015-04-06T07:12:07.000Z</time>
      </trkpt>
      <trkpt lat="47.51067" lon="6.76974">
        <ele>375</ele>
        <time>2015-04-06T07:12:08.000Z</time>
      </trkpt>
      <trkpt lat="47.5106" lon="6.76981">
        <ele>375</ele>
        <time>2015-04-06T07:12:09.000Z</time>
      </trkpt>
      <trkpt lat="47.51056" lon="6.76974">
        <ele>375</ele>
        <time>2015-04-06T07:12:10.000Z</time>
      </trkpt>
      <trkpt lat="47.51053" lon="6.76969">
        <ele>375</ele>
        <time>2015-04-06T07:12:11.000Z</time>
      </trkpt>
      <trkpt lat="47.51048" lon="6.76966">
        <ele>375</ele>
        <time>2015-04-06T07:12:12.000Z</time>
      </trkpt>
      <trkpt lat="47.51044" lon="6.76962">
        <ele>375</ele>
        <time>2015-04-06T07:12:13.000Z</time>
      </trkpt>
      <trkpt lat="47.51041" lon="6.76958">
        <ele>375</ele>
        <time>2015-04-06T07:12:14.000Z</time>
      </trkpt>
      <trkpt lat="47.51037" lon="6.76955">
        <ele>375</ele>
        <time>2015-04-06T07:12:15.000Z</time>
      </trkpt>
      <trkpt lat="47.51033" lon="6.7695">
        <ele>375</ele>
        <time>2015-04-06T07:12:16.000Z</time>
      </trkpt>
      <trkpt lat="47.5103" lon="6.76946">
        <ele>375</ele>
        <time>2015-04-06T07:12:17.000Z</time>
      </trkpt>
      <trkpt lat="47.51027" lon="6.76943">
        <ele>375</ele>
        <time>2015-04-06T07:12:18.000Z</time>
      </trkpt>
      <trkpt lat="47.51023" lon="6.7694">
        <ele>375</ele>
        <time>2015-04-06T07:12:19.000Z</time>
      </trkpt>
      <trkpt lat="47.51021" lon="6.76938">
        <ele>375</ele>
        <time>2015-04-06T07:12:20.000Z</time>
      </trkpt>
      <trkpt lat="47.51017" lon="6.76937">
        <ele>375</ele>
        <time>2015-04-06T07:12:21.000Z</time>
      </trkpt>
      <trkpt lat="47.51013" lon="6.76933">
        <ele>375</ele>
        <time>2015-04-06T07:12:22.000Z</time>
      </trkpt>
      <trkpt lat="47.51009" lon="6.76926">
        <ele>375</ele>
        <time>2015-04-06T07:12:23.000Z</time>
      </trkpt>
      <trkpt lat="47.51006" lon="6.76921">
        <ele>376</ele>
        <time>2015-04-06T07:12:24.000Z</time>
      </trkpt>
      <trkpt lat="47.51003" lon="6.76917">
        <ele>376</ele>
        <time>2015-04-06T07:12:25.000Z</time>
      </trkpt>
      <trkpt lat="47.51001" lon="6.76911">
        <ele>376</ele>
        <time>2015-04-06T07:12:26.000Z</time>
      </trkpt>
      <trkpt lat="47.50999" lon="6.76909">
        <ele>376</ele>
        <time>2015-04-06T07:12:27.000Z</time>
      </trkpt>
      <trkpt lat="47.50995" lon="6.76905">
        <ele>377</ele>
        <time>2015-04-06T07:12:28.000Z</time>
      </trkpt>
      <trkpt lat="47.50992" lon="6.76902">
        <ele>377</ele>
        <time>2015-04-06T07:12:29.000Z</time>
      </trkpt>
      <trkpt lat="47.50988" lon="6.76899">
        <ele>377</ele>
        <time>2015-04-06T07:12:30.000Z</time>
      </trkpt>
      <trkpt lat="47.50984" lon="6.76897">
        <ele>377</ele>
        <time>2015-04-06T07:12:31.000Z</time>
      </trkpt>
      <trkpt lat="47.5098" lon="6.76897">
        <ele>377</ele>
        <time>2015-04-06T07:12:32.000Z</time>
      </trkpt>
      <trkpt lat="47.50976" lon="6.76896">
        <ele>377</ele>
        <time>2015-04-06T07:12:33.000Z</time>
      </trkpt>
      <trkpt lat="47.50972" lon="6.76895">
        <ele>377</ele>
        <time>2015-04-06T07:12:34.000Z</time>
      </trkpt>
      <trkpt lat="47.50969" lon="6.76894">
        <ele>377</ele>
        <time>2015-04-06T07:12:35.000Z</time>
      </trkpt>
      <trkpt lat="47.50965" lon="6.76893">
        <ele>377</ele>
        <time>2015-04-06T07:12:36.000Z</time>
      </trkpt>
      <trkpt lat="47.50962" lon="6.76891">
        <ele>377</ele>
        <time>2015-04-06T07:12:37.000Z</time>
      </trkpt>
      <trkpt lat="47.50958" lon="6.76888">
        <ele>377</ele>
        <time>2015-04-06T07:12:38.000Z</time>
      </trkpt>
      <trkpt lat="47.50955" lon="6.76886">
        <ele>377</ele>
        <time>2015-04-06T07:12:39.000Z</time>
      </trkpt>
      <trkpt lat="47.50951" lon="6.76884">
        <ele>378</ele>
        <time>2015-04-06T07:12:40.000Z</time>
      </trkpt>
      <trkpt lat="47.50948" lon="6.76881">
        <ele>378</ele>
        <time>2015-04-06T07:12:41.000Z</time>
      </trkpt>
      <trkpt lat="47.50944" lon="6.76878">
        <ele>378</ele>
        <time>2015-04-06T07:12:42.000Z</time>
      </trkpt>
      <trkpt lat="47.50941" lon="6.76875">
        <ele>378</ele>
        <time>2015-04-06T07:12:43.000Z</time>
      </trkpt>
      <trkpt lat="47.50939" lon="6.76871">
        <ele>378</ele>
        <time>2015-04-06T07:12:44.000Z</time>
      </trkpt>
      <trkpt lat="47.50936" lon="6.76868">
        <ele>378</ele>
        <time>2015-04-06T07:12:45.000Z</time>
      </trkpt>
      <trkpt lat="47.50935" lon="6.76865">
        <ele>378</ele>
        <time>2015-04-06T07:12:46.000Z</time>
      </trkpt>
      <trkpt lat="47.50933" lon="6.76862">
        <ele>378</ele>
        <time>2015-04-06T07:12:47.000Z</time>
      </trkpt>
      <trkpt lat="47.50931" lon="6.76859">
        <ele>378</ele>
        <time>2015-04-06T07:12:48.000Z</time>
      </trkpt>
      <trkpt lat="47.5093" lon="6.76856">
        <ele>378</ele>
        <time>2015-04-06T07:12:49.000Z</time>
      </trkpt>
      <trkpt lat="47.50928" lon="6.76853">
        <ele>379</ele>
        <time>2015-04-06T07:12:50.000Z</time>
      </trkpt>
      <trkpt lat="47.50926" lon="6.76849">
        <ele>379</ele>
        <time>2015-04-06T07:12:51.000Z</time>
      </trkpt>
      <trkpt lat="47.50924" lon="6.76844">
        <ele>379</ele>
        <time>2015-04-06T07:12:52.000Z</time>
      </trkpt>
      <trkpt lat="47.50921" lon="6.76837">
        <ele>379</ele>
        <time>2015-04-06T07:12:53.000Z</time>
      </trkpt>
      <trkpt lat="47.50919" lon="6.76831">
        <ele>380</ele>
        <time>2015-04-06T07:12:54.000Z</time>
      </trkpt>
      <trkpt lat="47.50916" lon="6.76823">
        <ele>380</ele>
        <time>2015-04-06T07:12:55.000Z</time>
      </trkpt>
      <trkpt lat="47.50914" lon="6.76817">
        <ele>381</ele>
        <time>2015-04-06T07:12:56.000Z</time>
      </trkpt>
      <trkpt lat="47.50912" lon="6.7681">
        <ele>381</ele>
        <time>2015-04-06T07:12:57.000Z</time>
      </trkpt>
      <trkpt lat="47.50909" lon="6.76804">
        <ele>381</ele>
        <time>2015-04-06T07:12:58.000Z</time>
      </trkpt>
      <trkpt lat="47.50907" lon="6.76798">
        <ele>381</ele>
        <time>2015-04-06T07:12:59.000Z</time>
      </trkpt>
      <trkpt lat="47.50904" lon="6.76793">
        <ele>381</ele>
        <time>2015-04-06T07:13:00.000Z</time>
      </trkpt>
      <trkpt lat="47.50902" lon="6.76787">
        <ele>381</ele>
        <time>2015-04-06T07:13:01.000Z</time>
      </trkpt>
      <trkpt lat="47.509" lon="6.76782">
        <ele>381</ele>
        <time>2015-04-06T07:13:01.999Z</time>
      </trkpt>
      <trkpt lat="47.50898" lon="6.76777">
        <ele>381</ele>
        <time>2015-04-06T07:13:03.000Z</time>
      </trkpt>
      <trkpt lat="47.50896" lon="6.76771">
        <ele>381</ele>
        <time>2015-04-06T07:13:04.000Z</time>
      </trkpt>
      <trkpt lat="47.50894" lon="6.76766">
        <ele>381</ele>
        <time>2015-04-06T07:13:05.000Z</time>
      </trkpt>
      <trkpt lat="47.50892" lon="6.76761">
        <ele>381</ele>
        <time>2015-04-06T07:13:06.000Z</time>
      </trkpt>
      <trkpt lat="47.5089" lon="6.76756">
        <ele>381</ele>
        <time>2015-04-06T07:13:07.000Z</time>
      </trkpt>
      <trkpt lat="47.50889" lon="6.76751">
        <ele>381</ele>
        <time>2015-04-06T07:13:08.000Z</time>
      </trkpt>
      <trkpt lat="47.50887" lon="6.76746">
        <ele>382</ele>
        <time>2015-04-06T07:13:09.000Z</time>
      </trkpt>
      <trkpt lat="47.50886" lon="6.76742">
        <ele>382</ele>
        <time>2015-04-06T07:13:10.000Z</time>
      </trkpt>
      <trkpt lat="47.50885" lon="6.76739">
        <ele>382</ele>
        <time>2015-04-06T07:13:11.000Z</time>
      </trkpt>
      <trkpt lat="47.50884" lon="6.76735">
        <ele>382</ele>
        <time>2015-04-06T07:13:12.000Z</time>
      </trkpt>
      <trkpt lat="47.50884" lon="6.76731">
        <ele>382</ele>
        <time>2015-04-06T07:13:13.000Z</time>
      </trkpt>
      <trkpt lat="47.50882" lon="6.76727">
        <ele>383</ele>
        <time>2015-04-06T07:13:14.000Z</time>
      </trkpt>
      <trkpt lat="47.50881" lon="6.76722">
        <ele>383</ele>
        <time>2015-04-06T07:13:15.000Z</time>
      </trkpt>
      <trkpt lat="47.5088" lon="6.76718">
        <ele>383</ele>
        <time>2015-04-06T07:13:16.000Z</time>
      </trkpt>
      <trkpt lat="47.50878" lon="6.76714">
        <ele>383</ele>
        <time>2015-04-06T07:13:17.000Z</time>
      </trkpt>
      <trkpt lat="47.50876" lon="6.7671">
        <ele>383</ele>
        <time>2015-04-06T07:13:18.000Z</time>
      </trkpt>
      <trkpt lat="47.50874" lon="6.76706">
        <ele>383</ele>
        <time>2015-04-06T07:13:19.000Z</time>
      </trkpt>
      <trkpt lat="47.50872" lon="6.76701">
        <ele>384</ele>
        <time>2015-04-06T07:13:20.000Z</time>
      </trkpt>
      <trkpt lat="47.5087" lon="6.76696">
        <ele>384</ele>
        <time>2015-04-06T07:13:21.000Z</time>
      </trkpt>
      <trkpt lat="47.50869" lon="6.76691">
        <ele>384</ele>
        <time>2015-04-06T07:13:22.000Z</time>
      </trkpt>
      <trkpt lat="47.50867" lon="6.76687">
        <ele>384</ele>
        <time>2015-04-06T07:13:23.000Z</time>
      </trkpt>
      <trkpt lat="47.50865" lon="6.76682">
        <ele>384</ele>
        <time>2015-04-06T07:13:24.000Z</time>
      </trkpt>
      <trkpt lat="47.50864" lon="6.76678">
        <ele>385</ele>
        <time>2015-04-06T07:13:25.000Z</time>
      </trkpt>
      <trkpt lat="47.50862" lon="6.76674">
        <ele>385</ele>
        <time>2015-04-06T07:13:26.000Z</time>
      </trkpt>
      <trkpt lat="47.50859" lon="6.76669">
        <ele>385</ele>
        <time>2015-04-06T07:13:27.000Z</time>
      </trkpt>
      <trkpt lat="47.50857" lon="6.76665">
        <ele>387</ele>
        <time>2015-04-06T07:13:28.000Z</time>
      </trkpt>
      <trkpt lat="47.50854" lon="6.7666">
        <ele>387</ele>
        <time>2015-04-06T07:13:29.000Z</time>
      </trkpt>
      <trkpt lat="47.50852" lon="6.76656">
        <ele>387</ele>
        <time>2015-04-06T07:13:30.000Z</time>
      </trkpt>
      <trkpt lat="47.50849" lon="6.76651">
        <ele>387</ele>
        <time>2015-04-06T07:13:31.000Z</time>
      </trkpt>
      <trkpt lat="47.50846" lon="6.76647">
        <ele>387</ele>
        <time>2015-04-06T07:13:32.000Z</time>
      </trkpt>
      <trkpt lat="47.50844" lon="6.76643">
        <ele>387</ele>
        <time>2015-04-06T07:13:33.000Z</time>
      </trkpt>
      <trkpt lat="47.50842" lon="6.7664">
        <ele>387</ele>
        <time>2015-04-06T07:13:34.000Z</time>
      </trkpt>
      <trkpt lat="47.5084" lon="6.76636">
        <ele>387</ele>
        <time>2015-04-06T07:13:35.000Z</time>
      </trkpt>
      <trkpt lat="47.50839" lon="6.76632">
        <ele>387</ele>
        <time>2015-04-06T07:13:36.000Z</time>
      </trkpt>
      <trkpt lat="47.50837" lon="6.76628">
        <ele>387</ele>
        <time>2015-04-06T07:13:37.000Z</time>
      </trkpt>
      <trkpt lat="47.50835" lon="6.76625">
        <ele>387</ele>
        <time>2015-04-06T07:13:38.000Z</time>
      </trkpt>
      <trkpt lat="47.50834" lon="6.76621">
        <ele>387</ele>
        <time>2015-04-06T07:13:39.000Z</time>
      </trkpt>
      <trkpt lat="47.50832" lon="6.76618">
        <ele>390</ele>
        <time>2015-04-06T07:13:40.000Z</time>
      </trkpt>
      <trkpt lat="47.50831" lon="6.76614">
        <ele>390</ele>
        <time>2015-04-06T07:13:41.000Z</time>
      </trkpt>
      <trkpt lat="47.50829" lon="6.76611">
        <ele>390</ele>
        <time>2015-04-06T07:13:42.000Z</time>
      </trkpt>
      <trkpt lat="47.50827" lon="6.76608">
        <ele>390</ele>
        <time>2015-04-06T07:13:43.000Z</time>
      </trkpt>
      <trkpt lat="47.50825" lon="6.76602">
        <ele>390</ele>
        <time>2015-04-06T07:13:45.000Z</time>
      </trkpt>
      <trkpt lat="47.50824" lon="6.76599">
        <ele>390</ele>
        <time>2015-04-06T07:13:46.000Z</time>
      </trkpt>
      <trkpt lat="47.50821" lon="6.76595">
        <ele>390</ele>
        <time>2015-04-06T07:13:49.000Z</time>
      </trkpt>
      <trkpt lat="47.50819" lon="6.76595">
        <ele>390</ele>
        <time>2015-04-06T07:13:50.000Z</time>
      </trkpt>
      <trkpt lat="47.50816" lon="6.76596">
        <ele>390</ele>
        <time>2015-04-06T07:13:51.000Z</time>
      </trkpt>
      <trkpt lat="47.50813" lon="6.76596">
        <ele>390</ele>
        <time>2015-04-06T07:13:52.000Z</time>
      </trkpt>
      <trkpt lat="47.5081" lon="6.76595">
        <ele>390</ele>
        <time>2015-04-06T07:13:53.000Z</time>
      </trkpt>
      <trkpt lat="47.50808" lon="6.76593">
        <ele>390</ele>
        <time>2015-04-06T07:13:54.000Z</time>
      </trkpt>
      <trkpt lat="47.50805" lon="6.76589">
        <ele>390</ele>
        <time>2015-04-06T07:13:56.000Z</time>
      </trkpt>
      <trkpt lat="47.50803" lon="6.76588">
        <ele>391</ele>
        <time>2015-04-06T07:13:57.000Z</time>
      </trkpt>
      <trkpt lat="47.50798" lon="6.76588">
        <ele>391</ele>
        <time>2015-04-06T07:13:59.000Z</time>
      </trkpt>
      <trkpt lat="47.50796" lon="6.76588">
        <ele>391</ele>
        <time>2015-04-06T07:14:00.000Z</time>
      </trkpt>
      <trkpt lat="47.50792" lon="6.76588">
        <ele>391</ele>
        <time>2015-04-06T07:14:02.000Z</time>
      </trkpt>
      <trkpt lat="47.5079" lon="6.76589">
        <ele>391</ele>
        <time>2015-04-06T07:14:03.000Z</time>
      </trkpt>
      <trkpt lat="47.50788" lon="6.7659">
        <ele>391</ele>
        <time>2015-04-06T07:14:04.000Z</time>
      </trkpt>
      <trkpt lat="47.50785" lon="6.76591">
        <ele>391</ele>
        <time>2015-04-06T07:14:05.000Z</time>
      </trkpt>
      <trkpt lat="47.50783" lon="6.76593">
        <ele>391</ele>
        <time>2015-04-06T07:14:06.000Z</time>
      </trkpt>
      <trkpt lat="47.50781" lon="6.76594">
        <ele>391</ele>
        <time>2015-04-06T07:14:07.000Z</time>
      </trkpt>
      <trkpt lat="47.50779" lon="6.76596">
        <ele>392</ele>
        <time>2015-04-06T07:14:08.000Z</time>
      </trkpt>
      <trkpt lat="47.50776" lon="6.76598">
        <ele>392</ele>
        <time>2015-04-06T07:14:09.000Z</time>
      </trkpt>
      <trkpt lat="47.50774" lon="6.76599">
        <ele>392</ele>
        <time>2015-04-06T07:14:10.000Z</time>
      </trkpt>
      <trkpt lat="47.50772" lon="6.766">
        <ele>392</ele>
        <time>2015-04-06T07:14:11.000Z</time>
      </trkpt>
      <trkpt lat="47.50769" lon="6.76601">
        <ele>392</ele>
        <time>2015-04-06T07:14:12.000Z</time>
      </trkpt>
      <trkpt lat="47.50766" lon="6.76602">
        <ele>392</ele>
        <time>2015-04-06T07:14:13.000Z</time>
      </trkpt>
      <trkpt lat="47.50764" lon="6.76602">
        <ele>392</ele>
        <time>2015-04-06T07:14:14.000Z</time>
      </trkpt>
      <trkpt lat="47.50761" lon="6.76602">
        <ele>392</ele>
        <time>2015-04-06T07:14:15.000Z</time>
      </trkpt>
      <trkpt lat="47.50759" lon="6.76603">
        <ele>392</ele>
        <time>2015-04-06T07:14:16.000Z</time>
      </trkpt>
      <trkpt lat="47.50756" lon="6.76603">
        <ele>392</ele>
        <time>2015-04-06T07:14:17.000Z</time>
      </trkpt>
      <trkpt lat="47.50753" lon="6.76603">
        <ele>392</ele>
        <time>2015-04-06T07:14:18.000Z</time>
      </trkpt>
      <trkpt lat="47.5075" lon="6.76603">
        <ele>394</ele>
        <time>2015-04-06T07:14:19.000Z</time>
      </trkpt>
      <trkpt lat="47.50746" lon="6.76603">
        <ele>394</ele>
        <time>2015-04-06T07:14:20.000Z</time>
      </trkpt>
      <trkpt lat="47.50743" lon="6.76603">
        <ele>394</ele>
        <time>2015-04-06T07:14:21.000Z</time>
      </trkpt>
      <trkpt lat="47.5074" lon="6.76602">
        <ele>394</ele>
        <time>2015-04-06T07:14:22.000Z</time>
      </trkpt>
      <trkpt lat="47.50737" lon="6.76602">
        <ele>394</ele>
        <time>2015-04-06T07:14:23.000Z</time>
      </trkpt>
      <trkpt lat="47.50733" lon="6.76602">
        <ele>394</ele>
        <time>2015-04-06T07:14:24.000Z</time>
      </trkpt>
      <trkpt lat="47.5073" lon="6.76601">
        <ele>394</ele>
        <time>2015-04-06T07:14:25.000Z</time>
      </trkpt>
      <trkpt lat="47.50726" lon="6.766">
        <ele>394</ele>
        <time>2015-04-06T07:14:26.000Z</time>
      </trkpt>
      <trkpt lat="47.50723" lon="6.76599">
        <ele>394</ele>
        <time>2015-04-06T07:14:27.000Z</time>
      </trkpt>
      <trkpt lat="47.5072" lon="6.76598">
        <ele>394</ele>
        <time>2015-04-06T07:14:28.000Z</time>
      </trkpt>
      <trkpt lat="47.50716" lon="6.76597">
        <ele>394</ele>
        <time>2015-04-06T07:14:29.000Z</time>
      </trkpt>
      <trkpt lat="47.50712" lon="6.76596">
        <ele>395</ele>
        <time>2015-04-06T07:14:30.000Z</time>
      </trkpt>
      <trkpt lat="47.50708" lon="6.76596">
        <ele>395</ele>
        <time>2015-04-06T07:14:31.001Z</time>
      </trkpt>
      <trkpt lat="47.50704" lon="6.76596">
        <ele>395</ele>
        <time>2015-04-06T07:14:32.000Z</time>
      </trkpt>
      <trkpt lat="47.507" lon="6.76595">
        <ele>395</ele>
        <time>2015-04-06T07:14:33.000Z</time>
      </trkpt>
      <trkpt lat="47.50697" lon="6.76595">
        <ele>395</ele>
        <time>2015-04-06T07:14:34.000Z</time>
      </trkpt>
      <trkpt lat="47.50694" lon="6.76594">
        <ele>395</ele>
        <time>2015-04-06T07:14:35.000Z</time>
      </trkpt>
      <trkpt lat="47.50691" lon="6.76594">
        <ele>395</ele>
        <time>2015-04-06T07:14:36.000Z</time>
      </trkpt>
      <trkpt lat="47.50688" lon="6.76593">
        <ele>395</ele>
        <time>2015-04-06T07:14:37.000Z</time>
      </trkpt>
      <trkpt lat="47.50685" lon="6.76593">
        <ele>395</ele>
        <time>2015-04-06T07:14:38.000Z</time>
      </trkpt>
      <trkpt lat="47.50683" lon="6.76593">
        <ele>396</ele>
        <time>2015-04-06T07:14:39.000Z</time>
      </trkpt>
      <trkpt lat="47.5068" lon="6.76593">
        <ele>396</ele>
        <time>2015-04-06T07:14:40.000Z</time>
      </trkpt>
      <trkpt lat="47.50678" lon="6.76593">
        <ele>396</ele>
        <time>2015-04-06T07:14:41.000Z</time>
      </trkpt>
      <trkpt lat="47.50675" lon="6.76593">
        <ele>396</ele>
        <time>2015-04-06T07:14:42.000Z</time>
      </trkpt>
      <trkpt lat="47.50672" lon="6.76594">
        <ele>396</ele>
        <time>2015-04-06T07:14:43.000Z</time>
      </trkpt>
      <trkpt lat="47.50669" lon="6.76594">
        <ele>396</ele>
        <time>2015-04-06T07:14:44.000Z</time>
      </trkpt>
      <trkpt lat="47.50667" lon="6.76595">
        <ele>397</ele>
        <time>2015-04-06T07:14:45.000Z</time>
      </trkpt>
      <trkpt lat="47.50664" lon="6.76596">
        <ele>397</ele>
        <time>2015-04-06T07:14:46.000Z</time>
      </trkpt>
      <trkpt lat="47.50661" lon="6.76596">
        <ele>397</ele>
        <time>2015-04-06T07:14:47.000Z</time>
      </trkpt>
      <trkpt lat="47.50659" lon="6.76597">
        <ele>397</ele>
        <time>2015-04-06T07:14:48.000Z</time>
      </trkpt>
      <trkpt lat="47.50656" lon="6.76598">
        <ele>397</ele>
        <time>2015-04-06T07:14:49.000Z</time>
      </trkpt>
      <trkpt lat="47.50653" lon="6.76599">
        <ele>397</ele>
        <time>2015-04-06T07:14:50.000Z</time>
      </trkpt>
      <trkpt lat="47.5065" lon="6.766">
        <ele>397</ele>
        <time>2015-04-06T07:14:51.000Z</time>
      </trkpt>
      <trkpt lat="47.50647" lon="6.76601">
        <ele>397</ele>
        <time>2015-04-06T07:14:52.000Z</time>
      </trkpt>
      <trkpt lat="47.50644" lon="6.76603">
        <ele>397</ele>
        <time>2015-04-06T07:14:53.000Z</time>
      </trkpt>
      <trkpt lat="47.50641" lon="6.76605">
        <ele>397</ele>
        <time>2015-04-06T07:14:54.000Z</time>
      </trkpt>
      <trkpt lat="47.50638" lon="6.76607">
        <ele>397</ele>
        <time>2015-04-06T07:14:55.000Z</time>
      </trkpt>
      <trkpt lat="47.50635" lon="6.76609">
        <ele>397</ele>
        <time>2015-04-06T07:14:56.000Z</time>
      </trkpt>
      <trkpt lat="47.50632" lon="6.7661">
        <ele>397</ele>
        <time>2015-04-06T07:14:57.000Z</time>
      </trkpt>
      <trkpt lat="47.5063" lon="6.76611">
        <ele>397</ele>
        <time>2015-04-06T07:14:58.000Z</time>
      </trkpt>
      <trkpt lat="47.50628" lon="6.76613">
        <ele>397</ele>
        <time>2015-04-06T07:14:59.000Z</time>
      </trkpt>
      <trkpt lat="47.50623" lon="6.76615">
        <ele>397</ele>
        <time>2015-04-06T07:15:01.000Z</time>
      </trkpt>
      <trkpt lat="47.50621" lon="6.76617">
        <ele>397</ele>
        <time>2015-04-06T07:15:02.000Z</time>
      </trkpt>
      <trkpt lat="47.50618" lon="6.76619">
        <ele>397</ele>
        <time>2015-04-06T07:15:03.000Z</time>
      </trkpt>
      <trkpt lat="47.50616" lon="6.7662">
        <ele>397</ele>
        <time>2015-04-06T07:15:04.000Z</time>
      </trkpt>
      <trkpt lat="47.50613" lon="6.76621">
        <ele>397</ele>
        <time>2015-04-06T07:15:05.000Z</time>
      </trkpt>
      <trkpt lat="47.50611" lon="6.76622">
        <ele>397</ele>
        <time>2015-04-06T07:15:06.000Z</time>
      </trkpt>
      <trkpt lat="47.50608" lon="6.76623">
        <ele>398</ele>
        <time>2015-04-06T07:15:07.000Z</time>
      </trkpt>
      <trkpt lat="47.50605" lon="6.76624">
        <ele>398</ele>
        <time>2015-04-06T07:15:08.000Z</time>
      </trkpt>
      <trkpt lat="47.50602" lon="6.76625">
        <ele>398</ele>
        <time>2015-04-06T07:15:09.000Z</time>
      </trkpt>
      <trkpt lat="47.50599" lon="6.76626">
        <ele>398</ele>
        <time>2015-04-06T07:15:10.000Z</time>
      </trkpt>
      <trkpt lat="47.50596" lon="6.76627">
        <ele>398</ele>
        <time>2015-04-06T07:15:11.000Z</time>
      </trkpt>
      <trkpt lat="47.50593" lon="6.76629">
        <ele>398</ele>
        <time>2015-04-06T07:15:12.000Z</time>
      </trkpt>
      <trkpt lat="47.50589" lon="6.7663">
        <ele>398</ele>
        <time>2015-04-06T07:15:13.000Z</time>
      </trkpt>
      <trkpt lat="47.50586" lon="6.76631">
        <ele>398</ele>
        <time>2015-04-06T07:15:14.000Z</time>
      </trkpt>
      <trkpt lat="47.50583" lon="6.76632">
        <ele>399</ele>
        <time>2015-04-06T07:15:15.000Z</time>
      </trkpt>
      <trkpt lat="47.5058" lon="6.76633">
        <ele>399</ele>
        <time>2015-04-06T07:15:16.000Z</time>
      </trkpt>
      <trkpt lat="47.50577" lon="6.76635">
        <ele>399</ele>
        <time>2015-04-06T07:15:17.000Z</time>
      </trkpt>
      <trkpt lat="47.50575" lon="6.76636">
        <ele>399</ele>
        <time>2015-04-06T07:15:18.000Z</time>
      </trkpt>
      <trkpt lat="47.50572" lon="6.76636">
        <ele>399</ele>
        <time>2015-04-06T07:15:19.000Z</time>
      </trkpt>
      <trkpt lat="47.5057" lon="6.76637">
        <ele>399</ele>
        <time>2015-04-06T07:15:20.000Z</time>
      </trkpt>
      <trkpt lat="47.50567" lon="6.76638">
        <ele>399</ele>
        <time>2015-04-06T07:15:21.000Z</time>
      </trkpt>
      <trkpt lat="47.50565" lon="6.76638">
        <ele>399</ele>
        <time>2015-04-06T07:15:22.000Z</time>
      </trkpt>
      <trkpt lat="47.50562" lon="6.76638">
        <ele>399</ele>
        <time>2015-04-06T07:15:23.000Z</time>
      </trkpt>
      <trkpt lat="47.50559" lon="6.76639">
        <ele>399</ele>
        <time>2015-04-06T07:15:24.000Z</time>
      </trkpt>
      <trkpt lat="47.50556" lon="6.76639">
        <ele>399</ele>
        <time>2015-04-06T07:15:25.000Z</time>
      </trkpt>
      <trkpt lat="47.50553" lon="6.7664">
        <ele>399</ele>
        <time>2015-04-06T07:15:26.000Z</time>
      </trkpt>
      <trkpt lat="47.5055" lon="6.76641">
        <ele>399</ele>
        <time>2015-04-06T07:15:27.000Z</time>
      </trkpt>
      <trkpt lat="47.50547" lon="6.76642">
        <ele>399</ele>
        <time>2015-04-06T07:15:28.000Z</time>
      </trkpt>
      <trkpt lat="47.50544" lon="6.76643">
        <ele>399</ele>
        <time>2015-04-06T07:15:29.000Z</time>
      </trkpt>
      <trkpt lat="47.50541" lon="6.76644">
        <ele>399</ele>
        <time>2015-04-06T07:15:30.000Z</time>
      </trkpt>
      <trkpt lat="47.50538" lon="6.76645">
        <ele>399</ele>
        <time>2015-04-06T07:15:31.000Z</time>
      </trkpt>
      <trkpt lat="47.50534" lon="6.76646">
        <ele>399</ele>
        <time>2015-04-06T07:15:32.000Z</time>
      </trkpt>
      <trkpt lat="47.50531" lon="6.76647">
        <ele>399</ele>
        <time>2015-04-06T07:15:33.000Z</time>
      </trkpt>
      <trkpt lat="47.50527" lon="6.76648">
        <ele>399</ele>
        <time>2015-04-06T07:15:34.000Z</time>
      </trkpt>
      <trkpt lat="47.50523" lon="6.76649">
        <ele>399</ele>
        <time>2015-04-06T07:15:35.000Z</time>
      </trkpt>
      <trkpt lat="47.5052" lon="6.7665">
        <ele>399</ele>
        <time>2015-04-06T07:15:36.000Z</time>
      </trkpt>
      <trkpt lat="47.50516" lon="6.76651">
        <ele>399</ele>
        <time>2015-04-06T07:15:37.000Z</time>
      </trkpt>
      <trkpt lat="47.50512" lon="6.76653">
        <ele>399</ele>
        <time>2015-04-06T07:15:38.000Z</time>
      </trkpt>
      <trkpt lat="47.50509" lon="6.76654">
        <ele>399</ele>
        <time>2015-04-06T07:15:39.000Z</time>
      </trkpt>
      <trkpt lat="47.50505" lon="6.76655">
        <ele>399</ele>
        <time>2015-04-06T07:15:40.000Z</time>
      </trkpt>
      <trkpt lat="47.50501" lon="6.76657">
        <ele>399</ele>
        <time>2015-04-06T07:15:41.000Z</time>
      </trkpt>
      <trkpt lat="47.50496" lon="6.76659">
        <ele>399</ele>
        <time>2015-04-06T07:15:42.000Z</time>
      </trkpt>
      <trkpt lat="47.50489" lon="6.76662">
        <ele>399</ele>
        <time>2015-04-06T07:15:43.000Z</time>
      </trkpt>
      <trkpt lat="47.50485" lon="6.76662">
        <ele>399</ele>
        <time>2015-04-06T07:15:44.000Z</time>
      </trkpt>
      <trkpt lat="47.50481" lon="6.76664">
        <ele>399</ele>
        <time>2015-04-06T07:15:45.000Z</time>
      </trkpt>
      <trkpt lat="47.50476" lon="6.76664">
        <ele>398</ele>
        <time>2015-04-06T07:15:46.000Z</time>
      </trkpt>
      <trkpt lat="47.50472" lon="6.76667">
        <ele>397</ele>
        <time>2015-04-06T07:15:47.000Z</time>
      </trkpt>
      <trkpt lat="47.50467" lon="6.76668">
        <ele>397</ele>
        <time>2015-04-06T07:15:48.000Z</time>
      </trkpt>
      <trkpt lat="47.50462" lon="6.7667">
        <ele>397</ele>
        <time>2015-04-06T07:15:49.000Z</time>
      </trkpt>
      <trkpt lat="47.50458" lon="6.76672">
        <ele>397</ele>
        <time>2015-04-06T07:15:50.000Z</time>
      </trkpt>
      <trkpt lat="47.50452" lon="6.76673">
        <ele>397</ele>
        <time>2015-04-06T07:15:51.000Z</time>
      </trkpt>
      <trkpt lat="47.50447" lon="6.76674">
        <ele>397</ele>
        <time>2015-04-06T07:15:52.000Z</time>
      </trkpt>
      <trkpt lat="47.50444" lon="6.76677">
        <ele>397</ele>
        <time>2015-04-06T07:15:53.000Z</time>
      </trkpt>
      <trkpt lat="47.5044" lon="6.7668">
        <ele>397</ele>
        <time>2015-04-06T07:15:54.000Z</time>
      </trkpt>
      <trkpt lat="47.50436" lon="6.76682">
        <ele>397</ele>
        <time>2015-04-06T07:15:55.000Z</time>
      </trkpt>
      <trkpt lat="47.50431" lon="6.76684">
        <ele>397</ele>
        <time>2015-04-06T07:15:56.000Z</time>
      </trkpt>
      <trkpt lat="47.50427" lon="6.76684">
        <ele>397</ele>
        <time>2015-04-06T07:15:57.000Z</time>
      </trkpt>
      <trkpt lat="47.50423" lon="6.76686">
        <ele>397</ele>
        <time>2015-04-06T07:15:58.000Z</time>
      </trkpt>
      <trkpt lat="47.50419" lon="6.76688">
        <ele>397</ele>
        <time>2015-04-06T07:15:59.000Z</time>
      </trkpt>
      <trkpt lat="47.50415" lon="6.7669">
        <ele>397</ele>
        <time>2015-04-06T07:16:00.000Z</time>
      </trkpt>
      <trkpt lat="47.5041" lon="6.76692">
        <ele>397</ele>
        <time>2015-04-06T07:16:01.000Z</time>
      </trkpt>
      <trkpt lat="47.50405" lon="6.76693">
        <ele>397</ele>
        <time>2015-04-06T07:16:02.000Z</time>
      </trkpt>
      <trkpt lat="47.50403" lon="6.76692">
        <ele>397</ele>
        <time>2015-04-06T07:16:03.000Z</time>
      </trkpt>
      <trkpt lat="47.50398" lon="6.76694">
        <ele>397</ele>
        <time>2015-04-06T07:16:04.000Z</time>
      </trkpt>
      <trkpt lat="47.50396" lon="6.76696">
        <ele>397</ele>
        <time>2015-04-06T07:16:05.000Z</time>
      </trkpt>
      <trkpt lat="47.50393" lon="6.76698">
        <ele>397</ele>
        <time>2015-04-06T07:16:06.000Z</time>
      </trkpt>
      <trkpt lat="47.5039" lon="6.76701">
        <ele>397</ele>
        <time>2015-04-06T07:16:07.000Z</time>
      </trkpt>
      <trkpt lat="47.50386" lon="6.76703">
        <ele>397</ele>
        <time>2015-04-06T07:16:08.000Z</time>
      </trkpt>
      <trkpt lat="47.50383" lon="6.76704">
        <ele>397</ele>
        <time>2015-04-06T07:16:09.000Z</time>
      </trkpt>
      <trkpt lat="47.50379" lon="6.76705">
        <ele>397</ele>
        <time>2015-04-06T07:16:10.000Z</time>
      </trkpt>
      <trkpt lat="47.50375" lon="6.76706">
        <ele>397</ele>
        <time>2015-04-06T07:16:11.000Z</time>
      </trkpt>
      <trkpt lat="47.50372" lon="6.76707">
        <ele>397</ele>
        <time>2015-04-06T07:16:12.000Z</time>
      </trkpt>
      <trkpt lat="47.50368" lon="6.76708">
        <ele>398</ele>
        <time>2015-04-06T07:16:13.000Z</time>
      </trkpt>
      <trkpt lat="47.50365" lon="6.7671">
        <ele>398</ele>
        <time>2015-04-06T07:16:14.000Z</time>
      </trkpt>
      <trkpt lat="47.50362" lon="6.76712">
        <ele>398</ele>
        <time>2015-04-06T07:16:15.000Z</time>
      </trkpt>
      <trkpt lat="47.50358" lon="6.76713">
        <ele>398</ele>
        <time>2015-04-06T07:16:16.000Z</time>
      </trkpt>
      <trkpt lat="47.50355" lon="6.76715">
        <ele>398</ele>
        <time>2015-04-06T07:16:17.000Z</time>
      </trkpt>
      <trkpt lat="47.50351" lon="6.76716">
        <ele>398</ele>
        <time>2015-04-06T07:16:18.000Z</time>
      </trkpt>
      <trkpt lat="47.50347" lon="6.76718">
        <ele>398</ele>
        <time>2015-04-06T07:16:19.000Z</time>
      </trkpt>
      <trkpt lat="47.50344" lon="6.76719">
        <ele>398</ele>
        <time>2015-04-06T07:16:20.000Z</time>
      </trkpt>
      <trkpt lat="47.50341" lon="6.76721">
        <ele>398</ele>
        <time>2015-04-06T07:16:21.000Z</time>
      </trkpt>
      <trkpt lat="47.50338" lon="6.76722">
        <ele>398</ele>
        <time>2015-04-06T07:16:22.000Z</time>
      </trkpt>
      <trkpt lat="47.50335" lon="6.76723">
        <ele>398</ele>
        <time>2015-04-06T07:16:23.000Z</time>
      </trkpt>
      <trkpt lat="47.50331" lon="6.76724">
        <ele>398</ele>
        <time>2015-04-06T07:16:24.000Z</time>
      </trkpt>
      <trkpt lat="47.50328" lon="6.76726">
        <ele>398</ele>
        <time>2015-04-06T07:16:25.000Z</time>
      </trkpt>
      <trkpt lat="47.50325" lon="6.76727">
        <ele>398</ele>
        <time>2015-04-06T07:16:26.000Z</time>
      </trkpt>
      <trkpt lat="47.50322" lon="6.76729">
        <ele>398</ele>
        <time>2015-04-06T07:16:27.000Z</time>
      </trkpt>
      <trkpt lat="47.50319" lon="6.7673">
        <ele>398</ele>
        <time>2015-04-06T07:16:28.000Z</time>
      </trkpt>
      <trkpt lat="47.50316" lon="6.7673">
        <ele>398</ele>
        <time>2015-04-06T07:16:29.000Z</time>
      </trkpt>
      <trkpt lat="47.50313" lon="6.76731">
        <ele>398</ele>
        <time>2015-04-06T07:16:30.000Z</time>
      </trkpt>
      <trkpt lat="47.5031" lon="6.76731">
        <ele>398</ele>
        <time>2015-04-06T07:16:31.000Z</time>
      </trkpt>
      <trkpt lat="47.50306" lon="6.76732">
        <ele>398</ele>
        <time>2015-04-06T07:16:32.000Z</time>
      </trkpt>
      <trkpt lat="47.50303" lon="6.76732">
        <ele>398</ele>
        <time>2015-04-06T07:16:33.000Z</time>
      </trkpt>
      <trkpt lat="47.50299" lon="6.76732">
        <ele>399</ele>
        <time>2015-04-06T07:16:34.000Z</time>
      </trkpt>
      <trkpt lat="47.50296" lon="6.76731">
        <ele>399</ele>
        <time>2015-04-06T07:16:35.000Z</time>
      </trkpt>
      <trkpt lat="47.50293" lon="6.76731">
        <ele>399</ele>
        <time>2015-04-06T07:16:36.000Z</time>
      </trkpt>
      <trkpt lat="47.50289" lon="6.76731">
        <ele>399</ele>
        <time>2015-04-06T07:16:37.000Z</time>
      </trkpt>
      <trkpt lat="47.50285" lon="6.76731">
        <ele>399</ele>
        <time>2015-04-06T07:16:38.000Z</time>
      </trkpt>
      <trkpt lat="47.50281" lon="6.76731">
        <ele>399</ele>
        <time>2015-04-06T07:16:39.000Z</time>
      </trkpt>
      <trkpt lat="47.50277" lon="6.76731">
        <ele>399</ele>
        <time>2015-04-06T07:16:40.000Z</time>
      </trkpt>
      <trkpt lat="47.50273" lon="6.76731">
        <ele>399</ele>
        <time>2015-04-06T07:16:41.000Z</time>
      </trkpt>
      <trkpt lat="47.50269" lon="6.76732">
        <ele>399</ele>
        <time>2015-04-06T07:16:42.000Z</time>
      </trkpt>
      <trkpt lat="47.50266" lon="6.76733">
        <ele>399</ele>
        <time>2015-04-06T07:16:43.000Z</time>
      </trkpt>
      <trkpt lat="47.50263" lon="6.76735">
        <ele>399</ele>
        <time>2015-04-06T07:16:44.000Z</time>
      </trkpt>
      <trkpt lat="47.5026" lon="6.76737">
        <ele>399</ele>
        <time>2015-04-06T07:16:45.000Z</time>
      </trkpt>
      <trkpt lat="47.50257" lon="6.76739">
        <ele>399</ele>
        <time>2015-04-06T07:16:46.000Z</time>
      </trkpt>
      <trkpt lat="47.50254" lon="6.7674">
        <ele>399</ele>
        <time>2015-04-06T07:16:47.000Z</time>
      </trkpt>
      <trkpt lat="47.50251" lon="6.76741">
        <ele>400</ele>
        <time>2015-04-06T07:16:48.000Z</time>
      </trkpt>
      <trkpt lat="47.50247" lon="6.76741">
        <ele>401</ele>
        <time>2015-04-06T07:16:50.000Z</time>
      </trkpt>
      <trkpt lat="47.50243" lon="6.76737">
        <ele>401</ele>
        <time>2015-04-06T07:16:52.000Z</time>
      </trkpt>
      <trkpt lat="47.50241" lon="6.76733">
        <ele>401</ele>
        <time>2015-04-06T07:16:53.000Z</time>
      </trkpt>
      <trkpt lat="47.50239" lon="6.7673">
        <ele>401</ele>
        <time>2015-04-06T07:16:54.000Z</time>
      </trkpt>
      <trkpt lat="47.50237" lon="6.76727">
        <ele>401</ele>
        <time>2015-04-06T07:16:55.000Z</time>
      </trkpt>
      <trkpt lat="47.50236" lon="6.76724">
        <ele>401</ele>
        <time>2015-04-06T07:16:56.000Z</time>
      </trkpt>
      <trkpt lat="47.50234" lon="6.7672">
        <ele>402</ele>
        <time>2015-04-06T07:16:58.000Z</time>
      </trkpt>
      <trkpt lat="47.50232" lon="6.76717">
        <ele>402</ele>
        <time>2015-04-06T07:16:59.000Z</time>
      </trkpt>
      <trkpt lat="47.50231" lon="6.76713">
        <ele>402</ele>
        <time>2015-04-06T07:17:00.000Z</time>
      </trkpt>
      <trkpt lat="47.5023" lon="6.76709">
        <ele>402</ele>
        <time>2015-04-06T07:17:01.000Z</time>
      </trkpt>
      <trkpt lat="47.50228" lon="6.76705">
        <ele>402</ele>
        <time>2015-04-06T07:17:02.000Z</time>
      </trkpt>
      <trkpt lat="47.50227" lon="6.76702">
        <ele>402</ele>
        <time>2015-04-06T07:17:03.000Z</time>
      </trkpt>
      <trkpt lat="47.50226" lon="6.76698">
        <ele>402</ele>
        <time>2015-04-06T07:17:04.000Z</time>
      </trkpt>
      <trkpt lat="47.50224" lon="6.76694">
        <ele>402</ele>
        <time>2015-04-06T07:17:05.000Z</time>
      </trkpt>
      <trkpt lat="47.50223" lon="6.7669">
        <ele>402</ele>
        <time>2015-04-06T07:17:06.000Z</time>
      </trkpt>
      <trkpt lat="47.50222" lon="6.76685">
        <ele>402</ele>
        <time>2015-04-06T07:17:07.000Z</time>
      </trkpt>
      <trkpt lat="47.5022" lon="6.7668">
        <ele>401</ele>
        <time>2015-04-06T07:17:08.000Z</time>
      </trkpt>
      <trkpt lat="47.50219" lon="6.76675">
        <ele>402</ele>
        <time>2015-04-06T07:17:09.000Z</time>
      </trkpt>
      <trkpt lat="47.50217" lon="6.7667">
        <ele>402</ele>
        <time>2015-04-06T07:17:10.000Z</time>
      </trkpt>
      <trkpt lat="47.50216" lon="6.76664">
        <ele>401</ele>
        <time>2015-04-06T07:17:11.000Z</time>
      </trkpt>
      <trkpt lat="47.50214" lon="6.76659">
        <ele>402</ele>
        <time>2015-04-06T07:17:12.000Z</time>
      </trkpt>
      <trkpt lat="47.50213" lon="6.76654">
        <ele>402</ele>
        <time>2015-04-06T07:17:13.000Z</time>
      </trkpt>
      <trkpt lat="47.50211" lon="6.76649">
        <ele>402</ele>
        <time>2015-04-06T07:17:14.000Z</time>
      </trkpt>
      <trkpt lat="47.5021" lon="6.76644">
        <ele>402</ele>
        <time>2015-04-06T07:17:15.000Z</time>
      </trkpt>
      <trkpt lat="47.50208" lon="6.76639">
        <ele>402</ele>
        <time>2015-04-06T07:17:16.000Z</time>
      </trkpt>
      <trkpt lat="47.50207" lon="6.76634">
        <ele>402</ele>
        <time>2015-04-06T07:17:17.000Z</time>
      </trkpt>
      <trkpt lat="47.50206" lon="6.7663">
        <ele>402</ele>
        <time>2015-04-06T07:17:18.000Z</time>
      </trkpt>
      <trkpt lat="47.50204" lon="6.76625">
        <ele>402</ele>
        <time>2015-04-06T07:17:19.000Z</time>
      </trkpt>
      <trkpt lat="47.50203" lon="6.7662">
        <ele>402</ele>
        <time>2015-04-06T07:17:20.000Z</time>
      </trkpt>
      <trkpt lat="47.50202" lon="6.76615">
        <ele>402</ele>
        <time>2015-04-06T07:17:21.000Z</time>
      </trkpt>
      <trkpt lat="47.50201" lon="6.7661">
        <ele>403</ele>
        <time>2015-04-06T07:17:22.000Z</time>
      </trkpt>
      <trkpt lat="47.50199" lon="6.76606">
        <ele>403</ele>
        <time>2015-04-06T07:17:23.000Z</time>
      </trkpt>
      <trkpt lat="47.50198" lon="6.76602">
        <ele>403</ele>
        <time>2015-04-06T07:17:24.000Z</time>
      </trkpt>
      <trkpt lat="47.50197" lon="6.76597">
        <ele>403</ele>
        <time>2015-04-06T07:17:25.000Z</time>
      </trkpt>
      <trkpt lat="47.50197" lon="6.76591">
        <ele>403</ele>
        <time>2015-04-06T07:17:27.000Z</time>
      </trkpt>
      <trkpt lat="47.50198" lon="6.76589">
        <ele>403</ele>
        <time>2015-04-06T07:17:28.000Z</time>
      </trkpt>
      <trkpt lat="47.50198" lon="6.76584">
        <ele>403</ele>
        <time>2015-04-06T07:17:30.000Z</time>
      </trkpt>
      <trkpt lat="47.50197" lon="6.76581">
        <ele>402</ele>
        <time>2015-04-06T07:17:31.000Z</time>
      </trkpt>
      <trkpt lat="47.50197" lon="6.76577">
        <ele>402</ele>
        <time>2015-04-06T07:17:33.000Z</time>
      </trkpt>
      <trkpt lat="47.50199" lon="6.76574">
        <ele>402</ele>
        <time>2015-04-06T07:17:34.000Z</time>
      </trkpt>
      <trkpt lat="47.50202" lon="6.76572">
        <ele>402</ele>
        <time>2015-04-06T07:17:35.000Z</time>
      </trkpt>
      <trkpt lat="47.50205" lon="6.7657">
        <ele>402</ele>
        <time>2015-04-06T07:17:36.000Z</time>
      </trkpt>
      <trkpt lat="47.50209" lon="6.76569">
        <ele>401</ele>
        <time>2015-04-06T07:17:37.000Z</time>
      </trkpt>
      <trkpt lat="47.50212" lon="6.76568">
        <ele>401</ele>
        <time>2015-04-06T07:17:38.000Z</time>
      </trkpt>
      <trkpt lat="47.50215" lon="6.76567">
        <ele>401</ele>
        <time>2015-04-06T07:17:39.000Z</time>
      </trkpt>
      <trkpt lat="47.50219" lon="6.76566">
        <ele>400</ele>
        <time>2015-04-06T07:17:40.000Z</time>
      </trkpt>
      <trkpt lat="47.50222" lon="6.76555">
        <ele>400</ele>
        <time>2015-04-06T07:17:41.000Z</time>
      </trkpt>
      <trkpt lat="47.50223" lon="6.7655">
        <ele>400</ele>
        <time>2015-04-06T07:17:42.000Z</time>
      </trkpt>
      <trkpt lat="47.50223" lon="6.76544">
        <ele>400</ele>
        <time>2015-04-06T07:17:43.000Z</time>
      </trkpt>
      <trkpt lat="47.50223" lon="6.76539">
        <ele>400</ele>
        <time>2015-04-06T07:17:44.000Z</time>
      </trkpt>
      <trkpt lat="47.50221" lon="6.76533">
        <ele>400</ele>
        <time>2015-04-06T07:17:45.000Z</time>
      </trkpt>
      <trkpt lat="47.5022" lon="6.76527">
        <ele>399</ele>
        <time>2015-04-06T07:17:45.999Z</time>
      </trkpt>
      <trkpt lat="47.50215" lon="6.76517">
        <ele>400</ele>
        <time>2015-04-06T07:17:47.000Z</time>
      </trkpt>
      <trkpt lat="47.50212" lon="6.7651">
        <ele>400</ele>
        <time>2015-04-06T07:17:48.000Z</time>
      </trkpt>
      <trkpt lat="47.50203" lon="6.76492">
        <ele>397</ele>
        <time>2015-04-06T07:17:49.000Z</time>
      </trkpt>
      <trkpt lat="47.502" lon="6.76481">
        <ele>397</ele>
        <time>2015-04-06T07:17:50.000Z</time>
      </trkpt>
      <trkpt lat="47.5019" lon="6.76455">
        <ele>397</ele>
        <time>2015-04-06T07:17:52.000Z</time>
      </trkpt>
      <trkpt lat="47.50186" lon="6.76444">
        <ele>397</ele>
        <time>2015-04-06T07:17:53.000Z</time>
      </trkpt>
      <trkpt lat="47.50183" lon="6.7643">
        <ele>397</ele>
        <time>2015-04-06T07:17:54.000Z</time>
      </trkpt>
      <trkpt lat="47.50183" lon="6.76418">
        <ele>397</ele>
        <time>2015-04-06T07:17:55.000Z</time>
      </trkpt>
      <trkpt lat="47.50178" lon="6.76409">
        <ele>395</ele>
        <time>2015-04-06T07:17:56.000Z</time>
      </trkpt>
      <trkpt lat="47.50173" lon="6.76394">
        <ele>393</ele>
        <time>2015-04-06T07:17:57.000Z</time>
      </trkpt>
      <trkpt lat="47.50168" lon="6.76386">
        <ele>392</ele>
        <time>2015-04-06T07:17:58.000Z</time>
      </trkpt>
      <trkpt lat="47.50163" lon="6.76378">
        <ele>400</ele>
        <time>2015-04-06T07:17:59.000Z</time>
      </trkpt>
      <trkpt lat="47.50161" lon="6.7637">
        <ele>400</ele>
        <time>2015-04-06T07:18:00.000Z</time>
      </trkpt>
      <trkpt lat="47.50157" lon="6.76358">
        <ele>399</ele>
        <time>2015-04-06T07:18:01.000Z</time>
      </trkpt>
      <trkpt lat="47.50153" lon="6.7635">
        <ele>398</ele>
        <time>2015-04-06T07:18:02.000Z</time>
      </trkpt>
      <trkpt lat="47.5015" lon="6.76339">
        <ele>397</ele>
        <time>2015-04-06T07:18:03.000Z</time>
      </trkpt>
      <trkpt lat="47.50146" lon="6.7633">
        <ele>395</ele>
        <time>2015-04-06T07:18:04.002Z</time>
      </trkpt>
      <trkpt lat="47.50146" lon="6.76318">
        <ele>395</ele>
        <time>2015-04-06T07:18:05.000Z</time>
      </trkpt>
      <trkpt lat="47.50141" lon="6.76319">
        <ele>396</ele>
        <time>2015-04-06T07:18:06.000Z</time>
      </trkpt>
      <trkpt lat="47.50138" lon="6.7631">
        <ele>396</ele>
        <time>2015-04-06T07:18:07.000Z</time>
      </trkpt>
      <trkpt lat="47.50134" lon="6.763">
        <ele>397</ele>
        <time>2015-04-06T07:18:08.000Z</time>
      </trkpt>
      <trkpt lat="47.50132" lon="6.76293">
        <ele>397</ele>
        <time>2015-04-06T07:18:09.000Z</time>
      </trkpt>
      <trkpt lat="47.50129" lon="6.76286">
        <ele>397</ele>
        <time>2015-04-06T07:18:10.000Z</time>
      </trkpt>
      <trkpt lat="47.50127" lon="6.76278">
        <ele>397</ele>
        <time>2015-04-06T07:18:11.000Z</time>
      </trkpt>
      <trkpt lat="47.50127" lon="6.76274">
        <ele>396</ele>
        <time>2015-04-06T07:18:12.000Z</time>
      </trkpt>
      <trkpt lat="47.50126" lon="6.76267">
        <ele>396</ele>
        <time>2015-04-06T07:18:13.000Z</time>
      </trkpt>
      <trkpt lat="47.50125" lon="6.76256">
        <ele>396</ele>
        <time>2015-04-06T07:18:14.000Z</time>
      </trkpt>
      <trkpt lat="47.50123" lon="6.76232">
        <ele>392</ele>
        <time>2015-04-06T07:18:15.000Z</time>
      </trkpt>
      <trkpt lat="47.50122" lon="6.76214">
        <ele>391</ele>
        <time>2015-04-06T07:18:16.000Z</time>
      </trkpt>
      <trkpt lat="47.50121" lon="6.76203">
        <ele>391</ele>
        <time>2015-04-06T07:18:17.000Z</time>
      </trkpt>
      <trkpt lat="47.50118" lon="6.7619">
        <ele>391</ele>
        <time>2015-04-06T07:18:18.000Z</time>
      </trkpt>
      <trkpt lat="47.50117" lon="6.76172">
        <ele>390</ele>
        <time>2015-04-06T07:18:19.000Z</time>
      </trkpt>
      <trkpt lat="47.50114" lon="6.76159">
        <ele>387</ele>
        <time>2015-04-06T07:18:20.000Z</time>
      </trkpt>
      <trkpt lat="47.50111" lon="6.76146">
        <ele>387</ele>
        <time>2015-04-06T07:18:21.000Z</time>
      </trkpt>
      <trkpt lat="47.50108" lon="6.76132">
        <ele>386</ele>
        <time>2015-04-06T07:18:22.000Z</time>
      </trkpt>
      <trkpt lat="47.50105" lon="6.76119">
        <ele>386</ele>
        <time>2015-04-06T07:18:23.000Z</time>
      </trkpt>
      <trkpt lat="47.50102" lon="6.76105">
        <ele>386</ele>
        <time>2015-04-06T07:18:24.000Z</time>
      </trkpt>
      <trkpt lat="47.50103" lon="6.76089">
        <ele>386</ele>
        <time>2015-04-06T07:18:25.000Z</time>
      </trkpt>
      <trkpt lat="47.50101" lon="6.76077">
        <ele>383</ele>
        <time>2015-04-06T07:18:26.000Z</time>
      </trkpt>
      <trkpt lat="47.501" lon="6.76066">
        <ele>382</ele>
        <time>2015-04-06T07:18:27.000Z</time>
      </trkpt>
      <trkpt lat="47.50099" lon="6.76055">
        <ele>381</ele>
        <time>2015-04-06T07:18:28.000Z</time>
      </trkpt>
      <trkpt lat="47.50098" lon="6.76042">
        <ele>380</ele>
        <time>2015-04-06T07:18:29.000Z</time>
      </trkpt>
      <trkpt lat="47.50096" lon="6.76029">
        <ele>380</ele>
        <time>2015-04-06T07:18:30.000Z</time>
      </trkpt>
      <trkpt lat="47.50094" lon="6.76016">
        <ele>379</ele>
        <time>2015-04-06T07:18:31.000Z</time>
      </trkpt>
      <trkpt lat="47.50093" lon="6.76006">
        <ele>379</ele>
        <time>2015-04-06T07:18:32.000Z</time>
      </trkpt>
      <trkpt lat="47.5009" lon="6.75997">
        <ele>378</ele>
        <time>2015-04-06T07:18:32.999Z</time>
      </trkpt>
      <trkpt lat="47.50087" lon="6.75995">
        <ele>378</ele>
        <time>2015-04-06T07:18:34.000Z</time>
      </trkpt>
      <trkpt lat="47.50084" lon="6.75985">
        <ele>377</ele>
        <time>2015-04-06T07:18:35.000Z</time>
      </trkpt>
      <trkpt lat="47.50077" lon="6.75971">
        <ele>379</ele>
        <time>2015-04-06T07:18:36.000Z</time>
      </trkpt>
      <trkpt lat="47.50074" lon="6.75962">
        <ele>378</ele>
        <time>2015-04-06T07:18:37.000Z</time>
      </trkpt>
      <trkpt lat="47.5007" lon="6.75955">
        <ele>378</ele>
        <time>2015-04-06T07:18:38.000Z</time>
      </trkpt>
      <trkpt lat="47.50065" lon="6.75945">
        <ele>378</ele>
        <time>2015-04-06T07:18:39.000Z</time>
      </trkpt>
      <trkpt lat="47.50057" lon="6.75936">
        <ele>378</ele>
        <time>2015-04-06T07:18:40.000Z</time>
      </trkpt>
      <trkpt lat="47.50053" lon="6.7593">
        <ele>377</ele>
        <time>2015-04-06T07:18:41.000Z</time>
      </trkpt>
      <trkpt lat="47.50048" lon="6.75922">
        <ele>378</ele>
        <time>2015-04-06T07:18:42.000Z</time>
      </trkpt>
      <trkpt lat="47.50044" lon="6.75917">
        <ele>378</ele>
        <time>2015-04-06T07:18:43.000Z</time>
      </trkpt>
      <trkpt lat="47.50037" lon="6.75912">
        <ele>376</ele>
        <time>2015-04-06T07:18:44.000Z</time>
      </trkpt>
      <trkpt lat="47.50037" lon="6.759">
        <ele>376</ele>
        <time>2015-04-06T07:18:45.000Z</time>
      </trkpt>
      <trkpt lat="47.50032" lon="6.75893">
        <ele>376</ele>
        <time>2015-04-06T07:18:46.000Z</time>
      </trkpt>
      <trkpt lat="47.50027" lon="6.75886">
        <ele>376</ele>
        <time>2015-04-06T07:18:47.000Z</time>
      </trkpt>
      <trkpt lat="47.50022" lon="6.75881">
        <ele>377</ele>
        <time>2015-04-06T07:18:48.000Z</time>
      </trkpt>
      <trkpt lat="47.50021" lon="6.75879">
        <ele>377</ele>
        <time>2015-04-06T07:18:49.000Z</time>
      </trkpt>
      <trkpt lat="47.50017" lon="6.75877">
        <ele>377</ele>
        <time>2015-04-06T07:18:50.000Z</time>
      </trkpt>
      <trkpt lat="47.50014" lon="6.75873">
        <ele>377</ele>
        <time>2015-04-06T07:18:51.000Z</time>
      </trkpt>
      <trkpt lat="47.50012" lon="6.75868">
        <ele>377</ele>
        <time>2015-04-06T07:18:52.000Z</time>
      </trkpt>
      <trkpt lat="47.50009" lon="6.75862">
        <ele>377</ele>
        <time>2015-04-06T07:18:53.000Z</time>
      </trkpt>
      <trkpt lat="47.50007" lon="6.7586">
        <ele>377</ele>
        <time>2015-04-06T07:18:54.000Z</time>
      </trkpt>
      <trkpt lat="47.49998" lon="6.75847">
        <ele>378</ele>
        <time>2015-04-06T07:18:55.000Z</time>
      </trkpt>
      <trkpt lat="47.49989" lon="6.75826">
        <ele>377</ele>
        <time>2015-04-06T07:18:56.000Z</time>
      </trkpt>
      <trkpt lat="47.49979" lon="6.7581">
        <ele>375</ele>
        <time>2015-04-06T07:18:57.000Z</time>
      </trkpt>
      <trkpt lat="47.49973" lon="6.75797">
        <ele>375</ele>
        <time>2015-04-06T07:18:58.000Z</time>
      </trkpt>
      <trkpt lat="47.49967" lon="6.75789">
        <ele>374</ele>
        <time>2015-04-06T07:18:59.000Z</time>
      </trkpt>
      <trkpt lat="47.49957" lon="6.75774">
        <ele>373</ele>
        <time>2015-04-06T07:19:00.000Z</time>
      </trkpt>
      <trkpt lat="47.49949" lon="6.75762">
        <ele>373</ele>
        <time>2015-04-06T07:19:01.000Z</time>
      </trkpt>
      <trkpt lat="47.49942" lon="6.75753">
        <ele>372</ele>
        <time>2015-04-06T07:19:02.000Z</time>
      </trkpt>
      <trkpt lat="47.49937" lon="6.75742">
        <ele>370</ele>
        <time>2015-04-06T07:19:03.000Z</time>
      </trkpt>
      <trkpt lat="47.49931" lon="6.75731">
        <ele>370</ele>
        <time>2015-04-06T07:19:04.000Z</time>
      </trkpt>
      <trkpt lat="47.49924" lon="6.75722">
        <ele>370</ele>
        <time>2015-04-06T07:19:05.000Z</time>
      </trkpt>
      <trkpt lat="47.49918" lon="6.7572">
        <ele>370</ele>
        <time>2015-04-06T07:19:06.000Z</time>
      </trkpt>
      <trkpt lat="47.49912" lon="6.75718">
        <ele>365</ele>
        <time>2015-04-06T07:19:07.000Z</time>
      </trkpt>
      <trkpt lat="47.49906" lon="6.75722">
        <ele>365</ele>
        <time>2015-04-06T07:19:08.000Z</time>
      </trkpt>
      <trkpt lat="47.49898" lon="6.75723">
        <ele>364</ele>
        <time>2015-04-06T07:19:09.000Z</time>
      </trkpt>
      <trkpt lat="47.49893" lon="6.75723">
        <ele>364</ele>
        <time>2015-04-06T07:19:10.000Z</time>
      </trkpt>
      <trkpt lat="47.49887" lon="6.75726">
        <ele>364</ele>
        <time>2015-04-06T07:19:11.000Z</time>
      </trkpt>
      <trkpt lat="47.49882" lon="6.75733">
        <ele>363</ele>
        <time>2015-04-06T07:19:12.000Z</time>
      </trkpt>
      <trkpt lat="47.49876" lon="6.75736">
        <ele>363</ele>
        <time>2015-04-06T07:19:13.000Z</time>
      </trkpt>
      <trkpt lat="47.49875" lon="6.75742">
        <ele>363</ele>
        <time>2015-04-06T07:19:14.000Z</time>
      </trkpt>
      <trkpt lat="47.49874" lon="6.75747">
        <ele>363</ele>
        <time>2015-04-06T07:19:15.000Z</time>
      </trkpt>
      <trkpt lat="47.49859" lon="6.75744">
        <ele>362</ele>
        <time>2015-04-06T07:19:16.000Z</time>
      </trkpt>
      <trkpt lat="47.49851" lon="6.75745">
        <ele>361</ele>
        <time>2015-04-06T07:19:17.000Z</time>
      </trkpt>
      <trkpt lat="47.49841" lon="6.75745">
        <ele>360</ele>
        <time>2015-04-06T07:19:18.000Z</time>
      </trkpt>
      <trkpt lat="47.49829" lon="6.75746">
        <ele>357</ele>
        <time>2015-04-06T07:19:19.000Z</time>
      </trkpt>
      <trkpt lat="47.49821" lon="6.75754">
        <ele>360</ele>
        <time>2015-04-06T07:19:20.000Z</time>
      </trkpt>
      <trkpt lat="47.49815" lon="6.7576">
        <ele>360</ele>
        <time>2015-04-06T07:19:21.000Z</time>
      </trkpt>
      <trkpt lat="47.49806" lon="6.75763">
        <ele>360</ele>
        <time>2015-04-06T07:19:22.000Z</time>
      </trkpt>
      <trkpt lat="47.49793" lon="6.75763">
        <ele>359</ele>
        <time>2015-04-06T07:19:23.000Z</time>
      </trkpt>
      <trkpt lat="47.4978" lon="6.75763">
        <ele>358</ele>
        <time>2015-04-06T07:19:24.000Z</time>
      </trkpt>
      <trkpt lat="47.49768" lon="6.75763">
        <ele>357</ele>
        <time>2015-04-06T07:19:25.000Z</time>
      </trkpt>
      <trkpt lat="47.49758" lon="6.75764">
        <ele>356</ele>
        <time>2015-04-06T07:19:26.000Z</time>
      </trkpt>
      <trkpt lat="47.49748" lon="6.75765">
        <ele>353</ele>
        <time>2015-04-06T07:19:27.000Z</time>
      </trkpt>
      <trkpt lat="47.49738" lon="6.75769">
        <ele>353</ele>
        <time>2015-04-06T07:19:28.000Z</time>
      </trkpt>
      <trkpt lat="47.49729" lon="6.75772">
        <ele>354</ele>
        <time>2015-04-06T07:19:29.000Z</time>
      </trkpt>
      <trkpt lat="47.49719" lon="6.75772">
        <ele>354</ele>
        <time>2015-04-06T07:19:30.000Z</time>
      </trkpt>
      <trkpt lat="47.49709" lon="6.75773">
        <ele>353</ele>
        <time>2015-04-06T07:19:31.000Z</time>
      </trkpt>
      <trkpt lat="47.49699" lon="6.75775">
        <ele>353</ele>
        <time>2015-04-06T07:19:32.000Z</time>
      </trkpt>
      <trkpt lat="47.49688" lon="6.75777">
        <ele>352</ele>
        <time>2015-04-06T07:19:33.000Z</time>
      </trkpt>
      <trkpt lat="47.49679" lon="6.75778">
        <ele>352</ele>
        <time>2015-04-06T07:19:34.000Z</time>
      </trkpt>
      <trkpt lat="47.49671" lon="6.7578">
        <ele>352</ele>
        <time>2015-04-06T07:19:35.000Z</time>
      </trkpt>
      <trkpt lat="47.49664" lon="6.75783">
        <ele>347</ele>
        <time>2015-04-06T07:19:36.000Z</time>
      </trkpt>
      <trkpt lat="47.49658" lon="6.75783">
        <ele>347</ele>
        <time>2015-04-06T07:19:37.000Z</time>
      </trkpt>
      <trkpt lat="47.49652" lon="6.75785">
        <ele>347</ele>
        <time>2015-04-06T07:19:38.000Z</time>
      </trkpt>
      <trkpt lat="47.49646" lon="6.75784">
        <ele>347</ele>
        <time>2015-04-06T07:19:39.000Z</time>
      </trkpt>
      <trkpt lat="47.49637" lon="6.75784">
        <ele>346</ele>
        <time>2015-04-06T07:19:40.000Z</time>
      </trkpt>
      <trkpt lat="47.49627" lon="6.75782">
        <ele>346</ele>
        <time>2015-04-06T07:19:41.000Z</time>
      </trkpt>
      <trkpt lat="47.49619" lon="6.75783">
        <ele>345</ele>
        <time>2015-04-06T07:19:42.000Z</time>
      </trkpt>
      <trkpt lat="47.49609" lon="6.75782">
        <ele>344</ele>
        <time>2015-04-06T07:19:43.000Z</time>
      </trkpt>
      <trkpt lat="47.49602" lon="6.7578">
        <ele>344</ele>
        <time>2015-04-06T07:19:44.000Z</time>
      </trkpt>
      <trkpt lat="47.49598" lon="6.75778">
        <ele>343</ele>
        <time>2015-04-06T07:19:45.000Z</time>
      </trkpt>
      <trkpt lat="47.49593" lon="6.75779">
        <ele>343</ele>
        <time>2015-04-06T07:19:46.000Z</time>
      </trkpt>
      <trkpt lat="47.49584" lon="6.7578">
        <ele>343</ele>
        <time>2015-04-06T07:19:47.000Z</time>
      </trkpt>
      <trkpt lat="47.49577" lon="6.75778">
        <ele>336</ele>
        <time>2015-04-06T07:19:48.000Z</time>
      </trkpt>
      <trkpt lat="47.49571" lon="6.75773">
        <ele>336</ele>
        <time>2015-04-06T07:19:49.000Z</time>
      </trkpt>
      <trkpt lat="47.49566" lon="6.75769">
        <ele>336</ele>
        <time>2015-04-06T07:19:50.000Z</time>
      </trkpt>
      <trkpt lat="47.49564" lon="6.75777">
        <ele>336</ele>
        <time>2015-04-06T07:19:52.000Z</time>
      </trkpt>
      <trkpt lat="47.49566" lon="6.75771">
        <ele>336</ele>
        <time>2015-04-06T07:19:54.000Z</time>
      </trkpt>
      <trkpt lat="47.49569" lon="6.75766">
        <ele>335</ele>
        <time>2015-04-06T07:19:55.000Z</time>
      </trkpt>
      <trkpt lat="47.49572" lon="6.75768">
        <ele>336</ele>
        <time>2015-04-06T07:19:56.000Z</time>
      </trkpt>
      <trkpt lat="47.49575" lon="6.75768">
        <ele>336</ele>
        <time>2015-04-06T07:19:57.000Z</time>
      </trkpt>
      <trkpt lat="47.49579" lon="6.75767">
        <ele>335</ele>
        <time>2015-04-06T07:19:58.000Z</time>
      </trkpt>
      <trkpt lat="47.49582" lon="6.75764">
        <ele>335</ele>
        <time>2015-04-06T07:19:59.000Z</time>
      </trkpt>
      <trkpt lat="47.49584" lon="6.75761">
        <ele>338</ele>
        <time>2015-04-06T07:20:00.000Z</time>
      </trkpt>
      <trkpt lat="47.49587" lon="6.75758">
        <ele>338</ele>
        <time>2015-04-06T07:20:01.000Z</time>
      </trkpt>
      <trkpt lat="47.4959" lon="6.75756">
        <ele>338</ele>
        <time>2015-04-06T07:20:02.000Z</time>
      </trkpt>
      <trkpt lat="47.49593" lon="6.75754">
        <ele>338</ele>
        <time>2015-04-06T07:20:03.000Z</time>
      </trkpt>
      <trkpt lat="47.49596" lon="6.7575">
        <ele>339</ele>
        <time>2015-04-06T07:20:04.000Z</time>
      </trkpt>
      <trkpt lat="47.49599" lon="6.75746">
        <ele>333</ele>
        <time>2015-04-06T07:20:05.000Z</time>
      </trkpt>
      <trkpt lat="47.49602" lon="6.75741">
        <ele>333</ele>
        <time>2015-04-06T07:20:06.000Z</time>
      </trkpt>
      <trkpt lat="47.49604" lon="6.75736">
        <ele>333</ele>
        <time>2015-04-06T07:20:07.000Z</time>
      </trkpt>
      <trkpt lat="47.49607" lon="6.7573">
        <ele>332</ele>
        <time>2015-04-06T07:20:08.000Z</time>
      </trkpt>
      <trkpt lat="47.49607" lon="6.75717">
        <ele>331</ele>
        <time>2015-04-06T07:20:09.000Z</time>
      </trkpt>
      <trkpt lat="47.49608" lon="6.7571">
        <ele>331</ele>
        <time>2015-04-06T07:20:10.000Z</time>
      </trkpt>
      <trkpt lat="47.49604" lon="6.75705">
        <ele>330</ele>
        <time>2015-04-06T07:20:11.000Z</time>
      </trkpt>
      <trkpt lat="47.496" lon="6.75694">
        <ele>329</ele>
        <time>2015-04-06T07:20:12.000Z</time>
      </trkpt>
      <trkpt lat="47.49598" lon="6.75689">
        <ele>328</ele>
        <time>2015-04-06T07:20:13.000Z</time>
      </trkpt>
      <trkpt lat="47.49594" lon="6.75682">
        <ele>326</ele>
        <time>2015-04-06T07:20:14.000Z</time>
      </trkpt>
      <trkpt lat="47.4959" lon="6.75676">
        <ele>325</ele>
        <time>2015-04-06T07:20:15.000Z</time>
      </trkpt>
      <trkpt lat="47.49585" lon="6.75676">
        <ele>324</ele>
        <time>2015-04-06T07:20:16.000Z</time>
      </trkpt>
      <trkpt lat="47.4958" lon="6.75676">
        <ele>322</ele>
        <time>2015-04-06T07:20:17.000Z</time>
      </trkpt>
      <trkpt lat="47.49574" lon="6.75678">
        <ele>323</ele>
        <time>2015-04-06T07:20:18.000Z</time>
      </trkpt>
      <trkpt lat="47.4957" lon="6.75685">
        <ele>324</ele>
        <time>2015-04-06T07:20:19.000Z</time>
      </trkpt>
      <trkpt lat="47.49565" lon="6.7569">
        <ele>324</ele>
        <time>2015-04-06T07:20:20.000Z</time>
      </trkpt>
      <trkpt lat="47.49562" lon="6.75697">
        <ele>325</ele>
        <time>2015-04-06T07:20:21.000Z</time>
      </trkpt>
      <trkpt lat="47.49558" lon="6.75703">
        <ele>325</ele>
        <time>2015-04-06T07:20:22.000Z</time>
      </trkpt>
      <trkpt lat="47.49553" lon="6.75708">
        <ele>325</ele>
        <time>2015-04-06T07:20:23.000Z</time>
      </trkpt>
      <trkpt lat="47.4955" lon="6.75713">
        <ele>325</ele>
        <time>2015-04-06T07:20:24.000Z</time>
      </trkpt>
      <trkpt lat="47.49545" lon="6.75717">
        <ele>326</ele>
        <time>2015-04-06T07:20:25.000Z</time>
      </trkpt>
      <trkpt lat="47.4954" lon="6.7572">
        <ele>325</ele>
        <time>2015-04-06T07:20:26.000Z</time>
      </trkpt>
      <trkpt lat="47.49534" lon="6.75723">
        <ele>325</ele>
        <time>2015-04-06T07:20:27.000Z</time>
      </trkpt>
      <trkpt lat="47.4953" lon="6.75726">
        <ele>325</ele>
        <time>2015-04-06T07:20:28.000Z</time>
      </trkpt>
      <trkpt lat="47.49526" lon="6.7573">
        <ele>325</ele>
        <time>2015-04-06T07:20:29.000Z</time>
      </trkpt>
      <trkpt lat="47.49522" lon="6.75733">
        <ele>325</ele>
        <time>2015-04-06T07:20:30.000Z</time>
      </trkpt>
      <trkpt lat="47.49516" lon="6.75737">
        <ele>325</ele>
        <time>2015-04-06T07:20:31.000Z</time>
      </trkpt>
      <trkpt lat="47.49512" lon="6.7574">
        <ele>325</ele>
        <time>2015-04-06T07:20:32.000Z</time>
      </trkpt>
      <trkpt lat="47.49507" lon="6.75742">
        <ele>324</ele>
        <time>2015-04-06T07:20:33.000Z</time>
      </trkpt>
      <trkpt lat="47.49502" lon="6.75744">
        <ele>324</ele>
        <time>2015-04-06T07:20:34.000Z</time>
      </trkpt>
      <trkpt lat="47.49498" lon="6.75745">
        <ele>323</ele>
        <time>2015-04-06T07:20:35.000Z</time>
      </trkpt>
      <trkpt lat="47.49494" lon="6.75745">
        <ele>323</ele>
        <time>2015-04-06T07:20:36.000Z</time>
      </trkpt>
      <trkpt lat="47.4949" lon="6.75743">
        <ele>323</ele>
        <time>2015-04-06T07:20:37.000Z</time>
      </trkpt>
      <trkpt lat="47.49487" lon="6.75739">
        <ele>322</ele>
        <time>2015-04-06T07:20:38.000Z</time>
      </trkpt>
      <trkpt lat="47.49485" lon="6.75732">
        <ele>322</ele>
        <time>2015-04-06T07:20:39.000Z</time>
      </trkpt>
      <trkpt lat="47.49483" lon="6.75725">
        <ele>322</ele>
        <time>2015-04-06T07:20:40.000Z</time>
      </trkpt>
      <trkpt lat="47.49482" lon="6.75719">
        <ele>322</ele>
        <time>2015-04-06T07:20:41.000Z</time>
      </trkpt>
      <trkpt lat="47.49481" lon="6.75714">
        <ele>321</ele>
        <time>2015-04-06T07:20:42.000Z</time>
      </trkpt>
      <trkpt lat="47.49479" lon="6.75709">
        <ele>321</ele>
        <time>2015-04-06T07:20:43.000Z</time>
      </trkpt>
      <trkpt lat="47.49474" lon="6.75704">
        <ele>321</ele>
        <time>2015-04-06T07:20:44.000Z</time>
      </trkpt>
      <trkpt lat="47.49469" lon="6.757">
        <ele>321</ele>
        <time>2015-04-06T07:20:45.000Z</time>
      </trkpt>
      <trkpt lat="47.49464" lon="6.75699">
        <ele>321</ele>
        <time>2015-04-06T07:20:46.000Z</time>
      </trkpt>
      <trkpt lat="47.49459" lon="6.75701">
        <ele>321</ele>
        <time>2015-04-06T07:20:47.000Z</time>
      </trkpt>
      <trkpt lat="47.49454" lon="6.75701">
        <ele>321</ele>
        <time>2015-04-06T07:20:48.000Z</time>
      </trkpt>
      <trkpt lat="47.4945" lon="6.75701">
        <ele>321</ele>
        <time>2015-04-06T07:20:49.000Z</time>
      </trkpt>
      <trkpt lat="47.49446" lon="6.757">
        <ele>321</ele>
        <time>2015-04-06T07:20:50.000Z</time>
      </trkpt>
      <trkpt lat="47.49441" lon="6.75693">
        <ele>321</ele>
        <time>2015-04-06T07:20:52.000Z</time>
      </trkpt>
      <trkpt lat="47.49439" lon="6.75688">
        <ele>320</ele>
        <time>2015-04-06T07:20:53.000Z</time>
      </trkpt>
      <trkpt lat="47.49438" lon="6.75683">
        <ele>320</ele>
        <time>2015-04-06T07:20:54.000Z</time>
      </trkpt>
      <trkpt lat="47.49436" lon="6.75679">
        <ele>320</ele>
        <time>2015-04-06T07:20:55.000Z</time>
      </trkpt>
      <trkpt lat="47.49428" lon="6.7568">
        <ele>320</ele>
        <time>2015-04-06T07:20:56.000Z</time>
      </trkpt>
      <trkpt lat="47.49423" lon="6.75682">
        <ele>320</ele>
        <time>2015-04-06T07:20:57.000Z</time>
      </trkpt>
      <trkpt lat="47.49417" lon="6.75683">
        <ele>320</ele>
        <time>2015-04-06T07:20:58.000Z</time>
      </trkpt>
      <trkpt lat="47.49414" lon="6.75686">
        <ele>319</ele>
        <time>2015-04-06T07:20:59.000Z</time>
      </trkpt>
      <trkpt lat="47.49409" lon="6.75687">
        <ele>319</ele>
        <time>2015-04-06T07:21:00.000Z</time>
      </trkpt>
      <trkpt lat="47.49404" lon="6.75689">
        <ele>319</ele>
        <time>2015-04-06T07:21:01.000Z</time>
      </trkpt>
      <trkpt lat="47.494" lon="6.75692">
        <ele>319</ele>
        <time>2015-04-06T07:21:02.000Z</time>
      </trkpt>
      <trkpt lat="47.49396" lon="6.75694">
        <ele>319</ele>
        <time>2015-04-06T07:21:03.000Z</time>
      </trkpt>
      <trkpt lat="47.49393" lon="6.75696">
        <ele>319</ele>
        <time>2015-04-06T07:21:04.000Z</time>
      </trkpt>
      <trkpt lat="47.49388" lon="6.75698">
        <ele>319</ele>
        <time>2015-04-06T07:21:05.000Z</time>
      </trkpt>
      <trkpt lat="47.49385" lon="6.757">
        <ele>319</ele>
        <time>2015-04-06T07:21:06.000Z</time>
      </trkpt>
      <trkpt lat="47.49381" lon="6.75702">
        <ele>319</ele>
        <time>2015-04-06T07:21:07.000Z</time>
      </trkpt>
      <trkpt lat="47.49378" lon="6.75704">
        <ele>319</ele>
        <time>2015-04-06T07:21:08.000Z</time>
      </trkpt>
      <trkpt lat="47.49375" lon="6.75707">
        <ele>319</ele>
        <time>2015-04-06T07:21:09.000Z</time>
      </trkpt>
      <trkpt lat="47.49372" lon="6.75708">
        <ele>319</ele>
        <time>2015-04-06T07:21:10.000Z</time>
      </trkpt>
      <trkpt lat="47.49369" lon="6.7571">
        <ele>319</ele>
        <time>2015-04-06T07:21:11.000Z</time>
      </trkpt>
      <trkpt lat="47.49366" lon="6.75712">
        <ele>319</ele>
        <time>2015-04-06T07:21:12.000Z</time>
      </trkpt>
      <trkpt lat="47.49364" lon="6.75714">
        <ele>319</ele>
        <time>2015-04-06T07:21:13.000Z</time>
      </trkpt>
      <trkpt lat="47.4936" lon="6.75717">
        <ele>319</ele>
        <time>2015-04-06T07:21:15.000Z</time>
      </trkpt>
      <trkpt lat="47.49359" lon="6.75719">
        <ele>319</ele>
        <time>2015-04-06T07:21:16.000Z</time>
      </trkpt>
      <trkpt lat="47.49357" lon="6.7572">
        <ele>319</ele>
        <time>2015-04-06T07:21:17.000Z</time>
      </trkpt>
      <trkpt lat="47.49355" lon="6.75723">
        <ele>319</ele>
        <time>2015-04-06T07:21:18.000Z</time>
      </trkpt>
      <trkpt lat="47.49348" lon="6.75729">
        <ele>318</ele>
        <time>2015-04-06T07:21:19.000Z</time>
      </trkpt>
      <trkpt lat="47.49344" lon="6.75732">
        <ele>318</ele>
        <time>2015-04-06T07:21:20.000Z</time>
      </trkpt>
      <trkpt lat="47.49339" lon="6.75735">
        <ele>318</ele>
        <time>2015-04-06T07:21:21.000Z</time>
      </trkpt>
      <trkpt lat="47.49337" lon="6.7574">
        <ele>318</ele>
        <time>2015-04-06T07:21:22.000Z</time>
      </trkpt>
      <trkpt lat="47.49333" lon="6.75743">
        <ele>318</ele>
        <time>2015-04-06T07:21:23.000Z</time>
      </trkpt>
      <trkpt lat="47.49329" lon="6.75749">
        <ele>318</ele>
        <time>2015-04-06T07:21:24.000Z</time>
      </trkpt>
      <trkpt lat="47.49325" lon="6.75752">
        <ele>318</ele>
        <time>2015-04-06T07:21:25.000Z</time>
      </trkpt>
      <trkpt lat="47.49318" lon="6.7575">
        <ele>318</ele>
        <time>2015-04-06T07:21:26.000Z</time>
      </trkpt>
      <trkpt lat="47.49316" lon="6.75755">
        <ele>318</ele>
        <time>2015-04-06T07:21:27.000Z</time>
      </trkpt>
      <trkpt lat="47.49312" lon="6.75759">
        <ele>318</ele>
        <time>2015-04-06T07:21:28.000Z</time>
      </trkpt>
      <trkpt lat="47.49307" lon="6.75761">
        <ele>318</ele>
        <time>2015-04-06T07:21:29.000Z</time>
      </trkpt>
      <trkpt lat="47.49304" lon="6.75762">
        <ele>318</ele>
        <time>2015-04-06T07:21:32.000Z</time>
      </trkpt>
      <trkpt lat="47.49302" lon="6.75762">
        <ele>318</ele>
        <time>2015-04-06T07:21:33.000Z</time>
      </trkpt>
      <trkpt lat="47.49299" lon="6.75764">
        <ele>318</ele>
        <time>2015-04-06T07:21:35.000Z</time>
      </trkpt>
      <trkpt lat="47.49298" lon="6.75766">
        <ele>318</ele>
        <time>2015-04-06T07:21:36.000Z</time>
      </trkpt>
      <trkpt lat="47.49295" lon="6.75767">
        <ele>318</ele>
        <time>2015-04-06T07:21:37.000Z</time>
      </trkpt>
      <trkpt lat="47.49293" lon="6.75769">
        <ele>318</ele>
        <time>2015-04-06T07:21:38.000Z</time>
      </trkpt>
      <trkpt lat="47.49292" lon="6.7577">
        <ele>318</ele>
        <time>2015-04-06T07:21:39.001Z</time>
      </trkpt>
      <trkpt lat="47.49288" lon="6.75776">
        <ele>318</ele>
        <time>2015-04-06T07:21:40.000Z</time>
      </trkpt>
      <trkpt lat="47.49286" lon="6.7578">
        <ele>318</ele>
        <time>2015-04-06T07:21:41.000Z</time>
      </trkpt>
      <trkpt lat="47.49283" lon="6.75785">
        <ele>318</ele>
        <time>2015-04-06T07:21:42.000Z</time>
      </trkpt>
      <trkpt lat="47.4928" lon="6.75791">
        <ele>318</ele>
        <time>2015-04-06T07:21:43.000Z</time>
      </trkpt>
      <trkpt lat="47.49277" lon="6.75796">
        <ele>318</ele>
        <time>2015-04-06T07:21:44.000Z</time>
      </trkpt>
      <trkpt lat="47.49274" lon="6.758">
        <ele>317</ele>
        <time>2015-04-06T07:21:45.000Z</time>
      </trkpt>
      <trkpt lat="47.49272" lon="6.75804">
        <ele>317</ele>
        <time>2015-04-06T07:21:46.000Z</time>
      </trkpt>
      <trkpt lat="47.4927" lon="6.75808">
        <ele>317</ele>
        <time>2015-04-06T07:21:47.000Z</time>
      </trkpt>
      <trkpt lat="47.49267" lon="6.75813">
        <ele>317</ele>
        <time>2015-04-06T07:21:48.000Z</time>
      </trkpt>
      <trkpt lat="47.49264" lon="6.75818">
        <ele>316</ele>
        <time>2015-04-06T07:21:49.000Z</time>
      </trkpt>
      <trkpt lat="47.49262" lon="6.75824">
        <ele>315</ele>
        <time>2015-04-06T07:21:50.000Z</time>
      </trkpt>
      <trkpt lat="47.49256" lon="6.75834">
        <ele>315</ele>
        <time>2015-04-06T07:21:52.000Z</time>
      </trkpt>
      <trkpt lat="47.49254" lon="6.75839">
        <ele>315</ele>
        <time>2015-04-06T07:21:53.000Z</time>
      </trkpt>
      <trkpt lat="47.49252" lon="6.75843">
        <ele>315</ele>
        <time>2015-04-06T07:21:54.000Z</time>
      </trkpt>
      <trkpt lat="47.4925" lon="6.75848">
        <ele>316</ele>
        <time>2015-04-06T07:21:55.000Z</time>
      </trkpt>
      <trkpt lat="47.49249" lon="6.75852">
        <ele>316</ele>
        <time>2015-04-06T07:21:56.000Z</time>
      </trkpt>
      <trkpt lat="47.49248" lon="6.75856">
        <ele>317</ele>
        <time>2015-04-06T07:21:57.000Z</time>
      </trkpt>
      <trkpt lat="47.49247" lon="6.7586">
        <ele>317</ele>
        <time>2015-04-06T07:21:58.000Z</time>
      </trkpt>
      <trkpt lat="47.49246" lon="6.75864">
        <ele>317</ele>
        <time>2015-04-06T07:21:59.000Z</time>
      </trkpt>
      <trkpt lat="47.49244" lon="6.75869">
        <ele>318</ele>
        <time>2015-04-06T07:22:00.000Z</time>
      </trkpt>
      <trkpt lat="47.49242" lon="6.75874">
        <ele>318</ele>
        <time>2015-04-06T07:22:01.000Z</time>
      </trkpt>
      <trkpt lat="47.4924" lon="6.7588">
        <ele>318</ele>
        <time>2015-04-06T07:22:02.000Z</time>
      </trkpt>
      <trkpt lat="47.49238" lon="6.75884">
        <ele>318</ele>
        <time>2015-04-06T07:22:03.000Z</time>
      </trkpt>
      <trkpt lat="47.49236" lon="6.75889">
        <ele>318</ele>
        <time>2015-04-06T07:22:04.000Z</time>
      </trkpt>
      <trkpt lat="47.49234" lon="6.75893">
        <ele>318</ele>
        <time>2015-04-06T07:22:05.000Z</time>
      </trkpt>
      <trkpt lat="47.49232" lon="6.75897">
        <ele>318</ele>
        <time>2015-04-06T07:22:06.000Z</time>
      </trkpt>
      <trkpt lat="47.49231" lon="6.75901">
        <ele>318</ele>
        <time>2015-04-06T07:22:07.000Z</time>
      </trkpt>
      <trkpt lat="47.49229" lon="6.75905">
        <ele>318</ele>
        <time>2015-04-06T07:22:08.000Z</time>
      </trkpt>
      <trkpt lat="47.49228" lon="6.75909">
        <ele>318</ele>
        <time>2015-04-06T07:22:09.000Z</time>
      </trkpt>
      <trkpt lat="47.49226" lon="6.75913">
        <ele>318</ele>
        <time>2015-04-06T07:22:10.000Z</time>
      </trkpt>
      <trkpt lat="47.49224" lon="6.75917">
        <ele>319</ele>
        <time>2015-04-06T07:22:11.000Z</time>
      </trkpt>
      <trkpt lat="47.49223" lon="6.7592">
        <ele>319</ele>
        <time>2015-04-06T07:22:12.000Z</time>
      </trkpt>
      <trkpt lat="47.49221" lon="6.75924">
        <ele>319</ele>
        <time>2015-04-06T07:22:13.000Z</time>
      </trkpt>
      <trkpt lat="47.49219" lon="6.75928">
        <ele>319</ele>
        <time>2015-04-06T07:22:14.000Z</time>
      </trkpt>
      <trkpt lat="47.49218" lon="6.75931">
        <ele>320</ele>
        <time>2015-04-06T07:22:15.000Z</time>
      </trkpt>
      <trkpt lat="47.49216" lon="6.75934">
        <ele>320</ele>
        <time>2015-04-06T07:22:16.000Z</time>
      </trkpt>
      <trkpt lat="47.49214" lon="6.75938">
        <ele>320</ele>
        <time>2015-04-06T07:22:17.000Z</time>
      </trkpt>
      <trkpt lat="47.49211" lon="6.75942">
        <ele>320</ele>
        <time>2015-04-06T07:22:18.000Z</time>
      </trkpt>
      <trkpt lat="47.49209" lon="6.75946">
        <ele>320</ele>
        <time>2015-04-06T07:22:19.000Z</time>
      </trkpt>
      <trkpt lat="47.49206" lon="6.75951">
        <ele>320</ele>
        <time>2015-04-06T07:22:20.000Z</time>
      </trkpt>
      <trkpt lat="47.49204" lon="6.75957">
        <ele>320</ele>
        <time>2015-04-06T07:22:21.000Z</time>
      </trkpt>
      <trkpt lat="47.49202" lon="6.75962">
        <ele>320</ele>
        <time>2015-04-06T07:22:22.000Z</time>
      </trkpt>
      <trkpt lat="47.492" lon="6.75968">
        <ele>320</ele>
        <time>2015-04-06T07:22:23.000Z</time>
      </trkpt>
      <trkpt lat="47.49198" lon="6.75974">
        <ele>320</ele>
        <time>2015-04-06T07:22:24.000Z</time>
      </trkpt>
      <trkpt lat="47.49196" lon="6.75979">
        <ele>320</ele>
        <time>2015-04-06T07:22:25.000Z</time>
      </trkpt>
      <trkpt lat="47.49194" lon="6.75985">
        <ele>320</ele>
        <time>2015-04-06T07:22:26.000Z</time>
      </trkpt>
      <trkpt lat="47.49192" lon="6.7599">
        <ele>320</ele>
        <time>2015-04-06T07:22:27.000Z</time>
      </trkpt>
      <trkpt lat="47.49189" lon="6.75995">
        <ele>320</ele>
        <time>2015-04-06T07:22:28.000Z</time>
      </trkpt>
      <trkpt lat="47.49187" lon="6.75999">
        <ele>320</ele>
        <time>2015-04-06T07:22:29.000Z</time>
      </trkpt>
      <trkpt lat="47.49185" lon="6.76003">
        <ele>320</ele>
        <time>2015-04-06T07:22:30.000Z</time>
      </trkpt>
      <trkpt lat="47.49183" lon="6.76008">
        <ele>320</ele>
        <time>2015-04-06T07:22:31.000Z</time>
      </trkpt>
      <trkpt lat="47.49181" lon="6.76012">
        <ele>320</ele>
        <time>2015-04-06T07:22:32.000Z</time>
      </trkpt>
      <trkpt lat="47.49178" lon="6.76017">
        <ele>320</ele>
        <time>2015-04-06T07:22:33.000Z</time>
      </trkpt>
      <trkpt lat="47.49176" lon="6.76023">
        <ele>320</ele>
        <time>2015-04-06T07:22:34.000Z</time>
      </trkpt>
      <trkpt lat="47.49173" lon="6.76029">
        <ele>320</ele>
        <time>2015-04-06T07:22:35.000Z</time>
      </trkpt>
      <trkpt lat="47.49171" lon="6.76035">
        <ele>320</ele>
        <time>2015-04-06T07:22:36.000Z</time>
      </trkpt>
      <trkpt lat="47.49168" lon="6.76042">
        <ele>320</ele>
        <time>2015-04-06T07:22:37.000Z</time>
      </trkpt>
      <trkpt lat="47.49166" lon="6.76049">
        <ele>322</ele>
        <time>2015-04-06T07:22:38.000Z</time>
      </trkpt>
      <trkpt lat="47.49164" lon="6.76057">
        <ele>322</ele>
        <time>2015-04-06T07:22:39.000Z</time>
      </trkpt>
      <trkpt lat="47.49162" lon="6.76064">
        <ele>321</ele>
        <time>2015-04-06T07:22:40.000Z</time>
      </trkpt>
      <trkpt lat="47.49159" lon="6.76072">
        <ele>321</ele>
        <time>2015-04-06T07:22:41.000Z</time>
      </trkpt>
      <trkpt lat="47.49157" lon="6.76079">
        <ele>320</ele>
        <time>2015-04-06T07:22:42.000Z</time>
      </trkpt>
      <trkpt lat="47.49155" lon="6.76085">
        <ele>320</ele>
        <time>2015-04-06T07:22:43.000Z</time>
      </trkpt>
      <trkpt lat="47.49153" lon="6.76091">
        <ele>320</ele>
        <time>2015-04-06T07:22:44.000Z</time>
      </trkpt>
      <trkpt lat="47.49151" lon="6.76096">
        <ele>320</ele>
        <time>2015-04-06T07:22:45.000Z</time>
      </trkpt>
      <trkpt lat="47.49149" lon="6.76101">
        <ele>321</ele>
        <time>2015-04-06T07:22:46.001Z</time>
      </trkpt>
      <trkpt lat="47.49148" lon="6.76105">
        <ele>321</ele>
        <time>2015-04-06T07:22:47.000Z</time>
      </trkpt>
      <trkpt lat="47.49149" lon="6.7611">
        <ele>321</ele>
        <time>2015-04-06T07:22:48.000Z</time>
      </trkpt>
      <trkpt lat="47.49149" lon="6.76112">
        <ele>321</ele>
        <time>2015-04-06T07:22:49.000Z</time>
      </trkpt>
      <trkpt lat="47.49149" lon="6.76115">
        <ele>321</ele>
        <time>2015-04-06T07:22:50.000Z</time>
      </trkpt>
      <trkpt lat="47.49145" lon="6.7612">
        <ele>321</ele>
        <time>2015-04-06T07:22:52.000Z</time>
      </trkpt>
      <trkpt lat="47.49145" lon="6.7613">
        <ele>321</ele>
        <time>2015-04-06T07:22:53.000Z</time>
      </trkpt>
      <trkpt lat="47.49143" lon="6.76134">
        <ele>321</ele>
        <time>2015-04-06T07:22:54.000Z</time>
      </trkpt>
      <trkpt lat="47.49142" lon="6.76139">
        <ele>321</ele>
        <time>2015-04-06T07:22:55.000Z</time>
      </trkpt>
      <trkpt lat="47.49143" lon="6.76144">
        <ele>321</ele>
        <time>2015-04-06T07:22:56.000Z</time>
      </trkpt>
      <trkpt lat="47.49145" lon="6.76149">
        <ele>321</ele>
        <time>2015-04-06T07:22:57.000Z</time>
      </trkpt>
      <trkpt lat="47.49144" lon="6.76155">
        <ele>321</ele>
        <time>2015-04-06T07:22:59.000Z</time>
      </trkpt>
      <trkpt lat="47.49143" lon="6.76158">
        <ele>321</ele>
        <time>2015-04-06T07:23:00.000Z</time>
      </trkpt>
      <trkpt lat="47.49142" lon="6.76163">
        <ele>321</ele>
        <time>2015-04-06T07:23:02.000Z</time>
      </trkpt>
      <trkpt lat="47.49141" lon="6.76165">
        <ele>321</ele>
        <time>2015-04-06T07:23:03.000Z</time>
      </trkpt>
      <trkpt lat="47.4914" lon="6.76169">
        <ele>320</ele>
        <time>2015-04-06T07:23:05.000Z</time>
      </trkpt>
      <trkpt lat="47.49139" lon="6.76173">
        <ele>321</ele>
        <time>2015-04-06T07:23:06.000Z</time>
      </trkpt>
      <trkpt lat="47.49138" lon="6.76178">
        <ele>321</ele>
        <time>2015-04-06T07:23:07.000Z</time>
      </trkpt>
      <trkpt lat="47.49137" lon="6.76183">
        <ele>321</ele>
        <time>2015-04-06T07:23:08.000Z</time>
      </trkpt>
      <trkpt lat="47.49137" lon="6.76188">
        <ele>321</ele>
        <time>2015-04-06T07:23:09.000Z</time>
      </trkpt>
      <trkpt lat="47.49136" lon="6.76194">
        <ele>321</ele>
        <time>2015-04-06T07:23:10.000Z</time>
      </trkpt>
      <trkpt lat="47.49136" lon="6.76199">
        <ele>321</ele>
        <time>2015-04-06T07:23:11.000Z</time>
      </trkpt>
      <trkpt lat="47.49135" lon="6.76205">
        <ele>321</ele>
        <time>2015-04-06T07:23:12.000Z</time>
      </trkpt>
      <trkpt lat="47.49135" lon="6.7621">
        <ele>321</ele>
        <time>2015-04-06T07:23:13.000Z</time>
      </trkpt>
      <trkpt lat="47.49134" lon="6.76215">
        <ele>321</ele>
        <time>2015-04-06T07:23:14.000Z</time>
      </trkpt>
      <trkpt lat="47.49134" lon="6.76219">
        <ele>320</ele>
        <time>2015-04-06T07:23:15.000Z</time>
      </trkpt>
      <trkpt lat="47.49134" lon="6.76223">
        <ele>320</ele>
        <time>2015-04-06T07:23:16.000Z</time>
      </trkpt>
      <trkpt lat="47.49134" lon="6.76226">
        <ele>320</ele>
        <time>2015-04-06T07:23:17.000Z</time>
      </trkpt>
      <trkpt lat="47.49134" lon="6.76231">
        <ele>320</ele>
        <time>2015-04-06T07:23:18.000Z</time>
      </trkpt>
      <trkpt lat="47.49133" lon="6.76235">
        <ele>320</ele>
        <time>2015-04-06T07:23:19.000Z</time>
      </trkpt>
      <trkpt lat="47.49133" lon="6.76239">
        <ele>320</ele>
        <time>2015-04-06T07:23:20.000Z</time>
      </trkpt>
      <trkpt lat="47.49133" lon="6.76245">
        <ele>320</ele>
        <time>2015-04-06T07:23:21.000Z</time>
      </trkpt>
      <trkpt lat="47.49133" lon="6.7625">
        <ele>319</ele>
        <time>2015-04-06T07:23:22.000Z</time>
      </trkpt>
      <trkpt lat="47.49134" lon="6.76255">
        <ele>319</ele>
        <time>2015-04-06T07:23:23.000Z</time>
      </trkpt>
      <trkpt lat="47.49134" lon="6.7626">
        <ele>319</ele>
        <time>2015-04-06T07:23:24.000Z</time>
      </trkpt>
      <trkpt lat="47.49135" lon="6.76265">
        <ele>319</ele>
        <time>2015-04-06T07:23:25.000Z</time>
      </trkpt>
      <trkpt lat="47.49136" lon="6.76269">
        <ele>319</ele>
        <time>2015-04-06T07:23:26.000Z</time>
      </trkpt>
      <trkpt lat="47.49136" lon="6.76274">
        <ele>319</ele>
        <time>2015-04-06T07:23:27.000Z</time>
      </trkpt>
      <trkpt lat="47.49137" lon="6.76279">
        <ele>319</ele>
        <time>2015-04-06T07:23:28.000Z</time>
      </trkpt>
      <trkpt lat="47.49139" lon="6.76283">
        <ele>319</ele>
        <time>2015-04-06T07:23:29.000Z</time>
      </trkpt>
      <trkpt lat="47.49139" lon="6.76288">
        <ele>319</ele>
        <time>2015-04-06T07:23:30.000Z</time>
      </trkpt>
      <trkpt lat="47.4914" lon="6.76292">
        <ele>319</ele>
        <time>2015-04-06T07:23:31.000Z</time>
      </trkpt>
      <trkpt lat="47.4914" lon="6.76296">
        <ele>319</ele>
        <time>2015-04-06T07:23:32.000Z</time>
      </trkpt>
      <trkpt lat="47.4914" lon="6.763">
        <ele>319</ele>
        <time>2015-04-06T07:23:33.000Z</time>
      </trkpt>
      <trkpt lat="47.4914" lon="6.76304">
        <ele>318</ele>
        <time>2015-04-06T07:23:34.000Z</time>
      </trkpt>
      <trkpt lat="47.49141" lon="6.76309">
        <ele>318</ele>
        <time>2015-04-06T07:23:35.000Z</time>
      </trkpt>
      <trkpt lat="47.49141" lon="6.76314">
        <ele>318</ele>
        <time>2015-04-06T07:23:36.000Z</time>
      </trkpt>
      <trkpt lat="47.49141" lon="6.76319">
        <ele>318</ele>
        <time>2015-04-06T07:23:37.000Z</time>
      </trkpt>
      <trkpt lat="47.49141" lon="6.76324">
        <ele>318</ele>
        <time>2015-04-06T07:23:38.000Z</time>
      </trkpt>
      <trkpt lat="47.49142" lon="6.7633">
        <ele>318</ele>
        <time>2015-04-06T07:23:39.000Z</time>
      </trkpt>
      <trkpt lat="47.49142" lon="6.76335">
        <ele>317</ele>
        <time>2015-04-06T07:23:40.000Z</time>
      </trkpt>
      <trkpt lat="47.49143" lon="6.7634">
        <ele>317</ele>
        <time>2015-04-06T07:23:41.000Z</time>
      </trkpt>
      <trkpt lat="47.49144" lon="6.76345">
        <ele>317</ele>
        <time>2015-04-06T07:23:42.000Z</time>
      </trkpt>
      <trkpt lat="47.49144" lon="6.76351">
        <ele>317</ele>
        <time>2015-04-06T07:23:43.000Z</time>
      </trkpt>
      <trkpt lat="47.49144" lon="6.76358">
        <ele>317</ele>
        <time>2015-04-06T07:23:44.000Z</time>
      </trkpt>
      <trkpt lat="47.49144" lon="6.76364">
        <ele>317</ele>
        <time>2015-04-06T07:23:45.000Z</time>
      </trkpt>
      <trkpt lat="47.49144" lon="6.7637">
        <ele>317</ele>
        <time>2015-04-06T07:23:46.000Z</time>
      </trkpt>
      <trkpt lat="47.49144" lon="6.76376">
        <ele>317</ele>
        <time>2015-04-06T07:23:47.000Z</time>
      </trkpt>
      <trkpt lat="47.49144" lon="6.76383">
        <ele>317</ele>
        <time>2015-04-06T07:23:48.000Z</time>
      </trkpt>
      <trkpt lat="47.49143" lon="6.76389">
        <ele>317</ele>
        <time>2015-04-06T07:23:49.000Z</time>
      </trkpt>
      <trkpt lat="47.49143" lon="6.76396">
        <ele>316</ele>
        <time>2015-04-06T07:23:50.000Z</time>
      </trkpt>
      <trkpt lat="47.49143" lon="6.76404">
        <ele>316</ele>
        <time>2015-04-06T07:23:51.000Z</time>
      </trkpt>
      <trkpt lat="47.49143" lon="6.76411">
        <ele>316</ele>
        <time>2015-04-06T07:23:52.000Z</time>
      </trkpt>
      <trkpt lat="47.49143" lon="6.76417">
        <ele>316</ele>
        <time>2015-04-06T07:23:53.000Z</time>
      </trkpt>
      <trkpt lat="47.49143" lon="6.76423">
        <ele>316</ele>
        <time>2015-04-06T07:23:54.000Z</time>
      </trkpt>
      <trkpt lat="47.49142" lon="6.76428">
        <ele>316</ele>
        <time>2015-04-06T07:23:55.000Z</time>
      </trkpt>
      <trkpt lat="47.49141" lon="6.76433">
        <ele>316</ele>
        <time>2015-04-06T07:23:56.000Z</time>
      </trkpt>
      <trkpt lat="47.4914" lon="6.76438">
        <ele>316</ele>
        <time>2015-04-06T07:23:57.000Z</time>
      </trkpt>
      <trkpt lat="47.49139" lon="6.76443">
        <ele>316</ele>
        <time>2015-04-06T07:23:58.000Z</time>
      </trkpt>
      <trkpt lat="47.49139" lon="6.76449">
        <ele>316</ele>
        <time>2015-04-06T07:23:59.000Z</time>
      </trkpt>
      <trkpt lat="47.49139" lon="6.76456">
        <ele>316</ele>
        <time>2015-04-06T07:24:00.000Z</time>
      </trkpt>
      <trkpt lat="47.49139" lon="6.76464">
        <ele>316</ele>
        <time>2015-04-06T07:24:01.000Z</time>
      </trkpt>
      <trkpt lat="47.49139" lon="6.76473">
        <ele>316</ele>
        <time>2015-04-06T07:24:02.000Z</time>
      </trkpt>
      <trkpt lat="47.4914" lon="6.76483">
        <ele>316</ele>
        <time>2015-04-06T07:24:03.000Z</time>
      </trkpt>
      <trkpt lat="47.4914" lon="6.76492">
        <ele>316</ele>
        <time>2015-04-06T07:24:04.000Z</time>
      </trkpt>
      <trkpt lat="47.49147" lon="6.76511">
        <ele>315</ele>
        <time>2015-04-06T07:24:05.000Z</time>
      </trkpt>
      <trkpt lat="47.49153" lon="6.76516">
        <ele>315</ele>
        <time>2015-04-06T07:24:06.000Z</time>
      </trkpt>
      <trkpt lat="47.49156" lon="6.76517">
        <ele>314</ele>
        <time>2015-04-06T07:24:07.000Z</time>
      </trkpt>
      <trkpt lat="47.49161" lon="6.76517">
        <ele>314</ele>
        <time>2015-04-06T07:24:08.000Z</time>
      </trkpt>
      <trkpt lat="47.49165" lon="6.76516">
        <ele>314</ele>
        <time>2015-04-06T07:24:09.000Z</time>
      </trkpt>
      <trkpt lat="47.49168" lon="6.76513">
        <ele>315</ele>
        <time>2015-04-06T07:24:10.000Z</time>
      </trkpt>
      <trkpt lat="47.49172" lon="6.76511">
        <ele>314</ele>
        <time>2015-04-06T07:24:11.000Z</time>
      </trkpt>
      <trkpt lat="47.49175" lon="6.76509">
        <ele>315</ele>
        <time>2015-04-06T07:24:12.000Z</time>
      </trkpt>
      <trkpt lat="47.49178" lon="6.76508">
        <ele>315</ele>
        <time>2015-04-06T07:24:13.000Z</time>
      </trkpt>
      <trkpt lat="47.49182" lon="6.76505">
        <ele>315</ele>
        <time>2015-04-06T07:24:14.000Z</time>
      </trkpt>
      <trkpt lat="47.49185" lon="6.76503">
        <ele>315</ele>
        <time>2015-04-06T07:24:15.000Z</time>
      </trkpt>
      <trkpt lat="47.49187" lon="6.76499">
        <ele>316</ele>
        <time>2015-04-06T07:24:16.000Z</time>
      </trkpt>
      <trkpt lat="47.49188" lon="6.76495">
        <ele>316</ele>
        <time>2015-04-06T07:24:17.001Z</time>
      </trkpt>
      <trkpt lat="47.49185" lon="6.7649">
        <ele>316</ele>
        <time>2015-04-06T07:24:18.000Z</time>
      </trkpt>
      <trkpt lat="47.49181" lon="6.76484">
        <ele>316</ele>
        <time>2015-04-06T07:24:19.000Z</time>
      </trkpt>
      <trkpt lat="47.4918" lon="6.76479">
        <ele>316</ele>
        <time>2015-04-06T07:24:20.000Z</time>
      </trkpt>
      <trkpt lat="47.49179" lon="6.76474">
        <ele>316</ele>
        <time>2015-04-06T07:24:21.000Z</time>
      </trkpt>
      <trkpt lat="47.49177" lon="6.76469">
        <ele>316</ele>
        <time>2015-04-06T07:24:22.000Z</time>
      </trkpt>
      <trkpt lat="47.49177" lon="6.76464">
        <ele>316</ele>
        <time>2015-04-06T07:24:23.000Z</time>
      </trkpt>
      <trkpt lat="47.49181" lon="6.76462">
        <ele>317</ele>
        <time>2015-04-06T07:24:58.000Z</time>
      </trkpt>
      <trkpt lat="47.49181" lon="6.76462">
        <ele>317</ele>
        <time>2015-04-06T07:24:59.000Z</time>
      </trkpt>
      <trkpt lat="47.49177" lon="6.76461">
        <ele>316</ele>
        <time>2015-04-06T07:26:57.000Z</time>
      </trkpt>
      <trkpt lat="47.49177" lon="6.7646">
        <ele>316</ele>
        <time>2015-04-06T07:26:58.000Z</time>
      </trkpt>
      <trkpt lat="47.49181" lon="6.76458">
        <ele>317</ele>
        <time>2015-04-06T07:27:45.000Z</time>
      </trkpt>
      <trkpt lat="47.49181" lon="6.76458">
        <ele>317</ele>
        <time>2015-04-06T07:27:46.000Z</time>
      </trkpt>
      <trkpt lat="47.49178" lon="6.76454">
        <ele>316</ele>
        <time>2015-04-06T07:29:07.000Z</time>
      </trkpt>
      <trkpt lat="47.49177" lon="6.76454">
        <ele>316</ele>
        <time>2015-04-06T07:29:08.000Z</time>
      </trkpt>
      <trkpt lat="47.4918" lon="6.76449">
        <ele>316</ele>
        <time>2015-04-06T07:32:03.000Z</time>
      </trkpt>
      <trkpt lat="47.49181" lon="6.7645">
        <ele>316</ele>
        <time>2015-04-06T07:32:04.000Z</time>
      </trkpt>
      <trkpt lat="47.49181" lon="6.76455">
        <ele>317</ele>
        <time>2015-04-06T07:32:08.000Z</time>
      </trkpt>
      <trkpt lat="47.4918" lon="6.76458">
        <ele>316</ele>
        <time>2015-04-06T07:32:09.000Z</time>
      </trkpt>
      <trkpt lat="47.4918" lon="6.76464">
        <ele>316</ele>
        <time>2015-04-06T07:32:11.000Z</time>
      </trkpt>
      <trkpt lat="47.4918" lon="6.76467">
        <ele>316</ele>
        <time>2015-04-06T07:32:12.000Z</time>
      </trkpt>
      <trkpt lat="47.49181" lon="6.76472">
        <ele>316</ele>
        <time>2015-04-06T07:32:14.000Z</time>
      </trkpt>
      <trkpt lat="47.49181" lon="6.76474">
        <ele>316</ele>
        <time>2015-04-06T07:32:15.000Z</time>
      </trkpt>
      <trkpt lat="47.49182" lon="6.7648">
        <ele>316</ele>
        <time>2015-04-06T07:32:17.000Z</time>
      </trkpt>
      <trkpt lat="47.49182" lon="6.76482">
        <ele>316</ele>
        <time>2015-04-06T07:32:18.000Z</time>
      </trkpt>
      <trkpt lat="47.49183" lon="6.76489">
        <ele>316</ele>
        <time>2015-04-06T07:32:21.000Z</time>
      </trkpt>
      <trkpt lat="47.49183" lon="6.76491">
        <ele>316</ele>
        <time>2015-04-06T07:32:22.000Z</time>
      </trkpt>
      <trkpt lat="47.4918" lon="6.76495">
        <ele>315</ele>
        <time>2015-04-06T07:32:24.000Z</time>
      </trkpt>
      <trkpt lat="47.49178" lon="6.76497">
        <ele>315</ele>
        <time>2015-04-06T07:32:25.000Z</time>
      </trkpt>
      <trkpt lat="47.49174" lon="6.76498">
        <ele>314</ele>
        <time>2015-04-06T07:32:27.000Z</time>
      </trkpt>
      <trkpt lat="47.49172" lon="6.76499">
        <ele>314</ele>
        <time>2015-04-06T07:32:28.000Z</time>
      </trkpt>
      <trkpt lat="47.49169" lon="6.76501">
        <ele>313</ele>
        <time>2015-04-06T07:32:29.000Z</time>
      </trkpt>
      <trkpt lat="47.49167" lon="6.76503">
        <ele>313</ele>
        <time>2015-04-06T07:32:30.000Z</time>
      </trkpt>
      <trkpt lat="47.49164" lon="6.76505">
        <ele>314</ele>
        <time>2015-04-06T07:32:31.000Z</time>
      </trkpt>
      <trkpt lat="47.4916" lon="6.76508">
        <ele>314</ele>
        <time>2015-04-06T07:32:32.000Z</time>
      </trkpt>
      <trkpt lat="47.49156" lon="6.76511">
        <ele>314</ele>
        <time>2015-04-06T07:32:33.000Z</time>
      </trkpt>
      <trkpt lat="47.49151" lon="6.76513">
        <ele>315</ele>
        <time>2015-04-06T07:32:34.000Z</time>
      </trkpt>
      <trkpt lat="47.49146" lon="6.76516">
        <ele>315</ele>
        <time>2015-04-06T07:32:35.000Z</time>
      </trkpt>
      <trkpt lat="47.49142" lon="6.76517">
        <ele>315</ele>
        <time>2015-04-06T07:32:36.000Z</time>
      </trkpt>
      <trkpt lat="47.49137" lon="6.76519">
        <ele>315</ele>
        <time>2015-04-06T07:32:37.000Z</time>
      </trkpt>
      <trkpt lat="47.49132" lon="6.7652">
        <ele>316</ele>
        <time>2015-04-06T07:32:38.000Z</time>
      </trkpt>
      <trkpt lat="47.49128" lon="6.76521">
        <ele>316</ele>
        <time>2015-04-06T07:32:39.000Z</time>
      </trkpt>
      <trkpt lat="47.49125" lon="6.76521">
        <ele>316</ele>
        <time>2015-04-06T07:32:40.000Z</time>
      </trkpt>
      <trkpt lat="47.49121" lon="6.76524">
        <ele>316</ele>
        <time>2015-04-06T07:32:44.000Z</time>
      </trkpt>
      <trkpt lat="47.4912" lon="6.76525">
        <ele>316</ele>
        <time>2015-04-06T07:32:45.000Z</time>
      </trkpt>
      <trkpt lat="47.4912" lon="6.76529">
        <ele>316</ele>
        <time>2015-04-06T07:32:47.000Z</time>
      </trkpt>
      <trkpt lat="47.4912" lon="6.76532">
        <ele>316</ele>
        <time>2015-04-06T07:32:48.000Z</time>
      </trkpt>
      <trkpt lat="47.49121" lon="6.76538">
        <ele>316</ele>
        <time>2015-04-06T07:32:50.000Z</time>
      </trkpt>
      <trkpt lat="47.49121" lon="6.76544">
        <ele>316</ele>
        <time>2015-04-06T07:32:52.000Z</time>
      </trkpt>
      <trkpt lat="47.49122" lon="6.76547">
        <ele>316</ele>
        <time>2015-04-06T07:32:53.000Z</time>
      </trkpt>
      <trkpt lat="47.49122" lon="6.76551">
        <ele>316</ele>
        <time>2015-04-06T07:32:54.000Z</time>
      </trkpt>
      <trkpt lat="47.49123" lon="6.76555">
        <ele>316</ele>
        <time>2015-04-06T07:32:55.000Z</time>
      </trkpt>
      <trkpt lat="47.49124" lon="6.7656">
        <ele>316</ele>
        <time>2015-04-06T07:32:56.000Z</time>
      </trkpt>
      <trkpt lat="47.49124" lon="6.76565">
        <ele>315</ele>
        <time>2015-04-06T07:32:57.000Z</time>
      </trkpt>
      <trkpt lat="47.49125" lon="6.76571">
        <ele>315</ele>
        <time>2015-04-06T07:32:58.000Z</time>
      </trkpt>
      <trkpt lat="47.49125" lon="6.76576">
        <ele>315</ele>
        <time>2015-04-06T07:32:59.000Z</time>
      </trkpt>
      <trkpt lat="47.49126" lon="6.76581">
        <ele>315</ele>
        <time>2015-04-06T07:33:00.000Z</time>
      </trkpt>
      <trkpt lat="47.49127" lon="6.76586">
        <ele>314</ele>
        <time>2015-04-06T07:33:01.000Z</time>
      </trkpt>
      <trkpt lat="47.49128" lon="6.76592">
        <ele>314</ele>
        <time>2015-04-06T07:33:02.000Z</time>
      </trkpt>
      <trkpt lat="47.49129" lon="6.76598">
        <ele>314</ele>
        <time>2015-04-06T07:33:03.000Z</time>
      </trkpt>
      <trkpt lat="47.4913" lon="6.76603">
        <ele>314</ele>
        <time>2015-04-06T07:33:04.000Z</time>
      </trkpt>
      <trkpt lat="47.49131" lon="6.76609">
        <ele>314</ele>
        <time>2015-04-06T07:33:05.000Z</time>
      </trkpt>
      <trkpt lat="47.49132" lon="6.76615">
        <ele>314</ele>
        <time>2015-04-06T07:33:06.000Z</time>
      </trkpt>
      <trkpt lat="47.49133" lon="6.76621">
        <ele>314</ele>
        <time>2015-04-06T07:33:07.000Z</time>
      </trkpt>
      <trkpt lat="47.49134" lon="6.76626">
        <ele>314</ele>
        <time>2015-04-06T07:33:07.999Z</time>
      </trkpt>
      <trkpt lat="47.49136" lon="6.76633">
        <ele>314</ele>
        <time>2015-04-06T07:33:09.000Z</time>
      </trkpt>
      <trkpt lat="47.49137" lon="6.76639">
        <ele>314</ele>
        <time>2015-04-06T07:33:10.000Z</time>
      </trkpt>
      <trkpt lat="47.49138" lon="6.76644">
        <ele>314</ele>
        <time>2015-04-06T07:33:11.000Z</time>
      </trkpt>
      <trkpt lat="47.49139" lon="6.7665">
        <ele>314</ele>
        <time>2015-04-06T07:33:12.000Z</time>
      </trkpt>
      <trkpt lat="47.49141" lon="6.76655">
        <ele>314</ele>
        <time>2015-04-06T07:33:13.000Z</time>
      </trkpt>
      <trkpt lat="47.49142" lon="6.76661">
        <ele>314</ele>
        <time>2015-04-06T07:33:14.000Z</time>
      </trkpt>
      <trkpt lat="47.49144" lon="6.76667">
        <ele>314</ele>
        <time>2015-04-06T07:33:15.000Z</time>
      </trkpt>
      <trkpt lat="47.49145" lon="6.76672">
        <ele>314</ele>
        <time>2015-04-06T07:33:15.999Z</time>
      </trkpt>
      <trkpt lat="47.49146" lon="6.7668">
        <ele>314</ele>
        <time>2015-04-06T07:33:17.000Z</time>
      </trkpt>
      <trkpt lat="47.49146" lon="6.76687">
        <ele>314</ele>
        <time>2015-04-06T07:33:18.000Z</time>
      </trkpt>
      <trkpt lat="47.49147" lon="6.76694">
        <ele>313</ele>
        <time>2015-04-06T07:33:19.000Z</time>
      </trkpt>
      <trkpt lat="47.49147" lon="6.76701">
        <ele>313</ele>
        <time>2015-04-06T07:33:20.000Z</time>
      </trkpt>
      <trkpt lat="47.49146" lon="6.76707">
        <ele>313</ele>
        <time>2015-04-06T07:33:21.000Z</time>
      </trkpt>
      <trkpt lat="47.49147" lon="6.76714">
        <ele>313</ele>
        <time>2015-04-06T07:33:22.000Z</time>
      </trkpt>
      <trkpt lat="47.49147" lon="6.7672">
        <ele>313</ele>
        <time>2015-04-06T07:33:22.999Z</time>
      </trkpt>
      <trkpt lat="47.49148" lon="6.76726">
        <ele>313</ele>
        <time>2015-04-06T07:33:24.000Z</time>
      </trkpt>
      <trkpt lat="47.49148" lon="6.76731">
        <ele>313</ele>
        <time>2015-04-06T07:33:25.000Z</time>
      </trkpt>
      <trkpt lat="47.49149" lon="6.76737">
        <ele>313</ele>
        <time>2015-04-06T07:33:26.000Z</time>
      </trkpt>
      <trkpt lat="47.49149" lon="6.76743">
        <ele>313</ele>
        <time>2015-04-06T07:33:27.000Z</time>
      </trkpt>
      <trkpt lat="47.4915" lon="6.76748">
        <ele>313</ele>
        <time>2015-04-06T07:33:28.000Z</time>
      </trkpt>
      <trkpt lat="47.49151" lon="6.76755">
        <ele>313</ele>
        <time>2015-04-06T07:33:29.000Z</time>
      </trkpt>
      <trkpt lat="47.49151" lon="6.76761">
        <ele>313</ele>
        <time>2015-04-06T07:33:30.000Z</time>
      </trkpt>
      <trkpt lat="47.49152" lon="6.76767">
        <ele>313</ele>
        <time>2015-04-06T07:33:31.000Z</time>
      </trkpt>
      <trkpt lat="47.49153" lon="6.76773">
        <ele>313</ele>
        <time>2015-04-06T07:33:32.000Z</time>
      </trkpt>
      <trkpt lat="47.49154" lon="6.7678">
        <ele>313</ele>
        <time>2015-04-06T07:33:33.000Z</time>
      </trkpt>
      <trkpt lat="47.49155" lon="6.76787">
        <ele>312</ele>
        <time>2015-04-06T07:33:34.000Z</time>
      </trkpt>
      <trkpt lat="47.49155" lon="6.76793">
        <ele>312</ele>
        <time>2015-04-06T07:33:35.000Z</time>
      </trkpt>
      <trkpt lat="47.49156" lon="6.76802">
        <ele>313</ele>
        <time>2015-04-06T07:33:36.000Z</time>
      </trkpt>
      <trkpt lat="47.49155" lon="6.76809">
        <ele>313</ele>
        <time>2015-04-06T07:33:37.000Z</time>
      </trkpt>
      <trkpt lat="47.49156" lon="6.76815">
        <ele>313</ele>
        <time>2015-04-06T07:33:38.000Z</time>
      </trkpt>
      <trkpt lat="47.49153" lon="6.76822">
        <ele>313</ele>
        <time>2015-04-06T07:33:39.000Z</time>
      </trkpt>
      <trkpt lat="47.49155" lon="6.76831">
        <ele>313</ele>
        <time>2015-04-06T07:33:40.000Z</time>
      </trkpt>
      <trkpt lat="47.49156" lon="6.76842">
        <ele>313</ele>
        <time>2015-04-06T07:33:41.000Z</time>
      </trkpt>
      <trkpt lat="47.49157" lon="6.76851">
        <ele>312</ele>
        <time>2015-04-06T07:33:42.000Z</time>
      </trkpt>
      <trkpt lat="47.49154" lon="6.76855">
        <ele>312</ele>
        <time>2015-04-06T07:33:43.000Z</time>
      </trkpt>
      <trkpt lat="47.49155" lon="6.76864">
        <ele>312</ele>
        <time>2015-04-06T07:33:44.000Z</time>
      </trkpt>
      <trkpt lat="47.49156" lon="6.76871">
        <ele>312</ele>
        <time>2015-04-06T07:33:45.000Z</time>
      </trkpt>
      <trkpt lat="47.49156" lon="6.76878">
        <ele>312</ele>
        <time>2015-04-06T07:33:46.000Z</time>
      </trkpt>
      <trkpt lat="47.49154" lon="6.76886">
        <ele>312</ele>
        <time>2015-04-06T07:33:47.000Z</time>
      </trkpt>
      <trkpt lat="47.49152" lon="6.76894">
        <ele>312</ele>
        <time>2015-04-06T07:33:48.000Z</time>
      </trkpt>
      <trkpt lat="47.49152" lon="6.76899">
        <ele>312</ele>
        <time>2015-04-06T07:33:49.000Z</time>
      </trkpt>
      <trkpt lat="47.49152" lon="6.76906">
        <ele>312</ele>
        <time>2015-04-06T07:33:50.000Z</time>
      </trkpt>
      <trkpt lat="47.49152" lon="6.76912">
        <ele>313</ele>
        <time>2015-04-06T07:33:51.000Z</time>
      </trkpt>
      <trkpt lat="47.49153" lon="6.76918">
        <ele>312</ele>
        <time>2015-04-06T07:33:52.000Z</time>
      </trkpt>
      <trkpt lat="47.49153" lon="6.76923">
        <ele>312</ele>
        <time>2015-04-06T07:33:53.000Z</time>
      </trkpt>
      <trkpt lat="47.49154" lon="6.7693">
        <ele>312</ele>
        <time>2015-04-06T07:33:54.000Z</time>
      </trkpt>
      <trkpt lat="47.49157" lon="6.76928">
        <ele>312</ele>
        <time>2015-04-06T07:33:55.000Z</time>
      </trkpt>
      <trkpt lat="47.49159" lon="6.7693">
        <ele>312</ele>
        <time>2015-04-06T07:33:56.000Z</time>
      </trkpt>
      <trkpt lat="47.4916" lon="6.76934">
        <ele>312</ele>
        <time>2015-04-06T07:33:57.000Z</time>
      </trkpt>
      <trkpt lat="47.49159" lon="6.76939">
        <ele>312</ele>
        <time>2015-04-06T07:33:58.000Z</time>
      </trkpt>
      <trkpt lat="47.49158" lon="6.7695">
        <ele>312</ele>
        <time>2015-04-06T07:33:59.000Z</time>
      </trkpt>
      <trkpt lat="47.49157" lon="6.76955">
        <ele>312</ele>
        <time>2015-04-06T07:34:00.000Z</time>
      </trkpt>
      <trkpt lat="47.49156" lon="6.76961">
        <ele>312</ele>
        <time>2015-04-06T07:34:01.000Z</time>
      </trkpt>
      <trkpt lat="47.49157" lon="6.76965">
        <ele>312</ele>
        <time>2015-04-06T07:34:02.000Z</time>
      </trkpt>
      <trkpt lat="47.49158" lon="6.7697">
        <ele>312</ele>
        <time>2015-04-06T07:34:03.000Z</time>
      </trkpt>
      <trkpt lat="47.4916" lon="6.76978">
        <ele>312</ele>
        <time>2015-04-06T07:34:04.000Z</time>
      </trkpt>
      <trkpt lat="47.49163" lon="6.76986">
        <ele>312</ele>
        <time>2015-04-06T07:34:05.000Z</time>
      </trkpt>
      <trkpt lat="47.49165" lon="6.76993">
        <ele>312</ele>
        <time>2015-04-06T07:34:06.000Z</time>
      </trkpt>
      <trkpt lat="47.49168" lon="6.76999">
        <ele>312</ele>
        <time>2015-04-06T07:34:07.000Z</time>
      </trkpt>
      <trkpt lat="47.49168" lon="6.77007">
        <ele>312</ele>
        <time>2015-04-06T07:34:08.000Z</time>
      </trkpt>
      <trkpt lat="47.4917" lon="6.77014">
        <ele>313</ele>
        <time>2015-04-06T07:34:09.000Z</time>
      </trkpt>
      <trkpt lat="47.49171" lon="6.77023">
        <ele>313</ele>
        <time>2015-04-06T07:34:10.000Z</time>
      </trkpt>
      <trkpt lat="47.49171" lon="6.77032">
        <ele>313</ele>
        <time>2015-04-06T07:34:11.000Z</time>
      </trkpt>
      <trkpt lat="47.49173" lon="6.77039">
        <ele>313</ele>
        <time>2015-04-06T07:34:12.000Z</time>
      </trkpt>
      <trkpt lat="47.49173" lon="6.77046">
        <ele>313</ele>
        <time>2015-04-06T07:34:13.000Z</time>
      </trkpt>
      <trkpt lat="47.49174" lon="6.77053">
        <ele>313</ele>
        <time>2015-04-06T07:34:14.000Z</time>
      </trkpt>
      <trkpt lat="47.49173" lon="6.77059">
        <ele>313</ele>
        <time>2015-04-06T07:34:15.000Z</time>
      </trkpt>
      <trkpt lat="47.49174" lon="6.77066">
        <ele>313</ele>
        <time>2015-04-06T07:34:16.000Z</time>
      </trkpt>
      <trkpt lat="47.49175" lon="6.77073">
        <ele>312</ele>
        <time>2015-04-06T07:34:17.000Z</time>
      </trkpt>
      <trkpt lat="47.49176" lon="6.77079">
        <ele>312</ele>
        <time>2015-04-06T07:34:18.000Z</time>
      </trkpt>
      <trkpt lat="47.49177" lon="6.77086">
        <ele>312</ele>
        <time>2015-04-06T07:34:19.000Z</time>
      </trkpt>
      <trkpt lat="47.49178" lon="6.77092">
        <ele>312</ele>
        <time>2015-04-06T07:34:19.999Z</time>
      </trkpt>
      <trkpt lat="47.49179" lon="6.77097">
        <ele>312</ele>
        <time>2015-04-06T07:34:21.000Z</time>
      </trkpt>
      <trkpt lat="47.4918" lon="6.77103">
        <ele>312</ele>
        <time>2015-04-06T07:34:22.000Z</time>
      </trkpt>
      <trkpt lat="47.49181" lon="6.77107">
        <ele>313</ele>
        <time>2015-04-06T07:34:23.000Z</time>
      </trkpt>
      <trkpt lat="47.49182" lon="6.77112">
        <ele>313</ele>
        <time>2015-04-06T07:34:24.000Z</time>
      </trkpt>
      <trkpt lat="47.49182" lon="6.77117">
        <ele>313</ele>
        <time>2015-04-06T07:34:25.000Z</time>
      </trkpt>
      <trkpt lat="47.49182" lon="6.77123">
        <ele>313</ele>
        <time>2015-04-06T07:34:26.999Z</time>
      </trkpt>
      <trkpt lat="47.49182" lon="6.77126">
        <ele>313</ele>
        <time>2015-04-06T07:34:28.000Z</time>
      </trkpt>
      <trkpt lat="47.49183" lon="6.77131">
        <ele>313</ele>
        <time>2015-04-06T07:34:30.000Z</time>
      </trkpt>
      <trkpt lat="47.49184" lon="6.77135">
        <ele>313</ele>
        <time>2015-04-06T07:34:31.000Z</time>
      </trkpt>
      <trkpt lat="47.49184" lon="6.7714">
        <ele>313</ele>
        <time>2015-04-06T07:34:32.000Z</time>
      </trkpt>
      <trkpt lat="47.49184" lon="6.77146">
        <ele>313</ele>
        <time>2015-04-06T07:34:33.000Z</time>
      </trkpt>
      <trkpt lat="47.49185" lon="6.77152">
        <ele>313</ele>
        <time>2015-04-06T07:34:34.000Z</time>
      </trkpt>
      <trkpt lat="47.49186" lon="6.77158">
        <ele>313</ele>
        <time>2015-04-06T07:34:35.000Z</time>
      </trkpt>
      <trkpt lat="47.49187" lon="6.77165">
        <ele>313</ele>
        <time>2015-04-06T07:34:36.000Z</time>
      </trkpt>
      <trkpt lat="47.49188" lon="6.77171">
        <ele>313</ele>
        <time>2015-04-06T07:34:37.000Z</time>
      </trkpt>
      <trkpt lat="47.49189" lon="6.77177">
        <ele>313</ele>
        <time>2015-04-06T07:34:38.000Z</time>
      </trkpt>
      <trkpt lat="47.49188" lon="6.77188">
        <ele>312</ele>
        <time>2015-04-06T07:34:39.000Z</time>
      </trkpt>
      <trkpt lat="47.49188" lon="6.77193">
        <ele>312</ele>
        <time>2015-04-06T07:34:40.000Z</time>
      </trkpt>
      <trkpt lat="47.49188" lon="6.772">
        <ele>312</ele>
        <time>2015-04-06T07:34:41.000Z</time>
      </trkpt>
      <trkpt lat="47.49188" lon="6.77206">
        <ele>312</ele>
        <time>2015-04-06T07:34:42.000Z</time>
      </trkpt>
      <trkpt lat="47.49188" lon="6.77212">
        <ele>312</ele>
        <time>2015-04-06T07:34:43.000Z</time>
      </trkpt>
      <trkpt lat="47.49189" lon="6.77217">
        <ele>312</ele>
        <time>2015-04-06T07:34:44.000Z</time>
      </trkpt>
      <trkpt lat="47.49189" lon="6.77222">
        <ele>312</ele>
        <time>2015-04-06T07:34:45.000Z</time>
      </trkpt>
      <trkpt lat="47.49191" lon="6.77227">
        <ele>312</ele>
        <time>2015-04-06T07:34:46.000Z</time>
      </trkpt>
      <trkpt lat="47.49192" lon="6.77233">
        <ele>312</ele>
        <time>2015-04-06T07:34:47.000Z</time>
      </trkpt>
      <trkpt lat="47.49192" lon="6.77239">
        <ele>312</ele>
        <time>2015-04-06T07:34:48.000Z</time>
      </trkpt>
      <trkpt lat="47.49191" lon="6.77248">
        <ele>312</ele>
        <time>2015-04-06T07:34:49.000Z</time>
      </trkpt>
      <trkpt lat="47.49191" lon="6.77255">
        <ele>311</ele>
        <time>2015-04-06T07:34:50.000Z</time>
      </trkpt>
      <trkpt lat="47.49189" lon="6.77271">
        <ele>311</ele>
        <time>2015-04-06T07:34:52.000Z</time>
      </trkpt>
      <trkpt lat="47.49188" lon="6.77279">
        <ele>311</ele>
        <time>2015-04-06T07:34:53.000Z</time>
      </trkpt>
      <trkpt lat="47.49187" lon="6.77289">
        <ele>311</ele>
        <time>2015-04-06T07:34:54.000Z</time>
      </trkpt>
      <trkpt lat="47.49187" lon="6.77298">
        <ele>311</ele>
        <time>2015-04-06T07:34:55.000Z</time>
      </trkpt>
      <trkpt lat="47.49188" lon="6.77304">
        <ele>311</ele>
        <time>2015-04-06T07:34:56.000Z</time>
      </trkpt>
      <trkpt lat="47.49187" lon="6.77312">
        <ele>311</ele>
        <time>2015-04-06T07:34:57.000Z</time>
      </trkpt>
      <trkpt lat="47.49189" lon="6.77318">
        <ele>311</ele>
        <time>2015-04-06T07:34:58.000Z</time>
      </trkpt>
      <trkpt lat="47.49191" lon="6.7732">
        <ele>310</ele>
        <time>2015-04-06T07:34:59.000Z</time>
      </trkpt>
      <trkpt lat="47.49194" lon="6.77324">
        <ele>310</ele>
        <time>2015-04-06T07:35:00.000Z</time>
      </trkpt>
      <trkpt lat="47.49197" lon="6.77327">
        <ele>310</ele>
        <time>2015-04-06T07:35:01.000Z</time>
      </trkpt>
      <trkpt lat="47.49202" lon="6.77329">
        <ele>310</ele>
        <time>2015-04-06T07:35:02.000Z</time>
      </trkpt>
      <trkpt lat="47.49205" lon="6.77331">
        <ele>310</ele>
        <time>2015-04-06T07:35:03.000Z</time>
      </trkpt>
      <trkpt lat="47.4921" lon="6.77331">
        <ele>310</ele>
        <time>2015-04-06T07:35:04.000Z</time>
      </trkpt>
      <trkpt lat="47.49214" lon="6.77332">
        <ele>310</ele>
        <time>2015-04-06T07:35:05.000Z</time>
      </trkpt>
      <trkpt lat="47.49219" lon="6.77333">
        <ele>309</ele>
        <time>2015-04-06T07:35:06.000Z</time>
      </trkpt>
      <trkpt lat="47.49224" lon="6.77335">
        <ele>309</ele>
        <time>2015-04-06T07:35:07.000Z</time>
      </trkpt>
      <trkpt lat="47.49228" lon="6.77334">
        <ele>309</ele>
        <time>2015-04-06T07:35:08.000Z</time>
      </trkpt>
      <trkpt lat="47.49233" lon="6.77335">
        <ele>310</ele>
        <time>2015-04-06T07:35:09.000Z</time>
      </trkpt>
      <trkpt lat="47.49238" lon="6.77335">
        <ele>310</ele>
        <time>2015-04-06T07:35:10.000Z</time>
      </trkpt>
      <trkpt lat="47.49243" lon="6.77335">
        <ele>310</ele>
        <time>2015-04-06T07:35:11.000Z</time>
      </trkpt>
      <trkpt lat="47.49247" lon="6.77335">
        <ele>310</ele>
        <time>2015-04-06T07:35:12.000Z</time>
      </trkpt>
      <trkpt lat="47.49251" lon="6.77332">
        <ele>310</ele>
        <time>2015-04-06T07:35:13.000Z</time>
      </trkpt>
      <trkpt lat="47.49254" lon="6.7733">
        <ele>310</ele>
        <time>2015-04-06T07:35:14.000Z</time>
      </trkpt>
      <trkpt lat="47.49256" lon="6.77326">
        <ele>310</ele>
        <time>2015-04-06T07:35:15.000Z</time>
      </trkpt>
      <trkpt lat="47.49263" lon="6.77323">
        <ele>310</ele>
        <time>2015-04-06T07:35:16.000Z</time>
      </trkpt>
      <trkpt lat="47.49267" lon="6.77322">
        <ele>310</ele>
        <time>2015-04-06T07:35:17.000Z</time>
      </trkpt>
      <trkpt lat="47.49273" lon="6.77322">
        <ele>310</ele>
        <time>2015-04-06T07:35:18.000Z</time>
      </trkpt>
      <trkpt lat="47.49279" lon="6.77322">
        <ele>310</ele>
        <time>2015-04-06T07:35:19.000Z</time>
      </trkpt>
      <trkpt lat="47.49285" lon="6.77324">
        <ele>310</ele>
        <time>2015-04-06T07:35:20.000Z</time>
      </trkpt>
      <trkpt lat="47.4929" lon="6.77324">
        <ele>310</ele>
        <time>2015-04-06T07:35:21.000Z</time>
      </trkpt>
      <trkpt lat="47.49296" lon="6.77326">
        <ele>310</ele>
        <time>2015-04-06T07:35:22.000Z</time>
      </trkpt>
      <trkpt lat="47.49305" lon="6.77326">
        <ele>310</ele>
        <time>2015-04-06T07:35:23.000Z</time>
      </trkpt>
      <trkpt lat="47.49311" lon="6.77326">
        <ele>310</ele>
        <time>2015-04-06T07:35:24.000Z</time>
      </trkpt>
      <trkpt lat="47.49316" lon="6.77325">
        <ele>310</ele>
        <time>2015-04-06T07:35:25.000Z</time>
      </trkpt>
      <trkpt lat="47.49323" lon="6.77327">
        <ele>310</ele>
        <time>2015-04-06T07:35:26.000Z</time>
      </trkpt>
      <trkpt lat="47.49328" lon="6.77329">
        <ele>310</ele>
        <time>2015-04-06T07:35:27.000Z</time>
      </trkpt>
      <trkpt lat="47.49333" lon="6.7733">
        <ele>310</ele>
        <time>2015-04-06T07:35:28.000Z</time>
      </trkpt>
      <trkpt lat="47.49338" lon="6.77334">
        <ele>310</ele>
        <time>2015-04-06T07:35:29.000Z</time>
      </trkpt>
      <trkpt lat="47.49341" lon="6.77338">
        <ele>310</ele>
        <time>2015-04-06T07:35:30.000Z</time>
      </trkpt>
      <trkpt lat="47.49345" lon="6.77341">
        <ele>310</ele>
        <time>2015-04-06T07:35:31.000Z</time>
      </trkpt>
      <trkpt lat="47.49348" lon="6.77341">
        <ele>310</ele>
        <time>2015-04-06T07:35:32.000Z</time>
      </trkpt>
      <trkpt lat="47.49353" lon="6.77341">
        <ele>310</ele>
        <time>2015-04-06T07:35:33.000Z</time>
      </trkpt>
      <trkpt lat="47.49358" lon="6.77345">
        <ele>310</ele>
        <time>2015-04-06T07:35:34.000Z</time>
      </trkpt>
      <trkpt lat="47.49362" lon="6.77344">
        <ele>310</ele>
        <time>2015-04-06T07:35:35.000Z</time>
      </trkpt>
      <trkpt lat="47.49369" lon="6.77345">
        <ele>310</ele>
        <time>2015-04-06T07:35:36.000Z</time>
      </trkpt>
      <trkpt lat="47.49374" lon="6.77345">
        <ele>310</ele>
        <time>2015-04-06T07:35:37.000Z</time>
      </trkpt>
      <trkpt lat="47.4938" lon="6.77347">
        <ele>310</ele>
        <time>2015-04-06T07:35:38.000Z</time>
      </trkpt>
      <trkpt lat="47.49384" lon="6.77347">
        <ele>310</ele>
        <time>2015-04-06T07:35:39.000Z</time>
      </trkpt>
      <trkpt lat="47.49389" lon="6.77347">
        <ele>310</ele>
        <time>2015-04-06T07:35:40.000Z</time>
      </trkpt>
      <trkpt lat="47.49395" lon="6.77349">
        <ele>310</ele>
        <time>2015-04-06T07:35:41.000Z</time>
      </trkpt>
      <trkpt lat="47.49401" lon="6.77353">
        <ele>310</ele>
        <time>2015-04-06T07:35:42.000Z</time>
      </trkpt>
      <trkpt lat="47.49406" lon="6.77352">
        <ele>310</ele>
        <time>2015-04-06T07:35:43.000Z</time>
      </trkpt>
      <trkpt lat="47.49411" lon="6.7735">
        <ele>311</ele>
        <time>2015-04-06T07:35:44.000Z</time>
      </trkpt>
      <trkpt lat="47.49417" lon="6.77352">
        <ele>311</ele>
        <time>2015-04-06T07:35:45.000Z</time>
      </trkpt>
      <trkpt lat="47.49421" lon="6.77351">
        <ele>311</ele>
        <time>2015-04-06T07:35:46.000Z</time>
      </trkpt>
      <trkpt lat="47.49427" lon="6.77353">
        <ele>311</ele>
        <time>2015-04-06T07:35:47.000Z</time>
      </trkpt>
      <trkpt lat="47.49433" lon="6.77353">
        <ele>311</ele>
        <time>2015-04-06T07:35:48.000Z</time>
      </trkpt>
      <trkpt lat="47.49439" lon="6.77354">
        <ele>311</ele>
        <time>2015-04-06T07:35:49.000Z</time>
      </trkpt>
      <trkpt lat="47.49445" lon="6.77355">
        <ele>311</ele>
        <time>2015-04-06T07:35:50.000Z</time>
      </trkpt>
      <trkpt lat="47.49456" lon="6.77355">
        <ele>311</ele>
        <time>2015-04-06T07:35:52.000Z</time>
      </trkpt>
      <trkpt lat="47.49461" lon="6.77354">
        <ele>311</ele>
        <time>2015-04-06T07:35:53.000Z</time>
      </trkpt>
      <trkpt lat="47.49466" lon="6.77354">
        <ele>311</ele>
        <time>2015-04-06T07:35:54.000Z</time>
      </trkpt>
      <trkpt lat="47.49471" lon="6.77354">
        <ele>311</ele>
        <time>2015-04-06T07:35:55.000Z</time>
      </trkpt>
      <trkpt lat="47.49476" lon="6.77354">
        <ele>311</ele>
        <time>2015-04-06T07:35:56.000Z</time>
      </trkpt>
      <trkpt lat="47.49481" lon="6.77353">
        <ele>311</ele>
        <time>2015-04-06T07:35:57.000Z</time>
      </trkpt>
      <trkpt lat="47.49486" lon="6.77353">
        <ele>312</ele>
        <time>2015-04-06T07:35:58.000Z</time>
      </trkpt>
      <trkpt lat="47.49491" lon="6.77354">
        <ele>312</ele>
        <time>2015-04-06T07:35:59.000Z</time>
      </trkpt>
      <trkpt lat="47.49497" lon="6.77354">
        <ele>312</ele>
        <time>2015-04-06T07:36:00.000Z</time>
      </trkpt>
      <trkpt lat="47.49502" lon="6.77355">
        <ele>312</ele>
        <time>2015-04-06T07:36:01.000Z</time>
      </trkpt>
      <trkpt lat="47.49508" lon="6.77356">
        <ele>312</ele>
        <time>2015-04-06T07:36:02.000Z</time>
      </trkpt>
      <trkpt lat="47.49513" lon="6.77357">
        <ele>312</ele>
        <time>2015-04-06T07:36:03.000Z</time>
      </trkpt>
      <trkpt lat="47.49517" lon="6.77359">
        <ele>312</ele>
        <time>2015-04-06T07:36:04.000Z</time>
      </trkpt>
      <trkpt lat="47.49523" lon="6.77359">
        <ele>312</ele>
        <time>2015-04-06T07:36:05.000Z</time>
      </trkpt>
      <trkpt lat="47.49528" lon="6.77359">
        <ele>312</ele>
        <time>2015-04-06T07:36:06.000Z</time>
      </trkpt>
      <trkpt lat="47.49533" lon="6.7736">
        <ele>312</ele>
        <time>2015-04-06T07:36:07.000Z</time>
      </trkpt>
      <trkpt lat="47.49538" lon="6.77361">
        <ele>312</ele>
        <time>2015-04-06T07:36:08.000Z</time>
      </trkpt>
      <trkpt lat="47.49544" lon="6.77362">
        <ele>312</ele>
        <time>2015-04-06T07:36:09.000Z</time>
      </trkpt>
      <trkpt lat="47.49549" lon="6.77362">
        <ele>312</ele>
        <time>2015-04-06T07:36:10.000Z</time>
      </trkpt>
      <trkpt lat="47.49554" lon="6.77362">
        <ele>312</ele>
        <time>2015-04-06T07:36:11.000Z</time>
      </trkpt>
      <trkpt lat="47.49559" lon="6.77362">
        <ele>312</ele>
        <time>2015-04-06T07:36:12.000Z</time>
      </trkpt>
      <trkpt lat="47.49564" lon="6.77361">
        <ele>312</ele>
        <time>2015-04-06T07:36:13.000Z</time>
      </trkpt>
      <trkpt lat="47.4957" lon="6.77362">
        <ele>313</ele>
        <time>2015-04-06T07:36:14.000Z</time>
      </trkpt>
      <trkpt lat="47.49575" lon="6.77362">
        <ele>313</ele>
        <time>2015-04-06T07:36:15.000Z</time>
      </trkpt>
      <trkpt lat="47.4958" lon="6.77362">
        <ele>313</ele>
        <time>2015-04-06T07:36:16.000Z</time>
      </trkpt>
      <trkpt lat="47.49585" lon="6.77362">
        <ele>313</ele>
        <time>2015-04-06T07:36:17.000Z</time>
      </trkpt>
      <trkpt lat="47.49591" lon="6.7736">
        <ele>313</ele>
        <time>2015-04-06T07:36:18.000Z</time>
      </trkpt>
      <trkpt lat="47.49596" lon="6.77361">
        <ele>313</ele>
        <time>2015-04-06T07:36:19.000Z</time>
      </trkpt>
      <trkpt lat="47.49601" lon="6.77359">
        <ele>313</ele>
        <time>2015-04-06T07:36:20.000Z</time>
      </trkpt>
      <trkpt lat="47.49607" lon="6.77358">
        <ele>313</ele>
        <time>2015-04-06T07:36:21.000Z</time>
      </trkpt>
      <trkpt lat="47.49613" lon="6.77357">
        <ele>313</ele>
        <time>2015-04-06T07:36:22.000Z</time>
      </trkpt>
      <trkpt lat="47.49618" lon="6.77355">
        <ele>313</ele>
        <time>2015-04-06T07:36:23.000Z</time>
      </trkpt>
      <trkpt lat="47.49624" lon="6.77355">
        <ele>313</ele>
        <time>2015-04-06T07:36:24.000Z</time>
      </trkpt>
      <trkpt lat="47.4963" lon="6.77353">
        <ele>313</ele>
        <time>2015-04-06T07:36:25.000Z</time>
      </trkpt>
      <trkpt lat="47.49635" lon="6.77351">
        <ele>313</ele>
        <time>2015-04-06T07:36:26.000Z</time>
      </trkpt>
      <trkpt lat="47.49641" lon="6.7735">
        <ele>313</ele>
        <time>2015-04-06T07:36:27.000Z</time>
      </trkpt>
      <trkpt lat="47.49645" lon="6.77349">
        <ele>313</ele>
        <time>2015-04-06T07:36:28.000Z</time>
      </trkpt>
      <trkpt lat="47.49651" lon="6.77347">
        <ele>313</ele>
        <time>2015-04-06T07:36:29.000Z</time>
      </trkpt>
      <trkpt lat="47.49657" lon="6.77346">
        <ele>313</ele>
        <time>2015-04-06T07:36:30.000Z</time>
      </trkpt>
      <trkpt lat="47.49661" lon="6.77346">
        <ele>313</ele>
        <time>2015-04-06T07:36:31.000Z</time>
      </trkpt>
      <trkpt lat="47.49666" lon="6.77346">
        <ele>313</ele>
        <time>2015-04-06T07:36:32.000Z</time>
      </trkpt>
      <trkpt lat="47.49669" lon="6.77342">
        <ele>313</ele>
        <time>2015-04-06T07:36:34.000Z</time>
      </trkpt>
      <trkpt lat="47.49675" lon="6.7734">
        <ele>313</ele>
        <time>2015-04-06T07:36:35.000Z</time>
      </trkpt>
      <trkpt lat="47.4968" lon="6.77338">
        <ele>313</ele>
        <time>2015-04-06T07:36:36.000Z</time>
      </trkpt>
      <trkpt lat="47.49685" lon="6.77335">
        <ele>313</ele>
        <time>2015-04-06T07:36:37.000Z</time>
      </trkpt>
      <trkpt lat="47.49691" lon="6.77334">
        <ele>313</ele>
        <time>2015-04-06T07:36:38.000Z</time>
      </trkpt>
      <trkpt lat="47.49696" lon="6.77332">
        <ele>315</ele>
        <time>2015-04-06T07:36:39.000Z</time>
      </trkpt>
      <trkpt lat="47.49703" lon="6.77331">
        <ele>315</ele>
        <time>2015-04-06T07:36:40.000Z</time>
      </trkpt>
      <trkpt lat="47.4971" lon="6.77331">
        <ele>315</ele>
        <time>2015-04-06T07:36:41.000Z</time>
      </trkpt>
      <trkpt lat="47.49716" lon="6.77328">
        <ele>315</ele>
        <time>2015-04-06T07:36:42.000Z</time>
      </trkpt>
      <trkpt lat="47.49721" lon="6.77325">
        <ele>315</ele>
        <time>2015-04-06T07:36:43.000Z</time>
      </trkpt>
      <trkpt lat="47.49726" lon="6.77324">
        <ele>314</ele>
        <time>2015-04-06T07:36:44.000Z</time>
      </trkpt>
      <trkpt lat="47.49732" lon="6.77322">
        <ele>314</ele>
        <time>2015-04-06T07:36:45.000Z</time>
      </trkpt>
      <trkpt lat="47.49738" lon="6.77319">
        <ele>314</ele>
        <time>2015-04-06T07:36:46.000Z</time>
      </trkpt>
      <trkpt lat="47.49743" lon="6.77317">
        <ele>314</ele>
        <time>2015-04-06T07:36:47.000Z</time>
      </trkpt>
      <trkpt lat="47.49748" lon="6.77313">
        <ele>314</ele>
        <time>2015-04-06T07:36:48.000Z</time>
      </trkpt>
      <trkpt lat="47.49753" lon="6.77312">
        <ele>316</ele>
        <time>2015-04-06T07:36:49.000Z</time>
      </trkpt>
      <trkpt lat="47.49757" lon="6.77309">
        <ele>316</ele>
        <time>2015-04-06T07:36:50.000Z</time>
      </trkpt>
      <trkpt lat="47.49766" lon="6.77305">
        <ele>316</ele>
        <time>2015-04-06T07:36:52.000Z</time>
      </trkpt>
      <trkpt lat="47.49773" lon="6.77305">
        <ele>317</ele>
        <time>2015-04-06T07:36:53.000Z</time>
      </trkpt>
      <trkpt lat="47.49778" lon="6.77305">
        <ele>317</ele>
        <time>2015-04-06T07:36:54.000Z</time>
      </trkpt>
      <trkpt lat="47.49783" lon="6.77306">
        <ele>317</ele>
        <time>2015-04-06T07:36:55.000Z</time>
      </trkpt>
      <trkpt lat="47.49792" lon="6.77307">
        <ele>317</ele>
        <time>2015-04-06T07:36:56.000Z</time>
      </trkpt>
      <trkpt lat="47.49798" lon="6.77307">
        <ele>317</ele>
        <time>2015-04-06T07:36:57.000Z</time>
      </trkpt>
      <trkpt lat="47.49805" lon="6.77307">
        <ele>317</ele>
        <time>2015-04-06T07:36:58.000Z</time>
      </trkpt>
      <trkpt lat="47.4981" lon="6.77306">
        <ele>317</ele>
        <time>2015-04-06T07:36:59.000Z</time>
      </trkpt>
      <trkpt lat="47.49816" lon="6.77306">
        <ele>317</ele>
        <time>2015-04-06T07:37:00.000Z</time>
      </trkpt>
      <trkpt lat="47.49819" lon="6.77303">
        <ele>317</ele>
        <time>2015-04-06T07:37:01.000Z</time>
      </trkpt>
      <trkpt lat="47.49824" lon="6.77304">
        <ele>317</ele>
        <time>2015-04-06T07:37:02.000Z</time>
      </trkpt>
      <trkpt lat="47.49829" lon="6.77304">
        <ele>317</ele>
        <time>2015-04-06T07:37:03.000Z</time>
      </trkpt>
      <trkpt lat="47.49832" lon="6.77301">
        <ele>318</ele>
        <time>2015-04-06T07:37:05.000Z</time>
      </trkpt>
      <trkpt lat="47.49843" lon="6.773">
        <ele>318</ele>
        <time>2015-04-06T07:37:06.000Z</time>
      </trkpt>
      <trkpt lat="47.49851" lon="6.773">
        <ele>318</ele>
        <time>2015-04-06T07:37:07.000Z</time>
      </trkpt>
      <trkpt lat="47.49854" lon="6.77299">
        <ele>318</ele>
        <time>2015-04-06T07:37:08.000Z</time>
      </trkpt>
      <trkpt lat="47.49857" lon="6.77299">
        <ele>318</ele>
        <time>2015-04-06T07:37:09.000Z</time>
      </trkpt>
      <trkpt lat="47.49861" lon="6.77299">
        <ele>319</ele>
        <time>2015-04-06T07:37:10.000Z</time>
      </trkpt>
      <trkpt lat="47.49865" lon="6.77298">
        <ele>319</ele>
        <time>2015-04-06T07:37:11.000Z</time>
      </trkpt>
      <trkpt lat="47.4987" lon="6.77297">
        <ele>319</ele>
        <time>2015-04-06T07:37:12.000Z</time>
      </trkpt>
      <trkpt lat="47.49873" lon="6.77296">
        <ele>319</ele>
        <time>2015-04-06T07:37:13.000Z</time>
      </trkpt>
      <trkpt lat="47.49876" lon="6.77292">
        <ele>319</ele>
        <time>2015-04-06T07:37:14.000Z</time>
      </trkpt>
      <trkpt lat="47.49883" lon="6.7729">
        <ele>319</ele>
        <time>2015-04-06T07:37:15.000Z</time>
      </trkpt>
      <trkpt lat="47.49887" lon="6.77291">
        <ele>319</ele>
        <time>2015-04-06T07:37:16.000Z</time>
      </trkpt>
      <trkpt lat="47.4989" lon="6.7729">
        <ele>319</ele>
        <time>2015-04-06T07:37:17.000Z</time>
      </trkpt>
      <trkpt lat="47.49898" lon="6.77287">
        <ele>319</ele>
        <time>2015-04-06T07:37:18.000Z</time>
      </trkpt>
      <trkpt lat="47.49903" lon="6.77284">
        <ele>320</ele>
        <time>2015-04-06T07:37:19.000Z</time>
      </trkpt>
      <trkpt lat="47.49906" lon="6.77283">
        <ele>320</ele>
        <time>2015-04-06T07:37:20.000Z</time>
      </trkpt>
      <trkpt lat="47.49911" lon="6.77281">
        <ele>320</ele>
        <time>2015-04-06T07:37:21.000Z</time>
      </trkpt>
      <trkpt lat="47.49915" lon="6.77278">
        <ele>320</ele>
        <time>2015-04-06T07:37:22.000Z</time>
      </trkpt>
      <trkpt lat="47.49923" lon="6.77274">
        <ele>319</ele>
        <time>2015-04-06T07:37:23.000Z</time>
      </trkpt>
      <trkpt lat="47.49928" lon="6.7727">
        <ele>319</ele>
        <time>2015-04-06T07:37:24.000Z</time>
      </trkpt>
      <trkpt lat="47.49933" lon="6.77265">
        <ele>319</ele>
        <time>2015-04-06T07:37:25.000Z</time>
      </trkpt>
      <trkpt lat="47.49939" lon="6.77262">
        <ele>319</ele>
        <time>2015-04-06T07:37:26.000Z</time>
      </trkpt>
      <trkpt lat="47.49945" lon="6.7726">
        <ele>318</ele>
        <time>2015-04-06T07:37:27.000Z</time>
      </trkpt>
      <trkpt lat="47.4995" lon="6.77256">
        <ele>318</ele>
        <time>2015-04-06T07:37:28.000Z</time>
      </trkpt>
      <trkpt lat="47.49956" lon="6.77253">
        <ele>318</ele>
        <time>2015-04-06T07:37:29.000Z</time>
      </trkpt>
      <trkpt lat="47.49964" lon="6.7725">
        <ele>329</ele>
        <time>2015-04-06T07:37:30.000Z</time>
      </trkpt>
      <trkpt lat="47.49968" lon="6.77248">
        <ele>328</ele>
        <time>2015-04-06T07:37:31.000Z</time>
      </trkpt>
      <trkpt lat="47.49973" lon="6.77245">
        <ele>327</ele>
        <time>2015-04-06T07:37:32.000Z</time>
      </trkpt>
      <trkpt lat="47.49979" lon="6.77244">
        <ele>326</ele>
        <time>2015-04-06T07:37:33.000Z</time>
      </trkpt>
      <trkpt lat="47.49982" lon="6.77243">
        <ele>326</ele>
        <time>2015-04-06T07:37:34.000Z</time>
      </trkpt>
      <trkpt lat="47.49986" lon="6.77242">
        <ele>325</ele>
        <time>2015-04-06T07:37:35.000Z</time>
      </trkpt>
      <trkpt lat="47.49993" lon="6.7724">
        <ele>323</ele>
        <time>2015-04-06T07:37:36.000Z</time>
      </trkpt>
      <trkpt lat="47.49996" lon="6.77237">
        <ele>324</ele>
        <time>2015-04-06T07:37:37.000Z</time>
      </trkpt>
      <trkpt lat="47.50001" lon="6.77235">
        <ele>323</ele>
        <time>2015-04-06T07:37:38.000Z</time>
      </trkpt>
      <trkpt lat="47.50006" lon="6.7723">
        <ele>325</ele>
        <time>2015-04-06T07:37:39.000Z</time>
      </trkpt>
      <trkpt lat="47.50011" lon="6.77228">
        <ele>326</ele>
        <time>2015-04-06T07:37:40.000Z</time>
      </trkpt>
      <trkpt lat="47.50015" lon="6.77228">
        <ele>326</ele>
        <time>2015-04-06T07:37:41.000Z</time>
      </trkpt>
      <trkpt lat="47.50019" lon="6.77225">
        <ele>327</ele>
        <time>2015-04-06T07:37:43.000Z</time>
      </trkpt>
      <trkpt lat="47.50024" lon="6.77223">
        <ele>327</ele>
        <time>2015-04-06T07:37:44.000Z</time>
      </trkpt>
      <trkpt lat="47.50028" lon="6.7722">
        <ele>328</ele>
        <time>2015-04-06T07:37:45.000Z</time>
      </trkpt>
      <trkpt lat="47.50032" lon="6.7722">
        <ele>328</ele>
        <time>2015-04-06T07:37:46.000Z</time>
      </trkpt>
      <trkpt lat="47.50035" lon="6.77218">
        <ele>328</ele>
        <time>2015-04-06T07:37:47.000Z</time>
      </trkpt>
      <trkpt lat="47.50039" lon="6.77216">
        <ele>329</ele>
        <time>2015-04-06T07:37:48.000Z</time>
      </trkpt>
      <trkpt lat="47.50042" lon="6.77214">
        <ele>329</ele>
        <time>2015-04-06T07:37:49.000Z</time>
      </trkpt>
      <trkpt lat="47.50047" lon="6.77213">
        <ele>329</ele>
        <time>2015-04-06T07:37:50.000Z</time>
      </trkpt>
      <trkpt lat="47.50054" lon="6.77209">
        <ele>329</ele>
        <time>2015-04-06T07:37:52.000Z</time>
      </trkpt>
      <trkpt lat="47.50058" lon="6.77208">
        <ele>330</ele>
        <time>2015-04-06T07:37:53.000Z</time>
      </trkpt>
      <trkpt lat="47.50061" lon="6.77206">
        <ele>330</ele>
        <time>2015-04-06T07:37:54.000Z</time>
      </trkpt>
      <trkpt lat="47.50066" lon="6.77208">
        <ele>329</ele>
        <time>2015-04-06T07:37:55.000Z</time>
      </trkpt>
      <trkpt lat="47.50072" lon="6.77209">
        <ele>329</ele>
        <time>2015-04-06T07:37:56.000Z</time>
      </trkpt>
      <trkpt lat="47.50078" lon="6.77206">
        <ele>330</ele>
        <time>2015-04-06T07:37:57.000Z</time>
      </trkpt>
      <trkpt lat="47.50083" lon="6.77204">
        <ele>330</ele>
        <time>2015-04-06T07:37:58.000Z</time>
      </trkpt>
      <trkpt lat="47.50088" lon="6.77201">
        <ele>326</ele>
        <time>2015-04-06T07:37:59.000Z</time>
      </trkpt>
      <trkpt lat="47.50091" lon="6.77199">
        <ele>326</ele>
        <time>2015-04-06T07:38:00.000Z</time>
      </trkpt>
      <trkpt lat="47.50096" lon="6.77197">
        <ele>327</ele>
        <time>2015-04-06T07:38:01.000Z</time>
      </trkpt>
      <trkpt lat="47.50101" lon="6.77195">
        <ele>327</ele>
        <time>2015-04-06T07:38:02.000Z</time>
      </trkpt>
      <trkpt lat="47.50106" lon="6.77194">
        <ele>326</ele>
        <time>2015-04-06T07:38:03.000Z</time>
      </trkpt>
      <trkpt lat="47.50111" lon="6.77194">
        <ele>326</ele>
        <time>2015-04-06T07:38:04.000Z</time>
      </trkpt>
      <trkpt lat="47.50117" lon="6.77194">
        <ele>325</ele>
        <time>2015-04-06T07:38:05.000Z</time>
      </trkpt>
      <trkpt lat="47.50121" lon="6.77196">
        <ele>324</ele>
        <time>2015-04-06T07:38:06.000Z</time>
      </trkpt>
      <trkpt lat="47.50126" lon="6.77196">
        <ele>324</ele>
        <time>2015-04-06T07:38:07.000Z</time>
      </trkpt>
      <trkpt lat="47.50134" lon="6.77197">
        <ele>323</ele>
        <time>2015-04-06T07:38:08.000Z</time>
      </trkpt>
      <trkpt lat="47.50139" lon="6.772">
        <ele>323</ele>
        <time>2015-04-06T07:38:09.000Z</time>
      </trkpt>
      <trkpt lat="47.50146" lon="6.77202">
        <ele>322</ele>
        <time>2015-04-06T07:38:10.000Z</time>
      </trkpt>
      <trkpt lat="47.50153" lon="6.77206">
        <ele>322</ele>
        <time>2015-04-06T07:38:11.000Z</time>
      </trkpt>
      <trkpt lat="47.50158" lon="6.7721">
        <ele>321</ele>
        <time>2015-04-06T07:38:12.000Z</time>
      </trkpt>
      <trkpt lat="47.50163" lon="6.77214">
        <ele>321</ele>
        <time>2015-04-06T07:38:13.000Z</time>
      </trkpt>
      <trkpt lat="47.50167" lon="6.77219">
        <ele>320</ele>
        <time>2015-04-06T07:38:14.000Z</time>
      </trkpt>
      <trkpt lat="47.50173" lon="6.77224">
        <ele>316</ele>
        <time>2015-04-06T07:38:15.000Z</time>
      </trkpt>
      <trkpt lat="47.50179" lon="6.77229">
        <ele>316</ele>
        <time>2015-04-06T07:38:16.000Z</time>
      </trkpt>
      <trkpt lat="47.50184" lon="6.77232">
        <ele>316</ele>
        <time>2015-04-06T07:38:17.000Z</time>
      </trkpt>
      <trkpt lat="47.5019" lon="6.77237">
        <ele>316</ele>
        <time>2015-04-06T07:38:18.000Z</time>
      </trkpt>
      <trkpt lat="47.50195" lon="6.7724">
        <ele>316</ele>
        <time>2015-04-06T07:38:19.000Z</time>
      </trkpt>
      <trkpt lat="47.502" lon="6.77246">
        <ele>316</ele>
        <time>2015-04-06T07:38:20.000Z</time>
      </trkpt>
      <trkpt lat="47.50204" lon="6.77248">
        <ele>316</ele>
        <time>2015-04-06T07:38:21.000Z</time>
      </trkpt>
      <trkpt lat="47.50207" lon="6.77252">
        <ele>313</ele>
        <time>2015-04-06T07:38:22.000Z</time>
      </trkpt>
      <trkpt lat="47.50213" lon="6.77255">
        <ele>313</ele>
        <time>2015-04-06T07:38:23.000Z</time>
      </trkpt>
      <trkpt lat="47.50218" lon="6.77259">
        <ele>313</ele>
        <time>2015-04-06T07:38:24.000Z</time>
      </trkpt>
      <trkpt lat="47.50222" lon="6.77262">
        <ele>313</ele>
        <time>2015-04-06T07:38:25.000Z</time>
      </trkpt>
      <trkpt lat="47.50228" lon="6.77268">
        <ele>313</ele>
        <time>2015-04-06T07:38:26.000Z</time>
      </trkpt>
      <trkpt lat="47.50232" lon="6.77272">
        <ele>313</ele>
        <time>2015-04-06T07:38:27.000Z</time>
      </trkpt>
      <trkpt lat="47.50237" lon="6.77276">
        <ele>313</ele>
        <time>2015-04-06T07:38:28.000Z</time>
      </trkpt>
      <trkpt lat="47.5024" lon="6.77279">
        <ele>313</ele>
        <time>2015-04-06T07:38:29.000Z</time>
      </trkpt>
      <trkpt lat="47.50244" lon="6.77281">
        <ele>313</ele>
        <time>2015-04-06T07:38:30.000Z</time>
      </trkpt>
      <trkpt lat="47.50249" lon="6.77284">
        <ele>313</ele>
        <time>2015-04-06T07:38:31.000Z</time>
      </trkpt>
      <trkpt lat="47.50249" lon="6.77286">
        <ele>313</ele>
        <time>2015-04-06T07:38:32.000Z</time>
      </trkpt>
      <trkpt lat="47.50257" lon="6.77289">
        <ele>313</ele>
        <time>2015-04-06T07:38:33.000Z</time>
      </trkpt>
      <trkpt lat="47.50262" lon="6.77292">
        <ele>313</ele>
        <time>2015-04-06T07:38:34.000Z</time>
      </trkpt>
      <trkpt lat="47.50267" lon="6.77295">
        <ele>313</ele>
        <time>2015-04-06T07:38:35.000Z</time>
      </trkpt>
      <trkpt lat="47.50272" lon="6.77298">
        <ele>313</ele>
        <time>2015-04-06T07:38:35.999Z</time>
      </trkpt>
      <trkpt lat="47.50276" lon="6.77301">
        <ele>313</ele>
        <time>2015-04-06T07:38:37.000Z</time>
      </trkpt>
      <trkpt lat="47.5028" lon="6.77304">
        <ele>313</ele>
        <time>2015-04-06T07:38:38.000Z</time>
      </trkpt>
      <trkpt lat="47.50285" lon="6.77307">
        <ele>313</ele>
        <time>2015-04-06T07:38:39.000Z</time>
      </trkpt>
      <trkpt lat="47.50291" lon="6.77311">
        <ele>313</ele>
        <time>2015-04-06T07:38:40.000Z</time>
      </trkpt>
      <trkpt lat="47.50295" lon="6.77315">
        <ele>313</ele>
        <time>2015-04-06T07:38:41.000Z</time>
      </trkpt>
      <trkpt lat="47.50299" lon="6.77317">
        <ele>313</ele>
        <time>2015-04-06T07:38:42.000Z</time>
      </trkpt>
      <trkpt lat="47.50304" lon="6.77323">
        <ele>312</ele>
        <time>2015-04-06T07:38:43.000Z</time>
      </trkpt>
      <trkpt lat="47.50309" lon="6.77327">
        <ele>312</ele>
        <time>2015-04-06T07:38:44.000Z</time>
      </trkpt>
      <trkpt lat="47.50314" lon="6.77331">
        <ele>312</ele>
        <time>2015-04-06T07:38:45.000Z</time>
      </trkpt>
      <trkpt lat="47.50318" lon="6.77335">
        <ele>312</ele>
        <time>2015-04-06T07:38:46.000Z</time>
      </trkpt>
      <trkpt lat="47.50323" lon="6.7734">
        <ele>312</ele>
        <time>2015-04-06T07:38:47.000Z</time>
      </trkpt>
      <trkpt lat="47.50329" lon="6.77344">
        <ele>312</ele>
        <time>2015-04-06T07:38:48.000Z</time>
      </trkpt>
      <trkpt lat="47.50335" lon="6.77347">
        <ele>312</ele>
        <time>2015-04-06T07:38:49.000Z</time>
      </trkpt>
      <trkpt lat="47.50339" lon="6.7735">
        <ele>312</ele>
        <time>2015-04-06T07:38:50.000Z</time>
      </trkpt>
      <trkpt lat="47.5035" lon="6.77358">
        <ele>312</ele>
        <time>2015-04-06T07:38:52.000Z</time>
      </trkpt>
      <trkpt lat="47.50356" lon="6.77362">
        <ele>312</ele>
        <time>2015-04-06T07:38:53.000Z</time>
      </trkpt>
      <trkpt lat="47.50361" lon="6.77365">
        <ele>312</ele>
        <time>2015-04-06T07:38:54.000Z</time>
      </trkpt>
      <trkpt lat="47.50366" lon="6.77369">
        <ele>312</ele>
        <time>2015-04-06T07:38:55.000Z</time>
      </trkpt>
      <trkpt lat="47.50372" lon="6.77373">
        <ele>312</ele>
        <time>2015-04-06T07:38:56.000Z</time>
      </trkpt>
      <trkpt lat="47.50379" lon="6.77376">
        <ele>312</ele>
        <time>2015-04-06T07:38:57.000Z</time>
      </trkpt>
      <trkpt lat="47.50385" lon="6.77381">
        <ele>312</ele>
        <time>2015-04-06T07:38:58.000Z</time>
      </trkpt>
      <trkpt lat="47.5039" lon="6.77385">
        <ele>312</ele>
        <time>2015-04-06T07:38:59.000Z</time>
      </trkpt>
      <trkpt lat="47.50394" lon="6.77389">
        <ele>312</ele>
        <time>2015-04-06T07:39:00.000Z</time>
      </trkpt>
      <trkpt lat="47.50399" lon="6.77394">
        <ele>312</ele>
        <time>2015-04-06T07:39:01.000Z</time>
      </trkpt>
      <trkpt lat="47.50404" lon="6.77395">
        <ele>312</ele>
        <time>2015-04-06T07:39:02.000Z</time>
      </trkpt>
      <trkpt lat="47.50408" lon="6.77398">
        <ele>312</ele>
        <time>2015-04-06T07:39:03.000Z</time>
      </trkpt>
      <trkpt lat="47.50412" lon="6.77402">
        <ele>311</ele>
        <time>2015-04-06T07:39:04.000Z</time>
      </trkpt>
      <trkpt lat="47.50416" lon="6.77407">
        <ele>311</ele>
        <time>2015-04-06T07:39:05.000Z</time>
      </trkpt>
      <trkpt lat="47.50422" lon="6.77411">
        <ele>311</ele>
        <time>2015-04-06T07:39:06.000Z</time>
      </trkpt>
      <trkpt lat="47.50426" lon="6.77415">
        <ele>312</ele>
        <time>2015-04-06T07:39:07.000Z</time>
      </trkpt>
      <trkpt lat="47.50431" lon="6.77421">
        <ele>312</ele>
        <time>2015-04-06T07:39:08.000Z</time>
      </trkpt>
      <trkpt lat="47.50434" lon="6.77426">
        <ele>312</ele>
        <time>2015-04-06T07:39:09.000Z</time>
      </trkpt>
      <trkpt lat="47.50439" lon="6.77431">
        <ele>312</ele>
        <time>2015-04-06T07:39:10.000Z</time>
      </trkpt>
      <trkpt lat="47.50443" lon="6.77434">
        <ele>312</ele>
        <time>2015-04-06T07:39:11.000Z</time>
      </trkpt>
      <trkpt lat="47.50448" lon="6.77438">
        <ele>312</ele>
        <time>2015-04-06T07:39:12.000Z</time>
      </trkpt>
      <trkpt lat="47.50453" lon="6.77444">
        <ele>312</ele>
        <time>2015-04-06T07:39:13.000Z</time>
      </trkpt>
      <trkpt lat="47.50457" lon="6.77448">
        <ele>312</ele>
        <time>2015-04-06T07:39:14.000Z</time>
      </trkpt>
      <trkpt lat="47.50462" lon="6.77451">
        <ele>313</ele>
        <time>2015-04-06T07:39:15.000Z</time>
      </trkpt>
      <trkpt lat="47.50468" lon="6.77456">
        <ele>313</ele>
        <time>2015-04-06T07:39:16.000Z</time>
      </trkpt>
      <trkpt lat="47.50471" lon="6.77457">
        <ele>313</ele>
        <time>2015-04-06T07:39:17.000Z</time>
      </trkpt>
      <trkpt lat="47.50475" lon="6.77461">
        <ele>313</ele>
        <time>2015-04-06T07:39:18.000Z</time>
      </trkpt>
      <trkpt lat="47.50479" lon="6.77465">
        <ele>313</ele>
        <time>2015-04-06T07:39:19.000Z</time>
      </trkpt>
      <trkpt lat="47.50481" lon="6.7747">
        <ele>313</ele>
        <time>2015-04-06T07:39:20.000Z</time>
      </trkpt>
      <trkpt lat="47.50485" lon="6.77474">
        <ele>313</ele>
        <time>2015-04-06T07:39:21.000Z</time>
      </trkpt>
      <trkpt lat="47.50485" lon="6.77476">
        <ele>313</ele>
        <time>2015-04-06T07:39:22.000Z</time>
      </trkpt>
      <trkpt lat="47.50488" lon="6.77479">
        <ele>313</ele>
        <time>2015-04-06T07:39:23.000Z</time>
      </trkpt>
      <trkpt lat="47.50495" lon="6.77484">
        <ele>313</ele>
        <time>2015-04-06T07:39:24.000Z</time>
      </trkpt>
      <trkpt lat="47.50502" lon="6.77487">
        <ele>314</ele>
        <time>2015-04-06T07:39:25.000Z</time>
      </trkpt>
      <trkpt lat="47.50506" lon="6.77491">
        <ele>314</ele>
        <time>2015-04-06T07:39:26.000Z</time>
      </trkpt>
      <trkpt lat="47.50512" lon="6.77495">
        <ele>314</ele>
        <time>2015-04-06T07:39:27.000Z</time>
      </trkpt>
      <trkpt lat="47.50516" lon="6.77499">
        <ele>314</ele>
        <time>2015-04-06T07:39:28.000Z</time>
      </trkpt>
      <trkpt lat="47.5052" lon="6.77501">
        <ele>314</ele>
        <time>2015-04-06T07:39:29.000Z</time>
      </trkpt>
      <trkpt lat="47.50527" lon="6.77504">
        <ele>314</ele>
        <time>2015-04-06T07:39:30.000Z</time>
      </trkpt>
      <trkpt lat="47.50533" lon="6.77508">
        <ele>314</ele>
        <time>2015-04-06T07:39:31.000Z</time>
      </trkpt>
      <trkpt lat="47.50538" lon="6.7751">
        <ele>313</ele>
        <time>2015-04-06T07:39:32.000Z</time>
      </trkpt>
      <trkpt lat="47.50543" lon="6.77514">
        <ele>313</ele>
        <time>2015-04-06T07:39:33.000Z</time>
      </trkpt>
      <trkpt lat="47.50548" lon="6.77517">
        <ele>313</ele>
        <time>2015-04-06T07:39:34.000Z</time>
      </trkpt>
      <trkpt lat="47.5055" lon="6.77522">
        <ele>313</ele>
        <time>2015-04-06T07:39:35.000Z</time>
      </trkpt>
      <trkpt lat="47.50555" lon="6.77528">
        <ele>313</ele>
        <time>2015-04-06T07:39:36.000Z</time>
      </trkpt>
      <trkpt lat="47.50557" lon="6.77534">
        <ele>313</ele>
        <time>2015-04-06T07:39:37.000Z</time>
      </trkpt>
      <trkpt lat="47.5056" lon="6.77538">
        <ele>313</ele>
        <time>2015-04-06T07:39:38.000Z</time>
      </trkpt>
      <trkpt lat="47.50563" lon="6.77543">
        <ele>313</ele>
        <time>2015-04-06T07:39:39.000Z</time>
      </trkpt>
      <trkpt lat="47.50568" lon="6.77543">
        <ele>313</ele>
        <time>2015-04-06T07:39:40.000Z</time>
      </trkpt>
      <trkpt lat="47.50572" lon="6.77546">
        <ele>313</ele>
        <time>2015-04-06T07:39:41.000Z</time>
      </trkpt>
      <trkpt lat="47.50574" lon="6.77548">
        <ele>313</ele>
        <time>2015-04-06T07:39:42.000Z</time>
      </trkpt>
      <trkpt lat="47.50577" lon="6.77545">
        <ele>313</ele>
        <time>2015-04-06T07:39:44.000Z</time>
      </trkpt>
      <trkpt lat="47.50581" lon="6.7754">
        <ele>313</ele>
        <time>2015-04-06T07:39:45.000Z</time>
      </trkpt>
      <trkpt lat="47.50583" lon="6.77538">
        <ele>313</ele>
        <time>2015-04-06T07:39:46.000Z</time>
      </trkpt>
      <trkpt lat="47.50585" lon="6.77535">
        <ele>313</ele>
        <time>2015-04-06T07:39:47.000Z</time>
      </trkpt>
      <trkpt lat="47.50589" lon="6.77534">
        <ele>313</ele>
        <time>2015-04-06T07:39:48.000Z</time>
      </trkpt>
      <trkpt lat="47.50592" lon="6.77533">
        <ele>313</ele>
        <time>2015-04-06T07:39:49.000Z</time>
      </trkpt>
      <trkpt lat="47.50596" lon="6.77533">
        <ele>313</ele>
        <time>2015-04-06T07:39:50.000Z</time>
      </trkpt>
      <trkpt lat="47.50604" lon="6.77532">
        <ele>313</ele>
        <time>2015-04-06T07:39:52.000Z</time>
      </trkpt>
      <trkpt lat="47.50608" lon="6.77531">
        <ele>313</ele>
        <time>2015-04-06T07:39:52.999Z</time>
      </trkpt>
      <trkpt lat="47.50613" lon="6.77532">
        <ele>313</ele>
        <time>2015-04-06T07:39:54.000Z</time>
      </trkpt>
      <trkpt lat="47.50618" lon="6.77532">
        <ele>313</ele>
        <time>2015-04-06T07:39:55.000Z</time>
      </trkpt>
      <trkpt lat="47.50622" lon="6.7753">
        <ele>313</ele>
        <time>2015-04-06T07:39:56.000Z</time>
      </trkpt>
      <trkpt lat="47.50626" lon="6.77528">
        <ele>313</ele>
        <time>2015-04-06T07:39:57.000Z</time>
      </trkpt>
      <trkpt lat="47.50631" lon="6.77527">
        <ele>313</ele>
        <time>2015-04-06T07:39:58.000Z</time>
      </trkpt>
      <trkpt lat="47.50634" lon="6.77526">
        <ele>313</ele>
        <time>2015-04-06T07:39:59.000Z</time>
      </trkpt>
      <trkpt lat="47.50639" lon="6.77526">
        <ele>313</ele>
        <time>2015-04-06T07:40:00.000Z</time>
      </trkpt>
      <trkpt lat="47.50643" lon="6.77527">
        <ele>313</ele>
        <time>2015-04-06T07:40:01.000Z</time>
      </trkpt>
      <trkpt lat="47.50652" lon="6.77534">
        <ele>313</ele>
        <time>2015-04-06T07:40:02.000Z</time>
      </trkpt>
      <trkpt lat="47.50655" lon="6.77534">
        <ele>313</ele>
        <time>2015-04-06T07:40:03.000Z</time>
      </trkpt>
      <trkpt lat="47.50659" lon="6.77532">
        <ele>313</ele>
        <time>2015-04-06T07:40:04.000Z</time>
      </trkpt>
      <trkpt lat="47.50665" lon="6.7753">
        <ele>313</ele>
        <time>2015-04-06T07:40:05.000Z</time>
      </trkpt>
      <trkpt lat="47.50671" lon="6.7753">
        <ele>313</ele>
        <time>2015-04-06T07:40:06.000Z</time>
      </trkpt>
      <trkpt lat="47.50676" lon="6.77528">
        <ele>313</ele>
        <time>2015-04-06T07:40:07.000Z</time>
      </trkpt>
      <trkpt lat="47.50679" lon="6.77528">
        <ele>313</ele>
        <time>2015-04-06T07:40:08.000Z</time>
      </trkpt>
      <trkpt lat="47.50684" lon="6.77528">
        <ele>313</ele>
        <time>2015-04-06T07:40:09.000Z</time>
      </trkpt>
      <trkpt lat="47.50691" lon="6.77527">
        <ele>313</ele>
        <time>2015-04-06T07:40:10.000Z</time>
      </trkpt>
      <trkpt lat="47.50698" lon="6.77526">
        <ele>313</ele>
        <time>2015-04-06T07:40:11.000Z</time>
      </trkpt>
      <trkpt lat="47.50704" lon="6.77527">
        <ele>313</ele>
        <time>2015-04-06T07:40:12.000Z</time>
      </trkpt>
      <trkpt lat="47.5071" lon="6.77527">
        <ele>313</ele>
        <time>2015-04-06T07:40:13.000Z</time>
      </trkpt>
      <trkpt lat="47.50716" lon="6.77531">
        <ele>313</ele>
        <time>2015-04-06T07:40:14.000Z</time>
      </trkpt>
      <trkpt lat="47.50722" lon="6.77533">
        <ele>313</ele>
        <time>2015-04-06T07:40:15.000Z</time>
      </trkpt>
      <trkpt lat="47.50727" lon="6.77536">
        <ele>313</ele>
        <time>2015-04-06T07:40:16.000Z</time>
      </trkpt>
      <trkpt lat="47.50733" lon="6.77539">
        <ele>313</ele>
        <time>2015-04-06T07:40:17.000Z</time>
      </trkpt>
      <trkpt lat="47.50737" lon="6.77544">
        <ele>313</ele>
        <time>2015-04-06T07:40:18.000Z</time>
      </trkpt>
      <trkpt lat="47.50741" lon="6.77549">
        <ele>313</ele>
        <time>2015-04-06T07:40:19.000Z</time>
      </trkpt>
      <trkpt lat="47.50746" lon="6.7755">
        <ele>313</ele>
        <time>2015-04-06T07:40:20.000Z</time>
      </trkpt>
      <trkpt lat="47.50749" lon="6.77553">
        <ele>313</ele>
        <time>2015-04-06T07:40:21.000Z</time>
      </trkpt>
      <trkpt lat="47.50753" lon="6.77558">
        <ele>314</ele>
        <time>2015-04-06T07:40:22.000Z</time>
      </trkpt>
      <trkpt lat="47.50753" lon="6.7756">
        <ele>314</ele>
        <time>2015-04-06T07:40:23.000Z</time>
      </trkpt>
      <trkpt lat="47.50757" lon="6.77564">
        <ele>314</ele>
        <time>2015-04-06T07:40:24.000Z</time>
      </trkpt>
      <trkpt lat="47.50759" lon="6.77568">
        <ele>314</ele>
        <time>2015-04-06T07:40:25.000Z</time>
      </trkpt>
      <trkpt lat="47.50762" lon="6.77572">
        <ele>314</ele>
        <time>2015-04-06T07:40:26.000Z</time>
      </trkpt>
      <trkpt lat="47.50768" lon="6.77579">
        <ele>314</ele>
        <time>2015-04-06T07:40:27.000Z</time>
      </trkpt>
      <trkpt lat="47.50771" lon="6.77582">
        <ele>314</ele>
        <time>2015-04-06T07:40:28.000Z</time>
      </trkpt>
      <trkpt lat="47.50775" lon="6.77585">
        <ele>314</ele>
        <time>2015-04-06T07:40:29.000Z</time>
      </trkpt>
      <trkpt lat="47.5078" lon="6.77588">
        <ele>315</ele>
        <time>2015-04-06T07:40:30.000Z</time>
      </trkpt>
      <trkpt lat="47.50784" lon="6.77592">
        <ele>315</ele>
        <time>2015-04-06T07:40:31.000Z</time>
      </trkpt>
      <trkpt lat="47.50789" lon="6.77595">
        <ele>315</ele>
        <time>2015-04-06T07:40:32.000Z</time>
      </trkpt>
      <trkpt lat="47.50794" lon="6.77599">
        <ele>315</ele>
        <time>2015-04-06T07:40:33.000Z</time>
      </trkpt>
      <trkpt lat="47.50799" lon="6.77602">
        <ele>315</ele>
        <time>2015-04-06T07:40:34.000Z</time>
      </trkpt>
      <trkpt lat="47.50804" lon="6.77607">
        <ele>315</ele>
        <time>2015-04-06T07:40:35.000Z</time>
      </trkpt>
      <trkpt lat="47.50809" lon="6.77611">
        <ele>315</ele>
        <time>2015-04-06T07:40:36.000Z</time>
      </trkpt>
      <trkpt lat="47.50814" lon="6.77615">
        <ele>316</ele>
        <time>2015-04-06T07:40:37.000Z</time>
      </trkpt>
      <trkpt lat="47.50819" lon="6.77619">
        <ele>316</ele>
        <time>2015-04-06T07:40:38.000Z</time>
      </trkpt>
      <trkpt lat="47.50824" lon="6.77624">
        <ele>316</ele>
        <time>2015-04-06T07:40:39.000Z</time>
      </trkpt>
      <trkpt lat="47.50829" lon="6.77628">
        <ele>316</ele>
        <time>2015-04-06T07:40:40.000Z</time>
      </trkpt>
      <trkpt lat="47.50834" lon="6.77633">
        <ele>317</ele>
        <time>2015-04-06T07:40:41.000Z</time>
      </trkpt>
      <trkpt lat="47.50849" lon="6.77644">
        <ele>317</ele>
        <time>2015-04-06T07:40:42.000Z</time>
      </trkpt>
      <trkpt lat="47.50852" lon="6.7765">
        <ele>317</ele>
        <time>2015-04-06T07:40:43.000Z</time>
      </trkpt>
      <trkpt lat="47.50855" lon="6.77654">
        <ele>317</ele>
        <time>2015-04-06T07:40:44.000Z</time>
      </trkpt>
      <trkpt lat="47.50861" lon="6.77661">
        <ele>316</ele>
        <time>2015-04-06T07:40:45.000Z</time>
      </trkpt>
      <trkpt lat="47.50865" lon="6.77669">
        <ele>316</ele>
        <time>2015-04-06T07:40:46.000Z</time>
      </trkpt>
      <trkpt lat="47.5087" lon="6.77674">
        <ele>316</ele>
        <time>2015-04-06T07:40:47.000Z</time>
      </trkpt>
      <trkpt lat="47.50873" lon="6.77678">
        <ele>316</ele>
        <time>2015-04-06T07:40:48.000Z</time>
      </trkpt>
      <trkpt lat="47.50876" lon="6.77683">
        <ele>316</ele>
        <time>2015-04-06T07:40:49.000Z</time>
      </trkpt>
      <trkpt lat="47.5088" lon="6.77688">
        <ele>316</ele>
        <time>2015-04-06T07:40:50.000Z</time>
      </trkpt>
      <trkpt lat="47.50888" lon="6.77699">
        <ele>316</ele>
        <time>2015-04-06T07:40:52.000Z</time>
      </trkpt>
      <trkpt lat="47.50892" lon="6.77706">
        <ele>316</ele>
        <time>2015-04-06T07:40:53.000Z</time>
      </trkpt>
      <trkpt lat="47.50895" lon="6.77713">
        <ele>316</ele>
        <time>2015-04-06T07:40:54.000Z</time>
      </trkpt>
      <trkpt lat="47.50898" lon="6.7772">
        <ele>316</ele>
        <time>2015-04-06T07:40:55.000Z</time>
      </trkpt>
      <trkpt lat="47.50899" lon="6.77727">
        <ele>316</ele>
        <time>2015-04-06T07:40:56.000Z</time>
      </trkpt>
      <trkpt lat="47.50902" lon="6.77732">
        <ele>315</ele>
        <time>2015-04-06T07:40:57.000Z</time>
      </trkpt>
      <trkpt lat="47.50905" lon="6.77742">
        <ele>315</ele>
        <time>2015-04-06T07:40:58.000Z</time>
      </trkpt>
      <trkpt lat="47.50908" lon="6.7775">
        <ele>315</ele>
        <time>2015-04-06T07:40:59.000Z</time>
      </trkpt>
      <trkpt lat="47.50909" lon="6.77756">
        <ele>315</ele>
        <time>2015-04-06T07:41:00.000Z</time>
      </trkpt>
      <trkpt lat="47.50911" lon="6.7776">
        <ele>315</ele>
        <time>2015-04-06T07:41:01.000Z</time>
      </trkpt>
      <trkpt lat="47.50913" lon="6.77767">
        <ele>315</ele>
        <time>2015-04-06T07:41:02.000Z</time>
      </trkpt>
      <trkpt lat="47.50917" lon="6.77772">
        <ele>315</ele>
        <time>2015-04-06T07:41:03.000Z</time>
      </trkpt>
      <trkpt lat="47.50917" lon="6.77779">
        <ele>315</ele>
        <time>2015-04-06T07:41:04.000Z</time>
      </trkpt>
      <trkpt lat="47.50923" lon="6.77784">
        <ele>315</ele>
        <time>2015-04-06T07:41:05.000Z</time>
      </trkpt>
      <trkpt lat="47.50924" lon="6.77789">
        <ele>315</ele>
        <time>2015-04-06T07:41:06.000Z</time>
      </trkpt>
      <trkpt lat="47.50926" lon="6.77797">
        <ele>315</ele>
        <time>2015-04-06T07:41:07.000Z</time>
      </trkpt>
      <trkpt lat="47.50929" lon="6.77804">
        <ele>315</ele>
        <time>2015-04-06T07:41:08.000Z</time>
      </trkpt>
      <trkpt lat="47.50932" lon="6.77813">
        <ele>315</ele>
        <time>2015-04-06T07:41:09.000Z</time>
      </trkpt>
      <trkpt lat="47.50934" lon="6.77819">
        <ele>315</ele>
        <time>2015-04-06T07:41:10.000Z</time>
      </trkpt>
      <trkpt lat="47.50935" lon="6.77827">
        <ele>315</ele>
        <time>2015-04-06T07:41:11.000Z</time>
      </trkpt>
      <trkpt lat="47.50938" lon="6.77836">
        <ele>315</ele>
        <time>2015-04-06T07:41:12.000Z</time>
      </trkpt>
      <trkpt lat="47.50941" lon="6.77844">
        <ele>315</ele>
        <time>2015-04-06T07:41:13.000Z</time>
      </trkpt>
      <trkpt lat="47.50945" lon="6.77844">
        <ele>315</ele>
        <time>2015-04-06T07:41:14.000Z</time>
      </trkpt>
      <trkpt lat="47.50947" lon="6.77852">
        <ele>315</ele>
        <time>2015-04-06T07:41:15.000Z</time>
      </trkpt>
      <trkpt lat="47.50948" lon="6.7786">
        <ele>315</ele>
        <time>2015-04-06T07:41:16.000Z</time>
      </trkpt>
      <trkpt lat="47.50949" lon="6.77869">
        <ele>315</ele>
        <time>2015-04-06T07:41:17.000Z</time>
      </trkpt>
      <trkpt lat="47.50951" lon="6.77875">
        <ele>315</ele>
        <time>2015-04-06T07:41:18.000Z</time>
      </trkpt>
      <trkpt lat="47.50953" lon="6.7788">
        <ele>315</ele>
        <time>2015-04-06T07:41:19.000Z</time>
      </trkpt>
      <trkpt lat="47.50955" lon="6.77885">
        <ele>315</ele>
        <time>2015-04-06T07:41:20.000Z</time>
      </trkpt>
      <trkpt lat="47.50954" lon="6.77895">
        <ele>315</ele>
        <time>2015-04-06T07:41:21.000Z</time>
      </trkpt>
      <trkpt lat="47.50955" lon="6.77901">
        <ele>315</ele>
        <time>2015-04-06T07:41:22.000Z</time>
      </trkpt>
      <trkpt lat="47.50955" lon="6.77908">
        <ele>315</ele>
        <time>2015-04-06T07:41:23.000Z</time>
      </trkpt>
      <trkpt lat="47.50956" lon="6.77916">
        <ele>315</ele>
        <time>2015-04-06T07:41:24.000Z</time>
      </trkpt>
      <trkpt lat="47.50957" lon="6.77925">
        <ele>315</ele>
        <time>2015-04-06T07:41:25.000Z</time>
      </trkpt>
      <trkpt lat="47.50958" lon="6.77934">
        <ele>315</ele>
        <time>2015-04-06T07:41:26.000Z</time>
      </trkpt>
      <trkpt lat="47.50958" lon="6.7794">
        <ele>316</ele>
        <time>2015-04-06T07:41:27.000Z</time>
      </trkpt>
      <trkpt lat="47.50959" lon="6.77948">
        <ele>316</ele>
        <time>2015-04-06T07:41:28.000Z</time>
      </trkpt>
      <trkpt lat="47.50959" lon="6.77954">
        <ele>316</ele>
        <time>2015-04-06T07:41:29.000Z</time>
      </trkpt>
      <trkpt lat="47.50961" lon="6.7796">
        <ele>316</ele>
        <time>2015-04-06T07:41:30.000Z</time>
      </trkpt>
      <trkpt lat="47.50962" lon="6.77968">
        <ele>316</ele>
        <time>2015-04-06T07:41:31.000Z</time>
      </trkpt>
      <trkpt lat="47.50964" lon="6.77975">
        <ele>316</ele>
        <time>2015-04-06T07:41:32.000Z</time>
      </trkpt>
      <trkpt lat="47.50964" lon="6.77982">
        <ele>316</ele>
        <time>2015-04-06T07:41:33.000Z</time>
      </trkpt>
      <trkpt lat="47.50965" lon="6.77989">
        <ele>316</ele>
        <time>2015-04-06T07:41:34.000Z</time>
      </trkpt>
      <trkpt lat="47.50965" lon="6.77994">
        <ele>316</ele>
        <time>2015-04-06T07:41:35.000Z</time>
      </trkpt>
      <trkpt lat="47.50966" lon="6.78">
        <ele>316</ele>
        <time>2015-04-06T07:41:36.000Z</time>
      </trkpt>
      <trkpt lat="47.50969" lon="6.78007">
        <ele>316</ele>
        <time>2015-04-06T07:41:37.000Z</time>
      </trkpt>
      <trkpt lat="47.50969" lon="6.78014">
        <ele>316</ele>
        <time>2015-04-06T07:41:38.000Z</time>
      </trkpt>
      <trkpt lat="47.50968" lon="6.78026">
        <ele>316</ele>
        <time>2015-04-06T07:41:39.000Z</time>
      </trkpt>
      <trkpt lat="47.50968" lon="6.78034">
        <ele>316</ele>
        <time>2015-04-06T07:41:40.000Z</time>
      </trkpt>
      <trkpt lat="47.50965" lon="6.78038">
        <ele>316</ele>
        <time>2015-04-06T07:41:41.000Z</time>
      </trkpt>
      <trkpt lat="47.50962" lon="6.78043">
        <ele>316</ele>
        <time>2015-04-06T07:41:42.000Z</time>
      </trkpt>
      <trkpt lat="47.50962" lon="6.78051">
        <ele>316</ele>
        <time>2015-04-06T07:41:43.000Z</time>
      </trkpt>
      <trkpt lat="47.50962" lon="6.7806">
        <ele>316</ele>
        <time>2015-04-06T07:41:44.000Z</time>
      </trkpt>
      <trkpt lat="47.50961" lon="6.78068">
        <ele>316</ele>
        <time>2015-04-06T07:41:45.000Z</time>
      </trkpt>
      <trkpt lat="47.50962" lon="6.78074">
        <ele>316</ele>
        <time>2015-04-06T07:41:46.000Z</time>
      </trkpt>
      <trkpt lat="47.50963" lon="6.7808">
        <ele>316</ele>
        <time>2015-04-06T07:41:47.000Z</time>
      </trkpt>
      <trkpt lat="47.50963" lon="6.78089">
        <ele>316</ele>
        <time>2015-04-06T07:41:48.000Z</time>
      </trkpt>
      <trkpt lat="47.50962" lon="6.78095">
        <ele>316</ele>
        <time>2015-04-06T07:41:49.000Z</time>
      </trkpt>
      <trkpt lat="47.50962" lon="6.78102">
        <ele>316</ele>
        <time>2015-04-06T07:41:50.000Z</time>
      </trkpt>
      <trkpt lat="47.50965" lon="6.78114">
        <ele>316</ele>
        <time>2015-04-06T07:41:52.000Z</time>
      </trkpt>
      <trkpt lat="47.50966" lon="6.78119">
        <ele>316</ele>
        <time>2015-04-06T07:41:53.000Z</time>
      </trkpt>
      <trkpt lat="47.50967" lon="6.78122">
        <ele>316</ele>
        <time>2015-04-06T07:41:54.000Z</time>
      </trkpt>
      <trkpt lat="47.50968" lon="6.78129">
        <ele>316</ele>
        <time>2015-04-06T07:41:55.000Z</time>
      </trkpt>
      <trkpt lat="47.5097" lon="6.78139">
        <ele>316</ele>
        <time>2015-04-06T07:41:56.000Z</time>
      </trkpt>
      <trkpt lat="47.50969" lon="6.78149">
        <ele>316</ele>
        <time>2015-04-06T07:41:57.000Z</time>
      </trkpt>
      <trkpt lat="47.50969" lon="6.78156">
        <ele>316</ele>
        <time>2015-04-06T07:41:58.000Z</time>
      </trkpt>
      <trkpt lat="47.50971" lon="6.78165">
        <ele>316</ele>
        <time>2015-04-06T07:41:59.000Z</time>
      </trkpt>
      <trkpt lat="47.50971" lon="6.78173">
        <ele>316</ele>
        <time>2015-04-06T07:42:00.000Z</time>
      </trkpt>
      <trkpt lat="47.50972" lon="6.78182">
        <ele>316</ele>
        <time>2015-04-06T07:42:01.000Z</time>
      </trkpt>
      <trkpt lat="47.50974" lon="6.7819">
        <ele>316</ele>
        <time>2015-04-06T07:42:02.000Z</time>
      </trkpt>
      <trkpt lat="47.5097" lon="6.782">
        <ele>316</ele>
        <time>2015-04-06T07:42:03.000Z</time>
      </trkpt>
      <trkpt lat="47.50969" lon="6.78209">
        <ele>316</ele>
        <time>2015-04-06T07:42:04.000Z</time>
      </trkpt>
      <trkpt lat="47.50968" lon="6.78218">
        <ele>316</ele>
        <time>2015-04-06T07:42:05.000Z</time>
      </trkpt>
      <trkpt lat="47.50968" lon="6.78227">
        <ele>316</ele>
        <time>2015-04-06T07:42:06.000Z</time>
      </trkpt>
      <trkpt lat="47.50967" lon="6.78237">
        <ele>316</ele>
        <time>2015-04-06T07:42:07.000Z</time>
      </trkpt>
      <trkpt lat="47.50967" lon="6.78245">
        <ele>316</ele>
        <time>2015-04-06T07:42:08.000Z</time>
      </trkpt>
      <trkpt lat="47.50966" lon="6.78252">
        <ele>316</ele>
        <time>2015-04-06T07:42:09.000Z</time>
      </trkpt>
      <trkpt lat="47.50966" lon="6.78261">
        <ele>316</ele>
        <time>2015-04-06T07:42:10.000Z</time>
      </trkpt>
      <trkpt lat="47.50966" lon="6.78272">
        <ele>316</ele>
        <time>2015-04-06T07:42:11.000Z</time>
      </trkpt>
      <trkpt lat="47.50965" lon="6.78282">
        <ele>316</ele>
        <time>2015-04-06T07:42:12.000Z</time>
      </trkpt>
      <trkpt lat="47.50965" lon="6.78288">
        <ele>316</ele>
        <time>2015-04-06T07:42:13.000Z</time>
      </trkpt>
      <trkpt lat="47.50964" lon="6.78295">
        <ele>316</ele>
        <time>2015-04-06T07:42:14.000Z</time>
      </trkpt>
      <trkpt lat="47.50962" lon="6.78306">
        <ele>316</ele>
        <time>2015-04-06T07:42:15.000Z</time>
      </trkpt>
      <trkpt lat="47.50963" lon="6.78312">
        <ele>316</ele>
        <time>2015-04-06T07:42:16.000Z</time>
      </trkpt>
      <trkpt lat="47.5096" lon="6.7832">
        <ele>316</ele>
        <time>2015-04-06T07:42:17.000Z</time>
      </trkpt>
      <trkpt lat="47.50959" lon="6.78327">
        <ele>316</ele>
        <time>2015-04-06T07:42:18.000Z</time>
      </trkpt>
      <trkpt lat="47.50958" lon="6.78334">
        <ele>316</ele>
        <time>2015-04-06T07:42:19.000Z</time>
      </trkpt>
      <trkpt lat="47.50958" lon="6.78341">
        <ele>316</ele>
        <time>2015-04-06T07:42:20.000Z</time>
      </trkpt>
      <trkpt lat="47.50959" lon="6.78349">
        <ele>316</ele>
        <time>2015-04-06T07:42:21.000Z</time>
      </trkpt>
      <trkpt lat="47.50957" lon="6.78355">
        <ele>316</ele>
        <time>2015-04-06T07:42:22.000Z</time>
      </trkpt>
      <trkpt lat="47.50959" lon="6.78361">
        <ele>316</ele>
        <time>2015-04-06T07:42:23.000Z</time>
      </trkpt>
      <trkpt lat="47.50959" lon="6.78367">
        <ele>316</ele>
        <time>2015-04-06T07:42:24.000Z</time>
      </trkpt>
      <trkpt lat="47.50961" lon="6.78372">
        <ele>316</ele>
        <time>2015-04-06T07:42:25.000Z</time>
      </trkpt>
      <trkpt lat="47.50962" lon="6.78378">
        <ele>316</ele>
        <time>2015-04-06T07:42:26.000Z</time>
      </trkpt>
      <trkpt lat="47.50962" lon="6.78385">
        <ele>316</ele>
        <time>2015-04-06T07:42:27.000Z</time>
      </trkpt>
      <trkpt lat="47.50962" lon="6.78391">
        <ele>316</ele>
        <time>2015-04-06T07:42:28.000Z</time>
      </trkpt>
      <trkpt lat="47.50961" lon="6.784">
        <ele>316</ele>
        <time>2015-04-06T07:42:29.000Z</time>
      </trkpt>
      <trkpt lat="47.50961" lon="6.78404">
        <ele>316</ele>
        <time>2015-04-06T07:42:30.000Z</time>
      </trkpt>
      <trkpt lat="47.50957" lon="6.78411">
        <ele>316</ele>
        <time>2015-04-06T07:42:31.000Z</time>
      </trkpt>
      <trkpt lat="47.50957" lon="6.78419">
        <ele>316</ele>
        <time>2015-04-06T07:42:32.000Z</time>
      </trkpt>
      <trkpt lat="47.50957" lon="6.78426">
        <ele>316</ele>
        <time>2015-04-06T07:42:33.000Z</time>
      </trkpt>
      <trkpt lat="47.50958" lon="6.78431">
        <ele>316</ele>
        <time>2015-04-06T07:42:34.000Z</time>
      </trkpt>
      <trkpt lat="47.50958" lon="6.78438">
        <ele>316</ele>
        <time>2015-04-06T07:42:35.000Z</time>
      </trkpt>
      <trkpt lat="47.50959" lon="6.78442">
        <ele>317</ele>
        <time>2015-04-06T07:42:35.999Z</time>
      </trkpt>
      <trkpt lat="47.50954" lon="6.78454">
        <ele>316</ele>
        <time>2015-04-06T07:42:37.000Z</time>
      </trkpt>
      <trkpt lat="47.50953" lon="6.78464">
        <ele>316</ele>
        <time>2015-04-06T07:42:38.000Z</time>
      </trkpt>
      <trkpt lat="47.50952" lon="6.78473">
        <ele>316</ele>
        <time>2015-04-06T07:42:39.000Z</time>
      </trkpt>
      <trkpt lat="47.50952" lon="6.78481">
        <ele>316</ele>
        <time>2015-04-06T07:42:40.000Z</time>
      </trkpt>
      <trkpt lat="47.50951" lon="6.78489">
        <ele>316</ele>
        <time>2015-04-06T07:42:41.000Z</time>
      </trkpt>
      <trkpt lat="47.5095" lon="6.78499">
        <ele>316</ele>
        <time>2015-04-06T07:42:42.000Z</time>
      </trkpt>
      <trkpt lat="47.50951" lon="6.78507">
        <ele>317</ele>
        <time>2015-04-06T07:42:43.000Z</time>
      </trkpt>
      <trkpt lat="47.50948" lon="6.78515">
        <ele>317</ele>
        <time>2015-04-06T07:42:44.000Z</time>
      </trkpt>
      <trkpt lat="47.50946" lon="6.78523">
        <ele>317</ele>
        <time>2015-04-06T07:42:45.000Z</time>
      </trkpt>
      <trkpt lat="47.50945" lon="6.78529">
        <ele>317</ele>
        <time>2015-04-06T07:42:46.000Z</time>
      </trkpt>
      <trkpt lat="47.50945" lon="6.78535">
        <ele>317</ele>
        <time>2015-04-06T07:42:47.000Z</time>
      </trkpt>
      <trkpt lat="47.50945" lon="6.78543">
        <ele>317</ele>
        <time>2015-04-06T07:42:48.000Z</time>
      </trkpt>
      <trkpt lat="47.50945" lon="6.78552">
        <ele>317</ele>
        <time>2015-04-06T07:42:49.000Z</time>
      </trkpt>
      <trkpt lat="47.50943" lon="6.78561">
        <ele>317</ele>
        <time>2015-04-06T07:42:50.000Z</time>
      </trkpt>
      <trkpt lat="47.50939" lon="6.78573">
        <ele>317</ele>
        <time>2015-04-06T07:42:52.000Z</time>
      </trkpt>
      <trkpt lat="47.50939" lon="6.7858">
        <ele>317</ele>
        <time>2015-04-06T07:42:53.000Z</time>
      </trkpt>
      <trkpt lat="47.50939" lon="6.78588">
        <ele>318</ele>
        <time>2015-04-06T07:42:54.000Z</time>
      </trkpt>
      <trkpt lat="47.50938" lon="6.78596">
        <ele>318</ele>
        <time>2015-04-06T07:42:55.000Z</time>
      </trkpt>
      <trkpt lat="47.50937" lon="6.78604">
        <ele>318</ele>
        <time>2015-04-06T07:42:56.000Z</time>
      </trkpt>
      <trkpt lat="47.50936" lon="6.78611">
        <ele>318</ele>
        <time>2015-04-06T07:42:57.001Z</time>
      </trkpt>
      <trkpt lat="47.50933" lon="6.78618">
        <ele>318</ele>
        <time>2015-04-06T07:42:58.000Z</time>
      </trkpt>
      <trkpt lat="47.50933" lon="6.78626">
        <ele>318</ele>
        <time>2015-04-06T07:42:59.000Z</time>
      </trkpt>
      <trkpt lat="47.5093" lon="6.78635">
        <ele>318</ele>
        <time>2015-04-06T07:43:00.000Z</time>
      </trkpt>
      <trkpt lat="47.5093" lon="6.78642">
        <ele>318</ele>
        <time>2015-04-06T07:43:01.000Z</time>
      </trkpt>
      <trkpt lat="47.50931" lon="6.78647">
        <ele>318</ele>
        <time>2015-04-06T07:43:02.000Z</time>
      </trkpt>
      <trkpt lat="47.5093" lon="6.78654">
        <ele>318</ele>
        <time>2015-04-06T07:43:03.000Z</time>
      </trkpt>
      <trkpt lat="47.50931" lon="6.78662">
        <ele>318</ele>
        <time>2015-04-06T07:43:04.000Z</time>
      </trkpt>
      <trkpt lat="47.50931" lon="6.78668">
        <ele>319</ele>
        <time>2015-04-06T07:43:05.000Z</time>
      </trkpt>
      <trkpt lat="47.5093" lon="6.78677">
        <ele>319</ele>
        <time>2015-04-06T07:43:06.000Z</time>
      </trkpt>
      <trkpt lat="47.5093" lon="6.78684">
        <ele>319</ele>
        <time>2015-04-06T07:43:07.000Z</time>
      </trkpt>
      <trkpt lat="47.50927" lon="6.78696">
        <ele>319</ele>
        <time>2015-04-06T07:43:08.000Z</time>
      </trkpt>
      <trkpt lat="47.50925" lon="6.78703">
        <ele>319</ele>
        <time>2015-04-06T07:43:09.000Z</time>
      </trkpt>
      <trkpt lat="47.50924" lon="6.78711">
        <ele>319</ele>
        <time>2015-04-06T07:43:10.000Z</time>
      </trkpt>
      <trkpt lat="47.50923" lon="6.78719">
        <ele>319</ele>
        <time>2015-04-06T07:43:11.000Z</time>
      </trkpt>
      <trkpt lat="47.50922" lon="6.78726">
        <ele>319</ele>
        <time>2015-04-06T07:43:11.998Z</time>
      </trkpt>
      <trkpt lat="47.50912" lon="6.78726">
        <ele>318</ele>
        <time>2015-04-06T07:43:13.000Z</time>
      </trkpt>
      <trkpt lat="47.5091" lon="6.78727">
        <ele>318</ele>
        <time>2015-04-06T07:43:18.000Z</time>
      </trkpt>
      <trkpt lat="47.50906" lon="6.78724">
        <ele>317</ele>
        <time>2015-04-06T07:43:19.000Z</time>
      </trkpt>
      <trkpt lat="47.50901" lon="6.78723">
        <ele>317</ele>
        <time>2015-04-06T07:43:20.000Z</time>
      </trkpt>
      <trkpt lat="47.50896" lon="6.78721">
        <ele>317</ele>
        <time>2015-04-06T07:43:21.000Z</time>
      </trkpt>
      <trkpt lat="47.50892" lon="6.7872">
        <ele>317</ele>
        <time>2015-04-06T07:43:22.000Z</time>
      </trkpt>
      <trkpt lat="47.50885" lon="6.78718">
        <ele>317</ele>
        <time>2015-04-06T07:43:23.000Z</time>
      </trkpt>
      <trkpt lat="47.5088" lon="6.78715">
        <ele>317</ele>
        <time>2015-04-06T07:43:24.000Z</time>
      </trkpt>
      <trkpt lat="47.50876" lon="6.78713">
        <ele>317</ele>
        <time>2015-04-06T07:43:25.000Z</time>
      </trkpt>
      <trkpt lat="47.50871" lon="6.78711">
        <ele>316</ele>
        <time>2015-04-06T07:43:26.000Z</time>
      </trkpt>
      <trkpt lat="47.50867" lon="6.78711">
        <ele>316</ele>
        <time>2015-04-06T07:43:27.000Z</time>
      </trkpt>
      <trkpt lat="47.50864" lon="6.78708">
        <ele>316</ele>
        <time>2015-04-06T07:43:28.000Z</time>
      </trkpt>
      <trkpt lat="47.50862" lon="6.78705">
        <ele>316</ele>
        <time>2015-04-06T07:43:29.000Z</time>
      </trkpt>
      <trkpt lat="47.50856" lon="6.78705">
        <ele>316</ele>
        <time>2015-04-06T07:43:30.000Z</time>
      </trkpt>
      <trkpt lat="47.50852" lon="6.78701">
        <ele>316</ele>
        <time>2015-04-06T07:43:31.000Z</time>
      </trkpt>
      <trkpt lat="47.50847" lon="6.78701">
        <ele>316</ele>
        <time>2015-04-06T07:43:32.000Z</time>
      </trkpt>
      <trkpt lat="47.50843" lon="6.78699">
        <ele>316</ele>
        <time>2015-04-06T07:43:33.000Z</time>
      </trkpt>
      <trkpt lat="47.50837" lon="6.78696">
        <ele>316</ele>
        <time>2015-04-06T07:43:34.000Z</time>
      </trkpt>
      <trkpt lat="47.50832" lon="6.78694">
        <ele>315</ele>
        <time>2015-04-06T07:43:35.000Z</time>
      </trkpt>
      <trkpt lat="47.50828" lon="6.78694">
        <ele>316</ele>
        <time>2015-04-06T07:43:36.000Z</time>
      </trkpt>
      <trkpt lat="47.50824" lon="6.78693">
        <ele>316</ele>
        <time>2015-04-06T07:43:37.000Z</time>
      </trkpt>
      <trkpt lat="47.5082" lon="6.78692">
        <ele>316</ele>
        <time>2015-04-06T07:43:38.000Z</time>
      </trkpt>
      <trkpt lat="47.50812" lon="6.78689">
        <ele>316</ele>
        <time>2015-04-06T07:43:39.000Z</time>
      </trkpt>
      <trkpt lat="47.50805" lon="6.78686">
        <ele>316</ele>
        <time>2015-04-06T07:43:40.000Z</time>
      </trkpt>
      <trkpt lat="47.50801" lon="6.78686">
        <ele>316</ele>
        <time>2015-04-06T07:43:41.000Z</time>
      </trkpt>
      <trkpt lat="47.50795" lon="6.78687">
        <ele>316</ele>
        <time>2015-04-06T07:43:42.000Z</time>
      </trkpt>
      <trkpt lat="47.50789" lon="6.78689">
        <ele>316</ele>
        <time>2015-04-06T07:43:43.000Z</time>
      </trkpt>
      <trkpt lat="47.50783" lon="6.78689">
        <ele>316</ele>
        <time>2015-04-06T07:43:44.000Z</time>
      </trkpt>
      <trkpt lat="47.50779" lon="6.78694">
        <ele>316</ele>
        <time>2015-04-06T07:43:45.000Z</time>
      </trkpt>
      <trkpt lat="47.50774" lon="6.78694">
        <ele>316</ele>
        <time>2015-04-06T07:43:46.000Z</time>
      </trkpt>
      <trkpt lat="47.5077" lon="6.78701">
        <ele>316</ele>
        <time>2015-04-06T07:43:47.000Z</time>
      </trkpt>
      <trkpt lat="47.50764" lon="6.78705">
        <ele>316</ele>
        <time>2015-04-06T07:43:48.000Z</time>
      </trkpt>
      <trkpt lat="47.50759" lon="6.78711">
        <ele>316</ele>
        <time>2015-04-06T07:43:49.000Z</time>
      </trkpt>
      <trkpt lat="47.50752" lon="6.78715">
        <ele>317</ele>
        <time>2015-04-06T07:43:50.000Z</time>
      </trkpt>
      <trkpt lat="47.50741" lon="6.78719">
        <ele>317</ele>
        <time>2015-04-06T07:43:52.000Z</time>
      </trkpt>
      <trkpt lat="47.50735" lon="6.78718">
        <ele>317</ele>
        <time>2015-04-06T07:43:53.000Z</time>
      </trkpt>
      <trkpt lat="47.50729" lon="6.78716">
        <ele>317</ele>
        <time>2015-04-06T07:43:54.000Z</time>
      </trkpt>
      <trkpt lat="47.50722" lon="6.78717">
        <ele>317</ele>
        <time>2015-04-06T07:43:55.000Z</time>
      </trkpt>
      <trkpt lat="47.50716" lon="6.78717">
        <ele>317</ele>
        <time>2015-04-06T07:43:56.000Z</time>
      </trkpt>
      <trkpt lat="47.50712" lon="6.78718">
        <ele>317</ele>
        <time>2015-04-06T07:43:57.000Z</time>
      </trkpt>
      <trkpt lat="47.50707" lon="6.78719">
        <ele>317</ele>
        <time>2015-04-06T07:43:58.000Z</time>
      </trkpt>
      <trkpt lat="47.50701" lon="6.7872">
        <ele>317</ele>
        <time>2015-04-06T07:43:59.000Z</time>
      </trkpt>
      <trkpt lat="47.50695" lon="6.7872">
        <ele>317</ele>
        <time>2015-04-06T07:44:00.000Z</time>
      </trkpt>
      <trkpt lat="47.5069" lon="6.78723">
        <ele>317</ele>
        <time>2015-04-06T07:44:01.000Z</time>
      </trkpt>
      <trkpt lat="47.50684" lon="6.78725">
        <ele>317</ele>
        <time>2015-04-06T07:44:02.000Z</time>
      </trkpt>
      <trkpt lat="47.50679" lon="6.78724">
        <ele>317</ele>
        <time>2015-04-06T07:44:03.000Z</time>
      </trkpt>
      <trkpt lat="47.50673" lon="6.78722">
        <ele>317</ele>
        <time>2015-04-06T07:44:04.000Z</time>
      </trkpt>
      <trkpt lat="47.50666" lon="6.78726">
        <ele>316</ele>
        <time>2015-04-06T07:44:05.000Z</time>
      </trkpt>
      <trkpt lat="47.50659" lon="6.78731">
        <ele>316</ele>
        <time>2015-04-06T07:44:06.000Z</time>
      </trkpt>
      <trkpt lat="47.50654" lon="6.78736">
        <ele>316</ele>
        <time>2015-04-06T07:44:07.000Z</time>
      </trkpt>
      <trkpt lat="47.50651" lon="6.78739">
        <ele>316</ele>
        <time>2015-04-06T07:44:08.000Z</time>
      </trkpt>
      <trkpt lat="47.50646" lon="6.78743">
        <ele>316</ele>
        <time>2015-04-06T07:44:09.000Z</time>
      </trkpt>
      <trkpt lat="47.50641" lon="6.78745">
        <ele>316</ele>
        <time>2015-04-06T07:44:10.000Z</time>
      </trkpt>
      <trkpt lat="47.50636" lon="6.78751">
        <ele>315</ele>
        <time>2015-04-06T07:44:11.000Z</time>
      </trkpt>
      <trkpt lat="47.50632" lon="6.78753">
        <ele>315</ele>
        <time>2015-04-06T07:44:12.000Z</time>
      </trkpt>
      <trkpt lat="47.50628" lon="6.78757">
        <ele>315</ele>
        <time>2015-04-06T07:44:13.001Z</time>
      </trkpt>
      <trkpt lat="47.50624" lon="6.78762">
        <ele>315</ele>
        <time>2015-04-06T07:44:14.000Z</time>
      </trkpt>
      <trkpt lat="47.5062" lon="6.78766">
        <ele>315</ele>
        <time>2015-04-06T07:44:15.000Z</time>
      </trkpt>
      <trkpt lat="47.50613" lon="6.78768">
        <ele>315</ele>
        <time>2015-04-06T07:44:16.000Z</time>
      </trkpt>
      <trkpt lat="47.50608" lon="6.78768">
        <ele>314</ele>
        <time>2015-04-06T07:44:17.000Z</time>
      </trkpt>
      <trkpt lat="47.50603" lon="6.78768">
        <ele>314</ele>
        <time>2015-04-06T07:44:18.000Z</time>
      </trkpt>
      <trkpt lat="47.50599" lon="6.78769">
        <ele>314</ele>
        <time>2015-04-06T07:44:19.000Z</time>
      </trkpt>
      <trkpt lat="47.50592" lon="6.78768">
        <ele>314</ele>
        <time>2015-04-06T07:44:20.000Z</time>
      </trkpt>
      <trkpt lat="47.50585" lon="6.78768">
        <ele>314</ele>
        <time>2015-04-06T07:44:21.000Z</time>
      </trkpt>
      <trkpt lat="47.50579" lon="6.78768">
        <ele>314</ele>
        <time>2015-04-06T07:44:22.000Z</time>
      </trkpt>
      <trkpt lat="47.50574" lon="6.78766">
        <ele>314</ele>
        <time>2015-04-06T07:44:23.000Z</time>
      </trkpt>
      <trkpt lat="47.50568" lon="6.78766">
        <ele>314</ele>
        <time>2015-04-06T07:44:24.000Z</time>
      </trkpt>
      <trkpt lat="47.50563" lon="6.78766">
        <ele>314</ele>
        <time>2015-04-06T07:44:25.000Z</time>
      </trkpt>
      <trkpt lat="47.50558" lon="6.78766">
        <ele>314</ele>
        <time>2015-04-06T07:44:26.000Z</time>
      </trkpt>
      <trkpt lat="47.50554" lon="6.78764">
        <ele>314</ele>
        <time>2015-04-06T07:44:27.000Z</time>
      </trkpt>
      <trkpt lat="47.50548" lon="6.78763">
        <ele>314</ele>
        <time>2015-04-06T07:44:28.000Z</time>
      </trkpt>
      <trkpt lat="47.50542" lon="6.78764">
        <ele>314</ele>
        <time>2015-04-06T07:44:29.000Z</time>
      </trkpt>
      <trkpt lat="47.50535" lon="6.78762">
        <ele>314</ele>
        <time>2015-04-06T07:44:30.000Z</time>
      </trkpt>
      <trkpt lat="47.5053" lon="6.7876">
        <ele>314</ele>
        <time>2015-04-06T07:44:31.000Z</time>
      </trkpt>
      <trkpt lat="47.50524" lon="6.78757">
        <ele>314</ele>
        <time>2015-04-06T07:44:32.000Z</time>
      </trkpt>
      <trkpt lat="47.50519" lon="6.78758">
        <ele>314</ele>
        <time>2015-04-06T07:44:33.000Z</time>
      </trkpt>
      <trkpt lat="47.50514" lon="6.78758">
        <ele>313</ele>
        <time>2015-04-06T07:44:34.000Z</time>
      </trkpt>
      <trkpt lat="47.50511" lon="6.7876">
        <ele>313</ele>
        <time>2015-04-06T07:44:35.000Z</time>
      </trkpt>
      <trkpt lat="47.50508" lon="6.78758">
        <ele>313</ele>
        <time>2015-04-06T07:44:36.000Z</time>
      </trkpt>
      <trkpt lat="47.50504" lon="6.78758">
        <ele>313</ele>
        <time>2015-04-06T07:44:37.000Z</time>
      </trkpt>
      <trkpt lat="47.505" lon="6.78756">
        <ele>313</ele>
        <time>2015-04-06T07:44:38.000Z</time>
      </trkpt>
      <trkpt lat="47.50496" lon="6.78758">
        <ele>313</ele>
        <time>2015-04-06T07:44:39.000Z</time>
      </trkpt>
      <trkpt lat="47.50492" lon="6.78759">
        <ele>313</ele>
        <time>2015-04-06T07:44:40.000Z</time>
      </trkpt>
      <trkpt lat="47.50489" lon="6.78757">
        <ele>313</ele>
        <time>2015-04-06T07:44:41.000Z</time>
      </trkpt>
      <trkpt lat="47.50487" lon="6.78752">
        <ele>313</ele>
        <time>2015-04-06T07:44:42.000Z</time>
      </trkpt>
      <trkpt lat="47.50485" lon="6.78747">
        <ele>314</ele>
        <time>2015-04-06T07:44:43.000Z</time>
      </trkpt>
      <trkpt lat="47.50485" lon="6.78739">
        <ele>314</ele>
        <time>2015-04-06T07:44:44.000Z</time>
      </trkpt>
      <trkpt lat="47.50483" lon="6.78732">
        <ele>314</ele>
        <time>2015-04-06T07:44:45.000Z</time>
      </trkpt>
      <trkpt lat="47.5048" lon="6.78726">
        <ele>314</ele>
        <time>2015-04-06T07:44:46.000Z</time>
      </trkpt>
      <trkpt lat="47.50478" lon="6.78718">
        <ele>314</ele>
        <time>2015-04-06T07:44:47.000Z</time>
      </trkpt>
      <trkpt lat="47.50471" lon="6.78712">
        <ele>315</ele>
        <time>2015-04-06T07:44:48.000Z</time>
      </trkpt>
      <trkpt lat="47.50466" lon="6.78707">
        <ele>315</ele>
        <time>2015-04-06T07:44:49.000Z</time>
      </trkpt>
      <trkpt lat="47.50463" lon="6.78704">
        <ele>315</ele>
        <time>2015-04-06T07:44:50.000Z</time>
      </trkpt>
      <trkpt lat="47.50452" lon="6.78701">
        <ele>315</ele>
        <time>2015-04-06T07:44:52.000Z</time>
      </trkpt>
      <trkpt lat="47.50446" lon="6.78702">
        <ele>315</ele>
        <time>2015-04-06T07:44:53.000Z</time>
      </trkpt>
      <trkpt lat="47.5044" lon="6.78706">
        <ele>315</ele>
        <time>2015-04-06T07:44:54.000Z</time>
      </trkpt>
      <trkpt lat="47.50437" lon="6.78708">
        <ele>315</ele>
        <time>2015-04-06T07:44:55.000Z</time>
      </trkpt>
      <trkpt lat="47.50434" lon="6.78713">
        <ele>315</ele>
        <time>2015-04-06T07:44:56.000Z</time>
      </trkpt>
      <trkpt lat="47.50431" lon="6.78721">
        <ele>315</ele>
        <time>2015-04-06T07:44:57.000Z</time>
      </trkpt>
      <trkpt lat="47.50427" lon="6.78729">
        <ele>315</ele>
        <time>2015-04-06T07:44:58.000Z</time>
      </trkpt>
      <trkpt lat="47.50428" lon="6.78739">
        <ele>314</ele>
        <time>2015-04-06T07:44:59.000Z</time>
      </trkpt>
      <trkpt lat="47.50428" lon="6.78745">
        <ele>314</ele>
        <time>2015-04-06T07:45:00.000Z</time>
      </trkpt>
      <trkpt lat="47.50429" lon="6.78752">
        <ele>314</ele>
        <time>2015-04-06T07:45:02.000Z</time>
      </trkpt>
      <trkpt lat="47.50428" lon="6.78757">
        <ele>314</ele>
        <time>2015-04-06T07:45:03.000Z</time>
      </trkpt>
      <trkpt lat="47.50424" lon="6.78757">
        <ele>314</ele>
        <time>2015-04-06T07:45:05.000Z</time>
      </trkpt>
      <trkpt lat="47.50421" lon="6.78757">
        <ele>314</ele>
        <time>2015-04-06T07:45:06.000Z</time>
      </trkpt>
      <trkpt lat="47.50419" lon="6.78755">
        <ele>314</ele>
        <time>2015-04-06T07:45:07.000Z</time>
      </trkpt>
      <trkpt lat="47.50416" lon="6.78755">
        <ele>316</ele>
        <time>2015-04-06T07:45:08.000Z</time>
      </trkpt>
      <trkpt lat="47.50411" lon="6.78756">
        <ele>317</ele>
        <time>2015-04-06T07:45:10.000Z</time>
      </trkpt>
      <trkpt lat="47.5041" lon="6.78757">
        <ele>317</ele>
        <time>2015-04-06T07:45:11.000Z</time>
      </trkpt>
      <trkpt lat="47.50409" lon="6.7876">
        <ele>318</ele>
        <time>2015-04-06T07:45:12.000Z</time>
      </trkpt>
      <trkpt lat="47.50408" lon="6.78764">
        <ele>318</ele>
        <time>2015-04-06T07:45:13.000Z</time>
      </trkpt>
      <trkpt lat="47.50408" lon="6.78769">
        <ele>319</ele>
        <time>2015-04-06T07:45:14.000Z</time>
      </trkpt>
      <trkpt lat="47.50408" lon="6.78775">
        <ele>320</ele>
        <time>2015-04-06T07:45:15.000Z</time>
      </trkpt>
      <trkpt lat="47.50409" lon="6.78782">
        <ele>320</ele>
        <time>2015-04-06T07:45:16.000Z</time>
      </trkpt>
      <trkpt lat="47.50411" lon="6.788">
        <ele>320</ele>
        <time>2015-04-06T07:45:17.000Z</time>
      </trkpt>
      <trkpt lat="47.50412" lon="6.78806">
        <ele>319</ele>
        <time>2015-04-06T07:45:18.000Z</time>
      </trkpt>
      <trkpt lat="47.50411" lon="6.78812">
        <ele>318</ele>
        <time>2015-04-06T07:45:19.000Z</time>
      </trkpt>
      <trkpt lat="47.50409" lon="6.78819">
        <ele>317</ele>
        <time>2015-04-06T07:45:20.000Z</time>
      </trkpt>
      <trkpt lat="47.5041" lon="6.78827">
        <ele>316</ele>
        <time>2015-04-06T07:45:21.000Z</time>
      </trkpt>
      <trkpt lat="47.5041" lon="6.7883">
        <ele>315</ele>
        <time>2015-04-06T07:45:22.000Z</time>
      </trkpt>
      <trkpt lat="47.5041" lon="6.78843">
        <ele>315</ele>
        <time>2015-04-06T07:45:23.000Z</time>
      </trkpt>
      <trkpt lat="47.50409" lon="6.78852">
        <ele>317</ele>
        <time>2015-04-06T07:45:24.000Z</time>
      </trkpt>
      <trkpt lat="47.50409" lon="6.78859">
        <ele>317</ele>
        <time>2015-04-06T07:45:25.000Z</time>
      </trkpt>
      <trkpt lat="47.50408" lon="6.78865">
        <ele>318</ele>
        <time>2015-04-06T07:45:26.000Z</time>
      </trkpt>
      <trkpt lat="47.50409" lon="6.78874">
        <ele>318</ele>
        <time>2015-04-06T07:45:27.000Z</time>
      </trkpt>
      <trkpt lat="47.5041" lon="6.78882">
        <ele>317</ele>
        <time>2015-04-06T07:45:28.000Z</time>
      </trkpt>
      <trkpt lat="47.5041" lon="6.78894">
        <ele>317</ele>
        <time>2015-04-06T07:45:29.000Z</time>
      </trkpt>
      <trkpt lat="47.5041" lon="6.78903">
        <ele>315</ele>
        <time>2015-04-06T07:45:30.000Z</time>
      </trkpt>
      <trkpt lat="47.50407" lon="6.78914">
        <ele>314</ele>
        <time>2015-04-06T07:45:31.000Z</time>
      </trkpt>
      <trkpt lat="47.50406" lon="6.78925">
        <ele>315</ele>
        <time>2015-04-06T07:45:32.000Z</time>
      </trkpt>
      <trkpt lat="47.50405" lon="6.78933">
        <ele>316</ele>
        <time>2015-04-06T07:45:33.000Z</time>
      </trkpt>
      <trkpt lat="47.50406" lon="6.78941">
        <ele>316</ele>
        <time>2015-04-06T07:45:34.000Z</time>
      </trkpt>
      <trkpt lat="47.50409" lon="6.78946">
        <ele>317</ele>
        <time>2015-04-06T07:45:35.000Z</time>
      </trkpt>
      <trkpt lat="47.50411" lon="6.78951">
        <ele>317</ele>
        <time>2015-04-06T07:45:36.000Z</time>
      </trkpt>
      <trkpt lat="47.50411" lon="6.78959">
        <ele>317</ele>
        <time>2015-04-06T07:45:37.000Z</time>
      </trkpt>
      <trkpt lat="47.5041" lon="6.78966">
        <ele>317</ele>
        <time>2015-04-06T07:45:38.000Z</time>
      </trkpt>
      <trkpt lat="47.5041" lon="6.78975">
        <ele>317</ele>
        <time>2015-04-06T07:45:39.000Z</time>
      </trkpt>
      <trkpt lat="47.50412" lon="6.78981">
        <ele>317</ele>
        <time>2015-04-06T07:45:40.000Z</time>
      </trkpt>
      <trkpt lat="47.50412" lon="6.78993">
        <ele>316</ele>
        <time>2015-04-06T07:45:41.000Z</time>
      </trkpt>
      <trkpt lat="47.50412" lon="6.79">
        <ele>315</ele>
        <time>2015-04-06T07:45:42.000Z</time>
      </trkpt>
      <trkpt lat="47.50414" lon="6.79008">
        <ele>315</ele>
        <time>2015-04-06T07:45:43.000Z</time>
      </trkpt>
      <trkpt lat="47.50415" lon="6.79018">
        <ele>317</ele>
        <time>2015-04-06T07:45:44.000Z</time>
      </trkpt>
      <trkpt lat="47.50415" lon="6.79029">
        <ele>317</ele>
        <time>2015-04-06T07:45:45.000Z</time>
      </trkpt>
      <trkpt lat="47.50416" lon="6.79037">
        <ele>318</ele>
        <time>2015-04-06T07:45:46.000Z</time>
      </trkpt>
      <trkpt lat="47.50414" lon="6.79044">
        <ele>318</ele>
        <time>2015-04-06T07:45:47.000Z</time>
      </trkpt>
      <trkpt lat="47.50415" lon="6.79051">
        <ele>318</ele>
        <time>2015-04-06T07:45:48.000Z</time>
      </trkpt>
      <trkpt lat="47.50417" lon="6.79058">
        <ele>315</ele>
        <time>2015-04-06T07:45:49.000Z</time>
      </trkpt>
      <trkpt lat="47.50419" lon="6.79066">
        <ele>315</ele>
        <time>2015-04-06T07:45:50.000Z</time>
      </trkpt>
      <trkpt lat="47.50423" lon="6.79086">
        <ele>315</ele>
        <time>2015-04-06T07:45:52.000Z</time>
      </trkpt>
      <trkpt lat="47.50423" lon="6.79094">
        <ele>315</ele>
        <time>2015-04-06T07:45:53.000Z</time>
      </trkpt>
      <trkpt lat="47.50425" lon="6.79104">
        <ele>315</ele>
        <time>2015-04-06T07:45:54.000Z</time>
      </trkpt>
      <trkpt lat="47.50426" lon="6.79114">
        <ele>315</ele>
        <time>2015-04-06T07:45:55.000Z</time>
      </trkpt>
      <trkpt lat="47.50428" lon="6.79121">
        <ele>315</ele>
        <time>2015-04-06T07:45:56.000Z</time>
      </trkpt>
      <trkpt lat="47.50431" lon="6.79123">
        <ele>315</ele>
        <time>2015-04-06T07:45:57.000Z</time>
      </trkpt>
      <trkpt lat="47.50434" lon="6.79128">
        <ele>314</ele>
        <time>2015-04-06T07:45:58.000Z</time>
      </trkpt>
      <trkpt lat="47.50437" lon="6.79134">
        <ele>314</ele>
        <time>2015-04-06T07:45:59.000Z</time>
      </trkpt>
      <trkpt lat="47.5044" lon="6.79139">
        <ele>314</ele>
        <time>2015-04-06T07:46:00.000Z</time>
      </trkpt>
      <trkpt lat="47.5044" lon="6.79144">
        <ele>314</ele>
        <time>2015-04-06T07:46:01.000Z</time>
      </trkpt>
      <trkpt lat="47.5044" lon="6.79149">
        <ele>314</ele>
        <time>2015-04-06T07:46:02.000Z</time>
      </trkpt>
      <trkpt lat="47.50442" lon="6.79157">
        <ele>314</ele>
        <time>2015-04-06T07:46:03.000Z</time>
      </trkpt>
      <trkpt lat="47.50445" lon="6.79164">
        <ele>314</ele>
        <time>2015-04-06T07:46:04.000Z</time>
      </trkpt>
      <trkpt lat="47.50448" lon="6.79172">
        <ele>313</ele>
        <time>2015-04-06T07:46:05.000Z</time>
      </trkpt>
      <trkpt lat="47.50451" lon="6.7918">
        <ele>313</ele>
        <time>2015-04-06T07:46:06.000Z</time>
      </trkpt>
      <trkpt lat="47.50452" lon="6.79186">
        <ele>313</ele>
        <time>2015-04-06T07:46:07.000Z</time>
      </trkpt>
      <trkpt lat="47.50452" lon="6.79193">
        <ele>313</ele>
        <time>2015-04-06T07:46:08.000Z</time>
      </trkpt>
      <trkpt lat="47.50452" lon="6.79201">
        <ele>313</ele>
        <time>2015-04-06T07:46:09.000Z</time>
      </trkpt>
      <trkpt lat="47.50453" lon="6.7921">
        <ele>313</ele>
        <time>2015-04-06T07:46:10.000Z</time>
      </trkpt>
      <trkpt lat="47.50456" lon="6.79218">
        <ele>312</ele>
        <time>2015-04-06T07:46:11.000Z</time>
      </trkpt>
      <trkpt lat="47.50458" lon="6.79228">
        <ele>312</ele>
        <time>2015-04-06T07:46:12.000Z</time>
      </trkpt>
      <trkpt lat="47.5046" lon="6.79235">
        <ele>312</ele>
        <time>2015-04-06T07:46:13.000Z</time>
      </trkpt>
      <trkpt lat="47.50463" lon="6.79244">
        <ele>312</ele>
        <time>2015-04-06T07:46:14.000Z</time>
      </trkpt>
      <trkpt lat="47.50464" lon="6.79252">
        <ele>312</ele>
        <time>2015-04-06T07:46:15.000Z</time>
      </trkpt>
      <trkpt lat="47.50466" lon="6.79259">
        <ele>312</ele>
        <time>2015-04-06T07:46:16.000Z</time>
      </trkpt>
      <trkpt lat="47.50468" lon="6.79268">
        <ele>312</ele>
        <time>2015-04-06T07:46:17.000Z</time>
      </trkpt>
      <trkpt lat="47.50471" lon="6.79273">
        <ele>312</ele>
        <time>2015-04-06T07:46:18.000Z</time>
      </trkpt>
      <trkpt lat="47.50472" lon="6.79277">
        <ele>312</ele>
        <time>2015-04-06T07:46:19.000Z</time>
      </trkpt>
      <trkpt lat="47.50472" lon="6.79287">
        <ele>313</ele>
        <time>2015-04-06T07:46:20.000Z</time>
      </trkpt>
      <trkpt lat="47.50472" lon="6.79294">
        <ele>313</ele>
        <time>2015-04-06T07:46:21.000Z</time>
      </trkpt>
      <trkpt lat="47.50473" lon="6.79304">
        <ele>313</ele>
        <time>2015-04-06T07:46:22.000Z</time>
      </trkpt>
      <trkpt lat="47.50475" lon="6.79309">
        <ele>313</ele>
        <time>2015-04-06T07:46:23.000Z</time>
      </trkpt>
      <trkpt lat="47.50476" lon="6.79318">
        <ele>313</ele>
        <time>2015-04-06T07:46:24.000Z</time>
      </trkpt>
      <trkpt lat="47.50476" lon="6.79326">
        <ele>313</ele>
        <time>2015-04-06T07:46:25.000Z</time>
      </trkpt>
      <trkpt lat="47.50478" lon="6.79334">
        <ele>314</ele>
        <time>2015-04-06T07:46:26.000Z</time>
      </trkpt>
      <trkpt lat="47.50478" lon="6.79342">
        <ele>314</ele>
        <time>2015-04-06T07:46:27.000Z</time>
      </trkpt>
      <trkpt lat="47.5048" lon="6.7935">
        <ele>314</ele>
        <time>2015-04-06T07:46:28.000Z</time>
      </trkpt>
      <trkpt lat="47.50482" lon="6.79356">
        <ele>314</ele>
        <time>2015-04-06T07:46:29.000Z</time>
      </trkpt>
      <trkpt lat="47.50486" lon="6.79364">
        <ele>314</ele>
        <time>2015-04-06T07:46:30.000Z</time>
      </trkpt>
      <trkpt lat="47.50486" lon="6.79372">
        <ele>314</ele>
        <time>2015-04-06T07:46:31.000Z</time>
      </trkpt>
      <trkpt lat="47.50487" lon="6.79381">
        <ele>315</ele>
        <time>2015-04-06T07:46:32.000Z</time>
      </trkpt>
      <trkpt lat="47.50488" lon="6.79388">
        <ele>315</ele>
        <time>2015-04-06T07:46:33.000Z</time>
      </trkpt>
      <trkpt lat="47.5049" lon="6.79397">
        <ele>315</ele>
        <time>2015-04-06T07:46:34.000Z</time>
      </trkpt>
      <trkpt lat="47.5049" lon="6.79406">
        <ele>315</ele>
        <time>2015-04-06T07:46:35.000Z</time>
      </trkpt>
      <trkpt lat="47.5049" lon="6.79414">
        <ele>315</ele>
        <time>2015-04-06T07:46:36.000Z</time>
      </trkpt>
      <trkpt lat="47.5049" lon="6.79422">
        <ele>316</ele>
        <time>2015-04-06T07:46:37.000Z</time>
      </trkpt>
      <trkpt lat="47.50488" lon="6.79429">
        <ele>316</ele>
        <time>2015-04-06T07:46:38.000Z</time>
      </trkpt>
      <trkpt lat="47.50486" lon="6.79437">
        <ele>316</ele>
        <time>2015-04-06T07:46:39.000Z</time>
      </trkpt>
      <trkpt lat="47.50486" lon="6.79444">
        <ele>316</ele>
        <time>2015-04-06T07:46:40.000Z</time>
      </trkpt>
      <trkpt lat="47.50486" lon="6.79451">
        <ele>317</ele>
        <time>2015-04-06T07:46:41.000Z</time>
      </trkpt>
      <trkpt lat="47.50485" lon="6.7946">
        <ele>317</ele>
        <time>2015-04-06T07:46:42.000Z</time>
      </trkpt>
      <trkpt lat="47.50483" lon="6.79469">
        <ele>317</ele>
        <time>2015-04-06T07:46:43.000Z</time>
      </trkpt>
      <trkpt lat="47.50484" lon="6.79475">
        <ele>317</ele>
        <time>2015-04-06T07:46:44.000Z</time>
      </trkpt>
      <trkpt lat="47.50485" lon="6.79483">
        <ele>317</ele>
        <time>2015-04-06T07:46:45.000Z</time>
      </trkpt>
      <trkpt lat="47.50485" lon="6.7949">
        <ele>317</ele>
        <time>2015-04-06T07:46:46.000Z</time>
      </trkpt>
      <trkpt lat="47.50485" lon="6.79497">
        <ele>317</ele>
        <time>2015-04-06T07:46:46.999Z</time>
      </trkpt>
      <trkpt lat="47.50488" lon="6.79505">
        <ele>317</ele>
        <time>2015-04-06T07:46:48.000Z</time>
      </trkpt>
      <trkpt lat="47.50489" lon="6.79513">
        <ele>317</ele>
        <time>2015-04-06T07:46:49.001Z</time>
      </trkpt>
      <trkpt lat="47.50491" lon="6.79521">
        <ele>317</ele>
        <time>2015-04-06T07:46:50.000Z</time>
      </trkpt>
      <trkpt lat="47.50491" lon="6.79536">
        <ele>317</ele>
        <time>2015-04-06T07:46:52.000Z</time>
      </trkpt>
      <trkpt lat="47.50493" lon="6.79543">
        <ele>317</ele>
        <time>2015-04-06T07:46:53.000Z</time>
      </trkpt>
      <trkpt lat="47.50495" lon="6.79551">
        <ele>317</ele>
        <time>2015-04-06T07:46:54.000Z</time>
      </trkpt>
      <trkpt lat="47.50497" lon="6.79559">
        <ele>316</ele>
        <time>2015-04-06T07:46:55.000Z</time>
      </trkpt>
      <trkpt lat="47.50499" lon="6.79564">
        <ele>316</ele>
        <time>2015-04-06T07:46:56.000Z</time>
      </trkpt>
      <trkpt lat="47.50499" lon="6.79572">
        <ele>315</ele>
        <time>2015-04-06T07:46:57.000Z</time>
      </trkpt>
      <trkpt lat="47.50498" lon="6.79581">
        <ele>314</ele>
        <time>2015-04-06T07:46:58.000Z</time>
      </trkpt>
      <trkpt lat="47.50499" lon="6.79589">
        <ele>314</ele>
        <time>2015-04-06T07:46:59.000Z</time>
      </trkpt>
      <trkpt lat="47.50501" lon="6.79597">
        <ele>314</ele>
        <time>2015-04-06T07:47:00.000Z</time>
      </trkpt>
      <trkpt lat="47.50501" lon="6.79606">
        <ele>314</ele>
        <time>2015-04-06T07:47:01.000Z</time>
      </trkpt>
      <trkpt lat="47.50502" lon="6.79615">
        <ele>315</ele>
        <time>2015-04-06T07:47:02.000Z</time>
      </trkpt>
      <trkpt lat="47.50503" lon="6.79623">
        <ele>315</ele>
        <time>2015-04-06T07:47:03.000Z</time>
      </trkpt>
      <trkpt lat="47.50505" lon="6.7963">
        <ele>315</ele>
        <time>2015-04-06T07:47:04.000Z</time>
      </trkpt>
      <trkpt lat="47.50506" lon="6.79637">
        <ele>315</ele>
        <time>2015-04-06T07:47:05.000Z</time>
      </trkpt>
      <trkpt lat="47.50507" lon="6.79646">
        <ele>316</ele>
        <time>2015-04-06T07:47:06.000Z</time>
      </trkpt>
      <trkpt lat="47.50509" lon="6.79656">
        <ele>316</ele>
        <time>2015-04-06T07:47:07.000Z</time>
      </trkpt>
      <trkpt lat="47.50508" lon="6.79662">
        <ele>316</ele>
        <time>2015-04-06T07:47:08.000Z</time>
      </trkpt>
      <trkpt lat="47.50511" lon="6.79672">
        <ele>317</ele>
        <time>2015-04-06T07:47:09.000Z</time>
      </trkpt>
      <trkpt lat="47.50513" lon="6.79682">
        <ele>317</ele>
        <time>2015-04-06T07:47:10.000Z</time>
      </trkpt>
      <trkpt lat="47.50514" lon="6.79688">
        <ele>317</ele>
        <time>2015-04-06T07:47:11.000Z</time>
      </trkpt>
      <trkpt lat="47.50516" lon="6.79696">
        <ele>318</ele>
        <time>2015-04-06T07:47:12.000Z</time>
      </trkpt>
      <trkpt lat="47.50516" lon="6.79703">
        <ele>318</ele>
        <time>2015-04-06T07:47:13.000Z</time>
      </trkpt>
      <trkpt lat="47.50517" lon="6.7971">
        <ele>318</ele>
        <time>2015-04-06T07:47:14.000Z</time>
      </trkpt>
      <trkpt lat="47.50518" lon="6.79717">
        <ele>318</ele>
        <time>2015-04-06T07:47:15.000Z</time>
      </trkpt>
      <trkpt lat="47.5052" lon="6.79723">
        <ele>318</ele>
        <time>2015-04-06T07:47:16.000Z</time>
      </trkpt>
      <trkpt lat="47.5052" lon="6.7973">
        <ele>318</ele>
        <time>2015-04-06T07:47:17.000Z</time>
      </trkpt>
      <trkpt lat="47.50521" lon="6.79736">
        <ele>318</ele>
        <time>2015-04-06T07:47:18.000Z</time>
      </trkpt>
      <trkpt lat="47.50522" lon="6.79743">
        <ele>318</ele>
        <time>2015-04-06T07:47:19.000Z</time>
      </trkpt>
      <trkpt lat="47.50522" lon="6.7975">
        <ele>319</ele>
        <time>2015-04-06T07:47:20.000Z</time>
      </trkpt>
      <trkpt lat="47.50522" lon="6.79757">
        <ele>319</ele>
        <time>2015-04-06T07:47:21.000Z</time>
      </trkpt>
      <trkpt lat="47.50523" lon="6.79765">
        <ele>319</ele>
        <time>2015-04-06T07:47:22.000Z</time>
      </trkpt>
      <trkpt lat="47.50523" lon="6.79774">
        <ele>319</ele>
        <time>2015-04-06T07:47:23.000Z</time>
      </trkpt>
      <trkpt lat="47.50522" lon="6.79777">
        <ele>320</ele>
        <time>2015-04-06T07:47:24.000Z</time>
      </trkpt>
      <trkpt lat="47.50523" lon="6.79785">
        <ele>320</ele>
        <time>2015-04-06T07:47:25.000Z</time>
      </trkpt>
      <trkpt lat="47.50525" lon="6.79795">
        <ele>320</ele>
        <time>2015-04-06T07:47:26.000Z</time>
      </trkpt>
      <trkpt lat="47.50525" lon="6.79801">
        <ele>320</ele>
        <time>2015-04-06T07:47:27.000Z</time>
      </trkpt>
      <trkpt lat="47.50527" lon="6.79807">
        <ele>320</ele>
        <time>2015-04-06T07:47:28.000Z</time>
      </trkpt>
      <trkpt lat="47.50527" lon="6.79813">
        <ele>320</ele>
        <time>2015-04-06T07:47:29.000Z</time>
      </trkpt>
      <trkpt lat="47.50527" lon="6.79822">
        <ele>320</ele>
        <time>2015-04-06T07:47:30.000Z</time>
      </trkpt>
      <trkpt lat="47.50528" lon="6.79827">
        <ele>320</ele>
        <time>2015-04-06T07:47:31.000Z</time>
      </trkpt>
      <trkpt lat="47.50526" lon="6.79836">
        <ele>321</ele>
        <time>2015-04-06T07:47:32.000Z</time>
      </trkpt>
      <trkpt lat="47.50524" lon="6.79846">
        <ele>321</ele>
        <time>2015-04-06T07:47:33.000Z</time>
      </trkpt>
      <trkpt lat="47.50521" lon="6.79853">
        <ele>321</ele>
        <time>2015-04-06T07:47:34.000Z</time>
      </trkpt>
      <trkpt lat="47.50521" lon="6.7986">
        <ele>321</ele>
        <time>2015-04-06T07:47:35.000Z</time>
      </trkpt>
      <trkpt lat="47.5052" lon="6.79868">
        <ele>321</ele>
        <time>2015-04-06T07:47:36.000Z</time>
      </trkpt>
      <trkpt lat="47.5052" lon="6.79873">
        <ele>321</ele>
        <time>2015-04-06T07:47:37.000Z</time>
      </trkpt>
      <trkpt lat="47.5052" lon="6.79881">
        <ele>321</ele>
        <time>2015-04-06T07:47:38.000Z</time>
      </trkpt>
      <trkpt lat="47.50519" lon="6.79891">
        <ele>322</ele>
        <time>2015-04-06T07:47:39.000Z</time>
      </trkpt>
      <trkpt lat="47.50517" lon="6.79899">
        <ele>322</ele>
        <time>2015-04-06T07:47:40.000Z</time>
      </trkpt>
      <trkpt lat="47.50518" lon="6.79906">
        <ele>323</ele>
        <time>2015-04-06T07:47:41.000Z</time>
      </trkpt>
      <trkpt lat="47.50517" lon="6.79913">
        <ele>323</ele>
        <time>2015-04-06T07:47:42.000Z</time>
      </trkpt>
      <trkpt lat="47.50519" lon="6.79921">
        <ele>323</ele>
        <time>2015-04-06T07:47:43.000Z</time>
      </trkpt>
      <trkpt lat="47.50519" lon="6.79928">
        <ele>323</ele>
        <time>2015-04-06T07:47:44.000Z</time>
      </trkpt>
      <trkpt lat="47.50518" lon="6.79935">
        <ele>323</ele>
        <time>2015-04-06T07:47:45.000Z</time>
      </trkpt>
      <trkpt lat="47.50516" lon="6.79944">
        <ele>323</ele>
        <time>2015-04-06T07:47:46.000Z</time>
      </trkpt>
      <trkpt lat="47.50516" lon="6.79954">
        <ele>323</ele>
        <time>2015-04-06T07:47:47.000Z</time>
      </trkpt>
      <trkpt lat="47.50515" lon="6.79961">
        <ele>323</ele>
        <time>2015-04-06T07:47:48.000Z</time>
      </trkpt>
      <trkpt lat="47.50516" lon="6.7997">
        <ele>323</ele>
        <time>2015-04-06T07:47:49.000Z</time>
      </trkpt>
      <trkpt lat="47.50516" lon="6.79978">
        <ele>323</ele>
        <time>2015-04-06T07:47:50.000Z</time>
      </trkpt>
      <trkpt lat="47.50515" lon="6.79993">
        <ele>323</ele>
        <time>2015-04-06T07:47:52.000Z</time>
      </trkpt>
      <trkpt lat="47.50514" lon="6.80001">
        <ele>323</ele>
        <time>2015-04-06T07:47:53.000Z</time>
      </trkpt>
      <trkpt lat="47.50515" lon="6.80009">
        <ele>323</ele>
        <time>2015-04-06T07:47:54.000Z</time>
      </trkpt>
      <trkpt lat="47.50515" lon="6.80016">
        <ele>323</ele>
        <time>2015-04-06T07:47:55.000Z</time>
      </trkpt>
      <trkpt lat="47.50516" lon="6.80024">
        <ele>322</ele>
        <time>2015-04-06T07:47:56.000Z</time>
      </trkpt>
      <trkpt lat="47.50516" lon="6.8003">
        <ele>322</ele>
        <time>2015-04-06T07:47:57.000Z</time>
      </trkpt>
      <trkpt lat="47.50517" lon="6.80038">
        <ele>322</ele>
        <time>2015-04-06T07:47:58.000Z</time>
      </trkpt>
      <trkpt lat="47.50518" lon="6.80045">
        <ele>322</ele>
        <time>2015-04-06T07:47:59.000Z</time>
      </trkpt>
      <trkpt lat="47.50517" lon="6.80052">
        <ele>322</ele>
        <time>2015-04-06T07:48:00.000Z</time>
      </trkpt>
      <trkpt lat="47.50517" lon="6.80056">
        <ele>322</ele>
        <time>2015-04-06T07:48:01.000Z</time>
      </trkpt>
      <trkpt lat="47.50515" lon="6.80062">
        <ele>322</ele>
        <time>2015-04-06T07:48:02.000Z</time>
      </trkpt>
      <trkpt lat="47.50514" lon="6.80072">
        <ele>322</ele>
        <time>2015-04-06T07:48:03.000Z</time>
      </trkpt>
      <trkpt lat="47.50513" lon="6.80084">
        <ele>321</ele>
        <time>2015-04-06T07:48:04.000Z</time>
      </trkpt>
      <trkpt lat="47.50513" lon="6.80092">
        <ele>321</ele>
        <time>2015-04-06T07:48:05.000Z</time>
      </trkpt>
      <trkpt lat="47.50512" lon="6.80098">
        <ele>321</ele>
        <time>2015-04-06T07:48:06.000Z</time>
      </trkpt>
      <trkpt lat="47.50511" lon="6.80105">
        <ele>321</ele>
        <time>2015-04-06T07:48:07.000Z</time>
      </trkpt>
      <trkpt lat="47.50512" lon="6.80113">
        <ele>321</ele>
        <time>2015-04-06T07:48:08.000Z</time>
      </trkpt>
      <trkpt lat="47.50512" lon="6.80122">
        <ele>320</ele>
        <time>2015-04-06T07:48:09.000Z</time>
      </trkpt>
      <trkpt lat="47.50511" lon="6.80133">
        <ele>320</ele>
        <time>2015-04-06T07:48:10.000Z</time>
      </trkpt>
      <trkpt lat="47.50511" lon="6.80141">
        <ele>320</ele>
        <time>2015-04-06T07:48:11.000Z</time>
      </trkpt>
      <trkpt lat="47.50511" lon="6.8015">
        <ele>319</ele>
        <time>2015-04-06T07:48:12.000Z</time>
      </trkpt>
      <trkpt lat="47.5051" lon="6.80158">
        <ele>319</ele>
        <time>2015-04-06T07:48:13.000Z</time>
      </trkpt>
      <trkpt lat="47.5051" lon="6.80165">
        <ele>319</ele>
        <time>2015-04-06T07:48:14.000Z</time>
      </trkpt>
      <trkpt lat="47.50509" lon="6.80173">
        <ele>318</ele>
        <time>2015-04-06T07:48:15.000Z</time>
      </trkpt>
      <trkpt lat="47.50509" lon="6.80181">
        <ele>318</ele>
        <time>2015-04-06T07:48:16.000Z</time>
      </trkpt>
      <trkpt lat="47.50509" lon="6.80188">
        <ele>318</ele>
        <time>2015-04-06T07:48:17.000Z</time>
      </trkpt>
      <trkpt lat="47.5051" lon="6.80196">
        <ele>317</ele>
        <time>2015-04-06T07:48:18.000Z</time>
      </trkpt>
      <trkpt lat="47.5051" lon="6.80204">
        <ele>317</ele>
        <time>2015-04-06T07:48:19.000Z</time>
      </trkpt>
      <trkpt lat="47.5051" lon="6.80213">
        <ele>317</ele>
        <time>2015-04-06T07:48:19.999Z</time>
      </trkpt>
      <trkpt lat="47.50508" lon="6.80219">
        <ele>317</ele>
        <time>2015-04-06T07:48:21.000Z</time>
      </trkpt>
      <trkpt lat="47.50508" lon="6.80227">
        <ele>317</ele>
        <time>2015-04-06T07:48:22.000Z</time>
      </trkpt>
      <trkpt lat="47.50508" lon="6.80236">
        <ele>316</ele>
        <time>2015-04-06T07:48:23.000Z</time>
      </trkpt>
      <trkpt lat="47.50507" lon="6.80244">
        <ele>316</ele>
        <time>2015-04-06T07:48:24.000Z</time>
      </trkpt>
      <trkpt lat="47.50508" lon="6.8025">
        <ele>315</ele>
        <time>2015-04-06T07:48:25.000Z</time>
      </trkpt>
      <trkpt lat="47.50507" lon="6.80258">
        <ele>315</ele>
        <time>2015-04-06T07:48:26.000Z</time>
      </trkpt>
      <trkpt lat="47.50507" lon="6.80266">
        <ele>315</ele>
        <time>2015-04-06T07:48:27.000Z</time>
      </trkpt>
      <trkpt lat="47.50506" lon="6.80275">
        <ele>315</ele>
        <time>2015-04-06T07:48:28.000Z</time>
      </trkpt>
      <trkpt lat="47.50506" lon="6.80284">
        <ele>315</ele>
        <time>2015-04-06T07:48:29.000Z</time>
      </trkpt>
      <trkpt lat="47.50506" lon="6.80292">
        <ele>315</ele>
        <time>2015-04-06T07:48:30.000Z</time>
      </trkpt>
      <trkpt lat="47.50506" lon="6.803">
        <ele>315</ele>
        <time>2015-04-06T07:48:31.000Z</time>
      </trkpt>
      <trkpt lat="47.50504" lon="6.80309">
        <ele>315</ele>
        <time>2015-04-06T07:48:32.000Z</time>
      </trkpt>
      <trkpt lat="47.50505" lon="6.80317">
        <ele>315</ele>
        <time>2015-04-06T07:48:33.000Z</time>
      </trkpt>
      <trkpt lat="47.50505" lon="6.80324">
        <ele>315</ele>
        <time>2015-04-06T07:48:34.000Z</time>
      </trkpt>
      <trkpt lat="47.50505" lon="6.80333">
        <ele>315</ele>
        <time>2015-04-06T07:48:35.000Z</time>
      </trkpt>
      <trkpt lat="47.50505" lon="6.80341">
        <ele>315</ele>
        <time>2015-04-06T07:48:36.000Z</time>
      </trkpt>
      <trkpt lat="47.50507" lon="6.80348">
        <ele>315</ele>
        <time>2015-04-06T07:48:37.000Z</time>
      </trkpt>
      <trkpt lat="47.50507" lon="6.80358">
        <ele>316</ele>
        <time>2015-04-06T07:48:38.000Z</time>
      </trkpt>
      <trkpt lat="47.50506" lon="6.80366">
        <ele>316</ele>
        <time>2015-04-06T07:48:39.000Z</time>
      </trkpt>
      <trkpt lat="47.50507" lon="6.80374">
        <ele>316</ele>
        <time>2015-04-06T07:48:40.000Z</time>
      </trkpt>
      <trkpt lat="47.50507" lon="6.80384">
        <ele>316</ele>
        <time>2015-04-06T07:48:41.000Z</time>
      </trkpt>
      <trkpt lat="47.50508" lon="6.80392">
        <ele>316</ele>
        <time>2015-04-06T07:48:42.000Z</time>
      </trkpt>
      <trkpt lat="47.50507" lon="6.80402">
        <ele>316</ele>
        <time>2015-04-06T07:48:43.000Z</time>
      </trkpt>
      <trkpt lat="47.50509" lon="6.80409">
        <ele>316</ele>
        <time>2015-04-06T07:48:44.000Z</time>
      </trkpt>
      <trkpt lat="47.50512" lon="6.80414">
        <ele>316</ele>
        <time>2015-04-06T07:48:45.000Z</time>
      </trkpt>
      <trkpt lat="47.50516" lon="6.80417">
        <ele>316</ele>
        <time>2015-04-06T07:48:46.000Z</time>
      </trkpt>
      <trkpt lat="47.50519" lon="6.8042">
        <ele>316</ele>
        <time>2015-04-06T07:48:47.000Z</time>
      </trkpt>
      <trkpt lat="47.50521" lon="6.80425">
        <ele>316</ele>
        <time>2015-04-06T07:48:48.000Z</time>
      </trkpt>
      <trkpt lat="47.50523" lon="6.80431">
        <ele>316</ele>
        <time>2015-04-06T07:48:49.000Z</time>
      </trkpt>
      <trkpt lat="47.50526" lon="6.80436">
        <ele>316</ele>
        <time>2015-04-06T07:48:50.000Z</time>
      </trkpt>
      <trkpt lat="47.50531" lon="6.80439">
        <ele>316</ele>
        <time>2015-04-06T07:48:52.000Z</time>
      </trkpt>
      <trkpt lat="47.50533" lon="6.80434">
        <ele>316</ele>
        <time>2015-04-06T07:48:53.000Z</time>
      </trkpt>
      <trkpt lat="47.50534" lon="6.80431">
        <ele>316</ele>
        <time>2015-04-06T07:48:54.000Z</time>
      </trkpt>
      <trkpt lat="47.50534" lon="6.80425">
        <ele>316</ele>
        <time>2015-04-06T07:48:55.000Z</time>
      </trkpt>
      <trkpt lat="47.50531" lon="6.80419">
        <ele>316</ele>
        <time>2015-04-06T07:48:56.000Z</time>
      </trkpt>
      <trkpt lat="47.50531" lon="6.80412">
        <ele>316</ele>
        <time>2015-04-06T07:48:57.000Z</time>
      </trkpt>
      <trkpt lat="47.50531" lon="6.80407">
        <ele>316</ele>
        <time>2015-04-06T07:48:58.000Z</time>
      </trkpt>
      <trkpt lat="47.50531" lon="6.80403">
        <ele>316</ele>
        <time>2015-04-06T07:48:59.000Z</time>
      </trkpt>
      <trkpt lat="47.50533" lon="6.804">
        <ele>316</ele>
        <time>2015-04-06T07:49:00.000Z</time>
      </trkpt>
      <trkpt lat="47.50535" lon="6.804">
        <ele>316</ele>
        <time>2015-04-06T07:49:01.000Z</time>
      </trkpt>
      <trkpt lat="47.50538" lon="6.80403">
        <ele>316</ele>
        <time>2015-04-06T07:49:02.000Z</time>
      </trkpt>
      <trkpt lat="47.5054" lon="6.80407">
        <ele>316</ele>
        <time>2015-04-06T07:49:03.000Z</time>
      </trkpt>
      <trkpt lat="47.50541" lon="6.80414">
        <ele>316</ele>
        <time>2015-04-06T07:49:04.000Z</time>
      </trkpt>
      <trkpt lat="47.50542" lon="6.80421">
        <ele>317</ele>
        <time>2015-04-06T07:49:05.000Z</time>
      </trkpt>
      <trkpt lat="47.50543" lon="6.80428">
        <ele>317</ele>
        <time>2015-04-06T07:49:06.000Z</time>
      </trkpt>
      <trkpt lat="47.50543" lon="6.80435">
        <ele>317</ele>
        <time>2015-04-06T07:49:07.000Z</time>
      </trkpt>
      <trkpt lat="47.50543" lon="6.80442">
        <ele>317</ele>
        <time>2015-04-06T07:49:08.000Z</time>
      </trkpt>
      <trkpt lat="47.50543" lon="6.80449">
        <ele>317</ele>
        <time>2015-04-06T07:49:09.000Z</time>
      </trkpt>
      <trkpt lat="47.50542" lon="6.80455">
        <ele>316</ele>
        <time>2015-04-06T07:49:10.000Z</time>
      </trkpt>
      <trkpt lat="47.50539" lon="6.80459">
        <ele>316</ele>
        <time>2015-04-06T07:49:11.000Z</time>
      </trkpt>
      <trkpt lat="47.50527" lon="6.80457">
        <ele>316</ele>
        <time>2015-04-06T07:49:12.000Z</time>
      </trkpt>
      <trkpt lat="47.50523" lon="6.80457">
        <ele>316</ele>
        <time>2015-04-06T07:49:13.000Z</time>
      </trkpt>
      <trkpt lat="47.50519" lon="6.80459">
        <ele>316</ele>
        <time>2015-04-06T07:49:14.000Z</time>
      </trkpt>
      <trkpt lat="47.50514" lon="6.80459">
        <ele>316</ele>
        <time>2015-04-06T07:49:15.000Z</time>
      </trkpt>
      <trkpt lat="47.5051" lon="6.80459">
        <ele>316</ele>
        <time>2015-04-06T07:49:16.000Z</time>
      </trkpt>
      <trkpt lat="47.50506" lon="6.8046">
        <ele>316</ele>
        <time>2015-04-06T07:49:17.000Z</time>
      </trkpt>
      <trkpt lat="47.50503" lon="6.8046">
        <ele>316</ele>
        <time>2015-04-06T07:49:18.000Z</time>
      </trkpt>
      <trkpt lat="47.505" lon="6.8046">
        <ele>316</ele>
        <time>2015-04-06T07:49:19.000Z</time>
      </trkpt>
      <trkpt lat="47.50496" lon="6.80459">
        <ele>316</ele>
        <time>2015-04-06T07:49:20.000Z</time>
      </trkpt>
      <trkpt lat="47.50492" lon="6.80458">
        <ele>316</ele>
        <time>2015-04-06T07:49:21.000Z</time>
      </trkpt>
      <trkpt lat="47.50488" lon="6.80457">
        <ele>317</ele>
        <time>2015-04-06T07:49:22.000Z</time>
      </trkpt>
      <trkpt lat="47.50485" lon="6.80457">
        <ele>317</ele>
        <time>2015-04-06T07:49:23.000Z</time>
      </trkpt>
      <trkpt lat="47.50481" lon="6.80457">
        <ele>317</ele>
        <time>2015-04-06T07:49:24.000Z</time>
      </trkpt>
      <trkpt lat="47.50477" lon="6.80456">
        <ele>317</ele>
        <time>2015-04-06T07:49:25.000Z</time>
      </trkpt>
      <trkpt lat="47.50474" lon="6.80456">
        <ele>317</ele>
        <time>2015-04-06T07:49:26.000Z</time>
      </trkpt>
      <trkpt lat="47.5047" lon="6.80455">
        <ele>317</ele>
        <time>2015-04-06T07:49:27.000Z</time>
      </trkpt>
      <trkpt lat="47.50466" lon="6.80455">
        <ele>317</ele>
        <time>2015-04-06T07:49:28.000Z</time>
      </trkpt>
      <trkpt lat="47.50463" lon="6.80455">
        <ele>317</ele>
        <time>2015-04-06T07:49:29.000Z</time>
      </trkpt>
      <trkpt lat="47.50459" lon="6.80455">
        <ele>317</ele>
        <time>2015-04-06T07:49:30.000Z</time>
      </trkpt>
      <trkpt lat="47.50455" lon="6.80455">
        <ele>317</ele>
        <time>2015-04-06T07:49:31.000Z</time>
      </trkpt>
      <trkpt lat="47.50451" lon="6.80455">
        <ele>317</ele>
        <time>2015-04-06T07:49:32.000Z</time>
      </trkpt>
      <trkpt lat="47.50447" lon="6.80455">
        <ele>317</ele>
        <time>2015-04-06T07:49:33.000Z</time>
      </trkpt>
      <trkpt lat="47.50444" lon="6.80454">
        <ele>317</ele>
        <time>2015-04-06T07:49:34.000Z</time>
      </trkpt>
      <trkpt lat="47.50441" lon="6.80452">
        <ele>317</ele>
        <time>2015-04-06T07:49:35.000Z</time>
      </trkpt>
      <trkpt lat="47.50439" lon="6.8045">
        <ele>317</ele>
        <time>2015-04-06T07:49:36.000Z</time>
      </trkpt>
      <trkpt lat="47.50449" lon="6.80438">
        <ele>317</ele>
        <time>2015-04-06T07:49:37.000Z</time>
      </trkpt>
      <trkpt lat="47.50452" lon="6.8043">
        <ele>317</ele>
        <time>2015-04-06T07:49:38.000Z</time>
      </trkpt>
      <trkpt lat="47.50456" lon="6.80427">
        <ele>317</ele>
        <time>2015-04-06T07:49:39.000Z</time>
      </trkpt>
      <trkpt lat="47.5046" lon="6.80427">
        <ele>317</ele>
        <time>2015-04-06T07:49:40.000Z</time>
      </trkpt>
      <trkpt lat="47.50464" lon="6.80427">
        <ele>317</ele>
        <time>2015-04-06T07:49:41.000Z</time>
      </trkpt>
      <trkpt lat="47.50469" lon="6.80435">
        <ele>317</ele>
        <time>2015-04-06T07:49:42.000Z</time>
      </trkpt>
      <trkpt lat="47.50472" lon="6.8044">
        <ele>317</ele>
        <time>2015-04-06T07:49:43.000Z</time>
      </trkpt>
      <trkpt lat="47.50474" lon="6.80447">
        <ele>317</ele>
        <time>2015-04-06T07:49:44.000Z</time>
      </trkpt>
      <trkpt lat="47.50473" lon="6.80453">
        <ele>317</ele>
        <time>2015-04-06T07:49:45.000Z</time>
      </trkpt>
      <trkpt lat="47.50474" lon="6.8046">
        <ele>317</ele>
        <time>2015-04-06T07:49:46.000Z</time>
      </trkpt>
      <trkpt lat="47.50473" lon="6.8047">
        <ele>317</ele>
        <time>2015-04-06T07:49:47.000Z</time>
      </trkpt>
      <trkpt lat="47.50472" lon="6.8048">
        <ele>317</ele>
        <time>2015-04-06T07:49:48.000Z</time>
      </trkpt>
      <trkpt lat="47.50474" lon="6.8049">
        <ele>317</ele>
        <time>2015-04-06T07:49:49.000Z</time>
      </trkpt>
      <trkpt lat="47.50473" lon="6.805">
        <ele>316</ele>
        <time>2015-04-06T07:49:50.000Z</time>
      </trkpt>
      <trkpt lat="47.50471" lon="6.80517">
        <ele>316</ele>
        <time>2015-04-06T07:49:52.000Z</time>
      </trkpt>
      <trkpt lat="47.50471" lon="6.80524">
        <ele>316</ele>
        <time>2015-04-06T07:49:53.000Z</time>
      </trkpt>
      <trkpt lat="47.50469" lon="6.80532">
        <ele>316</ele>
        <time>2015-04-06T07:49:54.000Z</time>
      </trkpt>
      <trkpt lat="47.5047" lon="6.80541">
        <ele>315</ele>
        <time>2015-04-06T07:49:55.000Z</time>
      </trkpt>
      <trkpt lat="47.50468" lon="6.8055">
        <ele>315</ele>
        <time>2015-04-06T07:49:56.000Z</time>
      </trkpt>
      <trkpt lat="47.50468" lon="6.80558">
        <ele>315</ele>
        <time>2015-04-06T07:49:57.000Z</time>
      </trkpt>
      <trkpt lat="47.50469" lon="6.80565">
        <ele>315</ele>
        <time>2015-04-06T07:49:58.000Z</time>
      </trkpt>
      <trkpt lat="47.50468" lon="6.80574">
        <ele>315</ele>
        <time>2015-04-06T07:49:59.000Z</time>
      </trkpt>
      <trkpt lat="47.50468" lon="6.80584">
        <ele>314</ele>
        <time>2015-04-06T07:50:00.000Z</time>
      </trkpt>
      <trkpt lat="47.50468" lon="6.80593">
        <ele>314</ele>
        <time>2015-04-06T07:50:01.000Z</time>
      </trkpt>
      <trkpt lat="47.50467" lon="6.80601">
        <ele>314</ele>
        <time>2015-04-06T07:50:02.000Z</time>
      </trkpt>
      <trkpt lat="47.50466" lon="6.80609">
        <ele>314</ele>
        <time>2015-04-06T07:50:03.000Z</time>
      </trkpt>
      <trkpt lat="47.50466" lon="6.80617">
        <ele>314</ele>
        <time>2015-04-06T07:50:04.000Z</time>
      </trkpt>
      <trkpt lat="47.50465" lon="6.80625">
        <ele>315</ele>
        <time>2015-04-06T07:50:05.000Z</time>
      </trkpt>
      <trkpt lat="47.50464" lon="6.80633">
        <ele>315</ele>
        <time>2015-04-06T07:50:06.000Z</time>
      </trkpt>
      <trkpt lat="47.50465" lon="6.80641">
        <ele>315</ele>
        <time>2015-04-06T07:50:07.000Z</time>
      </trkpt>
      <trkpt lat="47.50465" lon="6.80647">
        <ele>315</ele>
        <time>2015-04-06T07:50:08.000Z</time>
      </trkpt>
      <trkpt lat="47.50464" lon="6.80655">
        <ele>315</ele>
        <time>2015-04-06T07:50:09.000Z</time>
      </trkpt>
      <trkpt lat="47.50464" lon="6.80664">
        <ele>315</ele>
        <time>2015-04-06T07:50:10.000Z</time>
      </trkpt>
      <trkpt lat="47.50463" lon="6.80672">
        <ele>315</ele>
        <time>2015-04-06T07:50:11.000Z</time>
      </trkpt>
      <trkpt lat="47.50462" lon="6.80679">
        <ele>315</ele>
        <time>2015-04-06T07:50:12.000Z</time>
      </trkpt>
      <trkpt lat="47.50462" lon="6.80685">
        <ele>315</ele>
        <time>2015-04-06T07:50:13.000Z</time>
      </trkpt>
      <trkpt lat="47.50461" lon="6.80693">
        <ele>315</ele>
        <time>2015-04-06T07:50:14.000Z</time>
      </trkpt>
      <trkpt lat="47.50462" lon="6.80701">
        <ele>315</ele>
        <time>2015-04-06T07:50:15.000Z</time>
      </trkpt>
      <trkpt lat="47.50462" lon="6.80707">
        <ele>315</ele>
        <time>2015-04-06T07:50:16.000Z</time>
      </trkpt>
      <trkpt lat="47.50462" lon="6.80715">
        <ele>315</ele>
        <time>2015-04-06T07:50:17.000Z</time>
      </trkpt>
      <trkpt lat="47.50461" lon="6.80724">
        <ele>315</ele>
        <time>2015-04-06T07:50:18.000Z</time>
      </trkpt>
      <trkpt lat="47.5046" lon="6.80732">
        <ele>315</ele>
        <time>2015-04-06T07:50:19.000Z</time>
      </trkpt>
      <trkpt lat="47.5046" lon="6.80739">
        <ele>315</ele>
        <time>2015-04-06T07:50:20.000Z</time>
      </trkpt>
      <trkpt lat="47.50459" lon="6.80747">
        <ele>316</ele>
        <time>2015-04-06T07:50:21.000Z</time>
      </trkpt>
      <trkpt lat="47.50459" lon="6.80754">
        <ele>316</ele>
        <time>2015-04-06T07:50:22.000Z</time>
      </trkpt>
      <trkpt lat="47.5046" lon="6.80761">
        <ele>316</ele>
        <time>2015-04-06T07:50:23.000Z</time>
      </trkpt>
      <trkpt lat="47.5046" lon="6.80768">
        <ele>316</ele>
        <time>2015-04-06T07:50:24.001Z</time>
      </trkpt>
      <trkpt lat="47.50459" lon="6.80773">
        <ele>316</ele>
        <time>2015-04-06T07:50:25.000Z</time>
      </trkpt>
      <trkpt lat="47.50458" lon="6.80781">
        <ele>316</ele>
        <time>2015-04-06T07:50:26.000Z</time>
      </trkpt>
      <trkpt lat="47.50457" lon="6.80789">
        <ele>316</ele>
        <time>2015-04-06T07:50:27.000Z</time>
      </trkpt>
      <trkpt lat="47.50455" lon="6.80795">
        <ele>317</ele>
        <time>2015-04-06T07:50:28.000Z</time>
      </trkpt>
      <trkpt lat="47.50454" lon="6.80802">
        <ele>317</ele>
        <time>2015-04-06T07:50:29.000Z</time>
      </trkpt>
      <trkpt lat="47.50453" lon="6.80809">
        <ele>317</ele>
        <time>2015-04-06T07:50:30.000Z</time>
      </trkpt>
      <trkpt lat="47.50452" lon="6.80816">
        <ele>317</ele>
        <time>2015-04-06T07:50:31.000Z</time>
      </trkpt>
      <trkpt lat="47.50452" lon="6.80824">
        <ele>317</ele>
        <time>2015-04-06T07:50:32.000Z</time>
      </trkpt>
      <trkpt lat="47.50453" lon="6.80831">
        <ele>317</ele>
        <time>2015-04-06T07:50:33.000Z</time>
      </trkpt>
      <trkpt lat="47.50454" lon="6.8084">
        <ele>316</ele>
        <time>2015-04-06T07:50:34.000Z</time>
      </trkpt>
      <trkpt lat="47.50454" lon="6.80847">
        <ele>316</ele>
        <time>2015-04-06T07:50:35.000Z</time>
      </trkpt>
      <trkpt lat="47.50455" lon="6.80856">
        <ele>316</ele>
        <time>2015-04-06T07:50:36.000Z</time>
      </trkpt>
      <trkpt lat="47.50455" lon="6.80865">
        <ele>316</ele>
        <time>2015-04-06T07:50:37.000Z</time>
      </trkpt>
      <trkpt lat="47.50455" lon="6.80873">
        <ele>316</ele>
        <time>2015-04-06T07:50:38.000Z</time>
      </trkpt>
      <trkpt lat="47.50455" lon="6.80881">
        <ele>316</ele>
        <time>2015-04-06T07:50:39.000Z</time>
      </trkpt>
      <trkpt lat="47.50455" lon="6.80891">
        <ele>316</ele>
        <time>2015-04-06T07:50:40.000Z</time>
      </trkpt>
      <trkpt lat="47.50455" lon="6.80898">
        <ele>316</ele>
        <time>2015-04-06T07:50:41.000Z</time>
      </trkpt>
      <trkpt lat="47.50454" lon="6.80907">
        <ele>315</ele>
        <time>2015-04-06T07:50:42.000Z</time>
      </trkpt>
      <trkpt lat="47.50454" lon="6.80914">
        <ele>315</ele>
        <time>2015-04-06T07:50:43.000Z</time>
      </trkpt>
      <trkpt lat="47.50453" lon="6.80922">
        <ele>314</ele>
        <time>2015-04-06T07:50:44.000Z</time>
      </trkpt>
      <trkpt lat="47.50452" lon="6.80931">
        <ele>314</ele>
        <time>2015-04-06T07:50:45.000Z</time>
      </trkpt>
      <trkpt lat="47.50451" lon="6.80939">
        <ele>314</ele>
        <time>2015-04-06T07:50:46.000Z</time>
      </trkpt>
      <trkpt lat="47.50451" lon="6.80948">
        <ele>314</ele>
        <time>2015-04-06T07:50:47.000Z</time>
      </trkpt>
      <trkpt lat="47.50451" lon="6.80956">
        <ele>314</ele>
        <time>2015-04-06T07:50:48.000Z</time>
      </trkpt>
      <trkpt lat="47.50451" lon="6.80964">
        <ele>314</ele>
        <time>2015-04-06T07:50:49.000Z</time>
      </trkpt>
      <trkpt lat="47.5045" lon="6.80973">
        <ele>314</ele>
        <time>2015-04-06T07:50:50.000Z</time>
      </trkpt>
      <trkpt lat="47.50448" lon="6.80988">
        <ele>314</ele>
        <time>2015-04-06T07:50:52.000Z</time>
      </trkpt>
      <trkpt lat="47.50448" lon="6.80996">
        <ele>314</ele>
        <time>2015-04-06T07:50:53.000Z</time>
      </trkpt>
      <trkpt lat="47.50447" lon="6.81004">
        <ele>315</ele>
        <time>2015-04-06T07:50:54.000Z</time>
      </trkpt>
      <trkpt lat="47.50448" lon="6.81012">
        <ele>315</ele>
        <time>2015-04-06T07:50:55.000Z</time>
      </trkpt>
      <trkpt lat="47.50448" lon="6.81021">
        <ele>315</ele>
        <time>2015-04-06T07:50:56.000Z</time>
      </trkpt>
      <trkpt lat="47.50448" lon="6.81029">
        <ele>315</ele>
        <time>2015-04-06T07:50:57.000Z</time>
      </trkpt>
      <trkpt lat="47.50447" lon="6.81037">
        <ele>315</ele>
        <time>2015-04-06T07:50:58.000Z</time>
      </trkpt>
      <trkpt lat="47.50446" lon="6.81044">
        <ele>315</ele>
        <time>2015-04-06T07:50:59.000Z</time>
      </trkpt>
      <trkpt lat="47.50446" lon="6.81053">
        <ele>315</ele>
        <time>2015-04-06T07:51:00.000Z</time>
      </trkpt>
      <trkpt lat="47.50446" lon="6.8106">
        <ele>316</ele>
        <time>2015-04-06T07:51:01.000Z</time>
      </trkpt>
      <trkpt lat="47.50447" lon="6.81065">
        <ele>316</ele>
        <time>2015-04-06T07:51:02.000Z</time>
      </trkpt>
      <trkpt lat="47.50449" lon="6.81068">
        <ele>316</ele>
        <time>2015-04-06T07:51:03.000Z</time>
      </trkpt>
      <trkpt lat="47.50449" lon="6.81074">
        <ele>316</ele>
        <time>2015-04-06T07:51:04.000Z</time>
      </trkpt>
      <trkpt lat="47.50449" lon="6.8108">
        <ele>316</ele>
        <time>2015-04-06T07:51:05.000Z</time>
      </trkpt>
      <trkpt lat="47.50446" lon="6.81087">
        <ele>318</ele>
        <time>2015-04-06T07:51:06.000Z</time>
      </trkpt>
      <trkpt lat="47.50444" lon="6.81098">
        <ele>318</ele>
        <time>2015-04-06T07:51:07.000Z</time>
      </trkpt>
      <trkpt lat="47.50444" lon="6.81104">
        <ele>318</ele>
        <time>2015-04-06T07:51:08.000Z</time>
      </trkpt>
      <trkpt lat="47.50444" lon="6.81109">
        <ele>318</ele>
        <time>2015-04-06T07:51:09.000Z</time>
      </trkpt>
      <trkpt lat="47.50441" lon="6.81116">
        <ele>318</ele>
        <time>2015-04-06T07:51:10.000Z</time>
      </trkpt>
      <trkpt lat="47.50439" lon="6.81122">
        <ele>318</ele>
        <time>2015-04-06T07:51:11.000Z</time>
      </trkpt>
      <trkpt lat="47.50438" lon="6.81127">
        <ele>318</ele>
        <time>2015-04-06T07:51:12.000Z</time>
      </trkpt>
      <trkpt lat="47.50437" lon="6.8113">
        <ele>318</ele>
        <time>2015-04-06T07:51:13.000Z</time>
      </trkpt>
      <trkpt lat="47.50438" lon="6.81136">
        <ele>319</ele>
        <time>2015-04-06T07:51:14.000Z</time>
      </trkpt>
      <trkpt lat="47.50439" lon="6.8114">
        <ele>319</ele>
        <time>2015-04-06T07:51:15.000Z</time>
      </trkpt>
      <trkpt lat="47.5044" lon="6.81148">
        <ele>319</ele>
        <time>2015-04-06T07:51:16.001Z</time>
      </trkpt>
      <trkpt lat="47.50438" lon="6.81157">
        <ele>320</ele>
        <time>2015-04-06T07:51:17.000Z</time>
      </trkpt>
      <trkpt lat="47.50437" lon="6.81169">
        <ele>320</ele>
        <time>2015-04-06T07:51:18.000Z</time>
      </trkpt>
      <trkpt lat="47.50436" lon="6.81178">
        <ele>320</ele>
        <time>2015-04-06T07:51:19.000Z</time>
      </trkpt>
      <trkpt lat="47.50434" lon="6.81186">
        <ele>320</ele>
        <time>2015-04-06T07:51:20.000Z</time>
      </trkpt>
      <trkpt lat="47.50434" lon="6.81192">
        <ele>320</ele>
        <time>2015-04-06T07:51:21.000Z</time>
      </trkpt>
      <trkpt lat="47.50432" lon="6.81199">
        <ele>320</ele>
        <time>2015-04-06T07:51:22.000Z</time>
      </trkpt>
      <trkpt lat="47.50432" lon="6.81205">
        <ele>319</ele>
        <time>2015-04-06T07:51:23.000Z</time>
      </trkpt>
      <trkpt lat="47.5043" lon="6.81213">
        <ele>319</ele>
        <time>2015-04-06T07:51:24.000Z</time>
      </trkpt>
      <trkpt lat="47.50428" lon="6.81216">
        <ele>319</ele>
        <time>2015-04-06T07:51:25.000Z</time>
      </trkpt>
      <trkpt lat="47.50429" lon="6.81223">
        <ele>319</ele>
        <time>2015-04-06T07:51:26.000Z</time>
      </trkpt>
      <trkpt lat="47.50427" lon="6.81234">
        <ele>320</ele>
        <time>2015-04-06T07:51:27.000Z</time>
      </trkpt>
      <trkpt lat="47.50425" lon="6.81244">
        <ele>320</ele>
        <time>2015-04-06T07:51:28.000Z</time>
      </trkpt>
      <trkpt lat="47.50424" lon="6.81254">
        <ele>320</ele>
        <time>2015-04-06T07:51:29.000Z</time>
      </trkpt>
      <trkpt lat="47.50423" lon="6.81265">
        <ele>319</ele>
        <time>2015-04-06T07:51:30.000Z</time>
      </trkpt>
      <trkpt lat="47.50421" lon="6.81275">
        <ele>319</ele>
        <time>2015-04-06T07:51:31.000Z</time>
      </trkpt>
      <trkpt lat="47.5042" lon="6.81284">
        <ele>319</ele>
        <time>2015-04-06T07:51:32.000Z</time>
      </trkpt>
      <trkpt lat="47.5042" lon="6.81294">
        <ele>318</ele>
        <time>2015-04-06T07:51:33.000Z</time>
      </trkpt>
      <trkpt lat="47.50418" lon="6.81302">
        <ele>318</ele>
        <time>2015-04-06T07:51:34.000Z</time>
      </trkpt>
      <trkpt lat="47.50419" lon="6.8131">
        <ele>318</ele>
        <time>2015-04-06T07:51:35.000Z</time>
      </trkpt>
      <trkpt lat="47.50418" lon="6.81318">
        <ele>318</ele>
        <time>2015-04-06T07:51:36.000Z</time>
      </trkpt>
      <trkpt lat="47.50417" lon="6.81328">
        <ele>319</ele>
        <time>2015-04-06T07:51:37.000Z</time>
      </trkpt>
      <trkpt lat="47.50417" lon="6.81334">
        <ele>319</ele>
        <time>2015-04-06T07:51:38.000Z</time>
      </trkpt>
      <trkpt lat="47.50418" lon="6.8134">
        <ele>319</ele>
        <time>2015-04-06T07:51:39.000Z</time>
      </trkpt>
      <trkpt lat="47.50418" lon="6.81348">
        <ele>318</ele>
        <time>2015-04-06T07:51:40.000Z</time>
      </trkpt>
      <trkpt lat="47.50418" lon="6.81357">
        <ele>318</ele>
        <time>2015-04-06T07:51:41.000Z</time>
      </trkpt>
      <trkpt lat="47.50417" lon="6.81365">
        <ele>320</ele>
        <time>2015-04-06T07:51:42.000Z</time>
      </trkpt>
      <trkpt lat="47.50417" lon="6.81372">
        <ele>320</ele>
        <time>2015-04-06T07:51:43.000Z</time>
      </trkpt>
      <trkpt lat="47.50415" lon="6.81381">
        <ele>320</ele>
        <time>2015-04-06T07:51:44.000Z</time>
      </trkpt>
      <trkpt lat="47.50414" lon="6.81389">
        <ele>320</ele>
        <time>2015-04-06T07:51:45.000Z</time>
      </trkpt>
      <trkpt lat="47.50415" lon="6.81397">
        <ele>319</ele>
        <time>2015-04-06T07:51:46.000Z</time>
      </trkpt>
      <trkpt lat="47.50415" lon="6.81404">
        <ele>319</ele>
        <time>2015-04-06T07:51:47.000Z</time>
      </trkpt>
      <trkpt lat="47.50413" lon="6.81413">
        <ele>319</ele>
        <time>2015-04-06T07:51:48.000Z</time>
      </trkpt>
      <trkpt lat="47.50414" lon="6.81423">
        <ele>319</ele>
        <time>2015-04-06T07:51:49.000Z</time>
      </trkpt>
      <trkpt lat="47.50414" lon="6.8143">
        <ele>319</ele>
        <time>2015-04-06T07:51:50.000Z</time>
      </trkpt>
      <trkpt lat="47.50413" lon="6.81446">
        <ele>319</ele>
        <time>2015-04-06T07:51:52.000Z</time>
      </trkpt>
      <trkpt lat="47.50413" lon="6.81453">
        <ele>319</ele>
        <time>2015-04-06T07:51:53.000Z</time>
      </trkpt>
      <trkpt lat="47.50413" lon="6.8146">
        <ele>319</ele>
        <time>2015-04-06T07:51:54.000Z</time>
      </trkpt>
      <trkpt lat="47.50413" lon="6.81469">
        <ele>319</ele>
        <time>2015-04-06T07:51:55.000Z</time>
      </trkpt>
      <trkpt lat="47.50413" lon="6.81474">
        <ele>319</ele>
        <time>2015-04-06T07:51:56.000Z</time>
      </trkpt>
      <trkpt lat="47.50413" lon="6.81483">
        <ele>318</ele>
        <time>2015-04-06T07:51:57.000Z</time>
      </trkpt>
      <trkpt lat="47.50411" lon="6.81491">
        <ele>318</ele>
        <time>2015-04-06T07:51:58.000Z</time>
      </trkpt>
      <trkpt lat="47.50411" lon="6.81498">
        <ele>318</ele>
        <time>2015-04-06T07:51:59.000Z</time>
      </trkpt>
      <trkpt lat="47.50411" lon="6.81507">
        <ele>317</ele>
        <time>2015-04-06T07:52:00.000Z</time>
      </trkpt>
      <trkpt lat="47.50409" lon="6.81516">
        <ele>318</ele>
        <time>2015-04-06T07:52:01.000Z</time>
      </trkpt>
      <trkpt lat="47.50408" lon="6.81525">
        <ele>318</ele>
        <time>2015-04-06T07:52:02.000Z</time>
      </trkpt>
      <trkpt lat="47.50405" lon="6.81534">
        <ele>318</ele>
        <time>2015-04-06T07:52:03.000Z</time>
      </trkpt>
      <trkpt lat="47.50405" lon="6.81542">
        <ele>318</ele>
        <time>2015-04-06T07:52:04.000Z</time>
      </trkpt>
      <trkpt lat="47.50404" lon="6.81546">
        <ele>317</ele>
        <time>2015-04-06T07:52:05.000Z</time>
      </trkpt>
      <trkpt lat="47.50404" lon="6.81554">
        <ele>317</ele>
        <time>2015-04-06T07:52:06.000Z</time>
      </trkpt>
      <trkpt lat="47.50406" lon="6.81561">
        <ele>317</ele>
        <time>2015-04-06T07:52:07.000Z</time>
      </trkpt>
      <trkpt lat="47.50408" lon="6.81566">
        <ele>317</ele>
        <time>2015-04-06T07:52:08.000Z</time>
      </trkpt>
      <trkpt lat="47.5041" lon="6.81574">
        <ele>316</ele>
        <time>2015-04-06T07:52:09.000Z</time>
      </trkpt>
      <trkpt lat="47.50409" lon="6.81586">
        <ele>316</ele>
        <time>2015-04-06T07:52:10.000Z</time>
      </trkpt>
      <trkpt lat="47.50407" lon="6.81595">
        <ele>317</ele>
        <time>2015-04-06T07:52:11.000Z</time>
      </trkpt>
      <trkpt lat="47.50405" lon="6.81605">
        <ele>317</ele>
        <time>2015-04-06T07:52:12.000Z</time>
      </trkpt>
      <trkpt lat="47.50405" lon="6.81613">
        <ele>317</ele>
        <time>2015-04-06T07:52:13.000Z</time>
      </trkpt>
      <trkpt lat="47.50405" lon="6.81619">
        <ele>318</ele>
        <time>2015-04-06T07:52:14.000Z</time>
      </trkpt>
      <trkpt lat="47.50403" lon="6.81628">
        <ele>318</ele>
        <time>2015-04-06T07:52:15.000Z</time>
      </trkpt>
      <trkpt lat="47.50401" lon="6.81637">
        <ele>318</ele>
        <time>2015-04-06T07:52:16.000Z</time>
      </trkpt>
      <trkpt lat="47.50402" lon="6.81643">
        <ele>318</ele>
        <time>2015-04-06T07:52:17.000Z</time>
      </trkpt>
      <trkpt lat="47.50402" lon="6.81651">
        <ele>318</ele>
        <time>2015-04-06T07:52:18.000Z</time>
      </trkpt>
      <trkpt lat="47.50402" lon="6.8166">
        <ele>318</ele>
        <time>2015-04-06T07:52:19.000Z</time>
      </trkpt>
      <trkpt lat="47.50402" lon="6.81669">
        <ele>318</ele>
        <time>2015-04-06T07:52:20.000Z</time>
      </trkpt>
      <trkpt lat="47.50401" lon="6.81676">
        <ele>318</ele>
        <time>2015-04-06T07:52:21.000Z</time>
      </trkpt>
      <trkpt lat="47.50401" lon="6.81684">
        <ele>318</ele>
        <time>2015-04-06T07:52:22.000Z</time>
      </trkpt>
      <trkpt lat="47.504" lon="6.81693">
        <ele>318</ele>
        <time>2015-04-06T07:52:23.000Z</time>
      </trkpt>
      <trkpt lat="47.50399" lon="6.81701">
        <ele>318</ele>
        <time>2015-04-06T07:52:24.000Z</time>
      </trkpt>
      <trkpt lat="47.50399" lon="6.81712">
        <ele>318</ele>
        <time>2015-04-06T07:52:25.000Z</time>
      </trkpt>
      <trkpt lat="47.50397" lon="6.81723">
        <ele>318</ele>
        <time>2015-04-06T07:52:26.000Z</time>
      </trkpt>
      <trkpt lat="47.50395" lon="6.8173">
        <ele>318</ele>
        <time>2015-04-06T07:52:27.000Z</time>
      </trkpt>
      <trkpt lat="47.50395" lon="6.81738">
        <ele>318</ele>
        <time>2015-04-06T07:52:28.000Z</time>
      </trkpt>
      <trkpt lat="47.50395" lon="6.81745">
        <ele>318</ele>
        <time>2015-04-06T07:52:29.000Z</time>
      </trkpt>
      <trkpt lat="47.50394" lon="6.81754">
        <ele>318</ele>
        <time>2015-04-06T07:52:30.000Z</time>
      </trkpt>
      <trkpt lat="47.50393" lon="6.81762">
        <ele>318</ele>
        <time>2015-04-06T07:52:31.000Z</time>
      </trkpt>
      <trkpt lat="47.50394" lon="6.81768">
        <ele>319</ele>
        <time>2015-04-06T07:52:32.000Z</time>
      </trkpt>
      <trkpt lat="47.50393" lon="6.81776">
        <ele>319</ele>
        <time>2015-04-06T07:52:33.000Z</time>
      </trkpt>
      <trkpt lat="47.50391" lon="6.81782">
        <ele>319</ele>
        <time>2015-04-06T07:52:34.000Z</time>
      </trkpt>
      <trkpt lat="47.50392" lon="6.81788">
        <ele>319</ele>
        <time>2015-04-06T07:52:35.000Z</time>
      </trkpt>
      <trkpt lat="47.5039" lon="6.81794">
        <ele>319</ele>
        <time>2015-04-06T07:52:36.000Z</time>
      </trkpt>
      <trkpt lat="47.50388" lon="6.81804">
        <ele>319</ele>
        <time>2015-04-06T07:52:37.000Z</time>
      </trkpt>
      <trkpt lat="47.50387" lon="6.81812">
        <ele>319</ele>
        <time>2015-04-06T07:52:38.000Z</time>
      </trkpt>
      <trkpt lat="47.50386" lon="6.81821">
        <ele>319</ele>
        <time>2015-04-06T07:52:39.000Z</time>
      </trkpt>
      <trkpt lat="47.50387" lon="6.81829">
        <ele>319</ele>
        <time>2015-04-06T07:52:40.000Z</time>
      </trkpt>
      <trkpt lat="47.50384" lon="6.81837">
        <ele>319</ele>
        <time>2015-04-06T07:52:41.000Z</time>
      </trkpt>
      <trkpt lat="47.50385" lon="6.81843">
        <ele>319</ele>
        <time>2015-04-06T07:52:42.000Z</time>
      </trkpt>
      <trkpt lat="47.50385" lon="6.8185">
        <ele>319</ele>
        <time>2015-04-06T07:52:43.000Z</time>
      </trkpt>
      <trkpt lat="47.50386" lon="6.81858">
        <ele>319</ele>
        <time>2015-04-06T07:52:44.000Z</time>
      </trkpt>
      <trkpt lat="47.50385" lon="6.81867">
        <ele>319</ele>
        <time>2015-04-06T07:52:45.000Z</time>
      </trkpt>
      <trkpt lat="47.50384" lon="6.81876">
        <ele>318</ele>
        <time>2015-04-06T07:52:46.000Z</time>
      </trkpt>
      <trkpt lat="47.50383" lon="6.81885">
        <ele>318</ele>
        <time>2015-04-06T07:52:47.000Z</time>
      </trkpt>
      <trkpt lat="47.50381" lon="6.81893">
        <ele>318</ele>
        <time>2015-04-06T07:52:48.000Z</time>
      </trkpt>
      <trkpt lat="47.50382" lon="6.81902">
        <ele>318</ele>
        <time>2015-04-06T07:52:49.000Z</time>
      </trkpt>
      <trkpt lat="47.50381" lon="6.81909">
        <ele>318</ele>
        <time>2015-04-06T07:52:50.000Z</time>
      </trkpt>
      <trkpt lat="47.50378" lon="6.81927">
        <ele>317</ele>
        <time>2015-04-06T07:52:52.000Z</time>
      </trkpt>
      <trkpt lat="47.50378" lon="6.81937">
        <ele>317</ele>
        <time>2015-04-06T07:52:53.000Z</time>
      </trkpt>
      <trkpt lat="47.50376" lon="6.81947">
        <ele>317</ele>
        <time>2015-04-06T07:52:54.000Z</time>
      </trkpt>
      <trkpt lat="47.50374" lon="6.81956">
        <ele>317</ele>
        <time>2015-04-06T07:52:55.000Z</time>
      </trkpt>
      <trkpt lat="47.50374" lon="6.81965">
        <ele>317</ele>
        <time>2015-04-06T07:52:56.000Z</time>
      </trkpt>
      <trkpt lat="47.50373" lon="6.81975">
        <ele>317</ele>
        <time>2015-04-06T07:52:57.000Z</time>
      </trkpt>
      <trkpt lat="47.50372" lon="6.81983">
        <ele>317</ele>
        <time>2015-04-06T07:52:58.000Z</time>
      </trkpt>
      <trkpt lat="47.50371" lon="6.81991">
        <ele>317</ele>
        <time>2015-04-06T07:52:59.000Z</time>
      </trkpt>
      <trkpt lat="47.50373" lon="6.82">
        <ele>317</ele>
        <time>2015-04-06T07:53:00.000Z</time>
      </trkpt>
      <trkpt lat="47.50372" lon="6.82007">
        <ele>317</ele>
        <time>2015-04-06T07:53:01.000Z</time>
      </trkpt>
      <trkpt lat="47.50371" lon="6.82015">
        <ele>317</ele>
        <time>2015-04-06T07:53:02.000Z</time>
      </trkpt>
      <trkpt lat="47.5037" lon="6.82022">
        <ele>317</ele>
        <time>2015-04-06T07:53:03.000Z</time>
      </trkpt>
      <trkpt lat="47.5037" lon="6.82029">
        <ele>317</ele>
        <time>2015-04-06T07:53:04.000Z</time>
      </trkpt>
      <trkpt lat="47.5037" lon="6.82036">
        <ele>317</ele>
        <time>2015-04-06T07:53:05.000Z</time>
      </trkpt>
      <trkpt lat="47.50369" lon="6.82042">
        <ele>317</ele>
        <time>2015-04-06T07:53:06.000Z</time>
      </trkpt>
      <trkpt lat="47.50369" lon="6.82052">
        <ele>317</ele>
        <time>2015-04-06T07:53:07.000Z</time>
      </trkpt>
      <trkpt lat="47.50368" lon="6.82061">
        <ele>317</ele>
        <time>2015-04-06T07:53:08.000Z</time>
      </trkpt>
      <trkpt lat="47.50369" lon="6.82069">
        <ele>317</ele>
        <time>2015-04-06T07:53:09.000Z</time>
      </trkpt>
      <trkpt lat="47.50369" lon="6.82078">
        <ele>317</ele>
        <time>2015-04-06T07:53:10.000Z</time>
      </trkpt>
      <trkpt lat="47.50369" lon="6.82085">
        <ele>317</ele>
        <time>2015-04-06T07:53:11.000Z</time>
      </trkpt>
      <trkpt lat="47.50368" lon="6.82092">
        <ele>317</ele>
        <time>2015-04-06T07:53:12.000Z</time>
      </trkpt>
      <trkpt lat="47.5037" lon="6.82099">
        <ele>317</ele>
        <time>2015-04-06T07:53:13.000Z</time>
      </trkpt>
      <trkpt lat="47.50369" lon="6.82108">
        <ele>317</ele>
        <time>2015-04-06T07:53:14.000Z</time>
      </trkpt>
      <trkpt lat="47.50369" lon="6.82114">
        <ele>317</ele>
        <time>2015-04-06T07:53:15.000Z</time>
      </trkpt>
      <trkpt lat="47.50365" lon="6.82121">
        <ele>317</ele>
        <time>2015-04-06T07:53:16.000Z</time>
      </trkpt>
      <trkpt lat="47.50362" lon="6.8213">
        <ele>317</ele>
        <time>2015-04-06T07:53:17.000Z</time>
      </trkpt>
      <trkpt lat="47.50362" lon="6.82139">
        <ele>317</ele>
        <time>2015-04-06T07:53:18.000Z</time>
      </trkpt>
      <trkpt lat="47.50361" lon="6.8215">
        <ele>317</ele>
        <time>2015-04-06T07:53:19.000Z</time>
      </trkpt>
      <trkpt lat="47.5036" lon="6.8216">
        <ele>317</ele>
        <time>2015-04-06T07:53:20.000Z</time>
      </trkpt>
      <trkpt lat="47.5036" lon="6.82166">
        <ele>317</ele>
        <time>2015-04-06T07:53:21.000Z</time>
      </trkpt>
      <trkpt lat="47.50359" lon="6.82176">
        <ele>318</ele>
        <time>2015-04-06T07:53:22.000Z</time>
      </trkpt>
      <trkpt lat="47.50359" lon="6.82184">
        <ele>318</ele>
        <time>2015-04-06T07:53:23.000Z</time>
      </trkpt>
      <trkpt lat="47.50359" lon="6.82192">
        <ele>319</ele>
        <time>2015-04-06T07:53:24.000Z</time>
      </trkpt>
      <trkpt lat="47.50359" lon="6.82199">
        <ele>319</ele>
        <time>2015-04-06T07:53:25.000Z</time>
      </trkpt>
      <trkpt lat="47.50358" lon="6.82207">
        <ele>319</ele>
        <time>2015-04-06T07:53:26.000Z</time>
      </trkpt>
      <trkpt lat="47.50357" lon="6.82214">
        <ele>319</ele>
        <time>2015-04-06T07:53:27.000Z</time>
      </trkpt>
      <trkpt lat="47.50355" lon="6.82222">
        <ele>319</ele>
        <time>2015-04-06T07:53:28.000Z</time>
      </trkpt>
      <trkpt lat="47.50355" lon="6.82232">
        <ele>319</ele>
        <time>2015-04-06T07:53:29.000Z</time>
      </trkpt>
      <trkpt lat="47.50354" lon="6.82239">
        <ele>319</ele>
        <time>2015-04-06T07:53:30.000Z</time>
      </trkpt>
      <trkpt lat="47.50353" lon="6.82247">
        <ele>319</ele>
        <time>2015-04-06T07:53:31.000Z</time>
      </trkpt>
      <trkpt lat="47.50352" lon="6.82256">
        <ele>319</ele>
        <time>2015-04-06T07:53:32.000Z</time>
      </trkpt>
      <trkpt lat="47.50353" lon="6.82265">
        <ele>319</ele>
        <time>2015-04-06T07:53:33.000Z</time>
      </trkpt>
      <trkpt lat="47.50353" lon="6.82275">
        <ele>319</ele>
        <time>2015-04-06T07:53:34.000Z</time>
      </trkpt>
      <trkpt lat="47.50352" lon="6.82282">
        <ele>319</ele>
        <time>2015-04-06T07:53:35.000Z</time>
      </trkpt>
      <trkpt lat="47.50351" lon="6.82291">
        <ele>319</ele>
        <time>2015-04-06T07:53:36.000Z</time>
      </trkpt>
      <trkpt lat="47.5035" lon="6.823">
        <ele>319</ele>
        <time>2015-04-06T07:53:37.000Z</time>
      </trkpt>
      <trkpt lat="47.5035" lon="6.82308">
        <ele>319</ele>
        <time>2015-04-06T07:53:38.000Z</time>
      </trkpt>
      <trkpt lat="47.50349" lon="6.82316">
        <ele>319</ele>
        <time>2015-04-06T07:53:39.000Z</time>
      </trkpt>
      <trkpt lat="47.50349" lon="6.82325">
        <ele>319</ele>
        <time>2015-04-06T07:53:40.000Z</time>
      </trkpt>
      <trkpt lat="47.5035" lon="6.82333">
        <ele>319</ele>
        <time>2015-04-06T07:53:41.000Z</time>
      </trkpt>
      <trkpt lat="47.50351" lon="6.82341">
        <ele>318</ele>
        <time>2015-04-06T07:53:42.000Z</time>
      </trkpt>
      <trkpt lat="47.50351" lon="6.82349">
        <ele>318</ele>
        <time>2015-04-06T07:53:43.000Z</time>
      </trkpt>
      <trkpt lat="47.50352" lon="6.82358">
        <ele>317</ele>
        <time>2015-04-06T07:53:44.000Z</time>
      </trkpt>
      <trkpt lat="47.50351" lon="6.82367">
        <ele>317</ele>
        <time>2015-04-06T07:53:45.000Z</time>
      </trkpt>
      <trkpt lat="47.50351" lon="6.82375">
        <ele>317</ele>
        <time>2015-04-06T07:53:46.000Z</time>
      </trkpt>
      <trkpt lat="47.50352" lon="6.82381">
        <ele>317</ele>
        <time>2015-04-06T07:53:47.000Z</time>
      </trkpt>
      <trkpt lat="47.50353" lon="6.82388">
        <ele>317</ele>
        <time>2015-04-06T07:53:48.000Z</time>
      </trkpt>
      <trkpt lat="47.50354" lon="6.82393">
        <ele>317</ele>
        <time>2015-04-06T07:53:49.000Z</time>
      </trkpt>
      <trkpt lat="47.50355" lon="6.82399">
        <ele>316</ele>
        <time>2015-04-06T07:53:50.000Z</time>
      </trkpt>
      <trkpt lat="47.50358" lon="6.82405">
        <ele>316</ele>
        <time>2015-04-06T07:53:51.000Z</time>
      </trkpt>
      <trkpt lat="47.50361" lon="6.82412">
        <ele>316</ele>
        <time>2015-04-06T07:53:52.000Z</time>
      </trkpt>
      <trkpt lat="47.50364" lon="6.82419">
        <ele>315</ele>
        <time>2015-04-06T07:53:53.000Z</time>
      </trkpt>
      <trkpt lat="47.50367" lon="6.82426">
        <ele>315</ele>
        <time>2015-04-06T07:53:54.000Z</time>
      </trkpt>
      <trkpt lat="47.50368" lon="6.82437">
        <ele>315</ele>
        <time>2015-04-06T07:53:55.000Z</time>
      </trkpt>
      <trkpt lat="47.50368" lon="6.82446">
        <ele>315</ele>
        <time>2015-04-06T07:53:56.000Z</time>
      </trkpt>
      <trkpt lat="47.50371" lon="6.8245">
        <ele>315</ele>
        <time>2015-04-06T07:53:57.000Z</time>
      </trkpt>
      <trkpt lat="47.50373" lon="6.82454">
        <ele>315</ele>
        <time>2015-04-06T07:53:58.000Z</time>
      </trkpt>
      <trkpt lat="47.50375" lon="6.82459">
        <ele>316</ele>
        <time>2015-04-06T07:53:59.000Z</time>
      </trkpt>
      <trkpt lat="47.50376" lon="6.82463">
        <ele>316</ele>
        <time>2015-04-06T07:54:00.000Z</time>
      </trkpt>
      <trkpt lat="47.50378" lon="6.82468">
        <ele>316</ele>
        <time>2015-04-06T07:54:01.001Z</time>
      </trkpt>
      <trkpt lat="47.50377" lon="6.82471">
        <ele>316</ele>
        <time>2015-04-06T07:54:02.000Z</time>
      </trkpt>
      <trkpt lat="47.50377" lon="6.82476">
        <ele>316</ele>
        <time>2015-04-06T07:54:03.001Z</time>
      </trkpt>
      <trkpt lat="47.50378" lon="6.82479">
        <ele>316</ele>
        <time>2015-04-06T07:54:04.000Z</time>
      </trkpt>
      <trkpt lat="47.50378" lon="6.82485">
        <ele>316</ele>
        <time>2015-04-06T07:54:05.000Z</time>
      </trkpt>
      <trkpt lat="47.50378" lon="6.82489">
        <ele>316</ele>
        <time>2015-04-06T07:54:06.000Z</time>
      </trkpt>
      <trkpt lat="47.50378" lon="6.82494">
        <ele>316</ele>
        <time>2015-04-06T07:54:07.000Z</time>
      </trkpt>
      <trkpt lat="47.50377" lon="6.82498">
        <ele>316</ele>
        <time>2015-04-06T07:54:08.000Z</time>
      </trkpt>
      <trkpt lat="47.50377" lon="6.82502">
        <ele>316</ele>
        <time>2015-04-06T07:54:09.000Z</time>
      </trkpt>
      <trkpt lat="47.50378" lon="6.82506">
        <ele>316</ele>
        <time>2015-04-06T07:54:10.000Z</time>
      </trkpt>
      <trkpt lat="47.50379" lon="6.82512">
        <ele>316</ele>
        <time>2015-04-06T07:54:13.000Z</time>
      </trkpt>
      <trkpt lat="47.50377" lon="6.82513">
        <ele>316</ele>
        <time>2015-04-06T07:54:14.000Z</time>
      </trkpt>
      <trkpt lat="47.50375" lon="6.82515">
        <ele>316</ele>
        <time>2015-04-06T07:54:15.000Z</time>
      </trkpt>
      <trkpt lat="47.50372" lon="6.82517">
        <ele>316</ele>
        <time>2015-04-06T07:54:16.000Z</time>
      </trkpt>
      <trkpt lat="47.50369" lon="6.82521">
        <ele>317</ele>
        <time>2015-04-06T07:54:17.000Z</time>
      </trkpt>
      <trkpt lat="47.50366" lon="6.82527">
        <ele>317</ele>
        <time>2015-04-06T07:54:18.000Z</time>
      </trkpt>
      <trkpt lat="47.50363" lon="6.82534">
        <ele>317</ele>
        <time>2015-04-06T07:54:19.000Z</time>
      </trkpt>
      <trkpt lat="47.50358" lon="6.82545">
        <ele>317</ele>
        <time>2015-04-06T07:54:20.000Z</time>
      </trkpt>
      <trkpt lat="47.50356" lon="6.82552">
        <ele>317</ele>
        <time>2015-04-06T07:54:21.000Z</time>
      </trkpt>
      <trkpt lat="47.50354" lon="6.8256">
        <ele>317</ele>
        <time>2015-04-06T07:54:22.000Z</time>
      </trkpt>
      <trkpt lat="47.50353" lon="6.82567">
        <ele>317</ele>
        <time>2015-04-06T07:54:23.000Z</time>
      </trkpt>
      <trkpt lat="47.50354" lon="6.82586">
        <ele>318</ele>
        <time>2015-04-06T07:54:24.000Z</time>
      </trkpt>
      <trkpt lat="47.50355" lon="6.82594">
        <ele>317</ele>
        <time>2015-04-06T07:54:25.000Z</time>
      </trkpt>
      <trkpt lat="47.50356" lon="6.82602">
        <ele>317</ele>
        <time>2015-04-06T07:54:26.000Z</time>
      </trkpt>
      <trkpt lat="47.50355" lon="6.8261">
        <ele>317</ele>
        <time>2015-04-06T07:54:27.000Z</time>
      </trkpt>
      <trkpt lat="47.50354" lon="6.82619">
        <ele>317</ele>
        <time>2015-04-06T07:54:28.000Z</time>
      </trkpt>
      <trkpt lat="47.50354" lon="6.8263">
        <ele>317</ele>
        <time>2015-04-06T07:54:29.000Z</time>
      </trkpt>
      <trkpt lat="47.50353" lon="6.82639">
        <ele>317</ele>
        <time>2015-04-06T07:54:30.000Z</time>
      </trkpt>
      <trkpt lat="47.50354" lon="6.82646">
        <ele>318</ele>
        <time>2015-04-06T07:54:31.000Z</time>
      </trkpt>
      <trkpt lat="47.50355" lon="6.82654">
        <ele>318</ele>
        <time>2015-04-06T07:54:32.000Z</time>
      </trkpt>
      <trkpt lat="47.50355" lon="6.82664">
        <ele>318</ele>
        <time>2015-04-06T07:54:33.000Z</time>
      </trkpt>
      <trkpt lat="47.50353" lon="6.82674">
        <ele>318</ele>
        <time>2015-04-06T07:54:34.000Z</time>
      </trkpt>
      <trkpt lat="47.50352" lon="6.82686">
        <ele>318</ele>
        <time>2015-04-06T07:54:35.000Z</time>
      </trkpt>
      <trkpt lat="47.50351" lon="6.82694">
        <ele>318</ele>
        <time>2015-04-06T07:54:36.000Z</time>
      </trkpt>
      <trkpt lat="47.50353" lon="6.82701">
        <ele>319</ele>
        <time>2015-04-06T07:54:37.000Z</time>
      </trkpt>
      <trkpt lat="47.50353" lon="6.82707">
        <ele>319</ele>
        <time>2015-04-06T07:54:38.000Z</time>
      </trkpt>
      <trkpt lat="47.50354" lon="6.82715">
        <ele>319</ele>
        <time>2015-04-06T07:54:39.000Z</time>
      </trkpt>
      <trkpt lat="47.50354" lon="6.82721">
        <ele>319</ele>
        <time>2015-04-06T07:54:40.000Z</time>
      </trkpt>
      <trkpt lat="47.50355" lon="6.8273">
        <ele>319</ele>
        <time>2015-04-06T07:54:41.000Z</time>
      </trkpt>
      <trkpt lat="47.50358" lon="6.82738">
        <ele>319</ele>
        <time>2015-04-06T07:54:42.000Z</time>
      </trkpt>
      <trkpt lat="47.50359" lon="6.82746">
        <ele>319</ele>
        <time>2015-04-06T07:54:43.000Z</time>
      </trkpt>
      <trkpt lat="47.50358" lon="6.82755">
        <ele>319</ele>
        <time>2015-04-06T07:54:44.000Z</time>
      </trkpt>
      <trkpt lat="47.5036" lon="6.82762">
        <ele>319</ele>
        <time>2015-04-06T07:54:45.000Z</time>
      </trkpt>
      <trkpt lat="47.5036" lon="6.82769">
        <ele>319</ele>
        <time>2015-04-06T07:54:46.000Z</time>
      </trkpt>
      <trkpt lat="47.50361" lon="6.82777">
        <ele>319</ele>
        <time>2015-04-06T07:54:47.000Z</time>
      </trkpt>
      <trkpt lat="47.50362" lon="6.82785">
        <ele>319</ele>
        <time>2015-04-06T07:54:48.000Z</time>
      </trkpt>
      <trkpt lat="47.50363" lon="6.82792">
        <ele>319</ele>
        <time>2015-04-06T07:54:49.000Z</time>
      </trkpt>
      <trkpt lat="47.50364" lon="6.82799">
        <ele>319</ele>
        <time>2015-04-06T07:54:50.000Z</time>
      </trkpt>
      <trkpt lat="47.5037" lon="6.82809">
        <ele>319</ele>
        <time>2015-04-06T07:54:52.000Z</time>
      </trkpt>
      <trkpt lat="47.50372" lon="6.82817">
        <ele>319</ele>
        <time>2015-04-06T07:54:53.000Z</time>
      </trkpt>
      <trkpt lat="47.50373" lon="6.82823">
        <ele>319</ele>
        <time>2015-04-06T07:54:54.000Z</time>
      </trkpt>
      <trkpt lat="47.50375" lon="6.82832">
        <ele>318</ele>
        <time>2015-04-06T07:54:55.000Z</time>
      </trkpt>
      <trkpt lat="47.50376" lon="6.8284">
        <ele>318</ele>
        <time>2015-04-06T07:54:56.000Z</time>
      </trkpt>
      <trkpt lat="47.50378" lon="6.82851">
        <ele>318</ele>
        <time>2015-04-06T07:54:57.000Z</time>
      </trkpt>
      <trkpt lat="47.5038" lon="6.82858">
        <ele>318</ele>
        <time>2015-04-06T07:54:58.000Z</time>
      </trkpt>
      <trkpt lat="47.50381" lon="6.82867">
        <ele>318</ele>
        <time>2015-04-06T07:54:59.000Z</time>
      </trkpt>
      <trkpt lat="47.50383" lon="6.82877">
        <ele>318</ele>
        <time>2015-04-06T07:55:00.000Z</time>
      </trkpt>
      <trkpt lat="47.50383" lon="6.82886">
        <ele>318</ele>
        <time>2015-04-06T07:55:01.000Z</time>
      </trkpt>
      <trkpt lat="47.50384" lon="6.82895">
        <ele>318</ele>
        <time>2015-04-06T07:55:02.000Z</time>
      </trkpt>
      <trkpt lat="47.50385" lon="6.82903">
        <ele>318</ele>
        <time>2015-04-06T07:55:03.000Z</time>
      </trkpt>
      <trkpt lat="47.50385" lon="6.82911">
        <ele>318</ele>
        <time>2015-04-06T07:55:04.000Z</time>
      </trkpt>
      <trkpt lat="47.50386" lon="6.82919">
        <ele>318</ele>
        <time>2015-04-06T07:55:05.000Z</time>
      </trkpt>
      <trkpt lat="47.50385" lon="6.82928">
        <ele>318</ele>
        <time>2015-04-06T07:55:06.000Z</time>
      </trkpt>
      <trkpt lat="47.50387" lon="6.82937">
        <ele>318</ele>
        <time>2015-04-06T07:55:07.000Z</time>
      </trkpt>
      <trkpt lat="47.50387" lon="6.82944">
        <ele>318</ele>
        <time>2015-04-06T07:55:08.000Z</time>
      </trkpt>
      <trkpt lat="47.50388" lon="6.82951">
        <ele>318</ele>
        <time>2015-04-06T07:55:09.000Z</time>
      </trkpt>
      <trkpt lat="47.50389" lon="6.82958">
        <ele>318</ele>
        <time>2015-04-06T07:55:10.000Z</time>
      </trkpt>
      <trkpt lat="47.5039" lon="6.82965">
        <ele>318</ele>
        <time>2015-04-06T07:55:11.000Z</time>
      </trkpt>
      <trkpt lat="47.50391" lon="6.82974">
        <ele>318</ele>
        <time>2015-04-06T07:55:12.000Z</time>
      </trkpt>
      <trkpt lat="47.50392" lon="6.82981">
        <ele>318</ele>
        <time>2015-04-06T07:55:13.000Z</time>
      </trkpt>
      <trkpt lat="47.50393" lon="6.82989">
        <ele>318</ele>
        <time>2015-04-06T07:55:14.000Z</time>
      </trkpt>
      <trkpt lat="47.50393" lon="6.82998">
        <ele>318</ele>
        <time>2015-04-06T07:55:15.000Z</time>
      </trkpt>
      <trkpt lat="47.50394" lon="6.83005">
        <ele>318</ele>
        <time>2015-04-06T07:55:16.000Z</time>
      </trkpt>
      <trkpt lat="47.50395" lon="6.83014">
        <ele>318</ele>
        <time>2015-04-06T07:55:17.000Z</time>
      </trkpt>
      <trkpt lat="47.50398" lon="6.8302">
        <ele>318</ele>
        <time>2015-04-06T07:55:18.000Z</time>
      </trkpt>
      <trkpt lat="47.50399" lon="6.83028">
        <ele>318</ele>
        <time>2015-04-06T07:55:19.000Z</time>
      </trkpt>
      <trkpt lat="47.50401" lon="6.83038">
        <ele>318</ele>
        <time>2015-04-06T07:55:20.000Z</time>
      </trkpt>
      <trkpt lat="47.50402" lon="6.83045">
        <ele>318</ele>
        <time>2015-04-06T07:55:21.000Z</time>
      </trkpt>
      <trkpt lat="47.50402" lon="6.83054">
        <ele>318</ele>
        <time>2015-04-06T07:55:22.000Z</time>
      </trkpt>
      <trkpt lat="47.50403" lon="6.83063">
        <ele>318</ele>
        <time>2015-04-06T07:55:23.000Z</time>
      </trkpt>
      <trkpt lat="47.50404" lon="6.83071">
        <ele>318</ele>
        <time>2015-04-06T07:55:24.000Z</time>
      </trkpt>
      <trkpt lat="47.50406" lon="6.83078">
        <ele>318</ele>
        <time>2015-04-06T07:55:25.000Z</time>
      </trkpt>
      <trkpt lat="47.50408" lon="6.83085">
        <ele>318</ele>
        <time>2015-04-06T07:55:26.000Z</time>
      </trkpt>
      <trkpt lat="47.50411" lon="6.83089">
        <ele>318</ele>
        <time>2015-04-06T07:55:27.000Z</time>
      </trkpt>
      <trkpt lat="47.50415" lon="6.83094">
        <ele>318</ele>
        <time>2015-04-06T07:55:28.000Z</time>
      </trkpt>
      <trkpt lat="47.50419" lon="6.83099">
        <ele>318</ele>
        <time>2015-04-06T07:55:29.000Z</time>
      </trkpt>
      <trkpt lat="47.5042" lon="6.83109">
        <ele>318</ele>
        <time>2015-04-06T07:55:30.000Z</time>
      </trkpt>
      <trkpt lat="47.50419" lon="6.83121">
        <ele>318</ele>
        <time>2015-04-06T07:55:31.000Z</time>
      </trkpt>
      <trkpt lat="47.5042" lon="6.83131">
        <ele>318</ele>
        <time>2015-04-06T07:55:32.000Z</time>
      </trkpt>
      <trkpt lat="47.5042" lon="6.83138">
        <ele>318</ele>
        <time>2015-04-06T07:55:33.000Z</time>
      </trkpt>
      <trkpt lat="47.5042" lon="6.83147">
        <ele>318</ele>
        <time>2015-04-06T07:55:34.000Z</time>
      </trkpt>
      <trkpt lat="47.50419" lon="6.83155">
        <ele>318</ele>
        <time>2015-04-06T07:55:35.000Z</time>
      </trkpt>
      <trkpt lat="47.50419" lon="6.83164">
        <ele>318</ele>
        <time>2015-04-06T07:55:36.000Z</time>
      </trkpt>
      <trkpt lat="47.5042" lon="6.83169">
        <ele>318</ele>
        <time>2015-04-06T07:55:37.000Z</time>
      </trkpt>
      <trkpt lat="47.50421" lon="6.83177">
        <ele>318</ele>
        <time>2015-04-06T07:55:38.000Z</time>
      </trkpt>
      <trkpt lat="47.50424" lon="6.8318">
        <ele>318</ele>
        <time>2015-04-06T07:55:39.000Z</time>
      </trkpt>
      <trkpt lat="47.50427" lon="6.83186">
        <ele>318</ele>
        <time>2015-04-06T07:55:40.000Z</time>
      </trkpt>
      <trkpt lat="47.50428" lon="6.83194">
        <ele>318</ele>
        <time>2015-04-06T07:55:41.000Z</time>
      </trkpt>
      <trkpt lat="47.50431" lon="6.832">
        <ele>318</ele>
        <time>2015-04-06T07:55:42.000Z</time>
      </trkpt>
      <trkpt lat="47.50433" lon="6.83208">
        <ele>318</ele>
        <time>2015-04-06T07:55:43.000Z</time>
      </trkpt>
      <trkpt lat="47.50432" lon="6.83215">
        <ele>318</ele>
        <time>2015-04-06T07:55:44.000Z</time>
      </trkpt>
      <trkpt lat="47.50434" lon="6.83223">
        <ele>318</ele>
        <time>2015-04-06T07:55:45.000Z</time>
      </trkpt>
      <trkpt lat="47.50436" lon="6.83229">
        <ele>318</ele>
        <time>2015-04-06T07:55:46.000Z</time>
      </trkpt>
      <trkpt lat="47.50438" lon="6.83234">
        <ele>318</ele>
        <time>2015-04-06T07:55:47.000Z</time>
      </trkpt>
      <trkpt lat="47.5044" lon="6.83239">
        <ele>318</ele>
        <time>2015-04-06T07:55:48.000Z</time>
      </trkpt>
      <trkpt lat="47.50443" lon="6.83244">
        <ele>318</ele>
        <time>2015-04-06T07:55:49.000Z</time>
      </trkpt>
      <trkpt lat="47.50445" lon="6.83249">
        <ele>318</ele>
        <time>2015-04-06T07:55:50.000Z</time>
      </trkpt>
      <trkpt lat="47.50447" lon="6.83253">
        <ele>318</ele>
        <time>2015-04-06T07:55:51.000Z</time>
      </trkpt>
      <trkpt lat="47.50449" lon="6.83257">
        <ele>318</ele>
        <time>2015-04-06T07:55:52.000Z</time>
      </trkpt>
      <trkpt lat="47.5045" lon="6.8326">
        <ele>318</ele>
        <time>2015-04-06T07:55:53.000Z</time>
      </trkpt>
      <trkpt lat="47.50451" lon="6.83264">
        <ele>318</ele>
        <time>2015-04-06T07:55:54.000Z</time>
      </trkpt>
      <trkpt lat="47.50449" lon="6.8327">
        <ele>318</ele>
        <time>2015-04-06T07:55:57.000Z</time>
      </trkpt>
      <trkpt lat="47.50449" lon="6.8327">
        <ele>318</ele>
        <time>2015-04-06T07:55:58.000Z</time>
      </trkpt>
      <trkpt lat="47.50446" lon="6.83275">
        <ele>318</ele>
        <time>2015-04-06T07:56:05.000Z</time>
      </trkpt>
      <trkpt lat="47.50447" lon="6.83277">
        <ele>318</ele>
        <time>2015-04-06T07:56:06.000Z</time>
      </trkpt>
      <trkpt lat="47.50448" lon="6.8328">
        <ele>318</ele>
        <time>2015-04-06T07:56:07.000Z</time>
      </trkpt>
      <trkpt lat="47.5045" lon="6.83284">
        <ele>318</ele>
        <time>2015-04-06T07:56:08.000Z</time>
      </trkpt>
      <trkpt lat="47.50453" lon="6.83287">
        <ele>318</ele>
        <time>2015-04-06T07:56:09.000Z</time>
      </trkpt>
      <trkpt lat="47.50457" lon="6.83292">
        <ele>318</ele>
        <time>2015-04-06T07:56:10.000Z</time>
      </trkpt>
      <trkpt lat="47.5046" lon="6.83296">
        <ele>317</ele>
        <time>2015-04-06T07:56:11.000Z</time>
      </trkpt>
      <trkpt lat="47.50463" lon="6.83299">
        <ele>317</ele>
        <time>2015-04-06T07:56:12.000Z</time>
      </trkpt>
      <trkpt lat="47.50467" lon="6.83304">
        <ele>317</ele>
        <time>2015-04-06T07:56:13.000Z</time>
      </trkpt>
      <trkpt lat="47.50469" lon="6.83309">
        <ele>317</ele>
        <time>2015-04-06T07:56:14.000Z</time>
      </trkpt>
      <trkpt lat="47.50472" lon="6.83314">
        <ele>317</ele>
        <time>2015-04-06T07:56:15.000Z</time>
      </trkpt>
      <trkpt lat="47.50474" lon="6.8332">
        <ele>317</ele>
        <time>2015-04-06T07:56:16.000Z</time>
      </trkpt>
      <trkpt lat="47.50475" lon="6.83325">
        <ele>317</ele>
        <time>2015-04-06T07:56:17.000Z</time>
      </trkpt>
      <trkpt lat="47.50474" lon="6.83331">
        <ele>317</ele>
        <time>2015-04-06T07:56:18.000Z</time>
      </trkpt>
      <trkpt lat="47.50473" lon="6.83337">
        <ele>318</ele>
        <time>2015-04-06T07:56:19.000Z</time>
      </trkpt>
      <trkpt lat="47.50471" lon="6.83343">
        <ele>318</ele>
        <time>2015-04-06T07:56:20.000Z</time>
      </trkpt>
      <trkpt lat="47.50469" lon="6.83348">
        <ele>318</ele>
        <time>2015-04-06T07:56:21.000Z</time>
      </trkpt>
      <trkpt lat="47.50467" lon="6.83353">
        <ele>318</ele>
        <time>2015-04-06T07:56:22.000Z</time>
      </trkpt>
      <trkpt lat="47.50466" lon="6.83359">
        <ele>318</ele>
        <time>2015-04-06T07:56:23.000Z</time>
      </trkpt>
      <trkpt lat="47.50465" lon="6.83365">
        <ele>318</ele>
        <time>2015-04-06T07:56:24.000Z</time>
      </trkpt>
      <trkpt lat="47.50465" lon="6.83372">
        <ele>318</ele>
        <time>2015-04-06T07:56:25.000Z</time>
      </trkpt>
      <trkpt lat="47.50465" lon="6.83379">
        <ele>318</ele>
        <time>2015-04-06T07:56:26.000Z</time>
      </trkpt>
      <trkpt lat="47.50465" lon="6.83386">
        <ele>318</ele>
        <time>2015-04-06T07:56:27.000Z</time>
      </trkpt>
      <trkpt lat="47.50465" lon="6.83392">
        <ele>318</ele>
        <time>2015-04-06T07:56:28.000Z</time>
      </trkpt>
      <trkpt lat="47.50467" lon="6.83398">
        <ele>318</ele>
        <time>2015-04-06T07:56:29.000Z</time>
      </trkpt>
      <trkpt lat="47.50469" lon="6.83402">
        <ele>318</ele>
        <time>2015-04-06T07:56:30.000Z</time>
      </trkpt>
      <trkpt lat="47.50475" lon="6.83414">
        <ele>318</ele>
        <time>2015-04-06T07:56:31.000Z</time>
      </trkpt>
      <trkpt lat="47.50477" lon="6.83424">
        <ele>318</ele>
        <time>2015-04-06T07:56:32.000Z</time>
      </trkpt>
      <trkpt lat="47.50479" lon="6.83429">
        <ele>318</ele>
        <time>2015-04-06T07:56:33.000Z</time>
      </trkpt>
      <trkpt lat="47.50481" lon="6.83438">
        <ele>318</ele>
        <time>2015-04-06T07:56:34.000Z</time>
      </trkpt>
      <trkpt lat="47.50483" lon="6.83447">
        <ele>318</ele>
        <time>2015-04-06T07:56:35.000Z</time>
      </trkpt>
      <trkpt lat="47.50484" lon="6.83455">
        <ele>317</ele>
        <time>2015-04-06T07:56:36.000Z</time>
      </trkpt>
      <trkpt lat="47.50487" lon="6.83461">
        <ele>317</ele>
        <time>2015-04-06T07:56:37.000Z</time>
      </trkpt>
      <trkpt lat="47.50489" lon="6.8347">
        <ele>317</ele>
        <time>2015-04-06T07:56:38.000Z</time>
      </trkpt>
      <trkpt lat="47.5049" lon="6.8348">
        <ele>317</ele>
        <time>2015-04-06T07:56:39.000Z</time>
      </trkpt>
      <trkpt lat="47.50493" lon="6.83487">
        <ele>317</ele>
        <time>2015-04-06T07:56:40.000Z</time>
      </trkpt>
      <trkpt lat="47.50496" lon="6.83497">
        <ele>316</ele>
        <time>2015-04-06T07:56:41.000Z</time>
      </trkpt>
      <trkpt lat="47.50498" lon="6.83504">
        <ele>316</ele>
        <time>2015-04-06T07:56:42.000Z</time>
      </trkpt>
      <trkpt lat="47.50501" lon="6.8351">
        <ele>316</ele>
        <time>2015-04-06T07:56:43.000Z</time>
      </trkpt>
      <trkpt lat="47.50504" lon="6.83516">
        <ele>317</ele>
        <time>2015-04-06T07:56:44.000Z</time>
      </trkpt>
      <trkpt lat="47.50507" lon="6.83521">
        <ele>317</ele>
        <time>2015-04-06T07:56:45.000Z</time>
      </trkpt>
      <trkpt lat="47.50508" lon="6.83527">
        <ele>317</ele>
        <time>2015-04-06T07:56:46.000Z</time>
      </trkpt>
      <trkpt lat="47.50509" lon="6.83533">
        <ele>317</ele>
        <time>2015-04-06T07:56:47.000Z</time>
      </trkpt>
      <trkpt lat="47.5051" lon="6.8354">
        <ele>317</ele>
        <time>2015-04-06T07:56:48.000Z</time>
      </trkpt>
      <trkpt lat="47.50511" lon="6.83546">
        <ele>317</ele>
        <time>2015-04-06T07:56:49.000Z</time>
      </trkpt>
      <trkpt lat="47.50513" lon="6.8355">
        <ele>317</ele>
        <time>2015-04-06T07:56:50.000Z</time>
      </trkpt>
      <trkpt lat="47.50515" lon="6.83554">
        <ele>317</ele>
        <time>2015-04-06T07:56:51.000Z</time>
      </trkpt>
      <trkpt lat="47.50517" lon="6.83559">
        <ele>317</ele>
        <time>2015-04-06T07:56:52.000Z</time>
      </trkpt>
      <trkpt lat="47.50518" lon="6.83565">
        <ele>317</ele>
        <time>2015-04-06T07:56:53.000Z</time>
      </trkpt>
      <trkpt lat="47.5052" lon="6.83575">
        <ele>317</ele>
        <time>2015-04-06T07:56:54.000Z</time>
      </trkpt>
      <trkpt lat="47.50521" lon="6.83583">
        <ele>317</ele>
        <time>2015-04-06T07:56:55.000Z</time>
      </trkpt>
      <trkpt lat="47.50523" lon="6.8359">
        <ele>317</ele>
        <time>2015-04-06T07:56:56.000Z</time>
      </trkpt>
      <trkpt lat="47.50525" lon="6.83597">
        <ele>318</ele>
        <time>2015-04-06T07:56:57.000Z</time>
      </trkpt>
      <trkpt lat="47.50527" lon="6.83604">
        <ele>318</ele>
        <time>2015-04-06T07:56:58.000Z</time>
      </trkpt>
      <trkpt lat="47.50529" lon="6.8361">
        <ele>318</ele>
        <time>2015-04-06T07:56:59.000Z</time>
      </trkpt>
      <trkpt lat="47.50531" lon="6.83619">
        <ele>318</ele>
        <time>2015-04-06T07:57:00.000Z</time>
      </trkpt>
      <trkpt lat="47.50533" lon="6.83624">
        <ele>318</ele>
        <time>2015-04-06T07:57:01.000Z</time>
      </trkpt>
      <trkpt lat="47.50536" lon="6.83633">
        <ele>318</ele>
        <time>2015-04-06T07:57:02.000Z</time>
      </trkpt>
      <trkpt lat="47.50538" lon="6.83641">
        <ele>318</ele>
        <time>2015-04-06T07:57:03.000Z</time>
      </trkpt>
      <trkpt lat="47.50539" lon="6.8365">
        <ele>318</ele>
        <time>2015-04-06T07:57:04.000Z</time>
      </trkpt>
      <trkpt lat="47.5054" lon="6.83658">
        <ele>318</ele>
        <time>2015-04-06T07:57:05.000Z</time>
      </trkpt>
      <trkpt lat="47.50543" lon="6.83664">
        <ele>318</ele>
        <time>2015-04-06T07:57:06.000Z</time>
      </trkpt>
      <trkpt lat="47.50545" lon="6.8367">
        <ele>318</ele>
        <time>2015-04-06T07:57:07.000Z</time>
      </trkpt>
      <trkpt lat="47.50547" lon="6.83676">
        <ele>318</ele>
        <time>2015-04-06T07:57:08.000Z</time>
      </trkpt>
      <trkpt lat="47.50549" lon="6.83684">
        <ele>318</ele>
        <time>2015-04-06T07:57:09.000Z</time>
      </trkpt>
      <trkpt lat="47.50552" lon="6.83691">
        <ele>318</ele>
        <time>2015-04-06T07:57:10.000Z</time>
      </trkpt>
      <trkpt lat="47.50554" lon="6.83698">
        <ele>318</ele>
        <time>2015-04-06T07:57:11.000Z</time>
      </trkpt>
      <trkpt lat="47.50557" lon="6.83706">
        <ele>318</ele>
        <time>2015-04-06T07:57:12.000Z</time>
      </trkpt>
      <trkpt lat="47.50559" lon="6.83713">
        <ele>319</ele>
        <time>2015-04-06T07:57:13.000Z</time>
      </trkpt>
      <trkpt lat="47.5056" lon="6.83719">
        <ele>319</ele>
        <time>2015-04-06T07:57:14.000Z</time>
      </trkpt>
      <trkpt lat="47.50563" lon="6.83727">
        <ele>319</ele>
        <time>2015-04-06T07:57:15.000Z</time>
      </trkpt>
      <trkpt lat="47.50565" lon="6.83736">
        <ele>319</ele>
        <time>2015-04-06T07:57:16.000Z</time>
      </trkpt>
      <trkpt lat="47.50566" lon="6.83744">
        <ele>319</ele>
        <time>2015-04-06T07:57:17.000Z</time>
      </trkpt>
      <trkpt lat="47.50567" lon="6.83752">
        <ele>319</ele>
        <time>2015-04-06T07:57:18.000Z</time>
      </trkpt>
      <trkpt lat="47.50567" lon="6.83761">
        <ele>319</ele>
        <time>2015-04-06T07:57:19.000Z</time>
      </trkpt>
      <trkpt lat="47.50568" lon="6.83768">
        <ele>319</ele>
        <time>2015-04-06T07:57:20.000Z</time>
      </trkpt>
      <trkpt lat="47.50568" lon="6.83776">
        <ele>319</ele>
        <time>2015-04-06T07:57:21.000Z</time>
      </trkpt>
      <trkpt lat="47.5057" lon="6.83785">
        <ele>319</ele>
        <time>2015-04-06T07:57:22.000Z</time>
      </trkpt>
      <trkpt lat="47.50572" lon="6.83792">
        <ele>319</ele>
        <time>2015-04-06T07:57:23.000Z</time>
      </trkpt>
      <trkpt lat="47.50575" lon="6.838">
        <ele>319</ele>
        <time>2015-04-06T07:57:24.000Z</time>
      </trkpt>
      <trkpt lat="47.50577" lon="6.83807">
        <ele>319</ele>
        <time>2015-04-06T07:57:25.000Z</time>
      </trkpt>
      <trkpt lat="47.50578" lon="6.83815">
        <ele>319</ele>
        <time>2015-04-06T07:57:26.000Z</time>
      </trkpt>
      <trkpt lat="47.50581" lon="6.83823">
        <ele>318</ele>
        <time>2015-04-06T07:57:27.000Z</time>
      </trkpt>
      <trkpt lat="47.50583" lon="6.8383">
        <ele>318</ele>
        <time>2015-04-06T07:57:28.000Z</time>
      </trkpt>
      <trkpt lat="47.50585" lon="6.83837">
        <ele>318</ele>
        <time>2015-04-06T07:57:29.000Z</time>
      </trkpt>
      <trkpt lat="47.50587" lon="6.83846">
        <ele>318</ele>
        <time>2015-04-06T07:57:30.000Z</time>
      </trkpt>
      <trkpt lat="47.50589" lon="6.83854">
        <ele>318</ele>
        <time>2015-04-06T07:57:31.000Z</time>
      </trkpt>
      <trkpt lat="47.50591" lon="6.83861">
        <ele>318</ele>
        <time>2015-04-06T07:57:32.000Z</time>
      </trkpt>
      <trkpt lat="47.50593" lon="6.83867">
        <ele>318</ele>
        <time>2015-04-06T07:57:33.000Z</time>
      </trkpt>
      <trkpt lat="47.50595" lon="6.83875">
        <ele>318</ele>
        <time>2015-04-06T07:57:34.000Z</time>
      </trkpt>
      <trkpt lat="47.50598" lon="6.83882">
        <ele>318</ele>
        <time>2015-04-06T07:57:35.000Z</time>
      </trkpt>
      <trkpt lat="47.50601" lon="6.8389">
        <ele>318</ele>
        <time>2015-04-06T07:57:36.000Z</time>
      </trkpt>
      <trkpt lat="47.50601" lon="6.83897">
        <ele>318</ele>
        <time>2015-04-06T07:57:37.000Z</time>
      </trkpt>
      <trkpt lat="47.50603" lon="6.83906">
        <ele>318</ele>
        <time>2015-04-06T07:57:38.000Z</time>
      </trkpt>
      <trkpt lat="47.50605" lon="6.83912">
        <ele>318</ele>
        <time>2015-04-06T07:57:39.000Z</time>
      </trkpt>
      <trkpt lat="47.50606" lon="6.83917">
        <ele>317</ele>
        <time>2015-04-06T07:57:40.000Z</time>
      </trkpt>
      <trkpt lat="47.50607" lon="6.83923">
        <ele>317</ele>
        <time>2015-04-06T07:57:41.000Z</time>
      </trkpt>
      <trkpt lat="47.5061" lon="6.83929">
        <ele>317</ele>
        <time>2015-04-06T07:57:42.000Z</time>
      </trkpt>
      <trkpt lat="47.50612" lon="6.83936">
        <ele>317</ele>
        <time>2015-04-06T07:57:43.000Z</time>
      </trkpt>
      <trkpt lat="47.50615" lon="6.83945">
        <ele>317</ele>
        <time>2015-04-06T07:57:44.000Z</time>
      </trkpt>
      <trkpt lat="47.50615" lon="6.83952">
        <ele>317</ele>
        <time>2015-04-06T07:57:45.000Z</time>
      </trkpt>
      <trkpt lat="47.50616" lon="6.83963">
        <ele>317</ele>
        <time>2015-04-06T07:57:46.000Z</time>
      </trkpt>
      <trkpt lat="47.50618" lon="6.83972">
        <ele>317</ele>
        <time>2015-04-06T07:57:47.000Z</time>
      </trkpt>
      <trkpt lat="47.5062" lon="6.83982">
        <ele>317</ele>
        <time>2015-04-06T07:57:48.000Z</time>
      </trkpt>
      <trkpt lat="47.50623" lon="6.83991">
        <ele>317</ele>
        <time>2015-04-06T07:57:49.000Z</time>
      </trkpt>
      <trkpt lat="47.50626" lon="6.83999">
        <ele>317</ele>
        <time>2015-04-06T07:57:50.000Z</time>
      </trkpt>
      <trkpt lat="47.50628" lon="6.84008">
        <ele>317</ele>
        <time>2015-04-06T07:57:51.000Z</time>
      </trkpt>
      <trkpt lat="47.5063" lon="6.84015">
        <ele>317</ele>
        <time>2015-04-06T07:57:52.000Z</time>
      </trkpt>
      <trkpt lat="47.50632" lon="6.84021">
        <ele>317</ele>
        <time>2015-04-06T07:57:53.000Z</time>
      </trkpt>
      <trkpt lat="47.50634" lon="6.8403">
        <ele>318</ele>
        <time>2015-04-06T07:57:54.000Z</time>
      </trkpt>
      <trkpt lat="47.50636" lon="6.8404">
        <ele>318</ele>
        <time>2015-04-06T07:57:55.000Z</time>
      </trkpt>
      <trkpt lat="47.50637" lon="6.84049">
        <ele>318</ele>
        <time>2015-04-06T07:57:56.000Z</time>
      </trkpt>
      <trkpt lat="47.50639" lon="6.84056">
        <ele>318</ele>
        <time>2015-04-06T07:57:57.000Z</time>
      </trkpt>
      <trkpt lat="47.50642" lon="6.84063">
        <ele>318</ele>
        <time>2015-04-06T07:57:58.000Z</time>
      </trkpt>
      <trkpt lat="47.50644" lon="6.84072">
        <ele>318</ele>
        <time>2015-04-06T07:57:59.000Z</time>
      </trkpt>
      <trkpt lat="47.50646" lon="6.8408">
        <ele>318</ele>
        <time>2015-04-06T07:58:00.000Z</time>
      </trkpt>
      <trkpt lat="47.50648" lon="6.84085">
        <ele>318</ele>
        <time>2015-04-06T07:58:01.000Z</time>
      </trkpt>
      <trkpt lat="47.5065" lon="6.84093">
        <ele>318</ele>
        <time>2015-04-06T07:58:02.000Z</time>
      </trkpt>
      <trkpt lat="47.50653" lon="6.84101">
        <ele>318</ele>
        <time>2015-04-06T07:58:03.000Z</time>
      </trkpt>
      <trkpt lat="47.50655" lon="6.84108">
        <ele>319</ele>
        <time>2015-04-06T07:58:04.000Z</time>
      </trkpt>
      <trkpt lat="47.50657" lon="6.84114">
        <ele>319</ele>
        <time>2015-04-06T07:58:05.000Z</time>
      </trkpt>
      <trkpt lat="47.50662" lon="6.84119">
        <ele>319</ele>
        <time>2015-04-06T07:58:06.000Z</time>
      </trkpt>
      <trkpt lat="47.50666" lon="6.84122">
        <ele>319</ele>
        <time>2015-04-06T07:58:07.000Z</time>
      </trkpt>
      <trkpt lat="47.50671" lon="6.84125">
        <ele>318</ele>
        <time>2015-04-06T07:58:08.000Z</time>
      </trkpt>
      <trkpt lat="47.50676" lon="6.84129">
        <ele>318</ele>
        <time>2015-04-06T07:58:09.000Z</time>
      </trkpt>
      <trkpt lat="47.50681" lon="6.84131">
        <ele>318</ele>
        <time>2015-04-06T07:58:10.000Z</time>
      </trkpt>
      <trkpt lat="47.50685" lon="6.84138">
        <ele>319</ele>
        <time>2015-04-06T07:58:11.000Z</time>
      </trkpt>
      <trkpt lat="47.5069" lon="6.84143">
        <ele>319</ele>
        <time>2015-04-06T07:58:11.998Z</time>
      </trkpt>
      <trkpt lat="47.50695" lon="6.84153">
        <ele>319</ele>
        <time>2015-04-06T07:58:13.001Z</time>
      </trkpt>
      <trkpt lat="47.50697" lon="6.8416">
        <ele>319</ele>
        <time>2015-04-06T07:58:14.000Z</time>
      </trkpt>
      <trkpt lat="47.50697" lon="6.8417">
        <ele>319</ele>
        <time>2015-04-06T07:58:15.000Z</time>
      </trkpt>
      <trkpt lat="47.50696" lon="6.84177">
        <ele>319</ele>
        <time>2015-04-06T07:58:16.000Z</time>
      </trkpt>
      <trkpt lat="47.50695" lon="6.84182">
        <ele>319</ele>
        <time>2015-04-06T07:58:17.000Z</time>
      </trkpt>
      <trkpt lat="47.50694" lon="6.84188">
        <ele>319</ele>
        <time>2015-04-06T07:58:18.000Z</time>
      </trkpt>
      <trkpt lat="47.50693" lon="6.84194">
        <ele>320</ele>
        <time>2015-04-06T07:58:19.000Z</time>
      </trkpt>
      <trkpt lat="47.50692" lon="6.84199">
        <ele>320</ele>
        <time>2015-04-06T07:58:20.000Z</time>
      </trkpt>
      <trkpt lat="47.50693" lon="6.84207">
        <ele>320</ele>
        <time>2015-04-06T07:58:21.000Z</time>
      </trkpt>
      <trkpt lat="47.50693" lon="6.84213">
        <ele>320</ele>
        <time>2015-04-06T07:58:22.000Z</time>
      </trkpt>
      <trkpt lat="47.50694" lon="6.84221">
        <ele>320</ele>
        <time>2015-04-06T07:58:23.000Z</time>
      </trkpt>
      <trkpt lat="47.50695" lon="6.84227">
        <ele>320</ele>
        <time>2015-04-06T07:58:24.000Z</time>
      </trkpt>
      <trkpt lat="47.50698" lon="6.84232">
        <ele>320</ele>
        <time>2015-04-06T07:58:25.000Z</time>
      </trkpt>
      <trkpt lat="47.50702" lon="6.84239">
        <ele>320</ele>
        <time>2015-04-06T07:58:26.000Z</time>
      </trkpt>
      <trkpt lat="47.50703" lon="6.84245">
        <ele>320</ele>
        <time>2015-04-06T07:58:27.000Z</time>
      </trkpt>
      <trkpt lat="47.50706" lon="6.84248">
        <ele>320</ele>
        <time>2015-04-06T07:58:28.000Z</time>
      </trkpt>
      <trkpt lat="47.50707" lon="6.84253">
        <ele>320</ele>
        <time>2015-04-06T07:58:29.000Z</time>
      </trkpt>
      <trkpt lat="47.50707" lon="6.84261">
        <ele>320</ele>
        <time>2015-04-06T07:58:30.000Z</time>
      </trkpt>
      <trkpt lat="47.5071" lon="6.84269">
        <ele>320</ele>
        <time>2015-04-06T07:58:31.000Z</time>
      </trkpt>
      <trkpt lat="47.50713" lon="6.84277">
        <ele>320</ele>
        <time>2015-04-06T07:58:32.000Z</time>
      </trkpt>
      <trkpt lat="47.50716" lon="6.84281">
        <ele>320</ele>
        <time>2015-04-06T07:58:33.000Z</time>
      </trkpt>
      <trkpt lat="47.5072" lon="6.84289">
        <ele>320</ele>
        <time>2015-04-06T07:58:34.000Z</time>
      </trkpt>
      <trkpt lat="47.50724" lon="6.84297">
        <ele>320</ele>
        <time>2015-04-06T07:58:35.000Z</time>
      </trkpt>
      <trkpt lat="47.50726" lon="6.84305">
        <ele>320</ele>
        <time>2015-04-06T07:58:36.000Z</time>
      </trkpt>
      <trkpt lat="47.50728" lon="6.84312">
        <ele>319</ele>
        <time>2015-04-06T07:58:37.000Z</time>
      </trkpt>
      <trkpt lat="47.50731" lon="6.84318">
        <ele>319</ele>
        <time>2015-04-06T07:58:38.000Z</time>
      </trkpt>
      <trkpt lat="47.50733" lon="6.84324">
        <ele>319</ele>
        <time>2015-04-06T07:58:39.000Z</time>
      </trkpt>
      <trkpt lat="47.50736" lon="6.84331">
        <ele>319</ele>
        <time>2015-04-06T07:58:40.000Z</time>
      </trkpt>
      <trkpt lat="47.50739" lon="6.84338">
        <ele>319</ele>
        <time>2015-04-06T07:58:41.000Z</time>
      </trkpt>
      <trkpt lat="47.50742" lon="6.84345">
        <ele>319</ele>
        <time>2015-04-06T07:58:42.000Z</time>
      </trkpt>
      <trkpt lat="47.50745" lon="6.84351">
        <ele>319</ele>
        <time>2015-04-06T07:58:43.000Z</time>
      </trkpt>
      <trkpt lat="47.50748" lon="6.84358">
        <ele>319</ele>
        <time>2015-04-06T07:58:44.000Z</time>
      </trkpt>
      <trkpt lat="47.50752" lon="6.84367">
        <ele>318</ele>
        <time>2015-04-06T07:58:45.000Z</time>
      </trkpt>
      <trkpt lat="47.50756" lon="6.84372">
        <ele>318</ele>
        <time>2015-04-06T07:58:46.000Z</time>
      </trkpt>
      <trkpt lat="47.50759" lon="6.84375">
        <ele>318</ele>
        <time>2015-04-06T07:58:47.000Z</time>
      </trkpt>
      <trkpt lat="47.50761" lon="6.84383">
        <ele>318</ele>
        <time>2015-04-06T07:58:48.000Z</time>
      </trkpt>
      <trkpt lat="47.50761" lon="6.84389">
        <ele>318</ele>
        <time>2015-04-06T07:58:49.000Z</time>
      </trkpt>
      <trkpt lat="47.50764" lon="6.84395">
        <ele>318</ele>
        <time>2015-04-06T07:58:50.000Z</time>
      </trkpt>
      <trkpt lat="47.50767" lon="6.84403">
        <ele>318</ele>
        <time>2015-04-06T07:58:51.000Z</time>
      </trkpt>
      <trkpt lat="47.5077" lon="6.84412">
        <ele>318</ele>
        <time>2015-04-06T07:58:52.000Z</time>
      </trkpt>
      <trkpt lat="47.50775" lon="6.8442">
        <ele>318</ele>
        <time>2015-04-06T07:58:53.000Z</time>
      </trkpt>
      <trkpt lat="47.50781" lon="6.84426">
        <ele>318</ele>
        <time>2015-04-06T07:58:54.000Z</time>
      </trkpt>
      <trkpt lat="47.50784" lon="6.84432">
        <ele>318</ele>
        <time>2015-04-06T07:58:55.000Z</time>
      </trkpt>
      <trkpt lat="47.5079" lon="6.84441">
        <ele>319</ele>
        <time>2015-04-06T07:58:56.000Z</time>
      </trkpt>
      <trkpt lat="47.50794" lon="6.84445">
        <ele>319</ele>
        <time>2015-04-06T07:58:57.000Z</time>
      </trkpt>
      <trkpt lat="47.50797" lon="6.8445">
        <ele>319</ele>
        <time>2015-04-06T07:58:58.000Z</time>
      </trkpt>
      <trkpt lat="47.50798" lon="6.84459">
        <ele>319</ele>
        <time>2015-04-06T07:58:59.000Z</time>
      </trkpt>
      <trkpt lat="47.50801" lon="6.84466">
        <ele>319</ele>
        <time>2015-04-06T07:59:00.000Z</time>
      </trkpt>
      <trkpt lat="47.50803" lon="6.84472">
        <ele>319</ele>
        <time>2015-04-06T07:59:01.000Z</time>
      </trkpt>
      <trkpt lat="47.50807" lon="6.84479">
        <ele>319</ele>
        <time>2015-04-06T07:59:02.000Z</time>
      </trkpt>
      <trkpt lat="47.50809" lon="6.84485">
        <ele>319</ele>
        <time>2015-04-06T07:59:03.000Z</time>
      </trkpt>
      <trkpt lat="47.50811" lon="6.8449">
        <ele>319</ele>
        <time>2015-04-06T07:59:04.000Z</time>
      </trkpt>
      <trkpt lat="47.50815" lon="6.84496">
        <ele>319</ele>
        <time>2015-04-06T07:59:05.000Z</time>
      </trkpt>
      <trkpt lat="47.50819" lon="6.84503">
        <ele>320</ele>
        <time>2015-04-06T07:59:06.000Z</time>
      </trkpt>
      <trkpt lat="47.50823" lon="6.84512">
        <ele>320</ele>
        <time>2015-04-06T07:59:07.000Z</time>
      </trkpt>
      <trkpt lat="47.50826" lon="6.84518">
        <ele>321</ele>
        <time>2015-04-06T07:59:08.000Z</time>
      </trkpt>
      <trkpt lat="47.50828" lon="6.84522">
        <ele>321</ele>
        <time>2015-04-06T07:59:09.000Z</time>
      </trkpt>
      <trkpt lat="47.50833" lon="6.8453">
        <ele>321</ele>
        <time>2015-04-06T07:59:10.000Z</time>
      </trkpt>
      <trkpt lat="47.50834" lon="6.84537">
        <ele>319</ele>
        <time>2015-04-06T07:59:11.000Z</time>
      </trkpt>
      <trkpt lat="47.50837" lon="6.84544">
        <ele>319</ele>
        <time>2015-04-06T07:59:12.000Z</time>
      </trkpt>
      <trkpt lat="47.50841" lon="6.84551">
        <ele>319</ele>
        <time>2015-04-06T07:59:13.000Z</time>
      </trkpt>
      <trkpt lat="47.50847" lon="6.84556">
        <ele>319</ele>
        <time>2015-04-06T07:59:14.000Z</time>
      </trkpt>
      <trkpt lat="47.50851" lon="6.84562">
        <ele>320</ele>
        <time>2015-04-06T07:59:15.000Z</time>
      </trkpt>
      <trkpt lat="47.50856" lon="6.84568">
        <ele>320</ele>
        <time>2015-04-06T07:59:16.000Z</time>
      </trkpt>
      <trkpt lat="47.5086" lon="6.84574">
        <ele>319</ele>
        <time>2015-04-06T07:59:17.000Z</time>
      </trkpt>
      <trkpt lat="47.50866" lon="6.84581">
        <ele>319</ele>
        <time>2015-04-06T07:59:18.000Z</time>
      </trkpt>
      <trkpt lat="47.50869" lon="6.84588">
        <ele>320</ele>
        <time>2015-04-06T07:59:19.000Z</time>
      </trkpt>
      <trkpt lat="47.50872" lon="6.84594">
        <ele>320</ele>
        <time>2015-04-06T07:59:20.000Z</time>
      </trkpt>
      <trkpt lat="47.50874" lon="6.846">
        <ele>320</ele>
        <time>2015-04-06T07:59:21.000Z</time>
      </trkpt>
      <trkpt lat="47.50878" lon="6.84604">
        <ele>320</ele>
        <time>2015-04-06T07:59:22.000Z</time>
      </trkpt>
      <trkpt lat="47.50882" lon="6.84612">
        <ele>320</ele>
        <time>2015-04-06T07:59:23.000Z</time>
      </trkpt>
      <trkpt lat="47.50885" lon="6.84617">
        <ele>319</ele>
        <time>2015-04-06T07:59:24.000Z</time>
      </trkpt>
      <trkpt lat="47.50887" lon="6.84623">
        <ele>319</ele>
        <time>2015-04-06T07:59:25.000Z</time>
      </trkpt>
      <trkpt lat="47.5089" lon="6.84628">
        <ele>319</ele>
        <time>2015-04-06T07:59:26.000Z</time>
      </trkpt>
      <trkpt lat="47.50894" lon="6.84634">
        <ele>319</ele>
        <time>2015-04-06T07:59:27.000Z</time>
      </trkpt>
      <trkpt lat="47.50897" lon="6.84641">
        <ele>319</ele>
        <time>2015-04-06T07:59:28.000Z</time>
      </trkpt>
      <trkpt lat="47.509" lon="6.84647">
        <ele>319</ele>
        <time>2015-04-06T07:59:29.000Z</time>
      </trkpt>
      <trkpt lat="47.50902" lon="6.84655">
        <ele>319</ele>
        <time>2015-04-06T07:59:30.000Z</time>
      </trkpt>
      <trkpt lat="47.50904" lon="6.84662">
        <ele>318</ele>
        <time>2015-04-06T07:59:31.000Z</time>
      </trkpt>
      <trkpt lat="47.50908" lon="6.84669">
        <ele>319</ele>
        <time>2015-04-06T07:59:32.000Z</time>
      </trkpt>
      <trkpt lat="47.50911" lon="6.84676">
        <ele>319</ele>
        <time>2015-04-06T07:59:33.000Z</time>
      </trkpt>
      <trkpt lat="47.50911" lon="6.84684">
        <ele>320</ele>
        <time>2015-04-06T07:59:34.000Z</time>
      </trkpt>
      <trkpt lat="47.50916" lon="6.84691">
        <ele>320</ele>
        <time>2015-04-06T07:59:35.000Z</time>
      </trkpt>
      <trkpt lat="47.50917" lon="6.84699">
        <ele>317</ele>
        <time>2015-04-06T07:59:36.000Z</time>
      </trkpt>
      <trkpt lat="47.50919" lon="6.84705">
        <ele>317</ele>
        <time>2015-04-06T07:59:37.000Z</time>
      </trkpt>
      <trkpt lat="47.50921" lon="6.84712">
        <ele>317</ele>
        <time>2015-04-06T07:59:38.000Z</time>
      </trkpt>
      <trkpt lat="47.50923" lon="6.84719">
        <ele>317</ele>
        <time>2015-04-06T07:59:39.000Z</time>
      </trkpt>
      <trkpt lat="47.50924" lon="6.84727">
        <ele>318</ele>
        <time>2015-04-06T07:59:40.000Z</time>
      </trkpt>
      <trkpt lat="47.50926" lon="6.84732">
        <ele>318</ele>
        <time>2015-04-06T07:59:41.000Z</time>
      </trkpt>
      <trkpt lat="47.50927" lon="6.84736">
        <ele>318</ele>
        <time>2015-04-06T07:59:42.000Z</time>
      </trkpt>
      <trkpt lat="47.50929" lon="6.84743">
        <ele>318</ele>
        <time>2015-04-06T07:59:43.000Z</time>
      </trkpt>
      <trkpt lat="47.5093" lon="6.8475">
        <ele>318</ele>
        <time>2015-04-06T07:59:44.000Z</time>
      </trkpt>
      <trkpt lat="47.50934" lon="6.84757">
        <ele>319</ele>
        <time>2015-04-06T07:59:45.000Z</time>
      </trkpt>
      <trkpt lat="47.50936" lon="6.84766">
        <ele>318</ele>
        <time>2015-04-06T07:59:46.000Z</time>
      </trkpt>
      <trkpt lat="47.50939" lon="6.84773">
        <ele>318</ele>
        <time>2015-04-06T07:59:47.000Z</time>
      </trkpt>
      <trkpt lat="47.50942" lon="6.84781">
        <ele>318</ele>
        <time>2015-04-06T07:59:48.000Z</time>
      </trkpt>
      <trkpt lat="47.50945" lon="6.84787">
        <ele>318</ele>
        <time>2015-04-06T07:59:49.000Z</time>
      </trkpt>
      <trkpt lat="47.50948" lon="6.84794">
        <ele>318</ele>
        <time>2015-04-06T07:59:50.000Z</time>
      </trkpt>
      <trkpt lat="47.50952" lon="6.84806">
        <ele>318</ele>
        <time>2015-04-06T07:59:52.000Z</time>
      </trkpt>
      <trkpt lat="47.50956" lon="6.84814">
        <ele>318</ele>
        <time>2015-04-06T07:59:53.000Z</time>
      </trkpt>
      <trkpt lat="47.50958" lon="6.84822">
        <ele>318</ele>
        <time>2015-04-06T07:59:54.000Z</time>
      </trkpt>
      <trkpt lat="47.50961" lon="6.84831">
        <ele>318</ele>
        <time>2015-04-06T07:59:55.000Z</time>
      </trkpt>
      <trkpt lat="47.50962" lon="6.84837">
        <ele>318</ele>
        <time>2015-04-06T07:59:56.000Z</time>
      </trkpt>
      <trkpt lat="47.50962" lon="6.84844">
        <ele>318</ele>
        <time>2015-04-06T07:59:57.000Z</time>
      </trkpt>
      <trkpt lat="47.50966" lon="6.84852">
        <ele>318</ele>
        <time>2015-04-06T07:59:58.000Z</time>
      </trkpt>
      <trkpt lat="47.50968" lon="6.84859">
        <ele>317</ele>
        <time>2015-04-06T07:59:59.000Z</time>
      </trkpt>
      <trkpt lat="47.50971" lon="6.84867">
        <ele>317</ele>
        <time>2015-04-06T08:00:00.000Z</time>
      </trkpt>
      <trkpt lat="47.50973" lon="6.84873">
        <ele>317</ele>
        <time>2015-04-06T08:00:01.000Z</time>
      </trkpt>
      <trkpt lat="47.50975" lon="6.8488">
        <ele>317</ele>
        <time>2015-04-06T08:00:02.000Z</time>
      </trkpt>
      <trkpt lat="47.50976" lon="6.84888">
        <ele>317</ele>
        <time>2015-04-06T08:00:03.000Z</time>
      </trkpt>
      <trkpt lat="47.50979" lon="6.84895">
        <ele>317</ele>
        <time>2015-04-06T08:00:04.000Z</time>
      </trkpt>
      <trkpt lat="47.50979" lon="6.84903">
        <ele>317</ele>
        <time>2015-04-06T08:00:05.000Z</time>
      </trkpt>
      <trkpt lat="47.50978" lon="6.84912">
        <ele>317</ele>
        <time>2015-04-06T08:00:06.000Z</time>
      </trkpt>
      <trkpt lat="47.50977" lon="6.84919">
        <ele>317</ele>
        <time>2015-04-06T08:00:07.000Z</time>
      </trkpt>
      <trkpt lat="47.50977" lon="6.84928">
        <ele>317</ele>
        <time>2015-04-06T08:00:08.000Z</time>
      </trkpt>
      <trkpt lat="47.50977" lon="6.84936">
        <ele>317</ele>
        <time>2015-04-06T08:00:09.000Z</time>
      </trkpt>
      <trkpt lat="47.50978" lon="6.84944">
        <ele>317</ele>
        <time>2015-04-06T08:00:10.000Z</time>
      </trkpt>
      <trkpt lat="47.50979" lon="6.84951">
        <ele>317</ele>
        <time>2015-04-06T08:00:11.000Z</time>
      </trkpt>
      <trkpt lat="47.5098" lon="6.84959">
        <ele>318</ele>
        <time>2015-04-06T08:00:12.000Z</time>
      </trkpt>
      <trkpt lat="47.5098" lon="6.84966">
        <ele>318</ele>
        <time>2015-04-06T08:00:13.000Z</time>
      </trkpt>
      <trkpt lat="47.50983" lon="6.84971">
        <ele>318</ele>
        <time>2015-04-06T08:00:14.000Z</time>
      </trkpt>
      <trkpt lat="47.50986" lon="6.84977">
        <ele>318</ele>
        <time>2015-04-06T08:00:15.000Z</time>
      </trkpt>
      <trkpt lat="47.50989" lon="6.84982">
        <ele>318</ele>
        <time>2015-04-06T08:00:16.000Z</time>
      </trkpt>
      <trkpt lat="47.50992" lon="6.8499">
        <ele>318</ele>
        <time>2015-04-06T08:00:17.000Z</time>
      </trkpt>
      <trkpt lat="47.50994" lon="6.85">
        <ele>318</ele>
        <time>2015-04-06T08:00:18.000Z</time>
      </trkpt>
      <trkpt lat="47.50996" lon="6.85005">
        <ele>318</ele>
        <time>2015-04-06T08:00:19.000Z</time>
      </trkpt>
      <trkpt lat="47.50998" lon="6.85012">
        <ele>318</ele>
        <time>2015-04-06T08:00:20.000Z</time>
      </trkpt>
      <trkpt lat="47.50999" lon="6.85019">
        <ele>318</ele>
        <time>2015-04-06T08:00:21.000Z</time>
      </trkpt>
      <trkpt lat="47.51002" lon="6.85026">
        <ele>317</ele>
        <time>2015-04-06T08:00:22.000Z</time>
      </trkpt>
      <trkpt lat="47.51004" lon="6.85032">
        <ele>317</ele>
        <time>2015-04-06T08:00:23.000Z</time>
      </trkpt>
      <trkpt lat="47.51007" lon="6.85035">
        <ele>317</ele>
        <time>2015-04-06T08:00:24.000Z</time>
      </trkpt>
      <trkpt lat="47.51011" lon="6.8504">
        <ele>317</ele>
        <time>2015-04-06T08:00:25.000Z</time>
      </trkpt>
      <trkpt lat="47.51013" lon="6.85045">
        <ele>317</ele>
        <time>2015-04-06T08:00:26.000Z</time>
      </trkpt>
      <trkpt lat="47.51015" lon="6.85054">
        <ele>317</ele>
        <time>2015-04-06T08:00:27.000Z</time>
      </trkpt>
      <trkpt lat="47.51017" lon="6.85062">
        <ele>317</ele>
        <time>2015-04-06T08:00:28.000Z</time>
      </trkpt>
      <trkpt lat="47.51021" lon="6.85069">
        <ele>317</ele>
        <time>2015-04-06T08:00:29.000Z</time>
      </trkpt>
      <trkpt lat="47.51025" lon="6.85074">
        <ele>317</ele>
        <time>2015-04-06T08:00:30.000Z</time>
      </trkpt>
      <trkpt lat="47.51028" lon="6.85079">
        <ele>317</ele>
        <time>2015-04-06T08:00:31.000Z</time>
      </trkpt>
      <trkpt lat="47.51031" lon="6.85081">
        <ele>317</ele>
        <time>2015-04-06T08:00:32.000Z</time>
      </trkpt>
      <trkpt lat="47.51034" lon="6.85082">
        <ele>317</ele>
        <time>2015-04-06T08:00:33.000Z</time>
      </trkpt>
      <trkpt lat="47.51036" lon="6.85083">
        <ele>317</ele>
        <time>2015-04-06T08:00:34.000Z</time>
      </trkpt>
      <trkpt lat="47.51038" lon="6.85085">
        <ele>318</ele>
        <time>2015-04-06T08:00:35.000Z</time>
      </trkpt>
      <trkpt lat="47.5104" lon="6.85088">
        <ele>318</ele>
        <time>2015-04-06T08:00:36.000Z</time>
      </trkpt>
      <trkpt lat="47.51042" lon="6.85094">
        <ele>318</ele>
        <time>2015-04-06T08:00:37.000Z</time>
      </trkpt>
      <trkpt lat="47.51043" lon="6.851">
        <ele>318</ele>
        <time>2015-04-06T08:00:38.000Z</time>
      </trkpt>
      <trkpt lat="47.51045" lon="6.85114">
        <ele>318</ele>
        <time>2015-04-06T08:00:39.000Z</time>
      </trkpt>
      <trkpt lat="47.51047" lon="6.85122">
        <ele>318</ele>
        <time>2015-04-06T08:00:40.000Z</time>
      </trkpt>
      <trkpt lat="47.51049" lon="6.85127">
        <ele>318</ele>
        <time>2015-04-06T08:00:41.000Z</time>
      </trkpt>
      <trkpt lat="47.51051" lon="6.85135">
        <ele>318</ele>
        <time>2015-04-06T08:00:42.000Z</time>
      </trkpt>
      <trkpt lat="47.51053" lon="6.85143">
        <ele>319</ele>
        <time>2015-04-06T08:00:43.000Z</time>
      </trkpt>
      <trkpt lat="47.51054" lon="6.8515">
        <ele>319</ele>
        <time>2015-04-06T08:00:44.000Z</time>
      </trkpt>
      <trkpt lat="47.51057" lon="6.85156">
        <ele>319</ele>
        <time>2015-04-06T08:00:45.000Z</time>
      </trkpt>
      <trkpt lat="47.5106" lon="6.85164">
        <ele>319</ele>
        <time>2015-04-06T08:00:46.000Z</time>
      </trkpt>
      <trkpt lat="47.51062" lon="6.85169">
        <ele>319</ele>
        <time>2015-04-06T08:00:47.000Z</time>
      </trkpt>
      <trkpt lat="47.51065" lon="6.85174">
        <ele>319</ele>
        <time>2015-04-06T08:00:48.000Z</time>
      </trkpt>
      <trkpt lat="47.51068" lon="6.85182">
        <ele>319</ele>
        <time>2015-04-06T08:00:49.000Z</time>
      </trkpt>
      <trkpt lat="47.51068" lon="6.85189">
        <ele>319</ele>
        <time>2015-04-06T08:00:50.000Z</time>
      </trkpt>
      <trkpt lat="47.51073" lon="6.85202">
        <ele>319</ele>
        <time>2015-04-06T08:00:52.000Z</time>
      </trkpt>
      <trkpt lat="47.51076" lon="6.85206">
        <ele>319</ele>
        <time>2015-04-06T08:00:53.000Z</time>
      </trkpt>
      <trkpt lat="47.51079" lon="6.85211">
        <ele>319</ele>
        <time>2015-04-06T08:00:54.000Z</time>
      </trkpt>
      <trkpt lat="47.51082" lon="6.85217">
        <ele>319</ele>
        <time>2015-04-06T08:00:55.000Z</time>
      </trkpt>
      <trkpt lat="47.51085" lon="6.85223">
        <ele>318</ele>
        <time>2015-04-06T08:00:56.000Z</time>
      </trkpt>
      <trkpt lat="47.51087" lon="6.8523">
        <ele>318</ele>
        <time>2015-04-06T08:00:57.000Z</time>
      </trkpt>
      <trkpt lat="47.5109" lon="6.85235">
        <ele>318</ele>
        <time>2015-04-06T08:00:58.000Z</time>
      </trkpt>
      <trkpt lat="47.51093" lon="6.8524">
        <ele>318</ele>
        <time>2015-04-06T08:00:59.000Z</time>
      </trkpt>
      <trkpt lat="47.51094" lon="6.85248">
        <ele>318</ele>
        <time>2015-04-06T08:01:00.000Z</time>
      </trkpt>
      <trkpt lat="47.51093" lon="6.85257">
        <ele>318</ele>
        <time>2015-04-06T08:01:01.000Z</time>
      </trkpt>
      <trkpt lat="47.51096" lon="6.85263">
        <ele>318</ele>
        <time>2015-04-06T08:01:02.000Z</time>
      </trkpt>
      <trkpt lat="47.51098" lon="6.85268">
        <ele>318</ele>
        <time>2015-04-06T08:01:03.000Z</time>
      </trkpt>
      <trkpt lat="47.511" lon="6.85275">
        <ele>318</ele>
        <time>2015-04-06T08:01:04.000Z</time>
      </trkpt>
      <trkpt lat="47.51101" lon="6.85282">
        <ele>318</ele>
        <time>2015-04-06T08:01:05.000Z</time>
      </trkpt>
      <trkpt lat="47.51103" lon="6.85288">
        <ele>318</ele>
        <time>2015-04-06T08:01:06.000Z</time>
      </trkpt>
      <trkpt lat="47.51104" lon="6.85296">
        <ele>318</ele>
        <time>2015-04-06T08:01:07.000Z</time>
      </trkpt>
      <trkpt lat="47.51108" lon="6.85303">
        <ele>318</ele>
        <time>2015-04-06T08:01:08.000Z</time>
      </trkpt>
      <trkpt lat="47.51109" lon="6.8531">
        <ele>318</ele>
        <time>2015-04-06T08:01:09.000Z</time>
      </trkpt>
      <trkpt lat="47.51112" lon="6.85318">
        <ele>318</ele>
        <time>2015-04-06T08:01:10.000Z</time>
      </trkpt>
      <trkpt lat="47.51114" lon="6.85324">
        <ele>318</ele>
        <time>2015-04-06T08:01:11.000Z</time>
      </trkpt>
      <trkpt lat="47.51115" lon="6.8533">
        <ele>318</ele>
        <time>2015-04-06T08:01:12.000Z</time>
      </trkpt>
      <trkpt lat="47.51116" lon="6.85337">
        <ele>319</ele>
        <time>2015-04-06T08:01:13.000Z</time>
      </trkpt>
      <trkpt lat="47.51118" lon="6.85344">
        <ele>319</ele>
        <time>2015-04-06T08:01:14.000Z</time>
      </trkpt>
      <trkpt lat="47.51121" lon="6.85352">
        <ele>319</ele>
        <time>2015-04-06T08:01:15.000Z</time>
      </trkpt>
      <trkpt lat="47.51123" lon="6.85358">
        <ele>319</ele>
        <time>2015-04-06T08:01:16.000Z</time>
      </trkpt>
      <trkpt lat="47.51125" lon="6.85365">
        <ele>319</ele>
        <time>2015-04-06T08:01:17.000Z</time>
      </trkpt>
      <trkpt lat="47.51128" lon="6.85373">
        <ele>319</ele>
        <time>2015-04-06T08:01:18.000Z</time>
      </trkpt>
      <trkpt lat="47.51131" lon="6.85381">
        <ele>319</ele>
        <time>2015-04-06T08:01:19.000Z</time>
      </trkpt>
      <trkpt lat="47.51134" lon="6.85388">
        <ele>319</ele>
        <time>2015-04-06T08:01:20.000Z</time>
      </trkpt>
      <trkpt lat="47.51136" lon="6.85393">
        <ele>319</ele>
        <time>2015-04-06T08:01:21.000Z</time>
      </trkpt>
      <trkpt lat="47.51142" lon="6.85402">
        <ele>319</ele>
        <time>2015-04-06T08:01:22.000Z</time>
      </trkpt>
      <trkpt lat="47.51143" lon="6.85408">
        <ele>319</ele>
        <time>2015-04-06T08:01:23.000Z</time>
      </trkpt>
      <trkpt lat="47.51144" lon="6.85415">
        <ele>319</ele>
        <time>2015-04-06T08:01:24.000Z</time>
      </trkpt>
      <trkpt lat="47.51146" lon="6.85422">
        <ele>319</ele>
        <time>2015-04-06T08:01:25.000Z</time>
      </trkpt>
      <trkpt lat="47.51148" lon="6.85429">
        <ele>319</ele>
        <time>2015-04-06T08:01:26.000Z</time>
      </trkpt>
      <trkpt lat="47.51151" lon="6.85436">
        <ele>319</ele>
        <time>2015-04-06T08:01:27.000Z</time>
      </trkpt>
      <trkpt lat="47.51154" lon="6.85445">
        <ele>320</ele>
        <time>2015-04-06T08:01:28.000Z</time>
      </trkpt>
      <trkpt lat="47.51155" lon="6.85452">
        <ele>320</ele>
        <time>2015-04-06T08:01:29.000Z</time>
      </trkpt>
      <trkpt lat="47.51156" lon="6.85458">
        <ele>320</ele>
        <time>2015-04-06T08:01:30.000Z</time>
      </trkpt>
      <trkpt lat="47.51158" lon="6.85465">
        <ele>319</ele>
        <time>2015-04-06T08:01:31.000Z</time>
      </trkpt>
      <trkpt lat="47.51161" lon="6.85471">
        <ele>319</ele>
        <time>2015-04-06T08:01:32.000Z</time>
      </trkpt>
      <trkpt lat="47.51163" lon="6.85477">
        <ele>319</ele>
        <time>2015-04-06T08:01:33.000Z</time>
      </trkpt>
      <trkpt lat="47.51166" lon="6.85484">
        <ele>319</ele>
        <time>2015-04-06T08:01:34.000Z</time>
      </trkpt>
      <trkpt lat="47.51168" lon="6.85492">
        <ele>319</ele>
        <time>2015-04-06T08:01:35.000Z</time>
      </trkpt>
      <trkpt lat="47.51169" lon="6.85499">
        <ele>319</ele>
        <time>2015-04-06T08:01:36.000Z</time>
      </trkpt>
      <trkpt lat="47.51171" lon="6.85506">
        <ele>319</ele>
        <time>2015-04-06T08:01:37.000Z</time>
      </trkpt>
      <trkpt lat="47.51172" lon="6.85514">
        <ele>319</ele>
        <time>2015-04-06T08:01:38.000Z</time>
      </trkpt>
      <trkpt lat="47.51177" lon="6.8552">
        <ele>319</ele>
        <time>2015-04-06T08:01:39.000Z</time>
      </trkpt>
      <trkpt lat="47.51179" lon="6.85524">
        <ele>319</ele>
        <time>2015-04-06T08:01:40.000Z</time>
      </trkpt>
      <trkpt lat="47.51181" lon="6.85531">
        <ele>318</ele>
        <time>2015-04-06T08:01:41.000Z</time>
      </trkpt>
      <trkpt lat="47.51182" lon="6.85538">
        <ele>318</ele>
        <time>2015-04-06T08:01:42.000Z</time>
      </trkpt>
      <trkpt lat="47.51184" lon="6.85545">
        <ele>318</ele>
        <time>2015-04-06T08:01:43.000Z</time>
      </trkpt>
      <trkpt lat="47.51186" lon="6.85552">
        <ele>318</ele>
        <time>2015-04-06T08:01:44.000Z</time>
      </trkpt>
      <trkpt lat="47.51189" lon="6.85559">
        <ele>318</ele>
        <time>2015-04-06T08:01:45.000Z</time>
      </trkpt>
      <trkpt lat="47.51192" lon="6.85566">
        <ele>318</ele>
        <time>2015-04-06T08:01:46.000Z</time>
      </trkpt>
      <trkpt lat="47.51192" lon="6.85576">
        <ele>319</ele>
        <time>2015-04-06T08:01:47.000Z</time>
      </trkpt>
      <trkpt lat="47.51195" lon="6.85582">
        <ele>318</ele>
        <time>2015-04-06T08:01:48.000Z</time>
      </trkpt>
      <trkpt lat="47.51199" lon="6.85588">
        <ele>319</ele>
        <time>2015-04-06T08:01:49.000Z</time>
      </trkpt>
      <trkpt lat="47.51201" lon="6.85595">
        <ele>319</ele>
        <time>2015-04-06T08:01:50.000Z</time>
      </trkpt>
      <trkpt lat="47.51205" lon="6.85609">
        <ele>319</ele>
        <time>2015-04-06T08:01:52.000Z</time>
      </trkpt>
      <trkpt lat="47.51204" lon="6.85619">
        <ele>319</ele>
        <time>2015-04-06T08:01:53.000Z</time>
      </trkpt>
      <trkpt lat="47.51206" lon="6.85627">
        <ele>319</ele>
        <time>2015-04-06T08:01:54.000Z</time>
      </trkpt>
      <trkpt lat="47.51209" lon="6.85635">
        <ele>319</ele>
        <time>2015-04-06T08:01:55.000Z</time>
      </trkpt>
      <trkpt lat="47.5121" lon="6.85644">
        <ele>319</ele>
        <time>2015-04-06T08:01:56.000Z</time>
      </trkpt>
      <trkpt lat="47.51214" lon="6.85652">
        <ele>319</ele>
        <time>2015-04-06T08:01:57.000Z</time>
      </trkpt>
      <trkpt lat="47.51213" lon="6.85659">
        <ele>319</ele>
        <time>2015-04-06T08:01:58.000Z</time>
      </trkpt>
      <trkpt lat="47.51214" lon="6.85665">
        <ele>319</ele>
        <time>2015-04-06T08:01:59.000Z</time>
      </trkpt>
      <trkpt lat="47.51214" lon="6.85673">
        <ele>320</ele>
        <time>2015-04-06T08:02:00.000Z</time>
      </trkpt>
      <trkpt lat="47.51215" lon="6.85682">
        <ele>320</ele>
        <time>2015-04-06T08:02:01.000Z</time>
      </trkpt>
      <trkpt lat="47.51218" lon="6.8569">
        <ele>320</ele>
        <time>2015-04-06T08:02:02.000Z</time>
      </trkpt>
      <trkpt lat="47.51222" lon="6.85694">
        <ele>320</ele>
        <time>2015-04-06T08:02:03.000Z</time>
      </trkpt>
      <trkpt lat="47.51225" lon="6.85702">
        <ele>320</ele>
        <time>2015-04-06T08:02:04.000Z</time>
      </trkpt>
      <trkpt lat="47.51228" lon="6.85708">
        <ele>320</ele>
        <time>2015-04-06T08:02:05.000Z</time>
      </trkpt>
      <trkpt lat="47.5123" lon="6.85714">
        <ele>320</ele>
        <time>2015-04-06T08:02:06.000Z</time>
      </trkpt>
      <trkpt lat="47.51232" lon="6.85723">
        <ele>320</ele>
        <time>2015-04-06T08:02:07.000Z</time>
      </trkpt>
      <trkpt lat="47.51235" lon="6.8573">
        <ele>320</ele>
        <time>2015-04-06T08:02:08.000Z</time>
      </trkpt>
      <trkpt lat="47.51238" lon="6.85737">
        <ele>320</ele>
        <time>2015-04-06T08:02:09.000Z</time>
      </trkpt>
      <trkpt lat="47.51241" lon="6.85745">
        <ele>321</ele>
        <time>2015-04-06T08:02:10.000Z</time>
      </trkpt>
      <trkpt lat="47.51242" lon="6.85751">
        <ele>321</ele>
        <time>2015-04-06T08:02:11.000Z</time>
      </trkpt>
      <trkpt lat="47.51247" lon="6.85756">
        <ele>321</ele>
        <time>2015-04-06T08:02:12.000Z</time>
      </trkpt>
      <trkpt lat="47.51249" lon="6.85764">
        <ele>321</ele>
        <time>2015-04-06T08:02:13.000Z</time>
      </trkpt>
      <trkpt lat="47.51252" lon="6.85771">
        <ele>321</ele>
        <time>2015-04-06T08:02:14.000Z</time>
      </trkpt>
      <trkpt lat="47.51253" lon="6.85779">
        <ele>321</ele>
        <time>2015-04-06T08:02:15.000Z</time>
      </trkpt>
      <trkpt lat="47.51255" lon="6.85783">
        <ele>321</ele>
        <time>2015-04-06T08:02:16.000Z</time>
      </trkpt>
      <trkpt lat="47.51257" lon="6.85788">
        <ele>321</ele>
        <time>2015-04-06T08:02:17.000Z</time>
      </trkpt>
      <trkpt lat="47.51259" lon="6.85795">
        <ele>321</ele>
        <time>2015-04-06T08:02:18.000Z</time>
      </trkpt>
      <trkpt lat="47.51261" lon="6.858">
        <ele>321</ele>
        <time>2015-04-06T08:02:19.000Z</time>
      </trkpt>
      <trkpt lat="47.51263" lon="6.85807">
        <ele>321</ele>
        <time>2015-04-06T08:02:20.000Z</time>
      </trkpt>
      <trkpt lat="47.51266" lon="6.85813">
        <ele>321</ele>
        <time>2015-04-06T08:02:21.000Z</time>
      </trkpt>
      <trkpt lat="47.51268" lon="6.85819">
        <ele>321</ele>
        <time>2015-04-06T08:02:22.000Z</time>
      </trkpt>
      <trkpt lat="47.51271" lon="6.85826">
        <ele>321</ele>
        <time>2015-04-06T08:02:23.000Z</time>
      </trkpt>
      <trkpt lat="47.51274" lon="6.85834">
        <ele>321</ele>
        <time>2015-04-06T08:02:24.000Z</time>
      </trkpt>
      <trkpt lat="47.51275" lon="6.85841">
        <ele>321</ele>
        <time>2015-04-06T08:02:25.000Z</time>
      </trkpt>
      <trkpt lat="47.51273" lon="6.85846">
        <ele>321</ele>
        <time>2015-04-06T08:02:26.000Z</time>
      </trkpt>
      <trkpt lat="47.51269" lon="6.8585">
        <ele>321</ele>
        <time>2015-04-06T08:02:27.000Z</time>
      </trkpt>
      <trkpt lat="47.51263" lon="6.85852">
        <ele>321</ele>
        <time>2015-04-06T08:02:28.000Z</time>
      </trkpt>
      <trkpt lat="47.51257" lon="6.85855">
        <ele>321</ele>
        <time>2015-04-06T08:02:29.000Z</time>
      </trkpt>
      <trkpt lat="47.51254" lon="6.8586">
        <ele>321</ele>
        <time>2015-04-06T08:02:30.000Z</time>
      </trkpt>
      <trkpt lat="47.5125" lon="6.85866">
        <ele>321</ele>
        <time>2015-04-06T08:02:31.000Z</time>
      </trkpt>
      <trkpt lat="47.51246" lon="6.85872">
        <ele>321</ele>
        <time>2015-04-06T08:02:32.000Z</time>
      </trkpt>
      <trkpt lat="47.51241" lon="6.85876">
        <ele>321</ele>
        <time>2015-04-06T08:02:33.000Z</time>
      </trkpt>
      <trkpt lat="47.51237" lon="6.8588">
        <ele>321</ele>
        <time>2015-04-06T08:02:34.000Z</time>
      </trkpt>
      <trkpt lat="47.51232" lon="6.85883">
        <ele>321</ele>
        <time>2015-04-06T08:02:35.000Z</time>
      </trkpt>
      <trkpt lat="47.51226" lon="6.85886">
        <ele>321</ele>
        <time>2015-04-06T08:02:36.000Z</time>
      </trkpt>
      <trkpt lat="47.51221" lon="6.85888">
        <ele>321</ele>
        <time>2015-04-06T08:02:37.000Z</time>
      </trkpt>
      <trkpt lat="47.51216" lon="6.85891">
        <ele>321</ele>
        <time>2015-04-06T08:02:38.000Z</time>
      </trkpt>
      <trkpt lat="47.5121" lon="6.85897">
        <ele>321</ele>
        <time>2015-04-06T08:02:39.000Z</time>
      </trkpt>
      <trkpt lat="47.51205" lon="6.859">
        <ele>321</ele>
        <time>2015-04-06T08:02:40.000Z</time>
      </trkpt>
      <trkpt lat="47.51199" lon="6.85903">
        <ele>321</ele>
        <time>2015-04-06T08:02:41.000Z</time>
      </trkpt>
      <trkpt lat="47.51193" lon="6.85904">
        <ele>321</ele>
        <time>2015-04-06T08:02:42.000Z</time>
      </trkpt>
      <trkpt lat="47.51188" lon="6.85906">
        <ele>321</ele>
        <time>2015-04-06T08:02:43.000Z</time>
      </trkpt>
      <trkpt lat="47.51183" lon="6.85909">
        <ele>321</ele>
        <time>2015-04-06T08:02:44.000Z</time>
      </trkpt>
      <trkpt lat="47.51178" lon="6.85913">
        <ele>321</ele>
        <time>2015-04-06T08:02:45.000Z</time>
      </trkpt>
      <trkpt lat="47.51172" lon="6.85917">
        <ele>321</ele>
        <time>2015-04-06T08:02:46.000Z</time>
      </trkpt>
      <trkpt lat="47.51166" lon="6.85921">
        <ele>321</ele>
        <time>2015-04-06T08:02:47.000Z</time>
      </trkpt>
      <trkpt lat="47.51161" lon="6.85925">
        <ele>321</ele>
        <time>2015-04-06T08:02:48.000Z</time>
      </trkpt>
      <trkpt lat="47.51155" lon="6.85928">
        <ele>321</ele>
        <time>2015-04-06T08:02:49.000Z</time>
      </trkpt>
      <trkpt lat="47.5115" lon="6.85931">
        <ele>321</ele>
        <time>2015-04-06T08:02:50.000Z</time>
      </trkpt>
      <trkpt lat="47.51144" lon="6.85934">
        <ele>321</ele>
        <time>2015-04-06T08:02:51.000Z</time>
      </trkpt>
      <trkpt lat="47.51139" lon="6.85936">
        <ele>321</ele>
        <time>2015-04-06T08:02:52.000Z</time>
      </trkpt>
      <trkpt lat="47.51135" lon="6.85938">
        <ele>321</ele>
        <time>2015-04-06T08:02:53.000Z</time>
      </trkpt>
      <trkpt lat="47.5113" lon="6.8594">
        <ele>321</ele>
        <time>2015-04-06T08:02:54.000Z</time>
      </trkpt>
      <trkpt lat="47.51126" lon="6.85941">
        <ele>321</ele>
        <time>2015-04-06T08:02:55.000Z</time>
      </trkpt>
      <trkpt lat="47.51121" lon="6.8594">
        <ele>321</ele>
        <time>2015-04-06T08:02:56.000Z</time>
      </trkpt>
      <trkpt lat="47.51118" lon="6.85941">
        <ele>321</ele>
        <time>2015-04-06T08:02:57.000Z</time>
      </trkpt>
      <trkpt lat="47.51112" lon="6.85943">
        <ele>321</ele>
        <time>2015-04-06T08:02:58.000Z</time>
      </trkpt>
      <trkpt lat="47.51108" lon="6.85943">
        <ele>321</ele>
        <time>2015-04-06T08:02:59.000Z</time>
      </trkpt>
      <trkpt lat="47.51103" lon="6.85944">
        <ele>321</ele>
        <time>2015-04-06T08:03:00.000Z</time>
      </trkpt>
      <trkpt lat="47.51099" lon="6.85944">
        <ele>321</ele>
        <time>2015-04-06T08:03:01.000Z</time>
      </trkpt>
      <trkpt lat="47.51096" lon="6.85943">
        <ele>321</ele>
        <time>2015-04-06T08:03:02.000Z</time>
      </trkpt>
      <trkpt lat="47.51091" lon="6.85942">
        <ele>321</ele>
        <time>2015-04-06T08:03:03.000Z</time>
      </trkpt>
      <trkpt lat="47.51085" lon="6.85944">
        <ele>321</ele>
        <time>2015-04-06T08:03:04.000Z</time>
      </trkpt>
      <trkpt lat="47.51079" lon="6.8595">
        <ele>322</ele>
        <time>2015-04-06T08:03:05.000Z</time>
      </trkpt>
      <trkpt lat="47.51077" lon="6.85957">
        <ele>322</ele>
        <time>2015-04-06T08:03:06.000Z</time>
      </trkpt>
      <trkpt lat="47.51073" lon="6.85959">
        <ele>322</ele>
        <time>2015-04-06T08:03:07.000Z</time>
      </trkpt>
      <trkpt lat="47.51068" lon="6.8596">
        <ele>322</ele>
        <time>2015-04-06T08:03:08.000Z</time>
      </trkpt>
      <trkpt lat="47.51064" lon="6.85962">
        <ele>322</ele>
        <time>2015-04-06T08:03:09.000Z</time>
      </trkpt>
      <trkpt lat="47.51059" lon="6.85965">
        <ele>322</ele>
        <time>2015-04-06T08:03:10.000Z</time>
      </trkpt>
      <trkpt lat="47.51054" lon="6.85964">
        <ele>322</ele>
        <time>2015-04-06T08:03:11.000Z</time>
      </trkpt>
      <trkpt lat="47.51047" lon="6.85965">
        <ele>322</ele>
        <time>2015-04-06T08:03:12.000Z</time>
      </trkpt>
      <trkpt lat="47.51042" lon="6.85967">
        <ele>322</ele>
        <time>2015-04-06T08:03:13.000Z</time>
      </trkpt>
      <trkpt lat="47.51037" lon="6.85967">
        <ele>322</ele>
        <time>2015-04-06T08:03:14.000Z</time>
      </trkpt>
      <trkpt lat="47.51033" lon="6.85969">
        <ele>322</ele>
        <time>2015-04-06T08:03:15.000Z</time>
      </trkpt>
      <trkpt lat="47.51027" lon="6.85971">
        <ele>322</ele>
        <time>2015-04-06T08:03:16.000Z</time>
      </trkpt>
      <trkpt lat="47.51021" lon="6.85971">
        <ele>322</ele>
        <time>2015-04-06T08:03:17.000Z</time>
      </trkpt>
      <trkpt lat="47.51017" lon="6.85974">
        <ele>322</ele>
        <time>2015-04-06T08:03:18.000Z</time>
      </trkpt>
      <trkpt lat="47.51012" lon="6.85974">
        <ele>322</ele>
        <time>2015-04-06T08:03:19.000Z</time>
      </trkpt>
      <trkpt lat="47.51007" lon="6.85976">
        <ele>322</ele>
        <time>2015-04-06T08:03:20.000Z</time>
      </trkpt>
      <trkpt lat="47.51002" lon="6.85977">
        <ele>322</ele>
        <time>2015-04-06T08:03:21.000Z</time>
      </trkpt>
      <trkpt lat="47.50996" lon="6.85978">
        <ele>323</ele>
        <time>2015-04-06T08:03:22.000Z</time>
      </trkpt>
      <trkpt lat="47.50991" lon="6.85978">
        <ele>323</ele>
        <time>2015-04-06T08:03:23.000Z</time>
      </trkpt>
      <trkpt lat="47.50986" lon="6.85979">
        <ele>323</ele>
        <time>2015-04-06T08:03:24.000Z</time>
      </trkpt>
      <trkpt lat="47.50982" lon="6.8598">
        <ele>323</ele>
        <time>2015-04-06T08:03:25.000Z</time>
      </trkpt>
      <trkpt lat="47.50976" lon="6.85981">
        <ele>323</ele>
        <time>2015-04-06T08:03:26.000Z</time>
      </trkpt>
      <trkpt lat="47.50971" lon="6.85982">
        <ele>323</ele>
        <time>2015-04-06T08:03:27.000Z</time>
      </trkpt>
      <trkpt lat="47.50966" lon="6.85982">
        <ele>324</ele>
        <time>2015-04-06T08:03:28.000Z</time>
      </trkpt>
      <trkpt lat="47.50961" lon="6.85983">
        <ele>324</ele>
        <time>2015-04-06T08:03:29.000Z</time>
      </trkpt>
      <trkpt lat="47.50956" lon="6.85984">
        <ele>324</ele>
        <time>2015-04-06T08:03:30.000Z</time>
      </trkpt>
      <trkpt lat="47.5095" lon="6.85985">
        <ele>324</ele>
        <time>2015-04-06T08:03:31.000Z</time>
      </trkpt>
      <trkpt lat="47.50946" lon="6.85985">
        <ele>324</ele>
        <time>2015-04-06T08:03:32.000Z</time>
      </trkpt>
      <trkpt lat="47.50941" lon="6.85985">
        <ele>324</ele>
        <time>2015-04-06T08:03:33.000Z</time>
      </trkpt>
      <trkpt lat="47.50935" lon="6.85986">
        <ele>324</ele>
        <time>2015-04-06T08:03:34.000Z</time>
      </trkpt>
      <trkpt lat="47.5093" lon="6.85986">
        <ele>324</ele>
        <time>2015-04-06T08:03:35.000Z</time>
      </trkpt>
      <trkpt lat="47.50925" lon="6.85987">
        <ele>324</ele>
        <time>2015-04-06T08:03:36.000Z</time>
      </trkpt>
      <trkpt lat="47.5092" lon="6.85987">
        <ele>324</ele>
        <time>2015-04-06T08:03:37.000Z</time>
      </trkpt>
      <trkpt lat="47.50916" lon="6.85987">
        <ele>325</ele>
        <time>2015-04-06T08:03:38.000Z</time>
      </trkpt>
      <trkpt lat="47.5091" lon="6.85986">
        <ele>325</ele>
        <time>2015-04-06T08:03:39.000Z</time>
      </trkpt>
      <trkpt lat="47.50906" lon="6.85987">
        <ele>325</ele>
        <time>2015-04-06T08:03:40.000Z</time>
      </trkpt>
      <trkpt lat="47.50901" lon="6.85986">
        <ele>325</ele>
        <time>2015-04-06T08:03:41.000Z</time>
      </trkpt>
      <trkpt lat="47.50896" lon="6.85985">
        <ele>325</ele>
        <time>2015-04-06T08:03:42.000Z</time>
      </trkpt>
      <trkpt lat="47.5089" lon="6.85985">
        <ele>325</ele>
        <time>2015-04-06T08:03:43.000Z</time>
      </trkpt>
      <trkpt lat="47.50885" lon="6.85982">
        <ele>325</ele>
        <time>2015-04-06T08:03:44.000Z</time>
      </trkpt>
      <trkpt lat="47.5088" lon="6.8598">
        <ele>325</ele>
        <time>2015-04-06T08:03:45.000Z</time>
      </trkpt>
      <trkpt lat="47.50875" lon="6.85979">
        <ele>325</ele>
        <time>2015-04-06T08:03:46.000Z</time>
      </trkpt>
      <trkpt lat="47.5087" lon="6.85979">
        <ele>325</ele>
        <time>2015-04-06T08:03:47.000Z</time>
      </trkpt>
      <trkpt lat="47.50866" lon="6.8598">
        <ele>325</ele>
        <time>2015-04-06T08:03:48.000Z</time>
      </trkpt>
      <trkpt lat="47.5086" lon="6.85981">
        <ele>325</ele>
        <time>2015-04-06T08:03:49.000Z</time>
      </trkpt>
      <trkpt lat="47.50855" lon="6.85981">
        <ele>325</ele>
        <time>2015-04-06T08:03:50.000Z</time>
      </trkpt>
      <trkpt lat="47.50849" lon="6.85981">
        <ele>325</ele>
        <time>2015-04-06T08:03:51.000Z</time>
      </trkpt>
      <trkpt lat="47.50842" lon="6.85983">
        <ele>325</ele>
        <time>2015-04-06T08:03:52.000Z</time>
      </trkpt>
      <trkpt lat="47.50837" lon="6.85982">
        <ele>325</ele>
        <time>2015-04-06T08:03:53.000Z</time>
      </trkpt>
      <trkpt lat="47.50832" lon="6.85982">
        <ele>326</ele>
        <time>2015-04-06T08:03:54.000Z</time>
      </trkpt>
      <trkpt lat="47.50826" lon="6.85983">
        <ele>326</ele>
        <time>2015-04-06T08:03:55.000Z</time>
      </trkpt>
      <trkpt lat="47.5082" lon="6.85985">
        <ele>326</ele>
        <time>2015-04-06T08:03:56.000Z</time>
      </trkpt>
      <trkpt lat="47.50815" lon="6.85987">
        <ele>326</ele>
        <time>2015-04-06T08:03:57.000Z</time>
      </trkpt>
      <trkpt lat="47.5081" lon="6.85988">
        <ele>326</ele>
        <time>2015-04-06T08:03:58.000Z</time>
      </trkpt>
      <trkpt lat="47.50805" lon="6.8599">
        <ele>326</ele>
        <time>2015-04-06T08:03:59.000Z</time>
      </trkpt>
      <trkpt lat="47.508" lon="6.85991">
        <ele>326</ele>
        <time>2015-04-06T08:04:00.000Z</time>
      </trkpt>
      <trkpt lat="47.50794" lon="6.85991">
        <ele>326</ele>
        <time>2015-04-06T08:04:01.000Z</time>
      </trkpt>
      <trkpt lat="47.50791" lon="6.85992">
        <ele>326</ele>
        <time>2015-04-06T08:04:02.000Z</time>
      </trkpt>
      <trkpt lat="47.50787" lon="6.85993">
        <ele>326</ele>
        <time>2015-04-06T08:04:03.000Z</time>
      </trkpt>
      <trkpt lat="47.50782" lon="6.85996">
        <ele>326</ele>
        <time>2015-04-06T08:04:04.000Z</time>
      </trkpt>
      <trkpt lat="47.50777" lon="6.86">
        <ele>326</ele>
        <time>2015-04-06T08:04:05.000Z</time>
      </trkpt>
      <trkpt lat="47.50772" lon="6.86004">
        <ele>326</ele>
        <time>2015-04-06T08:04:06.000Z</time>
      </trkpt>
      <trkpt lat="47.50767" lon="6.86007">
        <ele>326</ele>
        <time>2015-04-06T08:04:07.000Z</time>
      </trkpt>
      <trkpt lat="47.50763" lon="6.86009">
        <ele>326</ele>
        <time>2015-04-06T08:04:08.000Z</time>
      </trkpt>
      <trkpt lat="47.50758" lon="6.86013">
        <ele>326</ele>
        <time>2015-04-06T08:04:09.000Z</time>
      </trkpt>
      <trkpt lat="47.50754" lon="6.86017">
        <ele>326</ele>
        <time>2015-04-06T08:04:10.000Z</time>
      </trkpt>
      <trkpt lat="47.5075" lon="6.86023">
        <ele>327</ele>
        <time>2015-04-06T08:04:11.000Z</time>
      </trkpt>
      <trkpt lat="47.50747" lon="6.86026">
        <ele>327</ele>
        <time>2015-04-06T08:04:12.000Z</time>
      </trkpt>
      <trkpt lat="47.50743" lon="6.86032">
        <ele>327</ele>
        <time>2015-04-06T08:04:13.000Z</time>
      </trkpt>
      <trkpt lat="47.5074" lon="6.86035">
        <ele>327</ele>
        <time>2015-04-06T08:04:14.000Z</time>
      </trkpt>
      <trkpt lat="47.50737" lon="6.86041">
        <ele>327</ele>
        <time>2015-04-06T08:04:15.000Z</time>
      </trkpt>
      <trkpt lat="47.50734" lon="6.86045">
        <ele>327</ele>
        <time>2015-04-06T08:04:16.000Z</time>
      </trkpt>
      <trkpt lat="47.50731" lon="6.86051">
        <ele>327</ele>
        <time>2015-04-06T08:04:17.000Z</time>
      </trkpt>
      <trkpt lat="47.50729" lon="6.86058">
        <ele>327</ele>
        <time>2015-04-06T08:04:18.000Z</time>
      </trkpt>
      <trkpt lat="47.50727" lon="6.86064">
        <ele>327</ele>
        <time>2015-04-06T08:04:19.000Z</time>
      </trkpt>
      <trkpt lat="47.50724" lon="6.86071">
        <ele>327</ele>
        <time>2015-04-06T08:04:20.000Z</time>
      </trkpt>
      <trkpt lat="47.50722" lon="6.86074">
        <ele>327</ele>
        <time>2015-04-06T08:04:21.000Z</time>
      </trkpt>
      <trkpt lat="47.5072" lon="6.86079">
        <ele>327</ele>
        <time>2015-04-06T08:04:22.000Z</time>
      </trkpt>
      <trkpt lat="47.50718" lon="6.86082">
        <ele>327</ele>
        <time>2015-04-06T08:04:23.000Z</time>
      </trkpt>
      <trkpt lat="47.50715" lon="6.86085">
        <ele>328</ele>
        <time>2015-04-06T08:04:24.000Z</time>
      </trkpt>
      <trkpt lat="47.50712" lon="6.86088">
        <ele>329</ele>
        <time>2015-04-06T08:04:25.000Z</time>
      </trkpt>
      <trkpt lat="47.50709" lon="6.86092">
        <ele>329</ele>
        <time>2015-04-06T08:04:26.000Z</time>
      </trkpt>
      <trkpt lat="47.50707" lon="6.86095">
        <ele>329</ele>
        <time>2015-04-06T08:04:27.000Z</time>
      </trkpt>
      <trkpt lat="47.50702" lon="6.86101">
        <ele>329</ele>
        <time>2015-04-06T08:04:28.000Z</time>
      </trkpt>
      <trkpt lat="47.50702" lon="6.86106">
        <ele>329</ele>
        <time>2015-04-06T08:04:29.000Z</time>
      </trkpt>
      <trkpt lat="47.50701" lon="6.86114">
        <ele>329</ele>
        <time>2015-04-06T08:04:30.000Z</time>
      </trkpt>
      <trkpt lat="47.50702" lon="6.86118">
        <ele>329</ele>
        <time>2015-04-06T08:04:31.000Z</time>
      </trkpt>
      <trkpt lat="47.50705" lon="6.86117">
        <ele>329</ele>
        <time>2015-04-06T08:04:32.000Z</time>
      </trkpt>
      <trkpt lat="47.50706" lon="6.86122">
        <ele>329</ele>
        <time>2015-04-06T08:04:34.000Z</time>
      </trkpt>
      <trkpt lat="47.50706" lon="6.86126">
        <ele>329</ele>
        <time>2015-04-06T08:04:35.000Z</time>
      </trkpt>
      <trkpt lat="47.50707" lon="6.8613">
        <ele>329</ele>
        <time>2015-04-06T08:04:36.000Z</time>
      </trkpt>
      <trkpt lat="47.50708" lon="6.86135">
        <ele>329</ele>
        <time>2015-04-06T08:04:37.000Z</time>
      </trkpt>
      <trkpt lat="47.50708" lon="6.8614">
        <ele>330</ele>
        <time>2015-04-06T08:04:38.000Z</time>
      </trkpt>
      <trkpt lat="47.50708" lon="6.86145">
        <ele>330</ele>
        <time>2015-04-06T08:04:39.000Z</time>
      </trkpt>
      <trkpt lat="47.50709" lon="6.8615">
        <ele>330</ele>
        <time>2015-04-06T08:04:40.000Z</time>
      </trkpt>
      <trkpt lat="47.50709" lon="6.86155">
        <ele>330</ele>
        <time>2015-04-06T08:04:41.000Z</time>
      </trkpt>
      <trkpt lat="47.5071" lon="6.8616">
        <ele>330</ele>
        <time>2015-04-06T08:04:42.000Z</time>
      </trkpt>
      <trkpt lat="47.5071" lon="6.86165">
        <ele>330</ele>
        <time>2015-04-06T08:04:43.000Z</time>
      </trkpt>
      <trkpt lat="47.50711" lon="6.8617">
        <ele>333</ele>
        <time>2015-04-06T08:04:44.000Z</time>
      </trkpt>
      <trkpt lat="47.50712" lon="6.86175">
        <ele>333</ele>
        <time>2015-04-06T08:04:45.000Z</time>
      </trkpt>
      <trkpt lat="47.50713" lon="6.8618">
        <ele>333</ele>
        <time>2015-04-06T08:04:46.000Z</time>
      </trkpt>
      <trkpt lat="47.50714" lon="6.86185">
        <ele>333</ele>
        <time>2015-04-06T08:04:47.000Z</time>
      </trkpt>
      <trkpt lat="47.50715" lon="6.8619">
        <ele>333</ele>
        <time>2015-04-06T08:04:48.000Z</time>
      </trkpt>
      <trkpt lat="47.50715" lon="6.86194">
        <ele>333</ele>
        <time>2015-04-06T08:04:49.000Z</time>
      </trkpt>
      <trkpt lat="47.50716" lon="6.86198">
        <ele>333</ele>
        <time>2015-04-06T08:04:50.000Z</time>
      </trkpt>
      <trkpt lat="47.50717" lon="6.86202">
        <ele>333</ele>
        <time>2015-04-06T08:04:51.000Z</time>
      </trkpt>
      <trkpt lat="47.50718" lon="6.86206">
        <ele>334</ele>
        <time>2015-04-06T08:04:52.000Z</time>
      </trkpt>
      <trkpt lat="47.50718" lon="6.8621">
        <ele>334</ele>
        <time>2015-04-06T08:04:53.000Z</time>
      </trkpt>
      <trkpt lat="47.50719" lon="6.86214">
        <ele>334</ele>
        <time>2015-04-06T08:04:54.000Z</time>
      </trkpt>
      <trkpt lat="47.5072" lon="6.86218">
        <ele>334</ele>
        <time>2015-04-06T08:04:55.000Z</time>
      </trkpt>
      <trkpt lat="47.5072" lon="6.86221">
        <ele>334</ele>
        <time>2015-04-06T08:04:56.000Z</time>
      </trkpt>
      <trkpt lat="47.50719" lon="6.86224">
        <ele>334</ele>
        <time>2015-04-06T08:04:57.000Z</time>
      </trkpt>
      <trkpt lat="47.50718" lon="6.86227">
        <ele>334</ele>
        <time>2015-04-06T08:04:58.000Z</time>
      </trkpt>
      <trkpt lat="47.50716" lon="6.86231">
        <ele>334</ele>
        <time>2015-04-06T08:04:59.000Z</time>
      </trkpt>
      <trkpt lat="47.50714" lon="6.86234">
        <ele>335</ele>
        <time>2015-04-06T08:05:00.000Z</time>
      </trkpt>
      <trkpt lat="47.50712" lon="6.86237">
        <ele>335</ele>
        <time>2015-04-06T08:05:01.000Z</time>
      </trkpt>
      <trkpt lat="47.5071" lon="6.8624">
        <ele>335</ele>
        <time>2015-04-06T08:05:02.000Z</time>
      </trkpt>
      <trkpt lat="47.50709" lon="6.86244">
        <ele>335</ele>
        <time>2015-04-06T08:05:03.000Z</time>
      </trkpt>
      <trkpt lat="47.50707" lon="6.86248">
        <ele>335</ele>
        <time>2015-04-06T08:05:04.000Z</time>
      </trkpt>
      <trkpt lat="47.50704" lon="6.86253">
        <ele>338</ele>
        <time>2015-04-06T08:05:05.000Z</time>
      </trkpt>
      <trkpt lat="47.50702" lon="6.86257">
        <ele>338</ele>
        <time>2015-04-06T08:05:06.000Z</time>
      </trkpt>
      <trkpt lat="47.507" lon="6.86261">
        <ele>338</ele>
        <time>2015-04-06T08:05:07.000Z</time>
      </trkpt>
      <trkpt lat="47.50699" lon="6.86265">
        <ele>338</ele>
        <time>2015-04-06T08:05:08.000Z</time>
      </trkpt>
      <trkpt lat="47.50697" lon="6.86269">
        <ele>338</ele>
        <time>2015-04-06T08:05:09.000Z</time>
      </trkpt>
      <trkpt lat="47.50697" lon="6.86273">
        <ele>338</ele>
        <time>2015-04-06T08:05:10.000Z</time>
      </trkpt>
      <trkpt lat="47.50696" lon="6.86277">
        <ele>338</ele>
        <time>2015-04-06T08:05:11.000Z</time>
      </trkpt>
      <trkpt lat="47.50696" lon="6.86281">
        <ele>338</ele>
        <time>2015-04-06T08:05:12.000Z</time>
      </trkpt>
      <trkpt lat="47.50695" lon="6.86284">
        <ele>338</ele>
        <time>2015-04-06T08:05:13.000Z</time>
      </trkpt>
      <trkpt lat="47.50695" lon="6.86288">
        <ele>338</ele>
        <time>2015-04-06T08:05:14.000Z</time>
      </trkpt>
      <trkpt lat="47.50695" lon="6.86292">
        <ele>338</ele>
        <time>2015-04-06T08:05:15.000Z</time>
      </trkpt>
      <trkpt lat="47.50696" lon="6.86295">
        <ele>338</ele>
        <time>2015-04-06T08:05:16.000Z</time>
      </trkpt>
      <trkpt lat="47.50697" lon="6.86299">
        <ele>339</ele>
        <time>2015-04-06T08:05:17.000Z</time>
      </trkpt>
      <trkpt lat="47.50698" lon="6.86302">
        <ele>339</ele>
        <time>2015-04-06T08:05:18.000Z</time>
      </trkpt>
      <trkpt lat="47.507" lon="6.86306">
        <ele>339</ele>
        <time>2015-04-06T08:05:19.000Z</time>
      </trkpt>
      <trkpt lat="47.50702" lon="6.86309">
        <ele>339</ele>
        <time>2015-04-06T08:05:20.000Z</time>
      </trkpt>
      <trkpt lat="47.50704" lon="6.86312">
        <ele>339</ele>
        <time>2015-04-06T08:05:21.000Z</time>
      </trkpt>
      <trkpt lat="47.50706" lon="6.86314">
        <ele>339</ele>
        <time>2015-04-06T08:05:22.000Z</time>
      </trkpt>
      <trkpt lat="47.50708" lon="6.86316">
        <ele>339</ele>
        <time>2015-04-06T08:05:23.000Z</time>
      </trkpt>
      <trkpt lat="47.5071" lon="6.86318">
        <ele>339</ele>
        <time>2015-04-06T08:05:24.000Z</time>
      </trkpt>
      <trkpt lat="47.50712" lon="6.8632">
        <ele>339</ele>
        <time>2015-04-06T08:05:25.000Z</time>
      </trkpt>
      <trkpt lat="47.50714" lon="6.86322">
        <ele>339</ele>
        <time>2015-04-06T08:05:26.000Z</time>
      </trkpt>
      <trkpt lat="47.50715" lon="6.86324">
        <ele>339</ele>
        <time>2015-04-06T08:05:27.000Z</time>
      </trkpt>
      <trkpt lat="47.50717" lon="6.86327">
        <ele>339</ele>
        <time>2015-04-06T08:05:28.000Z</time>
      </trkpt>
      <trkpt lat="47.50718" lon="6.8633">
        <ele>340</ele>
        <time>2015-04-06T08:05:29.000Z</time>
      </trkpt>
      <trkpt lat="47.50721" lon="6.86335">
        <ele>342</ele>
        <time>2015-04-06T08:05:31.000Z</time>
      </trkpt>
      <trkpt lat="47.50722" lon="6.86338">
        <ele>342</ele>
        <time>2015-04-06T08:05:32.000Z</time>
      </trkpt>
      <trkpt lat="47.50723" lon="6.86341">
        <ele>342</ele>
        <time>2015-04-06T08:05:33.000Z</time>
      </trkpt>
      <trkpt lat="47.50724" lon="6.86345">
        <ele>342</ele>
        <time>2015-04-06T08:05:34.000Z</time>
      </trkpt>
      <trkpt lat="47.50725" lon="6.86348">
        <ele>342</ele>
        <time>2015-04-06T08:05:35.000Z</time>
      </trkpt>
      <trkpt lat="47.50726" lon="6.86352">
        <ele>342</ele>
        <time>2015-04-06T08:05:36.000Z</time>
      </trkpt>
      <trkpt lat="47.50727" lon="6.86355">
        <ele>342</ele>
        <time>2015-04-06T08:05:37.000Z</time>
      </trkpt>
      <trkpt lat="47.50728" lon="6.86357">
        <ele>342</ele>
        <time>2015-04-06T08:05:38.000Z</time>
      </trkpt>
      <trkpt lat="47.5073" lon="6.8636">
        <ele>342</ele>
        <time>2015-04-06T08:05:39.000Z</time>
      </trkpt>
      <trkpt lat="47.50731" lon="6.86362">
        <ele>342</ele>
        <time>2015-04-06T08:05:40.000Z</time>
      </trkpt>
      <trkpt lat="47.50733" lon="6.86365">
        <ele>343</ele>
        <time>2015-04-06T08:05:41.000Z</time>
      </trkpt>
      <trkpt lat="47.50735" lon="6.86368">
        <ele>343</ele>
        <time>2015-04-06T08:05:42.000Z</time>
      </trkpt>
      <trkpt lat="47.50736" lon="6.86371">
        <ele>343</ele>
        <time>2015-04-06T08:05:43.000Z</time>
      </trkpt>
      <trkpt lat="47.50738" lon="6.86374">
        <ele>343</ele>
        <time>2015-04-06T08:05:44.000Z</time>
      </trkpt>
      <trkpt lat="47.50739" lon="6.86377">
        <ele>343</ele>
        <time>2015-04-06T08:05:45.000Z</time>
      </trkpt>
      <trkpt lat="47.50741" lon="6.86381">
        <ele>343</ele>
        <time>2015-04-06T08:05:46.000Z</time>
      </trkpt>
      <trkpt lat="47.50742" lon="6.86384">
        <ele>343</ele>
        <time>2015-04-06T08:05:47.000Z</time>
      </trkpt>
      <trkpt lat="47.50743" lon="6.86388">
        <ele>344</ele>
        <time>2015-04-06T08:05:48.000Z</time>
      </trkpt>
      <trkpt lat="47.50744" lon="6.86392">
        <ele>344</ele>
        <time>2015-04-06T08:05:49.000Z</time>
      </trkpt>
      <trkpt lat="47.50746" lon="6.86395">
        <ele>344</ele>
        <time>2015-04-06T08:05:50.000Z</time>
      </trkpt>
      <trkpt lat="47.50747" lon="6.86398">
        <ele>344</ele>
        <time>2015-04-06T08:05:51.000Z</time>
      </trkpt>
      <trkpt lat="47.50748" lon="6.86401">
        <ele>345</ele>
        <time>2015-04-06T08:05:52.000Z</time>
      </trkpt>
      <trkpt lat="47.50749" lon="6.86404">
        <ele>345</ele>
        <time>2015-04-06T08:05:53.000Z</time>
      </trkpt>
      <trkpt lat="47.50751" lon="6.86407">
        <ele>346</ele>
        <time>2015-04-06T08:05:54.000Z</time>
      </trkpt>
      <trkpt lat="47.50751" lon="6.86411">
        <ele>346</ele>
        <time>2015-04-06T08:05:55.000Z</time>
      </trkpt>
      <trkpt lat="47.50752" lon="6.86414">
        <ele>346</ele>
        <time>2015-04-06T08:05:56.000Z</time>
      </trkpt>
      <trkpt lat="47.50753" lon="6.86418">
        <ele>347</ele>
        <time>2015-04-06T08:05:57.000Z</time>
      </trkpt>
      <trkpt lat="47.50754" lon="6.86421">
        <ele>347</ele>
        <time>2015-04-06T08:05:58.000Z</time>
      </trkpt>
      <trkpt lat="47.50756" lon="6.86424">
        <ele>348</ele>
        <time>2015-04-06T08:05:59.000Z</time>
      </trkpt>
      <trkpt lat="47.50757" lon="6.86426">
        <ele>348</ele>
        <time>2015-04-06T08:06:00.000Z</time>
      </trkpt>
      <trkpt lat="47.50758" lon="6.86429">
        <ele>348</ele>
        <time>2015-04-06T08:06:01.000Z</time>
      </trkpt>
      <trkpt lat="47.5076" lon="6.86432">
        <ele>348</ele>
        <time>2015-04-06T08:06:02.000Z</time>
      </trkpt>
      <trkpt lat="47.50761" lon="6.86435">
        <ele>348</ele>
        <time>2015-04-06T08:06:03.000Z</time>
      </trkpt>
      <trkpt lat="47.50762" lon="6.86438">
        <ele>348</ele>
        <time>2015-04-06T08:06:04.000Z</time>
      </trkpt>
      <trkpt lat="47.50763" lon="6.86441">
        <ele>348</ele>
        <time>2015-04-06T08:06:05.000Z</time>
      </trkpt>
      <trkpt lat="47.50764" lon="6.86444">
        <ele>348</ele>
        <time>2015-04-06T08:06:06.000Z</time>
      </trkpt>
      <trkpt lat="47.50766" lon="6.86447">
        <ele>348</ele>
        <time>2015-04-06T08:06:07.000Z</time>
      </trkpt>
      <trkpt lat="47.50767" lon="6.86449">
        <ele>349</ele>
        <time>2015-04-06T08:06:08.000Z</time>
      </trkpt>
      <trkpt lat="47.50769" lon="6.86454">
        <ele>349</ele>
        <time>2015-04-06T08:06:10.000Z</time>
      </trkpt>
      <trkpt lat="47.5077" lon="6.86456">
        <ele>349</ele>
        <time>2015-04-06T08:06:11.000Z</time>
      </trkpt>
      <trkpt lat="47.50771" lon="6.86461">
        <ele>349</ele>
        <time>2015-04-06T08:06:13.000Z</time>
      </trkpt>
      <trkpt lat="47.50773" lon="6.86464">
        <ele>349</ele>
        <time>2015-04-06T08:06:14.000Z</time>
      </trkpt>
      <trkpt lat="47.50774" lon="6.86467">
        <ele>349</ele>
        <time>2015-04-06T08:06:15.000Z</time>
      </trkpt>
      <trkpt lat="47.50776" lon="6.86469">
        <ele>349</ele>
        <time>2015-04-06T08:06:16.000Z</time>
      </trkpt>
      <trkpt lat="47.50779" lon="6.86474">
        <ele>349</ele>
        <time>2015-04-06T08:06:18.000Z</time>
      </trkpt>
      <trkpt lat="47.5078" lon="6.86476">
        <ele>349</ele>
        <time>2015-04-06T08:06:19.000Z</time>
      </trkpt>
      <trkpt lat="47.50782" lon="6.86481">
        <ele>349</ele>
        <time>2015-04-06T08:06:21.000Z</time>
      </trkpt>
      <trkpt lat="47.50783" lon="6.86484">
        <ele>349</ele>
        <time>2015-04-06T08:06:22.000Z</time>
      </trkpt>
      <trkpt lat="47.50784" lon="6.86487">
        <ele>350</ele>
        <time>2015-04-06T08:06:23.000Z</time>
      </trkpt>
      <trkpt lat="47.50785" lon="6.8649">
        <ele>350</ele>
        <time>2015-04-06T08:06:24.000Z</time>
      </trkpt>
      <trkpt lat="47.50787" lon="6.86493">
        <ele>350</ele>
        <time>2015-04-06T08:06:25.000Z</time>
      </trkpt>
      <trkpt lat="47.50788" lon="6.86496">
        <ele>350</ele>
        <time>2015-04-06T08:06:26.000Z</time>
      </trkpt>
      <trkpt lat="47.5079" lon="6.86501">
        <ele>352</ele>
        <time>2015-04-06T08:06:28.000Z</time>
      </trkpt>
      <trkpt lat="47.50791" lon="6.86504">
        <ele>352</ele>
        <time>2015-04-06T08:06:29.000Z</time>
      </trkpt>
      <trkpt lat="47.50794" lon="6.86509">
        <ele>353</ele>
        <time>2015-04-06T08:06:31.000Z</time>
      </trkpt>
      <trkpt lat="47.50795" lon="6.86512">
        <ele>353</ele>
        <time>2015-04-06T08:06:32.000Z</time>
      </trkpt>
      <trkpt lat="47.50797" lon="6.86515">
        <ele>353</ele>
        <time>2015-04-06T08:06:33.000Z</time>
      </trkpt>
      <trkpt lat="47.50798" lon="6.86517">
        <ele>353</ele>
        <time>2015-04-06T08:06:34.000Z</time>
      </trkpt>
      <trkpt lat="47.50801" lon="6.86522">
        <ele>353</ele>
        <time>2015-04-06T08:06:36.000Z</time>
      </trkpt>
      <trkpt lat="47.50802" lon="6.86525">
        <ele>353</ele>
        <time>2015-04-06T08:06:37.000Z</time>
      </trkpt>
      <trkpt lat="47.50804" lon="6.86528">
        <ele>353</ele>
        <time>2015-04-06T08:06:38.000Z</time>
      </trkpt>
      <trkpt lat="47.50805" lon="6.86531">
        <ele>353</ele>
        <time>2015-04-06T08:06:39.000Z</time>
      </trkpt>
      <trkpt lat="47.50806" lon="6.86536">
        <ele>353</ele>
        <time>2015-04-06T08:06:41.000Z</time>
      </trkpt>
      <trkpt lat="47.50807" lon="6.86538">
        <ele>354</ele>
        <time>2015-04-06T08:06:42.000Z</time>
      </trkpt>
      <trkpt lat="47.5081" lon="6.86542">
        <ele>354</ele>
        <time>2015-04-06T08:06:44.000Z</time>
      </trkpt>
      <trkpt lat="47.50811" lon="6.86544">
        <ele>354</ele>
        <time>2015-04-06T08:06:45.000Z</time>
      </trkpt>
      <trkpt lat="47.50813" lon="6.86549">
        <ele>354</ele>
        <time>2015-04-06T08:06:47.000Z</time>
      </trkpt>
      <trkpt lat="47.50814" lon="6.86551">
        <ele>354</ele>
        <time>2015-04-06T08:06:48.000Z</time>
      </trkpt>
      <trkpt lat="47.50816" lon="6.86555">
        <ele>355</ele>
        <time>2015-04-06T08:06:50.000Z</time>
      </trkpt>
      <trkpt lat="47.50819" lon="6.8656">
        <ele>355</ele>
        <time>2015-04-06T08:06:52.000Z</time>
      </trkpt>
      <trkpt lat="47.5082" lon="6.86564">
        <ele>355</ele>
        <time>2015-04-06T08:06:53.000Z</time>
      </trkpt>
      <trkpt lat="47.50821" lon="6.86567">
        <ele>356</ele>
        <time>2015-04-06T08:06:54.000Z</time>
      </trkpt>
      <trkpt lat="47.50823" lon="6.8657">
        <ele>356</ele>
        <time>2015-04-06T08:06:55.000Z</time>
      </trkpt>
      <trkpt lat="47.50824" lon="6.86573">
        <ele>356</ele>
        <time>2015-04-06T08:06:56.000Z</time>
      </trkpt>
      <trkpt lat="47.50826" lon="6.86578">
        <ele>357</ele>
        <time>2015-04-06T08:06:58.000Z</time>
      </trkpt>
      <trkpt lat="47.50827" lon="6.8658">
        <ele>358</ele>
        <time>2015-04-06T08:06:59.000Z</time>
      </trkpt>
      <trkpt lat="47.5083" lon="6.86585">
        <ele>358</ele>
        <time>2015-04-06T08:07:01.000Z</time>
      </trkpt>
      <trkpt lat="47.50831" lon="6.86588">
        <ele>358</ele>
        <time>2015-04-06T08:07:02.000Z</time>
      </trkpt>
      <trkpt lat="47.50833" lon="6.86593">
        <ele>358</ele>
        <time>2015-04-06T08:07:04.000Z</time>
      </trkpt>
      <trkpt lat="47.50833" lon="6.86596">
        <ele>358</ele>
        <time>2015-04-06T08:07:05.000Z</time>
      </trkpt>
      <trkpt lat="47.50835" lon="6.86602">
        <ele>359</ele>
        <time>2015-04-06T08:07:07.000Z</time>
      </trkpt>
      <trkpt lat="47.50836" lon="6.86605">
        <ele>359</ele>
        <time>2015-04-06T08:07:08.000Z</time>
      </trkpt>
      <trkpt lat="47.50838" lon="6.86608">
        <ele>359</ele>
        <time>2015-04-06T08:07:09.000Z</time>
      </trkpt>
      <trkpt lat="47.5084" lon="6.8661">
        <ele>359</ele>
        <time>2015-04-06T08:07:10.000Z</time>
      </trkpt>
      <trkpt lat="47.50841" lon="6.86613">
        <ele>359</ele>
        <time>2015-04-06T08:07:11.000Z</time>
      </trkpt>
      <trkpt lat="47.50843" lon="6.86616">
        <ele>359</ele>
        <time>2015-04-06T08:07:12.000Z</time>
      </trkpt>
      <trkpt lat="47.50845" lon="6.86618">
        <ele>359</ele>
        <time>2015-04-06T08:07:13.000Z</time>
      </trkpt>
      <trkpt lat="47.50847" lon="6.86621">
        <ele>360</ele>
        <time>2015-04-06T08:07:14.000Z</time>
      </trkpt>
      <trkpt lat="47.50848" lon="6.86624">
        <ele>360</ele>
        <time>2015-04-06T08:07:15.000Z</time>
      </trkpt>
      <trkpt lat="47.5085" lon="6.86627">
        <ele>360</ele>
        <time>2015-04-06T08:07:16.000Z</time>
      </trkpt>
      <trkpt lat="47.50851" lon="6.8663">
        <ele>360</ele>
        <time>2015-04-06T08:07:17.000Z</time>
      </trkpt>
      <trkpt lat="47.50853" lon="6.86633">
        <ele>360</ele>
        <time>2015-04-06T08:07:18.000Z</time>
      </trkpt>
      <trkpt lat="47.50854" lon="6.86636">
        <ele>360</ele>
        <time>2015-04-06T08:07:19.000Z</time>
      </trkpt>
      <trkpt lat="47.50856" lon="6.86639">
        <ele>360</ele>
        <time>2015-04-06T08:07:20.000Z</time>
      </trkpt>
      <trkpt lat="47.50857" lon="6.86642">
        <ele>360</ele>
        <time>2015-04-06T08:07:21.000Z</time>
      </trkpt>
      <trkpt lat="47.50858" lon="6.86646">
        <ele>360</ele>
        <time>2015-04-06T08:07:22.000Z</time>
      </trkpt>
      <trkpt lat="47.50859" lon="6.8665">
        <ele>360</ele>
        <time>2015-04-06T08:07:23.000Z</time>
      </trkpt>
      <trkpt lat="47.5086" lon="6.86654">
        <ele>360</ele>
        <time>2015-04-06T08:07:24.000Z</time>
      </trkpt>
      <trkpt lat="47.50861" lon="6.86657">
        <ele>360</ele>
        <time>2015-04-06T08:07:25.000Z</time>
      </trkpt>
      <trkpt lat="47.50862" lon="6.86661">
        <ele>360</ele>
        <time>2015-04-06T08:07:26.000Z</time>
      </trkpt>
      <trkpt lat="47.50862" lon="6.86665">
        <ele>360</ele>
        <time>2015-04-06T08:07:27.000Z</time>
      </trkpt>
      <trkpt lat="47.50863" lon="6.86669">
        <ele>362</ele>
        <time>2015-04-06T08:07:28.000Z</time>
      </trkpt>
      <trkpt lat="47.50864" lon="6.86673">
        <ele>362</ele>
        <time>2015-04-06T08:07:29.000Z</time>
      </trkpt>
      <trkpt lat="47.50865" lon="6.86677">
        <ele>362</ele>
        <time>2015-04-06T08:07:30.000Z</time>
      </trkpt>
      <trkpt lat="47.50866" lon="6.86681">
        <ele>362</ele>
        <time>2015-04-06T08:07:31.000Z</time>
      </trkpt>
      <trkpt lat="47.50868" lon="6.86684">
        <ele>362</ele>
        <time>2015-04-06T08:07:32.000Z</time>
      </trkpt>
      <trkpt lat="47.50869" lon="6.86687">
        <ele>362</ele>
        <time>2015-04-06T08:07:33.000Z</time>
      </trkpt>
      <trkpt lat="47.5087" lon="6.86691">
        <ele>362</ele>
        <time>2015-04-06T08:07:34.000Z</time>
      </trkpt>
      <trkpt lat="47.50872" lon="6.86694">
        <ele>363</ele>
        <time>2015-04-06T08:07:35.000Z</time>
      </trkpt>
      <trkpt lat="47.50873" lon="6.86698">
        <ele>363</ele>
        <time>2015-04-06T08:07:36.000Z</time>
      </trkpt>
      <trkpt lat="47.50874" lon="6.86701">
        <ele>363</ele>
        <time>2015-04-06T08:07:37.000Z</time>
      </trkpt>
      <trkpt lat="47.50875" lon="6.86704">
        <ele>363</ele>
        <time>2015-04-06T08:07:38.000Z</time>
      </trkpt>
      <trkpt lat="47.50877" lon="6.86709">
        <ele>363</ele>
        <time>2015-04-06T08:07:40.000Z</time>
      </trkpt>
      <trkpt lat="47.50878" lon="6.86712">
        <ele>363</ele>
        <time>2015-04-06T08:07:41.000Z</time>
      </trkpt>
      <trkpt lat="47.5088" lon="6.86716">
        <ele>363</ele>
        <time>2015-04-06T08:07:42.000Z</time>
      </trkpt>
      <trkpt lat="47.50881" lon="6.86719">
        <ele>363</ele>
        <time>2015-04-06T08:07:43.000Z</time>
      </trkpt>
      <trkpt lat="47.50883" lon="6.86723">
        <ele>363</ele>
        <time>2015-04-06T08:07:44.000Z</time>
      </trkpt>
      <trkpt lat="47.50884" lon="6.86726">
        <ele>363</ele>
        <time>2015-04-06T08:07:45.000Z</time>
      </trkpt>
      <trkpt lat="47.50886" lon="6.86729">
        <ele>363</ele>
        <time>2015-04-06T08:07:46.000Z</time>
      </trkpt>
      <trkpt lat="47.50887" lon="6.86733">
        <ele>364</ele>
        <time>2015-04-06T08:07:47.000Z</time>
      </trkpt>
      <trkpt lat="47.50888" lon="6.86738">
        <ele>364</ele>
        <time>2015-04-06T08:07:49.000Z</time>
      </trkpt>
      <trkpt lat="47.50889" lon="6.86741">
        <ele>364</ele>
        <time>2015-04-06T08:07:50.000Z</time>
      </trkpt>
      <trkpt lat="47.50891" lon="6.86747">
        <ele>364</ele>
        <time>2015-04-06T08:07:52.000Z</time>
      </trkpt>
      <trkpt lat="47.50892" lon="6.86749">
        <ele>364</ele>
        <time>2015-04-06T08:07:53.000Z</time>
      </trkpt>
      <trkpt lat="47.50893" lon="6.86753">
        <ele>366</ele>
        <time>2015-04-06T08:07:54.000Z</time>
      </trkpt>
      <trkpt lat="47.50894" lon="6.86757">
        <ele>366</ele>
        <time>2015-04-06T08:07:55.000Z</time>
      </trkpt>
      <trkpt lat="47.50894" lon="6.86761">
        <ele>366</ele>
        <time>2015-04-06T08:07:56.000Z</time>
      </trkpt>
      <trkpt lat="47.50895" lon="6.86765">
        <ele>366</ele>
        <time>2015-04-06T08:07:57.000Z</time>
      </trkpt>
      <trkpt lat="47.50896" lon="6.86768">
        <ele>366</ele>
        <time>2015-04-06T08:07:58.000Z</time>
      </trkpt>
      <trkpt lat="47.50897" lon="6.86771">
        <ele>366</ele>
        <time>2015-04-06T08:07:59.000Z</time>
      </trkpt>
      <trkpt lat="47.50899" lon="6.86774">
        <ele>366</ele>
        <time>2015-04-06T08:08:00.000Z</time>
      </trkpt>
      <trkpt lat="47.509" lon="6.86777">
        <ele>366</ele>
        <time>2015-04-06T08:08:01.000Z</time>
      </trkpt>
      <trkpt lat="47.50902" lon="6.8678">
        <ele>366</ele>
        <time>2015-04-06T08:08:02.000Z</time>
      </trkpt>
      <trkpt lat="47.50904" lon="6.86783">
        <ele>367</ele>
        <time>2015-04-06T08:08:03.000Z</time>
      </trkpt>
      <trkpt lat="47.50905" lon="6.86786">
        <ele>367</ele>
        <time>2015-04-06T08:08:04.000Z</time>
      </trkpt>
      <trkpt lat="47.50907" lon="6.8679">
        <ele>367</ele>
        <time>2015-04-06T08:08:05.000Z</time>
      </trkpt>
      <trkpt lat="47.50908" lon="6.86793">
        <ele>367</ele>
        <time>2015-04-06T08:08:06.000Z</time>
      </trkpt>
      <trkpt lat="47.50909" lon="6.86797">
        <ele>367</ele>
        <time>2015-04-06T08:08:07.000Z</time>
      </trkpt>
      <trkpt lat="47.5091" lon="6.868">
        <ele>368</ele>
        <time>2015-04-06T08:08:08.000Z</time>
      </trkpt>
      <trkpt lat="47.50912" lon="6.86803">
        <ele>368</ele>
        <time>2015-04-06T08:08:09.000Z</time>
      </trkpt>
      <trkpt lat="47.50913" lon="6.86806">
        <ele>368</ele>
        <time>2015-04-06T08:08:10.000Z</time>
      </trkpt>
      <trkpt lat="47.50915" lon="6.8681">
        <ele>369</ele>
        <time>2015-04-06T08:08:11.000Z</time>
      </trkpt>
      <trkpt lat="47.50916" lon="6.86813">
        <ele>369</ele>
        <time>2015-04-06T08:08:12.000Z</time>
      </trkpt>
      <trkpt lat="47.50917" lon="6.86817">
        <ele>371</ele>
        <time>2015-04-06T08:08:13.000Z</time>
      </trkpt>
      <trkpt lat="47.50918" lon="6.86821">
        <ele>371</ele>
        <time>2015-04-06T08:08:14.000Z</time>
      </trkpt>
      <trkpt lat="47.50919" lon="6.86825">
        <ele>371</ele>
        <time>2015-04-06T08:08:15.000Z</time>
      </trkpt>
      <trkpt lat="47.5092" lon="6.86829">
        <ele>372</ele>
        <time>2015-04-06T08:08:16.000Z</time>
      </trkpt>
      <trkpt lat="47.50921" lon="6.86832">
        <ele>372</ele>
        <time>2015-04-06T08:08:17.000Z</time>
      </trkpt>
      <trkpt lat="47.50922" lon="6.86835">
        <ele>373</ele>
        <time>2015-04-06T08:08:18.000Z</time>
      </trkpt>
      <trkpt lat="47.50923" lon="6.86839">
        <ele>373</ele>
        <time>2015-04-06T08:08:19.000Z</time>
      </trkpt>
      <trkpt lat="47.50924" lon="6.86842">
        <ele>373</ele>
        <time>2015-04-06T08:08:20.000Z</time>
      </trkpt>
      <trkpt lat="47.50926" lon="6.86846">
        <ele>373</ele>
        <time>2015-04-06T08:08:21.000Z</time>
      </trkpt>
      <trkpt lat="47.50927" lon="6.86849">
        <ele>373</ele>
        <time>2015-04-06T08:08:22.000Z</time>
      </trkpt>
      <trkpt lat="47.50928" lon="6.86853">
        <ele>373</ele>
        <time>2015-04-06T08:08:23.000Z</time>
      </trkpt>
      <trkpt lat="47.50929" lon="6.86855">
        <ele>373</ele>
        <time>2015-04-06T08:08:24.000Z</time>
      </trkpt>
      <trkpt lat="47.50931" lon="6.86858">
        <ele>373</ele>
        <time>2015-04-06T08:08:25.000Z</time>
      </trkpt>
      <trkpt lat="47.50934" lon="6.86861">
        <ele>373</ele>
        <time>2015-04-06T08:08:26.000Z</time>
      </trkpt>
      <trkpt lat="47.50936" lon="6.86863">
        <ele>373</ele>
        <time>2015-04-06T08:08:27.000Z</time>
      </trkpt>
      <trkpt lat="47.50938" lon="6.86866">
        <ele>373</ele>
        <time>2015-04-06T08:08:28.000Z</time>
      </trkpt>
      <trkpt lat="47.5094" lon="6.86869">
        <ele>373</ele>
        <time>2015-04-06T08:08:29.000Z</time>
      </trkpt>
      <trkpt lat="47.50941" lon="6.86873">
        <ele>373</ele>
        <time>2015-04-06T08:08:30.000Z</time>
      </trkpt>
      <trkpt lat="47.50941" lon="6.86877">
        <ele>374</ele>
        <time>2015-04-06T08:08:31.000Z</time>
      </trkpt>
      <trkpt lat="47.50942" lon="6.86881">
        <ele>374</ele>
        <time>2015-04-06T08:08:32.000Z</time>
      </trkpt>
      <trkpt lat="47.50943" lon="6.86886">
        <ele>374</ele>
        <time>2015-04-06T08:08:33.000Z</time>
      </trkpt>
      <trkpt lat="47.50944" lon="6.8689">
        <ele>374</ele>
        <time>2015-04-06T08:08:34.000Z</time>
      </trkpt>
      <trkpt lat="47.50945" lon="6.86894">
        <ele>374</ele>
        <time>2015-04-06T08:08:35.000Z</time>
      </trkpt>
      <trkpt lat="47.50947" lon="6.86897">
        <ele>374</ele>
        <time>2015-04-06T08:08:36.000Z</time>
      </trkpt>
      <trkpt lat="47.50949" lon="6.869">
        <ele>374</ele>
        <time>2015-04-06T08:08:37.000Z</time>
      </trkpt>
      <trkpt lat="47.5095" lon="6.86903">
        <ele>374</ele>
        <time>2015-04-06T08:08:38.000Z</time>
      </trkpt>
      <trkpt lat="47.50952" lon="6.86907">
        <ele>374</ele>
        <time>2015-04-06T08:08:39.000Z</time>
      </trkpt>
      <trkpt lat="47.50954" lon="6.8691">
        <ele>374</ele>
        <time>2015-04-06T08:08:40.000Z</time>
      </trkpt>
      <trkpt lat="47.50956" lon="6.86913">
        <ele>374</ele>
        <time>2015-04-06T08:08:41.000Z</time>
      </trkpt>
      <trkpt lat="47.50957" lon="6.86916">
        <ele>374</ele>
        <time>2015-04-06T08:08:42.000Z</time>
      </trkpt>
      <trkpt lat="47.50959" lon="6.86919">
        <ele>376</ele>
        <time>2015-04-06T08:08:43.000Z</time>
      </trkpt>
      <trkpt lat="47.50961" lon="6.86923">
        <ele>376</ele>
        <time>2015-04-06T08:08:44.000Z</time>
      </trkpt>
      <trkpt lat="47.50963" lon="6.86926">
        <ele>376</ele>
        <time>2015-04-06T08:08:45.000Z</time>
      </trkpt>
      <trkpt lat="47.50965" lon="6.8693">
        <ele>376</ele>
        <time>2015-04-06T08:08:46.000Z</time>
      </trkpt>
      <trkpt lat="47.50967" lon="6.86935">
        <ele>376</ele>
        <time>2015-04-06T08:08:47.000Z</time>
      </trkpt>
      <trkpt lat="47.50968" lon="6.86939">
        <ele>376</ele>
        <time>2015-04-06T08:08:48.000Z</time>
      </trkpt>
      <trkpt lat="47.5097" lon="6.86944">
        <ele>376</ele>
        <time>2015-04-06T08:08:49.000Z</time>
      </trkpt>
      <trkpt lat="47.50972" lon="6.86949">
        <ele>376</ele>
        <time>2015-04-06T08:08:50.000Z</time>
      </trkpt>
      <trkpt lat="47.50974" lon="6.86954">
        <ele>376</ele>
        <time>2015-04-06T08:08:51.000Z</time>
      </trkpt>
      <trkpt lat="47.50976" lon="6.86958">
        <ele>376</ele>
        <time>2015-04-06T08:08:52.000Z</time>
      </trkpt>
      <trkpt lat="47.50978" lon="6.86962">
        <ele>376</ele>
        <time>2015-04-06T08:08:53.000Z</time>
      </trkpt>
      <trkpt lat="47.5098" lon="6.86966">
        <ele>377</ele>
        <time>2015-04-06T08:08:54.000Z</time>
      </trkpt>
      <trkpt lat="47.50982" lon="6.86971">
        <ele>377</ele>
        <time>2015-04-06T08:08:55.000Z</time>
      </trkpt>
      <trkpt lat="47.50984" lon="6.86975">
        <ele>377</ele>
        <time>2015-04-06T08:08:56.000Z</time>
      </trkpt>
      <trkpt lat="47.50986" lon="6.8698">
        <ele>377</ele>
        <time>2015-04-06T08:08:57.000Z</time>
      </trkpt>
      <trkpt lat="47.50987" lon="6.86985">
        <ele>378</ele>
        <time>2015-04-06T08:08:58.000Z</time>
      </trkpt>
      <trkpt lat="47.50989" lon="6.86989">
        <ele>378</ele>
        <time>2015-04-06T08:08:59.000Z</time>
      </trkpt>
      <trkpt lat="47.50991" lon="6.86993">
        <ele>378</ele>
        <time>2015-04-06T08:09:00.000Z</time>
      </trkpt>
      <trkpt lat="47.50994" lon="6.86997">
        <ele>379</ele>
        <time>2015-04-06T08:09:01.000Z</time>
      </trkpt>
      <trkpt lat="47.50996" lon="6.87">
        <ele>379</ele>
        <time>2015-04-06T08:09:02.000Z</time>
      </trkpt>
      <trkpt lat="47.50998" lon="6.87004">
        <ele>379</ele>
        <time>2015-04-06T08:09:03.000Z</time>
      </trkpt>
      <trkpt lat="47.51" lon="6.87009">
        <ele>378</ele>
        <time>2015-04-06T08:09:04.000Z</time>
      </trkpt>
      <trkpt lat="47.51001" lon="6.87013">
        <ele>378</ele>
        <time>2015-04-06T08:09:05.000Z</time>
      </trkpt>
      <trkpt lat="47.51002" lon="6.87018">
        <ele>377</ele>
        <time>2015-04-06T08:09:06.000Z</time>
      </trkpt>
      <trkpt lat="47.51003" lon="6.87024">
        <ele>377</ele>
        <time>2015-04-06T08:09:07.000Z</time>
      </trkpt>
      <trkpt lat="47.51004" lon="6.87029">
        <ele>376</ele>
        <time>2015-04-06T08:09:08.000Z</time>
      </trkpt>
      <trkpt lat="47.51005" lon="6.87034">
        <ele>376</ele>
        <time>2015-04-06T08:09:09.000Z</time>
      </trkpt>
      <trkpt lat="47.51006" lon="6.87037">
        <ele>376</ele>
        <time>2015-04-06T08:09:10.000Z</time>
      </trkpt>
      <trkpt lat="47.51006" lon="6.87041">
        <ele>376</ele>
        <time>2015-04-06T08:09:11.000Z</time>
      </trkpt>
      <trkpt lat="47.51007" lon="6.87045">
        <ele>376</ele>
        <time>2015-04-06T08:09:12.000Z</time>
      </trkpt>
      <trkpt lat="47.51009" lon="6.87049">
        <ele>376</ele>
        <time>2015-04-06T08:09:13.000Z</time>
      </trkpt>
      <trkpt lat="47.5101" lon="6.87053">
        <ele>376</ele>
        <time>2015-04-06T08:09:14.000Z</time>
      </trkpt>
      <trkpt lat="47.51012" lon="6.87057">
        <ele>376</ele>
        <time>2015-04-06T08:09:15.000Z</time>
      </trkpt>
      <trkpt lat="47.51014" lon="6.87062">
        <ele>375</ele>
        <time>2015-04-06T08:09:16.000Z</time>
      </trkpt>
      <trkpt lat="47.51016" lon="6.87066">
        <ele>375</ele>
        <time>2015-04-06T08:09:17.000Z</time>
      </trkpt>
      <trkpt lat="47.51019" lon="6.87071">
        <ele>375</ele>
        <time>2015-04-06T08:09:18.000Z</time>
      </trkpt>
      <trkpt lat="47.51023" lon="6.8708">
        <ele>375</ele>
        <time>2015-04-06T08:09:19.000Z</time>
      </trkpt>
      <trkpt lat="47.51023" lon="6.87085">
        <ele>376</ele>
        <time>2015-04-06T08:09:20.000Z</time>
      </trkpt>
      <trkpt lat="47.51024" lon="6.8709">
        <ele>376</ele>
        <time>2015-04-06T08:09:21.000Z</time>
      </trkpt>
      <trkpt lat="47.51025" lon="6.87098">
        <ele>376</ele>
        <time>2015-04-06T08:09:22.000Z</time>
      </trkpt>
      <trkpt lat="47.51027" lon="6.87102">
        <ele>376</ele>
        <time>2015-04-06T08:09:23.000Z</time>
      </trkpt>
      <trkpt lat="47.51029" lon="6.87106">
        <ele>376</ele>
        <time>2015-04-06T08:09:24.000Z</time>
      </trkpt>
      <trkpt lat="47.5103" lon="6.8711">
        <ele>376</ele>
        <time>2015-04-06T08:09:25.000Z</time>
      </trkpt>
      <trkpt lat="47.51031" lon="6.87113">
        <ele>376</ele>
        <time>2015-04-06T08:09:26.000Z</time>
      </trkpt>
      <trkpt lat="47.51032" lon="6.87119">
        <ele>376</ele>
        <time>2015-04-06T08:09:27.000Z</time>
      </trkpt>
      <trkpt lat="47.51035" lon="6.87124">
        <ele>376</ele>
        <time>2015-04-06T08:09:28.000Z</time>
      </trkpt>
      <trkpt lat="47.51037" lon="6.87127">
        <ele>376</ele>
        <time>2015-04-06T08:09:29.000Z</time>
      </trkpt>
      <trkpt lat="47.51039" lon="6.87132">
        <ele>376</ele>
        <time>2015-04-06T08:09:30.000Z</time>
      </trkpt>
      <trkpt lat="47.5104" lon="6.87137">
        <ele>376</ele>
        <time>2015-04-06T08:09:31.000Z</time>
      </trkpt>
      <trkpt lat="47.51041" lon="6.87142">
        <ele>376</ele>
        <time>2015-04-06T08:09:32.000Z</time>
      </trkpt>
      <trkpt lat="47.51043" lon="6.87147">
        <ele>376</ele>
        <time>2015-04-06T08:09:33.000Z</time>
      </trkpt>
      <trkpt lat="47.51044" lon="6.87152">
        <ele>376</ele>
        <time>2015-04-06T08:09:34.000Z</time>
      </trkpt>
      <trkpt lat="47.51046" lon="6.87157">
        <ele>376</ele>
        <time>2015-04-06T08:09:35.000Z</time>
      </trkpt>
      <trkpt lat="47.51048" lon="6.87163">
        <ele>376</ele>
        <time>2015-04-06T08:09:36.000Z</time>
      </trkpt>
      <trkpt lat="47.5105" lon="6.87169">
        <ele>377</ele>
        <time>2015-04-06T08:09:37.000Z</time>
      </trkpt>
      <trkpt lat="47.51052" lon="6.87175">
        <ele>377</ele>
        <time>2015-04-06T08:09:38.000Z</time>
      </trkpt>
      <trkpt lat="47.51054" lon="6.8718">
        <ele>377</ele>
        <time>2015-04-06T08:09:39.000Z</time>
      </trkpt>
      <trkpt lat="47.51055" lon="6.87186">
        <ele>377</ele>
        <time>2015-04-06T08:09:40.000Z</time>
      </trkpt>
      <trkpt lat="47.51056" lon="6.87191">
        <ele>377</ele>
        <time>2015-04-06T08:09:41.000Z</time>
      </trkpt>
      <trkpt lat="47.51058" lon="6.87196">
        <ele>377</ele>
        <time>2015-04-06T08:09:42.000Z</time>
      </trkpt>
      <trkpt lat="47.5106" lon="6.87201">
        <ele>377</ele>
        <time>2015-04-06T08:09:43.000Z</time>
      </trkpt>
      <trkpt lat="47.51062" lon="6.87206">
        <ele>377</ele>
        <time>2015-04-06T08:09:44.000Z</time>
      </trkpt>
      <trkpt lat="47.51063" lon="6.87211">
        <ele>377</ele>
        <time>2015-04-06T08:09:45.000Z</time>
      </trkpt>
      <trkpt lat="47.51064" lon="6.87216">
        <ele>377</ele>
        <time>2015-04-06T08:09:46.000Z</time>
      </trkpt>
      <trkpt lat="47.51065" lon="6.87221">
        <ele>377</ele>
        <time>2015-04-06T08:09:47.000Z</time>
      </trkpt>
      <trkpt lat="47.51066" lon="6.87226">
        <ele>377</ele>
        <time>2015-04-06T08:09:48.000Z</time>
      </trkpt>
      <trkpt lat="47.51067" lon="6.8723">
        <ele>377</ele>
        <time>2015-04-06T08:09:49.000Z</time>
      </trkpt>
      <trkpt lat="47.51068" lon="6.87234">
        <ele>377</ele>
        <time>2015-04-06T08:09:50.000Z</time>
      </trkpt>
      <trkpt lat="47.5107" lon="6.87238">
        <ele>378</ele>
        <time>2015-04-06T08:09:51.000Z</time>
      </trkpt>
      <trkpt lat="47.51071" lon="6.87243">
        <ele>378</ele>
        <time>2015-04-06T08:09:52.000Z</time>
      </trkpt>
      <trkpt lat="47.51074" lon="6.87248">
        <ele>378</ele>
        <time>2015-04-06T08:09:53.000Z</time>
      </trkpt>
      <trkpt lat="47.51076" lon="6.87254">
        <ele>378</ele>
        <time>2015-04-06T08:09:54.000Z</time>
      </trkpt>
      <trkpt lat="47.51078" lon="6.87259">
        <ele>378</ele>
        <time>2015-04-06T08:09:55.000Z</time>
      </trkpt>
      <trkpt lat="47.5108" lon="6.87265">
        <ele>378</ele>
        <time>2015-04-06T08:09:56.000Z</time>
      </trkpt>
      <trkpt lat="47.51082" lon="6.87269">
        <ele>377</ele>
        <time>2015-04-06T08:09:57.000Z</time>
      </trkpt>
      <trkpt lat="47.51084" lon="6.87274">
        <ele>378</ele>
        <time>2015-04-06T08:09:58.000Z</time>
      </trkpt>
      <trkpt lat="47.51087" lon="6.87279">
        <ele>378</ele>
        <time>2015-04-06T08:09:59.000Z</time>
      </trkpt>
      <trkpt lat="47.51089" lon="6.87284">
        <ele>377</ele>
        <time>2015-04-06T08:10:00.000Z</time>
      </trkpt>
      <trkpt lat="47.51091" lon="6.87289">
        <ele>377</ele>
        <time>2015-04-06T08:10:01.000Z</time>
      </trkpt>
      <trkpt lat="47.51094" lon="6.87294">
        <ele>377</ele>
        <time>2015-04-06T08:10:02.000Z</time>
      </trkpt>
      <trkpt lat="47.51096" lon="6.87299">
        <ele>377</ele>
        <time>2015-04-06T08:10:03.000Z</time>
      </trkpt>
      <trkpt lat="47.51098" lon="6.87304">
        <ele>377</ele>
        <time>2015-04-06T08:10:04.000Z</time>
      </trkpt>
      <trkpt lat="47.511" lon="6.87309">
        <ele>377</ele>
        <time>2015-04-06T08:10:05.000Z</time>
      </trkpt>
      <trkpt lat="47.51101" lon="6.87315">
        <ele>377</ele>
        <time>2015-04-06T08:10:06.000Z</time>
      </trkpt>
      <trkpt lat="47.51103" lon="6.87321">
        <ele>377</ele>
        <time>2015-04-06T08:10:07.000Z</time>
      </trkpt>
      <trkpt lat="47.51106" lon="6.87327">
        <ele>377</ele>
        <time>2015-04-06T08:10:08.000Z</time>
      </trkpt>
      <trkpt lat="47.51108" lon="6.87333">
        <ele>379</ele>
        <time>2015-04-06T08:10:09.000Z</time>
      </trkpt>
      <trkpt lat="47.5111" lon="6.87339">
        <ele>379</ele>
        <time>2015-04-06T08:10:10.000Z</time>
      </trkpt>
      <trkpt lat="47.51111" lon="6.87345">
        <ele>379</ele>
        <time>2015-04-06T08:10:11.000Z</time>
      </trkpt>
      <trkpt lat="47.51113" lon="6.8735">
        <ele>379</ele>
        <time>2015-04-06T08:10:12.000Z</time>
      </trkpt>
      <trkpt lat="47.51115" lon="6.87355">
        <ele>379</ele>
        <time>2015-04-06T08:10:13.000Z</time>
      </trkpt>
      <trkpt lat="47.51117" lon="6.87359">
        <ele>379</ele>
        <time>2015-04-06T08:10:14.000Z</time>
      </trkpt>
      <trkpt lat="47.51119" lon="6.87363">
        <ele>379</ele>
        <time>2015-04-06T08:10:15.000Z</time>
      </trkpt>
      <trkpt lat="47.51121" lon="6.87368">
        <ele>379</ele>
        <time>2015-04-06T08:10:16.000Z</time>
      </trkpt>
      <trkpt lat="47.51122" lon="6.87372">
        <ele>379</ele>
        <time>2015-04-06T08:10:17.000Z</time>
      </trkpt>
      <trkpt lat="47.51123" lon="6.87378">
        <ele>379</ele>
        <time>2015-04-06T08:10:18.000Z</time>
      </trkpt>
      <trkpt lat="47.51124" lon="6.87383">
        <ele>379</ele>
        <time>2015-04-06T08:10:19.000Z</time>
      </trkpt>
      <trkpt lat="47.51125" lon="6.87388">
        <ele>379</ele>
        <time>2015-04-06T08:10:20.000Z</time>
      </trkpt>
      <trkpt lat="47.51125" lon="6.87393">
        <ele>379</ele>
        <time>2015-04-06T08:10:21.000Z</time>
      </trkpt>
      <trkpt lat="47.51127" lon="6.87397">
        <ele>379</ele>
        <time>2015-04-06T08:10:22.000Z</time>
      </trkpt>
      <trkpt lat="47.51129" lon="6.87402">
        <ele>379</ele>
        <time>2015-04-06T08:10:23.000Z</time>
      </trkpt>
      <trkpt lat="47.51131" lon="6.87406">
        <ele>379</ele>
        <time>2015-04-06T08:10:24.000Z</time>
      </trkpt>
      <trkpt lat="47.51134" lon="6.87411">
        <ele>379</ele>
        <time>2015-04-06T08:10:25.000Z</time>
      </trkpt>
      <trkpt lat="47.51136" lon="6.87417">
        <ele>379</ele>
        <time>2015-04-06T08:10:26.000Z</time>
      </trkpt>
      <trkpt lat="47.51138" lon="6.87422">
        <ele>381</ele>
        <time>2015-04-06T08:10:27.000Z</time>
      </trkpt>
      <trkpt lat="47.5114" lon="6.87427">
        <ele>381</ele>
        <time>2015-04-06T08:10:28.000Z</time>
      </trkpt>
      <trkpt lat="47.51143" lon="6.87432">
        <ele>381</ele>
        <time>2015-04-06T08:10:29.000Z</time>
      </trkpt>
      <trkpt lat="47.51145" lon="6.87438">
        <ele>381</ele>
        <time>2015-04-06T08:10:30.000Z</time>
      </trkpt>
      <trkpt lat="47.51147" lon="6.87444">
        <ele>381</ele>
        <time>2015-04-06T08:10:31.000Z</time>
      </trkpt>
      <trkpt lat="47.51148" lon="6.8745">
        <ele>382</ele>
        <time>2015-04-06T08:10:32.000Z</time>
      </trkpt>
      <trkpt lat="47.5115" lon="6.87456">
        <ele>382</ele>
        <time>2015-04-06T08:10:33.000Z</time>
      </trkpt>
      <trkpt lat="47.51152" lon="6.87462">
        <ele>382</ele>
        <time>2015-04-06T08:10:34.000Z</time>
      </trkpt>
      <trkpt lat="47.51153" lon="6.87468">
        <ele>382</ele>
        <time>2015-04-06T08:10:35.000Z</time>
      </trkpt>
      <trkpt lat="47.51155" lon="6.87474">
        <ele>382</ele>
        <time>2015-04-06T08:10:36.000Z</time>
      </trkpt>
      <trkpt lat="47.51156" lon="6.87479">
        <ele>383</ele>
        <time>2015-04-06T08:10:37.000Z</time>
      </trkpt>
      <trkpt lat="47.51158" lon="6.87483">
        <ele>383</ele>
        <time>2015-04-06T08:10:38.000Z</time>
      </trkpt>
      <trkpt lat="47.5116" lon="6.87487">
        <ele>383</ele>
        <time>2015-04-06T08:10:39.000Z</time>
      </trkpt>
      <trkpt lat="47.51162" lon="6.87491">
        <ele>383</ele>
        <time>2015-04-06T08:10:40.000Z</time>
      </trkpt>
      <trkpt lat="47.51164" lon="6.87495">
        <ele>384</ele>
        <time>2015-04-06T08:10:41.000Z</time>
      </trkpt>
      <trkpt lat="47.51167" lon="6.87499">
        <ele>384</ele>
        <time>2015-04-06T08:10:42.000Z</time>
      </trkpt>
      <trkpt lat="47.5117" lon="6.87503">
        <ele>384</ele>
        <time>2015-04-06T08:10:43.000Z</time>
      </trkpt>
      <trkpt lat="47.51173" lon="6.87507">
        <ele>384</ele>
        <time>2015-04-06T08:10:44.000Z</time>
      </trkpt>
      <trkpt lat="47.51176" lon="6.87511">
        <ele>384</ele>
        <time>2015-04-06T08:10:45.000Z</time>
      </trkpt>
      <trkpt lat="47.51178" lon="6.87516">
        <ele>384</ele>
        <time>2015-04-06T08:10:46.000Z</time>
      </trkpt>
      <trkpt lat="47.5118" lon="6.87521">
        <ele>384</ele>
        <time>2015-04-06T08:10:47.000Z</time>
      </trkpt>
      <trkpt lat="47.51181" lon="6.87525">
        <ele>384</ele>
        <time>2015-04-06T08:10:48.000Z</time>
      </trkpt>
      <trkpt lat="47.51182" lon="6.87528">
        <ele>384</ele>
        <time>2015-04-06T08:10:49.000Z</time>
      </trkpt>
      <trkpt lat="47.51183" lon="6.87532">
        <ele>384</ele>
        <time>2015-04-06T08:10:50.000Z</time>
      </trkpt>
      <trkpt lat="47.51184" lon="6.87535">
        <ele>384</ele>
        <time>2015-04-06T08:10:51.000Z</time>
      </trkpt>
      <trkpt lat="47.51184" lon="6.87539">
        <ele>384</ele>
        <time>2015-04-06T08:10:52.000Z</time>
      </trkpt>
      <trkpt lat="47.51185" lon="6.87545">
        <ele>384</ele>
        <time>2015-04-06T08:10:53.000Z</time>
      </trkpt>
      <trkpt lat="47.51186" lon="6.8755">
        <ele>384</ele>
        <time>2015-04-06T08:10:54.000Z</time>
      </trkpt>
      <trkpt lat="47.51186" lon="6.87557">
        <ele>384</ele>
        <time>2015-04-06T08:10:55.000Z</time>
      </trkpt>
      <trkpt lat="47.51186" lon="6.87563">
        <ele>385</ele>
        <time>2015-04-06T08:10:56.000Z</time>
      </trkpt>
      <trkpt lat="47.51187" lon="6.87571">
        <ele>385</ele>
        <time>2015-04-06T08:10:57.000Z</time>
      </trkpt>
      <trkpt lat="47.51187" lon="6.87578">
        <ele>385</ele>
        <time>2015-04-06T08:10:58.000Z</time>
      </trkpt>
      <trkpt lat="47.51188" lon="6.87585">
        <ele>387</ele>
        <time>2015-04-06T08:10:59.000Z</time>
      </trkpt>
      <trkpt lat="47.51189" lon="6.87591">
        <ele>387</ele>
        <time>2015-04-06T08:11:00.000Z</time>
      </trkpt>
      <trkpt lat="47.5119" lon="6.87597">
        <ele>387</ele>
        <time>2015-04-06T08:11:01.000Z</time>
      </trkpt>
      <trkpt lat="47.51192" lon="6.87602">
        <ele>387</ele>
        <time>2015-04-06T08:11:02.000Z</time>
      </trkpt>
      <trkpt lat="47.51193" lon="6.87607">
        <ele>387</ele>
        <time>2015-04-06T08:11:03.000Z</time>
      </trkpt>
      <trkpt lat="47.51195" lon="6.87611">
        <ele>387</ele>
        <time>2015-04-06T08:11:04.000Z</time>
      </trkpt>
      <trkpt lat="47.51196" lon="6.87614">
        <ele>387</ele>
        <time>2015-04-06T08:11:05.000Z</time>
      </trkpt>
      <trkpt lat="47.51198" lon="6.87618">
        <ele>387</ele>
        <time>2015-04-06T08:11:06.000Z</time>
      </trkpt>
      <trkpt lat="47.512" lon="6.87621">
        <ele>387</ele>
        <time>2015-04-06T08:11:07.000Z</time>
      </trkpt>
      <trkpt lat="47.51202" lon="6.87626">
        <ele>387</ele>
        <time>2015-04-06T08:11:08.000Z</time>
      </trkpt>
      <trkpt lat="47.51204" lon="6.87631">
        <ele>387</ele>
        <time>2015-04-06T08:11:09.000Z</time>
      </trkpt>
      <trkpt lat="47.51206" lon="6.87635">
        <ele>387</ele>
        <time>2015-04-06T08:11:10.000Z</time>
      </trkpt>
      <trkpt lat="47.51208" lon="6.8764">
        <ele>387</ele>
        <time>2015-04-06T08:11:11.000Z</time>
      </trkpt>
      <trkpt lat="47.51211" lon="6.87645">
        <ele>387</ele>
        <time>2015-04-06T08:11:12.000Z</time>
      </trkpt>
      <trkpt lat="47.51213" lon="6.8765">
        <ele>387</ele>
        <time>2015-04-06T08:11:13.000Z</time>
      </trkpt>
      <trkpt lat="47.51214" lon="6.87654">
        <ele>387</ele>
        <time>2015-04-06T08:11:14.001Z</time>
      </trkpt>
      <trkpt lat="47.51217" lon="6.87661">
        <ele>387</ele>
        <time>2015-04-06T08:11:15.000Z</time>
      </trkpt>
      <trkpt lat="47.51218" lon="6.87666">
        <ele>387</ele>
        <time>2015-04-06T08:11:16.000Z</time>
      </trkpt>
      <trkpt lat="47.5122" lon="6.87672">
        <ele>389</ele>
        <time>2015-04-06T08:11:17.000Z</time>
      </trkpt>
      <trkpt lat="47.51223" lon="6.87678">
        <ele>389</ele>
        <time>2015-04-06T08:11:18.000Z</time>
      </trkpt>
      <trkpt lat="47.51225" lon="6.87683">
        <ele>389</ele>
        <time>2015-04-06T08:11:19.000Z</time>
      </trkpt>
      <trkpt lat="47.51226" lon="6.87688">
        <ele>389</ele>
        <time>2015-04-06T08:11:20.000Z</time>
      </trkpt>
      <trkpt lat="47.51227" lon="6.87693">
        <ele>389</ele>
        <time>2015-04-06T08:11:21.000Z</time>
      </trkpt>
      <trkpt lat="47.51227" lon="6.87697">
        <ele>389</ele>
        <time>2015-04-06T08:11:22.000Z</time>
      </trkpt>
      <trkpt lat="47.51228" lon="6.87702">
        <ele>389</ele>
        <time>2015-04-06T08:11:23.000Z</time>
      </trkpt>
      <trkpt lat="47.51229" lon="6.87706">
        <ele>389</ele>
        <time>2015-04-06T08:11:24.000Z</time>
      </trkpt>
      <trkpt lat="47.5123" lon="6.8771">
        <ele>389</ele>
        <time>2015-04-06T08:11:25.000Z</time>
      </trkpt>
      <trkpt lat="47.51231" lon="6.87715">
        <ele>389</ele>
        <time>2015-04-06T08:11:26.000Z</time>
      </trkpt>
      <trkpt lat="47.51232" lon="6.8772">
        <ele>390</ele>
        <time>2015-04-06T08:11:27.000Z</time>
      </trkpt>
      <trkpt lat="47.51234" lon="6.87725">
        <ele>390</ele>
        <time>2015-04-06T08:11:28.000Z</time>
      </trkpt>
      <trkpt lat="47.51235" lon="6.87729">
        <ele>390</ele>
        <time>2015-04-06T08:11:29.000Z</time>
      </trkpt>
      <trkpt lat="47.51237" lon="6.87733">
        <ele>390</ele>
        <time>2015-04-06T08:11:30.000Z</time>
      </trkpt>
      <trkpt lat="47.51239" lon="6.87738">
        <ele>391</ele>
        <time>2015-04-06T08:11:31.000Z</time>
      </trkpt>
      <trkpt lat="47.51241" lon="6.87742">
        <ele>391</ele>
        <time>2015-04-06T08:11:32.000Z</time>
      </trkpt>
      <trkpt lat="47.51243" lon="6.87746">
        <ele>392</ele>
        <time>2015-04-06T08:11:33.000Z</time>
      </trkpt>
      <trkpt lat="47.51245" lon="6.8775">
        <ele>392</ele>
        <time>2015-04-06T08:11:34.000Z</time>
      </trkpt>
      <trkpt lat="47.51246" lon="6.87755">
        <ele>392</ele>
        <time>2015-04-06T08:11:35.000Z</time>
      </trkpt>
      <trkpt lat="47.51247" lon="6.8776">
        <ele>392</ele>
        <time>2015-04-06T08:11:36.000Z</time>
      </trkpt>
      <trkpt lat="47.51249" lon="6.87765">
        <ele>391</ele>
        <time>2015-04-06T08:11:37.000Z</time>
      </trkpt>
      <trkpt lat="47.5125" lon="6.87771">
        <ele>392</ele>
        <time>2015-04-06T08:11:38.000Z</time>
      </trkpt>
      <trkpt lat="47.51252" lon="6.87777">
        <ele>392</ele>
        <time>2015-04-06T08:11:39.000Z</time>
      </trkpt>
      <trkpt lat="47.51254" lon="6.87782">
        <ele>392</ele>
        <time>2015-04-06T08:11:40.000Z</time>
      </trkpt>
      <trkpt lat="47.51256" lon="6.87787">
        <ele>392</ele>
        <time>2015-04-06T08:11:41.000Z</time>
      </trkpt>
      <trkpt lat="47.51258" lon="6.87791">
        <ele>392</ele>
        <time>2015-04-06T08:11:42.000Z</time>
      </trkpt>
      <trkpt lat="47.51259" lon="6.87795">
        <ele>392</ele>
        <time>2015-04-06T08:11:43.000Z</time>
      </trkpt>
      <trkpt lat="47.5126" lon="6.87799">
        <ele>392</ele>
        <time>2015-04-06T08:11:44.000Z</time>
      </trkpt>
      <trkpt lat="47.51261" lon="6.87804">
        <ele>392</ele>
        <time>2015-04-06T08:11:45.000Z</time>
      </trkpt>
      <trkpt lat="47.51263" lon="6.87808">
        <ele>392</ele>
        <time>2015-04-06T08:11:46.000Z</time>
      </trkpt>
      <trkpt lat="47.51265" lon="6.87812">
        <ele>392</ele>
        <time>2015-04-06T08:11:47.000Z</time>
      </trkpt>
      <trkpt lat="47.51267" lon="6.87815">
        <ele>393</ele>
        <time>2015-04-06T08:11:48.000Z</time>
      </trkpt>
      <trkpt lat="47.51269" lon="6.87819">
        <ele>393</ele>
        <time>2015-04-06T08:11:49.000Z</time>
      </trkpt>
      <trkpt lat="47.51271" lon="6.87822">
        <ele>393</ele>
        <time>2015-04-06T08:11:50.000Z</time>
      </trkpt>
      <trkpt lat="47.51273" lon="6.87825">
        <ele>393</ele>
        <time>2015-04-06T08:11:51.000Z</time>
      </trkpt>
      <trkpt lat="47.51275" lon="6.87828">
        <ele>393</ele>
        <time>2015-04-06T08:11:52.000Z</time>
      </trkpt>
      <trkpt lat="47.51276" lon="6.87831">
        <ele>392</ele>
        <time>2015-04-06T08:11:53.000Z</time>
      </trkpt>
      <trkpt lat="47.51278" lon="6.87835">
        <ele>394</ele>
        <time>2015-04-06T08:11:54.000Z</time>
      </trkpt>
      <trkpt lat="47.51279" lon="6.87838">
        <ele>394</ele>
        <time>2015-04-06T08:11:55.000Z</time>
      </trkpt>
      <trkpt lat="47.51281" lon="6.87841">
        <ele>394</ele>
        <time>2015-04-06T08:11:56.000Z</time>
      </trkpt>
      <trkpt lat="47.51282" lon="6.87845">
        <ele>394</ele>
        <time>2015-04-06T08:11:57.000Z</time>
      </trkpt>
      <trkpt lat="47.51283" lon="6.87849">
        <ele>394</ele>
        <time>2015-04-06T08:11:58.000Z</time>
      </trkpt>
      <trkpt lat="47.51285" lon="6.87851">
        <ele>394</ele>
        <time>2015-04-06T08:11:59.001Z</time>
      </trkpt>
      <trkpt lat="47.51286" lon="6.87858">
        <ele>394</ele>
        <time>2015-04-06T08:12:00.000Z</time>
      </trkpt>
      <trkpt lat="47.51287" lon="6.87863">
        <ele>394</ele>
        <time>2015-04-06T08:12:01.000Z</time>
      </trkpt>
      <trkpt lat="47.51289" lon="6.87868">
        <ele>394</ele>
        <time>2015-04-06T08:12:02.000Z</time>
      </trkpt>
      <trkpt lat="47.5129" lon="6.87872">
        <ele>394</ele>
        <time>2015-04-06T08:12:03.000Z</time>
      </trkpt>
      <trkpt lat="47.51291" lon="6.87877">
        <ele>395</ele>
        <time>2015-04-06T08:12:04.000Z</time>
      </trkpt>
      <trkpt lat="47.51292" lon="6.87881">
        <ele>395</ele>
        <time>2015-04-06T08:12:05.000Z</time>
      </trkpt>
      <trkpt lat="47.51294" lon="6.87885">
        <ele>395</ele>
        <time>2015-04-06T08:12:06.000Z</time>
      </trkpt>
      <trkpt lat="47.51294" lon="6.8789">
        <ele>395</ele>
        <time>2015-04-06T08:12:07.000Z</time>
      </trkpt>
      <trkpt lat="47.51295" lon="6.87896">
        <ele>395</ele>
        <time>2015-04-06T08:12:08.000Z</time>
      </trkpt>
      <trkpt lat="47.51296" lon="6.87901">
        <ele>395</ele>
        <time>2015-04-06T08:12:09.000Z</time>
      </trkpt>
      <trkpt lat="47.51297" lon="6.87907">
        <ele>395</ele>
        <time>2015-04-06T08:12:10.000Z</time>
      </trkpt>
      <trkpt lat="47.51298" lon="6.87911">
        <ele>395</ele>
        <time>2015-04-06T08:12:11.000Z</time>
      </trkpt>
      <trkpt lat="47.51298" lon="6.87916">
        <ele>395</ele>
        <time>2015-04-06T08:12:12.000Z</time>
      </trkpt>
      <trkpt lat="47.51299" lon="6.8792">
        <ele>397</ele>
        <time>2015-04-06T08:12:13.000Z</time>
      </trkpt>
      <trkpt lat="47.513" lon="6.87924">
        <ele>397</ele>
        <time>2015-04-06T08:12:14.000Z</time>
      </trkpt>
      <trkpt lat="47.51301" lon="6.87928">
        <ele>397</ele>
        <time>2015-04-06T08:12:15.000Z</time>
      </trkpt>
      <trkpt lat="47.51302" lon="6.87932">
        <ele>397</ele>
        <time>2015-04-06T08:12:16.000Z</time>
      </trkpt>
      <trkpt lat="47.51303" lon="6.87935">
        <ele>397</ele>
        <time>2015-04-06T08:12:17.000Z</time>
      </trkpt>
      <trkpt lat="47.51304" lon="6.87939">
        <ele>397</ele>
        <time>2015-04-06T08:12:18.000Z</time>
      </trkpt>
      <trkpt lat="47.51305" lon="6.87943">
        <ele>397</ele>
        <time>2015-04-06T08:12:19.000Z</time>
      </trkpt>
      <trkpt lat="47.51306" lon="6.87947">
        <ele>397</ele>
        <time>2015-04-06T08:12:20.000Z</time>
      </trkpt>
      <trkpt lat="47.51306" lon="6.87952">
        <ele>397</ele>
        <time>2015-04-06T08:12:21.000Z</time>
      </trkpt>
      <trkpt lat="47.51307" lon="6.87957">
        <ele>397</ele>
        <time>2015-04-06T08:12:22.000Z</time>
      </trkpt>
      <trkpt lat="47.51308" lon="6.87962">
        <ele>398</ele>
        <time>2015-04-06T08:12:23.000Z</time>
      </trkpt>
      <trkpt lat="47.51308" lon="6.87967">
        <ele>398</ele>
        <time>2015-04-06T08:12:24.000Z</time>
      </trkpt>
      <trkpt lat="47.51309" lon="6.87972">
        <ele>398</ele>
        <time>2015-04-06T08:12:25.000Z</time>
      </trkpt>
      <trkpt lat="47.5131" lon="6.87977">
        <ele>398</ele>
        <time>2015-04-06T08:12:26.000Z</time>
      </trkpt>
      <trkpt lat="47.51311" lon="6.87981">
        <ele>398</ele>
        <time>2015-04-06T08:12:27.000Z</time>
      </trkpt>
      <trkpt lat="47.51312" lon="6.87986">
        <ele>399</ele>
        <time>2015-04-06T08:12:28.000Z</time>
      </trkpt>
      <trkpt lat="47.51314" lon="6.8799">
        <ele>399</ele>
        <time>2015-04-06T08:12:29.000Z</time>
      </trkpt>
      <trkpt lat="47.51315" lon="6.87995">
        <ele>399</ele>
        <time>2015-04-06T08:12:30.000Z</time>
      </trkpt>
      <trkpt lat="47.51317" lon="6.87999">
        <ele>399</ele>
        <time>2015-04-06T08:12:31.000Z</time>
      </trkpt>
      <trkpt lat="47.51318" lon="6.88004">
        <ele>400</ele>
        <time>2015-04-06T08:12:32.000Z</time>
      </trkpt>
      <trkpt lat="47.51319" lon="6.88008">
        <ele>400</ele>
        <time>2015-04-06T08:12:33.000Z</time>
      </trkpt>
      <trkpt lat="47.51321" lon="6.88012">
        <ele>399</ele>
        <time>2015-04-06T08:12:34.000Z</time>
      </trkpt>
      <trkpt lat="47.51322" lon="6.88016">
        <ele>399</ele>
        <time>2015-04-06T08:12:35.000Z</time>
      </trkpt>
      <trkpt lat="47.51323" lon="6.88019">
        <ele>399</ele>
        <time>2015-04-06T08:12:36.000Z</time>
      </trkpt>
      <trkpt lat="47.51325" lon="6.88022">
        <ele>399</ele>
        <time>2015-04-06T08:12:37.000Z</time>
      </trkpt>
      <trkpt lat="47.51326" lon="6.88026">
        <ele>399</ele>
        <time>2015-04-06T08:12:38.000Z</time>
      </trkpt>
      <trkpt lat="47.51327" lon="6.88029">
        <ele>399</ele>
        <time>2015-04-06T08:12:39.000Z</time>
      </trkpt>
      <trkpt lat="47.51328" lon="6.88033">
        <ele>399</ele>
        <time>2015-04-06T08:12:40.000Z</time>
      </trkpt>
      <trkpt lat="47.51329" lon="6.88038">
        <ele>399</ele>
        <time>2015-04-06T08:12:41.000Z</time>
      </trkpt>
      <trkpt lat="47.5133" lon="6.88043">
        <ele>399</ele>
        <time>2015-04-06T08:12:42.000Z</time>
      </trkpt>
      <trkpt lat="47.51332" lon="6.88048">
        <ele>399</ele>
        <time>2015-04-06T08:12:43.000Z</time>
      </trkpt>
      <trkpt lat="47.51333" lon="6.88055">
        <ele>399</ele>
        <time>2015-04-06T08:12:44.000Z</time>
      </trkpt>
      <trkpt lat="47.51334" lon="6.88061">
        <ele>399</ele>
        <time>2015-04-06T08:12:45.000Z</time>
      </trkpt>
      <trkpt lat="47.51335" lon="6.88067">
        <ele>400</ele>
        <time>2015-04-06T08:12:46.000Z</time>
      </trkpt>
      <trkpt lat="47.51336" lon="6.88075">
        <ele>401</ele>
        <time>2015-04-06T08:12:47.000Z</time>
      </trkpt>
      <trkpt lat="47.51337" lon="6.88082">
        <ele>401</ele>
        <time>2015-04-06T08:12:48.000Z</time>
      </trkpt>
      <trkpt lat="47.51338" lon="6.8809">
        <ele>400</ele>
        <time>2015-04-06T08:12:49.000Z</time>
      </trkpt>
      <trkpt lat="47.51339" lon="6.88097">
        <ele>399</ele>
        <time>2015-04-06T08:12:50.000Z</time>
      </trkpt>
      <trkpt lat="47.5134" lon="6.88104">
        <ele>399</ele>
        <time>2015-04-06T08:12:51.000Z</time>
      </trkpt>
      <trkpt lat="47.51342" lon="6.88111">
        <ele>398</ele>
        <time>2015-04-06T08:12:52.000Z</time>
      </trkpt>
      <trkpt lat="47.51344" lon="6.88116">
        <ele>398</ele>
        <time>2015-04-06T08:12:53.000Z</time>
      </trkpt>
      <trkpt lat="47.51345" lon="6.8812">
        <ele>397</ele>
        <time>2015-04-06T08:12:54.000Z</time>
      </trkpt>
      <trkpt lat="47.51347" lon="6.88125">
        <ele>397</ele>
        <time>2015-04-06T08:12:55.000Z</time>
      </trkpt>
      <trkpt lat="47.51348" lon="6.88131">
        <ele>397</ele>
        <time>2015-04-06T08:12:56.000Z</time>
      </trkpt>
      <trkpt lat="47.51349" lon="6.88137">
        <ele>396</ele>
        <time>2015-04-06T08:12:57.000Z</time>
      </trkpt>
      <trkpt lat="47.5135" lon="6.88144">
        <ele>396</ele>
        <time>2015-04-06T08:12:58.000Z</time>
      </trkpt>
      <trkpt lat="47.5135" lon="6.8815">
        <ele>396</ele>
        <time>2015-04-06T08:12:59.000Z</time>
      </trkpt>
      <trkpt lat="47.51351" lon="6.88156">
        <ele>396</ele>
        <time>2015-04-06T08:13:00.000Z</time>
      </trkpt>
      <trkpt lat="47.51352" lon="6.88161">
        <ele>396</ele>
        <time>2015-04-06T08:13:01.000Z</time>
      </trkpt>
      <trkpt lat="47.51353" lon="6.88166">
        <ele>396</ele>
        <time>2015-04-06T08:13:02.000Z</time>
      </trkpt>
      <trkpt lat="47.51354" lon="6.88171">
        <ele>395</ele>
        <time>2015-04-06T08:13:03.000Z</time>
      </trkpt>
      <trkpt lat="47.51356" lon="6.88175">
        <ele>395</ele>
        <time>2015-04-06T08:13:04.000Z</time>
      </trkpt>
      <trkpt lat="47.51357" lon="6.88178">
        <ele>395</ele>
        <time>2015-04-06T08:13:05.000Z</time>
      </trkpt>
      <trkpt lat="47.51358" lon="6.88182">
        <ele>395</ele>
        <time>2015-04-06T08:13:06.000Z</time>
      </trkpt>
      <trkpt lat="47.51359" lon="6.88186">
        <ele>395</ele>
        <time>2015-04-06T08:13:07.000Z</time>
      </trkpt>
      <trkpt lat="47.5136" lon="6.8819">
        <ele>395</ele>
        <time>2015-04-06T08:13:08.000Z</time>
      </trkpt>
      <trkpt lat="47.51361" lon="6.88196">
        <ele>395</ele>
        <time>2015-04-06T08:13:09.000Z</time>
      </trkpt>
      <trkpt lat="47.51362" lon="6.88202">
        <ele>395</ele>
        <time>2015-04-06T08:13:10.000Z</time>
      </trkpt>
      <trkpt lat="47.51363" lon="6.88207">
        <ele>396</ele>
        <time>2015-04-06T08:13:11.000Z</time>
      </trkpt>
      <trkpt lat="47.51364" lon="6.88213">
        <ele>396</ele>
        <time>2015-04-06T08:13:12.000Z</time>
      </trkpt>
      <trkpt lat="47.51364" lon="6.88219">
        <ele>396</ele>
        <time>2015-04-06T08:13:13.000Z</time>
      </trkpt>
      <trkpt lat="47.51364" lon="6.88225">
        <ele>396</ele>
        <time>2015-04-06T08:13:14.000Z</time>
      </trkpt>
      <trkpt lat="47.51364" lon="6.88231">
        <ele>396</ele>
        <time>2015-04-06T08:13:15.000Z</time>
      </trkpt>
      <trkpt lat="47.51364" lon="6.88237">
        <ele>396</ele>
        <time>2015-04-06T08:13:16.000Z</time>
      </trkpt>
      <trkpt lat="47.51364" lon="6.88242">
        <ele>396</ele>
        <time>2015-04-06T08:13:17.000Z</time>
      </trkpt>
      <trkpt lat="47.51364" lon="6.88247">
        <ele>396</ele>
        <time>2015-04-06T08:13:18.000Z</time>
      </trkpt>
      <trkpt lat="47.51365" lon="6.88253">
        <ele>397</ele>
        <time>2015-04-06T08:13:19.000Z</time>
      </trkpt>
      <trkpt lat="47.51365" lon="6.88259">
        <ele>397</ele>
        <time>2015-04-06T08:13:20.000Z</time>
      </trkpt>
      <trkpt lat="47.51366" lon="6.88265">
        <ele>397</ele>
        <time>2015-04-06T08:13:21.000Z</time>
      </trkpt>
      <trkpt lat="47.51366" lon="6.88272">
        <ele>397</ele>
        <time>2015-04-06T08:13:22.000Z</time>
      </trkpt>
      <trkpt lat="47.51366" lon="6.88278">
        <ele>397</ele>
        <time>2015-04-06T08:13:23.000Z</time>
      </trkpt>
      <trkpt lat="47.51366" lon="6.88283">
        <ele>397</ele>
        <time>2015-04-06T08:13:24.000Z</time>
      </trkpt>
      <trkpt lat="47.51367" lon="6.88288">
        <ele>397</ele>
        <time>2015-04-06T08:13:25.000Z</time>
      </trkpt>
      <trkpt lat="47.51367" lon="6.88293">
        <ele>397</ele>
        <time>2015-04-06T08:13:26.000Z</time>
      </trkpt>
      <trkpt lat="47.51367" lon="6.88298">
        <ele>397</ele>
        <time>2015-04-06T08:13:27.000Z</time>
      </trkpt>
      <trkpt lat="47.51367" lon="6.88304">
        <ele>398</ele>
        <time>2015-04-06T08:13:28.000Z</time>
      </trkpt>
      <trkpt lat="47.51367" lon="6.88309">
        <ele>398</ele>
        <time>2015-04-06T08:13:29.000Z</time>
      </trkpt>
      <trkpt lat="47.51368" lon="6.88316">
        <ele>398</ele>
        <time>2015-04-06T08:13:30.000Z</time>
      </trkpt>
      <trkpt lat="47.51368" lon="6.88323">
        <ele>398</ele>
        <time>2015-04-06T08:13:31.000Z</time>
      </trkpt>
      <trkpt lat="47.51369" lon="6.8833">
        <ele>398</ele>
        <time>2015-04-06T08:13:32.000Z</time>
      </trkpt>
      <trkpt lat="47.5137" lon="6.88336">
        <ele>398</ele>
        <time>2015-04-06T08:13:33.000Z</time>
      </trkpt>
      <trkpt lat="47.5137" lon="6.88343">
        <ele>398</ele>
        <time>2015-04-06T08:13:34.000Z</time>
      </trkpt>
      <trkpt lat="47.51371" lon="6.88349">
        <ele>398</ele>
        <time>2015-04-06T08:13:35.000Z</time>
      </trkpt>
      <trkpt lat="47.5137" lon="6.88355">
        <ele>398</ele>
        <time>2015-04-06T08:13:36.000Z</time>
      </trkpt>
      <trkpt lat="47.5137" lon="6.88361">
        <ele>397</ele>
        <time>2015-04-06T08:13:37.000Z</time>
      </trkpt>
      <trkpt lat="47.5137" lon="6.88367">
        <ele>397</ele>
        <time>2015-04-06T08:13:38.000Z</time>
      </trkpt>
      <trkpt lat="47.51371" lon="6.88372">
        <ele>397</ele>
        <time>2015-04-06T08:13:39.000Z</time>
      </trkpt>
      <trkpt lat="47.51371" lon="6.88378">
        <ele>397</ele>
        <time>2015-04-06T08:13:40.000Z</time>
      </trkpt>
      <trkpt lat="47.51372" lon="6.88383">
        <ele>397</ele>
        <time>2015-04-06T08:13:41.000Z</time>
      </trkpt>
      <trkpt lat="47.51372" lon="6.88389">
        <ele>397</ele>
        <time>2015-04-06T08:13:42.000Z</time>
      </trkpt>
      <trkpt lat="47.51372" lon="6.88395">
        <ele>397</ele>
        <time>2015-04-06T08:13:43.000Z</time>
      </trkpt>
      <trkpt lat="47.51373" lon="6.88402">
        <ele>397</ele>
        <time>2015-04-06T08:13:44.000Z</time>
      </trkpt>
      <trkpt lat="47.51373" lon="6.88408">
        <ele>397</ele>
        <time>2015-04-06T08:13:45.000Z</time>
      </trkpt>
      <trkpt lat="47.51374" lon="6.88414">
        <ele>397</ele>
        <time>2015-04-06T08:13:46.000Z</time>
      </trkpt>
      <trkpt lat="47.51375" lon="6.8842">
        <ele>396</ele>
        <time>2015-04-06T08:13:47.000Z</time>
      </trkpt>
      <trkpt lat="47.51375" lon="6.88425">
        <ele>396</ele>
        <time>2015-04-06T08:13:48.000Z</time>
      </trkpt>
      <trkpt lat="47.51376" lon="6.88431">
        <ele>396</ele>
        <time>2015-04-06T08:13:49.000Z</time>
      </trkpt>
      <trkpt lat="47.51376" lon="6.88437">
        <ele>396</ele>
        <time>2015-04-06T08:13:50.000Z</time>
      </trkpt>
      <trkpt lat="47.51376" lon="6.88443">
        <ele>395</ele>
        <time>2015-04-06T08:13:51.000Z</time>
      </trkpt>
      <trkpt lat="47.51375" lon="6.88448">
        <ele>395</ele>
        <time>2015-04-06T08:13:52.000Z</time>
      </trkpt>
      <trkpt lat="47.51375" lon="6.88454">
        <ele>395</ele>
        <time>2015-04-06T08:13:53.000Z</time>
      </trkpt>
      <trkpt lat="47.51374" lon="6.88459">
        <ele>395</ele>
        <time>2015-04-06T08:13:54.000Z</time>
      </trkpt>
      <trkpt lat="47.51373" lon="6.88464">
        <ele>395</ele>
        <time>2015-04-06T08:13:55.000Z</time>
      </trkpt>
      <trkpt lat="47.51372" lon="6.88469">
        <ele>395</ele>
        <time>2015-04-06T08:13:56.000Z</time>
      </trkpt>
      <trkpt lat="47.51371" lon="6.88474">
        <ele>395</ele>
        <time>2015-04-06T08:13:57.000Z</time>
      </trkpt>
      <trkpt lat="47.5137" lon="6.88479">
        <ele>395</ele>
        <time>2015-04-06T08:13:58.000Z</time>
      </trkpt>
      <trkpt lat="47.51369" lon="6.88484">
        <ele>395</ele>
        <time>2015-04-06T08:13:59.000Z</time>
      </trkpt>
      <trkpt lat="47.51369" lon="6.88489">
        <ele>395</ele>
        <time>2015-04-06T08:14:00.000Z</time>
      </trkpt>
      <trkpt lat="47.51368" lon="6.88494">
        <ele>395</ele>
        <time>2015-04-06T08:14:01.000Z</time>
      </trkpt>
      <trkpt lat="47.51369" lon="6.88499">
        <ele>395</ele>
        <time>2015-04-06T08:14:02.000Z</time>
      </trkpt>
      <trkpt lat="47.5137" lon="6.88504">
        <ele>395</ele>
        <time>2015-04-06T08:14:03.000Z</time>
      </trkpt>
      <trkpt lat="47.51371" lon="6.88509">
        <ele>395</ele>
        <time>2015-04-06T08:14:04.000Z</time>
      </trkpt>
      <trkpt lat="47.51372" lon="6.88514">
        <ele>395</ele>
        <time>2015-04-06T08:14:05.000Z</time>
      </trkpt>
      <trkpt lat="47.51372" lon="6.88519">
        <ele>395</ele>
        <time>2015-04-06T08:14:06.000Z</time>
      </trkpt>
      <trkpt lat="47.51373" lon="6.88524">
        <ele>395</ele>
        <time>2015-04-06T08:14:07.000Z</time>
      </trkpt>
      <trkpt lat="47.51373" lon="6.8853">
        <ele>395</ele>
        <time>2015-04-06T08:14:08.000Z</time>
      </trkpt>
      <trkpt lat="47.51373" lon="6.88536">
        <ele>395</ele>
        <time>2015-04-06T08:14:09.000Z</time>
      </trkpt>
      <trkpt lat="47.51372" lon="6.88541">
        <ele>395</ele>
        <time>2015-04-06T08:14:10.000Z</time>
      </trkpt>
      <trkpt lat="47.51372" lon="6.88547">
        <ele>395</ele>
        <time>2015-04-06T08:14:11.000Z</time>
      </trkpt>
      <trkpt lat="47.51372" lon="6.88553">
        <ele>395</ele>
        <time>2015-04-06T08:14:12.000Z</time>
      </trkpt>
      <trkpt lat="47.51371" lon="6.88558">
        <ele>395</ele>
        <time>2015-04-06T08:14:13.000Z</time>
      </trkpt>
      <trkpt lat="47.51371" lon="6.88563">
        <ele>395</ele>
        <time>2015-04-06T08:14:14.000Z</time>
      </trkpt>
      <trkpt lat="47.51372" lon="6.88569">
        <ele>395</ele>
        <time>2015-04-06T08:14:15.000Z</time>
      </trkpt>
      <trkpt lat="47.51372" lon="6.88574">
        <ele>395</ele>
        <time>2015-04-06T08:14:16.000Z</time>
      </trkpt>
      <trkpt lat="47.51372" lon="6.88579">
        <ele>395</ele>
        <time>2015-04-06T08:14:17.000Z</time>
      </trkpt>
      <trkpt lat="47.51372" lon="6.88584">
        <ele>396</ele>
        <time>2015-04-06T08:14:18.000Z</time>
      </trkpt>
      <trkpt lat="47.51371" lon="6.8859">
        <ele>396</ele>
        <time>2015-04-06T08:14:19.000Z</time>
      </trkpt>
      <trkpt lat="47.5137" lon="6.88596">
        <ele>396</ele>
        <time>2015-04-06T08:14:20.000Z</time>
      </trkpt>
      <trkpt lat="47.51369" lon="6.88602">
        <ele>396</ele>
        <time>2015-04-06T08:14:21.000Z</time>
      </trkpt>
      <trkpt lat="47.51368" lon="6.88608">
        <ele>396</ele>
        <time>2015-04-06T08:14:22.000Z</time>
      </trkpt>
      <trkpt lat="47.51368" lon="6.88614">
        <ele>396</ele>
        <time>2015-04-06T08:14:23.000Z</time>
      </trkpt>
      <trkpt lat="47.51368" lon="6.88619">
        <ele>396</ele>
        <time>2015-04-06T08:14:24.000Z</time>
      </trkpt>
      <trkpt lat="47.51367" lon="6.88624">
        <ele>396</ele>
        <time>2015-04-06T08:14:25.000Z</time>
      </trkpt>
      <trkpt lat="47.51367" lon="6.88628">
        <ele>396</ele>
        <time>2015-04-06T08:14:26.000Z</time>
      </trkpt>
      <trkpt lat="47.51367" lon="6.88632">
        <ele>396</ele>
        <time>2015-04-06T08:14:27.000Z</time>
      </trkpt>
      <trkpt lat="47.51366" lon="6.88636">
        <ele>396</ele>
        <time>2015-04-06T08:14:28.000Z</time>
      </trkpt>
      <trkpt lat="47.51366" lon="6.8864">
        <ele>397</ele>
        <time>2015-04-06T08:14:29.000Z</time>
      </trkpt>
      <trkpt lat="47.51366" lon="6.88644">
        <ele>397</ele>
        <time>2015-04-06T08:14:30.000Z</time>
      </trkpt>
      <trkpt lat="47.51366" lon="6.88648">
        <ele>397</ele>
        <time>2015-04-06T08:14:31.000Z</time>
      </trkpt>
      <trkpt lat="47.51365" lon="6.88651">
        <ele>397</ele>
        <time>2015-04-06T08:14:32.000Z</time>
      </trkpt>
      <trkpt lat="47.51363" lon="6.88657">
        <ele>397</ele>
        <time>2015-04-06T08:14:33.000Z</time>
      </trkpt>
      <trkpt lat="47.51362" lon="6.8866">
        <ele>397</ele>
        <time>2015-04-06T08:14:34.000Z</time>
      </trkpt>
      <trkpt lat="47.51361" lon="6.88664">
        <ele>397</ele>
        <time>2015-04-06T08:14:35.000Z</time>
      </trkpt>
      <trkpt lat="47.5136" lon="6.8867">
        <ele>397</ele>
        <time>2015-04-06T08:14:39.000Z</time>
      </trkpt>
      <trkpt lat="47.5136" lon="6.88672">
        <ele>397</ele>
        <time>2015-04-06T08:14:40.000Z</time>
      </trkpt>
      <trkpt lat="47.51359" lon="6.88676">
        <ele>397</ele>
        <time>2015-04-06T08:14:41.000Z</time>
      </trkpt>
      <trkpt lat="47.51359" lon="6.88679">
        <ele>397</ele>
        <time>2015-04-06T08:14:42.000Z</time>
      </trkpt>
      <trkpt lat="47.51358" lon="6.88684">
        <ele>397</ele>
        <time>2015-04-06T08:14:45.000Z</time>
      </trkpt>
      <trkpt lat="47.51358" lon="6.88686">
        <ele>397</ele>
        <time>2015-04-06T08:14:46.000Z</time>
      </trkpt>
      <trkpt lat="47.51357" lon="6.88692">
        <ele>397</ele>
        <time>2015-04-06T08:14:48.000Z</time>
      </trkpt>
      <trkpt lat="47.51356" lon="6.88695">
        <ele>397</ele>
        <time>2015-04-06T08:14:49.000Z</time>
      </trkpt>
      <trkpt lat="47.51355" lon="6.88701">
        <ele>397</ele>
        <time>2015-04-06T08:14:53.000Z</time>
      </trkpt>
      <trkpt lat="47.51355" lon="6.88702">
        <ele>397</ele>
        <time>2015-04-06T08:14:54.000Z</time>
      </trkpt>
      <trkpt lat="47.51355" lon="6.88707">
        <ele>397</ele>
        <time>2015-04-06T08:14:59.000Z</time>
      </trkpt>
      <trkpt lat="47.51355" lon="6.88708">
        <ele>397</ele>
        <time>2015-04-06T08:15:00.000Z</time>
      </trkpt>
      <trkpt lat="47.51353" lon="6.88714">
        <ele>397</ele>
        <time>2015-04-06T08:15:05.000Z</time>
      </trkpt>
      <trkpt lat="47.51354" lon="6.88715">
        <ele>397</ele>
        <time>2015-04-06T08:15:06.000Z</time>
      </trkpt>
      <trkpt lat="47.51353" lon="6.88721">
        <ele>397</ele>
        <time>2015-04-06T08:15:11.000Z</time>
      </trkpt>
      <trkpt lat="47.51352" lon="6.88722">
        <ele>397</ele>
        <time>2015-04-06T08:15:12.000Z</time>
      </trkpt>
      <trkpt lat="47.51348" lon="6.88725">
        <ele>398</ele>
        <time>2015-04-06T08:15:17.000Z</time>
      </trkpt>
      <trkpt lat="47.51346" lon="6.88727">
        <ele>398</ele>
        <time>2015-04-06T08:15:18.000Z</time>
      </trkpt>
      <trkpt lat="47.51342" lon="6.88731">
        <ele>398</ele>
        <time>2015-04-06T08:15:28.000Z</time>
      </trkpt>
      <trkpt lat="47.51342" lon="6.88732">
        <ele>398</ele>
        <time>2015-04-06T08:15:29.000Z</time>
      </trkpt>
      <trkpt lat="47.51343" lon="6.88738">
        <ele>398</ele>
        <time>2015-04-06T08:15:50.000Z</time>
      </trkpt>
      <trkpt lat="47.51344" lon="6.88741">
        <ele>398</ele>
        <time>2015-04-06T08:15:51.000Z</time>
      </trkpt>
      <trkpt lat="47.51345" lon="6.88745">
        <ele>398</ele>
        <time>2015-04-06T08:15:52.000Z</time>
      </trkpt>
      <trkpt lat="47.51345" lon="6.88749">
        <ele>398</ele>
        <time>2015-04-06T08:15:53.000Z</time>
      </trkpt>
      <trkpt lat="47.51346" lon="6.88754">
        <ele>398</ele>
        <time>2015-04-06T08:15:54.000Z</time>
      </trkpt>
      <trkpt lat="47.51346" lon="6.88757">
        <ele>398</ele>
        <time>2015-04-06T08:15:55.000Z</time>
      </trkpt>
      <trkpt lat="47.51346" lon="6.88763">
        <ele>398</ele>
        <time>2015-04-06T08:15:57.000Z</time>
      </trkpt>
      <trkpt lat="47.51346" lon="6.88765">
        <ele>398</ele>
        <time>2015-04-06T08:15:58.000Z</time>
      </trkpt>
      <trkpt lat="47.51346" lon="6.8877">
        <ele>398</ele>
        <time>2015-04-06T08:16:00.000Z</time>
      </trkpt>
      <trkpt lat="47.51345" lon="6.88771">
        <ele>398</ele>
        <time>2015-04-06T08:16:01.000Z</time>
      </trkpt>
      <trkpt lat="47.51341" lon="6.88775">
        <ele>397</ele>
        <time>2015-04-06T08:16:04.000Z</time>
      </trkpt>
      <trkpt lat="47.51339" lon="6.88776">
        <ele>397</ele>
        <time>2015-04-06T08:16:05.000Z</time>
      </trkpt>
      <trkpt lat="47.51338" lon="6.88782">
        <ele>397</ele>
        <time>2015-04-06T08:16:12.000Z</time>
      </trkpt>
      <trkpt lat="47.51338" lon="6.88783">
        <ele>397</ele>
        <time>2015-04-06T08:16:13.000Z</time>
      </trkpt>
      <trkpt lat="47.51335" lon="6.88787">
        <ele>397</ele>
        <time>2015-04-06T08:16:14.000Z</time>
      </trkpt>
      <trkpt lat="47.51333" lon="6.88788">
        <ele>399</ele>
        <time>2015-04-06T08:16:15.000Z</time>
      </trkpt>
      <trkpt lat="47.5133" lon="6.88792">
        <ele>399</ele>
        <time>2015-04-06T08:16:23.000Z</time>
      </trkpt>
      <trkpt lat="47.5133" lon="6.88793">
        <ele>399</ele>
        <time>2015-04-06T08:16:24.000Z</time>
      </trkpt>
      <trkpt lat="47.5133" lon="6.88799">
        <ele>399</ele>
        <time>2015-04-06T08:16:28.000Z</time>
      </trkpt>
      <trkpt lat="47.5133" lon="6.88803">
        <ele>399</ele>
        <time>2015-04-06T08:16:29.000Z</time>
      </trkpt>
      <trkpt lat="47.51329" lon="6.88808">
        <ele>399</ele>
        <time>2015-04-06T08:16:30.000Z</time>
      </trkpt>
      <trkpt lat="47.51329" lon="6.88814">
        <ele>399</ele>
        <time>2015-04-06T08:16:31.000Z</time>
      </trkpt>
      <trkpt lat="47.51328" lon="6.88821">
        <ele>398</ele>
        <time>2015-04-06T08:16:32.000Z</time>
      </trkpt>
      <trkpt lat="47.51328" lon="6.88827">
        <ele>398</ele>
        <time>2015-04-06T08:16:33.000Z</time>
      </trkpt>
      <trkpt lat="47.51327" lon="6.88833">
        <ele>398</ele>
        <time>2015-04-06T08:16:34.000Z</time>
      </trkpt>
      <trkpt lat="47.51327" lon="6.88839">
        <ele>398</ele>
        <time>2015-04-06T08:16:35.000Z</time>
      </trkpt>
      <trkpt lat="47.51327" lon="6.88843">
        <ele>398</ele>
        <time>2015-04-06T08:16:36.000Z</time>
      </trkpt>
      <trkpt lat="47.51328" lon="6.88847">
        <ele>399</ele>
        <time>2015-04-06T08:16:37.000Z</time>
      </trkpt>
      <trkpt lat="47.51328" lon="6.88853">
        <ele>399</ele>
        <time>2015-04-06T08:16:39.000Z</time>
      </trkpt>
      <trkpt lat="47.51329" lon="6.88856">
        <ele>399</ele>
        <time>2015-04-06T08:16:40.000Z</time>
      </trkpt>
      <trkpt lat="47.51329" lon="6.88862">
        <ele>399</ele>
        <time>2015-04-06T08:16:42.000Z</time>
      </trkpt>
      <trkpt lat="47.51329" lon="6.88865">
        <ele>399</ele>
        <time>2015-04-06T08:16:43.000Z</time>
      </trkpt>
      <trkpt lat="47.51328" lon="6.88871">
        <ele>400</ele>
        <time>2015-04-06T08:16:49.000Z</time>
      </trkpt>
      <trkpt lat="47.51328" lon="6.88872">
        <ele>400</ele>
        <time>2015-04-06T08:16:50.000Z</time>
      </trkpt>
      <trkpt lat="47.51327" lon="6.88877">
        <ele>400</ele>
        <time>2015-04-06T08:16:52.000Z</time>
      </trkpt>
      <trkpt lat="47.51327" lon="6.88881">
        <ele>400</ele>
        <time>2015-04-06T08:16:53.000Z</time>
      </trkpt>
      <trkpt lat="47.51329" lon="6.88886">
        <ele>400</ele>
        <time>2015-04-06T08:16:57.000Z</time>
      </trkpt>
      <trkpt lat="47.51329" lon="6.88887">
        <ele>400</ele>
        <time>2015-04-06T08:16:58.000Z</time>
      </trkpt>
      <trkpt lat="47.51327" lon="6.88892">
        <ele>400</ele>
        <time>2015-04-06T08:17:13.000Z</time>
      </trkpt>
      <trkpt lat="47.51326" lon="6.88892">
        <ele>400</ele>
        <time>2015-04-06T08:17:14.000Z</time>
      </trkpt>
      <trkpt lat="47.51323" lon="6.88897">
        <ele>400</ele>
        <time>2015-04-06T08:17:17.000Z</time>
      </trkpt>
      <trkpt lat="47.51323" lon="6.88899">
        <ele>399</ele>
        <time>2015-04-06T08:17:18.000Z</time>
      </trkpt>
      <trkpt lat="47.51322" lon="6.88905">
        <ele>399</ele>
        <time>2015-04-06T08:17:20.000Z</time>
      </trkpt>
      <trkpt lat="47.51321" lon="6.88909">
        <ele>399</ele>
        <time>2015-04-06T08:17:21.000Z</time>
      </trkpt>
      <trkpt lat="47.5132" lon="6.88915">
        <ele>399</ele>
        <time>2015-04-06T08:17:23.000Z</time>
      </trkpt>
      <trkpt lat="47.51319" lon="6.88918">
        <ele>400</ele>
        <time>2015-04-06T08:17:24.000Z</time>
      </trkpt>
      <trkpt lat="47.51317" lon="6.88922">
        <ele>400</ele>
        <time>2015-04-06T08:17:26.000Z</time>
      </trkpt>
      <trkpt lat="47.51317" lon="6.88925">
        <ele>400</ele>
        <time>2015-04-06T08:17:27.000Z</time>
      </trkpt>
      <trkpt lat="47.51316" lon="6.88928">
        <ele>401</ele>
        <time>2015-04-06T08:17:28.000Z</time>
      </trkpt>
      <trkpt lat="47.51316" lon="6.88932">
        <ele>401</ele>
        <time>2015-04-06T08:17:29.000Z</time>
      </trkpt>
      <trkpt lat="47.51315" lon="6.88936">
        <ele>401</ele>
        <time>2015-04-06T08:17:30.000Z</time>
      </trkpt>
      <trkpt lat="47.51315" lon="6.8894">
        <ele>401</ele>
        <time>2015-04-06T08:17:31.000Z</time>
      </trkpt>
      <trkpt lat="47.51314" lon="6.88944">
        <ele>401</ele>
        <time>2015-04-06T08:17:32.000Z</time>
      </trkpt>
      <trkpt lat="47.51313" lon="6.88949">
        <ele>402</ele>
        <time>2015-04-06T08:17:33.000Z</time>
      </trkpt>
      <trkpt lat="47.51312" lon="6.88953">
        <ele>402</ele>
        <time>2015-04-06T08:17:34.000Z</time>
      </trkpt>
      <trkpt lat="47.51311" lon="6.88957">
        <ele>402</ele>
        <time>2015-04-06T08:17:35.000Z</time>
      </trkpt>
      <trkpt lat="47.5131" lon="6.88962">
        <ele>402</ele>
        <time>2015-04-06T08:17:36.000Z</time>
      </trkpt>
      <trkpt lat="47.51309" lon="6.88966">
        <ele>402</ele>
        <time>2015-04-06T08:17:37.000Z</time>
      </trkpt>
      <trkpt lat="47.51308" lon="6.8897">
        <ele>402</ele>
        <time>2015-04-06T08:17:38.000Z</time>
      </trkpt>
      <trkpt lat="47.51307" lon="6.88974">
        <ele>402</ele>
        <time>2015-04-06T08:17:39.000Z</time>
      </trkpt>
      <trkpt lat="47.51306" lon="6.88979">
        <ele>402</ele>
        <time>2015-04-06T08:17:40.999Z</time>
      </trkpt>
      <trkpt lat="47.51303" lon="6.88987">
        <ele>403</ele>
        <time>2015-04-06T08:17:42.000Z</time>
      </trkpt>
      <trkpt lat="47.51301" lon="6.88993">
        <ele>403</ele>
        <time>2015-04-06T08:17:43.000Z</time>
      </trkpt>
      <trkpt lat="47.51299" lon="6.88999">
        <ele>403</ele>
        <time>2015-04-06T08:17:44.000Z</time>
      </trkpt>
      <trkpt lat="47.51297" lon="6.89004">
        <ele>404</ele>
        <time>2015-04-06T08:17:45.000Z</time>
      </trkpt>
      <trkpt lat="47.51296" lon="6.89009">
        <ele>404</ele>
        <time>2015-04-06T08:17:46.000Z</time>
      </trkpt>
      <trkpt lat="47.51295" lon="6.89013">
        <ele>404</ele>
        <time>2015-04-06T08:17:47.000Z</time>
      </trkpt>
      <trkpt lat="47.51295" lon="6.89017">
        <ele>404</ele>
        <time>2015-04-06T08:17:48.000Z</time>
      </trkpt>
      <trkpt lat="47.51295" lon="6.89021">
        <ele>404</ele>
        <time>2015-04-06T08:17:49.000Z</time>
      </trkpt>
      <trkpt lat="47.51294" lon="6.89025">
        <ele>404</ele>
        <time>2015-04-06T08:17:50.000Z</time>
      </trkpt>
      <trkpt lat="47.51292" lon="6.8903">
        <ele>405</ele>
        <time>2015-04-06T08:17:51.000Z</time>
      </trkpt>
      <trkpt lat="47.51291" lon="6.89034">
        <ele>405</ele>
        <time>2015-04-06T08:17:52.000Z</time>
      </trkpt>
      <trkpt lat="47.5129" lon="6.89039">
        <ele>405</ele>
        <time>2015-04-06T08:17:53.000Z</time>
      </trkpt>
      <trkpt lat="47.5129" lon="6.89042">
        <ele>405</ele>
        <time>2015-04-06T08:17:54.000Z</time>
      </trkpt>
      <trkpt lat="47.5129" lon="6.89046">
        <ele>405</ele>
        <time>2015-04-06T08:17:55.000Z</time>
      </trkpt>
      <trkpt lat="47.51289" lon="6.89049">
        <ele>405</ele>
        <time>2015-04-06T08:17:56.000Z</time>
      </trkpt>
      <trkpt lat="47.51288" lon="6.89052">
        <ele>405</ele>
        <time>2015-04-06T08:17:57.000Z</time>
      </trkpt>
      <trkpt lat="47.51287" lon="6.89056">
        <ele>405</ele>
        <time>2015-04-06T08:17:58.000Z</time>
      </trkpt>
      <trkpt lat="47.51287" lon="6.8906">
        <ele>405</ele>
        <time>2015-04-06T08:17:59.000Z</time>
      </trkpt>
      <trkpt lat="47.51286" lon="6.89065">
        <ele>405</ele>
        <time>2015-04-06T08:18:00.000Z</time>
      </trkpt>
      <trkpt lat="47.51286" lon="6.89069">
        <ele>405</ele>
        <time>2015-04-06T08:18:01.000Z</time>
      </trkpt>
      <trkpt lat="47.51285" lon="6.89073">
        <ele>405</ele>
        <time>2015-04-06T08:18:02.000Z</time>
      </trkpt>
      <trkpt lat="47.51285" lon="6.89077">
        <ele>405</ele>
        <time>2015-04-06T08:18:03.000Z</time>
      </trkpt>
      <trkpt lat="47.51284" lon="6.89081">
        <ele>405</ele>
        <time>2015-04-06T08:18:04.000Z</time>
      </trkpt>
      <trkpt lat="47.51283" lon="6.89086">
        <ele>407</ele>
        <time>2015-04-06T08:18:05.000Z</time>
      </trkpt>
      <trkpt lat="47.51282" lon="6.89091">
        <ele>407</ele>
        <time>2015-04-06T08:18:06.000Z</time>
      </trkpt>
      <trkpt lat="47.51281" lon="6.89096">
        <ele>407</ele>
        <time>2015-04-06T08:18:07.000Z</time>
      </trkpt>
      <trkpt lat="47.5128" lon="6.89101">
        <ele>407</ele>
        <time>2015-04-06T08:18:08.000Z</time>
      </trkpt>
      <trkpt lat="47.51279" lon="6.89106">
        <ele>407</ele>
        <time>2015-04-06T08:18:09.000Z</time>
      </trkpt>
      <trkpt lat="47.51278" lon="6.89111">
        <ele>407</ele>
        <time>2015-04-06T08:18:10.000Z</time>
      </trkpt>
      <trkpt lat="47.51276" lon="6.89116">
        <ele>407</ele>
        <time>2015-04-06T08:18:11.000Z</time>
      </trkpt>
      <trkpt lat="47.51275" lon="6.89121">
        <ele>407</ele>
        <time>2015-04-06T08:18:12.000Z</time>
      </trkpt>
      <trkpt lat="47.51273" lon="6.89126">
        <ele>408</ele>
        <time>2015-04-06T08:18:13.000Z</time>
      </trkpt>
      <trkpt lat="47.51272" lon="6.89131">
        <ele>408</ele>
        <time>2015-04-06T08:18:14.000Z</time>
      </trkpt>
      <trkpt lat="47.5127" lon="6.89137">
        <ele>408</ele>
        <time>2015-04-06T08:18:15.000Z</time>
      </trkpt>
      <trkpt lat="47.51269" lon="6.89142">
        <ele>408</ele>
        <time>2015-04-06T08:18:16.000Z</time>
      </trkpt>
      <trkpt lat="47.51267" lon="6.89147">
        <ele>408</ele>
        <time>2015-04-06T08:18:17.000Z</time>
      </trkpt>
      <trkpt lat="47.51265" lon="6.89152">
        <ele>408</ele>
        <time>2015-04-06T08:18:18.000Z</time>
      </trkpt>
      <trkpt lat="47.51263" lon="6.89158">
        <ele>408</ele>
        <time>2015-04-06T08:18:19.000Z</time>
      </trkpt>
      <trkpt lat="47.51261" lon="6.89165">
        <ele>408</ele>
        <time>2015-04-06T08:18:20.000Z</time>
      </trkpt>
      <trkpt lat="47.51259" lon="6.89171">
        <ele>409</ele>
        <time>2015-04-06T08:18:21.000Z</time>
      </trkpt>
      <trkpt lat="47.51258" lon="6.89177">
        <ele>409</ele>
        <time>2015-04-06T08:18:22.000Z</time>
      </trkpt>
      <trkpt lat="47.51256" lon="6.89184">
        <ele>409</ele>
        <time>2015-04-06T08:18:23.000Z</time>
      </trkpt>
      <trkpt lat="47.51254" lon="6.8919">
        <ele>409</ele>
        <time>2015-04-06T08:18:24.000Z</time>
      </trkpt>
      <trkpt lat="47.51252" lon="6.89195">
        <ele>409</ele>
        <time>2015-04-06T08:18:25.000Z</time>
      </trkpt>
      <trkpt lat="47.51251" lon="6.89202">
        <ele>409</ele>
        <time>2015-04-06T08:18:26.000Z</time>
      </trkpt>
      <trkpt lat="47.51249" lon="6.89208">
        <ele>410</ele>
        <time>2015-04-06T08:18:27.000Z</time>
      </trkpt>
      <trkpt lat="47.51248" lon="6.89214">
        <ele>410</ele>
        <time>2015-04-06T08:18:28.000Z</time>
      </trkpt>
      <trkpt lat="47.51246" lon="6.89221">
        <ele>410</ele>
        <time>2015-04-06T08:18:29.000Z</time>
      </trkpt>
      <trkpt lat="47.51245" lon="6.89226">
        <ele>410</ele>
        <time>2015-04-06T08:18:30.000Z</time>
      </trkpt>
      <trkpt lat="47.51245" lon="6.89232">
        <ele>410</ele>
        <time>2015-04-06T08:18:31.000Z</time>
      </trkpt>
      <trkpt lat="47.51244" lon="6.89238">
        <ele>410</ele>
        <time>2015-04-06T08:18:32.000Z</time>
      </trkpt>
      <trkpt lat="47.51243" lon="6.89244">
        <ele>410</ele>
        <time>2015-04-06T08:18:33.000Z</time>
      </trkpt>
      <trkpt lat="47.51242" lon="6.8925">
        <ele>410</ele>
        <time>2015-04-06T08:18:34.000Z</time>
      </trkpt>
      <trkpt lat="47.51241" lon="6.89256">
        <ele>410</ele>
        <time>2015-04-06T08:18:35.000Z</time>
      </trkpt>
      <trkpt lat="47.5124" lon="6.89264">
        <ele>409</ele>
        <time>2015-04-06T08:18:36.000Z</time>
      </trkpt>
      <trkpt lat="47.51238" lon="6.89272">
        <ele>409</ele>
        <time>2015-04-06T08:18:37.001Z</time>
      </trkpt>
      <trkpt lat="47.51237" lon="6.8928">
        <ele>409</ele>
        <time>2015-04-06T08:18:38.000Z</time>
      </trkpt>
      <trkpt lat="47.51236" lon="6.89288">
        <ele>409</ele>
        <time>2015-04-06T08:18:39.000Z</time>
      </trkpt>
      <trkpt lat="47.51235" lon="6.89296">
        <ele>409</ele>
        <time>2015-04-06T08:18:40.000Z</time>
      </trkpt>
      <trkpt lat="47.51234" lon="6.89304">
        <ele>409</ele>
        <time>2015-04-06T08:18:41.000Z</time>
      </trkpt>
      <trkpt lat="47.51234" lon="6.8931">
        <ele>408</ele>
        <time>2015-04-06T08:18:41.999Z</time>
      </trkpt>
      <trkpt lat="47.51233" lon="6.89317">
        <ele>408</ele>
        <time>2015-04-06T08:18:43.002Z</time>
      </trkpt>
      <trkpt lat="47.51232" lon="6.89326">
        <ele>408</ele>
        <time>2015-04-06T08:18:44.000Z</time>
      </trkpt>
      <trkpt lat="47.5123" lon="6.89333">
        <ele>408</ele>
        <time>2015-04-06T08:18:45.000Z</time>
      </trkpt>
      <trkpt lat="47.51228" lon="6.89341">
        <ele>407</ele>
        <time>2015-04-06T08:18:46.000Z</time>
      </trkpt>
      <trkpt lat="47.51226" lon="6.89349">
        <ele>407</ele>
        <time>2015-04-06T08:18:47.000Z</time>
      </trkpt>
      <trkpt lat="47.51224" lon="6.89355">
        <ele>407</ele>
        <time>2015-04-06T08:18:48.000Z</time>
      </trkpt>
      <trkpt lat="47.51223" lon="6.89361">
        <ele>407</ele>
        <time>2015-04-06T08:18:49.000Z</time>
      </trkpt>
      <trkpt lat="47.51222" lon="6.89366">
        <ele>407</ele>
        <time>2015-04-06T08:18:50.000Z</time>
      </trkpt>
      <trkpt lat="47.51221" lon="6.89371">
        <ele>407</ele>
        <time>2015-04-06T08:18:51.000Z</time>
      </trkpt>
      <trkpt lat="47.5122" lon="6.89376">
        <ele>407</ele>
        <time>2015-04-06T08:18:52.000Z</time>
      </trkpt>
      <trkpt lat="47.51219" lon="6.89381">
        <ele>407</ele>
        <time>2015-04-06T08:18:53.000Z</time>
      </trkpt>
      <trkpt lat="47.51219" lon="6.89386">
        <ele>407</ele>
        <time>2015-04-06T08:18:54.000Z</time>
      </trkpt>
      <trkpt lat="47.51219" lon="6.8939">
        <ele>407</ele>
        <time>2015-04-06T08:18:55.001Z</time>
      </trkpt>
      <trkpt lat="47.51218" lon="6.89399">
        <ele>407</ele>
        <time>2015-04-06T08:18:56.000Z</time>
      </trkpt>
      <trkpt lat="47.51217" lon="6.89407">
        <ele>407</ele>
        <time>2015-04-06T08:18:57.000Z</time>
      </trkpt>
      <trkpt lat="47.51216" lon="6.89416">
        <ele>407</ele>
        <time>2015-04-06T08:18:58.000Z</time>
      </trkpt>
      <trkpt lat="47.51214" lon="6.89424">
        <ele>406</ele>
        <time>2015-04-06T08:18:59.000Z</time>
      </trkpt>
      <trkpt lat="47.51213" lon="6.89432">
        <ele>406</ele>
        <time>2015-04-06T08:19:00.000Z</time>
      </trkpt>
      <trkpt lat="47.51212" lon="6.8944">
        <ele>406</ele>
        <time>2015-04-06T08:19:01.000Z</time>
      </trkpt>
      <trkpt lat="47.51211" lon="6.89448">
        <ele>406</ele>
        <time>2015-04-06T08:19:02.000Z</time>
      </trkpt>
      <trkpt lat="47.51209" lon="6.89456">
        <ele>406</ele>
        <time>2015-04-06T08:19:03.000Z</time>
      </trkpt>
      <trkpt lat="47.51208" lon="6.89463">
        <ele>406</ele>
        <time>2015-04-06T08:19:04.000Z</time>
      </trkpt>
      <trkpt lat="47.51207" lon="6.89471">
        <ele>406</ele>
        <time>2015-04-06T08:19:05.000Z</time>
      </trkpt>
      <trkpt lat="47.51206" lon="6.89478">
        <ele>406</ele>
        <time>2015-04-06T08:19:06.000Z</time>
      </trkpt>
      <trkpt lat="47.51204" lon="6.89484">
        <ele>406</ele>
        <time>2015-04-06T08:19:07.000Z</time>
      </trkpt>
      <trkpt lat="47.51203" lon="6.8949">
        <ele>406</ele>
        <time>2015-04-06T08:19:08.000Z</time>
      </trkpt>
      <trkpt lat="47.51202" lon="6.89496">
        <ele>406</ele>
        <time>2015-04-06T08:19:09.000Z</time>
      </trkpt>
      <trkpt lat="47.51201" lon="6.895">
        <ele>406</ele>
        <time>2015-04-06T08:19:10.000Z</time>
      </trkpt>
      <trkpt lat="47.512" lon="6.89503">
        <ele>406</ele>
        <time>2015-04-06T08:19:11.000Z</time>
      </trkpt>
      <trkpt lat="47.51197" lon="6.89508">
        <ele>406</ele>
        <time>2015-04-06T08:19:13.000Z</time>
      </trkpt>
      <trkpt lat="47.51196" lon="6.89511">
        <ele>406</ele>
        <time>2015-04-06T08:19:14.000Z</time>
      </trkpt>
      <trkpt lat="47.51196" lon="6.89514">
        <ele>406</ele>
        <time>2015-04-06T08:19:15.000Z</time>
      </trkpt>
      <trkpt lat="47.51196" lon="6.89517">
        <ele>406</ele>
        <time>2015-04-06T08:19:16.000Z</time>
      </trkpt>
      <trkpt lat="47.51196" lon="6.89521">
        <ele>406</ele>
        <time>2015-04-06T08:19:17.001Z</time>
      </trkpt>
      <trkpt lat="47.51196" lon="6.89525">
        <ele>406</ele>
        <time>2015-04-06T08:19:18.000Z</time>
      </trkpt>
      <trkpt lat="47.51195" lon="6.89529">
        <ele>406</ele>
        <time>2015-04-06T08:19:19.000Z</time>
      </trkpt>
      <trkpt lat="47.51194" lon="6.89532">
        <ele>406</ele>
        <time>2015-04-06T08:19:20.000Z</time>
      </trkpt>
      <trkpt lat="47.51193" lon="6.89534">
        <ele>406</ele>
        <time>2015-04-06T08:19:21.000Z</time>
      </trkpt>
      <trkpt lat="47.51191" lon="6.89536">
        <ele>406</ele>
        <time>2015-04-06T08:19:22.000Z</time>
      </trkpt>
      <trkpt lat="47.51188" lon="6.89537">
        <ele>406</ele>
        <time>2015-04-06T08:19:23.000Z</time>
      </trkpt>
      <trkpt lat="47.51184" lon="6.89537">
        <ele>406</ele>
        <time>2015-04-06T08:19:24.000Z</time>
      </trkpt>
      <trkpt lat="47.5118" lon="6.89537">
        <ele>406</ele>
        <time>2015-04-06T08:19:25.000Z</time>
      </trkpt>
      <trkpt lat="47.51175" lon="6.89538">
        <ele>406</ele>
        <time>2015-04-06T08:19:26.000Z</time>
      </trkpt>
      <trkpt lat="47.51172" lon="6.89538">
        <ele>406</ele>
        <time>2015-04-06T08:19:27.000Z</time>
      </trkpt>
      <trkpt lat="47.51168" lon="6.89538">
        <ele>406</ele>
        <time>2015-04-06T08:19:28.000Z</time>
      </trkpt>
      <trkpt lat="47.51165" lon="6.89539">
        <ele>406</ele>
        <time>2015-04-06T08:19:29.000Z</time>
      </trkpt>
      <trkpt lat="47.51162" lon="6.8954">
        <ele>406</ele>
        <time>2015-04-06T08:19:30.000Z</time>
      </trkpt>
      <trkpt lat="47.51159" lon="6.89542">
        <ele>406</ele>
        <time>2015-04-06T08:19:31.000Z</time>
      </trkpt>
      <trkpt lat="47.51156" lon="6.89543">
        <ele>406</ele>
        <time>2015-04-06T08:19:32.000Z</time>
      </trkpt>
      <trkpt lat="47.51153" lon="6.89545">
        <ele>406</ele>
        <time>2015-04-06T08:19:33.000Z</time>
      </trkpt>
      <trkpt lat="47.5115" lon="6.89546">
        <ele>406</ele>
        <time>2015-04-06T08:19:34.000Z</time>
      </trkpt>
      <trkpt lat="47.51147" lon="6.89547">
        <ele>406</ele>
        <time>2015-04-06T08:19:35.000Z</time>
      </trkpt>
      <trkpt lat="47.51143" lon="6.89549">
        <ele>406</ele>
        <time>2015-04-06T08:19:36.000Z</time>
      </trkpt>
      <trkpt lat="47.51139" lon="6.8955">
        <ele>406</ele>
        <time>2015-04-06T08:19:37.000Z</time>
      </trkpt>
      <trkpt lat="47.51136" lon="6.89552">
        <ele>406</ele>
        <time>2015-04-06T08:19:38.000Z</time>
      </trkpt>
      <trkpt lat="47.51132" lon="6.89554">
        <ele>406</ele>
        <time>2015-04-06T08:19:39.000Z</time>
      </trkpt>
      <trkpt lat="47.51128" lon="6.89557">
        <ele>406</ele>
        <time>2015-04-06T08:19:40.000Z</time>
      </trkpt>
      <trkpt lat="47.51124" lon="6.8956">
        <ele>406</ele>
        <time>2015-04-06T08:19:41.000Z</time>
      </trkpt>
      <trkpt lat="47.51115" lon="6.89571">
        <ele>406</ele>
        <time>2015-04-06T08:19:42.000Z</time>
      </trkpt>
      <trkpt lat="47.51112" lon="6.89574">
        <ele>405</ele>
        <time>2015-04-06T08:19:43.000Z</time>
      </trkpt>
      <trkpt lat="47.51108" lon="6.89577">
        <ele>405</ele>
        <time>2015-04-06T08:19:44.000Z</time>
      </trkpt>
      <trkpt lat="47.51104" lon="6.89581">
        <ele>405</ele>
        <time>2015-04-06T08:19:45.000Z</time>
      </trkpt>
      <trkpt lat="47.511" lon="6.89585">
        <ele>404</ele>
        <time>2015-04-06T08:19:46.000Z</time>
      </trkpt>
      <trkpt lat="47.51098" lon="6.89589">
        <ele>404</ele>
        <time>2015-04-06T08:19:47.000Z</time>
      </trkpt>
      <trkpt lat="47.51095" lon="6.89592">
        <ele>404</ele>
        <time>2015-04-06T08:19:48.000Z</time>
      </trkpt>
      <trkpt lat="47.51093" lon="6.89594">
        <ele>404</ele>
        <time>2015-04-06T08:19:49.000Z</time>
      </trkpt>
      <trkpt lat="47.51087" lon="6.89598">
        <ele>404</ele>
        <time>2015-04-06T08:19:50.000Z</time>
      </trkpt>
      <trkpt lat="47.51083" lon="6.89605">
        <ele>404</ele>
        <time>2015-04-06T08:19:51.000Z</time>
      </trkpt>
      <trkpt lat="47.51078" lon="6.89609">
        <ele>404</ele>
        <time>2015-04-06T08:19:52.000Z</time>
      </trkpt>
      <trkpt lat="47.51074" lon="6.89613">
        <ele>404</ele>
        <time>2015-04-06T08:19:53.000Z</time>
      </trkpt>
      <trkpt lat="47.51071" lon="6.89614">
        <ele>404</ele>
        <time>2015-04-06T08:19:54.000Z</time>
      </trkpt>
      <trkpt lat="47.51066" lon="6.89618">
        <ele>404</ele>
        <time>2015-04-06T08:19:55.000Z</time>
      </trkpt>
      <trkpt lat="47.51063" lon="6.89621">
        <ele>404</ele>
        <time>2015-04-06T08:19:56.000Z</time>
      </trkpt>
      <trkpt lat="47.51059" lon="6.89623">
        <ele>404</ele>
        <time>2015-04-06T08:19:57.000Z</time>
      </trkpt>
      <trkpt lat="47.51054" lon="6.89626">
        <ele>404</ele>
        <time>2015-04-06T08:19:58.000Z</time>
      </trkpt>
      <trkpt lat="47.5105" lon="6.89625">
        <ele>404</ele>
        <time>2015-04-06T08:19:59.000Z</time>
      </trkpt>
      <trkpt lat="47.51047" lon="6.89626">
        <ele>404</ele>
        <time>2015-04-06T08:20:00.000Z</time>
      </trkpt>
      <trkpt lat="47.51043" lon="6.89628">
        <ele>404</ele>
        <time>2015-04-06T08:20:01.000Z</time>
      </trkpt>
      <trkpt lat="47.5104" lon="6.8963">
        <ele>404</ele>
        <time>2015-04-06T08:20:02.000Z</time>
      </trkpt>
      <trkpt lat="47.51037" lon="6.89631">
        <ele>404</ele>
        <time>2015-04-06T08:20:03.000Z</time>
      </trkpt>
      <trkpt lat="47.51033" lon="6.89634">
        <ele>404</ele>
        <time>2015-04-06T08:20:04.000Z</time>
      </trkpt>
      <trkpt lat="47.51029" lon="6.89636">
        <ele>404</ele>
        <time>2015-04-06T08:20:05.000Z</time>
      </trkpt>
      <trkpt lat="47.51026" lon="6.89639">
        <ele>405</ele>
        <time>2015-04-06T08:20:06.000Z</time>
      </trkpt>
      <trkpt lat="47.51023" lon="6.8964">
        <ele>405</ele>
        <time>2015-04-06T08:20:07.000Z</time>
      </trkpt>
      <trkpt lat="47.5102" lon="6.89641">
        <ele>405</ele>
        <time>2015-04-06T08:20:08.000Z</time>
      </trkpt>
      <trkpt lat="47.51016" lon="6.89643">
        <ele>405</ele>
        <time>2015-04-06T08:20:09.000Z</time>
      </trkpt>
      <trkpt lat="47.51012" lon="6.89644">
        <ele>405</ele>
        <time>2015-04-06T08:20:10.000Z</time>
      </trkpt>
      <trkpt lat="47.51009" lon="6.89645">
        <ele>405</ele>
        <time>2015-04-06T08:20:11.000Z</time>
      </trkpt>
      <trkpt lat="47.51005" lon="6.89644">
        <ele>405</ele>
        <time>2015-04-06T08:20:12.000Z</time>
      </trkpt>
      <trkpt lat="47.51002" lon="6.89643">
        <ele>405</ele>
        <time>2015-04-06T08:20:13.000Z</time>
      </trkpt>
      <trkpt lat="47.50999" lon="6.89641">
        <ele>405</ele>
        <time>2015-04-06T08:20:14.001Z</time>
      </trkpt>
      <trkpt lat="47.50996" lon="6.89639">
        <ele>405</ele>
        <time>2015-04-06T08:20:15.000Z</time>
      </trkpt>
      <trkpt lat="47.50993" lon="6.89637">
        <ele>405</ele>
        <time>2015-04-06T08:20:16.000Z</time>
      </trkpt>
      <trkpt lat="47.5099" lon="6.89636">
        <ele>405</ele>
        <time>2015-04-06T08:20:17.000Z</time>
      </trkpt>
      <trkpt lat="47.50985" lon="6.89636">
        <ele>405</ele>
        <time>2015-04-06T08:20:18.000Z</time>
      </trkpt>
      <trkpt lat="47.50981" lon="6.89637">
        <ele>405</ele>
        <time>2015-04-06T08:20:19.000Z</time>
      </trkpt>
      <trkpt lat="47.50976" lon="6.89639">
        <ele>405</ele>
        <time>2015-04-06T08:20:20.000Z</time>
      </trkpt>
      <trkpt lat="47.5097" lon="6.89641">
        <ele>405</ele>
        <time>2015-04-06T08:20:21.000Z</time>
      </trkpt>
      <trkpt lat="47.50964" lon="6.89643">
        <ele>405</ele>
        <time>2015-04-06T08:20:22.000Z</time>
      </trkpt>
      <trkpt lat="47.50958" lon="6.89645">
        <ele>405</ele>
        <time>2015-04-06T08:20:23.000Z</time>
      </trkpt>
      <trkpt lat="47.50952" lon="6.89647">
        <ele>405</ele>
        <time>2015-04-06T08:20:24.000Z</time>
      </trkpt>
      <trkpt lat="47.50948" lon="6.89647">
        <ele>405</ele>
        <time>2015-04-06T08:20:25.002Z</time>
      </trkpt>
      <trkpt lat="47.50929" lon="6.89653">
        <ele>405</ele>
        <time>2015-04-06T08:20:26.000Z</time>
      </trkpt>
      <trkpt lat="47.50922" lon="6.89655">
        <ele>405</ele>
        <time>2015-04-06T08:20:27.000Z</time>
      </trkpt>
      <trkpt lat="47.50915" lon="6.89655">
        <ele>405</ele>
        <time>2015-04-06T08:20:28.000Z</time>
      </trkpt>
      <trkpt lat="47.50907" lon="6.89656">
        <ele>405</ele>
        <time>2015-04-06T08:20:29.000Z</time>
      </trkpt>
      <trkpt lat="47.50902" lon="6.89659">
        <ele>405</ele>
        <time>2015-04-06T08:20:30.000Z</time>
      </trkpt>
      <trkpt lat="47.50897" lon="6.89659">
        <ele>405</ele>
        <time>2015-04-06T08:20:31.000Z</time>
      </trkpt>
      <trkpt lat="47.50893" lon="6.89659">
        <ele>405</ele>
        <time>2015-04-06T08:20:32.000Z</time>
      </trkpt>
      <trkpt lat="47.5089" lon="6.8966">
        <ele>405</ele>
        <time>2015-04-06T08:20:33.000Z</time>
      </trkpt>
      <trkpt lat="47.50887" lon="6.89658">
        <ele>404</ele>
        <time>2015-04-06T08:20:34.000Z</time>
      </trkpt>
      <trkpt lat="47.50882" lon="6.89657">
        <ele>404</ele>
        <time>2015-04-06T08:20:35.000Z</time>
      </trkpt>
      <trkpt lat="47.50876" lon="6.89656">
        <ele>404</ele>
        <time>2015-04-06T08:20:36.000Z</time>
      </trkpt>
      <trkpt lat="47.5087" lon="6.89656">
        <ele>404</ele>
        <time>2015-04-06T08:20:37.000Z</time>
      </trkpt>
      <trkpt lat="47.50868" lon="6.89656">
        <ele>404</ele>
        <time>2015-04-06T08:20:38.000Z</time>
      </trkpt>
      <trkpt lat="47.50866" lon="6.89655">
        <ele>404</ele>
        <time>2015-04-06T08:20:39.000Z</time>
      </trkpt>
      <trkpt lat="47.50862" lon="6.89655">
        <ele>404</ele>
        <time>2015-04-06T08:20:44.000Z</time>
      </trkpt>
      <trkpt lat="47.5086" lon="6.89656">
        <ele>404</ele>
        <time>2015-04-06T08:20:45.000Z</time>
      </trkpt>
      <trkpt lat="47.50858" lon="6.89656">
        <ele>404</ele>
        <time>2015-04-06T08:20:46.000Z</time>
      </trkpt>
      <trkpt lat="47.50855" lon="6.89657">
        <ele>404</ele>
        <time>2015-04-06T08:20:47.000Z</time>
      </trkpt>
      <trkpt lat="47.50852" lon="6.89658">
        <ele>404</ele>
        <time>2015-04-06T08:20:48.000Z</time>
      </trkpt>
      <trkpt lat="47.50847" lon="6.89659">
        <ele>404</ele>
        <time>2015-04-06T08:20:49.000Z</time>
      </trkpt>
      <trkpt lat="47.50843" lon="6.89659">
        <ele>403</ele>
        <time>2015-04-06T08:20:50.000Z</time>
      </trkpt>
      <trkpt lat="47.50839" lon="6.8966">
        <ele>403</ele>
        <time>2015-04-06T08:20:51.000Z</time>
      </trkpt>
      <trkpt lat="47.50834" lon="6.89661">
        <ele>403</ele>
        <time>2015-04-06T08:20:52.000Z</time>
      </trkpt>
      <trkpt lat="47.5083" lon="6.89662">
        <ele>403</ele>
        <time>2015-04-06T08:20:53.000Z</time>
      </trkpt>
      <trkpt lat="47.50825" lon="6.89663">
        <ele>404</ele>
        <time>2015-04-06T08:20:54.000Z</time>
      </trkpt>
      <trkpt lat="47.50821" lon="6.89664">
        <ele>404</ele>
        <time>2015-04-06T08:20:55.000Z</time>
      </trkpt>
      <trkpt lat="47.50817" lon="6.89664">
        <ele>404</ele>
        <time>2015-04-06T08:20:56.000Z</time>
      </trkpt>
      <trkpt lat="47.50813" lon="6.89664">
        <ele>404</ele>
        <time>2015-04-06T08:20:57.000Z</time>
      </trkpt>
      <trkpt lat="47.50808" lon="6.89664">
        <ele>404</ele>
        <time>2015-04-06T08:20:58.000Z</time>
      </trkpt>
      <trkpt lat="47.50804" lon="6.89663">
        <ele>405</ele>
        <time>2015-04-06T08:20:59.000Z</time>
      </trkpt>
      <trkpt lat="47.50799" lon="6.89663">
        <ele>405</ele>
        <time>2015-04-06T08:21:00.000Z</time>
      </trkpt>
      <trkpt lat="47.50795" lon="6.89663">
        <ele>405</ele>
        <time>2015-04-06T08:21:01.000Z</time>
      </trkpt>
      <trkpt lat="47.5079" lon="6.89663">
        <ele>405</ele>
        <time>2015-04-06T08:21:02.000Z</time>
      </trkpt>
      <trkpt lat="47.50785" lon="6.89663">
        <ele>405</ele>
        <time>2015-04-06T08:21:03.000Z</time>
      </trkpt>
      <trkpt lat="47.5078" lon="6.89664">
        <ele>405</ele>
        <time>2015-04-06T08:21:04.000Z</time>
      </trkpt>
      <trkpt lat="47.50775" lon="6.89665">
        <ele>405</ele>
        <time>2015-04-06T08:21:05.000Z</time>
      </trkpt>
      <trkpt lat="47.5077" lon="6.89666">
        <ele>406</ele>
        <time>2015-04-06T08:21:06.000Z</time>
      </trkpt>
      <trkpt lat="47.50757" lon="6.89666">
        <ele>406</ele>
        <time>2015-04-06T08:21:07.000Z</time>
      </trkpt>
      <trkpt lat="47.50751" lon="6.89666">
        <ele>406</ele>
        <time>2015-04-06T08:21:08.000Z</time>
      </trkpt>
      <trkpt lat="47.50749" lon="6.89665">
        <ele>406</ele>
        <time>2015-04-06T08:21:09.000Z</time>
      </trkpt>
      <trkpt lat="47.50745" lon="6.89665">
        <ele>406</ele>
        <time>2015-04-06T08:21:10.000Z</time>
      </trkpt>
      <trkpt lat="47.50741" lon="6.89665">
        <ele>406</ele>
        <time>2015-04-06T08:21:11.000Z</time>
      </trkpt>
      <trkpt lat="47.50737" lon="6.89668">
        <ele>406</ele>
        <time>2015-04-06T08:21:12.000Z</time>
      </trkpt>
      <trkpt lat="47.50734" lon="6.89666">
        <ele>406</ele>
        <time>2015-04-06T08:21:13.000Z</time>
      </trkpt>
      <trkpt lat="47.5073" lon="6.89664">
        <ele>407</ele>
        <time>2015-04-06T08:21:14.000Z</time>
      </trkpt>
      <trkpt lat="47.50726" lon="6.89663">
        <ele>407</ele>
        <time>2015-04-06T08:21:15.000Z</time>
      </trkpt>
      <trkpt lat="47.50723" lon="6.89662">
        <ele>407</ele>
        <time>2015-04-06T08:21:16.000Z</time>
      </trkpt>
      <trkpt lat="47.5072" lon="6.89661">
        <ele>407</ele>
        <time>2015-04-06T08:21:17.000Z</time>
      </trkpt>
      <trkpt lat="47.50717" lon="6.89662">
        <ele>407</ele>
        <time>2015-04-06T08:21:18.000Z</time>
      </trkpt>
      <trkpt lat="47.50714" lon="6.89662">
        <ele>407</ele>
        <time>2015-04-06T08:21:19.000Z</time>
      </trkpt>
      <trkpt lat="47.50712" lon="6.89663">
        <ele>407</ele>
        <time>2015-04-06T08:21:20.000Z</time>
      </trkpt>
      <trkpt lat="47.50708" lon="6.89665">
        <ele>407</ele>
        <time>2015-04-06T08:21:21.000Z</time>
      </trkpt>
      <trkpt lat="47.50704" lon="6.89667">
        <ele>407</ele>
        <time>2015-04-06T08:21:22.000Z</time>
      </trkpt>
      <trkpt lat="47.50699" lon="6.89666">
        <ele>407</ele>
        <time>2015-04-06T08:21:23.000Z</time>
      </trkpt>
      <trkpt lat="47.50692" lon="6.89666">
        <ele>407</ele>
        <time>2015-04-06T08:21:24.000Z</time>
      </trkpt>
      <trkpt lat="47.50686" lon="6.89665">
        <ele>407</ele>
        <time>2015-04-06T08:21:25.000Z</time>
      </trkpt>
      <trkpt lat="47.50681" lon="6.89664">
        <ele>407</ele>
        <time>2015-04-06T08:21:26.000Z</time>
      </trkpt>
      <trkpt lat="47.50676" lon="6.89663">
        <ele>407</ele>
        <time>2015-04-06T08:21:27.000Z</time>
      </trkpt>
      <trkpt lat="47.50672" lon="6.89662">
        <ele>407</ele>
        <time>2015-04-06T08:21:28.000Z</time>
      </trkpt>
      <trkpt lat="47.50667" lon="6.89662">
        <ele>407</ele>
        <time>2015-04-06T08:21:29.000Z</time>
      </trkpt>
      <trkpt lat="47.50662" lon="6.89662">
        <ele>407</ele>
        <time>2015-04-06T08:21:30.000Z</time>
      </trkpt>
      <trkpt lat="47.50657" lon="6.89661">
        <ele>407</ele>
        <time>2015-04-06T08:21:31.000Z</time>
      </trkpt>
      <trkpt lat="47.50653" lon="6.89659">
        <ele>407</ele>
        <time>2015-04-06T08:21:32.000Z</time>
      </trkpt>
      <trkpt lat="47.50649" lon="6.89658">
        <ele>407</ele>
        <time>2015-04-06T08:21:32.999Z</time>
      </trkpt>
      <trkpt lat="47.50644" lon="6.89655">
        <ele>406</ele>
        <time>2015-04-06T08:21:34.000Z</time>
      </trkpt>
      <trkpt lat="47.5064" lon="6.89653">
        <ele>406</ele>
        <time>2015-04-06T08:21:35.000Z</time>
      </trkpt>
      <trkpt lat="47.50636" lon="6.89652">
        <ele>406</ele>
        <time>2015-04-06T08:21:36.000Z</time>
      </trkpt>
      <trkpt lat="47.50633" lon="6.89652">
        <ele>406</ele>
        <time>2015-04-06T08:21:36.999Z</time>
      </trkpt>
      <trkpt lat="47.50628" lon="6.89653">
        <ele>406</ele>
        <time>2015-04-06T08:21:38.000Z</time>
      </trkpt>
      <trkpt lat="47.50624" lon="6.89654">
        <ele>406</ele>
        <time>2015-04-06T08:21:39.000Z</time>
      </trkpt>
      <trkpt lat="47.5062" lon="6.89655">
        <ele>406</ele>
        <time>2015-04-06T08:21:40.000Z</time>
      </trkpt>
      <trkpt lat="47.50615" lon="6.89656">
        <ele>406</ele>
        <time>2015-04-06T08:21:41.000Z</time>
      </trkpt>
      <trkpt lat="47.50611" lon="6.89657">
        <ele>406</ele>
        <time>2015-04-06T08:21:42.000Z</time>
      </trkpt>
      <trkpt lat="47.50606" lon="6.89657">
        <ele>406</ele>
        <time>2015-04-06T08:21:43.000Z</time>
      </trkpt>
      <trkpt lat="47.506" lon="6.89657">
        <ele>406</ele>
        <time>2015-04-06T08:21:44.000Z</time>
      </trkpt>
      <trkpt lat="47.50595" lon="6.89658">
        <ele>406</ele>
        <time>2015-04-06T08:21:45.000Z</time>
      </trkpt>
      <trkpt lat="47.50581" lon="6.89661">
        <ele>405</ele>
        <time>2015-04-06T08:21:46.000Z</time>
      </trkpt>
      <trkpt lat="47.50576" lon="6.89658">
        <ele>405</ele>
        <time>2015-04-06T08:21:47.000Z</time>
      </trkpt>
      <trkpt lat="47.50571" lon="6.89658">
        <ele>405</ele>
        <time>2015-04-06T08:21:48.000Z</time>
      </trkpt>
      <trkpt lat="47.50565" lon="6.89658">
        <ele>405</ele>
        <time>2015-04-06T08:21:49.000Z</time>
      </trkpt>
      <trkpt lat="47.50561" lon="6.89655">
        <ele>405</ele>
        <time>2015-04-06T08:21:50.000Z</time>
      </trkpt>
      <trkpt lat="47.50555" lon="6.89654">
        <ele>405</ele>
        <time>2015-04-06T08:21:51.000Z</time>
      </trkpt>
      <trkpt lat="47.50551" lon="6.89653">
        <ele>405</ele>
        <time>2015-04-06T08:21:52.000Z</time>
      </trkpt>
      <trkpt lat="47.50545" lon="6.89654">
        <ele>405</ele>
        <time>2015-04-06T08:21:53.000Z</time>
      </trkpt>
      <trkpt lat="47.50541" lon="6.89654">
        <ele>405</ele>
        <time>2015-04-06T08:21:54.000Z</time>
      </trkpt>
      <trkpt lat="47.50535" lon="6.89655">
        <ele>405</ele>
        <time>2015-04-06T08:21:55.000Z</time>
      </trkpt>
      <trkpt lat="47.50531" lon="6.89655">
        <ele>405</ele>
        <time>2015-04-06T08:21:56.000Z</time>
      </trkpt>
      <trkpt lat="47.50526" lon="6.89655">
        <ele>405</ele>
        <time>2015-04-06T08:21:57.000Z</time>
      </trkpt>
      <trkpt lat="47.50521" lon="6.89653">
        <ele>404</ele>
        <time>2015-04-06T08:21:58.000Z</time>
      </trkpt>
      <trkpt lat="47.50515" lon="6.89653">
        <ele>404</ele>
        <time>2015-04-06T08:21:59.000Z</time>
      </trkpt>
      <trkpt lat="47.50511" lon="6.89653">
        <ele>404</ele>
        <time>2015-04-06T08:22:00.000Z</time>
      </trkpt>
      <trkpt lat="47.50507" lon="6.89653">
        <ele>404</ele>
        <time>2015-04-06T08:22:01.000Z</time>
      </trkpt>
      <trkpt lat="47.50503" lon="6.89653">
        <ele>404</ele>
        <time>2015-04-06T08:22:02.000Z</time>
      </trkpt>
      <trkpt lat="47.50499" lon="6.89654">
        <ele>404</ele>
        <time>2015-04-06T08:22:03.000Z</time>
      </trkpt>
      <trkpt lat="47.50495" lon="6.89654">
        <ele>403</ele>
        <time>2015-04-06T08:22:04.000Z</time>
      </trkpt>
      <trkpt lat="47.50491" lon="6.89655">
        <ele>403</ele>
        <time>2015-04-06T08:22:05.000Z</time>
      </trkpt>
      <trkpt lat="47.50487" lon="6.89655">
        <ele>403</ele>
        <time>2015-04-06T08:22:06.000Z</time>
      </trkpt>
      <trkpt lat="47.50483" lon="6.89655">
        <ele>403</ele>
        <time>2015-04-06T08:22:07.000Z</time>
      </trkpt>
      <trkpt lat="47.50479" lon="6.89655">
        <ele>403</ele>
        <time>2015-04-06T08:22:08.000Z</time>
      </trkpt>
      <trkpt lat="47.50474" lon="6.89656">
        <ele>403</ele>
        <time>2015-04-06T08:22:09.000Z</time>
      </trkpt>
      <trkpt lat="47.5047" lon="6.89657">
        <ele>403</ele>
        <time>2015-04-06T08:22:10.000Z</time>
      </trkpt>
      <trkpt lat="47.50465" lon="6.89658">
        <ele>403</ele>
        <time>2015-04-06T08:22:11.000Z</time>
      </trkpt>
      <trkpt lat="47.50459" lon="6.89659">
        <ele>403</ele>
        <time>2015-04-06T08:22:12.000Z</time>
      </trkpt>
      <trkpt lat="47.50454" lon="6.89658">
        <ele>403</ele>
        <time>2015-04-06T08:22:13.000Z</time>
      </trkpt>
      <trkpt lat="47.50448" lon="6.89658">
        <ele>402</ele>
        <time>2015-04-06T08:22:14.000Z</time>
      </trkpt>
      <trkpt lat="47.50443" lon="6.89658">
        <ele>402</ele>
        <time>2015-04-06T08:22:15.000Z</time>
      </trkpt>
      <trkpt lat="47.50438" lon="6.89659">
        <ele>402</ele>
        <time>2015-04-06T08:22:16.000Z</time>
      </trkpt>
      <trkpt lat="47.50433" lon="6.8966">
        <ele>402</ele>
        <time>2015-04-06T08:22:17.000Z</time>
      </trkpt>
      <trkpt lat="47.50428" lon="6.8966">
        <ele>402</ele>
        <time>2015-04-06T08:22:18.000Z</time>
      </trkpt>
      <trkpt lat="47.50423" lon="6.8966">
        <ele>402</ele>
        <time>2015-04-06T08:22:19.000Z</time>
      </trkpt>
      <trkpt lat="47.50418" lon="6.89661">
        <ele>401</ele>
        <time>2015-04-06T08:22:20.000Z</time>
      </trkpt>
      <trkpt lat="47.50413" lon="6.89661">
        <ele>401</ele>
        <time>2015-04-06T08:22:21.000Z</time>
      </trkpt>
      <trkpt lat="47.50407" lon="6.89661">
        <ele>400</ele>
        <time>2015-04-06T08:22:22.000Z</time>
      </trkpt>
      <trkpt lat="47.50402" lon="6.8966">
        <ele>400</ele>
        <time>2015-04-06T08:22:23.000Z</time>
      </trkpt>
      <trkpt lat="47.50397" lon="6.8966">
        <ele>400</ele>
        <time>2015-04-06T08:22:24.000Z</time>
      </trkpt>
      <trkpt lat="47.50393" lon="6.89659">
        <ele>400</ele>
        <time>2015-04-06T08:22:25.000Z</time>
      </trkpt>
      <trkpt lat="47.50389" lon="6.89659">
        <ele>400</ele>
        <time>2015-04-06T08:22:26.000Z</time>
      </trkpt>
      <trkpt lat="47.50385" lon="6.89656">
        <ele>399</ele>
        <time>2015-04-06T08:22:41.000Z</time>
      </trkpt>
      <trkpt lat="47.50385" lon="6.89656">
        <ele>399</ele>
        <time>2015-04-06T08:22:42.000Z</time>
      </trkpt>
      <trkpt lat="47.50381" lon="6.89656">
        <ele>399</ele>
        <time>2015-04-06T08:22:50.000Z</time>
      </trkpt>
      <trkpt lat="47.50378" lon="6.89656">
        <ele>399</ele>
        <time>2015-04-06T08:22:51.000Z</time>
      </trkpt>
      <trkpt lat="47.50376" lon="6.89657">
        <ele>399</ele>
        <time>2015-04-06T08:22:52.000Z</time>
      </trkpt>
      <trkpt lat="47.50374" lon="6.89657">
        <ele>399</ele>
        <time>2015-04-06T08:22:53.000Z</time>
      </trkpt>
      <trkpt lat="47.5037" lon="6.89658">
        <ele>399</ele>
        <time>2015-04-06T08:22:55.000Z</time>
      </trkpt>
      <trkpt lat="47.50368" lon="6.89658">
        <ele>399</ele>
        <time>2015-04-06T08:22:56.000Z</time>
      </trkpt>
      <trkpt lat="47.50366" lon="6.89658">
        <ele>399</ele>
        <time>2015-04-06T08:22:57.000Z</time>
      </trkpt>
      <trkpt lat="47.50363" lon="6.89657">
        <ele>399</ele>
        <time>2015-04-06T08:22:58.000Z</time>
      </trkpt>
      <trkpt lat="47.5036" lon="6.89657">
        <ele>399</ele>
        <time>2015-04-06T08:22:59.000Z</time>
      </trkpt>
      <trkpt lat="47.50357" lon="6.89655">
        <ele>399</ele>
        <time>2015-04-06T08:23:00.000Z</time>
      </trkpt>
      <trkpt lat="47.50354" lon="6.89655">
        <ele>398</ele>
        <time>2015-04-06T08:23:01.000Z</time>
      </trkpt>
      <trkpt lat="47.50351" lon="6.89655">
        <ele>398</ele>
        <time>2015-04-06T08:23:02.000Z</time>
      </trkpt>
      <trkpt lat="47.50348" lon="6.89656">
        <ele>398</ele>
        <time>2015-04-06T08:23:03.000Z</time>
      </trkpt>
      <trkpt lat="47.50344" lon="6.89656">
        <ele>398</ele>
        <time>2015-04-06T08:23:04.000Z</time>
      </trkpt>
      <trkpt lat="47.50341" lon="6.89657">
        <ele>398</ele>
        <time>2015-04-06T08:23:05.000Z</time>
      </trkpt>
      <trkpt lat="47.50338" lon="6.89657">
        <ele>398</ele>
        <time>2015-04-06T08:23:06.000Z</time>
      </trkpt>
      <trkpt lat="47.50335" lon="6.89658">
        <ele>398</ele>
        <time>2015-04-06T08:23:07.000Z</time>
      </trkpt>
      <trkpt lat="47.50331" lon="6.89658">
        <ele>397</ele>
        <time>2015-04-06T08:23:08.000Z</time>
      </trkpt>
      <trkpt lat="47.50327" lon="6.89659">
        <ele>397</ele>
        <time>2015-04-06T08:23:09.000Z</time>
      </trkpt>
      <trkpt lat="47.50323" lon="6.89659">
        <ele>397</ele>
        <time>2015-04-06T08:23:10.000Z</time>
      </trkpt>
      <trkpt lat="47.50319" lon="6.89659">
        <ele>397</ele>
        <time>2015-04-06T08:23:11.000Z</time>
      </trkpt>
      <trkpt lat="47.50316" lon="6.89659">
        <ele>397</ele>
        <time>2015-04-06T08:23:12.000Z</time>
      </trkpt>
      <trkpt lat="47.50312" lon="6.89659">
        <ele>397</ele>
        <time>2015-04-06T08:23:13.000Z</time>
      </trkpt>
      <trkpt lat="47.50309" lon="6.89659">
        <ele>397</ele>
        <time>2015-04-06T08:23:14.000Z</time>
      </trkpt>
      <trkpt lat="47.50306" lon="6.8966">
        <ele>397</ele>
        <time>2015-04-06T08:23:15.000Z</time>
      </trkpt>
      <trkpt lat="47.50304" lon="6.89659">
        <ele>397</ele>
        <time>2015-04-06T08:23:16.000Z</time>
      </trkpt>
      <trkpt lat="47.50301" lon="6.89658">
        <ele>397</ele>
        <time>2015-04-06T08:23:17.000Z</time>
      </trkpt>
      <trkpt lat="47.50298" lon="6.89658">
        <ele>397</ele>
        <time>2015-04-06T08:23:18.000Z</time>
      </trkpt>
      <trkpt lat="47.50294" lon="6.89657">
        <ele>397</ele>
        <time>2015-04-06T08:23:19.000Z</time>
      </trkpt>
      <trkpt lat="47.50291" lon="6.89657">
        <ele>397</ele>
        <time>2015-04-06T08:23:20.000Z</time>
      </trkpt>
      <trkpt lat="47.50288" lon="6.89658">
        <ele>397</ele>
        <time>2015-04-06T08:23:21.000Z</time>
      </trkpt>
      <trkpt lat="47.50284" lon="6.89659">
        <ele>397</ele>
        <time>2015-04-06T08:23:22.000Z</time>
      </trkpt>
      <trkpt lat="47.5028" lon="6.89659">
        <ele>397</ele>
        <time>2015-04-06T08:23:23.000Z</time>
      </trkpt>
      <trkpt lat="47.50275" lon="6.8966">
        <ele>397</ele>
        <time>2015-04-06T08:23:24.000Z</time>
      </trkpt>
      <trkpt lat="47.50271" lon="6.89661">
        <ele>398</ele>
        <time>2015-04-06T08:23:25.000Z</time>
      </trkpt>
      <trkpt lat="47.50267" lon="6.89662">
        <ele>398</ele>
        <time>2015-04-06T08:23:26.000Z</time>
      </trkpt>
      <trkpt lat="47.50263" lon="6.89663">
        <ele>398</ele>
        <time>2015-04-06T08:23:27.000Z</time>
      </trkpt>
      <trkpt lat="47.5026" lon="6.89663">
        <ele>398</ele>
        <time>2015-04-06T08:23:28.000Z</time>
      </trkpt>
      <trkpt lat="47.50256" lon="6.89664">
        <ele>398</ele>
        <time>2015-04-06T08:23:29.000Z</time>
      </trkpt>
      <trkpt lat="47.50252" lon="6.89665">
        <ele>398</ele>
        <time>2015-04-06T08:23:30.000Z</time>
      </trkpt>
      <trkpt lat="47.50248" lon="6.89665">
        <ele>398</ele>
        <time>2015-04-06T08:23:31.000Z</time>
      </trkpt>
      <trkpt lat="47.50245" lon="6.89665">
        <ele>398</ele>
        <time>2015-04-06T08:23:32.000Z</time>
      </trkpt>
      <trkpt lat="47.50242" lon="6.89665">
        <ele>399</ele>
        <time>2015-04-06T08:23:33.000Z</time>
      </trkpt>
      <trkpt lat="47.50239" lon="6.89665">
        <ele>399</ele>
        <time>2015-04-06T08:23:34.000Z</time>
      </trkpt>
      <trkpt lat="47.50236" lon="6.89665">
        <ele>399</ele>
        <time>2015-04-06T08:23:35.000Z</time>
      </trkpt>
      <trkpt lat="47.50234" lon="6.89665">
        <ele>399</ele>
        <time>2015-04-06T08:23:36.000Z</time>
      </trkpt>
      <trkpt lat="47.50231" lon="6.89665">
        <ele>399</ele>
        <time>2015-04-06T08:23:37.000Z</time>
      </trkpt>
      <trkpt lat="47.50228" lon="6.89664">
        <ele>399</ele>
        <time>2015-04-06T08:23:38.000Z</time>
      </trkpt>
      <trkpt lat="47.50226" lon="6.89665">
        <ele>399</ele>
        <time>2015-04-06T08:23:39.000Z</time>
      </trkpt>
      <trkpt lat="47.50223" lon="6.89665">
        <ele>400</ele>
        <time>2015-04-06T08:23:40.000Z</time>
      </trkpt>
      <trkpt lat="47.5022" lon="6.89666">
        <ele>400</ele>
        <time>2015-04-06T08:23:41.000Z</time>
      </trkpt>
      <trkpt lat="47.50217" lon="6.89668">
        <ele>403</ele>
        <time>2015-04-06T08:23:42.000Z</time>
      </trkpt>
      <trkpt lat="47.50215" lon="6.89669">
        <ele>403</ele>
        <time>2015-04-06T08:23:43.000Z</time>
      </trkpt>
      <trkpt lat="47.50212" lon="6.8967">
        <ele>403</ele>
        <time>2015-04-06T08:23:44.000Z</time>
      </trkpt>
      <trkpt lat="47.50209" lon="6.89671">
        <ele>403</ele>
        <time>2015-04-06T08:23:45.000Z</time>
      </trkpt>
      <trkpt lat="47.50206" lon="6.89671">
        <ele>404</ele>
        <time>2015-04-06T08:23:46.000Z</time>
      </trkpt>
      <trkpt lat="47.50203" lon="6.89672">
        <ele>404</ele>
        <time>2015-04-06T08:23:47.000Z</time>
      </trkpt>
      <trkpt lat="47.502" lon="6.89673">
        <ele>404</ele>
        <time>2015-04-06T08:23:48.000Z</time>
      </trkpt>
      <trkpt lat="47.50197" lon="6.89673">
        <ele>404</ele>
        <time>2015-04-06T08:23:49.000Z</time>
      </trkpt>
      <trkpt lat="47.50194" lon="6.89674">
        <ele>404</ele>
        <time>2015-04-06T08:23:50.000Z</time>
      </trkpt>
      <trkpt lat="47.50192" lon="6.89674">
        <ele>404</ele>
        <time>2015-04-06T08:23:51.000Z</time>
      </trkpt>
      <trkpt lat="47.50189" lon="6.89674">
        <ele>404</ele>
        <time>2015-04-06T08:23:52.000Z</time>
      </trkpt>
      <trkpt lat="47.50186" lon="6.89674">
        <ele>404</ele>
        <time>2015-04-06T08:23:53.000Z</time>
      </trkpt>
      <trkpt lat="47.50183" lon="6.89674">
        <ele>404</ele>
        <time>2015-04-06T08:23:54.000Z</time>
      </trkpt>
      <trkpt lat="47.50179" lon="6.89674">
        <ele>404</ele>
        <time>2015-04-06T08:23:55.000Z</time>
      </trkpt>
      <trkpt lat="47.50176" lon="6.89674">
        <ele>404</ele>
        <time>2015-04-06T08:23:56.000Z</time>
      </trkpt>
      <trkpt lat="47.50172" lon="6.89674">
        <ele>404</ele>
        <time>2015-04-06T08:23:57.000Z</time>
      </trkpt>
      <trkpt lat="47.50169" lon="6.89673">
        <ele>404</ele>
        <time>2015-04-06T08:23:58.000Z</time>
      </trkpt>
      <trkpt lat="47.50165" lon="6.89673">
        <ele>405</ele>
        <time>2015-04-06T08:23:59.000Z</time>
      </trkpt>
      <trkpt lat="47.50162" lon="6.89673">
        <ele>406</ele>
        <time>2015-04-06T08:24:00.000Z</time>
      </trkpt>
      <trkpt lat="47.50158" lon="6.89673">
        <ele>406</ele>
        <time>2015-04-06T08:24:01.000Z</time>
      </trkpt>
      <trkpt lat="47.50156" lon="6.89673">
        <ele>406</ele>
        <time>2015-04-06T08:24:02.001Z</time>
      </trkpt>
      <trkpt lat="47.50151" lon="6.89673">
        <ele>407</ele>
        <time>2015-04-06T08:24:03.000Z</time>
      </trkpt>
      <trkpt lat="47.50148" lon="6.89673">
        <ele>407</ele>
        <time>2015-04-06T08:24:04.000Z</time>
      </trkpt>
      <trkpt lat="47.50144" lon="6.89674">
        <ele>407</ele>
        <time>2015-04-06T08:24:05.000Z</time>
      </trkpt>
      <trkpt lat="47.50141" lon="6.89674">
        <ele>408</ele>
        <time>2015-04-06T08:24:06.000Z</time>
      </trkpt>
      <trkpt lat="47.50137" lon="6.89675">
        <ele>408</ele>
        <time>2015-04-06T08:24:07.000Z</time>
      </trkpt>
      <trkpt lat="47.50133" lon="6.89675">
        <ele>408</ele>
        <time>2015-04-06T08:24:08.000Z</time>
      </trkpt>
      <trkpt lat="47.50129" lon="6.89676">
        <ele>408</ele>
        <time>2015-04-06T08:24:09.000Z</time>
      </trkpt>
      <trkpt lat="47.50126" lon="6.89676">
        <ele>409</ele>
        <time>2015-04-06T08:24:10.000Z</time>
      </trkpt>
      <trkpt lat="47.50123" lon="6.89676">
        <ele>409</ele>
        <time>2015-04-06T08:24:11.000Z</time>
      </trkpt>
      <trkpt lat="47.5012" lon="6.89676">
        <ele>409</ele>
        <time>2015-04-06T08:24:12.000Z</time>
      </trkpt>
      <trkpt lat="47.50117" lon="6.89675">
        <ele>409</ele>
        <time>2015-04-06T08:24:13.000Z</time>
      </trkpt>
      <trkpt lat="47.50114" lon="6.89675">
        <ele>409</ele>
        <time>2015-04-06T08:24:14.000Z</time>
      </trkpt>
      <trkpt lat="47.50111" lon="6.89675">
        <ele>409</ele>
        <time>2015-04-06T08:24:15.000Z</time>
      </trkpt>
      <trkpt lat="47.50108" lon="6.89675">
        <ele>409</ele>
        <time>2015-04-06T08:24:16.000Z</time>
      </trkpt>
      <trkpt lat="47.50105" lon="6.89675">
        <ele>409</ele>
        <time>2015-04-06T08:24:17.000Z</time>
      </trkpt>
      <trkpt lat="47.501" lon="6.89676">
        <ele>410</ele>
        <time>2015-04-06T08:24:18.000Z</time>
      </trkpt>
      <trkpt lat="47.50097" lon="6.89676">
        <ele>410</ele>
        <time>2015-04-06T08:24:19.000Z</time>
      </trkpt>
      <trkpt lat="47.50093" lon="6.89675">
        <ele>410</ele>
        <time>2015-04-06T08:24:20.000Z</time>
      </trkpt>
      <trkpt lat="47.5009" lon="6.89675">
        <ele>410</ele>
        <time>2015-04-06T08:24:21.000Z</time>
      </trkpt>
      <trkpt lat="47.50086" lon="6.89675">
        <ele>410</ele>
        <time>2015-04-06T08:24:22.000Z</time>
      </trkpt>
      <trkpt lat="47.50083" lon="6.89674">
        <ele>410</ele>
        <time>2015-04-06T08:24:23.000Z</time>
      </trkpt>
      <trkpt lat="47.5008" lon="6.89674">
        <ele>410</ele>
        <time>2015-04-06T08:24:24.000Z</time>
      </trkpt>
      <trkpt lat="47.50077" lon="6.89673">
        <ele>410</ele>
        <time>2015-04-06T08:24:25.000Z</time>
      </trkpt>
      <trkpt lat="47.50074" lon="6.89674">
        <ele>411</ele>
        <time>2015-04-06T08:24:25.999Z</time>
      </trkpt>
      <trkpt lat="47.50071" lon="6.89673">
        <ele>411</ele>
        <time>2015-04-06T08:24:27.000Z</time>
      </trkpt>
      <trkpt lat="47.50069" lon="6.89673">
        <ele>411</ele>
        <time>2015-04-06T08:24:28.000Z</time>
      </trkpt>
      <trkpt lat="47.50066" lon="6.89671">
        <ele>411</ele>
        <time>2015-04-06T08:24:30.000Z</time>
      </trkpt>
      <trkpt lat="47.50065" lon="6.89669">
        <ele>411</ele>
        <time>2015-04-06T08:24:31.000Z</time>
      </trkpt>
      <trkpt lat="47.50062" lon="6.89664">
        <ele>410</ele>
        <time>2015-04-06T08:24:34.000Z</time>
      </trkpt>
      <trkpt lat="47.5006" lon="6.89664">
        <ele>410</ele>
        <time>2015-04-06T08:24:35.000Z</time>
      </trkpt>
      <trkpt lat="47.50056" lon="6.89666">
        <ele>410</ele>
        <time>2015-04-06T08:24:37.000Z</time>
      </trkpt>
      <trkpt lat="47.50054" lon="6.89666">
        <ele>410</ele>
        <time>2015-04-06T08:24:38.000Z</time>
      </trkpt>
      <trkpt lat="47.50051" lon="6.89666">
        <ele>410</ele>
        <time>2015-04-06T08:24:40.000Z</time>
      </trkpt>
      <trkpt lat="47.50049" lon="6.89666">
        <ele>410</ele>
        <time>2015-04-06T08:24:41.000Z</time>
      </trkpt>
      <trkpt lat="47.50045" lon="6.89667">
        <ele>411</ele>
        <time>2015-04-06T08:24:44.000Z</time>
      </trkpt>
      <trkpt lat="47.50044" lon="6.89667">
        <ele>411</ele>
        <time>2015-04-06T08:24:45.000Z</time>
      </trkpt>
      <trkpt lat="47.50041" lon="6.89667">
        <ele>410</ele>
        <time>2015-04-06T08:24:48.000Z</time>
      </trkpt>
      <trkpt lat="47.50039" lon="6.89666">
        <ele>410</ele>
        <time>2015-04-06T08:24:49.000Z</time>
      </trkpt>
      <trkpt lat="47.50035" lon="6.89666">
        <ele>410</ele>
        <time>2015-04-06T08:24:52.000Z</time>
      </trkpt>
      <trkpt lat="47.50034" lon="6.89666">
        <ele>410</ele>
        <time>2015-04-06T08:24:53.000Z</time>
      </trkpt>
      <trkpt lat="47.5003" lon="6.89669">
        <ele>411</ele>
        <time>2015-04-06T08:24:59.000Z</time>
      </trkpt>
      <trkpt lat="47.50029" lon="6.8967">
        <ele>411</ele>
        <time>2015-04-06T08:25:00.000Z</time>
      </trkpt>
      <trkpt lat="47.50026" lon="6.89671">
        <ele>411</ele>
        <time>2015-04-06T08:25:02.000Z</time>
      </trkpt>
      <trkpt lat="47.50024" lon="6.89672">
        <ele>411</ele>
        <time>2015-04-06T08:25:03.000Z</time>
      </trkpt>
      <trkpt lat="47.50022" lon="6.8967">
        <ele>411</ele>
        <time>2015-04-06T08:25:04.000Z</time>
      </trkpt>
      <trkpt lat="47.50019" lon="6.89669">
        <ele>411</ele>
        <time>2015-04-06T08:25:05.000Z</time>
      </trkpt>
      <trkpt lat="47.50017" lon="6.89667">
        <ele>411</ele>
        <time>2015-04-06T08:25:06.000Z</time>
      </trkpt>
      <trkpt lat="47.50014" lon="6.89666">
        <ele>410</ele>
        <time>2015-04-06T08:25:07.000Z</time>
      </trkpt>
      <trkpt lat="47.50011" lon="6.89664">
        <ele>411</ele>
        <time>2015-04-06T08:25:08.000Z</time>
      </trkpt>
      <trkpt lat="47.50003" lon="6.89666">
        <ele>411</ele>
        <time>2015-04-06T08:25:09.000Z</time>
      </trkpt>
      <trkpt lat="47.50001" lon="6.89668">
        <ele>411</ele>
        <time>2015-04-06T08:25:10.000Z</time>
      </trkpt>
      <trkpt lat="47.49998" lon="6.89669">
        <ele>411</ele>
        <time>2015-04-06T08:25:11.000Z</time>
      </trkpt>
      <trkpt lat="47.49995" lon="6.89673">
        <ele>411</ele>
        <time>2015-04-06T08:25:12.000Z</time>
      </trkpt>
      <trkpt lat="47.4999" lon="6.89676">
        <ele>411</ele>
        <time>2015-04-06T08:25:13.000Z</time>
      </trkpt>
      <trkpt lat="47.49986" lon="6.8968">
        <ele>411</ele>
        <time>2015-04-06T08:25:14.000Z</time>
      </trkpt>
      <trkpt lat="47.49983" lon="6.8968">
        <ele>411</ele>
        <time>2015-04-06T08:25:15.000Z</time>
      </trkpt>
      <trkpt lat="47.4998" lon="6.89683">
        <ele>411</ele>
        <time>2015-04-06T08:25:16.000Z</time>
      </trkpt>
      <trkpt lat="47.49977" lon="6.89684">
        <ele>411</ele>
        <time>2015-04-06T08:25:17.000Z</time>
      </trkpt>
      <trkpt lat="47.49974" lon="6.89687">
        <ele>411</ele>
        <time>2015-04-06T08:25:18.000Z</time>
      </trkpt>
      <trkpt lat="47.4997" lon="6.89689">
        <ele>411</ele>
        <time>2015-04-06T08:25:19.000Z</time>
      </trkpt>
      <trkpt lat="47.49967" lon="6.89691">
        <ele>411</ele>
        <time>2015-04-06T08:25:20.000Z</time>
      </trkpt>
      <trkpt lat="47.49963" lon="6.89691">
        <ele>411</ele>
        <time>2015-04-06T08:25:21.000Z</time>
      </trkpt>
      <trkpt lat="47.4996" lon="6.89691">
        <ele>411</ele>
        <time>2015-04-06T08:25:22.000Z</time>
      </trkpt>
      <trkpt lat="47.49957" lon="6.89692">
        <ele>411</ele>
        <time>2015-04-06T08:25:23.000Z</time>
      </trkpt>
      <trkpt lat="47.49954" lon="6.89693">
        <ele>411</ele>
        <time>2015-04-06T08:25:24.000Z</time>
      </trkpt>
      <trkpt lat="47.4995" lon="6.89694">
        <ele>411</ele>
        <time>2015-04-06T08:25:25.000Z</time>
      </trkpt>
      <trkpt lat="47.49947" lon="6.89695">
        <ele>411</ele>
        <time>2015-04-06T08:25:26.000Z</time>
      </trkpt>
      <trkpt lat="47.49944" lon="6.89697">
        <ele>411</ele>
        <time>2015-04-06T08:25:27.000Z</time>
      </trkpt>
      <trkpt lat="47.4994" lon="6.89697">
        <ele>411</ele>
        <time>2015-04-06T08:25:28.000Z</time>
      </trkpt>
      <trkpt lat="47.49937" lon="6.89698">
        <ele>411</ele>
        <time>2015-04-06T08:25:29.000Z</time>
      </trkpt>
      <trkpt lat="47.49934" lon="6.89699">
        <ele>411</ele>
        <time>2015-04-06T08:25:30.000Z</time>
      </trkpt>
      <trkpt lat="47.4993" lon="6.897">
        <ele>411</ele>
        <time>2015-04-06T08:25:31.000Z</time>
      </trkpt>
      <trkpt lat="47.49927" lon="6.89701">
        <ele>411</ele>
        <time>2015-04-06T08:25:32.000Z</time>
      </trkpt>
      <trkpt lat="47.49924" lon="6.89701">
        <ele>411</ele>
        <time>2015-04-06T08:25:33.000Z</time>
      </trkpt>
      <trkpt lat="47.49921" lon="6.89702">
        <ele>411</ele>
        <time>2015-04-06T08:25:34.000Z</time>
      </trkpt>
      <trkpt lat="47.49918" lon="6.89702">
        <ele>411</ele>
        <time>2015-04-06T08:25:35.000Z</time>
      </trkpt>
      <trkpt lat="47.49914" lon="6.89703">
        <ele>411</ele>
        <time>2015-04-06T08:25:36.000Z</time>
      </trkpt>
      <trkpt lat="47.49911" lon="6.89704">
        <ele>411</ele>
        <time>2015-04-06T08:25:37.000Z</time>
      </trkpt>
      <trkpt lat="47.49908" lon="6.89705">
        <ele>411</ele>
        <time>2015-04-06T08:25:38.000Z</time>
      </trkpt>
      <trkpt lat="47.49906" lon="6.89706">
        <ele>411</ele>
        <time>2015-04-06T08:25:38.999Z</time>
      </trkpt>
      <trkpt lat="47.49903" lon="6.89707">
        <ele>411</ele>
        <time>2015-04-06T08:25:40.000Z</time>
      </trkpt>
      <trkpt lat="47.49899" lon="6.89707">
        <ele>411</ele>
        <time>2015-04-06T08:25:42.000Z</time>
      </trkpt>
      <trkpt lat="47.49896" lon="6.89706">
        <ele>411</ele>
        <time>2015-04-06T08:25:42.999Z</time>
      </trkpt>
      <trkpt lat="47.49894" lon="6.89705">
        <ele>411</ele>
        <time>2015-04-06T08:25:44.000Z</time>
      </trkpt>
      <trkpt lat="47.49891" lon="6.89704">
        <ele>411</ele>
        <time>2015-04-06T08:25:45.000Z</time>
      </trkpt>
      <trkpt lat="47.49889" lon="6.89703">
        <ele>411</ele>
        <time>2015-04-06T08:25:46.000Z</time>
      </trkpt>
      <trkpt lat="47.49886" lon="6.89702">
        <ele>411</ele>
        <time>2015-04-06T08:25:47.000Z</time>
      </trkpt>
      <trkpt lat="47.49883" lon="6.89702">
        <ele>411</ele>
        <time>2015-04-06T08:25:48.000Z</time>
      </trkpt>
      <trkpt lat="47.4988" lon="6.89702">
        <ele>411</ele>
        <time>2015-04-06T08:25:49.000Z</time>
      </trkpt>
      <trkpt lat="47.49878" lon="6.89703">
        <ele>411</ele>
        <time>2015-04-06T08:25:50.000Z</time>
      </trkpt>
      <trkpt lat="47.49875" lon="6.89704">
        <ele>411</ele>
        <time>2015-04-06T08:25:51.000Z</time>
      </trkpt>
      <trkpt lat="47.49873" lon="6.89705">
        <ele>411</ele>
        <time>2015-04-06T08:25:52.000Z</time>
      </trkpt>
      <trkpt lat="47.49871" lon="6.89707">
        <ele>411</ele>
        <time>2015-04-06T08:25:53.000Z</time>
      </trkpt>
      <trkpt lat="47.49868" lon="6.89712">
        <ele>411</ele>
        <time>2015-04-06T08:25:55.000Z</time>
      </trkpt>
      <trkpt lat="47.49867" lon="6.89714">
        <ele>411</ele>
        <time>2015-04-06T08:25:56.000Z</time>
      </trkpt>
      <trkpt lat="47.49864" lon="6.89718">
        <ele>411</ele>
        <time>2015-04-06T08:25:58.000Z</time>
      </trkpt>
      <trkpt lat="47.49862" lon="6.89719">
        <ele>411</ele>
        <time>2015-04-06T08:25:59.000Z</time>
      </trkpt>
      <trkpt lat="47.49859" lon="6.89723">
        <ele>411</ele>
        <time>2015-04-06T08:26:01.000Z</time>
      </trkpt>
      <trkpt lat="47.49857" lon="6.89725">
        <ele>411</ele>
        <time>2015-04-06T08:26:02.000Z</time>
      </trkpt>
      <trkpt lat="47.49856" lon="6.89727">
        <ele>411</ele>
        <time>2015-04-06T08:26:03.000Z</time>
      </trkpt>
      <trkpt lat="47.49854" lon="6.8973">
        <ele>411</ele>
        <time>2015-04-06T08:26:04.000Z</time>
      </trkpt>
      <trkpt lat="47.49852" lon="6.89733">
        <ele>411</ele>
        <time>2015-04-06T08:26:05.000Z</time>
      </trkpt>
      <trkpt lat="47.49849" lon="6.89737">
        <ele>411</ele>
        <time>2015-04-06T08:26:06.000Z</time>
      </trkpt>
      <trkpt lat="47.49846" lon="6.8974">
        <ele>411</ele>
        <time>2015-04-06T08:26:07.000Z</time>
      </trkpt>
      <trkpt lat="47.49843" lon="6.89743">
        <ele>411</ele>
        <time>2015-04-06T08:26:08.000Z</time>
      </trkpt>
      <trkpt lat="47.4984" lon="6.89745">
        <ele>411</ele>
        <time>2015-04-06T08:26:09.000Z</time>
      </trkpt>
      <trkpt lat="47.49837" lon="6.89747">
        <ele>411</ele>
        <time>2015-04-06T08:26:10.000Z</time>
      </trkpt>
      <trkpt lat="47.49835" lon="6.89749">
        <ele>411</ele>
        <time>2015-04-06T08:26:11.000Z</time>
      </trkpt>
      <trkpt lat="47.49833" lon="6.8975">
        <ele>411</ele>
        <time>2015-04-06T08:26:12.000Z</time>
      </trkpt>
      <trkpt lat="47.49829" lon="6.89751">
        <ele>411</ele>
        <time>2015-04-06T08:26:13.999Z</time>
      </trkpt>
      <trkpt lat="47.49827" lon="6.89751">
        <ele>411</ele>
        <time>2015-04-06T08:26:15.000Z</time>
      </trkpt>
      <trkpt lat="47.49823" lon="6.89753">
        <ele>411</ele>
        <time>2015-04-06T08:26:17.000Z</time>
      </trkpt>
      <trkpt lat="47.4982" lon="6.89754">
        <ele>411</ele>
        <time>2015-04-06T08:26:18.000Z</time>
      </trkpt>
      <trkpt lat="47.49816" lon="6.89755">
        <ele>411</ele>
        <time>2015-04-06T08:26:20.000Z</time>
      </trkpt>
      <trkpt lat="47.49814" lon="6.89757">
        <ele>410</ele>
        <time>2015-04-06T08:26:21.000Z</time>
      </trkpt>
      <trkpt lat="47.49812" lon="6.89758">
        <ele>410</ele>
        <time>2015-04-06T08:26:22.000Z</time>
      </trkpt>
      <trkpt lat="47.4981" lon="6.8976">
        <ele>410</ele>
        <time>2015-04-06T08:26:23.000Z</time>
      </trkpt>
      <trkpt lat="47.49807" lon="6.89762">
        <ele>410</ele>
        <time>2015-04-06T08:26:24.000Z</time>
      </trkpt>
      <trkpt lat="47.49804" lon="6.89763">
        <ele>410</ele>
        <time>2015-04-06T08:26:25.000Z</time>
      </trkpt>
      <trkpt lat="47.49801" lon="6.89765">
        <ele>410</ele>
        <time>2015-04-06T08:26:26.000Z</time>
      </trkpt>
      <trkpt lat="47.49799" lon="6.89765">
        <ele>410</ele>
        <time>2015-04-06T08:26:27.000Z</time>
      </trkpt>
      <trkpt lat="47.49796" lon="6.89765">
        <ele>410</ele>
        <time>2015-04-06T08:26:28.000Z</time>
      </trkpt>
      <trkpt lat="47.49794" lon="6.89765">
        <ele>410</ele>
        <time>2015-04-06T08:26:29.000Z</time>
      </trkpt>
      <trkpt lat="47.4979" lon="6.89763">
        <ele>410</ele>
        <time>2015-04-06T08:26:31.000Z</time>
      </trkpt>
      <trkpt lat="47.49787" lon="6.89764">
        <ele>410</ele>
        <time>2015-04-06T08:26:32.000Z</time>
      </trkpt>
      <trkpt lat="47.49784" lon="6.89765">
        <ele>410</ele>
        <time>2015-04-06T08:26:33.000Z</time>
      </trkpt>
      <trkpt lat="47.49782" lon="6.89766">
        <ele>410</ele>
        <time>2015-04-06T08:26:34.000Z</time>
      </trkpt>
      <trkpt lat="47.49778" lon="6.89768">
        <ele>410</ele>
        <time>2015-04-06T08:26:35.000Z</time>
      </trkpt>
      <trkpt lat="47.49775" lon="6.89768">
        <ele>410</ele>
        <time>2015-04-06T08:26:36.000Z</time>
      </trkpt>
      <trkpt lat="47.49772" lon="6.89768">
        <ele>410</ele>
        <time>2015-04-06T08:26:37.000Z</time>
      </trkpt>
      <trkpt lat="47.49769" lon="6.89767">
        <ele>410</ele>
        <time>2015-04-06T08:26:38.000Z</time>
      </trkpt>
      <trkpt lat="47.49765" lon="6.89766">
        <ele>410</ele>
        <time>2015-04-06T08:26:40.000Z</time>
      </trkpt>
      <trkpt lat="47.49762" lon="6.89766">
        <ele>410</ele>
        <time>2015-04-06T08:26:41.000Z</time>
      </trkpt>
      <trkpt lat="47.49759" lon="6.89766">
        <ele>410</ele>
        <time>2015-04-06T08:26:42.000Z</time>
      </trkpt>
      <trkpt lat="47.49756" lon="6.89766">
        <ele>410</ele>
        <time>2015-04-06T08:26:43.000Z</time>
      </trkpt>
      <trkpt lat="47.49753" lon="6.89766">
        <ele>411</ele>
        <time>2015-04-06T08:26:44.000Z</time>
      </trkpt>
      <trkpt lat="47.4975" lon="6.89767">
        <ele>410</ele>
        <time>2015-04-06T08:26:44.999Z</time>
      </trkpt>
      <trkpt lat="47.49746" lon="6.89767">
        <ele>410</ele>
        <time>2015-04-06T08:26:46.000Z</time>
      </trkpt>
      <trkpt lat="47.49743" lon="6.89768">
        <ele>409</ele>
        <time>2015-04-06T08:26:47.000Z</time>
      </trkpt>
      <trkpt lat="47.4974" lon="6.89767">
        <ele>409</ele>
        <time>2015-04-06T08:26:48.000Z</time>
      </trkpt>
      <trkpt lat="47.49737" lon="6.89766">
        <ele>409</ele>
        <time>2015-04-06T08:26:49.000Z</time>
      </trkpt>
      <trkpt lat="47.49733" lon="6.89763">
        <ele>409</ele>
        <time>2015-04-06T08:26:51.000Z</time>
      </trkpt>
      <trkpt lat="47.49732" lon="6.89761">
        <ele>409</ele>
        <time>2015-04-06T08:26:52.000Z</time>
      </trkpt>
      <trkpt lat="47.49727" lon="6.89761">
        <ele>409</ele>
        <time>2015-04-06T08:27:02.000Z</time>
      </trkpt>
      <trkpt lat="47.49726" lon="6.89762">
        <ele>409</ele>
        <time>2015-04-06T08:27:03.000Z</time>
      </trkpt>
      <trkpt lat="47.49722" lon="6.89763">
        <ele>409</ele>
        <time>2015-04-06T08:27:09.000Z</time>
      </trkpt>
      <trkpt lat="47.49721" lon="6.89763">
        <ele>409</ele>
        <time>2015-04-06T08:27:10.000Z</time>
      </trkpt>
      <trkpt lat="47.49717" lon="6.89763">
        <ele>409</ele>
        <time>2015-04-06T08:27:17.000Z</time>
      </trkpt>
      <trkpt lat="47.49716" lon="6.89763">
        <ele>409</ele>
        <time>2015-04-06T08:27:18.000Z</time>
      </trkpt>
      <trkpt lat="47.49712" lon="6.89764">
        <ele>408</ele>
        <time>2015-04-06T08:27:23.000Z</time>
      </trkpt>
      <trkpt lat="47.49711" lon="6.89764">
        <ele>408</ele>
        <time>2015-04-06T08:27:24.000Z</time>
      </trkpt>
      <trkpt lat="47.49707" lon="6.89765">
        <ele>408</ele>
        <time>2015-04-06T08:27:32.000Z</time>
      </trkpt>
      <trkpt lat="47.49706" lon="6.89765">
        <ele>408</ele>
        <time>2015-04-06T08:27:33.000Z</time>
      </trkpt>
      <trkpt lat="47.49703" lon="6.89766">
        <ele>408</ele>
        <time>2015-04-06T08:27:35.000Z</time>
      </trkpt>
      <trkpt lat="47.49701" lon="6.89766">
        <ele>408</ele>
        <time>2015-04-06T08:27:36.000Z</time>
      </trkpt>
      <trkpt lat="47.49699" lon="6.89766">
        <ele>408</ele>
        <time>2015-04-06T08:27:37.000Z</time>
      </trkpt>
      <trkpt lat="47.49697" lon="6.89766">
        <ele>408</ele>
        <time>2015-04-06T08:27:38.000Z</time>
      </trkpt>
      <trkpt lat="47.49694" lon="6.89766">
        <ele>408</ele>
        <time>2015-04-06T08:27:39.000Z</time>
      </trkpt>
      <trkpt lat="47.49691" lon="6.89767">
        <ele>408</ele>
        <time>2015-04-06T08:27:40.000Z</time>
      </trkpt>
      <trkpt lat="47.49689" lon="6.89768">
        <ele>408</ele>
        <time>2015-04-06T08:27:41.000Z</time>
      </trkpt>
      <trkpt lat="47.49686" lon="6.8977">
        <ele>408</ele>
        <time>2015-04-06T08:27:42.000Z</time>
      </trkpt>
      <trkpt lat="47.49682" lon="6.89772">
        <ele>408</ele>
        <time>2015-04-06T08:27:43.000Z</time>
      </trkpt>
      <trkpt lat="47.49679" lon="6.89775">
        <ele>408</ele>
        <time>2015-04-06T08:27:44.000Z</time>
      </trkpt>
      <trkpt lat="47.49675" lon="6.89777">
        <ele>407</ele>
        <time>2015-04-06T08:27:45.000Z</time>
      </trkpt>
      <trkpt lat="47.49672" lon="6.89777">
        <ele>407</ele>
        <time>2015-04-06T08:27:46.000Z</time>
      </trkpt>
      <trkpt lat="47.49668" lon="6.89775">
        <ele>407</ele>
        <time>2015-04-06T08:27:47.000Z</time>
      </trkpt>
      <trkpt lat="47.49665" lon="6.89773">
        <ele>407</ele>
        <time>2015-04-06T08:27:48.000Z</time>
      </trkpt>
      <trkpt lat="47.49663" lon="6.89771">
        <ele>407</ele>
        <time>2015-04-06T08:27:49.000Z</time>
      </trkpt>
      <trkpt lat="47.4966" lon="6.89769">
        <ele>408</ele>
        <time>2015-04-06T08:27:50.000Z</time>
      </trkpt>
      <trkpt lat="47.49658" lon="6.89767">
        <ele>408</ele>
        <time>2015-04-06T08:27:51.000Z</time>
      </trkpt>
      <trkpt lat="47.49655" lon="6.89765">
        <ele>408</ele>
        <time>2015-04-06T08:27:52.000Z</time>
      </trkpt>
      <trkpt lat="47.49653" lon="6.89763">
        <ele>408</ele>
        <time>2015-04-06T08:27:53.000Z</time>
      </trkpt>
      <trkpt lat="47.49651" lon="6.89761">
        <ele>408</ele>
        <time>2015-04-06T08:27:54.000Z</time>
      </trkpt>
      <trkpt lat="47.49648" lon="6.89757">
        <ele>408</ele>
        <time>2015-04-06T08:27:56.000Z</time>
      </trkpt>
      <trkpt lat="47.49646" lon="6.89754">
        <ele>408</ele>
        <time>2015-04-06T08:27:57.000Z</time>
      </trkpt>
      <trkpt lat="47.49645" lon="6.89751">
        <ele>408</ele>
        <time>2015-04-06T08:27:58.000Z</time>
      </trkpt>
      <trkpt lat="47.49643" lon="6.89748">
        <ele>409</ele>
        <time>2015-04-06T08:27:59.000Z</time>
      </trkpt>
      <trkpt lat="47.49641" lon="6.89745">
        <ele>409</ele>
        <time>2015-04-06T08:28:00.000Z</time>
      </trkpt>
      <trkpt lat="47.49639" lon="6.89742">
        <ele>409</ele>
        <time>2015-04-06T08:28:01.000Z</time>
      </trkpt>
      <trkpt lat="47.49638" lon="6.89739">
        <ele>409</ele>
        <time>2015-04-06T08:28:02.000Z</time>
      </trkpt>
      <trkpt lat="47.49636" lon="6.89737">
        <ele>410</ele>
        <time>2015-04-06T08:28:03.000Z</time>
      </trkpt>
      <trkpt lat="47.49634" lon="6.89733">
        <ele>410</ele>
        <time>2015-04-06T08:28:04.000Z</time>
      </trkpt>
      <trkpt lat="47.49631" lon="6.89727">
        <ele>410</ele>
        <time>2015-04-06T08:28:05.000Z</time>
      </trkpt>
      <trkpt lat="47.49628" lon="6.8972">
        <ele>410</ele>
        <time>2015-04-06T08:28:06.000Z</time>
      </trkpt>
      <trkpt lat="47.49625" lon="6.89715">
        <ele>410</ele>
        <time>2015-04-06T08:28:07.000Z</time>
      </trkpt>
      <trkpt lat="47.49621" lon="6.8971">
        <ele>410</ele>
        <time>2015-04-06T08:28:08.000Z</time>
      </trkpt>
      <trkpt lat="47.49618" lon="6.89705">
        <ele>410</ele>
        <time>2015-04-06T08:28:09.000Z</time>
      </trkpt>
      <trkpt lat="47.49615" lon="6.89699">
        <ele>410</ele>
        <time>2015-04-06T08:28:10.000Z</time>
      </trkpt>
      <trkpt lat="47.49611" lon="6.89695">
        <ele>410</ele>
        <time>2015-04-06T08:28:11.000Z</time>
      </trkpt>
      <trkpt lat="47.49609" lon="6.8969">
        <ele>410</ele>
        <time>2015-04-06T08:28:12.000Z</time>
      </trkpt>
      <trkpt lat="47.49606" lon="6.89686">
        <ele>410</ele>
        <time>2015-04-06T08:28:13.000Z</time>
      </trkpt>
      <trkpt lat="47.49604" lon="6.89682">
        <ele>410</ele>
        <time>2015-04-06T08:28:14.000Z</time>
      </trkpt>
      <trkpt lat="47.49602" lon="6.89678">
        <ele>410</ele>
        <time>2015-04-06T08:28:15.000Z</time>
      </trkpt>
      <trkpt lat="47.49601" lon="6.89675">
        <ele>411</ele>
        <time>2015-04-06T08:28:16.000Z</time>
      </trkpt>
      <trkpt lat="47.49599" lon="6.89671">
        <ele>411</ele>
        <time>2015-04-06T08:28:17.000Z</time>
      </trkpt>
      <trkpt lat="47.49597" lon="6.89667">
        <ele>411</ele>
        <time>2015-04-06T08:28:18.000Z</time>
      </trkpt>
      <trkpt lat="47.49595" lon="6.89662">
        <ele>410</ele>
        <time>2015-04-06T08:28:19.000Z</time>
      </trkpt>
      <trkpt lat="47.49592" lon="6.89657">
        <ele>410</ele>
        <time>2015-04-06T08:28:20.000Z</time>
      </trkpt>
      <trkpt lat="47.49589" lon="6.89651">
        <ele>410</ele>
        <time>2015-04-06T08:28:21.000Z</time>
      </trkpt>
      <trkpt lat="47.49585" lon="6.89647">
        <ele>410</ele>
        <time>2015-04-06T08:28:22.000Z</time>
      </trkpt>
      <trkpt lat="47.49582" lon="6.89642">
        <ele>410</ele>
        <time>2015-04-06T08:28:23.000Z</time>
      </trkpt>
      <trkpt lat="47.49577" lon="6.89639">
        <ele>410</ele>
        <time>2015-04-06T08:28:24.000Z</time>
      </trkpt>
      <trkpt lat="47.49573" lon="6.89636">
        <ele>410</ele>
        <time>2015-04-06T08:28:25.000Z</time>
      </trkpt>
      <trkpt lat="47.49569" lon="6.89634">
        <ele>410</ele>
        <time>2015-04-06T08:28:26.000Z</time>
      </trkpt>
      <trkpt lat="47.49564" lon="6.89632">
        <ele>410</ele>
        <time>2015-04-06T08:28:27.000Z</time>
      </trkpt>
      <trkpt lat="47.4956" lon="6.8963">
        <ele>410</ele>
        <time>2015-04-06T08:28:28.000Z</time>
      </trkpt>
      <trkpt lat="47.49555" lon="6.89628">
        <ele>410</ele>
        <time>2015-04-06T08:28:29.000Z</time>
      </trkpt>
      <trkpt lat="47.49551" lon="6.89627">
        <ele>410</ele>
        <time>2015-04-06T08:28:30.000Z</time>
      </trkpt>
      <trkpt lat="47.49547" lon="6.89625">
        <ele>410</ele>
        <time>2015-04-06T08:28:31.000Z</time>
      </trkpt>
      <trkpt lat="47.49544" lon="6.89623">
        <ele>410</ele>
        <time>2015-04-06T08:28:32.000Z</time>
      </trkpt>
      <trkpt lat="47.49541" lon="6.89621">
        <ele>410</ele>
        <time>2015-04-06T08:28:33.000Z</time>
      </trkpt>
      <trkpt lat="47.49539" lon="6.89619">
        <ele>410</ele>
        <time>2015-04-06T08:28:34.000Z</time>
      </trkpt>
      <trkpt lat="47.49537" lon="6.89617">
        <ele>410</ele>
        <time>2015-04-06T08:28:35.000Z</time>
      </trkpt>
      <trkpt lat="47.49533" lon="6.89617">
        <ele>410</ele>
        <time>2015-04-06T08:28:37.000Z</time>
      </trkpt>
      <trkpt lat="47.49532" lon="6.89617">
        <ele>410</ele>
        <time>2015-04-06T08:28:38.000Z</time>
      </trkpt>
      <trkpt lat="47.4953" lon="6.89611">
        <ele>410</ele>
        <time>2015-04-06T08:28:47.000Z</time>
      </trkpt>
      <trkpt lat="47.49529" lon="6.8961">
        <ele>410</ele>
        <time>2015-04-06T08:28:48.000Z</time>
      </trkpt>
      <trkpt lat="47.49527" lon="6.89605">
        <ele>410</ele>
        <time>2015-04-06T08:28:52.000Z</time>
      </trkpt>
      <trkpt lat="47.49526" lon="6.89603">
        <ele>410</ele>
        <time>2015-04-06T08:28:53.000Z</time>
      </trkpt>
      <trkpt lat="47.49529" lon="6.89598">
        <ele>410</ele>
        <time>2015-04-06T08:29:14.000Z</time>
      </trkpt>
      <trkpt lat="47.49529" lon="6.89597">
        <ele>410</ele>
        <time>2015-04-06T08:29:15.000Z</time>
      </trkpt>
      <trkpt lat="47.4953" lon="6.8959">
        <ele>410</ele>
        <time>2015-04-06T08:29:18.000Z</time>
      </trkpt>
      <trkpt lat="47.49529" lon="6.89588">
        <ele>410</ele>
        <time>2015-04-06T08:29:19.000Z</time>
      </trkpt>
      <trkpt lat="47.49528" lon="6.89582">
        <ele>409</ele>
        <time>2015-04-06T08:29:22.000Z</time>
      </trkpt>
      <trkpt lat="47.49527" lon="6.89579">
        <ele>409</ele>
        <time>2015-04-06T08:29:23.000Z</time>
      </trkpt>
      <trkpt lat="47.49525" lon="6.89576">
        <ele>409</ele>
        <time>2015-04-06T08:29:24.000Z</time>
      </trkpt>
      <trkpt lat="47.49524" lon="6.89573">
        <ele>409</ele>
        <time>2015-04-06T08:29:25.000Z</time>
      </trkpt>
      <trkpt lat="47.49523" lon="6.8957">
        <ele>409</ele>
        <time>2015-04-06T08:29:26.000Z</time>
      </trkpt>
      <trkpt lat="47.49523" lon="6.89567">
        <ele>409</ele>
        <time>2015-04-06T08:29:27.000Z</time>
      </trkpt>
      <trkpt lat="47.49521" lon="6.89562">
        <ele>409</ele>
        <time>2015-04-06T08:29:29.000Z</time>
      </trkpt>
      <trkpt lat="47.49519" lon="6.89561">
        <ele>409</ele>
        <time>2015-04-06T08:29:30.000Z</time>
      </trkpt>
      <trkpt lat="47.49516" lon="6.89559">
        <ele>409</ele>
        <time>2015-04-06T08:29:32.000Z</time>
      </trkpt>
      <trkpt lat="47.49514" lon="6.89557">
        <ele>409</ele>
        <time>2015-04-06T08:29:33.000Z</time>
      </trkpt>
      <trkpt lat="47.49512" lon="6.89554">
        <ele>409</ele>
        <time>2015-04-06T08:29:34.000Z</time>
      </trkpt>
      <trkpt lat="47.4951" lon="6.89551">
        <ele>409</ele>
        <time>2015-04-06T08:29:35.000Z</time>
      </trkpt>
      <trkpt lat="47.49509" lon="6.89548">
        <ele>409</ele>
        <time>2015-04-06T08:29:36.000Z</time>
      </trkpt>
      <trkpt lat="47.49507" lon="6.89544">
        <ele>409</ele>
        <time>2015-04-06T08:29:37.000Z</time>
      </trkpt>
      <trkpt lat="47.49506" lon="6.89541">
        <ele>409</ele>
        <time>2015-04-06T08:29:38.000Z</time>
      </trkpt>
      <trkpt lat="47.49504" lon="6.89537">
        <ele>409</ele>
        <time>2015-04-06T08:29:39.000Z</time>
      </trkpt>
      <trkpt lat="47.49503" lon="6.89533">
        <ele>409</ele>
        <time>2015-04-06T08:29:40.000Z</time>
      </trkpt>
      <trkpt lat="47.49502" lon="6.89529">
        <ele>409</ele>
        <time>2015-04-06T08:29:41.000Z</time>
      </trkpt>
      <trkpt lat="47.495" lon="6.89524">
        <ele>409</ele>
        <time>2015-04-06T08:29:42.000Z</time>
      </trkpt>
      <trkpt lat="47.49499" lon="6.89519">
        <ele>411</ele>
        <time>2015-04-06T08:29:43.000Z</time>
      </trkpt>
      <trkpt lat="47.49498" lon="6.89515">
        <ele>411</ele>
        <time>2015-04-06T08:29:44.000Z</time>
      </trkpt>
      <trkpt lat="47.49497" lon="6.8951">
        <ele>410</ele>
        <time>2015-04-06T08:29:45.000Z</time>
      </trkpt>
      <trkpt lat="47.49496" lon="6.89506">
        <ele>410</ele>
        <time>2015-04-06T08:29:46.000Z</time>
      </trkpt>
      <trkpt lat="47.49495" lon="6.89503">
        <ele>410</ele>
        <time>2015-04-06T08:29:47.000Z</time>
      </trkpt>
      <trkpt lat="47.49493" lon="6.89499">
        <ele>410</ele>
        <time>2015-04-06T08:29:48.000Z</time>
      </trkpt>
      <trkpt lat="47.49492" lon="6.89495">
        <ele>410</ele>
        <time>2015-04-06T08:29:49.000Z</time>
      </trkpt>
      <trkpt lat="47.49491" lon="6.89491">
        <ele>410</ele>
        <time>2015-04-06T08:29:50.000Z</time>
      </trkpt>
      <trkpt lat="47.4949" lon="6.89488">
        <ele>410</ele>
        <time>2015-04-06T08:29:51.000Z</time>
      </trkpt>
      <trkpt lat="47.49489" lon="6.89483">
        <ele>410</ele>
        <time>2015-04-06T08:29:53.000Z</time>
      </trkpt>
      <trkpt lat="47.49489" lon="6.8948">
        <ele>410</ele>
        <time>2015-04-06T08:29:54.000Z</time>
      </trkpt>
      <trkpt lat="47.49488" lon="6.89476">
        <ele>410</ele>
        <time>2015-04-06T08:29:55.000Z</time>
      </trkpt>
      <trkpt lat="47.49488" lon="6.89472">
        <ele>411</ele>
        <time>2015-04-06T08:29:56.000Z</time>
      </trkpt>
      <trkpt lat="47.49488" lon="6.89468">
        <ele>411</ele>
        <time>2015-04-06T08:29:57.000Z</time>
      </trkpt>
      <trkpt lat="47.49488" lon="6.89464">
        <ele>411</ele>
        <time>2015-04-06T08:29:58.000Z</time>
      </trkpt>
      <trkpt lat="47.49487" lon="6.89459">
        <ele>411</ele>
        <time>2015-04-06T08:29:59.000Z</time>
      </trkpt>
      <trkpt lat="47.49487" lon="6.89455">
        <ele>411</ele>
        <time>2015-04-06T08:30:00.000Z</time>
      </trkpt>
      <trkpt lat="47.49486" lon="6.8945">
        <ele>410</ele>
        <time>2015-04-06T08:30:01.000Z</time>
      </trkpt>
      <trkpt lat="47.49485" lon="6.89446">
        <ele>410</ele>
        <time>2015-04-06T08:30:02.000Z</time>
      </trkpt>
      <trkpt lat="47.49484" lon="6.89442">
        <ele>410</ele>
        <time>2015-04-06T08:30:03.000Z</time>
      </trkpt>
      <trkpt lat="47.49483" lon="6.89438">
        <ele>410</ele>
        <time>2015-04-06T08:30:04.000Z</time>
      </trkpt>
      <trkpt lat="47.49481" lon="6.89432">
        <ele>410</ele>
        <time>2015-04-06T08:30:05.000Z</time>
      </trkpt>
      <trkpt lat="47.49479" lon="6.89425">
        <ele>410</ele>
        <time>2015-04-06T08:30:06.000Z</time>
      </trkpt>
      <trkpt lat="47.49477" lon="6.89418">
        <ele>410</ele>
        <time>2015-04-06T08:30:07.000Z</time>
      </trkpt>
      <trkpt lat="47.49476" lon="6.89411">
        <ele>409</ele>
        <time>2015-04-06T08:30:08.000Z</time>
      </trkpt>
      <trkpt lat="47.49475" lon="6.89405">
        <ele>409</ele>
        <time>2015-04-06T08:30:09.000Z</time>
      </trkpt>
      <trkpt lat="47.49474" lon="6.89399">
        <ele>409</ele>
        <time>2015-04-06T08:30:10.000Z</time>
      </trkpt>
      <trkpt lat="47.49473" lon="6.89393">
        <ele>409</ele>
        <time>2015-04-06T08:30:11.000Z</time>
      </trkpt>
      <trkpt lat="47.49471" lon="6.89388">
        <ele>409</ele>
        <time>2015-04-06T08:30:12.000Z</time>
      </trkpt>
      <trkpt lat="47.49469" lon="6.89383">
        <ele>409</ele>
        <time>2015-04-06T08:30:13.000Z</time>
      </trkpt>
      <trkpt lat="47.49466" lon="6.89378">
        <ele>410</ele>
        <time>2015-04-06T08:30:14.000Z</time>
      </trkpt>
      <trkpt lat="47.49463" lon="6.89373">
        <ele>410</ele>
        <time>2015-04-06T08:30:15.000Z</time>
      </trkpt>
      <trkpt lat="47.49461" lon="6.89369">
        <ele>410</ele>
        <time>2015-04-06T08:30:16.000Z</time>
      </trkpt>
      <trkpt lat="47.49459" lon="6.89365">
        <ele>410</ele>
        <time>2015-04-06T08:30:17.000Z</time>
      </trkpt>
      <trkpt lat="47.49458" lon="6.89362">
        <ele>410</ele>
        <time>2015-04-06T08:30:18.000Z</time>
      </trkpt>
      <trkpt lat="47.49456" lon="6.89357">
        <ele>410</ele>
        <time>2015-04-06T08:30:19.000Z</time>
      </trkpt>
      <trkpt lat="47.49455" lon="6.89352">
        <ele>410</ele>
        <time>2015-04-06T08:30:20.000Z</time>
      </trkpt>
      <trkpt lat="47.49454" lon="6.89348">
        <ele>410</ele>
        <time>2015-04-06T08:30:21.000Z</time>
      </trkpt>
      <trkpt lat="47.49453" lon="6.89344">
        <ele>410</ele>
        <time>2015-04-06T08:30:22.000Z</time>
      </trkpt>
      <trkpt lat="47.49453" lon="6.89339">
        <ele>410</ele>
        <time>2015-04-06T08:30:23.000Z</time>
      </trkpt>
      <trkpt lat="47.49453" lon="6.89335">
        <ele>410</ele>
        <time>2015-04-06T08:30:24.000Z</time>
      </trkpt>
      <trkpt lat="47.49452" lon="6.89331">
        <ele>407</ele>
        <time>2015-04-06T08:30:25.000Z</time>
      </trkpt>
      <trkpt lat="47.49451" lon="6.89326">
        <ele>407</ele>
        <time>2015-04-06T08:30:26.000Z</time>
      </trkpt>
      <trkpt lat="47.49451" lon="6.89321">
        <ele>407</ele>
        <time>2015-04-06T08:30:27.000Z</time>
      </trkpt>
      <trkpt lat="47.4945" lon="6.89315">
        <ele>407</ele>
        <time>2015-04-06T08:30:28.000Z</time>
      </trkpt>
      <trkpt lat="47.49449" lon="6.89309">
        <ele>407</ele>
        <time>2015-04-06T08:30:29.000Z</time>
      </trkpt>
      <trkpt lat="47.49448" lon="6.89303">
        <ele>407</ele>
        <time>2015-04-06T08:30:30.000Z</time>
      </trkpt>
      <trkpt lat="47.49447" lon="6.89298">
        <ele>407</ele>
        <time>2015-04-06T08:30:31.000Z</time>
      </trkpt>
      <trkpt lat="47.49446" lon="6.89294">
        <ele>407</ele>
        <time>2015-04-06T08:30:32.000Z</time>
      </trkpt>
      <trkpt lat="47.49444" lon="6.89285">
        <ele>407</ele>
        <time>2015-04-06T08:30:33.001Z</time>
      </trkpt>
      <trkpt lat="47.49443" lon="6.89279">
        <ele>406</ele>
        <time>2015-04-06T08:30:34.000Z</time>
      </trkpt>
      <trkpt lat="47.49442" lon="6.89274">
        <ele>406</ele>
        <time>2015-04-06T08:30:35.000Z</time>
      </trkpt>
      <trkpt lat="47.49441" lon="6.8927">
        <ele>406</ele>
        <time>2015-04-06T08:30:36.000Z</time>
      </trkpt>
      <trkpt lat="47.4944" lon="6.89267">
        <ele>406</ele>
        <time>2015-04-06T08:30:37.000Z</time>
      </trkpt>
      <trkpt lat="47.49439" lon="6.89262">
        <ele>406</ele>
        <time>2015-04-06T08:30:39.000Z</time>
      </trkpt>
      <trkpt lat="47.49439" lon="6.89259">
        <ele>406</ele>
        <time>2015-04-06T08:30:40.000Z</time>
      </trkpt>
      <trkpt lat="47.49437" lon="6.89253">
        <ele>406</ele>
        <time>2015-04-06T08:30:42.000Z</time>
      </trkpt>
      <trkpt lat="47.49436" lon="6.8925">
        <ele>406</ele>
        <time>2015-04-06T08:30:43.000Z</time>
      </trkpt>
      <trkpt lat="47.49434" lon="6.89248">
        <ele>405</ele>
        <time>2015-04-06T08:30:44.000Z</time>
      </trkpt>
      <trkpt lat="47.49432" lon="6.89246">
        <ele>405</ele>
        <time>2015-04-06T08:30:45.000Z</time>
      </trkpt>
      <trkpt lat="47.4943" lon="6.89243">
        <ele>405</ele>
        <time>2015-04-06T08:30:46.000Z</time>
      </trkpt>
      <trkpt lat="47.49428" lon="6.8924">
        <ele>405</ele>
        <time>2015-04-06T08:30:47.000Z</time>
      </trkpt>
      <trkpt lat="47.49426" lon="6.89237">
        <ele>405</ele>
        <time>2015-04-06T08:30:48.000Z</time>
      </trkpt>
      <trkpt lat="47.49425" lon="6.89234">
        <ele>404</ele>
        <time>2015-04-06T08:30:49.000Z</time>
      </trkpt>
      <trkpt lat="47.49423" lon="6.8923">
        <ele>404</ele>
        <time>2015-04-06T08:30:50.000Z</time>
      </trkpt>
      <trkpt lat="47.49423" lon="6.89227">
        <ele>404</ele>
        <time>2015-04-06T08:30:51.000Z</time>
      </trkpt>
      <trkpt lat="47.49422" lon="6.89224">
        <ele>404</ele>
        <time>2015-04-06T08:30:52.000Z</time>
      </trkpt>
      <trkpt lat="47.49421" lon="6.89218">
        <ele>404</ele>
        <time>2015-04-06T08:30:53.000Z</time>
      </trkpt>
      <trkpt lat="47.4942" lon="6.89212">
        <ele>403</ele>
        <time>2015-04-06T08:30:54.000Z</time>
      </trkpt>
      <trkpt lat="47.49419" lon="6.89205">
        <ele>403</ele>
        <time>2015-04-06T08:30:55.000Z</time>
      </trkpt>
      <trkpt lat="47.49418" lon="6.89198">
        <ele>403</ele>
        <time>2015-04-06T08:30:56.000Z</time>
      </trkpt>
      <trkpt lat="47.49418" lon="6.89192">
        <ele>403</ele>
        <time>2015-04-06T08:30:57.000Z</time>
      </trkpt>
      <trkpt lat="47.49417" lon="6.89187">
        <ele>402</ele>
        <time>2015-04-06T08:30:58.000Z</time>
      </trkpt>
      <trkpt lat="47.49417" lon="6.89185">
        <ele>402</ele>
        <time>2015-04-06T08:30:59.001Z</time>
      </trkpt>
      <trkpt lat="47.49417" lon="6.8918">
        <ele>405</ele>
        <time>2015-04-06T08:31:00.000Z</time>
      </trkpt>
      <trkpt lat="47.49416" lon="6.89175">
        <ele>404</ele>
        <time>2015-04-06T08:31:01.000Z</time>
      </trkpt>
      <trkpt lat="47.49415" lon="6.8917">
        <ele>403</ele>
        <time>2015-04-06T08:31:02.000Z</time>
      </trkpt>
      <trkpt lat="47.49414" lon="6.89164">
        <ele>402</ele>
        <time>2015-04-06T08:31:03.000Z</time>
      </trkpt>
      <trkpt lat="47.49413" lon="6.89158">
        <ele>402</ele>
        <time>2015-04-06T08:31:04.000Z</time>
      </trkpt>
      <trkpt lat="47.49411" lon="6.89152">
        <ele>403</ele>
        <time>2015-04-06T08:31:05.000Z</time>
      </trkpt>
      <trkpt lat="47.49409" lon="6.89146">
        <ele>403</ele>
        <time>2015-04-06T08:31:06.000Z</time>
      </trkpt>
      <trkpt lat="47.49408" lon="6.8914">
        <ele>403</ele>
        <time>2015-04-06T08:31:07.000Z</time>
      </trkpt>
      <trkpt lat="47.49406" lon="6.89134">
        <ele>403</ele>
        <time>2015-04-06T08:31:08.000Z</time>
      </trkpt>
      <trkpt lat="47.49404" lon="6.89128">
        <ele>402</ele>
        <time>2015-04-06T08:31:09.000Z</time>
      </trkpt>
      <trkpt lat="47.49403" lon="6.89123">
        <ele>402</ele>
        <time>2015-04-06T08:31:10.000Z</time>
      </trkpt>
      <trkpt lat="47.49401" lon="6.89119">
        <ele>402</ele>
        <time>2015-04-06T08:31:11.000Z</time>
      </trkpt>
      <trkpt lat="47.49399" lon="6.89115">
        <ele>402</ele>
        <time>2015-04-06T08:31:12.000Z</time>
      </trkpt>
      <trkpt lat="47.49397" lon="6.89112">
        <ele>402</ele>
        <time>2015-04-06T08:31:13.000Z</time>
      </trkpt>
      <trkpt lat="47.49393" lon="6.89108">
        <ele>402</ele>
        <time>2015-04-06T08:31:15.000Z</time>
      </trkpt>
      <trkpt lat="47.49391" lon="6.89106">
        <ele>402</ele>
        <time>2015-04-06T08:31:16.000Z</time>
      </trkpt>
      <trkpt lat="47.49389" lon="6.89104">
        <ele>402</ele>
        <time>2015-04-06T08:31:17.000Z</time>
      </trkpt>
      <trkpt lat="47.49387" lon="6.89102">
        <ele>402</ele>
        <time>2015-04-06T08:31:18.000Z</time>
      </trkpt>
      <trkpt lat="47.49386" lon="6.89099">
        <ele>402</ele>
        <time>2015-04-06T08:31:19.000Z</time>
      </trkpt>
      <trkpt lat="47.49384" lon="6.89095">
        <ele>402</ele>
        <time>2015-04-06T08:31:20.000Z</time>
      </trkpt>
      <trkpt lat="47.49384" lon="6.89091">
        <ele>402</ele>
        <time>2015-04-06T08:31:21.000Z</time>
      </trkpt>
      <trkpt lat="47.49383" lon="6.89088">
        <ele>402</ele>
        <time>2015-04-06T08:31:22.000Z</time>
      </trkpt>
      <trkpt lat="47.49382" lon="6.89085">
        <ele>402</ele>
        <time>2015-04-06T08:31:23.000Z</time>
      </trkpt>
      <trkpt lat="47.49382" lon="6.89081">
        <ele>398</ele>
        <time>2015-04-06T08:31:24.000Z</time>
      </trkpt>
      <trkpt lat="47.49382" lon="6.89076">
        <ele>398</ele>
        <time>2015-04-06T08:31:29.000Z</time>
      </trkpt>
      <trkpt lat="47.49385" lon="6.89075">
        <ele>398</ele>
        <time>2015-04-06T08:31:30.000Z</time>
      </trkpt>
      <trkpt lat="47.49388" lon="6.89074">
        <ele>398</ele>
        <time>2015-04-06T08:31:31.000Z</time>
      </trkpt>
      <trkpt lat="47.49392" lon="6.89073">
        <ele>398</ele>
        <time>2015-04-06T08:31:32.000Z</time>
      </trkpt>
      <trkpt lat="47.49396" lon="6.89072">
        <ele>398</ele>
        <time>2015-04-06T08:31:33.000Z</time>
      </trkpt>
      <trkpt lat="47.49399" lon="6.89069">
        <ele>398</ele>
        <time>2015-04-06T08:31:34.000Z</time>
      </trkpt>
      <trkpt lat="47.49402" lon="6.89066">
        <ele>398</ele>
        <time>2015-04-06T08:31:35.000Z</time>
      </trkpt>
      <trkpt lat="47.49404" lon="6.89062">
        <ele>398</ele>
        <time>2015-04-06T08:31:36.000Z</time>
      </trkpt>
      <trkpt lat="47.49405" lon="6.89057">
        <ele>398</ele>
        <time>2015-04-06T08:31:37.000Z</time>
      </trkpt>
      <trkpt lat="47.49406" lon="6.89053">
        <ele>398</ele>
        <time>2015-04-06T08:31:38.000Z</time>
      </trkpt>
      <trkpt lat="47.49406" lon="6.89049">
        <ele>397</ele>
        <time>2015-04-06T08:31:39.000Z</time>
      </trkpt>
      <trkpt lat="47.49405" lon="6.89045">
        <ele>397</ele>
        <time>2015-04-06T08:31:40.000Z</time>
      </trkpt>
      <trkpt lat="47.49405" lon="6.89042">
        <ele>397</ele>
        <time>2015-04-06T08:31:41.000Z</time>
      </trkpt>
      <trkpt lat="47.49404" lon="6.89038">
        <ele>397</ele>
        <time>2015-04-06T08:31:42.000Z</time>
      </trkpt>
      <trkpt lat="47.49404" lon="6.89033">
        <ele>397</ele>
        <time>2015-04-06T08:31:43.000Z</time>
      </trkpt>
      <trkpt lat="47.49403" lon="6.89029">
        <ele>397</ele>
        <time>2015-04-06T08:31:44.000Z</time>
      </trkpt>
      <trkpt lat="47.49403" lon="6.89025">
        <ele>397</ele>
        <time>2015-04-06T08:31:45.000Z</time>
      </trkpt>
      <trkpt lat="47.49402" lon="6.8902">
        <ele>397</ele>
        <time>2015-04-06T08:31:46.000Z</time>
      </trkpt>
      <trkpt lat="47.49401" lon="6.89015">
        <ele>397</ele>
        <time>2015-04-06T08:31:47.000Z</time>
      </trkpt>
      <trkpt lat="47.494" lon="6.89009">
        <ele>397</ele>
        <time>2015-04-06T08:31:48.000Z</time>
      </trkpt>
      <trkpt lat="47.49398" lon="6.89003">
        <ele>397</ele>
        <time>2015-04-06T08:31:49.000Z</time>
      </trkpt>
      <trkpt lat="47.49397" lon="6.88997">
        <ele>396</ele>
        <time>2015-04-06T08:31:50.000Z</time>
      </trkpt>
      <trkpt lat="47.49395" lon="6.88991">
        <ele>396</ele>
        <time>2015-04-06T08:31:51.000Z</time>
      </trkpt>
      <trkpt lat="47.49393" lon="6.88985">
        <ele>396</ele>
        <time>2015-04-06T08:31:52.000Z</time>
      </trkpt>
      <trkpt lat="47.49392" lon="6.88979">
        <ele>396</ele>
        <time>2015-04-06T08:31:53.000Z</time>
      </trkpt>
      <trkpt lat="47.49391" lon="6.88973">
        <ele>396</ele>
        <time>2015-04-06T08:31:54.000Z</time>
      </trkpt>
      <trkpt lat="47.49389" lon="6.88967">
        <ele>396</ele>
        <time>2015-04-06T08:31:55.000Z</time>
      </trkpt>
      <trkpt lat="47.49388" lon="6.88961">
        <ele>396</ele>
        <time>2015-04-06T08:31:56.000Z</time>
      </trkpt>
      <trkpt lat="47.49388" lon="6.88958">
        <ele>396</ele>
        <time>2015-04-06T08:31:57.000Z</time>
      </trkpt>
      <trkpt lat="47.49386" lon="6.88948">
        <ele>396</ele>
        <time>2015-04-06T08:31:58.000Z</time>
      </trkpt>
      <trkpt lat="47.49384" lon="6.88941">
        <ele>396</ele>
        <time>2015-04-06T08:31:59.000Z</time>
      </trkpt>
      <trkpt lat="47.49382" lon="6.88933">
        <ele>396</ele>
        <time>2015-04-06T08:32:00.000Z</time>
      </trkpt>
      <trkpt lat="47.4938" lon="6.88925">
        <ele>396</ele>
        <time>2015-04-06T08:32:01.000Z</time>
      </trkpt>
      <trkpt lat="47.49379" lon="6.88918">
        <ele>396</ele>
        <time>2015-04-06T08:32:02.000Z</time>
      </trkpt>
      <trkpt lat="47.49377" lon="6.88912">
        <ele>396</ele>
        <time>2015-04-06T08:32:03.000Z</time>
      </trkpt>
      <trkpt lat="47.49376" lon="6.88905">
        <ele>396</ele>
        <time>2015-04-06T08:32:04.000Z</time>
      </trkpt>
      <trkpt lat="47.49368" lon="6.88881">
        <ele>396</ele>
        <time>2015-04-06T08:32:05.000Z</time>
      </trkpt>
      <trkpt lat="47.49367" lon="6.88871">
        <ele>395</ele>
        <time>2015-04-06T08:32:06.000Z</time>
      </trkpt>
      <trkpt lat="47.49365" lon="6.8886">
        <ele>395</ele>
        <time>2015-04-06T08:32:07.000Z</time>
      </trkpt>
      <trkpt lat="47.49363" lon="6.88854">
        <ele>395</ele>
        <time>2015-04-06T08:32:08.000Z</time>
      </trkpt>
      <trkpt lat="47.49361" lon="6.88847">
        <ele>395</ele>
        <time>2015-04-06T08:32:09.000Z</time>
      </trkpt>
      <trkpt lat="47.49358" lon="6.8884">
        <ele>395</ele>
        <time>2015-04-06T08:32:10.000Z</time>
      </trkpt>
      <trkpt lat="47.49356" lon="6.88827">
        <ele>394</ele>
        <time>2015-04-06T08:32:11.000Z</time>
      </trkpt>
      <trkpt lat="47.49355" lon="6.88819">
        <ele>394</ele>
        <time>2015-04-06T08:32:12.000Z</time>
      </trkpt>
      <trkpt lat="47.49353" lon="6.8881">
        <ele>394</ele>
        <time>2015-04-06T08:32:13.000Z</time>
      </trkpt>
      <trkpt lat="47.49354" lon="6.88799">
        <ele>393</ele>
        <time>2015-04-06T08:32:14.000Z</time>
      </trkpt>
      <trkpt lat="47.49354" lon="6.88796">
        <ele>393</ele>
        <time>2015-04-06T08:32:15.000Z</time>
      </trkpt>
      <trkpt lat="47.49354" lon="6.88792">
        <ele>393</ele>
        <time>2015-04-06T08:32:16.000Z</time>
      </trkpt>
      <trkpt lat="47.49353" lon="6.88785">
        <ele>393</ele>
        <time>2015-04-06T08:32:17.000Z</time>
      </trkpt>
      <trkpt lat="47.49352" lon="6.88778">
        <ele>393</ele>
        <time>2015-04-06T08:32:18.000Z</time>
      </trkpt>
      <trkpt lat="47.49353" lon="6.88772">
        <ele>393</ele>
        <time>2015-04-06T08:32:19.000Z</time>
      </trkpt>
      <trkpt lat="47.49353" lon="6.88765">
        <ele>393</ele>
        <time>2015-04-06T08:32:20.000Z</time>
      </trkpt>
      <trkpt lat="47.49353" lon="6.88761">
        <ele>393</ele>
        <time>2015-04-06T08:32:21.000Z</time>
      </trkpt>
      <trkpt lat="47.49353" lon="6.88756">
        <ele>393</ele>
        <time>2015-04-06T08:32:22.000Z</time>
      </trkpt>
      <trkpt lat="47.49352" lon="6.88751">
        <ele>393</ele>
        <time>2015-04-06T08:32:23.000Z</time>
      </trkpt>
      <trkpt lat="47.49352" lon="6.88747">
        <ele>393</ele>
        <time>2015-04-06T08:32:24.000Z</time>
      </trkpt>
      <trkpt lat="47.49353" lon="6.88741">
        <ele>393</ele>
        <time>2015-04-06T08:32:26.000Z</time>
      </trkpt>
      <trkpt lat="47.49353" lon="6.88738">
        <ele>393</ele>
        <time>2015-04-06T08:32:27.000Z</time>
      </trkpt>
      <trkpt lat="47.49353" lon="6.88735">
        <ele>393</ele>
        <time>2015-04-06T08:32:28.000Z</time>
      </trkpt>
      <trkpt lat="47.49354" lon="6.8873">
        <ele>392</ele>
        <time>2015-04-06T08:32:29.000Z</time>
      </trkpt>
      <trkpt lat="47.49355" lon="6.88725">
        <ele>392</ele>
        <time>2015-04-06T08:32:30.000Z</time>
      </trkpt>
      <trkpt lat="47.49357" lon="6.8872">
        <ele>392</ele>
        <time>2015-04-06T08:32:31.000Z</time>
      </trkpt>
      <trkpt lat="47.49358" lon="6.88714">
        <ele>392</ele>
        <time>2015-04-06T08:32:32.000Z</time>
      </trkpt>
      <trkpt lat="47.49359" lon="6.88707">
        <ele>392</ele>
        <time>2015-04-06T08:32:33.000Z</time>
      </trkpt>
      <trkpt lat="47.49359" lon="6.88701">
        <ele>392</ele>
        <time>2015-04-06T08:32:34.000Z</time>
      </trkpt>
      <trkpt lat="47.49359" lon="6.88694">
        <ele>392</ele>
        <time>2015-04-06T08:32:35.000Z</time>
      </trkpt>
      <trkpt lat="47.49359" lon="6.88688">
        <ele>392</ele>
        <time>2015-04-06T08:32:36.000Z</time>
      </trkpt>
      <trkpt lat="47.49359" lon="6.88682">
        <ele>392</ele>
        <time>2015-04-06T08:32:37.000Z</time>
      </trkpt>
      <trkpt lat="47.4936" lon="6.88675">
        <ele>393</ele>
        <time>2015-04-06T08:32:38.000Z</time>
      </trkpt>
      <trkpt lat="47.4936" lon="6.88668">
        <ele>393</ele>
        <time>2015-04-06T08:32:39.000Z</time>
      </trkpt>
      <trkpt lat="47.49361" lon="6.88662">
        <ele>392</ele>
        <time>2015-04-06T08:32:40.000Z</time>
      </trkpt>
      <trkpt lat="47.49361" lon="6.88655">
        <ele>392</ele>
        <time>2015-04-06T08:32:41.000Z</time>
      </trkpt>
      <trkpt lat="47.49362" lon="6.88648">
        <ele>391</ele>
        <time>2015-04-06T08:32:42.000Z</time>
      </trkpt>
      <trkpt lat="47.49363" lon="6.88641">
        <ele>391</ele>
        <time>2015-04-06T08:32:43.000Z</time>
      </trkpt>
      <trkpt lat="47.49365" lon="6.88634">
        <ele>391</ele>
        <time>2015-04-06T08:32:44.000Z</time>
      </trkpt>
      <trkpt lat="47.49366" lon="6.88627">
        <ele>391</ele>
        <time>2015-04-06T08:32:45.000Z</time>
      </trkpt>
      <trkpt lat="47.49366" lon="6.8862">
        <ele>391</ele>
        <time>2015-04-06T08:32:46.000Z</time>
      </trkpt>
      <trkpt lat="47.49367" lon="6.88612">
        <ele>391</ele>
        <time>2015-04-06T08:32:47.000Z</time>
      </trkpt>
      <trkpt lat="47.49367" lon="6.88603">
        <ele>391</ele>
        <time>2015-04-06T08:32:48.000Z</time>
      </trkpt>
      <trkpt lat="47.49361" lon="6.88576">
        <ele>391</ele>
        <time>2015-04-06T08:32:49.000Z</time>
      </trkpt>
      <trkpt lat="47.49361" lon="6.88568">
        <ele>391</ele>
        <time>2015-04-06T08:32:50.000Z</time>
      </trkpt>
      <trkpt lat="47.4936" lon="6.88563">
        <ele>391</ele>
        <time>2015-04-06T08:32:51.000Z</time>
      </trkpt>
      <trkpt lat="47.4936" lon="6.88555">
        <ele>390</ele>
        <time>2015-04-06T08:32:52.000Z</time>
      </trkpt>
      <trkpt lat="47.49361" lon="6.88549">
        <ele>390</ele>
        <time>2015-04-06T08:32:53.000Z</time>
      </trkpt>
      <trkpt lat="47.49362" lon="6.88543">
        <ele>390</ele>
        <time>2015-04-06T08:32:54.000Z</time>
      </trkpt>
      <trkpt lat="47.49361" lon="6.88537">
        <ele>390</ele>
        <time>2015-04-06T08:32:55.000Z</time>
      </trkpt>
      <trkpt lat="47.4936" lon="6.8853">
        <ele>390</ele>
        <time>2015-04-06T08:32:56.000Z</time>
      </trkpt>
      <trkpt lat="47.4936" lon="6.88523">
        <ele>390</ele>
        <time>2015-04-06T08:32:57.000Z</time>
      </trkpt>
      <trkpt lat="47.4936" lon="6.88516">
        <ele>391</ele>
        <time>2015-04-06T08:32:58.000Z</time>
      </trkpt>
      <trkpt lat="47.4936" lon="6.8851">
        <ele>391</ele>
        <time>2015-04-06T08:32:59.000Z</time>
      </trkpt>
      <trkpt lat="47.4936" lon="6.88505">
        <ele>391</ele>
        <time>2015-04-06T08:33:00.000Z</time>
      </trkpt>
      <trkpt lat="47.4936" lon="6.88499">
        <ele>391</ele>
        <time>2015-04-06T08:33:01.000Z</time>
      </trkpt>
      <trkpt lat="47.49359" lon="6.88492">
        <ele>391</ele>
        <time>2015-04-06T08:33:02.000Z</time>
      </trkpt>
      <trkpt lat="47.49358" lon="6.88484">
        <ele>390</ele>
        <time>2015-04-06T08:33:03.000Z</time>
      </trkpt>
      <trkpt lat="47.49357" lon="6.88477">
        <ele>390</ele>
        <time>2015-04-06T08:33:04.000Z</time>
      </trkpt>
      <trkpt lat="47.49356" lon="6.8847">
        <ele>390</ele>
        <time>2015-04-06T08:33:05.000Z</time>
      </trkpt>
      <trkpt lat="47.49357" lon="6.88464">
        <ele>390</ele>
        <time>2015-04-06T08:33:06.000Z</time>
      </trkpt>
      <trkpt lat="47.49358" lon="6.88458">
        <ele>390</ele>
        <time>2015-04-06T08:33:07.000Z</time>
      </trkpt>
      <trkpt lat="47.49359" lon="6.88453">
        <ele>390</ele>
        <time>2015-04-06T08:33:08.000Z</time>
      </trkpt>
      <trkpt lat="47.4936" lon="6.88448">
        <ele>390</ele>
        <time>2015-04-06T08:33:09.000Z</time>
      </trkpt>
      <trkpt lat="47.49361" lon="6.88443">
        <ele>390</ele>
        <time>2015-04-06T08:33:10.000Z</time>
      </trkpt>
      <trkpt lat="47.49361" lon="6.88437">
        <ele>390</ele>
        <time>2015-04-06T08:33:11.000Z</time>
      </trkpt>
      <trkpt lat="47.49361" lon="6.8843">
        <ele>390</ele>
        <time>2015-04-06T08:33:12.000Z</time>
      </trkpt>
      <trkpt lat="47.49361" lon="6.88423">
        <ele>390</ele>
        <time>2015-04-06T08:33:13.000Z</time>
      </trkpt>
      <trkpt lat="47.49361" lon="6.88416">
        <ele>389</ele>
        <time>2015-04-06T08:33:14.000Z</time>
      </trkpt>
      <trkpt lat="47.49361" lon="6.88409">
        <ele>389</ele>
        <time>2015-04-06T08:33:15.000Z</time>
      </trkpt>
      <trkpt lat="47.4936" lon="6.88401">
        <ele>388</ele>
        <time>2015-04-06T08:33:16.000Z</time>
      </trkpt>
      <trkpt lat="47.4936" lon="6.88395">
        <ele>388</ele>
        <time>2015-04-06T08:33:17.000Z</time>
      </trkpt>
      <trkpt lat="47.4936" lon="6.88389">
        <ele>388</ele>
        <time>2015-04-06T08:33:18.000Z</time>
      </trkpt>
      <trkpt lat="47.4936" lon="6.88383">
        <ele>388</ele>
        <time>2015-04-06T08:33:19.000Z</time>
      </trkpt>
      <trkpt lat="47.49361" lon="6.88377">
        <ele>388</ele>
        <time>2015-04-06T08:33:20.000Z</time>
      </trkpt>
      <trkpt lat="47.49361" lon="6.88371">
        <ele>388</ele>
        <time>2015-04-06T08:33:21.000Z</time>
      </trkpt>
      <trkpt lat="47.49361" lon="6.88365">
        <ele>387</ele>
        <time>2015-04-06T08:33:22.000Z</time>
      </trkpt>
      <trkpt lat="47.49361" lon="6.88358">
        <ele>387</ele>
        <time>2015-04-06T08:33:23.000Z</time>
      </trkpt>
      <trkpt lat="47.49362" lon="6.88352">
        <ele>387</ele>
        <time>2015-04-06T08:33:24.000Z</time>
      </trkpt>
      <trkpt lat="47.49362" lon="6.88347">
        <ele>387</ele>
        <time>2015-04-06T08:33:25.000Z</time>
      </trkpt>
      <trkpt lat="47.49361" lon="6.88341">
        <ele>387</ele>
        <time>2015-04-06T08:33:26.000Z</time>
      </trkpt>
      <trkpt lat="47.49361" lon="6.88336">
        <ele>387</ele>
        <time>2015-04-06T08:33:27.000Z</time>
      </trkpt>
      <trkpt lat="47.49361" lon="6.88331">
        <ele>385</ele>
        <time>2015-04-06T08:33:28.000Z</time>
      </trkpt>
      <trkpt lat="47.49361" lon="6.88326">
        <ele>385</ele>
        <time>2015-04-06T08:33:29.000Z</time>
      </trkpt>
      <trkpt lat="47.49361" lon="6.88321">
        <ele>385</ele>
        <time>2015-04-06T08:33:30.000Z</time>
      </trkpt>
      <trkpt lat="47.49361" lon="6.88314">
        <ele>385</ele>
        <time>2015-04-06T08:33:31.000Z</time>
      </trkpt>
      <trkpt lat="47.4936" lon="6.88308">
        <ele>385</ele>
        <time>2015-04-06T08:33:32.000Z</time>
      </trkpt>
      <trkpt lat="47.4936" lon="6.88302">
        <ele>384</ele>
        <time>2015-04-06T08:33:33.000Z</time>
      </trkpt>
      <trkpt lat="47.4936" lon="6.88296">
        <ele>384</ele>
        <time>2015-04-06T08:33:34.000Z</time>
      </trkpt>
      <trkpt lat="47.4936" lon="6.8829">
        <ele>384</ele>
        <time>2015-04-06T08:33:35.000Z</time>
      </trkpt>
      <trkpt lat="47.4936" lon="6.88284">
        <ele>384</ele>
        <time>2015-04-06T08:33:36.000Z</time>
      </trkpt>
      <trkpt lat="47.4936" lon="6.88277">
        <ele>384</ele>
        <time>2015-04-06T08:33:37.000Z</time>
      </trkpt>
      <trkpt lat="47.4936" lon="6.88271">
        <ele>384</ele>
        <time>2015-04-06T08:33:38.000Z</time>
      </trkpt>
      <trkpt lat="47.4936" lon="6.88266">
        <ele>384</ele>
        <time>2015-04-06T08:33:39.000Z</time>
      </trkpt>
      <trkpt lat="47.4936" lon="6.88261">
        <ele>384</ele>
        <time>2015-04-06T08:33:40.000Z</time>
      </trkpt>
      <trkpt lat="47.4936" lon="6.88255">
        <ele>384</ele>
        <time>2015-04-06T08:33:42.000Z</time>
      </trkpt>
      <trkpt lat="47.49359" lon="6.88252">
        <ele>384</ele>
        <time>2015-04-06T08:33:43.000Z</time>
      </trkpt>
      <trkpt lat="47.49358" lon="6.88247">
        <ele>383</ele>
        <time>2015-04-06T08:33:45.000Z</time>
      </trkpt>
      <trkpt lat="47.49357" lon="6.88245">
        <ele>383</ele>
        <time>2015-04-06T08:33:46.000Z</time>
      </trkpt>
      <trkpt lat="47.49353" lon="6.88241">
        <ele>383</ele>
        <time>2015-04-06T08:33:50.000Z</time>
      </trkpt>
      <trkpt lat="47.49353" lon="6.8824">
        <ele>383</ele>
        <time>2015-04-06T08:33:51.000Z</time>
      </trkpt>
      <trkpt lat="47.49349" lon="6.88239">
        <ele>383</ele>
        <time>2015-04-06T08:33:54.000Z</time>
      </trkpt>
      <trkpt lat="47.49348" lon="6.8824">
        <ele>383</ele>
        <time>2015-04-06T08:33:55.000Z</time>
      </trkpt>
      <trkpt lat="47.49344" lon="6.88239">
        <ele>384</ele>
        <time>2015-04-06T08:33:58.000Z</time>
      </trkpt>
      <trkpt lat="47.49342" lon="6.88239">
        <ele>384</ele>
        <time>2015-04-06T08:33:59.000Z</time>
      </trkpt>
      <trkpt lat="47.49339" lon="6.88238">
        <ele>384</ele>
        <time>2015-04-06T08:34:00.000Z</time>
      </trkpt>
      <trkpt lat="47.49336" lon="6.88239">
        <ele>384</ele>
        <time>2015-04-06T08:34:01.000Z</time>
      </trkpt>
      <trkpt lat="47.49333" lon="6.8824">
        <ele>386</ele>
        <time>2015-04-06T08:34:02.000Z</time>
      </trkpt>
      <trkpt lat="47.49332" lon="6.8824">
        <ele>386</ele>
        <time>2015-04-06T08:34:03.000Z</time>
      </trkpt>
      <trkpt lat="47.49328" lon="6.88238">
        <ele>386</ele>
        <time>2015-04-06T08:34:07.000Z</time>
      </trkpt>
      <trkpt lat="47.49327" lon="6.88237">
        <ele>386</ele>
        <time>2015-04-06T08:34:08.000Z</time>
      </trkpt>
      <trkpt lat="47.49323" lon="6.88236">
        <ele>387</ele>
        <time>2015-04-06T08:34:11.000Z</time>
      </trkpt>
      <trkpt lat="47.49322" lon="6.88237">
        <ele>387</ele>
        <time>2015-04-06T08:34:12.000Z</time>
      </trkpt>
      <trkpt lat="47.49319" lon="6.88239">
        <ele>387</ele>
        <time>2015-04-06T08:34:14.000Z</time>
      </trkpt>
      <trkpt lat="47.49317" lon="6.88239">
        <ele>387</ele>
        <time>2015-04-06T08:34:15.000Z</time>
      </trkpt>
      <trkpt lat="47.49314" lon="6.88239">
        <ele>387</ele>
        <time>2015-04-06T08:34:16.000Z</time>
      </trkpt>
      <trkpt lat="47.49312" lon="6.88239">
        <ele>387</ele>
        <time>2015-04-06T08:34:17.000Z</time>
      </trkpt>
      <trkpt lat="47.49307" lon="6.88239">
        <ele>388</ele>
        <time>2015-04-06T08:34:19.000Z</time>
      </trkpt>
      <trkpt lat="47.49306" lon="6.88238">
        <ele>388</ele>
        <time>2015-04-06T08:34:20.000Z</time>
      </trkpt>
      <trkpt lat="47.49303" lon="6.88238">
        <ele>388</ele>
        <time>2015-04-06T08:34:21.000Z</time>
      </trkpt>
      <trkpt lat="47.49301" lon="6.88236">
        <ele>388</ele>
        <time>2015-04-06T08:34:22.000Z</time>
      </trkpt>
      <trkpt lat="47.49298" lon="6.88234">
        <ele>389</ele>
        <time>2015-04-06T08:34:23.000Z</time>
      </trkpt>
      <trkpt lat="47.49296" lon="6.88231">
        <ele>389</ele>
        <time>2015-04-06T08:34:24.000Z</time>
      </trkpt>
      <trkpt lat="47.49294" lon="6.88229">
        <ele>389</ele>
        <time>2015-04-06T08:34:25.000Z</time>
      </trkpt>
      <trkpt lat="47.49292" lon="6.88227">
        <ele>389</ele>
        <time>2015-04-06T08:34:26.000Z</time>
      </trkpt>
      <trkpt lat="47.49289" lon="6.88225">
        <ele>389</ele>
        <time>2015-04-06T08:34:28.000Z</time>
      </trkpt>
      <trkpt lat="47.49287" lon="6.88226">
        <ele>390</ele>
        <time>2015-04-06T08:34:29.000Z</time>
      </trkpt>
      <trkpt lat="47.49283" lon="6.88228">
        <ele>390</ele>
        <time>2015-04-06T08:34:31.000Z</time>
      </trkpt>
      <trkpt lat="47.49281" lon="6.88227">
        <ele>390</ele>
        <time>2015-04-06T08:34:32.000Z</time>
      </trkpt>
      <trkpt lat="47.49277" lon="6.88226">
        <ele>390</ele>
        <time>2015-04-06T08:34:35.000Z</time>
      </trkpt>
      <trkpt lat="47.49275" lon="6.88225">
        <ele>390</ele>
        <time>2015-04-06T08:34:36.000Z</time>
      </trkpt>
      <trkpt lat="47.49272" lon="6.88223">
        <ele>390</ele>
        <time>2015-04-06T08:34:39.000Z</time>
      </trkpt>
      <trkpt lat="47.49271" lon="6.88222">
        <ele>390</ele>
        <time>2015-04-06T08:34:40.000Z</time>
      </trkpt>
      <trkpt lat="47.49268" lon="6.88221">
        <ele>391</ele>
        <time>2015-04-06T08:34:42.000Z</time>
      </trkpt>
      <trkpt lat="47.49266" lon="6.88221">
        <ele>391</ele>
        <time>2015-04-06T08:34:43.000Z</time>
      </trkpt>
      <trkpt lat="47.49262" lon="6.88219">
        <ele>391</ele>
        <time>2015-04-06T08:34:45.000Z</time>
      </trkpt>
      <trkpt lat="47.49259" lon="6.88219">
        <ele>391</ele>
        <time>2015-04-06T08:34:46.000Z</time>
      </trkpt>
      <trkpt lat="47.49257" lon="6.88219">
        <ele>391</ele>
        <time>2015-04-06T08:34:47.000Z</time>
      </trkpt>
      <trkpt lat="47.49254" lon="6.88219">
        <ele>391</ele>
        <time>2015-04-06T08:34:48.000Z</time>
      </trkpt>
      <trkpt lat="47.49252" lon="6.8822">
        <ele>391</ele>
        <time>2015-04-06T08:34:49.000Z</time>
      </trkpt>
      <trkpt lat="47.49249" lon="6.8822">
        <ele>396</ele>
        <time>2015-04-06T08:34:50.000Z</time>
      </trkpt>
      <trkpt lat="47.49246" lon="6.88222">
        <ele>396</ele>
        <time>2015-04-06T08:34:52.000Z</time>
      </trkpt>
      <trkpt lat="47.49244" lon="6.88224">
        <ele>396</ele>
        <time>2015-04-06T08:34:53.000Z</time>
      </trkpt>
      <trkpt lat="47.49242" lon="6.88226">
        <ele>396</ele>
        <time>2015-04-06T08:34:54.000Z</time>
      </trkpt>
      <trkpt lat="47.4924" lon="6.88228">
        <ele>396</ele>
        <time>2015-04-06T08:34:55.000Z</time>
      </trkpt>
      <trkpt lat="47.49238" lon="6.88229">
        <ele>396</ele>
        <time>2015-04-06T08:34:56.000Z</time>
      </trkpt>
      <trkpt lat="47.49236" lon="6.88229">
        <ele>396</ele>
        <time>2015-04-06T08:34:57.000Z</time>
      </trkpt>
      <trkpt lat="47.49232" lon="6.88228">
        <ele>397</ele>
        <time>2015-04-06T08:34:59.000Z</time>
      </trkpt>
      <trkpt lat="47.4923" lon="6.88227">
        <ele>397</ele>
        <time>2015-04-06T08:35:00.000Z</time>
      </trkpt>
      <trkpt lat="47.49226" lon="6.88225">
        <ele>397</ele>
        <time>2015-04-06T08:35:03.000Z</time>
      </trkpt>
      <trkpt lat="47.49224" lon="6.88224">
        <ele>397</ele>
        <time>2015-04-06T08:35:04.000Z</time>
      </trkpt>
      <trkpt lat="47.49221" lon="6.88222">
        <ele>397</ele>
        <time>2015-04-06T08:35:06.000Z</time>
      </trkpt>
      <trkpt lat="47.4922" lon="6.8822">
        <ele>397</ele>
        <time>2015-04-06T08:35:07.000Z</time>
      </trkpt>
      <trkpt lat="47.49216" lon="6.88218">
        <ele>397</ele>
        <time>2015-04-06T08:35:09.000Z</time>
      </trkpt>
      <trkpt lat="47.49214" lon="6.88217">
        <ele>398</ele>
        <time>2015-04-06T08:35:10.000Z</time>
      </trkpt>
      <trkpt lat="47.49212" lon="6.88216">
        <ele>398</ele>
        <time>2015-04-06T08:35:11.000Z</time>
      </trkpt>
      <trkpt lat="47.49209" lon="6.88215">
        <ele>398</ele>
        <time>2015-04-06T08:35:12.000Z</time>
      </trkpt>
      <trkpt lat="47.49207" lon="6.88214">
        <ele>398</ele>
        <time>2015-04-06T08:35:13.000Z</time>
      </trkpt>
      <trkpt lat="47.49204" lon="6.88213">
        <ele>398</ele>
        <time>2015-04-06T08:35:14.000Z</time>
      </trkpt>
      <trkpt lat="47.49202" lon="6.88212">
        <ele>398</ele>
        <time>2015-04-06T08:35:15.000Z</time>
      </trkpt>
      <trkpt lat="47.49199" lon="6.88212">
        <ele>398</ele>
        <time>2015-04-06T08:35:16.000Z</time>
      </trkpt>
      <trkpt lat="47.49197" lon="6.88212">
        <ele>398</ele>
        <time>2015-04-06T08:35:17.000Z</time>
      </trkpt>
      <trkpt lat="47.49194" lon="6.88211">
        <ele>398</ele>
        <time>2015-04-06T08:35:18.000Z</time>
      </trkpt>
      <trkpt lat="47.4919" lon="6.88211">
        <ele>399</ele>
        <time>2015-04-06T08:35:20.000Z</time>
      </trkpt>
      <trkpt lat="47.49188" lon="6.88211">
        <ele>399</ele>
        <time>2015-04-06T08:35:21.000Z</time>
      </trkpt>
      <trkpt lat="47.49185" lon="6.88213">
        <ele>399</ele>
        <time>2015-04-06T08:35:23.000Z</time>
      </trkpt>
      <trkpt lat="47.49183" lon="6.88214">
        <ele>399</ele>
        <time>2015-04-06T08:35:24.000Z</time>
      </trkpt>
      <trkpt lat="47.4918" lon="6.88216">
        <ele>399</ele>
        <time>2015-04-06T08:35:26.000Z</time>
      </trkpt>
      <trkpt lat="47.49178" lon="6.88216">
        <ele>399</ele>
        <time>2015-04-06T08:35:27.000Z</time>
      </trkpt>
      <trkpt lat="47.49175" lon="6.88216">
        <ele>399</ele>
        <time>2015-04-06T08:35:29.000Z</time>
      </trkpt>
      <trkpt lat="47.49173" lon="6.88216">
        <ele>399</ele>
        <time>2015-04-06T08:35:30.000Z</time>
      </trkpt>
      <trkpt lat="47.49169" lon="6.88217">
        <ele>399</ele>
        <time>2015-04-06T08:35:32.000Z</time>
      </trkpt>
      <trkpt lat="47.49167" lon="6.88217">
        <ele>399</ele>
        <time>2015-04-06T08:35:33.000Z</time>
      </trkpt>
      <trkpt lat="47.49163" lon="6.88217">
        <ele>403</ele>
        <time>2015-04-06T08:35:35.000Z</time>
      </trkpt>
      <trkpt lat="47.49162" lon="6.88218">
        <ele>403</ele>
        <time>2015-04-06T08:35:36.000Z</time>
      </trkpt>
      <trkpt lat="47.49158" lon="6.88218">
        <ele>403</ele>
        <time>2015-04-06T08:35:39.000Z</time>
      </trkpt>
      <trkpt lat="47.49157" lon="6.88218">
        <ele>403</ele>
        <time>2015-04-06T08:35:40.000Z</time>
      </trkpt>
      <trkpt lat="47.49153" lon="6.88218">
        <ele>403</ele>
        <time>2015-04-06T08:35:45.000Z</time>
      </trkpt>
      <trkpt lat="47.49152" lon="6.88219">
        <ele>403</ele>
        <time>2015-04-06T08:35:46.000Z</time>
      </trkpt>
      <trkpt lat="47.49148" lon="6.88221">
        <ele>403</ele>
        <time>2015-04-06T08:35:48.000Z</time>
      </trkpt>
      <trkpt lat="47.49147" lon="6.88221">
        <ele>403</ele>
        <time>2015-04-06T08:35:49.000Z</time>
      </trkpt>
      <trkpt lat="47.49144" lon="6.88222">
        <ele>403</ele>
        <time>2015-04-06T08:35:51.000Z</time>
      </trkpt>
      <trkpt lat="47.49142" lon="6.88222">
        <ele>403</ele>
        <time>2015-04-06T08:35:52.000Z</time>
      </trkpt>
      <trkpt lat="47.49139" lon="6.88223">
        <ele>403</ele>
        <time>2015-04-06T08:35:54.000Z</time>
      </trkpt>
      <trkpt lat="47.49138" lon="6.88223">
        <ele>403</ele>
        <time>2015-04-06T08:35:55.000Z</time>
      </trkpt>
      <trkpt lat="47.49134" lon="6.88227">
        <ele>403</ele>
        <time>2015-04-06T08:35:58.000Z</time>
      </trkpt>
      <trkpt lat="47.49133" lon="6.88229">
        <ele>403</ele>
        <time>2015-04-06T08:35:59.000Z</time>
      </trkpt>
      <trkpt lat="47.4913" lon="6.88231">
        <ele>403</ele>
        <time>2015-04-06T08:36:01.000Z</time>
      </trkpt>
      <trkpt lat="47.49128" lon="6.88232">
        <ele>403</ele>
        <time>2015-04-06T08:36:02.000Z</time>
      </trkpt>
      <trkpt lat="47.49125" lon="6.88232">
        <ele>403</ele>
        <time>2015-04-06T08:36:04.000Z</time>
      </trkpt>
      <trkpt lat="47.49123" lon="6.88233">
        <ele>403</ele>
        <time>2015-04-06T08:36:05.000Z</time>
      </trkpt>
      <trkpt lat="47.4912" lon="6.88236">
        <ele>403</ele>
        <time>2015-04-06T08:36:07.000Z</time>
      </trkpt>
      <trkpt lat="47.49118" lon="6.88236">
        <ele>403</ele>
        <time>2015-04-06T08:36:08.000Z</time>
      </trkpt>
      <trkpt lat="47.49115" lon="6.88236">
        <ele>403</ele>
        <time>2015-04-06T08:36:11.000Z</time>
      </trkpt>
      <trkpt lat="47.49114" lon="6.88236">
        <ele>403</ele>
        <time>2015-04-06T08:36:12.000Z</time>
      </trkpt>
      <trkpt lat="47.4911" lon="6.88234">
        <ele>404</ele>
        <time>2015-04-06T08:36:14.000Z</time>
      </trkpt>
      <trkpt lat="47.49109" lon="6.88234">
        <ele>404</ele>
        <time>2015-04-06T08:36:15.000Z</time>
      </trkpt>
      <trkpt lat="47.49104" lon="6.88232">
        <ele>404</ele>
        <time>2015-04-06T08:36:18.000Z</time>
      </trkpt>
      <trkpt lat="47.49103" lon="6.88232">
        <ele>404</ele>
        <time>2015-04-06T08:36:19.000Z</time>
      </trkpt>
      <trkpt lat="47.49099" lon="6.88233">
        <ele>404</ele>
        <time>2015-04-06T08:36:23.000Z</time>
      </trkpt>
      <trkpt lat="47.49098" lon="6.88233">
        <ele>404</ele>
        <time>2015-04-06T08:36:24.000Z</time>
      </trkpt>
      <trkpt lat="47.49094" lon="6.88235">
        <ele>404</ele>
        <time>2015-04-06T08:36:26.000Z</time>
      </trkpt>
      <trkpt lat="47.49092" lon="6.88235">
        <ele>404</ele>
        <time>2015-04-06T08:36:27.000Z</time>
      </trkpt>
      <trkpt lat="47.49089" lon="6.88235">
        <ele>404</ele>
        <time>2015-04-06T08:36:30.000Z</time>
      </trkpt>
      <trkpt lat="47.49087" lon="6.88234">
        <ele>404</ele>
        <time>2015-04-06T08:36:31.000Z</time>
      </trkpt>
      <trkpt lat="47.49084" lon="6.88233">
        <ele>404</ele>
        <time>2015-04-06T08:36:34.000Z</time>
      </trkpt>
      <trkpt lat="47.49083" lon="6.88232">
        <ele>404</ele>
        <time>2015-04-06T08:36:35.000Z</time>
      </trkpt>
      <trkpt lat="47.49079" lon="6.88232">
        <ele>404</ele>
        <time>2015-04-06T08:36:38.000Z</time>
      </trkpt>
      <trkpt lat="47.49078" lon="6.88232">
        <ele>404</ele>
        <time>2015-04-06T08:36:39.000Z</time>
      </trkpt>
      <trkpt lat="47.49075" lon="6.88231">
        <ele>404</ele>
        <time>2015-04-06T08:36:42.000Z</time>
      </trkpt>
      <trkpt lat="47.49073" lon="6.88231">
        <ele>404</ele>
        <time>2015-04-06T08:36:43.000Z</time>
      </trkpt>
      <trkpt lat="47.4907" lon="6.88232">
        <ele>404</ele>
        <time>2015-04-06T08:36:44.000Z</time>
      </trkpt>
      <trkpt lat="47.49067" lon="6.88232">
        <ele>404</ele>
        <time>2015-04-06T08:36:45.000Z</time>
      </trkpt>
      <trkpt lat="47.49065" lon="6.88232">
        <ele>404</ele>
        <time>2015-04-06T08:36:46.000Z</time>
      </trkpt>
      <trkpt lat="47.49062" lon="6.88232">
        <ele>404</ele>
        <time>2015-04-06T08:36:47.000Z</time>
      </trkpt>
      <trkpt lat="47.49058" lon="6.88231">
        <ele>404</ele>
        <time>2015-04-06T08:36:49.000Z</time>
      </trkpt>
      <trkpt lat="47.49057" lon="6.88232">
        <ele>404</ele>
        <time>2015-04-06T08:36:50.000Z</time>
      </trkpt>
      <trkpt lat="47.49053" lon="6.88233">
        <ele>404</ele>
        <time>2015-04-06T08:36:53.000Z</time>
      </trkpt>
      <trkpt lat="47.49051" lon="6.88233">
        <ele>404</ele>
        <time>2015-04-06T08:36:54.000Z</time>
      </trkpt>
      <trkpt lat="47.49048" lon="6.88232">
        <ele>404</ele>
        <time>2015-04-06T08:36:56.000Z</time>
      </trkpt>
      <trkpt lat="47.49045" lon="6.88232">
        <ele>404</ele>
        <time>2015-04-06T08:36:57.000Z</time>
      </trkpt>
      <trkpt lat="47.49042" lon="6.8823">
        <ele>404</ele>
        <time>2015-04-06T08:36:59.000Z</time>
      </trkpt>
      <trkpt lat="47.4904" lon="6.88228">
        <ele>404</ele>
        <time>2015-04-06T08:37:00.000Z</time>
      </trkpt>
      <trkpt lat="47.49038" lon="6.88226">
        <ele>404</ele>
        <time>2015-04-06T08:37:01.000Z</time>
      </trkpt>
      <trkpt lat="47.49037" lon="6.88223">
        <ele>404</ele>
        <time>2015-04-06T08:37:02.000Z</time>
      </trkpt>
      <trkpt lat="47.49033" lon="6.88221">
        <ele>404</ele>
        <time>2015-04-06T08:37:04.000Z</time>
      </trkpt>
      <trkpt lat="47.49032" lon="6.8822">
        <ele>404</ele>
        <time>2015-04-06T08:37:05.001Z</time>
      </trkpt>
      <trkpt lat="47.4903" lon="6.8822">
        <ele>404</ele>
        <time>2015-04-06T08:37:06.000Z</time>
      </trkpt>
      <trkpt lat="47.49028" lon="6.8822">
        <ele>404</ele>
        <time>2015-04-06T08:37:07.000Z</time>
      </trkpt>
      <trkpt lat="47.49024" lon="6.88222">
        <ele>404</ele>
        <time>2015-04-06T08:37:09.000Z</time>
      </trkpt>
      <trkpt lat="47.49023" lon="6.88223">
        <ele>404</ele>
        <time>2015-04-06T08:37:10.000Z</time>
      </trkpt>
      <trkpt lat="47.49019" lon="6.88224">
        <ele>404</ele>
        <time>2015-04-06T08:37:14.000Z</time>
      </trkpt>
      <trkpt lat="47.49018" lon="6.88225">
        <ele>404</ele>
        <time>2015-04-06T08:37:15.000Z</time>
      </trkpt>
      <trkpt lat="47.49015" lon="6.88228">
        <ele>404</ele>
        <time>2015-04-06T08:37:18.000Z</time>
      </trkpt>
      <trkpt lat="47.49015" lon="6.8823">
        <ele>404</ele>
        <time>2015-04-06T08:37:19.000Z</time>
      </trkpt>
      <trkpt lat="47.49012" lon="6.88233">
        <ele>404</ele>
        <time>2015-04-06T08:37:21.000Z</time>
      </trkpt>
      <trkpt lat="47.4901" lon="6.88235">
        <ele>404</ele>
        <time>2015-04-06T08:37:22.000Z</time>
      </trkpt>
      <trkpt lat="47.49006" lon="6.88236">
        <ele>404</ele>
        <time>2015-04-06T08:37:24.000Z</time>
      </trkpt>
      <trkpt lat="47.49005" lon="6.88236">
        <ele>404</ele>
        <time>2015-04-06T08:37:25.000Z</time>
      </trkpt>
      <trkpt lat="47.49001" lon="6.88238">
        <ele>404</ele>
        <time>2015-04-06T08:37:27.000Z</time>
      </trkpt>
      <trkpt lat="47.48999" lon="6.88239">
        <ele>403</ele>
        <time>2015-04-06T08:37:28.000Z</time>
      </trkpt>
      <trkpt lat="47.48997" lon="6.88241">
        <ele>403</ele>
        <time>2015-04-06T08:37:29.000Z</time>
      </trkpt>
      <trkpt lat="47.48995" lon="6.88243">
        <ele>403</ele>
        <time>2015-04-06T08:37:30.000Z</time>
      </trkpt>
      <trkpt lat="47.48992" lon="6.88239">
        <ele>402</ele>
        <time>2015-04-06T08:37:37.000Z</time>
      </trkpt>
      <trkpt lat="47.48991" lon="6.88241">
        <ele>402</ele>
        <time>2015-04-06T08:37:38.000Z</time>
      </trkpt>
      <trkpt lat="47.48989" lon="6.88243">
        <ele>402</ele>
        <time>2015-04-06T08:37:39.000Z</time>
      </trkpt>
      <trkpt lat="47.48987" lon="6.88245">
        <ele>402</ele>
        <time>2015-04-06T08:37:40.000Z</time>
      </trkpt>
      <trkpt lat="47.48983" lon="6.88247">
        <ele>402</ele>
        <time>2015-04-06T08:37:41.000Z</time>
      </trkpt>
      <trkpt lat="47.4898" lon="6.88249">
        <ele>402</ele>
        <time>2015-04-06T08:37:42.000Z</time>
      </trkpt>
      <trkpt lat="47.48976" lon="6.88251">
        <ele>404</ele>
        <time>2015-04-06T08:37:43.000Z</time>
      </trkpt>
      <trkpt lat="47.48972" lon="6.88252">
        <ele>404</ele>
        <time>2015-04-06T08:37:44.000Z</time>
      </trkpt>
      <trkpt lat="47.4897" lon="6.88253">
        <ele>403</ele>
        <time>2015-04-06T08:37:45.001Z</time>
      </trkpt>
      <trkpt lat="47.48964" lon="6.88256">
        <ele>403</ele>
        <time>2015-04-06T08:37:46.000Z</time>
      </trkpt>
      <trkpt lat="47.48961" lon="6.88258">
        <ele>403</ele>
        <time>2015-04-06T08:37:47.000Z</time>
      </trkpt>
      <trkpt lat="47.48957" lon="6.8826">
        <ele>403</ele>
        <time>2015-04-06T08:37:48.000Z</time>
      </trkpt>
      <trkpt lat="47.48954" lon="6.88261">
        <ele>403</ele>
        <time>2015-04-06T08:37:49.000Z</time>
      </trkpt>
      <trkpt lat="47.48951" lon="6.88262">
        <ele>403</ele>
        <time>2015-04-06T08:37:50.000Z</time>
      </trkpt>
      <trkpt lat="47.48949" lon="6.88263">
        <ele>403</ele>
        <time>2015-04-06T08:37:51.000Z</time>
      </trkpt>
      <trkpt lat="47.48946" lon="6.88263">
        <ele>403</ele>
        <time>2015-04-06T08:37:52.000Z</time>
      </trkpt>
      <trkpt lat="47.48943" lon="6.88264">
        <ele>403</ele>
        <time>2015-04-06T08:37:53.000Z</time>
      </trkpt>
      <trkpt lat="47.4894" lon="6.88264">
        <ele>402</ele>
        <time>2015-04-06T08:37:54.000Z</time>
      </trkpt>
      <trkpt lat="47.48937" lon="6.88265">
        <ele>402</ele>
        <time>2015-04-06T08:37:55.000Z</time>
      </trkpt>
      <trkpt lat="47.48934" lon="6.88265">
        <ele>402</ele>
        <time>2015-04-06T08:37:56.000Z</time>
      </trkpt>
      <trkpt lat="47.48931" lon="6.88266">
        <ele>402</ele>
        <time>2015-04-06T08:37:57.000Z</time>
      </trkpt>
      <trkpt lat="47.48929" lon="6.88266">
        <ele>402</ele>
        <time>2015-04-06T08:37:58.000Z</time>
      </trkpt>
      <trkpt lat="47.48926" lon="6.88266">
        <ele>402</ele>
        <time>2015-04-06T08:37:59.000Z</time>
      </trkpt>
      <trkpt lat="47.48916" lon="6.8828">
        <ele>401</ele>
        <time>2015-04-06T08:38:00.000Z</time>
      </trkpt>
      <trkpt lat="47.48912" lon="6.88285">
        <ele>401</ele>
        <time>2015-04-06T08:38:01.000Z</time>
      </trkpt>
      <trkpt lat="47.48909" lon="6.88288">
        <ele>401</ele>
        <time>2015-04-06T08:38:02.000Z</time>
      </trkpt>
      <trkpt lat="47.48904" lon="6.8829">
        <ele>401</ele>
        <time>2015-04-06T08:38:03.000Z</time>
      </trkpt>
      <trkpt lat="47.489" lon="6.88292">
        <ele>401</ele>
        <time>2015-04-06T08:38:04.000Z</time>
      </trkpt>
      <trkpt lat="47.48895" lon="6.88294">
        <ele>401</ele>
        <time>2015-04-06T08:38:05.000Z</time>
      </trkpt>
      <trkpt lat="47.4889" lon="6.88296">
        <ele>401</ele>
        <time>2015-04-06T08:38:06.000Z</time>
      </trkpt>
      <trkpt lat="47.48886" lon="6.88299">
        <ele>401</ele>
        <time>2015-04-06T08:38:07.000Z</time>
      </trkpt>
      <trkpt lat="47.48882" lon="6.883">
        <ele>401</ele>
        <time>2015-04-06T08:38:08.000Z</time>
      </trkpt>
      <trkpt lat="47.48875" lon="6.883">
        <ele>401</ele>
        <time>2015-04-06T08:38:09.000Z</time>
      </trkpt>
      <trkpt lat="47.48871" lon="6.88301">
        <ele>401</ele>
        <time>2015-04-06T08:38:10.000Z</time>
      </trkpt>
      <trkpt lat="47.48869" lon="6.88302">
        <ele>401</ele>
        <time>2015-04-06T08:38:11.000Z</time>
      </trkpt>
      <trkpt lat="47.48866" lon="6.88302">
        <ele>401</ele>
        <time>2015-04-06T08:38:12.000Z</time>
      </trkpt>
      <trkpt lat="47.48863" lon="6.88303">
        <ele>401</ele>
        <time>2015-04-06T08:38:13.000Z</time>
      </trkpt>
      <trkpt lat="47.48861" lon="6.88304">
        <ele>401</ele>
        <time>2015-04-06T08:38:14.000Z</time>
      </trkpt>
      <trkpt lat="47.48858" lon="6.88304">
        <ele>401</ele>
        <time>2015-04-06T08:38:15.000Z</time>
      </trkpt>
      <trkpt lat="47.48856" lon="6.88305">
        <ele>401</ele>
        <time>2015-04-06T08:38:16.000Z</time>
      </trkpt>
      <trkpt lat="47.48853" lon="6.88305">
        <ele>400</ele>
        <time>2015-04-06T08:38:17.000Z</time>
      </trkpt>
      <trkpt lat="47.48851" lon="6.88306">
        <ele>400</ele>
        <time>2015-04-06T08:38:18.000Z</time>
      </trkpt>
      <trkpt lat="47.48849" lon="6.88306">
        <ele>400</ele>
        <time>2015-04-06T08:38:19.000Z</time>
      </trkpt>
      <trkpt lat="47.48846" lon="6.88307">
        <ele>400</ele>
        <time>2015-04-06T08:38:20.000Z</time>
      </trkpt>
      <trkpt lat="47.48844" lon="6.88308">
        <ele>400</ele>
        <time>2015-04-06T08:38:21.000Z</time>
      </trkpt>
      <trkpt lat="47.48841" lon="6.88308">
        <ele>400</ele>
        <time>2015-04-06T08:38:22.000Z</time>
      </trkpt>
      <trkpt lat="47.48839" lon="6.88309">
        <ele>400</ele>
        <time>2015-04-06T08:38:23.000Z</time>
      </trkpt>
      <trkpt lat="47.48836" lon="6.8831">
        <ele>400</ele>
        <time>2015-04-06T08:38:24.000Z</time>
      </trkpt>
      <trkpt lat="47.48833" lon="6.88312">
        <ele>401</ele>
        <time>2015-04-06T08:38:25.000Z</time>
      </trkpt>
      <trkpt lat="47.48831" lon="6.88314">
        <ele>401</ele>
        <time>2015-04-06T08:38:26.000Z</time>
      </trkpt>
      <trkpt lat="47.48828" lon="6.88315">
        <ele>401</ele>
        <time>2015-04-06T08:38:27.000Z</time>
      </trkpt>
      <trkpt lat="47.48826" lon="6.88317">
        <ele>401</ele>
        <time>2015-04-06T08:38:28.000Z</time>
      </trkpt>
      <trkpt lat="47.48823" lon="6.88319">
        <ele>401</ele>
        <time>2015-04-06T08:38:29.000Z</time>
      </trkpt>
      <trkpt lat="47.4882" lon="6.88321">
        <ele>401</ele>
        <time>2015-04-06T08:38:30.000Z</time>
      </trkpt>
      <trkpt lat="47.48817" lon="6.88324">
        <ele>401</ele>
        <time>2015-04-06T08:38:31.000Z</time>
      </trkpt>
      <trkpt lat="47.48814" lon="6.88326">
        <ele>401</ele>
        <time>2015-04-06T08:38:32.000Z</time>
      </trkpt>
      <trkpt lat="47.4881" lon="6.88329">
        <ele>401</ele>
        <time>2015-04-06T08:38:33.000Z</time>
      </trkpt>
      <trkpt lat="47.48807" lon="6.88331">
        <ele>401</ele>
        <time>2015-04-06T08:38:34.000Z</time>
      </trkpt>
      <trkpt lat="47.48803" lon="6.88333">
        <ele>401</ele>
        <time>2015-04-06T08:38:35.000Z</time>
      </trkpt>
      <trkpt lat="47.488" lon="6.88335">
        <ele>404</ele>
        <time>2015-04-06T08:38:36.000Z</time>
      </trkpt>
      <trkpt lat="47.48796" lon="6.88337">
        <ele>404</ele>
        <time>2015-04-06T08:38:37.000Z</time>
      </trkpt>
      <trkpt lat="47.48793" lon="6.88338">
        <ele>404</ele>
        <time>2015-04-06T08:38:38.000Z</time>
      </trkpt>
      <trkpt lat="47.4879" lon="6.8834">
        <ele>404</ele>
        <time>2015-04-06T08:38:39.000Z</time>
      </trkpt>
      <trkpt lat="47.48787" lon="6.88342">
        <ele>404</ele>
        <time>2015-04-06T08:38:40.000Z</time>
      </trkpt>
      <trkpt lat="47.48784" lon="6.88343">
        <ele>404</ele>
        <time>2015-04-06T08:38:41.000Z</time>
      </trkpt>
      <trkpt lat="47.48781" lon="6.88343">
        <ele>405</ele>
        <time>2015-04-06T08:38:42.000Z</time>
      </trkpt>
      <trkpt lat="47.48779" lon="6.88344">
        <ele>405</ele>
        <time>2015-04-06T08:38:43.000Z</time>
      </trkpt>
      <trkpt lat="47.48776" lon="6.88345">
        <ele>405</ele>
        <time>2015-04-06T08:38:44.000Z</time>
      </trkpt>
      <trkpt lat="47.48774" lon="6.88346">
        <ele>405</ele>
        <time>2015-04-06T08:38:45.000Z</time>
      </trkpt>
      <trkpt lat="47.4877" lon="6.88348">
        <ele>405</ele>
        <time>2015-04-06T08:38:47.000Z</time>
      </trkpt>
      <trkpt lat="47.48768" lon="6.88348">
        <ele>405</ele>
        <time>2015-04-06T08:38:48.000Z</time>
      </trkpt>
      <trkpt lat="47.48766" lon="6.8835">
        <ele>405</ele>
        <time>2015-04-06T08:38:49.000Z</time>
      </trkpt>
      <trkpt lat="47.48763" lon="6.88351">
        <ele>405</ele>
        <time>2015-04-06T08:38:50.000Z</time>
      </trkpt>
      <trkpt lat="47.48761" lon="6.88351">
        <ele>405</ele>
        <time>2015-04-06T08:38:51.000Z</time>
      </trkpt>
      <trkpt lat="47.48758" lon="6.88352">
        <ele>405</ele>
        <time>2015-04-06T08:38:52.000Z</time>
      </trkpt>
      <trkpt lat="47.48756" lon="6.88352">
        <ele>405</ele>
        <time>2015-04-06T08:38:53.000Z</time>
      </trkpt>
      <trkpt lat="47.48753" lon="6.88353">
        <ele>405</ele>
        <time>2015-04-06T08:38:54.000Z</time>
      </trkpt>
      <trkpt lat="47.48749" lon="6.88355">
        <ele>406</ele>
        <time>2015-04-06T08:38:56.000Z</time>
      </trkpt>
      <trkpt lat="47.48748" lon="6.88356">
        <ele>406</ele>
        <time>2015-04-06T08:38:57.000Z</time>
      </trkpt>
      <trkpt lat="47.48745" lon="6.88359">
        <ele>407</ele>
        <time>2015-04-06T08:38:59.000Z</time>
      </trkpt>
      <trkpt lat="47.48743" lon="6.88361">
        <ele>407</ele>
        <time>2015-04-06T08:39:00.000Z</time>
      </trkpt>
      <trkpt lat="47.4874" lon="6.88364">
        <ele>407</ele>
        <time>2015-04-06T08:39:02.000Z</time>
      </trkpt>
      <trkpt lat="47.48738" lon="6.88365">
        <ele>407</ele>
        <time>2015-04-06T08:39:03.000Z</time>
      </trkpt>
      <trkpt lat="47.48735" lon="6.88368">
        <ele>407</ele>
        <time>2015-04-06T08:39:05.000Z</time>
      </trkpt>
      <trkpt lat="47.48734" lon="6.8837">
        <ele>407</ele>
        <time>2015-04-06T08:39:06.000Z</time>
      </trkpt>
      <trkpt lat="47.48732" lon="6.88371">
        <ele>407</ele>
        <time>2015-04-06T08:39:07.000Z</time>
      </trkpt>
      <trkpt lat="47.48729" lon="6.88372">
        <ele>407</ele>
        <time>2015-04-06T08:39:08.000Z</time>
      </trkpt>
      <trkpt lat="47.48725" lon="6.88373">
        <ele>408</ele>
        <time>2015-04-06T08:39:10.000Z</time>
      </trkpt>
      <trkpt lat="47.48724" lon="6.88373">
        <ele>408</ele>
        <time>2015-04-06T08:39:11.000Z</time>
      </trkpt>
      <trkpt lat="47.4872" lon="6.88375">
        <ele>408</ele>
        <time>2015-04-06T08:39:15.000Z</time>
      </trkpt>
      <trkpt lat="47.48719" lon="6.88376">
        <ele>408</ele>
        <time>2015-04-06T08:39:16.000Z</time>
      </trkpt>
      <trkpt lat="47.48717" lon="6.88379">
        <ele>408</ele>
        <time>2015-04-06T08:39:18.000Z</time>
      </trkpt>
      <trkpt lat="47.48715" lon="6.8838">
        <ele>408</ele>
        <time>2015-04-06T08:39:19.000Z</time>
      </trkpt>
      <trkpt lat="47.48712" lon="6.88384">
        <ele>408</ele>
        <time>2015-04-06T08:39:23.000Z</time>
      </trkpt>
      <trkpt lat="47.48711" lon="6.88384">
        <ele>408</ele>
        <time>2015-04-06T08:39:24.000Z</time>
      </trkpt>
      <trkpt lat="47.48709" lon="6.88389">
        <ele>408</ele>
        <time>2015-04-06T08:39:29.000Z</time>
      </trkpt>
      <trkpt lat="47.48707" lon="6.88389">
        <ele>408</ele>
        <time>2015-04-06T08:39:30.000Z</time>
      </trkpt>
      <trkpt lat="47.48704" lon="6.88386">
        <ele>408</ele>
        <time>2015-04-06T08:39:34.000Z</time>
      </trkpt>
      <trkpt lat="47.48702" lon="6.88386">
        <ele>408</ele>
        <time>2015-04-06T08:39:35.000Z</time>
      </trkpt>
      <trkpt lat="47.48699" lon="6.88386">
        <ele>408</ele>
        <time>2015-04-06T08:39:37.000Z</time>
      </trkpt>
      <trkpt lat="47.48698" lon="6.88385">
        <ele>408</ele>
        <time>2015-04-06T08:39:38.000Z</time>
      </trkpt>
      <trkpt lat="47.48694" lon="6.88383">
        <ele>408</ele>
        <time>2015-04-06T08:39:41.000Z</time>
      </trkpt>
      <trkpt lat="47.48692" lon="6.88383">
        <ele>409</ele>
        <time>2015-04-06T08:39:42.000Z</time>
      </trkpt>
      <trkpt lat="47.48688" lon="6.88384">
        <ele>409</ele>
        <time>2015-04-06T08:39:44.000Z</time>
      </trkpt>
      <trkpt lat="47.48685" lon="6.88385">
        <ele>409</ele>
        <time>2015-04-06T08:39:45.000Z</time>
      </trkpt>
      <trkpt lat="47.48683" lon="6.88386">
        <ele>409</ele>
        <time>2015-04-06T08:39:46.000Z</time>
      </trkpt>
      <trkpt lat="47.48681" lon="6.88386">
        <ele>409</ele>
        <time>2015-04-06T08:39:47.000Z</time>
      </trkpt>
      <trkpt lat="47.48676" lon="6.88388">
        <ele>409</ele>
        <time>2015-04-06T08:39:49.000Z</time>
      </trkpt>
      <trkpt lat="47.48674" lon="6.88389">
        <ele>409</ele>
        <time>2015-04-06T08:39:50.000Z</time>
      </trkpt>
      <trkpt lat="47.48671" lon="6.8839">
        <ele>409</ele>
        <time>2015-04-06T08:39:52.000Z</time>
      </trkpt>
      <trkpt lat="47.48669" lon="6.88389">
        <ele>409</ele>
        <time>2015-04-06T08:39:53.000Z</time>
      </trkpt>
      <trkpt lat="47.48664" lon="6.88389">
        <ele>411</ele>
        <time>2015-04-06T08:39:55.000Z</time>
      </trkpt>
      <trkpt lat="47.48662" lon="6.88389">
        <ele>411</ele>
        <time>2015-04-06T08:39:56.000Z</time>
      </trkpt>
      <trkpt lat="47.4866" lon="6.88391">
        <ele>411</ele>
        <time>2015-04-06T08:39:57.000Z</time>
      </trkpt>
      <trkpt lat="47.48658" lon="6.88393">
        <ele>411</ele>
        <time>2015-04-06T08:39:58.000Z</time>
      </trkpt>
      <trkpt lat="47.48654" lon="6.88397">
        <ele>412</ele>
        <time>2015-04-06T08:40:01.000Z</time>
      </trkpt>
      <trkpt lat="47.48653" lon="6.88398">
        <ele>412</ele>
        <time>2015-04-06T08:40:02.000Z</time>
      </trkpt>
      <trkpt lat="47.4865" lon="6.88397">
        <ele>412</ele>
        <time>2015-04-06T08:40:05.000Z</time>
      </trkpt>
      <trkpt lat="47.48648" lon="6.88396">
        <ele>412</ele>
        <time>2015-04-06T08:40:06.000Z</time>
      </trkpt>
      <trkpt lat="47.48644" lon="6.88395">
        <ele>412</ele>
        <time>2015-04-06T08:40:09.000Z</time>
      </trkpt>
      <trkpt lat="47.48643" lon="6.88395">
        <ele>412</ele>
        <time>2015-04-06T08:40:10.000Z</time>
      </trkpt>
      <trkpt lat="47.48639" lon="6.88396">
        <ele>412</ele>
        <time>2015-04-06T08:40:13.000Z</time>
      </trkpt>
      <trkpt lat="47.48638" lon="6.88397">
        <ele>412</ele>
        <time>2015-04-06T08:40:14.000Z</time>
      </trkpt>
      <trkpt lat="47.48635" lon="6.88397">
        <ele>412</ele>
        <time>2015-04-06T08:40:16.000Z</time>
      </trkpt>
      <trkpt lat="47.48633" lon="6.88397">
        <ele>412</ele>
        <time>2015-04-06T08:40:17.000Z</time>
      </trkpt>
      <trkpt lat="47.48631" lon="6.88396">
        <ele>412</ele>
        <time>2015-04-06T08:40:18.000Z</time>
      </trkpt>
      <trkpt lat="47.48628" lon="6.88395">
        <ele>412</ele>
        <time>2015-04-06T08:40:19.000Z</time>
      </trkpt>
      <trkpt lat="47.48625" lon="6.88394">
        <ele>412</ele>
        <time>2015-04-06T08:40:20.000Z</time>
      </trkpt>
      <trkpt lat="47.48623" lon="6.88394">
        <ele>412</ele>
        <time>2015-04-06T08:40:21.000Z</time>
      </trkpt>
      <trkpt lat="47.48619" lon="6.88395">
        <ele>412</ele>
        <time>2015-04-06T08:40:23.000Z</time>
      </trkpt>
      <trkpt lat="47.48617" lon="6.88396">
        <ele>412</ele>
        <time>2015-04-06T08:40:24.000Z</time>
      </trkpt>
      <trkpt lat="47.48613" lon="6.88397">
        <ele>412</ele>
        <time>2015-04-06T08:40:26.000Z</time>
      </trkpt>
      <trkpt lat="47.48611" lon="6.88397">
        <ele>412</ele>
        <time>2015-04-06T08:40:27.000Z</time>
      </trkpt>
      <trkpt lat="47.48608" lon="6.88395">
        <ele>413</ele>
        <time>2015-04-06T08:40:29.000Z</time>
      </trkpt>
      <trkpt lat="47.48606" lon="6.88394">
        <ele>413</ele>
        <time>2015-04-06T08:40:30.000Z</time>
      </trkpt>
      <trkpt lat="47.48602" lon="6.88393">
        <ele>413</ele>
        <time>2015-04-06T08:40:32.000Z</time>
      </trkpt>
      <trkpt lat="47.48601" lon="6.88394">
        <ele>413</ele>
        <time>2015-04-06T08:40:33.000Z</time>
      </trkpt>
      <trkpt lat="47.48598" lon="6.88394">
        <ele>413</ele>
        <time>2015-04-06T08:40:34.000Z</time>
      </trkpt>
      <trkpt lat="47.48596" lon="6.88396">
        <ele>413</ele>
        <time>2015-04-06T08:40:35.000Z</time>
      </trkpt>
      <trkpt lat="47.48594" lon="6.88398">
        <ele>413</ele>
        <time>2015-04-06T08:40:36.000Z</time>
      </trkpt>
      <trkpt lat="47.48592" lon="6.884">
        <ele>413</ele>
        <time>2015-04-06T08:40:37.000Z</time>
      </trkpt>
      <trkpt lat="47.4859" lon="6.88402">
        <ele>413</ele>
        <time>2015-04-06T08:40:38.000Z</time>
      </trkpt>
      <trkpt lat="47.48588" lon="6.88404">
        <ele>413</ele>
        <time>2015-04-06T08:40:39.000Z</time>
      </trkpt>
      <trkpt lat="47.48586" lon="6.88406">
        <ele>413</ele>
        <time>2015-04-06T08:40:40.000Z</time>
      </trkpt>
      <trkpt lat="47.48584" lon="6.88407">
        <ele>413</ele>
        <time>2015-04-06T08:40:41.000Z</time>
      </trkpt>
      <trkpt lat="47.48583" lon="6.88415">
        <ele>414</ele>
        <time>2015-04-06T08:40:42.000Z</time>
      </trkpt>
      <trkpt lat="47.48582" lon="6.88416">
        <ele>414</ele>
        <time>2015-04-06T08:40:43.000Z</time>
      </trkpt>
      <trkpt lat="47.48578" lon="6.8842">
        <ele>414</ele>
        <time>2015-04-06T08:40:44.000Z</time>
      </trkpt>
      <trkpt lat="47.48575" lon="6.88422">
        <ele>414</ele>
        <time>2015-04-06T08:40:46.000Z</time>
      </trkpt>
      <trkpt lat="47.48573" lon="6.8842">
        <ele>414</ele>
        <time>2015-04-06T08:40:47.000Z</time>
      </trkpt>
      <trkpt lat="47.48569" lon="6.88416">
        <ele>414</ele>
        <time>2015-04-06T08:40:48.000Z</time>
      </trkpt>
      <trkpt lat="47.48567" lon="6.88415">
        <ele>414</ele>
        <time>2015-04-06T08:40:49.000Z</time>
      </trkpt>
      <trkpt lat="47.48563" lon="6.88414">
        <ele>414</ele>
        <time>2015-04-06T08:40:51.000Z</time>
      </trkpt>
      <trkpt lat="47.4856" lon="6.88414">
        <ele>414</ele>
        <time>2015-04-06T08:40:52.000Z</time>
      </trkpt>
      <trkpt lat="47.48556" lon="6.88414">
        <ele>415</ele>
        <time>2015-04-06T08:40:54.000Z</time>
      </trkpt>
      <trkpt lat="47.48553" lon="6.88415">
        <ele>415</ele>
        <time>2015-04-06T08:40:55.000Z</time>
      </trkpt>
      <trkpt lat="47.48549" lon="6.88415">
        <ele>415</ele>
        <time>2015-04-06T08:40:57.000Z</time>
      </trkpt>
      <trkpt lat="47.48548" lon="6.88414">
        <ele>415</ele>
        <time>2015-04-06T08:40:58.000Z</time>
      </trkpt>
      <trkpt lat="47.48545" lon="6.88411">
        <ele>415</ele>
        <time>2015-04-06T08:41:01.000Z</time>
      </trkpt>
      <trkpt lat="47.48544" lon="6.8841">
        <ele>415</ele>
        <time>2015-04-06T08:41:02.000Z</time>
      </trkpt>
      <trkpt lat="47.4854" lon="6.88411">
        <ele>415</ele>
        <time>2015-04-06T08:41:05.000Z</time>
      </trkpt>
      <trkpt lat="47.48538" lon="6.88412">
        <ele>415</ele>
        <time>2015-04-06T08:41:06.000Z</time>
      </trkpt>
      <trkpt lat="47.48535" lon="6.8841">
        <ele>415</ele>
        <time>2015-04-06T08:41:13.000Z</time>
      </trkpt>
      <trkpt lat="47.48533" lon="6.88411">
        <ele>415</ele>
        <time>2015-04-06T08:41:14.000Z</time>
      </trkpt>
      <trkpt lat="47.48532" lon="6.88413">
        <ele>415</ele>
        <time>2015-04-06T08:41:15.000Z</time>
      </trkpt>
      <trkpt lat="47.48528" lon="6.88415">
        <ele>415</ele>
        <time>2015-04-06T08:41:16.000Z</time>
      </trkpt>
      <trkpt lat="47.48524" lon="6.88418">
        <ele>414</ele>
        <time>2015-04-06T08:41:19.000Z</time>
      </trkpt>
      <trkpt lat="47.48523" lon="6.88419">
        <ele>414</ele>
        <time>2015-04-06T08:41:20.000Z</time>
      </trkpt>
      <trkpt lat="47.4852" lon="6.88422">
        <ele>415</ele>
        <time>2015-04-06T08:41:22.000Z</time>
      </trkpt>
      <trkpt lat="47.48518" lon="6.88424">
        <ele>415</ele>
        <time>2015-04-06T08:41:23.000Z</time>
      </trkpt>
      <trkpt lat="47.48515" lon="6.88425">
        <ele>415</ele>
        <time>2015-04-06T08:41:25.000Z</time>
      </trkpt>
      <trkpt lat="47.48514" lon="6.88425">
        <ele>415</ele>
        <time>2015-04-06T08:41:26.000Z</time>
      </trkpt>
      <trkpt lat="47.4851" lon="6.88426">
        <ele>415</ele>
        <time>2015-04-06T08:41:28.000Z</time>
      </trkpt>
      <trkpt lat="47.48508" lon="6.88426">
        <ele>415</ele>
        <time>2015-04-06T08:41:29.000Z</time>
      </trkpt>
      <trkpt lat="47.48505" lon="6.88429">
        <ele>415</ele>
        <time>2015-04-06T08:41:31.000Z</time>
      </trkpt>
      <trkpt lat="47.48503" lon="6.88431">
        <ele>415</ele>
        <time>2015-04-06T08:41:32.000Z</time>
      </trkpt>
      <trkpt lat="47.48501" lon="6.88433">
        <ele>415</ele>
        <time>2015-04-06T08:41:33.000Z</time>
      </trkpt>
      <trkpt lat="47.48499" lon="6.88435">
        <ele>415</ele>
        <time>2015-04-06T08:41:34.000Z</time>
      </trkpt>
      <trkpt lat="47.48496" lon="6.88439">
        <ele>415</ele>
        <time>2015-04-06T08:41:36.000Z</time>
      </trkpt>
      <trkpt lat="47.48494" lon="6.88441">
        <ele>415</ele>
        <time>2015-04-06T08:41:37.000Z</time>
      </trkpt>
      <trkpt lat="47.4849" lon="6.88442">
        <ele>415</ele>
        <time>2015-04-06T08:41:39.000Z</time>
      </trkpt>
      <trkpt lat="47.48488" lon="6.88442">
        <ele>415</ele>
        <time>2015-04-06T08:41:40.000Z</time>
      </trkpt>
      <trkpt lat="47.48484" lon="6.88444">
        <ele>415</ele>
        <time>2015-04-06T08:41:42.000Z</time>
      </trkpt>
      <trkpt lat="47.48482" lon="6.88445">
        <ele>415</ele>
        <time>2015-04-06T08:41:43.000Z</time>
      </trkpt>
      <trkpt lat="47.4848" lon="6.88447">
        <ele>415</ele>
        <time>2015-04-06T08:41:44.000Z</time>
      </trkpt>
      <trkpt lat="47.48478" lon="6.88449">
        <ele>415</ele>
        <time>2015-04-06T08:41:45.000Z</time>
      </trkpt>
      <trkpt lat="47.48476" lon="6.88451">
        <ele>415</ele>
        <time>2015-04-06T08:41:46.000Z</time>
      </trkpt>
      <trkpt lat="47.48474" lon="6.88453">
        <ele>415</ele>
        <time>2015-04-06T08:41:47.000Z</time>
      </trkpt>
      <trkpt lat="47.48469" lon="6.88454">
        <ele>415</ele>
        <time>2015-04-06T08:41:54.000Z</time>
      </trkpt>
      <trkpt lat="47.48469" lon="6.88454">
        <ele>415</ele>
        <time>2015-04-06T08:41:55.000Z</time>
      </trkpt>
      <trkpt lat="47.48466" lon="6.8845">
        <ele>415</ele>
        <time>2015-04-06T08:42:20.000Z</time>
      </trkpt>
      <trkpt lat="47.48465" lon="6.88449">
        <ele>415</ele>
        <time>2015-04-06T08:42:21.000Z</time>
      </trkpt>
      <trkpt lat="47.48461" lon="6.88448">
        <ele>414</ele>
        <time>2015-04-06T08:44:32.000Z</time>
      </trkpt>
      <trkpt lat="47.4846" lon="6.88448">
        <ele>414</ele>
        <time>2015-04-06T08:44:33.000Z</time>
      </trkpt>
      <trkpt lat="47.48456" lon="6.88447">
        <ele>414</ele>
        <time>2015-04-06T08:44:37.000Z</time>
      </trkpt>
      <trkpt lat="47.48454" lon="6.88449">
        <ele>414</ele>
        <time>2015-04-06T08:44:38.000Z</time>
      </trkpt>
      <trkpt lat="47.48453" lon="6.88451">
        <ele>414</ele>
        <time>2015-04-06T08:44:39.000Z</time>
      </trkpt>
      <trkpt lat="47.48451" lon="6.88453">
        <ele>414</ele>
        <time>2015-04-06T08:44:40.000Z</time>
      </trkpt>
      <trkpt lat="47.48448" lon="6.88454">
        <ele>414</ele>
        <time>2015-04-06T08:44:41.000Z</time>
      </trkpt>
      <trkpt lat="47.48446" lon="6.88454">
        <ele>414</ele>
        <time>2015-04-06T08:44:42.000Z</time>
      </trkpt>
      <trkpt lat="47.48443" lon="6.88455">
        <ele>414</ele>
        <time>2015-04-06T08:44:43.000Z</time>
      </trkpt>
      <trkpt lat="47.4844" lon="6.88456">
        <ele>414</ele>
        <time>2015-04-06T08:44:44.000Z</time>
      </trkpt>
      <trkpt lat="47.48438" lon="6.88457">
        <ele>414</ele>
        <time>2015-04-06T08:44:45.000Z</time>
      </trkpt>
      <trkpt lat="47.48436" lon="6.88459">
        <ele>414</ele>
        <time>2015-04-06T08:44:46.000Z</time>
      </trkpt>
      <trkpt lat="47.48433" lon="6.88461">
        <ele>414</ele>
        <time>2015-04-06T08:44:47.000Z</time>
      </trkpt>
      <trkpt lat="47.48431" lon="6.88462">
        <ele>414</ele>
        <time>2015-04-06T08:44:48.000Z</time>
      </trkpt>
      <trkpt lat="47.48428" lon="6.88465">
        <ele>414</ele>
        <time>2015-04-06T08:44:49.000Z</time>
      </trkpt>
      <trkpt lat="47.48425" lon="6.88468">
        <ele>414</ele>
        <time>2015-04-06T08:44:50.000Z</time>
      </trkpt>
      <trkpt lat="47.48421" lon="6.88471">
        <ele>414</ele>
        <time>2015-04-06T08:44:51.000Z</time>
      </trkpt>
      <trkpt lat="47.48418" lon="6.88473">
        <ele>414</ele>
        <time>2015-04-06T08:44:52.000Z</time>
      </trkpt>
      <trkpt lat="47.48414" lon="6.88475">
        <ele>414</ele>
        <time>2015-04-06T08:44:53.000Z</time>
      </trkpt>
      <trkpt lat="47.48411" lon="6.88477">
        <ele>414</ele>
        <time>2015-04-06T08:44:54.000Z</time>
      </trkpt>
      <trkpt lat="47.48408" lon="6.8848">
        <ele>414</ele>
        <time>2015-04-06T08:44:55.000Z</time>
      </trkpt>
      <trkpt lat="47.48405" lon="6.88484">
        <ele>414</ele>
        <time>2015-04-06T08:44:56.000Z</time>
      </trkpt>
      <trkpt lat="47.48402" lon="6.88487">
        <ele>414</ele>
        <time>2015-04-06T08:44:57.000Z</time>
      </trkpt>
      <trkpt lat="47.48399" lon="6.8849">
        <ele>414</ele>
        <time>2015-04-06T08:44:58.000Z</time>
      </trkpt>
      <trkpt lat="47.48396" lon="6.88493">
        <ele>414</ele>
        <time>2015-04-06T08:44:59.000Z</time>
      </trkpt>
      <trkpt lat="47.48393" lon="6.88496">
        <ele>414</ele>
        <time>2015-04-06T08:45:00.000Z</time>
      </trkpt>
      <trkpt lat="47.4839" lon="6.88498">
        <ele>413</ele>
        <time>2015-04-06T08:45:01.000Z</time>
      </trkpt>
      <trkpt lat="47.48387" lon="6.885">
        <ele>414</ele>
        <time>2015-04-06T08:45:02.000Z</time>
      </trkpt>
      <trkpt lat="47.48384" lon="6.88503">
        <ele>414</ele>
        <time>2015-04-06T08:45:03.000Z</time>
      </trkpt>
      <trkpt lat="47.48381" lon="6.88505">
        <ele>414</ele>
        <time>2015-04-06T08:45:04.000Z</time>
      </trkpt>
      <trkpt lat="47.48378" lon="6.88506">
        <ele>414</ele>
        <time>2015-04-06T08:45:05.000Z</time>
      </trkpt>
      <trkpt lat="47.48374" lon="6.88507">
        <ele>414</ele>
        <time>2015-04-06T08:45:06.000Z</time>
      </trkpt>
      <trkpt lat="47.48371" lon="6.88508">
        <ele>414</ele>
        <time>2015-04-06T08:45:07.000Z</time>
      </trkpt>
      <trkpt lat="47.48367" lon="6.88509">
        <ele>414</ele>
        <time>2015-04-06T08:45:08.000Z</time>
      </trkpt>
      <trkpt lat="47.48363" lon="6.8851">
        <ele>414</ele>
        <time>2015-04-06T08:45:09.000Z</time>
      </trkpt>
      <trkpt lat="47.48358" lon="6.88511">
        <ele>414</ele>
        <time>2015-04-06T08:45:10.000Z</time>
      </trkpt>
      <trkpt lat="47.48354" lon="6.88513">
        <ele>414</ele>
        <time>2015-04-06T08:45:11.000Z</time>
      </trkpt>
      <trkpt lat="47.4835" lon="6.88516">
        <ele>414</ele>
        <time>2015-04-06T08:45:12.000Z</time>
      </trkpt>
      <trkpt lat="47.48346" lon="6.88518">
        <ele>414</ele>
        <time>2015-04-06T08:45:13.000Z</time>
      </trkpt>
      <trkpt lat="47.48344" lon="6.88522">
        <ele>414</ele>
        <time>2015-04-06T08:45:14.000Z</time>
      </trkpt>
      <trkpt lat="47.48341" lon="6.88524">
        <ele>414</ele>
        <time>2015-04-06T08:45:15.000Z</time>
      </trkpt>
      <trkpt lat="47.48337" lon="6.88527">
        <ele>414</ele>
        <time>2015-04-06T08:45:16.000Z</time>
      </trkpt>
      <trkpt lat="47.48334" lon="6.88527">
        <ele>414</ele>
        <time>2015-04-06T08:45:17.000Z</time>
      </trkpt>
      <trkpt lat="47.4833" lon="6.88528">
        <ele>413</ele>
        <time>2015-04-06T08:45:18.000Z</time>
      </trkpt>
      <trkpt lat="47.48326" lon="6.88527">
        <ele>413</ele>
        <time>2015-04-06T08:45:19.000Z</time>
      </trkpt>
      <trkpt lat="47.48323" lon="6.88528">
        <ele>413</ele>
        <time>2015-04-06T08:45:20.000Z</time>
      </trkpt>
      <trkpt lat="47.4832" lon="6.88528">
        <ele>413</ele>
        <time>2015-04-06T08:45:21.000Z</time>
      </trkpt>
      <trkpt lat="47.48317" lon="6.88528">
        <ele>413</ele>
        <time>2015-04-06T08:45:22.000Z</time>
      </trkpt>
      <trkpt lat="47.48307" lon="6.88526">
        <ele>413</ele>
        <time>2015-04-06T08:45:23.000Z</time>
      </trkpt>
      <trkpt lat="47.48302" lon="6.88527">
        <ele>413</ele>
        <time>2015-04-06T08:45:24.000Z</time>
      </trkpt>
      <trkpt lat="47.48299" lon="6.88527">
        <ele>413</ele>
        <time>2015-04-06T08:45:25.000Z</time>
      </trkpt>
      <trkpt lat="47.48297" lon="6.88524">
        <ele>413</ele>
        <time>2015-04-06T08:45:26.000Z</time>
      </trkpt>
      <trkpt lat="47.48293" lon="6.88524">
        <ele>413</ele>
        <time>2015-04-06T08:45:27.000Z</time>
      </trkpt>
      <trkpt lat="47.48287" lon="6.88518">
        <ele>413</ele>
        <time>2015-04-06T08:45:28.000Z</time>
      </trkpt>
      <trkpt lat="47.48283" lon="6.88516">
        <ele>413</ele>
        <time>2015-04-06T08:45:29.000Z</time>
      </trkpt>
      <trkpt lat="47.48278" lon="6.88517">
        <ele>413</ele>
        <time>2015-04-06T08:45:30.000Z</time>
      </trkpt>
      <trkpt lat="47.48274" lon="6.88516">
        <ele>413</ele>
        <time>2015-04-06T08:45:31.000Z</time>
      </trkpt>
      <trkpt lat="47.48269" lon="6.88515">
        <ele>413</ele>
        <time>2015-04-06T08:45:32.000Z</time>
      </trkpt>
      <trkpt lat="47.48266" lon="6.88515">
        <ele>413</ele>
        <time>2015-04-06T08:45:33.000Z</time>
      </trkpt>
      <trkpt lat="47.48263" lon="6.88515">
        <ele>412</ele>
        <time>2015-04-06T08:45:34.000Z</time>
      </trkpt>
      <trkpt lat="47.48259" lon="6.88512">
        <ele>412</ele>
        <time>2015-04-06T08:45:38.000Z</time>
      </trkpt>
      <trkpt lat="47.48256" lon="6.88511">
        <ele>412</ele>
        <time>2015-04-06T08:45:39.000Z</time>
      </trkpt>
      <trkpt lat="47.48252" lon="6.8851">
        <ele>412</ele>
        <time>2015-04-06T08:45:40.000Z</time>
      </trkpt>
      <trkpt lat="47.48248" lon="6.8851">
        <ele>411</ele>
        <time>2015-04-06T08:45:41.000Z</time>
      </trkpt>
      <trkpt lat="47.48243" lon="6.8851">
        <ele>410</ele>
        <time>2015-04-06T08:45:42.000Z</time>
      </trkpt>
      <trkpt lat="47.48238" lon="6.88511">
        <ele>410</ele>
        <time>2015-04-06T08:45:43.000Z</time>
      </trkpt>
      <trkpt lat="47.48233" lon="6.88511">
        <ele>409</ele>
        <time>2015-04-06T08:45:44.000Z</time>
      </trkpt>
      <trkpt lat="47.48228" lon="6.88512">
        <ele>409</ele>
        <time>2015-04-06T08:45:45.000Z</time>
      </trkpt>
      <trkpt lat="47.48224" lon="6.88513">
        <ele>409</ele>
        <time>2015-04-06T08:45:46.002Z</time>
      </trkpt>
      <trkpt lat="47.48216" lon="6.88515">
        <ele>408</ele>
        <time>2015-04-06T08:45:47.000Z</time>
      </trkpt>
      <trkpt lat="47.48212" lon="6.88518">
        <ele>408</ele>
        <time>2015-04-06T08:45:49.000Z</time>
      </trkpt>
      <trkpt lat="47.48212" lon="6.88519">
        <ele>408</ele>
        <time>2015-04-06T08:45:50.000Z</time>
      </trkpt>
      <trkpt lat="47.48212" lon="6.88524">
        <ele>408</ele>
        <time>2015-04-06T08:45:53.000Z</time>
      </trkpt>
      <trkpt lat="47.48213" lon="6.88526">
        <ele>408</ele>
        <time>2015-04-06T08:45:54.000Z</time>
      </trkpt>
      <trkpt lat="47.48214" lon="6.88529">
        <ele>408</ele>
        <time>2015-04-06T08:45:55.000Z</time>
      </trkpt>
      <trkpt lat="47.48215" lon="6.88532">
        <ele>408</ele>
        <time>2015-04-06T08:45:56.000Z</time>
      </trkpt>
      <trkpt lat="47.48216" lon="6.88537">
        <ele>408</ele>
        <time>2015-04-06T08:45:58.000Z</time>
      </trkpt>
      <trkpt lat="47.48216" lon="6.8854">
        <ele>408</ele>
        <time>2015-04-06T08:45:59.000Z</time>
      </trkpt>
      <trkpt lat="47.48218" lon="6.88544">
        <ele>408</ele>
        <time>2015-04-06T08:46:01.000Z</time>
      </trkpt>
      <trkpt lat="47.48219" lon="6.88546">
        <ele>408</ele>
        <time>2015-04-06T08:46:02.000Z</time>
      </trkpt>
      <trkpt lat="47.48222" lon="6.88548">
        <ele>408</ele>
        <time>2015-04-06T08:46:05.000Z</time>
      </trkpt>
      <trkpt lat="47.48225" lon="6.88548">
        <ele>408</ele>
        <time>2015-04-06T08:46:06.000Z</time>
      </trkpt>
      <trkpt lat="47.48226" lon="6.88553">
        <ele>408</ele>
        <time>2015-04-06T08:46:08.000Z</time>
      </trkpt>
      <trkpt lat="47.48225" lon="6.88556">
        <ele>408</ele>
        <time>2015-04-06T08:46:09.000Z</time>
      </trkpt>
      <trkpt lat="47.48224" lon="6.88559">
        <ele>408</ele>
        <time>2015-04-06T08:46:10.000Z</time>
      </trkpt>
      <trkpt lat="47.48223" lon="6.88562">
        <ele>408</ele>
        <time>2015-04-06T08:46:11.000Z</time>
      </trkpt>
      <trkpt lat="47.48222" lon="6.88568">
        <ele>408</ele>
        <time>2015-04-06T08:46:13.000Z</time>
      </trkpt>
      <trkpt lat="47.48221" lon="6.88572">
        <ele>408</ele>
        <time>2015-04-06T08:46:14.000Z</time>
      </trkpt>
      <trkpt lat="47.48223" lon="6.88578">
        <ele>409</ele>
        <time>2015-04-06T08:46:16.000Z</time>
      </trkpt>
      <trkpt lat="47.48224" lon="6.8858">
        <ele>409</ele>
        <time>2015-04-06T08:46:17.000Z</time>
      </trkpt>
      <trkpt lat="47.48226" lon="6.88585">
        <ele>410</ele>
        <time>2015-04-06T08:46:19.000Z</time>
      </trkpt>
      <trkpt lat="47.48226" lon="6.88588">
        <ele>410</ele>
        <time>2015-04-06T08:46:20.000Z</time>
      </trkpt>
      <trkpt lat="47.48227" lon="6.88592">
        <ele>410</ele>
        <time>2015-04-06T08:46:22.001Z</time>
      </trkpt>
      <trkpt lat="47.48227" lon="6.88599">
        <ele>409</ele>
        <time>2015-04-06T08:46:23.000Z</time>
      </trkpt>
      <trkpt lat="47.48227" lon="6.88604">
        <ele>409</ele>
        <time>2015-04-06T08:46:24.000Z</time>
      </trkpt>
      <trkpt lat="47.48228" lon="6.88608">
        <ele>409</ele>
        <time>2015-04-06T08:46:25.000Z</time>
      </trkpt>
      <trkpt lat="47.48229" lon="6.88612">
        <ele>409</ele>
        <time>2015-04-06T08:46:26.000Z</time>
      </trkpt>
      <trkpt lat="47.4823" lon="6.88617">
        <ele>410</ele>
        <time>2015-04-06T08:46:27.000Z</time>
      </trkpt>
      <trkpt lat="47.4823" lon="6.88621">
        <ele>410</ele>
        <time>2015-04-06T08:46:28.000Z</time>
      </trkpt>
      <trkpt lat="47.48232" lon="6.88624">
        <ele>410</ele>
        <time>2015-04-06T08:46:29.000Z</time>
      </trkpt>
      <trkpt lat="47.48233" lon="6.88628">
        <ele>410</ele>
        <time>2015-04-06T08:46:30.000Z</time>
      </trkpt>
      <trkpt lat="47.48235" lon="6.88631">
        <ele>410</ele>
        <time>2015-04-06T08:46:31.000Z</time>
      </trkpt>
      <trkpt lat="47.48236" lon="6.88634">
        <ele>410</ele>
        <time>2015-04-06T08:46:32.000Z</time>
      </trkpt>
      <trkpt lat="47.48238" lon="6.88636">
        <ele>410</ele>
        <time>2015-04-06T08:46:33.000Z</time>
      </trkpt>
      <trkpt lat="47.48239" lon="6.88639">
        <ele>410</ele>
        <time>2015-04-06T08:46:34.000Z</time>
      </trkpt>
      <trkpt lat="47.4824" lon="6.88642">
        <ele>411</ele>
        <time>2015-04-06T08:46:35.000Z</time>
      </trkpt>
      <trkpt lat="47.48243" lon="6.88646">
        <ele>411</ele>
        <time>2015-04-06T08:46:37.000Z</time>
      </trkpt>
      <trkpt lat="47.48245" lon="6.88648">
        <ele>411</ele>
        <time>2015-04-06T08:46:38.000Z</time>
      </trkpt>
      <trkpt lat="47.48247" lon="6.88653">
        <ele>412</ele>
        <time>2015-04-06T08:46:40.000Z</time>
      </trkpt>
      <trkpt lat="47.48248" lon="6.88656">
        <ele>412</ele>
        <time>2015-04-06T08:46:41.000Z</time>
      </trkpt>
      <trkpt lat="47.4825" lon="6.88661">
        <ele>414</ele>
        <time>2015-04-06T08:46:43.000Z</time>
      </trkpt>
      <trkpt lat="47.48251" lon="6.88662">
        <ele>414</ele>
        <time>2015-04-06T08:46:44.000Z</time>
      </trkpt>
      <trkpt lat="47.48256" lon="6.88663">
        <ele>414</ele>
        <time>2015-04-06T08:46:46.000Z</time>
      </trkpt>
      <trkpt lat="47.48257" lon="6.88664">
        <ele>414</ele>
        <time>2015-04-06T08:46:47.000Z</time>
      </trkpt>
      <trkpt lat="47.48258" lon="6.88668">
        <ele>415</ele>
        <time>2015-04-06T08:46:48.000Z</time>
      </trkpt>
      <trkpt lat="47.48259" lon="6.88671">
        <ele>415</ele>
        <time>2015-04-06T08:46:49.000Z</time>
      </trkpt>
      <trkpt lat="47.4826" lon="6.88675">
        <ele>415</ele>
        <time>2015-04-06T08:46:50.000Z</time>
      </trkpt>
      <trkpt lat="47.48259" lon="6.88679">
        <ele>416</ele>
        <time>2015-04-06T08:46:51.000Z</time>
      </trkpt>
      <trkpt lat="47.48259" lon="6.88682">
        <ele>416</ele>
        <time>2015-04-06T08:46:52.000Z</time>
      </trkpt>
      <trkpt lat="47.48258" lon="6.88686">
        <ele>416</ele>
        <time>2015-04-06T08:46:53.000Z</time>
      </trkpt>
      <trkpt lat="47.48257" lon="6.88692">
        <ele>416</ele>
        <time>2015-04-06T08:46:55.000Z</time>
      </trkpt>
      <trkpt lat="47.48257" lon="6.88693">
        <ele>416</ele>
        <time>2015-04-06T08:46:56.000Z</time>
      </trkpt>
      <trkpt lat="47.48258" lon="6.88698">
        <ele>417</ele>
        <time>2015-04-06T08:46:58.000Z</time>
      </trkpt>
      <trkpt lat="47.48258" lon="6.88701">
        <ele>417</ele>
        <time>2015-04-06T08:46:59.000Z</time>
      </trkpt>
      <trkpt lat="47.48256" lon="6.88705">
        <ele>417</ele>
        <time>2015-04-06T08:47:00.000Z</time>
      </trkpt>
      <trkpt lat="47.48254" lon="6.88708">
        <ele>417</ele>
        <time>2015-04-06T08:47:01.000Z</time>
      </trkpt>
      <trkpt lat="47.48252" lon="6.88711">
        <ele>417</ele>
        <time>2015-04-06T08:47:02.000Z</time>
      </trkpt>
      <trkpt lat="47.4825" lon="6.88714">
        <ele>412</ele>
        <time>2015-04-06T08:47:03.000Z</time>
      </trkpt>
      <trkpt lat="47.48248" lon="6.88716">
        <ele>412</ele>
        <time>2015-04-06T08:47:04.000Z</time>
      </trkpt>
      <trkpt lat="47.48246" lon="6.88719">
        <ele>412</ele>
        <time>2015-04-06T08:47:05.000Z</time>
      </trkpt>
      <trkpt lat="47.48244" lon="6.88722">
        <ele>413</ele>
        <time>2015-04-06T08:47:06.000Z</time>
      </trkpt>
      <trkpt lat="47.48242" lon="6.88724">
        <ele>413</ele>
        <time>2015-04-06T08:47:07.000Z</time>
      </trkpt>
      <trkpt lat="47.4824" lon="6.88727">
        <ele>413</ele>
        <time>2015-04-06T08:47:08.000Z</time>
      </trkpt>
      <trkpt lat="47.48238" lon="6.88729">
        <ele>413</ele>
        <time>2015-04-06T08:47:09.000Z</time>
      </trkpt>
      <trkpt lat="47.48236" lon="6.88731">
        <ele>413</ele>
        <time>2015-04-06T08:47:10.000Z</time>
      </trkpt>
      <trkpt lat="47.48235" lon="6.88733">
        <ele>413</ele>
        <time>2015-04-06T08:47:11.000Z</time>
      </trkpt>
      <trkpt lat="47.48231" lon="6.88737">
        <ele>413</ele>
        <time>2015-04-06T08:47:13.000Z</time>
      </trkpt>
      <trkpt lat="47.4823" lon="6.88738">
        <ele>413</ele>
        <time>2015-04-06T08:47:14.000Z</time>
      </trkpt>
      <trkpt lat="47.48226" lon="6.8874">
        <ele>412</ele>
        <time>2015-04-06T08:47:16.000Z</time>
      </trkpt>
      <trkpt lat="47.48224" lon="6.88741">
        <ele>412</ele>
        <time>2015-04-06T08:47:17.000Z</time>
      </trkpt>
      <trkpt lat="47.48221" lon="6.88742">
        <ele>412</ele>
        <time>2015-04-06T08:47:18.000Z</time>
      </trkpt>
      <trkpt lat="47.48218" lon="6.88742">
        <ele>412</ele>
        <time>2015-04-06T08:47:19.000Z</time>
      </trkpt>
      <trkpt lat="47.48215" lon="6.88743">
        <ele>411</ele>
        <time>2015-04-06T08:47:20.000Z</time>
      </trkpt>
      <trkpt lat="47.4821" lon="6.88744">
        <ele>411</ele>
        <time>2015-04-06T08:47:21.000Z</time>
      </trkpt>
      <trkpt lat="47.48206" lon="6.88745">
        <ele>411</ele>
        <time>2015-04-06T08:47:22.000Z</time>
      </trkpt>
      <trkpt lat="47.48201" lon="6.88747">
        <ele>410</ele>
        <time>2015-04-06T08:47:23.000Z</time>
      </trkpt>
      <trkpt lat="47.48196" lon="6.88749">
        <ele>410</ele>
        <time>2015-04-06T08:47:24.000Z</time>
      </trkpt>
      <trkpt lat="47.48192" lon="6.88751">
        <ele>410</ele>
        <time>2015-04-06T08:47:25.000Z</time>
      </trkpt>
      <trkpt lat="47.48187" lon="6.88753">
        <ele>410</ele>
        <time>2015-04-06T08:47:26.000Z</time>
      </trkpt>
      <trkpt lat="47.48183" lon="6.88755">
        <ele>409</ele>
        <time>2015-04-06T08:47:27.000Z</time>
      </trkpt>
      <trkpt lat="47.48179" lon="6.88756">
        <ele>409</ele>
        <time>2015-04-06T08:47:28.000Z</time>
      </trkpt>
      <trkpt lat="47.48175" lon="6.88758">
        <ele>409</ele>
        <time>2015-04-06T08:47:29.000Z</time>
      </trkpt>
      <trkpt lat="47.48171" lon="6.88759">
        <ele>408</ele>
        <time>2015-04-06T08:47:30.000Z</time>
      </trkpt>
      <trkpt lat="47.48167" lon="6.8876">
        <ele>408</ele>
        <time>2015-04-06T08:47:31.000Z</time>
      </trkpt>
      <trkpt lat="47.48163" lon="6.88762">
        <ele>406</ele>
        <time>2015-04-06T08:47:32.000Z</time>
      </trkpt>
      <trkpt lat="47.48159" lon="6.88764">
        <ele>406</ele>
        <time>2015-04-06T08:47:33.000Z</time>
      </trkpt>
      <trkpt lat="47.48155" lon="6.88766">
        <ele>405</ele>
        <time>2015-04-06T08:47:34.000Z</time>
      </trkpt>
      <trkpt lat="47.4815" lon="6.88768">
        <ele>405</ele>
        <time>2015-04-06T08:47:35.000Z</time>
      </trkpt>
      <trkpt lat="47.48142" lon="6.8877">
        <ele>405</ele>
        <time>2015-04-06T08:47:36.000Z</time>
      </trkpt>
      <trkpt lat="47.48139" lon="6.8877">
        <ele>405</ele>
        <time>2015-04-06T08:47:37.000Z</time>
      </trkpt>
      <trkpt lat="47.48134" lon="6.88771">
        <ele>404</ele>
        <time>2015-04-06T08:47:38.000Z</time>
      </trkpt>
      <trkpt lat="47.48131" lon="6.88772">
        <ele>404</ele>
        <time>2015-04-06T08:47:39.000Z</time>
      </trkpt>
      <trkpt lat="47.48126" lon="6.88775">
        <ele>404</ele>
        <time>2015-04-06T08:47:40.000Z</time>
      </trkpt>
      <trkpt lat="47.48122" lon="6.88779">
        <ele>404</ele>
        <time>2015-04-06T08:47:41.000Z</time>
      </trkpt>
      <trkpt lat="47.48119" lon="6.88782">
        <ele>404</ele>
        <time>2015-04-06T08:47:42.000Z</time>
      </trkpt>
      <trkpt lat="47.48115" lon="6.88786">
        <ele>404</ele>
        <time>2015-04-06T08:47:43.000Z</time>
      </trkpt>
      <trkpt lat="47.48111" lon="6.88789">
        <ele>404</ele>
        <time>2015-04-06T08:47:44.000Z</time>
      </trkpt>
      <trkpt lat="47.48105" lon="6.88793">
        <ele>403</ele>
        <time>2015-04-06T08:47:45.000Z</time>
      </trkpt>
      <trkpt lat="47.48101" lon="6.88797">
        <ele>403</ele>
        <time>2015-04-06T08:47:46.000Z</time>
      </trkpt>
      <trkpt lat="47.48096" lon="6.88801">
        <ele>403</ele>
        <time>2015-04-06T08:47:47.000Z</time>
      </trkpt>
      <trkpt lat="47.48091" lon="6.88804">
        <ele>403</ele>
        <time>2015-04-06T08:47:48.000Z</time>
      </trkpt>
      <trkpt lat="47.48088" lon="6.88807">
        <ele>402</ele>
        <time>2015-04-06T08:47:49.000Z</time>
      </trkpt>
      <trkpt lat="47.48084" lon="6.8881">
        <ele>402</ele>
        <time>2015-04-06T08:47:50.000Z</time>
      </trkpt>
      <trkpt lat="47.4808" lon="6.88814">
        <ele>398</ele>
        <time>2015-04-06T08:47:51.000Z</time>
      </trkpt>
      <trkpt lat="47.48071" lon="6.88823">
        <ele>398</ele>
        <time>2015-04-06T08:47:52.000Z</time>
      </trkpt>
      <trkpt lat="47.48066" lon="6.88829">
        <ele>398</ele>
        <time>2015-04-06T08:47:53.000Z</time>
      </trkpt>
      <trkpt lat="47.48057" lon="6.88834">
        <ele>397</ele>
        <time>2015-04-06T08:47:54.000Z</time>
      </trkpt>
      <trkpt lat="47.48048" lon="6.88838">
        <ele>396</ele>
        <time>2015-04-06T08:47:55.000Z</time>
      </trkpt>
      <trkpt lat="47.4804" lon="6.88845">
        <ele>395</ele>
        <time>2015-04-06T08:47:56.000Z</time>
      </trkpt>
      <trkpt lat="47.48032" lon="6.88849">
        <ele>395</ele>
        <time>2015-04-06T08:47:57.000Z</time>
      </trkpt>
      <trkpt lat="47.48024" lon="6.88852">
        <ele>394</ele>
        <time>2015-04-06T08:47:58.000Z</time>
      </trkpt>
      <trkpt lat="47.48016" lon="6.88857">
        <ele>394</ele>
        <time>2015-04-06T08:47:59.000Z</time>
      </trkpt>
      <trkpt lat="47.48008" lon="6.88861">
        <ele>394</ele>
        <time>2015-04-06T08:48:00.000Z</time>
      </trkpt>
      <trkpt lat="47.47998" lon="6.88868">
        <ele>389</ele>
        <time>2015-04-06T08:48:01.000Z</time>
      </trkpt>
      <trkpt lat="47.4799" lon="6.88872">
        <ele>389</ele>
        <time>2015-04-06T08:48:02.000Z</time>
      </trkpt>
      <trkpt lat="47.47983" lon="6.88877">
        <ele>389</ele>
        <time>2015-04-06T08:48:03.000Z</time>
      </trkpt>
      <trkpt lat="47.47975" lon="6.8888">
        <ele>388</ele>
        <time>2015-04-06T08:48:04.000Z</time>
      </trkpt>
      <trkpt lat="47.47968" lon="6.88882">
        <ele>388</ele>
        <time>2015-04-06T08:48:05.000Z</time>
      </trkpt>
      <trkpt lat="47.47959" lon="6.88887">
        <ele>388</ele>
        <time>2015-04-06T08:48:06.000Z</time>
      </trkpt>
      <trkpt lat="47.47953" lon="6.88894">
        <ele>388</ele>
        <time>2015-04-06T08:48:07.000Z</time>
      </trkpt>
      <trkpt lat="47.4795" lon="6.88902">
        <ele>388</ele>
        <time>2015-04-06T08:48:08.000Z</time>
      </trkpt>
      <trkpt lat="47.47946" lon="6.88911">
        <ele>387</ele>
        <time>2015-04-06T08:48:09.000Z</time>
      </trkpt>
      <trkpt lat="47.47944" lon="6.88919">
        <ele>388</ele>
        <time>2015-04-06T08:48:10.000Z</time>
      </trkpt>
      <trkpt lat="47.47943" lon="6.88926">
        <ele>388</ele>
        <time>2015-04-06T08:48:11.000Z</time>
      </trkpt>
      <trkpt lat="47.47941" lon="6.88935">
        <ele>388</ele>
        <time>2015-04-06T08:48:12.000Z</time>
      </trkpt>
      <trkpt lat="47.4794" lon="6.88941">
        <ele>388</ele>
        <time>2015-04-06T08:48:13.000Z</time>
      </trkpt>
      <trkpt lat="47.47939" lon="6.88948">
        <ele>388</ele>
        <time>2015-04-06T08:48:14.000Z</time>
      </trkpt>
      <trkpt lat="47.47939" lon="6.88955">
        <ele>388</ele>
        <time>2015-04-06T08:48:15.000Z</time>
      </trkpt>
      <trkpt lat="47.47938" lon="6.88962">
        <ele>388</ele>
        <time>2015-04-06T08:48:16.000Z</time>
      </trkpt>
      <trkpt lat="47.47937" lon="6.88969">
        <ele>388</ele>
        <time>2015-04-06T08:48:17.000Z</time>
      </trkpt>
      <trkpt lat="47.47936" lon="6.88976">
        <ele>388</ele>
        <time>2015-04-06T08:48:18.000Z</time>
      </trkpt>
      <trkpt lat="47.47935" lon="6.88983">
        <ele>388</ele>
        <time>2015-04-06T08:48:19.000Z</time>
      </trkpt>
      <trkpt lat="47.47934" lon="6.88989">
        <ele>388</ele>
        <time>2015-04-06T08:48:20.000Z</time>
      </trkpt>
      <trkpt lat="47.47933" lon="6.88995">
        <ele>387</ele>
        <time>2015-04-06T08:48:21.000Z</time>
      </trkpt>
      <trkpt lat="47.47933" lon="6.89001">
        <ele>387</ele>
        <time>2015-04-06T08:48:22.000Z</time>
      </trkpt>
      <trkpt lat="47.47931" lon="6.89007">
        <ele>387</ele>
        <time>2015-04-06T08:48:23.000Z</time>
      </trkpt>
      <trkpt lat="47.47931" lon="6.89013">
        <ele>387</ele>
        <time>2015-04-06T08:48:24.000Z</time>
      </trkpt>
      <trkpt lat="47.4793" lon="6.89019">
        <ele>388</ele>
        <time>2015-04-06T08:48:25.000Z</time>
      </trkpt>
      <trkpt lat="47.47929" lon="6.89024">
        <ele>388</ele>
        <time>2015-04-06T08:48:26.000Z</time>
      </trkpt>
      <trkpt lat="47.47927" lon="6.89029">
        <ele>388</ele>
        <time>2015-04-06T08:48:27.000Z</time>
      </trkpt>
      <trkpt lat="47.47925" lon="6.89033">
        <ele>388</ele>
        <time>2015-04-06T08:48:28.000Z</time>
      </trkpt>
      <trkpt lat="47.47921" lon="6.89038">
        <ele>388</ele>
        <time>2015-04-06T08:48:29.000Z</time>
      </trkpt>
      <trkpt lat="47.47918" lon="6.89044">
        <ele>388</ele>
        <time>2015-04-06T08:48:30.000Z</time>
      </trkpt>
      <trkpt lat="47.47916" lon="6.89049">
        <ele>384</ele>
        <time>2015-04-06T08:48:31.000Z</time>
      </trkpt>
      <trkpt lat="47.47913" lon="6.89055">
        <ele>384</ele>
        <time>2015-04-06T08:48:32.000Z</time>
      </trkpt>
      <trkpt lat="47.47909" lon="6.89063">
        <ele>384</ele>
        <time>2015-04-06T08:48:33.000Z</time>
      </trkpt>
      <trkpt lat="47.47906" lon="6.89067">
        <ele>384</ele>
        <time>2015-04-06T08:48:34.000Z</time>
      </trkpt>
      <trkpt lat="47.479" lon="6.89073">
        <ele>384</ele>
        <time>2015-04-06T08:48:35.000Z</time>
      </trkpt>
      <trkpt lat="47.47897" lon="6.89078">
        <ele>384</ele>
        <time>2015-04-06T08:48:36.000Z</time>
      </trkpt>
      <trkpt lat="47.47891" lon="6.89087">
        <ele>384</ele>
        <time>2015-04-06T08:48:37.000Z</time>
      </trkpt>
      <trkpt lat="47.47888" lon="6.89093">
        <ele>384</ele>
        <time>2015-04-06T08:48:38.000Z</time>
      </trkpt>
      <trkpt lat="47.47884" lon="6.89099">
        <ele>383</ele>
        <time>2015-04-06T08:48:39.000Z</time>
      </trkpt>
      <trkpt lat="47.4788" lon="6.89107">
        <ele>383</ele>
        <time>2015-04-06T08:48:40.000Z</time>
      </trkpt>
      <trkpt lat="47.47877" lon="6.89115">
        <ele>383</ele>
        <time>2015-04-06T08:48:41.000Z</time>
      </trkpt>
      <trkpt lat="47.47872" lon="6.89121">
        <ele>383</ele>
        <time>2015-04-06T08:48:42.000Z</time>
      </trkpt>
      <trkpt lat="47.47869" lon="6.89127">
        <ele>383</ele>
        <time>2015-04-06T08:48:43.000Z</time>
      </trkpt>
      <trkpt lat="47.47865" lon="6.89131">
        <ele>383</ele>
        <time>2015-04-06T08:48:44.000Z</time>
      </trkpt>
      <trkpt lat="47.47861" lon="6.89133">
        <ele>383</ele>
        <time>2015-04-06T08:48:45.000Z</time>
      </trkpt>
      <trkpt lat="47.47857" lon="6.89136">
        <ele>383</ele>
        <time>2015-04-06T08:48:46.000Z</time>
      </trkpt>
      <trkpt lat="47.47854" lon="6.89141">
        <ele>382</ele>
        <time>2015-04-06T08:48:47.000Z</time>
      </trkpt>
      <trkpt lat="47.4785" lon="6.89146">
        <ele>382</ele>
        <time>2015-04-06T08:48:48.000Z</time>
      </trkpt>
      <trkpt lat="47.47847" lon="6.8915">
        <ele>382</ele>
        <time>2015-04-06T08:48:49.000Z</time>
      </trkpt>
      <trkpt lat="47.47843" lon="6.89153">
        <ele>382</ele>
        <time>2015-04-06T08:48:50.000Z</time>
      </trkpt>
      <trkpt lat="47.47838" lon="6.89155">
        <ele>382</ele>
        <time>2015-04-06T08:48:51.000Z</time>
      </trkpt>
      <trkpt lat="47.47835" lon="6.8916">
        <ele>381</ele>
        <time>2015-04-06T08:48:52.000Z</time>
      </trkpt>
      <trkpt lat="47.47833" lon="6.89169">
        <ele>381</ele>
        <time>2015-04-06T08:48:53.000Z</time>
      </trkpt>
      <trkpt lat="47.4783" lon="6.89174">
        <ele>381</ele>
        <time>2015-04-06T08:48:54.000Z</time>
      </trkpt>
      <trkpt lat="47.47829" lon="6.89176">
        <ele>380</ele>
        <time>2015-04-06T08:48:55.000Z</time>
      </trkpt>
      <trkpt lat="47.47828" lon="6.89179">
        <ele>380</ele>
        <time>2015-04-06T08:48:57.000Z</time>
      </trkpt>
      <trkpt lat="47.47818" lon="6.89189">
        <ele>380</ele>
        <time>2015-04-06T08:48:58.000Z</time>
      </trkpt>
      <trkpt lat="47.47809" lon="6.89197">
        <ele>380</ele>
        <time>2015-04-06T08:48:59.000Z</time>
      </trkpt>
      <trkpt lat="47.478" lon="6.89205">
        <ele>379</ele>
        <time>2015-04-06T08:49:00.000Z</time>
      </trkpt>
      <trkpt lat="47.47793" lon="6.89211">
        <ele>379</ele>
        <time>2015-04-06T08:49:01.000Z</time>
      </trkpt>
      <trkpt lat="47.47789" lon="6.89216">
        <ele>379</ele>
        <time>2015-04-06T08:49:02.000Z</time>
      </trkpt>
      <trkpt lat="47.47783" lon="6.89221">
        <ele>379</ele>
        <time>2015-04-06T08:49:03.000Z</time>
      </trkpt>
      <trkpt lat="47.47777" lon="6.89225">
        <ele>379</ele>
        <time>2015-04-06T08:49:04.000Z</time>
      </trkpt>
      <trkpt lat="47.4777" lon="6.8923">
        <ele>379</ele>
        <time>2015-04-06T08:49:05.000Z</time>
      </trkpt>
      <trkpt lat="47.47767" lon="6.89232">
        <ele>379</ele>
        <time>2015-04-06T08:49:06.000Z</time>
      </trkpt>
      <trkpt lat="47.47763" lon="6.89235">
        <ele>379</ele>
        <time>2015-04-06T08:49:07.000Z</time>
      </trkpt>
      <trkpt lat="47.47757" lon="6.89237">
        <ele>379</ele>
        <time>2015-04-06T08:49:08.000Z</time>
      </trkpt>
      <trkpt lat="47.47754" lon="6.89235">
        <ele>379</ele>
        <time>2015-04-06T08:49:09.000Z</time>
      </trkpt>
      <trkpt lat="47.47752" lon="6.89233">
        <ele>379</ele>
        <time>2015-04-06T08:49:10.000Z</time>
      </trkpt>
      <trkpt lat="47.47751" lon="6.89227">
        <ele>379</ele>
        <time>2015-04-06T08:49:11.000Z</time>
      </trkpt>
      <trkpt lat="47.4775" lon="6.89221">
        <ele>379</ele>
        <time>2015-04-06T08:49:12.000Z</time>
      </trkpt>
      <trkpt lat="47.47748" lon="6.89217">
        <ele>377</ele>
        <time>2015-04-06T08:49:13.000Z</time>
      </trkpt>
      <trkpt lat="47.47746" lon="6.89212">
        <ele>377</ele>
        <time>2015-04-06T08:49:14.000Z</time>
      </trkpt>
      <trkpt lat="47.47741" lon="6.89203">
        <ele>376</ele>
        <time>2015-04-06T08:49:15.000Z</time>
      </trkpt>
      <trkpt lat="47.47739" lon="6.892">
        <ele>376</ele>
        <time>2015-04-06T08:49:16.000Z</time>
      </trkpt>
      <trkpt lat="47.47736" lon="6.89195">
        <ele>376</ele>
        <time>2015-04-06T08:49:17.000Z</time>
      </trkpt>
      <trkpt lat="47.47732" lon="6.89187">
        <ele>376</ele>
        <time>2015-04-06T08:49:18.000Z</time>
      </trkpt>
      <trkpt lat="47.47729" lon="6.89179">
        <ele>376</ele>
        <time>2015-04-06T08:49:19.000Z</time>
      </trkpt>
      <trkpt lat="47.47725" lon="6.89172">
        <ele>376</ele>
        <time>2015-04-06T08:49:20.000Z</time>
      </trkpt>
      <trkpt lat="47.47722" lon="6.89169">
        <ele>376</ele>
        <time>2015-04-06T08:49:21.000Z</time>
      </trkpt>
      <trkpt lat="47.47717" lon="6.89164">
        <ele>375</ele>
        <time>2015-04-06T08:49:22.000Z</time>
      </trkpt>
      <trkpt lat="47.47713" lon="6.89156">
        <ele>375</ele>
        <time>2015-04-06T08:49:23.000Z</time>
      </trkpt>
      <trkpt lat="47.47709" lon="6.89151">
        <ele>375</ele>
        <time>2015-04-06T08:49:24.000Z</time>
      </trkpt>
      <trkpt lat="47.47704" lon="6.89148">
        <ele>375</ele>
        <time>2015-04-06T08:49:25.000Z</time>
      </trkpt>
      <trkpt lat="47.47699" lon="6.8915">
        <ele>375</ele>
        <time>2015-04-06T08:49:26.000Z</time>
      </trkpt>
      <trkpt lat="47.47693" lon="6.89152">
        <ele>375</ele>
        <time>2015-04-06T08:49:27.000Z</time>
      </trkpt>
      <trkpt lat="47.47687" lon="6.89155">
        <ele>374</ele>
        <time>2015-04-06T08:49:28.000Z</time>
      </trkpt>
      <trkpt lat="47.47681" lon="6.89155">
        <ele>374</ele>
        <time>2015-04-06T08:49:29.000Z</time>
      </trkpt>
      <trkpt lat="47.47677" lon="6.89155">
        <ele>374</ele>
        <time>2015-04-06T08:49:30.000Z</time>
      </trkpt>
      <trkpt lat="47.47672" lon="6.89158">
        <ele>374</ele>
        <time>2015-04-06T08:49:31.000Z</time>
      </trkpt>
      <trkpt lat="47.47669" lon="6.89161">
        <ele>374</ele>
        <time>2015-04-06T08:49:32.000Z</time>
      </trkpt>
      <trkpt lat="47.47664" lon="6.89163">
        <ele>374</ele>
        <time>2015-04-06T08:49:33.000Z</time>
      </trkpt>
      <trkpt lat="47.47661" lon="6.89164">
        <ele>374</ele>
        <time>2015-04-06T08:49:34.000Z</time>
      </trkpt>
      <trkpt lat="47.47658" lon="6.89166">
        <ele>374</ele>
        <time>2015-04-06T08:49:35.000Z</time>
      </trkpt>
      <trkpt lat="47.47653" lon="6.89168">
        <ele>375</ele>
        <time>2015-04-06T08:49:36.000Z</time>
      </trkpt>
      <trkpt lat="47.47647" lon="6.89172">
        <ele>375</ele>
        <time>2015-04-06T08:49:37.000Z</time>
      </trkpt>
      <trkpt lat="47.47644" lon="6.89173">
        <ele>375</ele>
        <time>2015-04-06T08:49:38.000Z</time>
      </trkpt>
      <trkpt lat="47.47643" lon="6.89176">
        <ele>375</ele>
        <time>2015-04-06T08:49:39.000Z</time>
      </trkpt>
      <trkpt lat="47.47639" lon="6.89178">
        <ele>375</ele>
        <time>2015-04-06T08:49:40.000Z</time>
      </trkpt>
      <trkpt lat="47.47636" lon="6.8918">
        <ele>375</ele>
        <time>2015-04-06T08:49:41.000Z</time>
      </trkpt>
      <trkpt lat="47.47632" lon="6.89182">
        <ele>375</ele>
        <time>2015-04-06T08:49:42.000Z</time>
      </trkpt>
      <trkpt lat="47.47629" lon="6.89184">
        <ele>375</ele>
        <time>2015-04-06T08:49:43.000Z</time>
      </trkpt>
      <trkpt lat="47.47625" lon="6.89186">
        <ele>375</ele>
        <time>2015-04-06T08:49:44.000Z</time>
      </trkpt>
      <trkpt lat="47.47622" lon="6.89188">
        <ele>375</ele>
        <time>2015-04-06T08:49:45.000Z</time>
      </trkpt>
      <trkpt lat="47.47619" lon="6.8919">
        <ele>375</ele>
        <time>2015-04-06T08:49:46.000Z</time>
      </trkpt>
      <trkpt lat="47.47616" lon="6.89191">
        <ele>375</ele>
        <time>2015-04-06T08:49:47.000Z</time>
      </trkpt>
      <trkpt lat="47.47614" lon="6.89194">
        <ele>375</ele>
        <time>2015-04-06T08:49:48.000Z</time>
      </trkpt>
      <trkpt lat="47.47612" lon="6.89197">
        <ele>375</ele>
        <time>2015-04-06T08:49:49.000Z</time>
      </trkpt>
      <trkpt lat="47.4761" lon="6.892">
        <ele>375</ele>
        <time>2015-04-06T08:49:50.000Z</time>
      </trkpt>
      <trkpt lat="47.47609" lon="6.89204">
        <ele>375</ele>
        <time>2015-04-06T08:49:51.000Z</time>
      </trkpt>
      <trkpt lat="47.47608" lon="6.89209">
        <ele>375</ele>
        <time>2015-04-06T08:49:52.000Z</time>
      </trkpt>
      <trkpt lat="47.47608" lon="6.89215">
        <ele>375</ele>
        <time>2015-04-06T08:49:53.000Z</time>
      </trkpt>
      <trkpt lat="47.47608" lon="6.89222">
        <ele>376</ele>
        <time>2015-04-06T08:49:54.000Z</time>
      </trkpt>
      <trkpt lat="47.47608" lon="6.89228">
        <ele>376</ele>
        <time>2015-04-06T08:49:55.000Z</time>
      </trkpt>
      <trkpt lat="47.47609" lon="6.89235">
        <ele>376</ele>
        <time>2015-04-06T08:49:56.000Z</time>
      </trkpt>
      <trkpt lat="47.47609" lon="6.89242">
        <ele>376</ele>
        <time>2015-04-06T08:49:57.000Z</time>
      </trkpt>
      <trkpt lat="47.47609" lon="6.89248">
        <ele>376</ele>
        <time>2015-04-06T08:49:58.000Z</time>
      </trkpt>
      <trkpt lat="47.47609" lon="6.89253">
        <ele>376</ele>
        <time>2015-04-06T08:49:59.000Z</time>
      </trkpt>
      <trkpt lat="47.47609" lon="6.89258">
        <ele>376</ele>
        <time>2015-04-06T08:50:00.000Z</time>
      </trkpt>
      <trkpt lat="47.47608" lon="6.89264">
        <ele>376</ele>
        <time>2015-04-06T08:50:01.000Z</time>
      </trkpt>
      <trkpt lat="47.47608" lon="6.89268">
        <ele>376</ele>
        <time>2015-04-06T08:50:02.000Z</time>
      </trkpt>
      <trkpt lat="47.47607" lon="6.89273">
        <ele>376</ele>
        <time>2015-04-06T08:50:03.000Z</time>
      </trkpt>
      <trkpt lat="47.47604" lon="6.89275">
        <ele>376</ele>
        <time>2015-04-06T08:50:04.000Z</time>
      </trkpt>
      <trkpt lat="47.47602" lon="6.89277">
        <ele>376</ele>
        <time>2015-04-06T08:50:05.000Z</time>
      </trkpt>
      <trkpt lat="47.47598" lon="6.89277">
        <ele>376</ele>
        <time>2015-04-06T08:50:06.000Z</time>
      </trkpt>
      <trkpt lat="47.47595" lon="6.89275">
        <ele>376</ele>
        <time>2015-04-06T08:50:07.000Z</time>
      </trkpt>
      <trkpt lat="47.47592" lon="6.89271">
        <ele>376</ele>
        <time>2015-04-06T08:50:08.000Z</time>
      </trkpt>
      <trkpt lat="47.4759" lon="6.89266">
        <ele>376</ele>
        <time>2015-04-06T08:50:09.000Z</time>
      </trkpt>
      <trkpt lat="47.47589" lon="6.8926">
        <ele>377</ele>
        <time>2015-04-06T08:50:10.000Z</time>
      </trkpt>
      <trkpt lat="47.47588" lon="6.89253">
        <ele>377</ele>
        <time>2015-04-06T08:50:11.000Z</time>
      </trkpt>
      <trkpt lat="47.47587" lon="6.89246">
        <ele>377</ele>
        <time>2015-04-06T08:50:12.000Z</time>
      </trkpt>
      <trkpt lat="47.47587" lon="6.89239">
        <ele>376</ele>
        <time>2015-04-06T08:50:13.000Z</time>
      </trkpt>
      <trkpt lat="47.47586" lon="6.89232">
        <ele>376</ele>
        <time>2015-04-06T08:50:14.000Z</time>
      </trkpt>
      <trkpt lat="47.47585" lon="6.89226">
        <ele>376</ele>
        <time>2015-04-06T08:50:15.000Z</time>
      </trkpt>
      <trkpt lat="47.47583" lon="6.8922">
        <ele>377</ele>
        <time>2015-04-06T08:50:16.000Z</time>
      </trkpt>
      <trkpt lat="47.4758" lon="6.89216">
        <ele>377</ele>
        <time>2015-04-06T08:50:17.000Z</time>
      </trkpt>
      <trkpt lat="47.47577" lon="6.89214">
        <ele>377</ele>
        <time>2015-04-06T08:50:18.000Z</time>
      </trkpt>
      <trkpt lat="47.47573" lon="6.89212">
        <ele>377</ele>
        <time>2015-04-06T08:50:19.000Z</time>
      </trkpt>
      <trkpt lat="47.47569" lon="6.89211">
        <ele>377</ele>
        <time>2015-04-06T08:50:20.000Z</time>
      </trkpt>
      <trkpt lat="47.47565" lon="6.8921">
        <ele>377</ele>
        <time>2015-04-06T08:50:21.000Z</time>
      </trkpt>
      <trkpt lat="47.47562" lon="6.89211">
        <ele>377</ele>
        <time>2015-04-06T08:50:22.000Z</time>
      </trkpt>
      <trkpt lat="47.47558" lon="6.89211">
        <ele>377</ele>
        <time>2015-04-06T08:50:23.000Z</time>
      </trkpt>
      <trkpt lat="47.47555" lon="6.89212">
        <ele>377</ele>
        <time>2015-04-06T08:50:24.000Z</time>
      </trkpt>
      <trkpt lat="47.47551" lon="6.89213">
        <ele>377</ele>
        <time>2015-04-06T08:50:25.000Z</time>
      </trkpt>
      <trkpt lat="47.47548" lon="6.89214">
        <ele>377</ele>
        <time>2015-04-06T08:50:26.000Z</time>
      </trkpt>
      <trkpt lat="47.47544" lon="6.89215">
        <ele>377</ele>
        <time>2015-04-06T08:50:27.000Z</time>
      </trkpt>
      <trkpt lat="47.4754" lon="6.89216">
        <ele>377</ele>
        <time>2015-04-06T08:50:28.000Z</time>
      </trkpt>
      <trkpt lat="47.47536" lon="6.89217">
        <ele>377</ele>
        <time>2015-04-06T08:50:29.000Z</time>
      </trkpt>
      <trkpt lat="47.47532" lon="6.89218">
        <ele>377</ele>
        <time>2015-04-06T08:50:30.000Z</time>
      </trkpt>
      <trkpt lat="47.47529" lon="6.89219">
        <ele>377</ele>
        <time>2015-04-06T08:50:31.000Z</time>
      </trkpt>
      <trkpt lat="47.47526" lon="6.89219">
        <ele>377</ele>
        <time>2015-04-06T08:50:32.000Z</time>
      </trkpt>
      <trkpt lat="47.47523" lon="6.89219">
        <ele>377</ele>
        <time>2015-04-06T08:50:33.000Z</time>
      </trkpt>
      <trkpt lat="47.4752" lon="6.8922">
        <ele>377</ele>
        <time>2015-04-06T08:50:34.000Z</time>
      </trkpt>
      <trkpt lat="47.47517" lon="6.89221">
        <ele>377</ele>
        <time>2015-04-06T08:50:35.000Z</time>
      </trkpt>
      <trkpt lat="47.47513" lon="6.89222">
        <ele>377</ele>
        <time>2015-04-06T08:50:36.000Z</time>
      </trkpt>
      <trkpt lat="47.4751" lon="6.89223">
        <ele>377</ele>
        <time>2015-04-06T08:50:37.000Z</time>
      </trkpt>
      <trkpt lat="47.47507" lon="6.89223">
        <ele>377</ele>
        <time>2015-04-06T08:50:38.000Z</time>
      </trkpt>
      <trkpt lat="47.47504" lon="6.89223">
        <ele>377</ele>
        <time>2015-04-06T08:50:39.000Z</time>
      </trkpt>
      <trkpt lat="47.47501" lon="6.89222">
        <ele>377</ele>
        <time>2015-04-06T08:50:40.000Z</time>
      </trkpt>
      <trkpt lat="47.47498" lon="6.89222">
        <ele>379</ele>
        <time>2015-04-06T08:50:41.000Z</time>
      </trkpt>
      <trkpt lat="47.47495" lon="6.89221">
        <ele>379</ele>
        <time>2015-04-06T08:50:42.000Z</time>
      </trkpt>
      <trkpt lat="47.47493" lon="6.89219">
        <ele>379</ele>
        <time>2015-04-06T08:50:43.000Z</time>
      </trkpt>
      <trkpt lat="47.4749" lon="6.89217">
        <ele>379</ele>
        <time>2015-04-06T08:50:44.000Z</time>
      </trkpt>
      <trkpt lat="47.47488" lon="6.89215">
        <ele>379</ele>
        <time>2015-04-06T08:50:45.000Z</time>
      </trkpt>
      <trkpt lat="47.47485" lon="6.89212">
        <ele>379</ele>
        <time>2015-04-06T08:50:46.000Z</time>
      </trkpt>
      <trkpt lat="47.47483" lon="6.89209">
        <ele>379</ele>
        <time>2015-04-06T08:50:47.000Z</time>
      </trkpt>
      <trkpt lat="47.4748" lon="6.89207">
        <ele>379</ele>
        <time>2015-04-06T08:50:48.000Z</time>
      </trkpt>
      <trkpt lat="47.47478" lon="6.89204">
        <ele>379</ele>
        <time>2015-04-06T08:50:49.000Z</time>
      </trkpt>
      <trkpt lat="47.47476" lon="6.89201">
        <ele>379</ele>
        <time>2015-04-06T08:50:50.000Z</time>
      </trkpt>
      <trkpt lat="47.47473" lon="6.89198">
        <ele>379</ele>
        <time>2015-04-06T08:50:51.000Z</time>
      </trkpt>
      <trkpt lat="47.4747" lon="6.89195">
        <ele>379</ele>
        <time>2015-04-06T08:50:52.000Z</time>
      </trkpt>
      <trkpt lat="47.47468" lon="6.89193">
        <ele>379</ele>
        <time>2015-04-06T08:50:53.000Z</time>
      </trkpt>
      <trkpt lat="47.47465" lon="6.89191">
        <ele>379</ele>
        <time>2015-04-06T08:50:54.000Z</time>
      </trkpt>
      <trkpt lat="47.47462" lon="6.89189">
        <ele>379</ele>
        <time>2015-04-06T08:50:55.000Z</time>
      </trkpt>
      <trkpt lat="47.47459" lon="6.89189">
        <ele>379</ele>
        <time>2015-04-06T08:50:56.000Z</time>
      </trkpt>
      <trkpt lat="47.47456" lon="6.89188">
        <ele>380</ele>
        <time>2015-04-06T08:50:57.000Z</time>
      </trkpt>
      <trkpt lat="47.47453" lon="6.89189">
        <ele>380</ele>
        <time>2015-04-06T08:50:58.000Z</time>
      </trkpt>
      <trkpt lat="47.4745" lon="6.89189">
        <ele>380</ele>
        <time>2015-04-06T08:50:59.000Z</time>
      </trkpt>
      <trkpt lat="47.47447" lon="6.89189">
        <ele>380</ele>
        <time>2015-04-06T08:51:00.000Z</time>
      </trkpt>
      <trkpt lat="47.47444" lon="6.89189">
        <ele>380</ele>
        <time>2015-04-06T08:51:01.000Z</time>
      </trkpt>
      <trkpt lat="47.4744" lon="6.89189">
        <ele>380</ele>
        <time>2015-04-06T08:51:02.000Z</time>
      </trkpt>
      <trkpt lat="47.47437" lon="6.89189">
        <ele>380</ele>
        <time>2015-04-06T08:51:03.000Z</time>
      </trkpt>
      <trkpt lat="47.47434" lon="6.89189">
        <ele>380</ele>
        <time>2015-04-06T08:51:04.000Z</time>
      </trkpt>
      <trkpt lat="47.47431" lon="6.89189">
        <ele>380</ele>
        <time>2015-04-06T08:51:05.000Z</time>
      </trkpt>
      <trkpt lat="47.47429" lon="6.89189">
        <ele>380</ele>
        <time>2015-04-06T08:51:06.000Z</time>
      </trkpt>
      <trkpt lat="47.47425" lon="6.8919">
        <ele>380</ele>
        <time>2015-04-06T08:51:08.000Z</time>
      </trkpt>
      <trkpt lat="47.47423" lon="6.8919">
        <ele>380</ele>
        <time>2015-04-06T08:51:09.000Z</time>
      </trkpt>
      <trkpt lat="47.4742" lon="6.89191">
        <ele>380</ele>
        <time>2015-04-06T08:51:10.000Z</time>
      </trkpt>
      <trkpt lat="47.47417" lon="6.89191">
        <ele>380</ele>
        <time>2015-04-06T08:51:11.000Z</time>
      </trkpt>
      <trkpt lat="47.47414" lon="6.89191">
        <ele>382</ele>
        <time>2015-04-06T08:51:12.000Z</time>
      </trkpt>
      <trkpt lat="47.47411" lon="6.89192">
        <ele>382</ele>
        <time>2015-04-06T08:51:13.000Z</time>
      </trkpt>
      <trkpt lat="47.47408" lon="6.89192">
        <ele>382</ele>
        <time>2015-04-06T08:51:14.000Z</time>
      </trkpt>
      <trkpt lat="47.47405" lon="6.89191">
        <ele>382</ele>
        <time>2015-04-06T08:51:15.000Z</time>
      </trkpt>
      <trkpt lat="47.47402" lon="6.8919">
        <ele>382</ele>
        <time>2015-04-06T08:51:16.000Z</time>
      </trkpt>
      <trkpt lat="47.47399" lon="6.89188">
        <ele>382</ele>
        <time>2015-04-06T08:51:17.000Z</time>
      </trkpt>
      <trkpt lat="47.47397" lon="6.89187">
        <ele>382</ele>
        <time>2015-04-06T08:51:18.000Z</time>
      </trkpt>
      <trkpt lat="47.47393" lon="6.89186">
        <ele>382</ele>
        <time>2015-04-06T08:51:19.000Z</time>
      </trkpt>
      <trkpt lat="47.4739" lon="6.89187">
        <ele>382</ele>
        <time>2015-04-06T08:51:20.000Z</time>
      </trkpt>
      <trkpt lat="47.47386" lon="6.89188">
        <ele>383</ele>
        <time>2015-04-06T08:51:21.000Z</time>
      </trkpt>
      <trkpt lat="47.47382" lon="6.8919">
        <ele>383</ele>
        <time>2015-04-06T08:51:22.000Z</time>
      </trkpt>
      <trkpt lat="47.47379" lon="6.89191">
        <ele>383</ele>
        <time>2015-04-06T08:51:23.000Z</time>
      </trkpt>
      <trkpt lat="47.47375" lon="6.89193">
        <ele>383</ele>
        <time>2015-04-06T08:51:24.000Z</time>
      </trkpt>
      <trkpt lat="47.47372" lon="6.89194">
        <ele>383</ele>
        <time>2015-04-06T08:51:25.000Z</time>
      </trkpt>
      <trkpt lat="47.47368" lon="6.89196">
        <ele>383</ele>
        <time>2015-04-06T08:51:26.000Z</time>
      </trkpt>
      <trkpt lat="47.47365" lon="6.89197">
        <ele>383</ele>
        <time>2015-04-06T08:51:27.000Z</time>
      </trkpt>
      <trkpt lat="47.47361" lon="6.89199">
        <ele>383</ele>
        <time>2015-04-06T08:51:28.000Z</time>
      </trkpt>
      <trkpt lat="47.47357" lon="6.892">
        <ele>383</ele>
        <time>2015-04-06T08:51:29.000Z</time>
      </trkpt>
      <trkpt lat="47.47353" lon="6.89202">
        <ele>383</ele>
        <time>2015-04-06T08:51:30.000Z</time>
      </trkpt>
      <trkpt lat="47.47349" lon="6.89203">
        <ele>383</ele>
        <time>2015-04-06T08:51:31.000Z</time>
      </trkpt>
      <trkpt lat="47.47345" lon="6.89204">
        <ele>384</ele>
        <time>2015-04-06T08:51:32.000Z</time>
      </trkpt>
      <trkpt lat="47.47341" lon="6.89205">
        <ele>384</ele>
        <time>2015-04-06T08:51:33.000Z</time>
      </trkpt>
      <trkpt lat="47.47336" lon="6.89205">
        <ele>384</ele>
        <time>2015-04-06T08:51:34.000Z</time>
      </trkpt>
      <trkpt lat="47.47331" lon="6.89206">
        <ele>386</ele>
        <time>2015-04-06T08:51:35.000Z</time>
      </trkpt>
      <trkpt lat="47.47327" lon="6.89206">
        <ele>386</ele>
        <time>2015-04-06T08:51:36.000Z</time>
      </trkpt>
      <trkpt lat="47.47322" lon="6.89206">
        <ele>386</ele>
        <time>2015-04-06T08:51:37.000Z</time>
      </trkpt>
      <trkpt lat="47.47318" lon="6.89207">
        <ele>386</ele>
        <time>2015-04-06T08:51:38.000Z</time>
      </trkpt>
      <trkpt lat="47.47313" lon="6.89208">
        <ele>386</ele>
        <time>2015-04-06T08:51:39.000Z</time>
      </trkpt>
      <trkpt lat="47.4731" lon="6.89208">
        <ele>386</ele>
        <time>2015-04-06T08:51:40.000Z</time>
      </trkpt>
      <trkpt lat="47.47306" lon="6.89209">
        <ele>386</ele>
        <time>2015-04-06T08:51:41.000Z</time>
      </trkpt>
      <trkpt lat="47.47303" lon="6.89209">
        <ele>386</ele>
        <time>2015-04-06T08:51:42.000Z</time>
      </trkpt>
      <trkpt lat="47.47299" lon="6.89209">
        <ele>386</ele>
        <time>2015-04-06T08:51:43.000Z</time>
      </trkpt>
      <trkpt lat="47.47296" lon="6.89209">
        <ele>386</ele>
        <time>2015-04-06T08:51:44.000Z</time>
      </trkpt>
      <trkpt lat="47.47292" lon="6.89208">
        <ele>386</ele>
        <time>2015-04-06T08:51:45.000Z</time>
      </trkpt>
      <trkpt lat="47.47289" lon="6.89208">
        <ele>387</ele>
        <time>2015-04-06T08:51:46.000Z</time>
      </trkpt>
      <trkpt lat="47.47286" lon="6.89207">
        <ele>387</ele>
        <time>2015-04-06T08:51:47.000Z</time>
      </trkpt>
      <trkpt lat="47.47283" lon="6.89207">
        <ele>387</ele>
        <time>2015-04-06T08:51:48.000Z</time>
      </trkpt>
      <trkpt lat="47.4728" lon="6.89206">
        <ele>387</ele>
        <time>2015-04-06T08:51:49.000Z</time>
      </trkpt>
      <trkpt lat="47.47277" lon="6.89206">
        <ele>387</ele>
        <time>2015-04-06T08:51:50.000Z</time>
      </trkpt>
      <trkpt lat="47.47275" lon="6.89205">
        <ele>387</ele>
        <time>2015-04-06T08:51:51.000Z</time>
      </trkpt>
      <trkpt lat="47.47272" lon="6.89205">
        <ele>387</ele>
        <time>2015-04-06T08:51:52.000Z</time>
      </trkpt>
      <trkpt lat="47.47269" lon="6.89205">
        <ele>387</ele>
        <time>2015-04-06T08:51:53.000Z</time>
      </trkpt>
      <trkpt lat="47.47267" lon="6.89205">
        <ele>387</ele>
        <time>2015-04-06T08:51:54.000Z</time>
      </trkpt>
      <trkpt lat="47.47264" lon="6.89205">
        <ele>387</ele>
        <time>2015-04-06T08:51:55.000Z</time>
      </trkpt>
      <trkpt lat="47.4726" lon="6.89204">
        <ele>387</ele>
        <time>2015-04-06T08:51:57.000Z</time>
      </trkpt>
      <trkpt lat="47.47258" lon="6.89203">
        <ele>387</ele>
        <time>2015-04-06T08:51:58.000Z</time>
      </trkpt>
      <trkpt lat="47.47255" lon="6.89202">
        <ele>387</ele>
        <time>2015-04-06T08:51:59.000Z</time>
      </trkpt>
      <trkpt lat="47.47253" lon="6.89201">
        <ele>387</ele>
        <time>2015-04-06T08:52:00.000Z</time>
      </trkpt>
      <trkpt lat="47.47251" lon="6.892">
        <ele>387</ele>
        <time>2015-04-06T08:52:01.000Z</time>
      </trkpt>
      <trkpt lat="47.47248" lon="6.89199">
        <ele>390</ele>
        <time>2015-04-06T08:52:02.000Z</time>
      </trkpt>
      <trkpt lat="47.47246" lon="6.89198">
        <ele>390</ele>
        <time>2015-04-06T08:52:03.000Z</time>
      </trkpt>
      <trkpt lat="47.47243" lon="6.89197">
        <ele>390</ele>
        <time>2015-04-06T08:52:04.000Z</time>
      </trkpt>
      <trkpt lat="47.47241" lon="6.89196">
        <ele>390</ele>
        <time>2015-04-06T08:52:05.000Z</time>
      </trkpt>
      <trkpt lat="47.47238" lon="6.89195">
        <ele>390</ele>
        <time>2015-04-06T08:52:06.000Z</time>
      </trkpt>
      <trkpt lat="47.47236" lon="6.89194">
        <ele>390</ele>
        <time>2015-04-06T08:52:07.000Z</time>
      </trkpt>
      <trkpt lat="47.47233" lon="6.89193">
        <ele>390</ele>
        <time>2015-04-06T08:52:08.000Z</time>
      </trkpt>
      <trkpt lat="47.47231" lon="6.89193">
        <ele>390</ele>
        <time>2015-04-06T08:52:09.000Z</time>
      </trkpt>
      <trkpt lat="47.47229" lon="6.89192">
        <ele>390</ele>
        <time>2015-04-06T08:52:10.000Z</time>
      </trkpt>
      <trkpt lat="47.47227" lon="6.89192">
        <ele>390</ele>
        <time>2015-04-06T08:52:11.000Z</time>
      </trkpt>
      <trkpt lat="47.47224" lon="6.89191">
        <ele>391</ele>
        <time>2015-04-06T08:52:12.000Z</time>
      </trkpt>
      <trkpt lat="47.4722" lon="6.89191">
        <ele>391</ele>
        <time>2015-04-06T08:52:14.000Z</time>
      </trkpt>
      <trkpt lat="47.47218" lon="6.8919">
        <ele>391</ele>
        <time>2015-04-06T08:52:15.000Z</time>
      </trkpt>
      <trkpt lat="47.47215" lon="6.8919">
        <ele>391</ele>
        <time>2015-04-06T08:52:17.000Z</time>
      </trkpt>
      <trkpt lat="47.47213" lon="6.89189">
        <ele>391</ele>
        <time>2015-04-06T08:52:18.000Z</time>
      </trkpt>
      <trkpt lat="47.47209" lon="6.89189">
        <ele>391</ele>
        <time>2015-04-06T08:52:20.000Z</time>
      </trkpt>
      <trkpt lat="47.47207" lon="6.89188">
        <ele>391</ele>
        <time>2015-04-06T08:52:21.000Z</time>
      </trkpt>
      <trkpt lat="47.47202" lon="6.89188">
        <ele>391</ele>
        <time>2015-04-06T08:52:23.000Z</time>
      </trkpt>
      <trkpt lat="47.472" lon="6.89187">
        <ele>391</ele>
        <time>2015-04-06T08:52:24.000Z</time>
      </trkpt>
      <trkpt lat="47.47197" lon="6.89186">
        <ele>392</ele>
        <time>2015-04-06T08:52:26.000Z</time>
      </trkpt>
      <trkpt lat="47.47195" lon="6.89185">
        <ele>392</ele>
        <time>2015-04-06T08:52:27.000Z</time>
      </trkpt>
      <trkpt lat="47.47191" lon="6.89184">
        <ele>392</ele>
        <time>2015-04-06T08:52:29.000Z</time>
      </trkpt>
      <trkpt lat="47.47189" lon="6.89184">
        <ele>392</ele>
        <time>2015-04-06T08:52:30.000Z</time>
      </trkpt>
      <trkpt lat="47.47185" lon="6.89184">
        <ele>392</ele>
        <time>2015-04-06T08:52:32.000Z</time>
      </trkpt>
      <trkpt lat="47.47183" lon="6.89185">
        <ele>392</ele>
        <time>2015-04-06T08:52:33.000Z</time>
      </trkpt>
      <trkpt lat="47.47179" lon="6.89185">
        <ele>392</ele>
        <time>2015-04-06T08:52:35.000Z</time>
      </trkpt>
      <trkpt lat="47.47178" lon="6.89185">
        <ele>392</ele>
        <time>2015-04-06T08:52:36.000Z</time>
      </trkpt>
      <trkpt lat="47.47174" lon="6.89184">
        <ele>392</ele>
        <time>2015-04-06T08:52:38.000Z</time>
      </trkpt>
      <trkpt lat="47.47172" lon="6.89184">
        <ele>392</ele>
        <time>2015-04-06T08:52:39.000Z</time>
      </trkpt>
      <trkpt lat="47.47169" lon="6.89184">
        <ele>392</ele>
        <time>2015-04-06T08:52:41.000Z</time>
      </trkpt>
      <trkpt lat="47.47167" lon="6.89183">
        <ele>392</ele>
        <time>2015-04-06T08:52:42.000Z</time>
      </trkpt>
      <trkpt lat="47.47163" lon="6.89182">
        <ele>395</ele>
        <time>2015-04-06T08:52:44.000Z</time>
      </trkpt>
      <trkpt lat="47.47161" lon="6.89182">
        <ele>395</ele>
        <time>2015-04-06T08:52:45.000Z</time>
      </trkpt>
      <trkpt lat="47.47157" lon="6.89182">
        <ele>395</ele>
        <time>2015-04-06T08:52:47.000Z</time>
      </trkpt>
      <trkpt lat="47.47155" lon="6.89181">
        <ele>395</ele>
        <time>2015-04-06T08:52:48.000Z</time>
      </trkpt>
      <trkpt lat="47.47152" lon="6.89179">
        <ele>396</ele>
        <time>2015-04-06T08:52:50.000Z</time>
      </trkpt>
      <trkpt lat="47.47151" lon="6.89178">
        <ele>396</ele>
        <time>2015-04-06T08:52:51.000Z</time>
      </trkpt>
      <trkpt lat="47.47147" lon="6.89177">
        <ele>396</ele>
        <time>2015-04-06T08:52:53.000Z</time>
      </trkpt>
      <trkpt lat="47.47145" lon="6.89177">
        <ele>396</ele>
        <time>2015-04-06T08:52:54.000Z</time>
      </trkpt>
      <trkpt lat="47.47143" lon="6.89177">
        <ele>396</ele>
        <time>2015-04-06T08:52:55.000Z</time>
      </trkpt>
      <trkpt lat="47.47141" lon="6.89177">
        <ele>396</ele>
        <time>2015-04-06T08:52:56.000Z</time>
      </trkpt>
      <trkpt lat="47.47138" lon="6.89177">
        <ele>396</ele>
        <time>2015-04-06T08:52:57.000Z</time>
      </trkpt>
      <trkpt lat="47.47136" lon="6.89177">
        <ele>397</ele>
        <time>2015-04-06T08:52:58.000Z</time>
      </trkpt>
      <trkpt lat="47.47134" lon="6.89177">
        <ele>397</ele>
        <time>2015-04-06T08:52:59.000Z</time>
      </trkpt>
      <trkpt lat="47.47131" lon="6.89177">
        <ele>397</ele>
        <time>2015-04-06T08:53:00.000Z</time>
      </trkpt>
      <trkpt lat="47.47129" lon="6.89177">
        <ele>397</ele>
        <time>2015-04-06T08:53:01.000Z</time>
      </trkpt>
      <trkpt lat="47.47127" lon="6.89177">
        <ele>397</ele>
        <time>2015-04-06T08:53:02.000Z</time>
      </trkpt>
      <trkpt lat="47.47124" lon="6.89178">
        <ele>397</ele>
        <time>2015-04-06T08:53:03.000Z</time>
      </trkpt>
      <trkpt lat="47.47122" lon="6.89178">
        <ele>398</ele>
        <time>2015-04-06T08:53:04.000Z</time>
      </trkpt>
      <trkpt lat="47.47119" lon="6.89178">
        <ele>398</ele>
        <time>2015-04-06T08:53:05.000Z</time>
      </trkpt>
      <trkpt lat="47.47116" lon="6.89178">
        <ele>398</ele>
        <time>2015-04-06T08:53:06.000Z</time>
      </trkpt>
      <trkpt lat="47.47114" lon="6.89177">
        <ele>398</ele>
        <time>2015-04-06T08:53:07.000Z</time>
      </trkpt>
      <trkpt lat="47.47111" lon="6.89177">
        <ele>398</ele>
        <time>2015-04-06T08:53:08.000Z</time>
      </trkpt>
      <trkpt lat="47.47107" lon="6.89177">
        <ele>398</ele>
        <time>2015-04-06T08:53:10.000Z</time>
      </trkpt>
      <trkpt lat="47.47105" lon="6.89176">
        <ele>398</ele>
        <time>2015-04-06T08:53:11.000Z</time>
      </trkpt>
      <trkpt lat="47.47102" lon="6.89176">
        <ele>399</ele>
        <time>2015-04-06T08:53:12.000Z</time>
      </trkpt>
      <trkpt lat="47.471" lon="6.89176">
        <ele>399</ele>
        <time>2015-04-06T08:53:13.000Z</time>
      </trkpt>
      <trkpt lat="47.47097" lon="6.89176">
        <ele>399</ele>
        <time>2015-04-06T08:53:14.000Z</time>
      </trkpt>
      <trkpt lat="47.47095" lon="6.89176">
        <ele>399</ele>
        <time>2015-04-06T08:53:15.000Z</time>
      </trkpt>
      <trkpt lat="47.47093" lon="6.89176">
        <ele>399</ele>
        <time>2015-04-06T08:53:16.000Z</time>
      </trkpt>
      <trkpt lat="47.4709" lon="6.89176">
        <ele>399</ele>
        <time>2015-04-06T08:53:17.000Z</time>
      </trkpt>
      <trkpt lat="47.47086" lon="6.89177">
        <ele>399</ele>
        <time>2015-04-06T08:53:19.000Z</time>
      </trkpt>
      <trkpt lat="47.47084" lon="6.89177">
        <ele>399</ele>
        <time>2015-04-06T08:53:20.000Z</time>
      </trkpt>
      <trkpt lat="47.47081" lon="6.89177">
        <ele>401</ele>
        <time>2015-04-06T08:53:21.000Z</time>
      </trkpt>
      <trkpt lat="47.47079" lon="6.89177">
        <ele>401</ele>
        <time>2015-04-06T08:53:22.000Z</time>
      </trkpt>
      <trkpt lat="47.47076" lon="6.89177">
        <ele>401</ele>
        <time>2015-04-06T08:53:23.000Z</time>
      </trkpt>
      <trkpt lat="47.47074" lon="6.89177">
        <ele>401</ele>
        <time>2015-04-06T08:53:24.000Z</time>
      </trkpt>
      <trkpt lat="47.47071" lon="6.89177">
        <ele>402</ele>
        <time>2015-04-06T08:53:25.000Z</time>
      </trkpt>
      <trkpt lat="47.47069" lon="6.89178">
        <ele>402</ele>
        <time>2015-04-06T08:53:26.000Z</time>
      </trkpt>
      <trkpt lat="47.47066" lon="6.89179">
        <ele>402</ele>
        <time>2015-04-06T08:53:27.000Z</time>
      </trkpt>
      <trkpt lat="47.47064" lon="6.89181">
        <ele>402</ele>
        <time>2015-04-06T08:53:28.000Z</time>
      </trkpt>
      <trkpt lat="47.47062" lon="6.89184">
        <ele>402</ele>
        <time>2015-04-06T08:53:29.000Z</time>
      </trkpt>
      <trkpt lat="47.47061" lon="6.89186">
        <ele>402</ele>
        <time>2015-04-06T08:53:30.000Z</time>
      </trkpt>
      <trkpt lat="47.4706" lon="6.89192">
        <ele>403</ele>
        <time>2015-04-06T08:53:32.000Z</time>
      </trkpt>
      <trkpt lat="47.4706" lon="6.89194">
        <ele>403</ele>
        <time>2015-04-06T08:53:33.000Z</time>
      </trkpt>
      <trkpt lat="47.47059" lon="6.89201">
        <ele>403</ele>
        <time>2015-04-06T08:53:35.000Z</time>
      </trkpt>
      <trkpt lat="47.47058" lon="6.89204">
        <ele>403</ele>
        <time>2015-04-06T08:53:36.000Z</time>
      </trkpt>
      <trkpt lat="47.47057" lon="6.89208">
        <ele>403</ele>
        <time>2015-04-06T08:53:37.000Z</time>
      </trkpt>
      <trkpt lat="47.47057" lon="6.89211">
        <ele>403</ele>
        <time>2015-04-06T08:53:38.000Z</time>
      </trkpt>
      <trkpt lat="47.47056" lon="6.89217">
        <ele>403</ele>
        <time>2015-04-06T08:53:40.000Z</time>
      </trkpt>
      <trkpt lat="47.47055" lon="6.8922">
        <ele>403</ele>
        <time>2015-04-06T08:53:41.000Z</time>
      </trkpt>
      <trkpt lat="47.47054" lon="6.89226">
        <ele>403</ele>
        <time>2015-04-06T08:53:43.000Z</time>
      </trkpt>
      <trkpt lat="47.47053" lon="6.89229">
        <ele>403</ele>
        <time>2015-04-06T08:53:44.000Z</time>
      </trkpt>
      <trkpt lat="47.47052" lon="6.89235">
        <ele>403</ele>
        <time>2015-04-06T08:53:46.000Z</time>
      </trkpt>
      <trkpt lat="47.47051" lon="6.89239">
        <ele>404</ele>
        <time>2015-04-06T08:53:47.000Z</time>
      </trkpt>
      <trkpt lat="47.4705" lon="6.89242">
        <ele>404</ele>
        <time>2015-04-06T08:53:48.000Z</time>
      </trkpt>
      <trkpt lat="47.47048" lon="6.89245">
        <ele>404</ele>
        <time>2015-04-06T08:53:49.000Z</time>
      </trkpt>
      <trkpt lat="47.47047" lon="6.89248">
        <ele>404</ele>
        <time>2015-04-06T08:53:50.000Z</time>
      </trkpt>
      <trkpt lat="47.47046" lon="6.89251">
        <ele>405</ele>
        <time>2015-04-06T08:53:51.000Z</time>
      </trkpt>
      <trkpt lat="47.47043" lon="6.89256">
        <ele>406</ele>
        <time>2015-04-06T08:53:53.000Z</time>
      </trkpt>
      <trkpt lat="47.47042" lon="6.89258">
        <ele>406</ele>
        <time>2015-04-06T08:53:54.000Z</time>
      </trkpt>
      <trkpt lat="47.47041" lon="6.89262">
        <ele>406</ele>
        <time>2015-04-06T08:53:55.000Z</time>
      </trkpt>
      <trkpt lat="47.47039" lon="6.89265">
        <ele>406</ele>
        <time>2015-04-06T08:53:56.000Z</time>
      </trkpt>
      <trkpt lat="47.47038" lon="6.89268">
        <ele>406</ele>
        <time>2015-04-06T08:53:57.000Z</time>
      </trkpt>
      <trkpt lat="47.47036" lon="6.89271">
        <ele>406</ele>
        <time>2015-04-06T08:53:58.000Z</time>
      </trkpt>
      <trkpt lat="47.47034" lon="6.89276">
        <ele>406</ele>
        <time>2015-04-06T08:54:00.000Z</time>
      </trkpt>
      <trkpt lat="47.47033" lon="6.89279">
        <ele>406</ele>
        <time>2015-04-06T08:54:01.000Z</time>
      </trkpt>
      <trkpt lat="47.47032" lon="6.89285">
        <ele>406</ele>
        <time>2015-04-06T08:54:03.000Z</time>
      </trkpt>
      <trkpt lat="47.47031" lon="6.89287">
        <ele>406</ele>
        <time>2015-04-06T08:54:04.000Z</time>
      </trkpt>
      <trkpt lat="47.47029" lon="6.89293">
        <ele>407</ele>
        <time>2015-04-06T08:54:06.000Z</time>
      </trkpt>
      <trkpt lat="47.47028" lon="6.89296">
        <ele>407</ele>
        <time>2015-04-06T08:54:07.000Z</time>
      </trkpt>
      <trkpt lat="47.47026" lon="6.89301">
        <ele>407</ele>
        <time>2015-04-06T08:54:09.000Z</time>
      </trkpt>
      <trkpt lat="47.47025" lon="6.89304">
        <ele>407</ele>
        <time>2015-04-06T08:54:10.000Z</time>
      </trkpt>
      <trkpt lat="47.47024" lon="6.89307">
        <ele>407</ele>
        <time>2015-04-06T08:54:11.000Z</time>
      </trkpt>
      <trkpt lat="47.47023" lon="6.8931">
        <ele>407</ele>
        <time>2015-04-06T08:54:12.000Z</time>
      </trkpt>
      <trkpt lat="47.47022" lon="6.89315">
        <ele>407</ele>
        <time>2015-04-06T08:54:14.000Z</time>
      </trkpt>
      <trkpt lat="47.47021" lon="6.89317">
        <ele>408</ele>
        <time>2015-04-06T08:54:15.000Z</time>
      </trkpt>
      <trkpt lat="47.47021" lon="6.89322">
        <ele>408</ele>
        <time>2015-04-06T08:54:17.000Z</time>
      </trkpt>
      <trkpt lat="47.4702" lon="6.89325">
        <ele>408</ele>
        <time>2015-04-06T08:54:18.000Z</time>
      </trkpt>
      <trkpt lat="47.47019" lon="6.89328">
        <ele>408</ele>
        <time>2015-04-06T08:54:19.000Z</time>
      </trkpt>
      <trkpt lat="47.47018" lon="6.89332">
        <ele>408</ele>
        <time>2015-04-06T08:54:20.000Z</time>
      </trkpt>
      <trkpt lat="47.47017" lon="6.89335">
        <ele>409</ele>
        <time>2015-04-06T08:54:21.000Z</time>
      </trkpt>
      <trkpt lat="47.47017" lon="6.89339">
        <ele>409</ele>
        <time>2015-04-06T08:54:22.000Z</time>
      </trkpt>
      <trkpt lat="47.47016" lon="6.89342">
        <ele>409</ele>
        <time>2015-04-06T08:54:23.000Z</time>
      </trkpt>
      <trkpt lat="47.47015" lon="6.89345">
        <ele>409</ele>
        <time>2015-04-06T08:54:24.000Z</time>
      </trkpt>
      <trkpt lat="47.47014" lon="6.89351">
        <ele>409</ele>
        <time>2015-04-06T08:54:26.000Z</time>
      </trkpt>
      <trkpt lat="47.47013" lon="6.89354">
        <ele>409</ele>
        <time>2015-04-06T08:54:27.000Z</time>
      </trkpt>
      <trkpt lat="47.47012" lon="6.89357">
        <ele>409</ele>
        <time>2015-04-06T08:54:28.000Z</time>
      </trkpt>
      <trkpt lat="47.47011" lon="6.8936">
        <ele>409</ele>
        <time>2015-04-06T08:54:29.000Z</time>
      </trkpt>
      <trkpt lat="47.47009" lon="6.89364">
        <ele>409</ele>
        <time>2015-04-06T08:54:30.000Z</time>
      </trkpt>
      <trkpt lat="47.47008" lon="6.89368">
        <ele>409</ele>
        <time>2015-04-06T08:54:31.000Z</time>
      </trkpt>
      <trkpt lat="47.47006" lon="6.89372">
        <ele>409</ele>
        <time>2015-04-06T08:54:32.000Z</time>
      </trkpt>
      <trkpt lat="47.47004" lon="6.89376">
        <ele>409</ele>
        <time>2015-04-06T08:54:33.000Z</time>
      </trkpt>
      <trkpt lat="47.47003" lon="6.8938">
        <ele>409</ele>
        <time>2015-04-06T08:54:34.000Z</time>
      </trkpt>
      <trkpt lat="47.47002" lon="6.89383">
        <ele>409</ele>
        <time>2015-04-06T08:54:35.000Z</time>
      </trkpt>
      <trkpt lat="47.47" lon="6.89387">
        <ele>409</ele>
        <time>2015-04-06T08:54:36.000Z</time>
      </trkpt>
      <trkpt lat="47.46999" lon="6.89391">
        <ele>414</ele>
        <time>2015-04-06T08:54:37.000Z</time>
      </trkpt>
      <trkpt lat="47.46998" lon="6.89394">
        <ele>414</ele>
        <time>2015-04-06T08:54:38.000Z</time>
      </trkpt>
      <trkpt lat="47.46996" lon="6.89397">
        <ele>414</ele>
        <time>2015-04-06T08:54:39.000Z</time>
      </trkpt>
      <trkpt lat="47.46994" lon="6.89401">
        <ele>414</ele>
        <time>2015-04-06T08:54:41.000Z</time>
      </trkpt>
      <trkpt lat="47.46993" lon="6.89403">
        <ele>414</ele>
        <time>2015-04-06T08:54:42.000Z</time>
      </trkpt>
      <trkpt lat="47.46992" lon="6.89409">
        <ele>413</ele>
        <time>2015-04-06T08:54:44.000Z</time>
      </trkpt>
      <trkpt lat="47.46991" lon="6.89412">
        <ele>413</ele>
        <time>2015-04-06T08:54:45.000Z</time>
      </trkpt>
      <trkpt lat="47.4699" lon="6.89415">
        <ele>413</ele>
        <time>2015-04-06T08:54:46.000Z</time>
      </trkpt>
      <trkpt lat="47.46989" lon="6.89418">
        <ele>413</ele>
        <time>2015-04-06T08:54:47.000Z</time>
      </trkpt>
      <trkpt lat="47.46987" lon="6.89421">
        <ele>413</ele>
        <time>2015-04-06T08:54:48.000Z</time>
      </trkpt>
      <trkpt lat="47.46986" lon="6.89423">
        <ele>413</ele>
        <time>2015-04-06T08:54:49.000Z</time>
      </trkpt>
      <trkpt lat="47.46983" lon="6.89428">
        <ele>413</ele>
        <time>2015-04-06T08:54:51.000Z</time>
      </trkpt>
      <trkpt lat="47.46982" lon="6.8943">
        <ele>413</ele>
        <time>2015-04-06T08:54:52.000Z</time>
      </trkpt>
      <trkpt lat="47.46979" lon="6.89434">
        <ele>413</ele>
        <time>2015-04-06T08:54:56.000Z</time>
      </trkpt>
      <trkpt lat="47.46978" lon="6.89436">
        <ele>413</ele>
        <time>2015-04-06T08:54:57.000Z</time>
      </trkpt>
      <trkpt lat="47.46977" lon="6.89438">
        <ele>413</ele>
        <time>2015-04-06T08:54:58.000Z</time>
      </trkpt>
      <trkpt lat="47.46974" lon="6.8944">
        <ele>413</ele>
        <time>2015-04-06T08:54:59.000Z</time>
      </trkpt>
      <trkpt lat="47.46972" lon="6.89442">
        <ele>413</ele>
        <time>2015-04-06T08:55:00.000Z</time>
      </trkpt>
      <trkpt lat="47.4697" lon="6.89444">
        <ele>413</ele>
        <time>2015-04-06T08:55:01.000Z</time>
      </trkpt>
      <trkpt lat="47.46967" lon="6.89446">
        <ele>414</ele>
        <time>2015-04-06T08:55:02.000Z</time>
      </trkpt>
      <trkpt lat="47.46964" lon="6.89448">
        <ele>414</ele>
        <time>2015-04-06T08:55:03.000Z</time>
      </trkpt>
      <trkpt lat="47.46962" lon="6.8945">
        <ele>414</ele>
        <time>2015-04-06T08:55:04.000Z</time>
      </trkpt>
      <trkpt lat="47.4696" lon="6.89452">
        <ele>414</ele>
        <time>2015-04-06T08:55:05.000Z</time>
      </trkpt>
      <trkpt lat="47.46957" lon="6.89454">
        <ele>414</ele>
        <time>2015-04-06T08:55:06.000Z</time>
      </trkpt>
      <trkpt lat="47.46954" lon="6.89455">
        <ele>414</ele>
        <time>2015-04-06T08:55:07.000Z</time>
      </trkpt>
      <trkpt lat="47.46952" lon="6.89458">
        <ele>414</ele>
        <time>2015-04-06T08:55:08.000Z</time>
      </trkpt>
      <trkpt lat="47.46949" lon="6.89459">
        <ele>414</ele>
        <time>2015-04-06T08:55:09.000Z</time>
      </trkpt>
      <trkpt lat="47.46947" lon="6.8946">
        <ele>414</ele>
        <time>2015-04-06T08:55:10.000Z</time>
      </trkpt>
      <trkpt lat="47.46944" lon="6.89461">
        <ele>415</ele>
        <time>2015-04-06T08:55:11.000Z</time>
      </trkpt>
      <trkpt lat="47.4694" lon="6.89462">
        <ele>415</ele>
        <time>2015-04-06T08:55:13.000Z</time>
      </trkpt>
      <trkpt lat="47.46938" lon="6.89463">
        <ele>415</ele>
        <time>2015-04-06T08:55:14.000Z</time>
      </trkpt>
      <trkpt lat="47.46935" lon="6.89465">
        <ele>415</ele>
        <time>2015-04-06T08:55:15.000Z</time>
      </trkpt>
      <trkpt lat="47.46933" lon="6.89466">
        <ele>415</ele>
        <time>2015-04-06T08:55:16.000Z</time>
      </trkpt>
      <trkpt lat="47.46929" lon="6.89469">
        <ele>415</ele>
        <time>2015-04-06T08:55:18.000Z</time>
      </trkpt>
      <trkpt lat="47.46928" lon="6.8947">
        <ele>415</ele>
        <time>2015-04-06T08:55:19.000Z</time>
      </trkpt>
      <trkpt lat="47.46924" lon="6.89472">
        <ele>416</ele>
        <time>2015-04-06T08:55:21.000Z</time>
      </trkpt>
      <trkpt lat="47.46921" lon="6.89473">
        <ele>416</ele>
        <time>2015-04-06T08:55:22.000Z</time>
      </trkpt>
      <trkpt lat="47.46919" lon="6.89474">
        <ele>416</ele>
        <time>2015-04-06T08:55:23.000Z</time>
      </trkpt>
      <trkpt lat="47.46917" lon="6.89475">
        <ele>416</ele>
        <time>2015-04-06T08:55:24.000Z</time>
      </trkpt>
      <trkpt lat="47.46915" lon="6.89476">
        <ele>419</ele>
        <time>2015-04-06T08:55:25.000Z</time>
      </trkpt>
      <trkpt lat="47.46912" lon="6.89476">
        <ele>419</ele>
        <time>2015-04-06T08:55:26.000Z</time>
      </trkpt>
      <trkpt lat="47.4691" lon="6.89477">
        <ele>419</ele>
        <time>2015-04-06T08:55:27.000Z</time>
      </trkpt>
      <trkpt lat="47.46908" lon="6.89477">
        <ele>419</ele>
        <time>2015-04-06T08:55:28.000Z</time>
      </trkpt>
      <trkpt lat="47.46905" lon="6.89478">
        <ele>419</ele>
        <time>2015-04-06T08:55:29.000Z</time>
      </trkpt>
      <trkpt lat="47.46903" lon="6.89479">
        <ele>419</ele>
        <time>2015-04-06T08:55:30.000Z</time>
      </trkpt>
      <trkpt lat="47.46901" lon="6.8948">
        <ele>419</ele>
        <time>2015-04-06T08:55:31.000Z</time>
      </trkpt>
      <trkpt lat="47.46898" lon="6.89481">
        <ele>419</ele>
        <time>2015-04-06T08:55:32.000Z</time>
      </trkpt>
      <trkpt lat="47.46896" lon="6.89482">
        <ele>419</ele>
        <time>2015-04-06T08:55:33.000Z</time>
      </trkpt>
      <trkpt lat="47.46893" lon="6.89483">
        <ele>420</ele>
        <time>2015-04-06T08:55:34.000Z</time>
      </trkpt>
      <trkpt lat="47.46891" lon="6.89484">
        <ele>420</ele>
        <time>2015-04-06T08:55:35.000Z</time>
      </trkpt>
      <trkpt lat="47.46888" lon="6.89484">
        <ele>420</ele>
        <time>2015-04-06T08:55:36.000Z</time>
      </trkpt>
      <trkpt lat="47.46885" lon="6.89486">
        <ele>420</ele>
        <time>2015-04-06T08:55:38.000Z</time>
      </trkpt>
      <trkpt lat="47.46884" lon="6.89486">
        <ele>420</ele>
        <time>2015-04-06T08:55:39.000Z</time>
      </trkpt>
      <trkpt lat="47.4688" lon="6.8949">
        <ele>420</ele>
        <time>2015-04-06T08:55:43.000Z</time>
      </trkpt>
      <trkpt lat="47.46879" lon="6.89491">
        <ele>420</ele>
        <time>2015-04-06T08:55:44.000Z</time>
      </trkpt>
      <trkpt lat="47.46878" lon="6.89495">
        <ele>420</ele>
        <time>2015-04-06T08:55:47.000Z</time>
      </trkpt>
      <trkpt lat="47.46878" lon="6.89497">
        <ele>420</ele>
        <time>2015-04-06T08:55:48.000Z</time>
      </trkpt>
      <trkpt lat="47.46879" lon="6.89503">
        <ele>419</ele>
        <time>2015-04-06T08:56:07.000Z</time>
      </trkpt>
      <trkpt lat="47.46879" lon="6.89505">
        <ele>419</ele>
        <time>2015-04-06T08:56:08.000Z</time>
      </trkpt>
      <trkpt lat="47.46879" lon="6.8951">
        <ele>419</ele>
        <time>2015-04-06T08:56:11.000Z</time>
      </trkpt>
      <trkpt lat="47.46879" lon="6.89512">
        <ele>419</ele>
        <time>2015-04-06T08:56:12.000Z</time>
      </trkpt>
      <trkpt lat="47.46878" lon="6.89518">
        <ele>419</ele>
        <time>2015-04-06T08:56:18.000Z</time>
      </trkpt>
      <trkpt lat="47.46878" lon="6.89519">
        <ele>419</ele>
        <time>2015-04-06T08:56:19.000Z</time>
      </trkpt>
      <trkpt lat="47.46879" lon="6.89524">
        <ele>419</ele>
        <time>2015-04-06T08:56:22.000Z</time>
      </trkpt>
      <trkpt lat="47.46879" lon="6.89526">
        <ele>419</ele>
        <time>2015-04-06T08:56:23.000Z</time>
      </trkpt>
      <trkpt lat="47.46879" lon="6.89532">
        <ele>419</ele>
        <time>2015-04-06T08:56:26.000Z</time>
      </trkpt>
      <trkpt lat="47.46879" lon="6.89534">
        <ele>419</ele>
        <time>2015-04-06T08:56:27.000Z</time>
      </trkpt>
      <trkpt lat="47.4688" lon="6.89539">
        <ele>419</ele>
        <time>2015-04-06T08:56:31.000Z</time>
      </trkpt>
      <trkpt lat="47.4688" lon="6.89541">
        <ele>419</ele>
        <time>2015-04-06T08:56:32.000Z</time>
      </trkpt>
      <trkpt lat="47.4688" lon="6.89547">
        <ele>419</ele>
        <time>2015-04-06T08:56:36.000Z</time>
      </trkpt>
      <trkpt lat="47.4688" lon="6.89548">
        <ele>419</ele>
        <time>2015-04-06T08:56:37.000Z</time>
      </trkpt>
      <trkpt lat="47.4688" lon="6.89554">
        <ele>419</ele>
        <time>2015-04-06T08:56:41.000Z</time>
      </trkpt>
      <trkpt lat="47.4688" lon="6.89556">
        <ele>419</ele>
        <time>2015-04-06T08:56:42.000Z</time>
      </trkpt>
      <trkpt lat="47.4688" lon="6.89561">
        <ele>419</ele>
        <time>2015-04-06T08:56:46.000Z</time>
      </trkpt>
      <trkpt lat="47.4688" lon="6.89563">
        <ele>419</ele>
        <time>2015-04-06T08:56:47.000Z</time>
      </trkpt>
      <trkpt lat="47.46882" lon="6.89568">
        <ele>419</ele>
        <time>2015-04-06T08:56:54.000Z</time>
      </trkpt>
      <trkpt lat="47.46882" lon="6.89569">
        <ele>419</ele>
        <time>2015-04-06T08:56:55.000Z</time>
      </trkpt>
      <trkpt lat="47.46883" lon="6.89575">
        <ele>418</ele>
        <time>2015-04-06T08:56:58.000Z</time>
      </trkpt>
      <trkpt lat="47.46883" lon="6.89577">
        <ele>418</ele>
        <time>2015-04-06T08:56:59.000Z</time>
      </trkpt>
      <trkpt lat="47.46882" lon="6.89583">
        <ele>418</ele>
        <time>2015-04-06T08:57:03.000Z</time>
      </trkpt>
      <trkpt lat="47.46881" lon="6.89584">
        <ele>418</ele>
        <time>2015-04-06T08:57:04.000Z</time>
      </trkpt>
      <trkpt lat="47.46881" lon="6.89589">
        <ele>418</ele>
        <time>2015-04-06T08:57:08.000Z</time>
      </trkpt>
      <trkpt lat="47.46881" lon="6.89591">
        <ele>418</ele>
        <time>2015-04-06T08:57:09.000Z</time>
      </trkpt>
      <trkpt lat="47.46881" lon="6.89597">
        <ele>419</ele>
        <time>2015-04-06T08:57:12.000Z</time>
      </trkpt>
      <trkpt lat="47.4688" lon="6.89599">
        <ele>419</ele>
        <time>2015-04-06T08:57:13.000Z</time>
      </trkpt>
      <trkpt lat="47.4688" lon="6.89605">
        <ele>419</ele>
        <time>2015-04-06T08:57:16.000Z</time>
      </trkpt>
      <trkpt lat="47.4688" lon="6.89607">
        <ele>419</ele>
        <time>2015-04-06T08:57:17.000Z</time>
      </trkpt>
      <trkpt lat="47.4688" lon="6.89613">
        <ele>419</ele>
        <time>2015-04-06T08:57:20.000Z</time>
      </trkpt>
      <trkpt lat="47.4688" lon="6.89615">
        <ele>419</ele>
        <time>2015-04-06T08:57:21.000Z</time>
      </trkpt>
      <trkpt lat="47.4688" lon="6.8962">
        <ele>419</ele>
        <time>2015-04-06T08:57:23.000Z</time>
      </trkpt>
      <trkpt lat="47.4688" lon="6.89623">
        <ele>419</ele>
        <time>2015-04-06T08:57:24.000Z</time>
      </trkpt>
      <trkpt lat="47.4688" lon="6.89629">
        <ele>419</ele>
        <time>2015-04-06T08:57:28.000Z</time>
      </trkpt>
      <trkpt lat="47.4688" lon="6.89631">
        <ele>419</ele>
        <time>2015-04-06T08:57:29.000Z</time>
      </trkpt>
      <trkpt lat="47.46881" lon="6.89635">
        <ele>419</ele>
        <time>2015-04-06T08:57:31.000Z</time>
      </trkpt>
      <trkpt lat="47.46881" lon="6.89637">
        <ele>419</ele>
        <time>2015-04-06T08:57:32.000Z</time>
      </trkpt>
      <trkpt lat="47.46884" lon="6.89643">
        <ele>419</ele>
        <time>2015-04-06T08:57:45.000Z</time>
      </trkpt>
      <trkpt lat="47.46884" lon="6.89643">
        <ele>419</ele>
        <time>2015-04-06T08:57:46.000Z</time>
      </trkpt>
      <trkpt lat="47.46884" lon="6.89649">
        <ele>419</ele>
        <time>2015-04-06T08:58:22.000Z</time>
      </trkpt>
      <trkpt lat="47.46884" lon="6.8965">
        <ele>419</ele>
        <time>2015-04-06T08:58:23.000Z</time>
      </trkpt>
      <trkpt lat="47.46885" lon="6.89654">
        <ele>419</ele>
        <time>2015-04-06T08:58:25.000Z</time>
      </trkpt>
      <trkpt lat="47.46885" lon="6.89657">
        <ele>419</ele>
        <time>2015-04-06T08:58:26.000Z</time>
      </trkpt>
      <trkpt lat="47.46886" lon="6.8966">
        <ele>419</ele>
        <time>2015-04-06T08:58:27.000Z</time>
      </trkpt>
      <trkpt lat="47.46887" lon="6.89664">
        <ele>419</ele>
        <time>2015-04-06T08:58:28.000Z</time>
      </trkpt>
      <trkpt lat="47.46887" lon="6.89668">
        <ele>420</ele>
        <time>2015-04-06T08:58:29.000Z</time>
      </trkpt>
      <trkpt lat="47.46887" lon="6.89672">
        <ele>420</ele>
        <time>2015-04-06T08:58:30.000Z</time>
      </trkpt>
      <trkpt lat="47.46887" lon="6.89677">
        <ele>420</ele>
        <time>2015-04-06T08:58:31.000Z</time>
      </trkpt>
      <trkpt lat="47.46886" lon="6.89681">
        <ele>421</ele>
        <time>2015-04-06T08:58:32.000Z</time>
      </trkpt>
      <trkpt lat="47.46886" lon="6.89685">
        <ele>421</ele>
        <time>2015-04-06T08:58:33.000Z</time>
      </trkpt>
      <trkpt lat="47.46886" lon="6.89689">
        <ele>421</ele>
        <time>2015-04-06T08:58:34.000Z</time>
      </trkpt>
      <trkpt lat="47.46886" lon="6.89692">
        <ele>421</ele>
        <time>2015-04-06T08:58:35.000Z</time>
      </trkpt>
      <trkpt lat="47.46887" lon="6.89696">
        <ele>421</ele>
        <time>2015-04-06T08:58:36.000Z</time>
      </trkpt>
      <trkpt lat="47.46888" lon="6.89699">
        <ele>421</ele>
        <time>2015-04-06T08:58:37.000Z</time>
      </trkpt>
      <trkpt lat="47.46888" lon="6.89702">
        <ele>421</ele>
        <time>2015-04-06T08:58:38.000Z</time>
      </trkpt>
      <trkpt lat="47.46889" lon="6.89706">
        <ele>421</ele>
        <time>2015-04-06T08:58:39.000Z</time>
      </trkpt>
      <trkpt lat="47.46889" lon="6.8971">
        <ele>421</ele>
        <time>2015-04-06T08:58:40.000Z</time>
      </trkpt>
      <trkpt lat="47.46888" lon="6.89714">
        <ele>422</ele>
        <time>2015-04-06T08:58:41.000Z</time>
      </trkpt>
      <trkpt lat="47.46888" lon="6.89719">
        <ele>422</ele>
        <time>2015-04-06T08:58:42.000Z</time>
      </trkpt>
      <trkpt lat="47.46888" lon="6.89723">
        <ele>422</ele>
        <time>2015-04-06T08:58:43.000Z</time>
      </trkpt>
      <trkpt lat="47.46888" lon="6.89727">
        <ele>422</ele>
        <time>2015-04-06T08:58:44.000Z</time>
      </trkpt>
      <trkpt lat="47.46888" lon="6.89731">
        <ele>422</ele>
        <time>2015-04-06T08:58:45.000Z</time>
      </trkpt>
      <trkpt lat="47.46887" lon="6.89735">
        <ele>422</ele>
        <time>2015-04-06T08:58:46.000Z</time>
      </trkpt>
      <trkpt lat="47.46887" lon="6.89739">
        <ele>422</ele>
        <time>2015-04-06T08:58:47.000Z</time>
      </trkpt>
      <trkpt lat="47.46887" lon="6.89743">
        <ele>422</ele>
        <time>2015-04-06T08:58:48.000Z</time>
      </trkpt>
      <trkpt lat="47.46887" lon="6.89747">
        <ele>422</ele>
        <time>2015-04-06T08:58:49.000Z</time>
      </trkpt>
      <trkpt lat="47.46887" lon="6.89751">
        <ele>424</ele>
        <time>2015-04-06T08:58:50.000Z</time>
      </trkpt>
      <trkpt lat="47.46887" lon="6.89755">
        <ele>424</ele>
        <time>2015-04-06T08:58:51.000Z</time>
      </trkpt>
      <trkpt lat="47.46887" lon="6.89759">
        <ele>424</ele>
        <time>2015-04-06T08:58:52.000Z</time>
      </trkpt>
      <trkpt lat="47.46887" lon="6.89762">
        <ele>424</ele>
        <time>2015-04-06T08:58:53.000Z</time>
      </trkpt>
      <trkpt lat="47.46887" lon="6.89766">
        <ele>424</ele>
        <time>2015-04-06T08:58:54.000Z</time>
      </trkpt>
      <trkpt lat="47.46887" lon="6.8977">
        <ele>424</ele>
        <time>2015-04-06T08:58:55.000Z</time>
      </trkpt>
      <trkpt lat="47.46887" lon="6.89774">
        <ele>424</ele>
        <time>2015-04-06T08:58:56.000Z</time>
      </trkpt>
      <trkpt lat="47.46887" lon="6.89778">
        <ele>424</ele>
        <time>2015-04-06T08:58:57.000Z</time>
      </trkpt>
      <trkpt lat="47.46887" lon="6.89782">
        <ele>424</ele>
        <time>2015-04-06T08:58:58.000Z</time>
      </trkpt>
      <trkpt lat="47.46887" lon="6.89787">
        <ele>424</ele>
        <time>2015-04-06T08:58:59.000Z</time>
      </trkpt>
      <trkpt lat="47.46887" lon="6.89791">
        <ele>424</ele>
        <time>2015-04-06T08:59:00.000Z</time>
      </trkpt>
      <trkpt lat="47.46887" lon="6.89795">
        <ele>424</ele>
        <time>2015-04-06T08:59:01.000Z</time>
      </trkpt>
      <trkpt lat="47.46887" lon="6.89799">
        <ele>424</ele>
        <time>2015-04-06T08:59:02.000Z</time>
      </trkpt>
      <trkpt lat="47.46887" lon="6.89803">
        <ele>424</ele>
        <time>2015-04-06T08:59:03.000Z</time>
      </trkpt>
      <trkpt lat="47.46887" lon="6.89807">
        <ele>424</ele>
        <time>2015-04-06T08:59:04.000Z</time>
      </trkpt>
      <trkpt lat="47.46887" lon="6.89811">
        <ele>425</ele>
        <time>2015-04-06T08:59:05.000Z</time>
      </trkpt>
      <trkpt lat="47.46887" lon="6.89814">
        <ele>425</ele>
        <time>2015-04-06T08:59:06.000Z</time>
      </trkpt>
      <trkpt lat="47.46887" lon="6.89818">
        <ele>425</ele>
        <time>2015-04-06T08:59:07.000Z</time>
      </trkpt>
      <trkpt lat="47.46888" lon="6.89823">
        <ele>425</ele>
        <time>2015-04-06T08:59:08.000Z</time>
      </trkpt>
      <trkpt lat="47.46888" lon="6.89827">
        <ele>425</ele>
        <time>2015-04-06T08:59:09.000Z</time>
      </trkpt>
      <trkpt lat="47.46888" lon="6.89831">
        <ele>425</ele>
        <time>2015-04-06T08:59:10.000Z</time>
      </trkpt>
      <trkpt lat="47.46889" lon="6.89836">
        <ele>426</ele>
        <time>2015-04-06T08:59:11.000Z</time>
      </trkpt>
      <trkpt lat="47.46889" lon="6.8984">
        <ele>426</ele>
        <time>2015-04-06T08:59:12.000Z</time>
      </trkpt>
      <trkpt lat="47.46889" lon="6.89845">
        <ele>426</ele>
        <time>2015-04-06T08:59:13.000Z</time>
      </trkpt>
      <trkpt lat="47.46889" lon="6.89849">
        <ele>426</ele>
        <time>2015-04-06T08:59:14.000Z</time>
      </trkpt>
      <trkpt lat="47.46888" lon="6.89853">
        <ele>426</ele>
        <time>2015-04-06T08:59:15.000Z</time>
      </trkpt>
      <trkpt lat="47.46886" lon="6.89857">
        <ele>426</ele>
        <time>2015-04-06T08:59:16.000Z</time>
      </trkpt>
      <trkpt lat="47.46884" lon="6.89859">
        <ele>426</ele>
        <time>2015-04-06T08:59:17.000Z</time>
      </trkpt>
      <trkpt lat="47.46882" lon="6.89861">
        <ele>426</ele>
        <time>2015-04-06T08:59:18.000Z</time>
      </trkpt>
      <trkpt lat="47.4688" lon="6.89864">
        <ele>426</ele>
        <time>2015-04-06T08:59:19.000Z</time>
      </trkpt>
      <trkpt lat="47.46878" lon="6.89867">
        <ele>426</ele>
        <time>2015-04-06T08:59:20.000Z</time>
      </trkpt>
      <trkpt lat="47.46875" lon="6.8987">
        <ele>426</ele>
        <time>2015-04-06T08:59:21.000Z</time>
      </trkpt>
      <trkpt lat="47.46872" lon="6.89874">
        <ele>426</ele>
        <time>2015-04-06T08:59:22.000Z</time>
      </trkpt>
      <trkpt lat="47.4687" lon="6.89877">
        <ele>426</ele>
        <time>2015-04-06T08:59:23.000Z</time>
      </trkpt>
      <trkpt lat="47.46867" lon="6.89881">
        <ele>426</ele>
        <time>2015-04-06T08:59:24.000Z</time>
      </trkpt>
      <trkpt lat="47.46864" lon="6.89885">
        <ele>426</ele>
        <time>2015-04-06T08:59:25.000Z</time>
      </trkpt>
      <trkpt lat="47.4686" lon="6.89889">
        <ele>426</ele>
        <time>2015-04-06T08:59:26.000Z</time>
      </trkpt>
      <trkpt lat="47.46857" lon="6.89893">
        <ele>426</ele>
        <time>2015-04-06T08:59:27.000Z</time>
      </trkpt>
      <trkpt lat="47.46853" lon="6.89899">
        <ele>426</ele>
        <time>2015-04-06T08:59:28.000Z</time>
      </trkpt>
      <trkpt lat="47.46851" lon="6.89903">
        <ele>426</ele>
        <time>2015-04-06T08:59:29.000Z</time>
      </trkpt>
      <trkpt lat="47.46848" lon="6.89906">
        <ele>426</ele>
        <time>2015-04-06T08:59:30.000Z</time>
      </trkpt>
      <trkpt lat="47.46844" lon="6.89914">
        <ele>426</ele>
        <time>2015-04-06T08:59:31.000Z</time>
      </trkpt>
      <trkpt lat="47.4684" lon="6.89919">
        <ele>427</ele>
        <time>2015-04-06T08:59:32.000Z</time>
      </trkpt>
      <trkpt lat="47.46837" lon="6.89922">
        <ele>427</ele>
        <time>2015-04-06T08:59:33.000Z</time>
      </trkpt>
      <trkpt lat="47.46834" lon="6.89928">
        <ele>428</ele>
        <time>2015-04-06T08:59:34.000Z</time>
      </trkpt>
      <trkpt lat="47.4683" lon="6.89934">
        <ele>425</ele>
        <time>2015-04-06T08:59:35.000Z</time>
      </trkpt>
      <trkpt lat="47.46827" lon="6.89939">
        <ele>425</ele>
        <time>2015-04-06T08:59:36.000Z</time>
      </trkpt>
      <trkpt lat="47.46825" lon="6.89944">
        <ele>425</ele>
        <time>2015-04-06T08:59:37.000Z</time>
      </trkpt>
      <trkpt lat="47.46821" lon="6.89949">
        <ele>425</ele>
        <time>2015-04-06T08:59:38.000Z</time>
      </trkpt>
      <trkpt lat="47.46819" lon="6.89954">
        <ele>425</ele>
        <time>2015-04-06T08:59:39.000Z</time>
      </trkpt>
      <trkpt lat="47.46818" lon="6.89958">
        <ele>425</ele>
        <time>2015-04-06T08:59:40.000Z</time>
      </trkpt>
      <trkpt lat="47.46815" lon="6.89963">
        <ele>425</ele>
        <time>2015-04-06T08:59:41.000Z</time>
      </trkpt>
      <trkpt lat="47.46813" lon="6.89966">
        <ele>425</ele>
        <time>2015-04-06T08:59:42.000Z</time>
      </trkpt>
      <trkpt lat="47.46806" lon="6.89975">
        <ele>425</ele>
        <time>2015-04-06T08:59:43.000Z</time>
      </trkpt>
      <trkpt lat="47.46802" lon="6.89981">
        <ele>425</ele>
        <time>2015-04-06T08:59:44.000Z</time>
      </trkpt>
      <trkpt lat="47.46798" lon="6.89985">
        <ele>424</ele>
        <time>2015-04-06T08:59:45.000Z</time>
      </trkpt>
      <trkpt lat="47.46794" lon="6.8999">
        <ele>424</ele>
        <time>2015-04-06T08:59:46.000Z</time>
      </trkpt>
      <trkpt lat="47.46789" lon="6.9">
        <ele>425</ele>
        <time>2015-04-06T08:59:47.000Z</time>
      </trkpt>
      <trkpt lat="47.46784" lon="6.90007">
        <ele>425</ele>
        <time>2015-04-06T08:59:48.000Z</time>
      </trkpt>
      <trkpt lat="47.46779" lon="6.90015">
        <ele>425</ele>
        <time>2015-04-06T08:59:49.000Z</time>
      </trkpt>
      <trkpt lat="47.46774" lon="6.9002">
        <ele>424</ele>
        <time>2015-04-06T08:59:50.000Z</time>
      </trkpt>
      <trkpt lat="47.4677" lon="6.90026">
        <ele>424</ele>
        <time>2015-04-06T08:59:51.000Z</time>
      </trkpt>
      <trkpt lat="47.46764" lon="6.90032">
        <ele>424</ele>
        <time>2015-04-06T08:59:52.000Z</time>
      </trkpt>
      <trkpt lat="47.4676" lon="6.90041">
        <ele>425</ele>
        <time>2015-04-06T08:59:53.000Z</time>
      </trkpt>
      <trkpt lat="47.46754" lon="6.90048">
        <ele>424</ele>
        <time>2015-04-06T08:59:54.000Z</time>
      </trkpt>
      <trkpt lat="47.4675" lon="6.90053">
        <ele>419</ele>
        <time>2015-04-06T08:59:55.000Z</time>
      </trkpt>
      <trkpt lat="47.46744" lon="6.90061">
        <ele>419</ele>
        <time>2015-04-06T08:59:56.000Z</time>
      </trkpt>
      <trkpt lat="47.46743" lon="6.9007">
        <ele>420</ele>
        <time>2015-04-06T08:59:57.000Z</time>
      </trkpt>
      <trkpt lat="47.46739" lon="6.90079">
        <ele>420</ele>
        <time>2015-04-06T08:59:58.000Z</time>
      </trkpt>
      <trkpt lat="47.46735" lon="6.90085">
        <ele>420</ele>
        <time>2015-04-06T08:59:59.000Z</time>
      </trkpt>
      <trkpt lat="47.46729" lon="6.90092">
        <ele>420</ele>
        <time>2015-04-06T09:00:00.000Z</time>
      </trkpt>
      <trkpt lat="47.46725" lon="6.90097">
        <ele>419</ele>
        <time>2015-04-06T09:00:01.000Z</time>
      </trkpt>
      <trkpt lat="47.46718" lon="6.90107">
        <ele>419</ele>
        <time>2015-04-06T09:00:02.000Z</time>
      </trkpt>
      <trkpt lat="47.46712" lon="6.90114">
        <ele>419</ele>
        <time>2015-04-06T09:00:03.000Z</time>
      </trkpt>
      <trkpt lat="47.46704" lon="6.90117">
        <ele>418</ele>
        <time>2015-04-06T09:00:04.000Z</time>
      </trkpt>
      <trkpt lat="47.46695" lon="6.90123">
        <ele>418</ele>
        <time>2015-04-06T09:00:05.000Z</time>
      </trkpt>
      <trkpt lat="47.46687" lon="6.90131">
        <ele>418</ele>
        <time>2015-04-06T09:00:06.000Z</time>
      </trkpt>
      <trkpt lat="47.4668" lon="6.90132">
        <ele>418</ele>
        <time>2015-04-06T09:00:07.000Z</time>
      </trkpt>
      <trkpt lat="47.46672" lon="6.90137">
        <ele>417</ele>
        <time>2015-04-06T09:00:08.000Z</time>
      </trkpt>
      <trkpt lat="47.46666" lon="6.90142">
        <ele>415</ele>
        <time>2015-04-06T09:00:09.000Z</time>
      </trkpt>
      <trkpt lat="47.46659" lon="6.90149">
        <ele>415</ele>
        <time>2015-04-06T09:00:10.000Z</time>
      </trkpt>
      <trkpt lat="47.46654" lon="6.90152">
        <ele>415</ele>
        <time>2015-04-06T09:00:11.000Z</time>
      </trkpt>
      <trkpt lat="47.46648" lon="6.90156">
        <ele>415</ele>
        <time>2015-04-06T09:00:12.000Z</time>
      </trkpt>
      <trkpt lat="47.46643" lon="6.90159">
        <ele>415</ele>
        <time>2015-04-06T09:00:13.000Z</time>
      </trkpt>
      <trkpt lat="47.46639" lon="6.9016">
        <ele>415</ele>
        <time>2015-04-06T09:00:14.000Z</time>
      </trkpt>
      <trkpt lat="47.46637" lon="6.90164">
        <ele>415</ele>
        <time>2015-04-06T09:00:15.000Z</time>
      </trkpt>
      <trkpt lat="47.46634" lon="6.90166">
        <ele>415</ele>
        <time>2015-04-06T09:00:16.000Z</time>
      </trkpt>
      <trkpt lat="47.4663" lon="6.90169">
        <ele>417</ele>
        <time>2015-04-06T09:00:17.000Z</time>
      </trkpt>
      <trkpt lat="47.46625" lon="6.90174">
        <ele>417</ele>
        <time>2015-04-06T09:00:18.000Z</time>
      </trkpt>
      <trkpt lat="47.46622" lon="6.90179">
        <ele>417</ele>
        <time>2015-04-06T09:00:19.000Z</time>
      </trkpt>
      <trkpt lat="47.46617" lon="6.90184">
        <ele>417</ele>
        <time>2015-04-06T09:00:20.000Z</time>
      </trkpt>
      <trkpt lat="47.46611" lon="6.90191">
        <ele>417</ele>
        <time>2015-04-06T09:00:21.000Z</time>
      </trkpt>
      <trkpt lat="47.46607" lon="6.90197">
        <ele>417</ele>
        <time>2015-04-06T09:00:22.000Z</time>
      </trkpt>
      <trkpt lat="47.46604" lon="6.90201">
        <ele>417</ele>
        <time>2015-04-06T09:00:23.000Z</time>
      </trkpt>
      <trkpt lat="47.466" lon="6.90204">
        <ele>417</ele>
        <time>2015-04-06T09:00:24.000Z</time>
      </trkpt>
      <trkpt lat="47.46597" lon="6.90207">
        <ele>417</ele>
        <time>2015-04-06T09:00:25.000Z</time>
      </trkpt>
      <trkpt lat="47.46593" lon="6.90211">
        <ele>417</ele>
        <time>2015-04-06T09:00:26.000Z</time>
      </trkpt>
      <trkpt lat="47.46591" lon="6.90213">
        <ele>418</ele>
        <time>2015-04-06T09:00:27.000Z</time>
      </trkpt>
      <trkpt lat="47.4659" lon="6.90225">
        <ele>418</ele>
        <time>2015-04-06T09:00:28.000Z</time>
      </trkpt>
      <trkpt lat="47.46588" lon="6.90228">
        <ele>418</ele>
        <time>2015-04-06T09:00:29.000Z</time>
      </trkpt>
      <trkpt lat="47.46587" lon="6.90233">
        <ele>419</ele>
        <time>2015-04-06T09:00:30.000Z</time>
      </trkpt>
      <trkpt lat="47.46586" lon="6.90236">
        <ele>419</ele>
        <time>2015-04-06T09:00:31.000Z</time>
      </trkpt>
      <trkpt lat="47.46585" lon="6.9024">
        <ele>419</ele>
        <time>2015-04-06T09:00:32.000Z</time>
      </trkpt>
      <trkpt lat="47.46584" lon="6.90246">
        <ele>420</ele>
        <time>2015-04-06T09:00:34.000Z</time>
      </trkpt>
      <trkpt lat="47.46583" lon="6.90249">
        <ele>420</ele>
        <time>2015-04-06T09:00:35.000Z</time>
      </trkpt>
      <trkpt lat="47.46582" lon="6.90251">
        <ele>420</ele>
        <time>2015-04-06T09:00:36.000Z</time>
      </trkpt>
      <trkpt lat="47.4658" lon="6.90254">
        <ele>421</ele>
        <time>2015-04-06T09:00:37.000Z</time>
      </trkpt>
      <trkpt lat="47.46577" lon="6.90256">
        <ele>421</ele>
        <time>2015-04-06T09:00:41.000Z</time>
      </trkpt>
      <trkpt lat="47.46576" lon="6.90258">
        <ele>422</ele>
        <time>2015-04-06T09:00:42.000Z</time>
      </trkpt>
      <trkpt lat="47.46575" lon="6.90261">
        <ele>422</ele>
        <time>2015-04-06T09:00:43.000Z</time>
      </trkpt>
      <trkpt lat="47.46573" lon="6.90265">
        <ele>422</ele>
        <time>2015-04-06T09:00:44.000Z</time>
      </trkpt>
      <trkpt lat="47.4657" lon="6.90269">
        <ele>423</ele>
        <time>2015-04-06T09:00:45.000Z</time>
      </trkpt>
      <trkpt lat="47.46568" lon="6.90273">
        <ele>423</ele>
        <time>2015-04-06T09:00:46.000Z</time>
      </trkpt>
      <trkpt lat="47.46566" lon="6.90276">
        <ele>423</ele>
        <time>2015-04-06T09:00:47.000Z</time>
      </trkpt>
      <trkpt lat="47.46564" lon="6.90278">
        <ele>424</ele>
        <time>2015-04-06T09:00:48.000Z</time>
      </trkpt>
      <trkpt lat="47.46562" lon="6.90281">
        <ele>424</ele>
        <time>2015-04-06T09:00:49.000Z</time>
      </trkpt>
      <trkpt lat="47.4656" lon="6.90283">
        <ele>424</ele>
        <time>2015-04-06T09:00:50.000Z</time>
      </trkpt>
      <trkpt lat="47.46558" lon="6.90286">
        <ele>424</ele>
        <time>2015-04-06T09:00:51.000Z</time>
      </trkpt>
      <trkpt lat="47.46556" lon="6.90289">
        <ele>424</ele>
        <time>2015-04-06T09:00:52.000Z</time>
      </trkpt>
      <trkpt lat="47.46553" lon="6.90292">
        <ele>424</ele>
        <time>2015-04-06T09:00:53.000Z</time>
      </trkpt>
      <trkpt lat="47.4655" lon="6.90294">
        <ele>424</ele>
        <time>2015-04-06T09:00:54.000Z</time>
      </trkpt>
      <trkpt lat="47.46548" lon="6.90296">
        <ele>425</ele>
        <time>2015-04-06T09:00:55.000Z</time>
      </trkpt>
      <trkpt lat="47.46545" lon="6.90298">
        <ele>425</ele>
        <time>2015-04-06T09:00:56.000Z</time>
      </trkpt>
      <trkpt lat="47.46543" lon="6.903">
        <ele>425</ele>
        <time>2015-04-06T09:00:57.000Z</time>
      </trkpt>
      <trkpt lat="47.46542" lon="6.90302">
        <ele>425</ele>
        <time>2015-04-06T09:00:58.000Z</time>
      </trkpt>
      <trkpt lat="47.4654" lon="6.90304">
        <ele>425</ele>
        <time>2015-04-06T09:00:59.000Z</time>
      </trkpt>
      <trkpt lat="47.46538" lon="6.90306">
        <ele>425</ele>
        <time>2015-04-06T09:01:00.000Z</time>
      </trkpt>
      <trkpt lat="47.46536" lon="6.90308">
        <ele>425</ele>
        <time>2015-04-06T09:01:01.000Z</time>
      </trkpt>
      <trkpt lat="47.46534" lon="6.90311">
        <ele>425</ele>
        <time>2015-04-06T09:01:02.000Z</time>
      </trkpt>
      <trkpt lat="47.46532" lon="6.90313">
        <ele>425</ele>
        <time>2015-04-06T09:01:03.000Z</time>
      </trkpt>
      <trkpt lat="47.4653" lon="6.90316">
        <ele>425</ele>
        <time>2015-04-06T09:01:04.000Z</time>
      </trkpt>
      <trkpt lat="47.46528" lon="6.90318">
        <ele>426</ele>
        <time>2015-04-06T09:01:05.000Z</time>
      </trkpt>
      <trkpt lat="47.46527" lon="6.9032">
        <ele>426</ele>
        <time>2015-04-06T09:01:06.000Z</time>
      </trkpt>
      <trkpt lat="47.46523" lon="6.90323">
        <ele>426</ele>
        <time>2015-04-06T09:01:08.000Z</time>
      </trkpt>
      <trkpt lat="47.46522" lon="6.90325">
        <ele>426</ele>
        <time>2015-04-06T09:01:09.000Z</time>
      </trkpt>
      <trkpt lat="47.46519" lon="6.90328">
        <ele>426</ele>
        <time>2015-04-06T09:01:11.000Z</time>
      </trkpt>
      <trkpt lat="47.46518" lon="6.9033">
        <ele>426</ele>
        <time>2015-04-06T09:01:12.000Z</time>
      </trkpt>
      <trkpt lat="47.46515" lon="6.90334">
        <ele>428</ele>
        <time>2015-04-06T09:01:14.000Z</time>
      </trkpt>
      <trkpt lat="47.46513" lon="6.90336">
        <ele>428</ele>
        <time>2015-04-06T09:01:15.000Z</time>
      </trkpt>
      <trkpt lat="47.46511" lon="6.90338">
        <ele>428</ele>
        <time>2015-04-06T09:01:16.000Z</time>
      </trkpt>
      <trkpt lat="47.46509" lon="6.90341">
        <ele>428</ele>
        <time>2015-04-06T09:01:17.000Z</time>
      </trkpt>
      <trkpt lat="47.46508" lon="6.90343">
        <ele>429</ele>
        <time>2015-04-06T09:01:18.000Z</time>
      </trkpt>
      <trkpt lat="47.46506" lon="6.90345">
        <ele>429</ele>
        <time>2015-04-06T09:01:19.000Z</time>
      </trkpt>
      <trkpt lat="47.46502" lon="6.90348">
        <ele>429</ele>
        <time>2015-04-06T09:01:21.000Z</time>
      </trkpt>
      <trkpt lat="47.46501" lon="6.9035">
        <ele>429</ele>
        <time>2015-04-06T09:01:22.000Z</time>
      </trkpt>
      <trkpt lat="47.46498" lon="6.90352">
        <ele>431</ele>
        <time>2015-04-06T09:01:24.000Z</time>
      </trkpt>
      <trkpt lat="47.46497" lon="6.90354">
        <ele>432</ele>
        <time>2015-04-06T09:01:25.000Z</time>
      </trkpt>
      <trkpt lat="47.46494" lon="6.90357">
        <ele>432</ele>
        <time>2015-04-06T09:01:27.000Z</time>
      </trkpt>
      <trkpt lat="47.46492" lon="6.90358">
        <ele>432</ele>
        <time>2015-04-06T09:01:28.000Z</time>
      </trkpt>
      <trkpt lat="47.46488" lon="6.9036">
        <ele>432</ele>
        <time>2015-04-06T09:01:30.000Z</time>
      </trkpt>
      <trkpt lat="47.46486" lon="6.90361">
        <ele>433</ele>
        <time>2015-04-06T09:01:31.000Z</time>
      </trkpt>
      <trkpt lat="47.46482" lon="6.90363">
        <ele>433</ele>
        <time>2015-04-06T09:01:33.000Z</time>
      </trkpt>
      <trkpt lat="47.4648" lon="6.90364">
        <ele>433</ele>
        <time>2015-04-06T09:01:34.000Z</time>
      </trkpt>
      <trkpt lat="47.46476" lon="6.90366">
        <ele>433</ele>
        <time>2015-04-06T09:01:36.000Z</time>
      </trkpt>
      <trkpt lat="47.46474" lon="6.90367">
        <ele>433</ele>
        <time>2015-04-06T09:01:37.000Z</time>
      </trkpt>
      <trkpt lat="47.4647" lon="6.90368">
        <ele>434</ele>
        <time>2015-04-06T09:01:40.000Z</time>
      </trkpt>
      <trkpt lat="47.46469" lon="6.90368">
        <ele>434</ele>
        <time>2015-04-06T09:01:41.000Z</time>
      </trkpt>
      <trkpt lat="47.46465" lon="6.90367">
        <ele>434</ele>
        <time>2015-04-06T09:01:43.000Z</time>
      </trkpt>
      <trkpt lat="47.46463" lon="6.90366">
        <ele>434</ele>
        <time>2015-04-06T09:01:44.000Z</time>
      </trkpt>
      <trkpt lat="47.46459" lon="6.90365">
        <ele>434</ele>
        <time>2015-04-06T09:01:46.000Z</time>
      </trkpt>
      <trkpt lat="47.46457" lon="6.90365">
        <ele>434</ele>
        <time>2015-04-06T09:01:47.000Z</time>
      </trkpt>
      <trkpt lat="47.46453" lon="6.90364">
        <ele>434</ele>
        <time>2015-04-06T09:01:49.000Z</time>
      </trkpt>
      <trkpt lat="47.46451" lon="6.90364">
        <ele>435</ele>
        <time>2015-04-06T09:01:50.000Z</time>
      </trkpt>
      <trkpt lat="47.46448" lon="6.90363">
        <ele>435</ele>
        <time>2015-04-06T09:01:52.000Z</time>
      </trkpt>
      <trkpt lat="47.46446" lon="6.90362">
        <ele>435</ele>
        <time>2015-04-06T09:01:53.000Z</time>
      </trkpt>
      <trkpt lat="47.46442" lon="6.90361">
        <ele>435</ele>
        <time>2015-04-06T09:01:55.000Z</time>
      </trkpt>
      <trkpt lat="47.4644" lon="6.90362">
        <ele>435</ele>
        <time>2015-04-06T09:01:56.000Z</time>
      </trkpt>
      <trkpt lat="47.46437" lon="6.90363">
        <ele>435</ele>
        <time>2015-04-06T09:01:58.000Z</time>
      </trkpt>
      <trkpt lat="47.46435" lon="6.90363">
        <ele>435</ele>
        <time>2015-04-06T09:01:59.000Z</time>
      </trkpt>
      <trkpt lat="47.46432" lon="6.90363">
        <ele>435</ele>
        <time>2015-04-06T09:02:01.000Z</time>
      </trkpt>
      <trkpt lat="47.4643" lon="6.90363">
        <ele>435</ele>
        <time>2015-04-06T09:02:02.000Z</time>
      </trkpt>
      <trkpt lat="47.46427" lon="6.90364">
        <ele>435</ele>
        <time>2015-04-06T09:02:04.000Z</time>
      </trkpt>
      <trkpt lat="47.46425" lon="6.90364">
        <ele>435</ele>
        <time>2015-04-06T09:02:05.000Z</time>
      </trkpt>
      <trkpt lat="47.46422" lon="6.90365">
        <ele>436</ele>
        <time>2015-04-06T09:02:07.000Z</time>
      </trkpt>
      <trkpt lat="47.46421" lon="6.90366">
        <ele>436</ele>
        <time>2015-04-06T09:02:08.000Z</time>
      </trkpt>
      <trkpt lat="47.46417" lon="6.90369">
        <ele>436</ele>
        <time>2015-04-06T09:02:10.000Z</time>
      </trkpt>
      <trkpt lat="47.46416" lon="6.90371">
        <ele>438</ele>
        <time>2015-04-06T09:02:11.000Z</time>
      </trkpt>
      <trkpt lat="47.46414" lon="6.90373">
        <ele>438</ele>
        <time>2015-04-06T09:02:12.000Z</time>
      </trkpt>
      <trkpt lat="47.46412" lon="6.90375">
        <ele>439</ele>
        <time>2015-04-06T09:02:13.000Z</time>
      </trkpt>
      <trkpt lat="47.46409" lon="6.9038">
        <ele>439</ele>
        <time>2015-04-06T09:02:15.000Z</time>
      </trkpt>
      <trkpt lat="47.46408" lon="6.90382">
        <ele>439</ele>
        <time>2015-04-06T09:02:16.000Z</time>
      </trkpt>
      <trkpt lat="47.46405" lon="6.90386">
        <ele>439</ele>
        <time>2015-04-06T09:02:18.000Z</time>
      </trkpt>
      <trkpt lat="47.46403" lon="6.90388">
        <ele>439</ele>
        <time>2015-04-06T09:02:19.000Z</time>
      </trkpt>
      <trkpt lat="47.46401" lon="6.90393">
        <ele>439</ele>
        <time>2015-04-06T09:02:21.000Z</time>
      </trkpt>
      <trkpt lat="47.464" lon="6.90395">
        <ele>439</ele>
        <time>2015-04-06T09:02:22.000Z</time>
      </trkpt>
      <trkpt lat="47.46398" lon="6.90401">
        <ele>439</ele>
        <time>2015-04-06T09:02:24.000Z</time>
      </trkpt>
      <trkpt lat="47.46397" lon="6.90404">
        <ele>440</ele>
        <time>2015-04-06T09:02:25.000Z</time>
      </trkpt>
      <trkpt lat="47.46397" lon="6.90407">
        <ele>440</ele>
        <time>2015-04-06T09:02:26.000Z</time>
      </trkpt>
      <trkpt lat="47.46396" lon="6.9041">
        <ele>440</ele>
        <time>2015-04-06T09:02:27.000Z</time>
      </trkpt>
      <trkpt lat="47.46395" lon="6.90414">
        <ele>440</ele>
        <time>2015-04-06T09:02:28.000Z</time>
      </trkpt>
      <trkpt lat="47.46395" lon="6.90417">
        <ele>442</ele>
        <time>2015-04-06T09:02:29.000Z</time>
      </trkpt>
      <trkpt lat="47.46395" lon="6.90421">
        <ele>442</ele>
        <time>2015-04-06T09:02:30.000Z</time>
      </trkpt>
      <trkpt lat="47.46394" lon="6.90426">
        <ele>442</ele>
        <time>2015-04-06T09:02:31.000Z</time>
      </trkpt>
      <trkpt lat="47.46394" lon="6.9043">
        <ele>442</ele>
        <time>2015-04-06T09:02:32.000Z</time>
      </trkpt>
      <trkpt lat="47.46393" lon="6.90434">
        <ele>443</ele>
        <time>2015-04-06T09:02:33.000Z</time>
      </trkpt>
      <trkpt lat="47.46393" lon="6.90438">
        <ele>443</ele>
        <time>2015-04-06T09:02:34.000Z</time>
      </trkpt>
      <trkpt lat="47.46393" lon="6.90442">
        <ele>443</ele>
        <time>2015-04-06T09:02:35.000Z</time>
      </trkpt>
      <trkpt lat="47.46393" lon="6.90448">
        <ele>443</ele>
        <time>2015-04-06T09:02:37.000Z</time>
      </trkpt>
      <trkpt lat="47.46393" lon="6.90451">
        <ele>443</ele>
        <time>2015-04-06T09:02:38.000Z</time>
      </trkpt>
      <trkpt lat="47.46393" lon="6.90455">
        <ele>443</ele>
        <time>2015-04-06T09:02:39.000Z</time>
      </trkpt>
      <trkpt lat="47.46392" lon="6.90459">
        <ele>443</ele>
        <time>2015-04-06T09:02:40.000Z</time>
      </trkpt>
      <trkpt lat="47.4639" lon="6.90463">
        <ele>443</ele>
        <time>2015-04-06T09:02:41.000Z</time>
      </trkpt>
      <trkpt lat="47.46388" lon="6.90467">
        <ele>443</ele>
        <time>2015-04-06T09:02:42.000Z</time>
      </trkpt>
      <trkpt lat="47.46385" lon="6.90471">
        <ele>443</ele>
        <time>2015-04-06T09:02:43.000Z</time>
      </trkpt>
      <trkpt lat="47.46382" lon="6.90474">
        <ele>443</ele>
        <time>2015-04-06T09:02:44.000Z</time>
      </trkpt>
      <trkpt lat="47.46379" lon="6.90478">
        <ele>444</ele>
        <time>2015-04-06T09:02:45.000Z</time>
      </trkpt>
      <trkpt lat="47.46376" lon="6.90481">
        <ele>444</ele>
        <time>2015-04-06T09:02:46.000Z</time>
      </trkpt>
      <trkpt lat="47.46373" lon="6.90483">
        <ele>444</ele>
        <time>2015-04-06T09:02:47.000Z</time>
      </trkpt>
      <trkpt lat="47.4637" lon="6.90486">
        <ele>444</ele>
        <time>2015-04-06T09:02:48.000Z</time>
      </trkpt>
      <trkpt lat="47.46366" lon="6.90488">
        <ele>444</ele>
        <time>2015-04-06T09:02:49.000Z</time>
      </trkpt>
      <trkpt lat="47.46363" lon="6.9049">
        <ele>444</ele>
        <time>2015-04-06T09:02:50.000Z</time>
      </trkpt>
      <trkpt lat="47.4636" lon="6.90492">
        <ele>444</ele>
        <time>2015-04-06T09:02:51.000Z</time>
      </trkpt>
      <trkpt lat="47.46357" lon="6.90493">
        <ele>444</ele>
        <time>2015-04-06T09:02:52.000Z</time>
      </trkpt>
      <trkpt lat="47.46355" lon="6.90495">
        <ele>444</ele>
        <time>2015-04-06T09:02:53.000Z</time>
      </trkpt>
      <trkpt lat="47.46353" lon="6.90496">
        <ele>445</ele>
        <time>2015-04-06T09:02:54.000Z</time>
      </trkpt>
      <trkpt lat="47.4635" lon="6.90498">
        <ele>445</ele>
        <time>2015-04-06T09:02:55.000Z</time>
      </trkpt>
      <trkpt lat="47.46348" lon="6.905">
        <ele>445</ele>
        <time>2015-04-06T09:02:56.000Z</time>
      </trkpt>
      <trkpt lat="47.46344" lon="6.90502">
        <ele>446</ele>
        <time>2015-04-06T09:02:58.000Z</time>
      </trkpt>
      <trkpt lat="47.46342" lon="6.90504">
        <ele>446</ele>
        <time>2015-04-06T09:02:59.000Z</time>
      </trkpt>
      <trkpt lat="47.46339" lon="6.90505">
        <ele>446</ele>
        <time>2015-04-06T09:03:01.000Z</time>
      </trkpt>
      <trkpt lat="47.46337" lon="6.90507">
        <ele>446</ele>
        <time>2015-04-06T09:03:02.000Z</time>
      </trkpt>
      <trkpt lat="47.46335" lon="6.90508">
        <ele>446</ele>
        <time>2015-04-06T09:03:03.000Z</time>
      </trkpt>
      <trkpt lat="47.46333" lon="6.9051">
        <ele>447</ele>
        <time>2015-04-06T09:03:04.000Z</time>
      </trkpt>
      <trkpt lat="47.46331" lon="6.90513">
        <ele>448</ele>
        <time>2015-04-06T09:03:05.000Z</time>
      </trkpt>
      <trkpt lat="47.46329" lon="6.90515">
        <ele>448</ele>
        <time>2015-04-06T09:03:06.000Z</time>
      </trkpt>
      <trkpt lat="47.46327" lon="6.90517">
        <ele>448</ele>
        <time>2015-04-06T09:03:07.000Z</time>
      </trkpt>
      <trkpt lat="47.46325" lon="6.90519">
        <ele>448</ele>
        <time>2015-04-06T09:03:08.000Z</time>
      </trkpt>
      <trkpt lat="47.46322" lon="6.90521">
        <ele>449</ele>
        <time>2015-04-06T09:03:10.000Z</time>
      </trkpt>
      <trkpt lat="47.4632" lon="6.90522">
        <ele>449</ele>
        <time>2015-04-06T09:03:11.000Z</time>
      </trkpt>
      <trkpt lat="47.46317" lon="6.90523">
        <ele>449</ele>
        <time>2015-04-06T09:03:12.000Z</time>
      </trkpt>
      <trkpt lat="47.46315" lon="6.90524">
        <ele>449</ele>
        <time>2015-04-06T09:03:13.000Z</time>
      </trkpt>
      <trkpt lat="47.46312" lon="6.90525">
        <ele>449</ele>
        <time>2015-04-06T09:03:14.000Z</time>
      </trkpt>
      <trkpt lat="47.46309" lon="6.90525">
        <ele>449</ele>
        <time>2015-04-06T09:03:15.000Z</time>
      </trkpt>
      <trkpt lat="47.46307" lon="6.90526">
        <ele>449</ele>
        <time>2015-04-06T09:03:16.000Z</time>
      </trkpt>
      <trkpt lat="47.46304" lon="6.90526">
        <ele>449</ele>
        <time>2015-04-06T09:03:17.000Z</time>
      </trkpt>
      <trkpt lat="47.463" lon="6.90527">
        <ele>449</ele>
        <time>2015-04-06T09:03:19.000Z</time>
      </trkpt>
      <trkpt lat="47.46297" lon="6.90527">
        <ele>450</ele>
        <time>2015-04-06T09:03:20.000Z</time>
      </trkpt>
      <trkpt lat="47.46295" lon="6.90528">
        <ele>450</ele>
        <time>2015-04-06T09:03:21.000Z</time>
      </trkpt>
      <trkpt lat="47.46292" lon="6.90528">
        <ele>450</ele>
        <time>2015-04-06T09:03:22.000Z</time>
      </trkpt>
      <trkpt lat="47.4629" lon="6.90528">
        <ele>450</ele>
        <time>2015-04-06T09:03:23.000Z</time>
      </trkpt>
      <trkpt lat="47.46288" lon="6.90528">
        <ele>450</ele>
        <time>2015-04-06T09:03:24.000Z</time>
      </trkpt>
      <trkpt lat="47.46283" lon="6.90529">
        <ele>450</ele>
        <time>2015-04-06T09:03:26.000Z</time>
      </trkpt>
      <trkpt lat="47.46281" lon="6.9053">
        <ele>450</ele>
        <time>2015-04-06T09:03:27.000Z</time>
      </trkpt>
      <trkpt lat="47.46279" lon="6.90531">
        <ele>450</ele>
        <time>2015-04-06T09:03:28.000Z</time>
      </trkpt>
      <trkpt lat="47.46277" lon="6.90532">
        <ele>450</ele>
        <time>2015-04-06T09:03:29.000Z</time>
      </trkpt>
      <trkpt lat="47.46273" lon="6.90533">
        <ele>450</ele>
        <time>2015-04-06T09:03:31.000Z</time>
      </trkpt>
      <trkpt lat="47.46272" lon="6.90533">
        <ele>450</ele>
        <time>2015-04-06T09:03:32.000Z</time>
      </trkpt>
      <trkpt lat="47.46269" lon="6.90535">
        <ele>450</ele>
        <time>2015-04-06T09:03:34.000Z</time>
      </trkpt>
      <trkpt lat="47.46267" lon="6.90537">
        <ele>451</ele>
        <time>2015-04-06T09:03:35.000Z</time>
      </trkpt>
      <trkpt lat="47.46265" lon="6.90539">
        <ele>451</ele>
        <time>2015-04-06T09:03:36.000Z</time>
      </trkpt>
      <trkpt lat="47.46263" lon="6.90541">
        <ele>451</ele>
        <time>2015-04-06T09:03:37.000Z</time>
      </trkpt>
      <trkpt lat="47.4626" lon="6.90543">
        <ele>451</ele>
        <time>2015-04-06T09:03:38.000Z</time>
      </trkpt>
      <trkpt lat="47.46258" lon="6.90545">
        <ele>451</ele>
        <time>2015-04-06T09:03:39.000Z</time>
      </trkpt>
      <trkpt lat="47.46256" lon="6.90547">
        <ele>451</ele>
        <time>2015-04-06T09:03:40.000Z</time>
      </trkpt>
      <trkpt lat="47.46253" lon="6.90548">
        <ele>452</ele>
        <time>2015-04-06T09:03:41.000Z</time>
      </trkpt>
      <trkpt lat="47.46251" lon="6.9055">
        <ele>452</ele>
        <time>2015-04-06T09:03:42.000Z</time>
      </trkpt>
      <trkpt lat="47.46248" lon="6.90551">
        <ele>451</ele>
        <time>2015-04-06T09:03:43.000Z</time>
      </trkpt>
      <trkpt lat="47.46245" lon="6.90552">
        <ele>451</ele>
        <time>2015-04-06T09:03:44.000Z</time>
      </trkpt>
      <trkpt lat="47.46243" lon="6.90553">
        <ele>452</ele>
        <time>2015-04-06T09:03:45.000Z</time>
      </trkpt>
      <trkpt lat="47.4624" lon="6.90554">
        <ele>452</ele>
        <time>2015-04-06T09:03:46.000Z</time>
      </trkpt>
      <trkpt lat="47.46238" lon="6.90555">
        <ele>452</ele>
        <time>2015-04-06T09:03:47.000Z</time>
      </trkpt>
      <trkpt lat="47.46234" lon="6.90556">
        <ele>451</ele>
        <time>2015-04-06T09:03:50.000Z</time>
      </trkpt>
      <trkpt lat="47.46233" lon="6.90556">
        <ele>451</ele>
        <time>2015-04-06T09:03:51.000Z</time>
      </trkpt>
      <trkpt lat="47.46228" lon="6.90557">
        <ele>451</ele>
        <time>2015-04-06T09:03:54.000Z</time>
      </trkpt>
      <trkpt lat="47.46227" lon="6.90558">
        <ele>451</ele>
        <time>2015-04-06T09:03:55.000Z</time>
      </trkpt>
      <trkpt lat="47.46223" lon="6.9056">
        <ele>451</ele>
        <time>2015-04-06T09:03:57.000Z</time>
      </trkpt>
      <trkpt lat="47.46221" lon="6.90561">
        <ele>451</ele>
        <time>2015-04-06T09:03:58.000Z</time>
      </trkpt>
      <trkpt lat="47.46218" lon="6.90562">
        <ele>451</ele>
        <time>2015-04-06T09:03:59.000Z</time>
      </trkpt>
      <trkpt lat="47.46215" lon="6.90562">
        <ele>451</ele>
        <time>2015-04-06T09:04:00.000Z</time>
      </trkpt>
      <trkpt lat="47.46212" lon="6.90564">
        <ele>451</ele>
        <time>2015-04-06T09:04:01.000Z</time>
      </trkpt>
      <trkpt lat="47.46209" lon="6.90566">
        <ele>451</ele>
        <time>2015-04-06T09:04:02.000Z</time>
      </trkpt>
      <trkpt lat="47.46206" lon="6.90567">
        <ele>451</ele>
        <time>2015-04-06T09:04:03.000Z</time>
      </trkpt>
      <trkpt lat="47.46203" lon="6.90569">
        <ele>451</ele>
        <time>2015-04-06T09:04:04.000Z</time>
      </trkpt>
      <trkpt lat="47.462" lon="6.90571">
        <ele>451</ele>
        <time>2015-04-06T09:04:05.000Z</time>
      </trkpt>
      <trkpt lat="47.46197" lon="6.90573">
        <ele>451</ele>
        <time>2015-04-06T09:04:06.000Z</time>
      </trkpt>
      <trkpt lat="47.46194" lon="6.90575">
        <ele>450</ele>
        <time>2015-04-06T09:04:07.000Z</time>
      </trkpt>
      <trkpt lat="47.46192" lon="6.90577">
        <ele>450</ele>
        <time>2015-04-06T09:04:08.000Z</time>
      </trkpt>
      <trkpt lat="47.46189" lon="6.90578">
        <ele>450</ele>
        <time>2015-04-06T09:04:09.000Z</time>
      </trkpt>
      <trkpt lat="47.46186" lon="6.9058">
        <ele>450</ele>
        <time>2015-04-06T09:04:10.000Z</time>
      </trkpt>
      <trkpt lat="47.46183" lon="6.90583">
        <ele>451</ele>
        <time>2015-04-06T09:04:11.000Z</time>
      </trkpt>
      <trkpt lat="47.46181" lon="6.90586">
        <ele>454</ele>
        <time>2015-04-06T09:04:12.000Z</time>
      </trkpt>
      <trkpt lat="47.46178" lon="6.9059">
        <ele>454</ele>
        <time>2015-04-06T09:04:13.000Z</time>
      </trkpt>
      <trkpt lat="47.46176" lon="6.90593">
        <ele>454</ele>
        <time>2015-04-06T09:04:14.000Z</time>
      </trkpt>
      <trkpt lat="47.46174" lon="6.90597">
        <ele>454</ele>
        <time>2015-04-06T09:04:15.000Z</time>
      </trkpt>
      <trkpt lat="47.46172" lon="6.906">
        <ele>454</ele>
        <time>2015-04-06T09:04:16.000Z</time>
      </trkpt>
      <trkpt lat="47.4617" lon="6.90604">
        <ele>455</ele>
        <time>2015-04-06T09:04:17.000Z</time>
      </trkpt>
      <trkpt lat="47.46168" lon="6.90607">
        <ele>455</ele>
        <time>2015-04-06T09:04:18.000Z</time>
      </trkpt>
      <trkpt lat="47.46167" lon="6.9061">
        <ele>455</ele>
        <time>2015-04-06T09:04:19.000Z</time>
      </trkpt>
      <trkpt lat="47.46166" lon="6.90614">
        <ele>454</ele>
        <time>2015-04-06T09:04:20.000Z</time>
      </trkpt>
      <trkpt lat="47.46165" lon="6.90618">
        <ele>455</ele>
        <time>2015-04-06T09:04:21.000Z</time>
      </trkpt>
      <trkpt lat="47.46166" lon="6.90622">
        <ele>455</ele>
        <time>2015-04-06T09:04:22.000Z</time>
      </trkpt>
      <trkpt lat="47.46166" lon="6.90626">
        <ele>455</ele>
        <time>2015-04-06T09:04:23.000Z</time>
      </trkpt>
      <trkpt lat="47.46167" lon="6.90629">
        <ele>457</ele>
        <time>2015-04-06T09:04:24.000Z</time>
      </trkpt>
      <trkpt lat="47.46167" lon="6.90631">
        <ele>457</ele>
        <time>2015-04-06T09:04:25.000Z</time>
      </trkpt>
      <trkpt lat="47.46168" lon="6.90637">
        <ele>457</ele>
        <time>2015-04-06T09:04:26.000Z</time>
      </trkpt>
      <trkpt lat="47.46167" lon="6.90643">
        <ele>458</ele>
        <time>2015-04-06T09:04:27.000Z</time>
      </trkpt>
      <trkpt lat="47.46165" lon="6.90651">
        <ele>457</ele>
        <time>2015-04-06T09:04:28.000Z</time>
      </trkpt>
      <trkpt lat="47.46161" lon="6.90661">
        <ele>458</ele>
        <time>2015-04-06T09:04:29.000Z</time>
      </trkpt>
      <trkpt lat="47.46158" lon="6.9067">
        <ele>459</ele>
        <time>2015-04-06T09:04:30.000Z</time>
      </trkpt>
      <trkpt lat="47.46154" lon="6.90679">
        <ele>459</ele>
        <time>2015-04-06T09:04:31.000Z</time>
      </trkpt>
      <trkpt lat="47.4615" lon="6.90688">
        <ele>459</ele>
        <time>2015-04-06T09:04:32.000Z</time>
      </trkpt>
      <trkpt lat="47.46146" lon="6.90697">
        <ele>459</ele>
        <time>2015-04-06T09:04:33.000Z</time>
      </trkpt>
      <trkpt lat="47.46142" lon="6.90706">
        <ele>459</ele>
        <time>2015-04-06T09:04:34.000Z</time>
      </trkpt>
      <trkpt lat="47.46139" lon="6.90714">
        <ele>460</ele>
        <time>2015-04-06T09:04:35.000Z</time>
      </trkpt>
      <trkpt lat="47.46136" lon="6.90722">
        <ele>460</ele>
        <time>2015-04-06T09:04:36.000Z</time>
      </trkpt>
      <trkpt lat="47.46133" lon="6.9073">
        <ele>460</ele>
        <time>2015-04-06T09:04:37.000Z</time>
      </trkpt>
      <trkpt lat="47.46131" lon="6.90737">
        <ele>460</ele>
        <time>2015-04-06T09:04:38.000Z</time>
      </trkpt>
      <trkpt lat="47.46128" lon="6.90744">
        <ele>460</ele>
        <time>2015-04-06T09:04:39.000Z</time>
      </trkpt>
      <trkpt lat="47.46126" lon="6.9075">
        <ele>464</ele>
        <time>2015-04-06T09:04:40.000Z</time>
      </trkpt>
      <trkpt lat="47.46123" lon="6.90757">
        <ele>464</ele>
        <time>2015-04-06T09:04:41.000Z</time>
      </trkpt>
      <trkpt lat="47.46121" lon="6.90764">
        <ele>464</ele>
        <time>2015-04-06T09:04:42.000Z</time>
      </trkpt>
      <trkpt lat="47.46119" lon="6.90772">
        <ele>465</ele>
        <time>2015-04-06T09:04:43.000Z</time>
      </trkpt>
      <trkpt lat="47.46117" lon="6.9078">
        <ele>465</ele>
        <time>2015-04-06T09:04:44.000Z</time>
      </trkpt>
      <trkpt lat="47.46114" lon="6.90787">
        <ele>465</ele>
        <time>2015-04-06T09:04:45.000Z</time>
      </trkpt>
      <trkpt lat="47.46111" lon="6.90795">
        <ele>466</ele>
        <time>2015-04-06T09:04:46.000Z</time>
      </trkpt>
      <trkpt lat="47.46109" lon="6.90802">
        <ele>466</ele>
        <time>2015-04-06T09:04:47.000Z</time>
      </trkpt>
      <trkpt lat="47.46106" lon="6.90809">
        <ele>466</ele>
        <time>2015-04-06T09:04:48.000Z</time>
      </trkpt>
      <trkpt lat="47.46103" lon="6.90815">
        <ele>466</ele>
        <time>2015-04-06T09:04:49.000Z</time>
      </trkpt>
      <trkpt lat="47.46101" lon="6.90822">
        <ele>467</ele>
        <time>2015-04-06T09:04:50.000Z</time>
      </trkpt>
      <trkpt lat="47.46099" lon="6.90829">
        <ele>467</ele>
        <time>2015-04-06T09:04:51.000Z</time>
      </trkpt>
      <trkpt lat="47.46097" lon="6.90835">
        <ele>470</ele>
        <time>2015-04-06T09:04:52.000Z</time>
      </trkpt>
      <trkpt lat="47.46095" lon="6.90841">
        <ele>470</ele>
        <time>2015-04-06T09:04:53.000Z</time>
      </trkpt>
      <trkpt lat="47.46093" lon="6.90846">
        <ele>470</ele>
        <time>2015-04-06T09:04:54.000Z</time>
      </trkpt>
      <trkpt lat="47.4609" lon="6.9085">
        <ele>470</ele>
        <time>2015-04-06T09:04:55.000Z</time>
      </trkpt>
      <trkpt lat="47.46088" lon="6.90854">
        <ele>470</ele>
        <time>2015-04-06T09:04:56.000Z</time>
      </trkpt>
      <trkpt lat="47.46085" lon="6.90859">
        <ele>471</ele>
        <time>2015-04-06T09:04:57.000Z</time>
      </trkpt>
      <trkpt lat="47.46082" lon="6.90864">
        <ele>470</ele>
        <time>2015-04-06T09:04:58.000Z</time>
      </trkpt>
      <trkpt lat="47.4608" lon="6.90869">
        <ele>471</ele>
        <time>2015-04-06T09:04:59.000Z</time>
      </trkpt>
      <trkpt lat="47.46078" lon="6.90875">
        <ele>471</ele>
        <time>2015-04-06T09:05:00.000Z</time>
      </trkpt>
      <trkpt lat="47.46076" lon="6.9088">
        <ele>471</ele>
        <time>2015-04-06T09:05:01.000Z</time>
      </trkpt>
      <trkpt lat="47.46075" lon="6.90883">
        <ele>471</ele>
        <time>2015-04-06T09:05:02.000Z</time>
      </trkpt>
      <trkpt lat="47.46073" lon="6.90886">
        <ele>472</ele>
        <time>2015-04-06T09:05:03.000Z</time>
      </trkpt>
      <trkpt lat="47.46072" lon="6.90888">
        <ele>472</ele>
        <time>2015-04-06T09:05:04.000Z</time>
      </trkpt>
      <trkpt lat="47.4607" lon="6.90893">
        <ele>472</ele>
        <time>2015-04-06T09:05:06.000Z</time>
      </trkpt>
      <trkpt lat="47.46069" lon="6.90896">
        <ele>472</ele>
        <time>2015-04-06T09:05:07.000Z</time>
      </trkpt>
      <trkpt lat="47.46067" lon="6.90901">
        <ele>472</ele>
        <time>2015-04-06T09:05:09.000Z</time>
      </trkpt>
      <trkpt lat="47.46066" lon="6.90903">
        <ele>472</ele>
        <time>2015-04-06T09:05:10.000Z</time>
      </trkpt>
      <trkpt lat="47.46064" lon="6.90906">
        <ele>472</ele>
        <time>2015-04-06T09:05:11.000Z</time>
      </trkpt>
      <trkpt lat="47.46062" lon="6.90908">
        <ele>472</ele>
        <time>2015-04-06T09:05:12.000Z</time>
      </trkpt>
      <trkpt lat="47.4606" lon="6.90911">
        <ele>472</ele>
        <time>2015-04-06T09:05:13.000Z</time>
      </trkpt>
      <trkpt lat="47.46058" lon="6.90913">
        <ele>472</ele>
        <time>2015-04-06T09:05:14.000Z</time>
      </trkpt>
      <trkpt lat="47.46056" lon="6.90915">
        <ele>472</ele>
        <time>2015-04-06T09:05:15.000Z</time>
      </trkpt>
      <trkpt lat="47.46054" lon="6.90917">
        <ele>474</ele>
        <time>2015-04-06T09:05:16.000Z</time>
      </trkpt>
      <trkpt lat="47.46051" lon="6.90921">
        <ele>474</ele>
        <time>2015-04-06T09:05:18.000Z</time>
      </trkpt>
      <trkpt lat="47.46049" lon="6.90922">
        <ele>474</ele>
        <time>2015-04-06T09:05:19.000Z</time>
      </trkpt>
      <trkpt lat="47.46046" lon="6.90922">
        <ele>474</ele>
        <time>2015-04-06T09:05:21.000Z</time>
      </trkpt>
      <trkpt lat="47.46043" lon="6.90921">
        <ele>474</ele>
        <time>2015-04-06T09:05:22.000Z</time>
      </trkpt>
      <trkpt lat="47.4604" lon="6.9092">
        <ele>474</ele>
        <time>2015-04-06T09:05:24.000Z</time>
      </trkpt>
      <trkpt lat="47.46038" lon="6.9092">
        <ele>474</ele>
        <time>2015-04-06T09:05:25.000Z</time>
      </trkpt>
      <trkpt lat="47.46036" lon="6.90919">
        <ele>474</ele>
        <time>2015-04-06T09:05:27.000Z</time>
      </trkpt>
      <trkpt lat="47.46034" lon="6.90918">
        <ele>474</ele>
        <time>2015-04-06T09:05:28.000Z</time>
      </trkpt>
      <trkpt lat="47.4603" lon="6.90916">
        <ele>472</ele>
        <time>2015-04-06T09:05:30.000Z</time>
      </trkpt>
      <trkpt lat="47.46028" lon="6.90915">
        <ele>472</ele>
        <time>2015-04-06T09:05:31.000Z</time>
      </trkpt>
      <trkpt lat="47.46025" lon="6.90913">
        <ele>472</ele>
        <time>2015-04-06T09:05:33.000Z</time>
      </trkpt>
      <trkpt lat="47.46023" lon="6.90912">
        <ele>472</ele>
        <time>2015-04-06T09:05:34.000Z</time>
      </trkpt>
      <trkpt lat="47.4602" lon="6.9091">
        <ele>472</ele>
        <time>2015-04-06T09:05:36.000Z</time>
      </trkpt>
      <trkpt lat="47.46019" lon="6.90909">
        <ele>472</ele>
        <time>2015-04-06T09:05:37.000Z</time>
      </trkpt>
      <trkpt lat="47.46015" lon="6.90909">
        <ele>473</ele>
        <time>2015-04-06T09:05:40.000Z</time>
      </trkpt>
      <trkpt lat="47.46014" lon="6.90909">
        <ele>473</ele>
        <time>2015-04-06T09:05:41.000Z</time>
      </trkpt>
      <trkpt lat="47.4601" lon="6.90907">
        <ele>473</ele>
        <time>2015-04-06T09:05:43.000Z</time>
      </trkpt>
      <trkpt lat="47.46009" lon="6.90907">
        <ele>473</ele>
        <time>2015-04-06T09:05:44.000Z</time>
      </trkpt>
      <trkpt lat="47.46005" lon="6.90907">
        <ele>473</ele>
        <time>2015-04-06T09:05:48.000Z</time>
      </trkpt>
      <trkpt lat="47.46004" lon="6.90906">
        <ele>473</ele>
        <time>2015-04-06T09:05:49.000Z</time>
      </trkpt>
      <trkpt lat="47.46001" lon="6.90902">
        <ele>473</ele>
        <time>2015-04-06T09:05:52.000Z</time>
      </trkpt>
      <trkpt lat="47.46" lon="6.909">
        <ele>473</ele>
        <time>2015-04-06T09:05:53.000Z</time>
      </trkpt>
      <trkpt lat="47.45998" lon="6.90895">
        <ele>480</ele>
        <time>2015-04-06T09:05:55.000Z</time>
      </trkpt>
      <trkpt lat="47.45998" lon="6.90893">
        <ele>480</ele>
        <time>2015-04-06T09:05:56.000Z</time>
      </trkpt>
      <trkpt lat="47.45997" lon="6.90888">
        <ele>481</ele>
        <time>2015-04-06T09:05:59.000Z</time>
      </trkpt>
      <trkpt lat="47.45996" lon="6.90886">
        <ele>481</ele>
        <time>2015-04-06T09:06:00.000Z</time>
      </trkpt>
      <trkpt lat="47.45994" lon="6.90881">
        <ele>482</ele>
        <time>2015-04-06T09:06:03.000Z</time>
      </trkpt>
      <trkpt lat="47.45993" lon="6.90879">
        <ele>482</ele>
        <time>2015-04-06T09:06:04.000Z</time>
      </trkpt>
      <trkpt lat="47.4599" lon="6.90877">
        <ele>482</ele>
        <time>2015-04-06T09:06:06.000Z</time>
      </trkpt>
      <trkpt lat="47.45989" lon="6.90876">
        <ele>482</ele>
        <time>2015-04-06T09:06:07.000Z</time>
      </trkpt>
      <trkpt lat="47.45986" lon="6.90872">
        <ele>482</ele>
        <time>2015-04-06T09:06:10.000Z</time>
      </trkpt>
      <trkpt lat="47.45985" lon="6.9087">
        <ele>482</ele>
        <time>2015-04-06T09:06:11.000Z</time>
      </trkpt>
      <trkpt lat="47.45983" lon="6.90866">
        <ele>483</ele>
        <time>2015-04-06T09:06:15.000Z</time>
      </trkpt>
      <trkpt lat="47.45982" lon="6.90865">
        <ele>483</ele>
        <time>2015-04-06T09:06:16.000Z</time>
      </trkpt>
      <trkpt lat="47.45982" lon="6.90859">
        <ele>482</ele>
        <time>2015-04-06T09:06:19.000Z</time>
      </trkpt>
      <trkpt lat="47.45981" lon="6.90857">
        <ele>482</ele>
        <time>2015-04-06T09:06:20.000Z</time>
      </trkpt>
      <trkpt lat="47.45981" lon="6.90851">
        <ele>482</ele>
        <time>2015-04-06T09:06:22.000Z</time>
      </trkpt>
      <trkpt lat="47.45982" lon="6.90849">
        <ele>482</ele>
        <time>2015-04-06T09:06:23.000Z</time>
      </trkpt>
      <trkpt lat="47.45982" lon="6.90843">
        <ele>481</ele>
        <time>2015-04-06T09:06:26.000Z</time>
      </trkpt>
      <trkpt lat="47.45982" lon="6.90841">
        <ele>481</ele>
        <time>2015-04-06T09:06:27.000Z</time>
      </trkpt>
      <trkpt lat="47.4598" lon="6.90836">
        <ele>481</ele>
        <time>2015-04-06T09:06:30.000Z</time>
      </trkpt>
      <trkpt lat="47.45979" lon="6.90834">
        <ele>481</ele>
        <time>2015-04-06T09:06:31.000Z</time>
      </trkpt>
      <trkpt lat="47.45978" lon="6.90829">
        <ele>480</ele>
        <time>2015-04-06T09:06:33.000Z</time>
      </trkpt>
      <trkpt lat="47.45977" lon="6.90827">
        <ele>480</ele>
        <time>2015-04-06T09:06:34.000Z</time>
      </trkpt>
      <trkpt lat="47.45976" lon="6.9082">
        <ele>480</ele>
        <time>2015-04-06T09:06:38.000Z</time>
      </trkpt>
      <trkpt lat="47.45976" lon="6.90819">
        <ele>480</ele>
        <time>2015-04-06T09:06:39.000Z</time>
      </trkpt>
      <trkpt lat="47.45975" lon="6.90814">
        <ele>481</ele>
        <time>2015-04-06T09:06:41.000Z</time>
      </trkpt>
      <trkpt lat="47.45975" lon="6.90811">
        <ele>481</ele>
        <time>2015-04-06T09:06:42.000Z</time>
      </trkpt>
      <trkpt lat="47.45973" lon="6.90806">
        <ele>481</ele>
        <time>2015-04-06T09:06:45.000Z</time>
      </trkpt>
      <trkpt lat="47.45973" lon="6.90805">
        <ele>481</ele>
        <time>2015-04-06T09:06:46.000Z</time>
      </trkpt>
      <trkpt lat="47.45973" lon="6.90799">
        <ele>481</ele>
        <time>2015-04-06T09:06:49.000Z</time>
      </trkpt>
      <trkpt lat="47.45973" lon="6.90797">
        <ele>481</ele>
        <time>2015-04-06T09:06:50.000Z</time>
      </trkpt>
      <trkpt lat="47.45971" lon="6.90792">
        <ele>481</ele>
        <time>2015-04-06T09:06:53.000Z</time>
      </trkpt>
      <trkpt lat="47.4597" lon="6.9079">
        <ele>481</ele>
        <time>2015-04-06T09:06:54.000Z</time>
      </trkpt>
      <trkpt lat="47.4597" lon="6.90784">
        <ele>481</ele>
        <time>2015-04-06T09:06:58.000Z</time>
      </trkpt>
      <trkpt lat="47.4597" lon="6.90782">
        <ele>481</ele>
        <time>2015-04-06T09:06:59.000Z</time>
      </trkpt>
      <trkpt lat="47.4597" lon="6.90777">
        <ele>481</ele>
        <time>2015-04-06T09:07:01.000Z</time>
      </trkpt>
      <trkpt lat="47.45969" lon="6.90775">
        <ele>481</ele>
        <time>2015-04-06T09:07:02.000Z</time>
      </trkpt>
      <trkpt lat="47.45967" lon="6.9077">
        <ele>481</ele>
        <time>2015-04-06T09:07:04.000Z</time>
      </trkpt>
      <trkpt lat="47.45966" lon="6.90769">
        <ele>481</ele>
        <time>2015-04-06T09:07:05.000Z</time>
      </trkpt>
      <trkpt lat="47.45964" lon="6.90764">
        <ele>481</ele>
        <time>2015-04-06T09:07:08.000Z</time>
      </trkpt>
      <trkpt lat="47.45963" lon="6.90762">
        <ele>481</ele>
        <time>2015-04-06T09:07:09.000Z</time>
      </trkpt>
      <trkpt lat="47.45964" lon="6.90757">
        <ele>481</ele>
        <time>2015-04-06T09:07:12.000Z</time>
      </trkpt>
      <trkpt lat="47.45964" lon="6.90755">
        <ele>481</ele>
        <time>2015-04-06T09:07:13.000Z</time>
      </trkpt>
      <trkpt lat="47.45965" lon="6.90749">
        <ele>479</ele>
        <time>2015-04-06T09:07:16.000Z</time>
      </trkpt>
      <trkpt lat="47.45965" lon="6.90747">
        <ele>479</ele>
        <time>2015-04-06T09:07:17.000Z</time>
      </trkpt>
      <trkpt lat="47.45965" lon="6.90741">
        <ele>479</ele>
        <time>2015-04-06T09:07:21.000Z</time>
      </trkpt>
      <trkpt lat="47.45964" lon="6.90739">
        <ele>479</ele>
        <time>2015-04-06T09:07:22.000Z</time>
      </trkpt>
      <trkpt lat="47.45961" lon="6.90736">
        <ele>479</ele>
        <time>2015-04-06T09:07:24.000Z</time>
      </trkpt>
      <trkpt lat="47.4596" lon="6.90734">
        <ele>479</ele>
        <time>2015-04-06T09:07:25.000Z</time>
      </trkpt>
      <trkpt lat="47.45958" lon="6.9073">
        <ele>479</ele>
        <time>2015-04-06T09:07:28.000Z</time>
      </trkpt>
      <trkpt lat="47.45957" lon="6.90728">
        <ele>480</ele>
        <time>2015-04-06T09:07:29.000Z</time>
      </trkpt>
      <trkpt lat="47.45955" lon="6.90723">
        <ele>480</ele>
        <time>2015-04-06T09:07:32.000Z</time>
      </trkpt>
      <trkpt lat="47.45954" lon="6.90721">
        <ele>480</ele>
        <time>2015-04-06T09:07:33.000Z</time>
      </trkpt>
      <trkpt lat="47.45952" lon="6.90718">
        <ele>480</ele>
        <time>2015-04-06T09:07:35.000Z</time>
      </trkpt>
      <trkpt lat="47.4595" lon="6.90717">
        <ele>480</ele>
        <time>2015-04-06T09:07:36.000Z</time>
      </trkpt>
      <trkpt lat="47.45947" lon="6.90712">
        <ele>480</ele>
        <time>2015-04-06T09:07:39.000Z</time>
      </trkpt>
      <trkpt lat="47.45946" lon="6.9071">
        <ele>480</ele>
        <time>2015-04-06T09:07:40.000Z</time>
      </trkpt>
      <trkpt lat="47.45943" lon="6.90707">
        <ele>480</ele>
        <time>2015-04-06T09:07:43.000Z</time>
      </trkpt>
      <trkpt lat="47.45941" lon="6.90706">
        <ele>481</ele>
        <time>2015-04-06T09:07:44.000Z</time>
      </trkpt>
      <trkpt lat="47.45936" lon="6.90706">
        <ele>481</ele>
        <time>2015-04-06T09:07:46.000Z</time>
      </trkpt>
      <trkpt lat="47.45935" lon="6.90706">
        <ele>481</ele>
        <time>2015-04-06T09:07:47.000Z</time>
      </trkpt>
      <trkpt lat="47.4593" lon="6.90706">
        <ele>481</ele>
        <time>2015-04-06T09:07:50.000Z</time>
      </trkpt>
      <trkpt lat="47.45929" lon="6.90706">
        <ele>481</ele>
        <time>2015-04-06T09:07:51.000Z</time>
      </trkpt>
      <trkpt lat="47.45925" lon="6.90705">
        <ele>481</ele>
        <time>2015-04-06T09:07:53.000Z</time>
      </trkpt>
      <trkpt lat="47.45923" lon="6.90705">
        <ele>482</ele>
        <time>2015-04-06T09:07:54.000Z</time>
      </trkpt>
      <trkpt lat="47.4592" lon="6.90704">
        <ele>482</ele>
        <time>2015-04-06T09:07:55.000Z</time>
      </trkpt>
      <trkpt lat="47.45918" lon="6.90704">
        <ele>482</ele>
        <time>2015-04-06T09:07:56.000Z</time>
      </trkpt>
      <trkpt lat="47.45915" lon="6.90705">
        <ele>488</ele>
        <time>2015-04-06T09:07:58.000Z</time>
      </trkpt>
      <trkpt lat="47.45913" lon="6.90705">
        <ele>488</ele>
        <time>2015-04-06T09:07:59.000Z</time>
      </trkpt>
      <trkpt lat="47.4591" lon="6.90705">
        <ele>488</ele>
        <time>2015-04-06T09:08:01.000Z</time>
      </trkpt>
      <trkpt lat="47.45908" lon="6.90705">
        <ele>488</ele>
        <time>2015-04-06T09:08:02.000Z</time>
      </trkpt>
      <trkpt lat="47.45904" lon="6.90702">
        <ele>488</ele>
        <time>2015-04-06T09:08:05.000Z</time>
      </trkpt>
      <trkpt lat="47.45903" lon="6.90702">
        <ele>488</ele>
        <time>2015-04-06T09:08:06.000Z</time>
      </trkpt>
      <trkpt lat="47.45899" lon="6.907">
        <ele>488</ele>
        <time>2015-04-06T09:08:09.000Z</time>
      </trkpt>
      <trkpt lat="47.45899" lon="6.907">
        <ele>488</ele>
        <time>2015-04-06T09:08:10.000Z</time>
      </trkpt>
      <trkpt lat="47.45894" lon="6.90702">
        <ele>488</ele>
        <time>2015-04-06T09:08:15.000Z</time>
      </trkpt>
      <trkpt lat="47.45892" lon="6.90701">
        <ele>488</ele>
        <time>2015-04-06T09:08:16.000Z</time>
      </trkpt>
      <trkpt lat="47.4589" lon="6.90701">
        <ele>488</ele>
        <time>2015-04-06T09:08:17.000Z</time>
      </trkpt>
      <trkpt lat="47.45887" lon="6.907">
        <ele>489</ele>
        <time>2015-04-06T09:08:18.000Z</time>
      </trkpt>
      <trkpt lat="47.45885" lon="6.907">
        <ele>489</ele>
        <time>2015-04-06T09:08:19.000Z</time>
      </trkpt>
      <trkpt lat="47.45882" lon="6.90699">
        <ele>489</ele>
        <time>2015-04-06T09:08:20.000Z</time>
      </trkpt>
      <trkpt lat="47.45879" lon="6.90698">
        <ele>489</ele>
        <time>2015-04-06T09:08:21.000Z</time>
      </trkpt>
      <trkpt lat="47.45877" lon="6.90697">
        <ele>489</ele>
        <time>2015-04-06T09:08:22.000Z</time>
      </trkpt>
      <trkpt lat="47.45874" lon="6.90697">
        <ele>489</ele>
        <time>2015-04-06T09:08:23.000Z</time>
      </trkpt>
      <trkpt lat="47.45871" lon="6.90696">
        <ele>489</ele>
        <time>2015-04-06T09:08:24.000Z</time>
      </trkpt>
      <trkpt lat="47.45868" lon="6.90696">
        <ele>489</ele>
        <time>2015-04-06T09:08:25.000Z</time>
      </trkpt>
      <trkpt lat="47.45865" lon="6.90695">
        <ele>489</ele>
        <time>2015-04-06T09:08:26.000Z</time>
      </trkpt>
      <trkpt lat="47.45863" lon="6.90694">
        <ele>489</ele>
        <time>2015-04-06T09:08:27.000Z</time>
      </trkpt>
      <trkpt lat="47.4586" lon="6.90694">
        <ele>489</ele>
        <time>2015-04-06T09:08:28.000Z</time>
      </trkpt>
      <trkpt lat="47.45856" lon="6.90694">
        <ele>489</ele>
        <time>2015-04-06T09:08:31.000Z</time>
      </trkpt>
      <trkpt lat="47.45855" lon="6.90694">
        <ele>489</ele>
        <time>2015-04-06T09:08:32.000Z</time>
      </trkpt>
      <trkpt lat="47.4585" lon="6.90694">
        <ele>490</ele>
        <time>2015-04-06T09:08:35.000Z</time>
      </trkpt>
      <trkpt lat="47.45849" lon="6.90694">
        <ele>490</ele>
        <time>2015-04-06T09:08:36.000Z</time>
      </trkpt>
      <trkpt lat="47.45845" lon="6.90695">
        <ele>490</ele>
        <time>2015-04-06T09:08:43.000Z</time>
      </trkpt>
      <trkpt lat="47.45844" lon="6.90695">
        <ele>490</ele>
        <time>2015-04-06T09:08:44.000Z</time>
      </trkpt>
      <trkpt lat="47.4584" lon="6.90692">
        <ele>490</ele>
        <time>2015-04-06T09:08:47.000Z</time>
      </trkpt>
      <trkpt lat="47.45838" lon="6.90691">
        <ele>490</ele>
        <time>2015-04-06T09:08:48.000Z</time>
      </trkpt>
      <trkpt lat="47.45836" lon="6.9069">
        <ele>490</ele>
        <time>2015-04-06T09:08:49.000Z</time>
      </trkpt>
      <trkpt lat="47.45833" lon="6.9069">
        <ele>494</ele>
        <time>2015-04-06T09:08:50.000Z</time>
      </trkpt>
      <trkpt lat="47.4583" lon="6.90689">
        <ele>494</ele>
        <time>2015-04-06T09:08:51.000Z</time>
      </trkpt>
      <trkpt lat="47.45828" lon="6.90688">
        <ele>494</ele>
        <time>2015-04-06T09:08:52.000Z</time>
      </trkpt>
      <trkpt lat="47.45827" lon="6.90683">
        <ele>493</ele>
        <time>2015-04-06T09:08:59.000Z</time>
      </trkpt>
      <trkpt lat="47.45826" lon="6.90682">
        <ele>493</ele>
        <time>2015-04-06T09:09:00.000Z</time>
      </trkpt>
      <trkpt lat="47.45824" lon="6.90682">
        <ele>493</ele>
        <time>2015-04-06T09:09:06.000Z</time>
      </trkpt>
      <trkpt lat="47.45821" lon="6.90683">
        <ele>493</ele>
        <time>2015-04-06T09:09:07.000Z</time>
      </trkpt>
      <trkpt lat="47.45819" lon="6.90683">
        <ele>494</ele>
        <time>2015-04-06T09:09:08.000Z</time>
      </trkpt>
      <trkpt lat="47.45815" lon="6.90683">
        <ele>494</ele>
        <time>2015-04-06T09:09:09.000Z</time>
      </trkpt>
      <trkpt lat="47.45812" lon="6.90683">
        <ele>494</ele>
        <time>2015-04-06T09:09:10.000Z</time>
      </trkpt>
      <trkpt lat="47.45809" lon="6.90682">
        <ele>495</ele>
        <time>2015-04-06T09:09:11.000Z</time>
      </trkpt>
      <trkpt lat="47.45806" lon="6.90681">
        <ele>495</ele>
        <time>2015-04-06T09:09:12.000Z</time>
      </trkpt>
      <trkpt lat="47.45803" lon="6.9068">
        <ele>495</ele>
        <time>2015-04-06T09:09:13.000Z</time>
      </trkpt>
      <trkpt lat="47.458" lon="6.9068">
        <ele>495</ele>
        <time>2015-04-06T09:09:14.000Z</time>
      </trkpt>
      <trkpt lat="47.45797" lon="6.90679">
        <ele>496</ele>
        <time>2015-04-06T09:09:15.000Z</time>
      </trkpt>
      <trkpt lat="47.45794" lon="6.90678">
        <ele>496</ele>
        <time>2015-04-06T09:09:16.000Z</time>
      </trkpt>
      <trkpt lat="47.45791" lon="6.90676">
        <ele>496</ele>
        <time>2015-04-06T09:09:17.000Z</time>
      </trkpt>
      <trkpt lat="47.45789" lon="6.90675">
        <ele>496</ele>
        <time>2015-04-06T09:09:18.000Z</time>
      </trkpt>
      <trkpt lat="47.45787" lon="6.90673">
        <ele>496</ele>
        <time>2015-04-06T09:09:19.000Z</time>
      </trkpt>
      <trkpt lat="47.45784" lon="6.90672">
        <ele>496</ele>
        <time>2015-04-06T09:09:21.000Z</time>
      </trkpt>
      <trkpt lat="47.45782" lon="6.90672">
        <ele>496</ele>
        <time>2015-04-06T09:09:22.000Z</time>
      </trkpt>
      <trkpt lat="47.45778" lon="6.9067">
        <ele>497</ele>
        <time>2015-04-06T09:09:24.000Z</time>
      </trkpt>
      <trkpt lat="47.45777" lon="6.90669">
        <ele>497</ele>
        <time>2015-04-06T09:09:25.000Z</time>
      </trkpt>
      <trkpt lat="47.45774" lon="6.90667">
        <ele>493</ele>
        <time>2015-04-06T09:09:27.000Z</time>
      </trkpt>
      <trkpt lat="47.45772" lon="6.90665">
        <ele>493</ele>
        <time>2015-04-06T09:09:28.000Z</time>
      </trkpt>
      <trkpt lat="47.45768" lon="6.90662">
        <ele>494</ele>
        <time>2015-04-06T09:09:30.000Z</time>
      </trkpt>
      <trkpt lat="47.45767" lon="6.90661">
        <ele>494</ele>
        <time>2015-04-06T09:09:31.000Z</time>
      </trkpt>
      <trkpt lat="47.45763" lon="6.90658">
        <ele>494</ele>
        <time>2015-04-06T09:09:33.000Z</time>
      </trkpt>
      <trkpt lat="47.45761" lon="6.90657">
        <ele>494</ele>
        <time>2015-04-06T09:09:34.000Z</time>
      </trkpt>
      <trkpt lat="47.45757" lon="6.90654">
        <ele>495</ele>
        <time>2015-04-06T09:09:36.000Z</time>
      </trkpt>
      <trkpt lat="47.45755" lon="6.90653">
        <ele>495</ele>
        <time>2015-04-06T09:09:37.000Z</time>
      </trkpt>
      <trkpt lat="47.45752" lon="6.90652">
        <ele>495</ele>
        <time>2015-04-06T09:09:39.000Z</time>
      </trkpt>
      <trkpt lat="47.4575" lon="6.90651">
        <ele>499</ele>
        <time>2015-04-06T09:09:40.000Z</time>
      </trkpt>
      <trkpt lat="47.45746" lon="6.9065">
        <ele>499</ele>
        <time>2015-04-06T09:09:42.000Z</time>
      </trkpt>
      <trkpt lat="47.45745" lon="6.9065">
        <ele>499</ele>
        <time>2015-04-06T09:09:43.000Z</time>
      </trkpt>
      <trkpt lat="47.45741" lon="6.90651">
        <ele>500</ele>
        <time>2015-04-06T09:09:46.000Z</time>
      </trkpt>
      <trkpt lat="47.4574" lon="6.9065">
        <ele>500</ele>
        <time>2015-04-06T09:09:47.000Z</time>
      </trkpt>
      <trkpt lat="47.45737" lon="6.90649">
        <ele>500</ele>
        <time>2015-04-06T09:09:49.000Z</time>
      </trkpt>
      <trkpt lat="47.45735" lon="6.90648">
        <ele>500</ele>
        <time>2015-04-06T09:09:50.000Z</time>
      </trkpt>
      <trkpt lat="47.45732" lon="6.90646">
        <ele>500</ele>
        <time>2015-04-06T09:09:52.000Z</time>
      </trkpt>
      <trkpt lat="47.4573" lon="6.90646">
        <ele>500</ele>
        <time>2015-04-06T09:09:53.000Z</time>
      </trkpt>
      <trkpt lat="47.45727" lon="6.90644">
        <ele>500</ele>
        <time>2015-04-06T09:09:55.000Z</time>
      </trkpt>
      <trkpt lat="47.45725" lon="6.90643">
        <ele>501</ele>
        <time>2015-04-06T09:09:56.000Z</time>
      </trkpt>
      <trkpt lat="47.45721" lon="6.90642">
        <ele>501</ele>
        <time>2015-04-06T09:09:59.000Z</time>
      </trkpt>
      <trkpt lat="47.45719" lon="6.90642">
        <ele>501</ele>
        <time>2015-04-06T09:10:00.000Z</time>
      </trkpt>
      <trkpt lat="47.45715" lon="6.9064">
        <ele>501</ele>
        <time>2015-04-06T09:10:02.000Z</time>
      </trkpt>
      <trkpt lat="47.45714" lon="6.90639">
        <ele>501</ele>
        <time>2015-04-06T09:10:03.000Z</time>
      </trkpt>
      <trkpt lat="47.45709" lon="6.90638">
        <ele>502</ele>
        <time>2015-04-06T09:10:06.000Z</time>
      </trkpt>
      <trkpt lat="47.45708" lon="6.90637">
        <ele>502</ele>
        <time>2015-04-06T09:10:07.000Z</time>
      </trkpt>
      <trkpt lat="47.45704" lon="6.90637">
        <ele>502</ele>
        <time>2015-04-06T09:10:10.000Z</time>
      </trkpt>
      <trkpt lat="47.45703" lon="6.90637">
        <ele>502</ele>
        <time>2015-04-06T09:10:11.000Z</time>
      </trkpt>
      <trkpt lat="47.45699" lon="6.90638">
        <ele>502</ele>
        <time>2015-04-06T09:10:14.000Z</time>
      </trkpt>
      <trkpt lat="47.45698" lon="6.90638">
        <ele>503</ele>
        <time>2015-04-06T09:10:15.000Z</time>
      </trkpt>
      <trkpt lat="47.45693" lon="6.90637">
        <ele>503</ele>
        <time>2015-04-06T09:10:18.000Z</time>
      </trkpt>
      <trkpt lat="47.45692" lon="6.90638">
        <ele>503</ele>
        <time>2015-04-06T09:10:19.000Z</time>
      </trkpt>
      <trkpt lat="47.45688" lon="6.90641">
        <ele>503</ele>
        <time>2015-04-06T09:10:22.000Z</time>
      </trkpt>
      <trkpt lat="47.45687" lon="6.90642">
        <ele>504</ele>
        <time>2015-04-06T09:10:23.000Z</time>
      </trkpt>
      <trkpt lat="47.45683" lon="6.90645">
        <ele>504</ele>
        <time>2015-04-06T09:10:28.000Z</time>
      </trkpt>
      <trkpt lat="47.45682" lon="6.90646">
        <ele>504</ele>
        <time>2015-04-06T09:10:29.000Z</time>
      </trkpt>
      <trkpt lat="47.45679" lon="6.90647">
        <ele>505</ele>
        <time>2015-04-06T09:10:32.000Z</time>
      </trkpt>
      <trkpt lat="47.45677" lon="6.90648">
        <ele>505</ele>
        <time>2015-04-06T09:10:33.000Z</time>
      </trkpt>
      <trkpt lat="47.45674" lon="6.90649">
        <ele>505</ele>
        <time>2015-04-06T09:10:36.000Z</time>
      </trkpt>
      <trkpt lat="47.45672" lon="6.9065">
        <ele>506</ele>
        <time>2015-04-06T09:10:37.000Z</time>
      </trkpt>
      <trkpt lat="47.45669" lon="6.90652">
        <ele>506</ele>
        <time>2015-04-06T09:10:39.000Z</time>
      </trkpt>
      <trkpt lat="47.45668" lon="6.90653">
        <ele>506</ele>
        <time>2015-04-06T09:10:40.000Z</time>
      </trkpt>
      <trkpt lat="47.45664" lon="6.90655">
        <ele>510</ele>
        <time>2015-04-06T09:10:42.000Z</time>
      </trkpt>
      <trkpt lat="47.45662" lon="6.90656">
        <ele>510</ele>
        <time>2015-04-06T09:10:43.000Z</time>
      </trkpt>
      <trkpt lat="47.45659" lon="6.90656">
        <ele>510</ele>
        <time>2015-04-06T09:10:44.000Z</time>
      </trkpt>
      <trkpt lat="47.45656" lon="6.90657">
        <ele>510</ele>
        <time>2015-04-06T09:10:45.000Z</time>
      </trkpt>
      <trkpt lat="47.45653" lon="6.90654">
        <ele>510</ele>
        <time>2015-04-06T09:10:49.000Z</time>
      </trkpt>
      <trkpt lat="47.45651" lon="6.90653">
        <ele>510</ele>
        <time>2015-04-06T09:10:50.000Z</time>
      </trkpt>
      <trkpt lat="47.45647" lon="6.90652">
        <ele>510</ele>
        <time>2015-04-06T09:10:52.000Z</time>
      </trkpt>
      <trkpt lat="47.45645" lon="6.90652">
        <ele>510</ele>
        <time>2015-04-06T09:10:53.000Z</time>
      </trkpt>
      <trkpt lat="47.45641" lon="6.90652">
        <ele>510</ele>
        <time>2015-04-06T09:10:55.000Z</time>
      </trkpt>
      <trkpt lat="47.45639" lon="6.90651">
        <ele>511</ele>
        <time>2015-04-06T09:10:56.000Z</time>
      </trkpt>
      <trkpt lat="47.45636" lon="6.9065">
        <ele>511</ele>
        <time>2015-04-06T09:10:58.000Z</time>
      </trkpt>
      <trkpt lat="47.45635" lon="6.9065">
        <ele>511</ele>
        <time>2015-04-06T09:10:59.000Z</time>
      </trkpt>
      <trkpt lat="47.45631" lon="6.90649">
        <ele>511</ele>
        <time>2015-04-06T09:11:01.000Z</time>
      </trkpt>
      <trkpt lat="47.4563" lon="6.90648">
        <ele>511</ele>
        <time>2015-04-06T09:11:02.000Z</time>
      </trkpt>
      <trkpt lat="47.45625" lon="6.90649">
        <ele>511</ele>
        <time>2015-04-06T09:11:05.000Z</time>
      </trkpt>
      <trkpt lat="47.45624" lon="6.90649">
        <ele>511</ele>
        <time>2015-04-06T09:11:06.000Z</time>
      </trkpt>
      <trkpt lat="47.4562" lon="6.90652">
        <ele>511</ele>
        <time>2015-04-06T09:11:10.000Z</time>
      </trkpt>
      <trkpt lat="47.45619" lon="6.90652">
        <ele>512</ele>
        <time>2015-04-06T09:11:11.000Z</time>
      </trkpt>
      <trkpt lat="47.45616" lon="6.90652">
        <ele>512</ele>
        <time>2015-04-06T09:11:13.000Z</time>
      </trkpt>
      <trkpt lat="47.45614" lon="6.90652">
        <ele>512</ele>
        <time>2015-04-06T09:11:14.000Z</time>
      </trkpt>
      <trkpt lat="47.4561" lon="6.90652">
        <ele>512</ele>
        <time>2015-04-06T09:11:17.000Z</time>
      </trkpt>
      <trkpt lat="47.45609" lon="6.90652">
        <ele>512</ele>
        <time>2015-04-06T09:11:18.000Z</time>
      </trkpt>
      <trkpt lat="47.45605" lon="6.9065">
        <ele>512</ele>
        <time>2015-04-06T09:11:22.000Z</time>
      </trkpt>
      <trkpt lat="47.45604" lon="6.9065">
        <ele>513</ele>
        <time>2015-04-06T09:11:23.000Z</time>
      </trkpt>
      <trkpt lat="47.456" lon="6.90649">
        <ele>513</ele>
        <time>2015-04-06T09:11:26.000Z</time>
      </trkpt>
      <trkpt lat="47.45597" lon="6.90649">
        <ele>513</ele>
        <time>2015-04-06T09:11:27.000Z</time>
      </trkpt>
      <trkpt lat="47.45593" lon="6.90648">
        <ele>513</ele>
        <time>2015-04-06T09:11:29.000Z</time>
      </trkpt>
      <trkpt lat="47.45591" lon="6.90648">
        <ele>513</ele>
        <time>2015-04-06T09:11:30.000Z</time>
      </trkpt>
      <trkpt lat="47.45588" lon="6.90648">
        <ele>513</ele>
        <time>2015-04-06T09:11:31.000Z</time>
      </trkpt>
      <trkpt lat="47.45584" lon="6.90648">
        <ele>513</ele>
        <time>2015-04-06T09:11:32.000Z</time>
      </trkpt>
      <trkpt lat="47.45582" lon="6.90647">
        <ele>515</ele>
        <time>2015-04-06T09:11:33.000Z</time>
      </trkpt>
      <trkpt lat="47.4558" lon="6.90647">
        <ele>515</ele>
        <time>2015-04-06T09:11:34.000Z</time>
      </trkpt>
      <trkpt lat="47.45576" lon="6.90647">
        <ele>515</ele>
        <time>2015-04-06T09:11:36.000Z</time>
      </trkpt>
      <trkpt lat="47.45574" lon="6.90647">
        <ele>515</ele>
        <time>2015-04-06T09:11:37.000Z</time>
      </trkpt>
      <trkpt lat="47.45571" lon="6.90647">
        <ele>515</ele>
        <time>2015-04-06T09:11:38.000Z</time>
      </trkpt>
      <trkpt lat="47.45569" lon="6.90646">
        <ele>515</ele>
        <time>2015-04-06T09:11:39.000Z</time>
      </trkpt>
      <trkpt lat="47.45567" lon="6.90646">
        <ele>515</ele>
        <time>2015-04-06T09:11:40.000Z</time>
      </trkpt>
      <trkpt lat="47.45564" lon="6.90645">
        <ele>515</ele>
        <time>2015-04-06T09:11:41.000Z</time>
      </trkpt>
      <trkpt lat="47.4556" lon="6.90646">
        <ele>515</ele>
        <time>2015-04-06T09:11:43.000Z</time>
      </trkpt>
      <trkpt lat="47.45558" lon="6.90647">
        <ele>515</ele>
        <time>2015-04-06T09:11:44.000Z</time>
      </trkpt>
      <trkpt lat="47.45554" lon="6.90647">
        <ele>515</ele>
        <time>2015-04-06T09:11:46.000Z</time>
      </trkpt>
      <trkpt lat="47.45552" lon="6.90646">
        <ele>515</ele>
        <time>2015-04-06T09:11:47.000Z</time>
      </trkpt>
      <trkpt lat="47.45548" lon="6.90646">
        <ele>515</ele>
        <time>2015-04-06T09:11:51.000Z</time>
      </trkpt>
      <trkpt lat="47.45547" lon="6.90646">
        <ele>515</ele>
        <time>2015-04-06T09:11:52.000Z</time>
      </trkpt>
      <trkpt lat="47.45543" lon="6.90647">
        <ele>515</ele>
        <time>2015-04-06T09:11:58.000Z</time>
      </trkpt>
      <trkpt lat="47.45541" lon="6.90647">
        <ele>515</ele>
        <time>2015-04-06T09:11:59.000Z</time>
      </trkpt>
      <trkpt lat="47.45539" lon="6.90648">
        <ele>515</ele>
        <time>2015-04-06T09:12:00.000Z</time>
      </trkpt>
      <trkpt lat="47.45536" lon="6.90648">
        <ele>515</ele>
        <time>2015-04-06T09:12:01.000Z</time>
      </trkpt>
      <trkpt lat="47.45534" lon="6.90648">
        <ele>516</ele>
        <time>2015-04-06T09:12:02.000Z</time>
      </trkpt>
      <trkpt lat="47.45531" lon="6.90648">
        <ele>516</ele>
        <time>2015-04-06T09:12:03.000Z</time>
      </trkpt>
      <trkpt lat="47.45527" lon="6.90649">
        <ele>516</ele>
        <time>2015-04-06T09:12:10.000Z</time>
      </trkpt>
      <trkpt lat="47.45526" lon="6.90649">
        <ele>516</ele>
        <time>2015-04-06T09:12:11.000Z</time>
      </trkpt>
      <trkpt lat="47.45522" lon="6.90649">
        <ele>516</ele>
        <time>2015-04-06T09:12:13.000Z</time>
      </trkpt>
      <trkpt lat="47.4552" lon="6.90649">
        <ele>516</ele>
        <time>2015-04-06T09:12:14.000Z</time>
      </trkpt>
      <trkpt lat="47.45516" lon="6.9065">
        <ele>516</ele>
        <time>2015-04-06T09:12:16.000Z</time>
      </trkpt>
      <trkpt lat="47.45514" lon="6.9065">
        <ele>516</ele>
        <time>2015-04-06T09:12:17.000Z</time>
      </trkpt>
      <trkpt lat="47.45511" lon="6.90651">
        <ele>517</ele>
        <time>2015-04-06T09:12:18.000Z</time>
      </trkpt>
      <trkpt lat="47.45509" lon="6.90651">
        <ele>517</ele>
        <time>2015-04-06T09:12:19.000Z</time>
      </trkpt>
      <trkpt lat="47.45507" lon="6.90652">
        <ele>517</ele>
        <time>2015-04-06T09:12:20.000Z</time>
      </trkpt>
      <trkpt lat="47.45504" lon="6.90654">
        <ele>517</ele>
        <time>2015-04-06T09:12:21.000Z</time>
      </trkpt>
      <trkpt lat="47.45502" lon="6.90656">
        <ele>517</ele>
        <time>2015-04-06T09:12:22.000Z</time>
      </trkpt>
      <trkpt lat="47.455" lon="6.90657">
        <ele>518</ele>
        <time>2015-04-06T09:12:23.000Z</time>
      </trkpt>
      <trkpt lat="47.45498" lon="6.90659">
        <ele>518</ele>
        <time>2015-04-06T09:12:24.000Z</time>
      </trkpt>
      <trkpt lat="47.45495" lon="6.9066">
        <ele>518</ele>
        <time>2015-04-06T09:12:25.000Z</time>
      </trkpt>
      <trkpt lat="47.45493" lon="6.90661">
        <ele>518</ele>
        <time>2015-04-06T09:12:26.000Z</time>
      </trkpt>
      <trkpt lat="47.45491" lon="6.90662">
        <ele>518</ele>
        <time>2015-04-06T09:12:27.000Z</time>
      </trkpt>
      <trkpt lat="47.45488" lon="6.90663">
        <ele>518</ele>
        <time>2015-04-06T09:12:28.000Z</time>
      </trkpt>
      <trkpt lat="47.45486" lon="6.90663">
        <ele>518</ele>
        <time>2015-04-06T09:12:29.000Z</time>
      </trkpt>
      <trkpt lat="47.45484" lon="6.90664">
        <ele>518</ele>
        <time>2015-04-06T09:12:30.000Z</time>
      </trkpt>
      <trkpt lat="47.45481" lon="6.90665">
        <ele>518</ele>
        <time>2015-04-06T09:12:31.000Z</time>
      </trkpt>
      <trkpt lat="47.45479" lon="6.90665">
        <ele>518</ele>
        <time>2015-04-06T09:12:32.000Z</time>
      </trkpt>
      <trkpt lat="47.45476" lon="6.90666">
        <ele>518</ele>
        <time>2015-04-06T09:12:33.000Z</time>
      </trkpt>
      <trkpt lat="47.45474" lon="6.90667">
        <ele>521</ele>
        <time>2015-04-06T09:12:34.000Z</time>
      </trkpt>
      <trkpt lat="47.45472" lon="6.90668">
        <ele>522</ele>
        <time>2015-04-06T09:12:35.000Z</time>
      </trkpt>
      <trkpt lat="47.4547" lon="6.9067">
        <ele>522</ele>
        <time>2015-04-06T09:12:36.000Z</time>
      </trkpt>
      <trkpt lat="47.45468" lon="6.90672">
        <ele>522</ele>
        <time>2015-04-06T09:12:37.000Z</time>
      </trkpt>
      <trkpt lat="47.45466" lon="6.90674">
        <ele>522</ele>
        <time>2015-04-06T09:12:38.000Z</time>
      </trkpt>
      <trkpt lat="47.45464" lon="6.90676">
        <ele>522</ele>
        <time>2015-04-06T09:12:39.000Z</time>
      </trkpt>
      <trkpt lat="47.45461" lon="6.9068">
        <ele>522</ele>
        <time>2015-04-06T09:12:41.000Z</time>
      </trkpt>
      <trkpt lat="47.45459" lon="6.90682">
        <ele>522</ele>
        <time>2015-04-06T09:12:42.000Z</time>
      </trkpt>
      <trkpt lat="47.45457" lon="6.90685">
        <ele>522</ele>
        <time>2015-04-06T09:12:43.000Z</time>
      </trkpt>
      <trkpt lat="47.45455" lon="6.90688">
        <ele>522</ele>
        <time>2015-04-06T09:12:44.000Z</time>
      </trkpt>
      <trkpt lat="47.45453" lon="6.90691">
        <ele>523</ele>
        <time>2015-04-06T09:12:45.000Z</time>
      </trkpt>
      <trkpt lat="47.45451" lon="6.90694">
        <ele>523</ele>
        <time>2015-04-06T09:12:46.000Z</time>
      </trkpt>
      <trkpt lat="47.45449" lon="6.90698">
        <ele>523</ele>
        <time>2015-04-06T09:12:47.000Z</time>
      </trkpt>
      <trkpt lat="47.45447" lon="6.90701">
        <ele>523</ele>
        <time>2015-04-06T09:12:48.000Z</time>
      </trkpt>
      <trkpt lat="47.45445" lon="6.90704">
        <ele>523</ele>
        <time>2015-04-06T09:12:49.000Z</time>
      </trkpt>
      <trkpt lat="47.45443" lon="6.90706">
        <ele>523</ele>
        <time>2015-04-06T09:12:50.000Z</time>
      </trkpt>
      <trkpt lat="47.4544" lon="6.9071">
        <ele>523</ele>
        <time>2015-04-06T09:12:52.000Z</time>
      </trkpt>
      <trkpt lat="47.45438" lon="6.90712">
        <ele>524</ele>
        <time>2015-04-06T09:12:53.000Z</time>
      </trkpt>
      <trkpt lat="47.45435" lon="6.90715">
        <ele>524</ele>
        <time>2015-04-06T09:12:55.000Z</time>
      </trkpt>
      <trkpt lat="47.45433" lon="6.90717">
        <ele>524</ele>
        <time>2015-04-06T09:12:56.000Z</time>
      </trkpt>
      <trkpt lat="47.45429" lon="6.90719">
        <ele>524</ele>
        <time>2015-04-06T09:12:58.000Z</time>
      </trkpt>
      <trkpt lat="47.45427" lon="6.9072">
        <ele>524</ele>
        <time>2015-04-06T09:12:59.000Z</time>
      </trkpt>
      <trkpt lat="47.45423" lon="6.90721">
        <ele>524</ele>
        <time>2015-04-06T09:13:01.000Z</time>
      </trkpt>
      <trkpt lat="47.45421" lon="6.90721">
        <ele>524</ele>
        <time>2015-04-06T09:13:02.000Z</time>
      </trkpt>
      <trkpt lat="47.45417" lon="6.9072">
        <ele>524</ele>
        <time>2015-04-06T09:13:04.000Z</time>
      </trkpt>
      <trkpt lat="47.45415" lon="6.90719">
        <ele>528</ele>
        <time>2015-04-06T09:13:05.000Z</time>
      </trkpt>
      <trkpt lat="47.45411" lon="6.90717">
        <ele>528</ele>
        <time>2015-04-06T09:13:07.000Z</time>
      </trkpt>
      <trkpt lat="47.45409" lon="6.90716">
        <ele>528</ele>
        <time>2015-04-06T09:13:08.000Z</time>
      </trkpt>
      <trkpt lat="47.45406" lon="6.90715">
        <ele>528</ele>
        <time>2015-04-06T09:13:10.000Z</time>
      </trkpt>
      <trkpt lat="47.45404" lon="6.90714">
        <ele>528</ele>
        <time>2015-04-06T09:13:11.000Z</time>
      </trkpt>
      <trkpt lat="47.45401" lon="6.90713">
        <ele>528</ele>
        <time>2015-04-06T09:13:13.000Z</time>
      </trkpt>
      <trkpt lat="47.45399" lon="6.90713">
        <ele>528</ele>
        <time>2015-04-06T09:13:14.000Z</time>
      </trkpt>
      <trkpt lat="47.45395" lon="6.90714">
        <ele>528</ele>
        <time>2015-04-06T09:13:16.000Z</time>
      </trkpt>
      <trkpt lat="47.45393" lon="6.90714">
        <ele>528</ele>
        <time>2015-04-06T09:13:17.000Z</time>
      </trkpt>
      <trkpt lat="47.45389" lon="6.90713">
        <ele>528</ele>
        <time>2015-04-06T09:13:19.000Z</time>
      </trkpt>
      <trkpt lat="47.45387" lon="6.90712">
        <ele>528</ele>
        <time>2015-04-06T09:13:20.000Z</time>
      </trkpt>
      <trkpt lat="47.45383" lon="6.90711">
        <ele>528</ele>
        <time>2015-04-06T09:13:23.000Z</time>
      </trkpt>
      <trkpt lat="47.45382" lon="6.90711">
        <ele>528</ele>
        <time>2015-04-06T09:13:24.000Z</time>
      </trkpt>
      <trkpt lat="47.45378" lon="6.90712">
        <ele>528</ele>
        <time>2015-04-06T09:13:26.000Z</time>
      </trkpt>
      <trkpt lat="47.45376" lon="6.90713">
        <ele>528</ele>
        <time>2015-04-06T09:13:27.000Z</time>
      </trkpt>
      <trkpt lat="47.45372" lon="6.90714">
        <ele>529</ele>
        <time>2015-04-06T09:13:29.000Z</time>
      </trkpt>
      <trkpt lat="47.45371" lon="6.90714">
        <ele>529</ele>
        <time>2015-04-06T09:13:30.000Z</time>
      </trkpt>
      <trkpt lat="47.45367" lon="6.90713">
        <ele>529</ele>
        <time>2015-04-06T09:13:35.000Z</time>
      </trkpt>
      <trkpt lat="47.45366" lon="6.90712">
        <ele>529</ele>
        <time>2015-04-06T09:13:36.000Z</time>
      </trkpt>
      <trkpt lat="47.45362" lon="6.90711">
        <ele>529</ele>
        <time>2015-04-06T09:13:38.000Z</time>
      </trkpt>
      <trkpt lat="47.4536" lon="6.90711">
        <ele>529</ele>
        <time>2015-04-06T09:13:39.000Z</time>
      </trkpt>
      <trkpt lat="47.45357" lon="6.90711">
        <ele>529</ele>
        <time>2015-04-06T09:13:40.000Z</time>
      </trkpt>
      <trkpt lat="47.45354" lon="6.90712">
        <ele>529</ele>
        <time>2015-04-06T09:13:41.000Z</time>
      </trkpt>
      <trkpt lat="47.45351" lon="6.90712">
        <ele>529</ele>
        <time>2015-04-06T09:13:42.000Z</time>
      </trkpt>
      <trkpt lat="47.45349" lon="6.90712">
        <ele>529</ele>
        <time>2015-04-06T09:13:43.000Z</time>
      </trkpt>
      <trkpt lat="47.45344" lon="6.90713">
        <ele>530</ele>
        <time>2015-04-06T09:13:45.000Z</time>
      </trkpt>
      <trkpt lat="47.45342" lon="6.90714">
        <ele>530</ele>
        <time>2015-04-06T09:13:46.000Z</time>
      </trkpt>
      <trkpt lat="47.45339" lon="6.90714">
        <ele>530</ele>
        <time>2015-04-06T09:13:48.000Z</time>
      </trkpt>
      <trkpt lat="47.45337" lon="6.90714">
        <ele>530</ele>
        <time>2015-04-06T09:13:49.000Z</time>
      </trkpt>
      <trkpt lat="47.45333" lon="6.90714">
        <ele>532</ele>
        <time>2015-04-06T09:13:51.000Z</time>
      </trkpt>
      <trkpt lat="47.4533" lon="6.90714">
        <ele>532</ele>
        <time>2015-04-06T09:13:52.000Z</time>
      </trkpt>
      <trkpt lat="47.45326" lon="6.90714">
        <ele>533</ele>
        <time>2015-04-06T09:13:54.000Z</time>
      </trkpt>
      <trkpt lat="47.45324" lon="6.90714">
        <ele>533</ele>
        <time>2015-04-06T09:13:55.000Z</time>
      </trkpt>
      <trkpt lat="47.45321" lon="6.90714">
        <ele>533</ele>
        <time>2015-04-06T09:13:56.000Z</time>
      </trkpt>
      <trkpt lat="47.45319" lon="6.90714">
        <ele>533</ele>
        <time>2015-04-06T09:13:57.000Z</time>
      </trkpt>
      <trkpt lat="47.45315" lon="6.90715">
        <ele>533</ele>
        <time>2015-04-06T09:13:59.001Z</time>
      </trkpt>
      <trkpt lat="47.45313" lon="6.90716">
        <ele>533</ele>
        <time>2015-04-06T09:14:00.000Z</time>
      </trkpt>
      <trkpt lat="47.45309" lon="6.90717">
        <ele>533</ele>
        <time>2015-04-06T09:14:04.000Z</time>
      </trkpt>
      <trkpt lat="47.45309" lon="6.90717">
        <ele>533</ele>
        <time>2015-04-06T09:14:05.000Z</time>
      </trkpt>
      <trkpt lat="47.45305" lon="6.90716">
        <ele>533</ele>
        <time>2015-04-06T09:14:07.000Z</time>
      </trkpt>
      <trkpt lat="47.45303" lon="6.90716">
        <ele>533</ele>
        <time>2015-04-06T09:14:08.000Z</time>
      </trkpt>
      <trkpt lat="47.453" lon="6.90717">
        <ele>533</ele>
        <time>2015-04-06T09:14:09.000Z</time>
      </trkpt>
      <trkpt lat="47.45298" lon="6.90717">
        <ele>533</ele>
        <time>2015-04-06T09:14:10.000Z</time>
      </trkpt>
      <trkpt lat="47.45295" lon="6.90718">
        <ele>533</ele>
        <time>2015-04-06T09:14:11.000Z</time>
      </trkpt>
      <trkpt lat="47.45291" lon="6.90718">
        <ele>533</ele>
        <time>2015-04-06T09:14:12.000Z</time>
      </trkpt>
      <trkpt lat="47.45288" lon="6.90719">
        <ele>533</ele>
        <time>2015-04-06T09:14:13.000Z</time>
      </trkpt>
      <trkpt lat="47.45284" lon="6.90719">
        <ele>533</ele>
        <time>2015-04-06T09:14:14.000Z</time>
      </trkpt>
      <trkpt lat="47.45281" lon="6.9072">
        <ele>533</ele>
        <time>2015-04-06T09:14:15.000Z</time>
      </trkpt>
      <trkpt lat="47.45278" lon="6.9072">
        <ele>533</ele>
        <time>2015-04-06T09:14:16.000Z</time>
      </trkpt>
      <trkpt lat="47.45275" lon="6.9072">
        <ele>533</ele>
        <time>2015-04-06T09:14:17.000Z</time>
      </trkpt>
      <trkpt lat="47.45273" lon="6.9072">
        <ele>533</ele>
        <time>2015-04-06T09:14:18.000Z</time>
      </trkpt>
      <trkpt lat="47.4527" lon="6.90718">
        <ele>533</ele>
        <time>2015-04-06T09:14:20.000Z</time>
      </trkpt>
      <trkpt lat="47.45268" lon="6.90717">
        <ele>533</ele>
        <time>2015-04-06T09:14:21.000Z</time>
      </trkpt>
      <trkpt lat="47.45265" lon="6.90715">
        <ele>533</ele>
        <time>2015-04-06T09:14:24.000Z</time>
      </trkpt>
      <trkpt lat="47.45264" lon="6.90715">
        <ele>533</ele>
        <time>2015-04-06T09:14:25.000Z</time>
      </trkpt>
      <trkpt lat="47.4526" lon="6.90714">
        <ele>533</ele>
        <time>2015-04-06T09:14:27.000Z</time>
      </trkpt>
      <trkpt lat="47.45258" lon="6.90713">
        <ele>533</ele>
        <time>2015-04-06T09:14:28.000Z</time>
      </trkpt>
      <trkpt lat="47.45255" lon="6.90713">
        <ele>533</ele>
        <time>2015-04-06T09:14:29.000Z</time>
      </trkpt>
      <trkpt lat="47.45253" lon="6.90713">
        <ele>533</ele>
        <time>2015-04-06T09:14:30.000Z</time>
      </trkpt>
      <trkpt lat="47.4525" lon="6.90715">
        <ele>535</ele>
        <time>2015-04-06T09:14:33.000Z</time>
      </trkpt>
      <trkpt lat="47.45249" lon="6.90716">
        <ele>535</ele>
        <time>2015-04-06T09:14:34.000Z</time>
      </trkpt>
      <trkpt lat="47.45245" lon="6.90717">
        <ele>535</ele>
        <time>2015-04-06T09:14:36.000Z</time>
      </trkpt>
      <trkpt lat="47.45242" lon="6.90717">
        <ele>535</ele>
        <time>2015-04-06T09:14:37.000Z</time>
      </trkpt>
      <trkpt lat="47.4524" lon="6.90715">
        <ele>535</ele>
        <time>2015-04-06T09:14:38.000Z</time>
      </trkpt>
      <trkpt lat="47.45238" lon="6.90713">
        <ele>535</ele>
        <time>2015-04-06T09:14:39.000Z</time>
      </trkpt>
      <trkpt lat="47.45235" lon="6.90709">
        <ele>535</ele>
        <time>2015-04-06T09:14:41.000Z</time>
      </trkpt>
      <trkpt lat="47.45234" lon="6.90708">
        <ele>535</ele>
        <time>2015-04-06T09:14:42.000Z</time>
      </trkpt>
      <trkpt lat="47.45231" lon="6.90707">
        <ele>535</ele>
        <time>2015-04-06T09:14:44.000Z</time>
      </trkpt>
      <trkpt lat="47.45228" lon="6.90705">
        <ele>535</ele>
        <time>2015-04-06T09:14:45.000Z</time>
      </trkpt>
      <trkpt lat="47.45226" lon="6.90703">
        <ele>535</ele>
        <time>2015-04-06T09:14:46.000Z</time>
      </trkpt>
      <trkpt lat="47.45223" lon="6.90701">
        <ele>535</ele>
        <time>2015-04-06T09:14:47.000Z</time>
      </trkpt>
      <trkpt lat="47.45219" lon="6.90699">
        <ele>535</ele>
        <time>2015-04-06T09:14:48.000Z</time>
      </trkpt>
      <trkpt lat="47.45217" lon="6.90698">
        <ele>535</ele>
        <time>2015-04-06T09:14:49.000Z</time>
      </trkpt>
      <trkpt lat="47.45214" lon="6.90697">
        <ele>535</ele>
        <time>2015-04-06T09:14:50.000Z</time>
      </trkpt>
      <trkpt lat="47.4521" lon="6.90697">
        <ele>535</ele>
        <time>2015-04-06T09:14:51.000Z</time>
      </trkpt>
      <trkpt lat="47.45207" lon="6.90697">
        <ele>535</ele>
        <time>2015-04-06T09:14:52.000Z</time>
      </trkpt>
      <trkpt lat="47.45204" lon="6.90697">
        <ele>535</ele>
        <time>2015-04-06T09:14:53.000Z</time>
      </trkpt>
      <trkpt lat="47.452" lon="6.90697">
        <ele>535</ele>
        <time>2015-04-06T09:14:55.000Z</time>
      </trkpt>
      <trkpt lat="47.45198" lon="6.90697">
        <ele>535</ele>
        <time>2015-04-06T09:14:56.000Z</time>
      </trkpt>
      <trkpt lat="47.45194" lon="6.90698">
        <ele>535</ele>
        <time>2015-04-06T09:14:59.000Z</time>
      </trkpt>
      <trkpt lat="47.45193" lon="6.90698">
        <ele>535</ele>
        <time>2015-04-06T09:15:00.000Z</time>
      </trkpt>
      <trkpt lat="47.45189" lon="6.90697">
        <ele>535</ele>
        <time>2015-04-06T09:15:02.000Z</time>
      </trkpt>
      <trkpt lat="47.45186" lon="6.90697">
        <ele>535</ele>
        <time>2015-04-06T09:15:03.000Z</time>
      </trkpt>
      <trkpt lat="47.45183" lon="6.90696">
        <ele>535</ele>
        <time>2015-04-06T09:15:04.000Z</time>
      </trkpt>
      <trkpt lat="47.45179" lon="6.90695">
        <ele>535</ele>
        <time>2015-04-06T09:15:05.000Z</time>
      </trkpt>
      <trkpt lat="47.45176" lon="6.90693">
        <ele>535</ele>
        <time>2015-04-06T09:15:06.000Z</time>
      </trkpt>
      <trkpt lat="47.45172" lon="6.90691">
        <ele>535</ele>
        <time>2015-04-06T09:15:07.000Z</time>
      </trkpt>
      <trkpt lat="47.45169" lon="6.90689">
        <ele>535</ele>
        <time>2015-04-06T09:15:08.000Z</time>
      </trkpt>
      <trkpt lat="47.45166" lon="6.90689">
        <ele>537</ele>
        <time>2015-04-06T09:15:09.000Z</time>
      </trkpt>
      <trkpt lat="47.45163" lon="6.90688">
        <ele>537</ele>
        <time>2015-04-06T09:15:10.000Z</time>
      </trkpt>
      <trkpt lat="47.4516" lon="6.90688">
        <ele>537</ele>
        <time>2015-04-06T09:15:11.000Z</time>
      </trkpt>
      <trkpt lat="47.45157" lon="6.90688">
        <ele>537</ele>
        <time>2015-04-06T09:15:12.000Z</time>
      </trkpt>
      <trkpt lat="47.45155" lon="6.90688">
        <ele>537</ele>
        <time>2015-04-06T09:15:13.000Z</time>
      </trkpt>
      <trkpt lat="47.45152" lon="6.90686">
        <ele>537</ele>
        <time>2015-04-06T09:15:15.000Z</time>
      </trkpt>
      <trkpt lat="47.4515" lon="6.90683">
        <ele>537</ele>
        <time>2015-04-06T09:15:16.000Z</time>
      </trkpt>
      <trkpt lat="47.45146" lon="6.90679">
        <ele>537</ele>
        <time>2015-04-06T09:15:18.000Z</time>
      </trkpt>
      <trkpt lat="47.45145" lon="6.90678">
        <ele>537</ele>
        <time>2015-04-06T09:15:19.000Z</time>
      </trkpt>
      <trkpt lat="47.45141" lon="6.90678">
        <ele>537</ele>
        <time>2015-04-06T09:15:22.000Z</time>
      </trkpt>
      <trkpt lat="47.45139" lon="6.90678">
        <ele>537</ele>
        <time>2015-04-06T09:15:23.000Z</time>
      </trkpt>
      <trkpt lat="47.45136" lon="6.90678">
        <ele>537</ele>
        <time>2015-04-06T09:15:24.000Z</time>
      </trkpt>
      <trkpt lat="47.45134" lon="6.90679">
        <ele>537</ele>
        <time>2015-04-06T09:15:25.000Z</time>
      </trkpt>
      <trkpt lat="47.4513" lon="6.90679">
        <ele>537</ele>
        <time>2015-04-06T09:15:27.000Z</time>
      </trkpt>
      <trkpt lat="47.45127" lon="6.90679">
        <ele>537</ele>
        <time>2015-04-06T09:15:28.000Z</time>
      </trkpt>
      <trkpt lat="47.45123" lon="6.90679">
        <ele>537</ele>
        <time>2015-04-06T09:15:31.000Z</time>
      </trkpt>
      <trkpt lat="47.45122" lon="6.90678">
        <ele>537</ele>
        <time>2015-04-06T09:15:32.000Z</time>
      </trkpt>
      <trkpt lat="47.45119" lon="6.90676">
        <ele>537</ele>
        <time>2015-04-06T09:15:35.000Z</time>
      </trkpt>
      <trkpt lat="47.45118" lon="6.90675">
        <ele>537</ele>
        <time>2015-04-06T09:15:36.000Z</time>
      </trkpt>
      <trkpt lat="47.45114" lon="6.90675">
        <ele>537</ele>
        <time>2015-04-06T09:15:38.000Z</time>
      </trkpt>
      <trkpt lat="47.45113" lon="6.90676">
        <ele>537</ele>
        <time>2015-04-06T09:15:39.000Z</time>
      </trkpt>
      <trkpt lat="47.4511" lon="6.90678">
        <ele>537</ele>
        <time>2015-04-06T09:15:41.000Z</time>
      </trkpt>
      <trkpt lat="47.45109" lon="6.90679">
        <ele>537</ele>
        <time>2015-04-06T09:15:42.000Z</time>
      </trkpt>
      <trkpt lat="47.45106" lon="6.90682">
        <ele>537</ele>
        <time>2015-04-06T09:15:44.000Z</time>
      </trkpt>
      <trkpt lat="47.45104" lon="6.90683">
        <ele>537</ele>
        <time>2015-04-06T09:15:45.000Z</time>
      </trkpt>
      <trkpt lat="47.45103" lon="6.90684">
        <ele>537</ele>
        <time>2015-04-06T09:15:46.000Z</time>
      </trkpt>
      <trkpt lat="47.451" lon="6.90685">
        <ele>537</ele>
        <time>2015-04-06T09:15:47.000Z</time>
      </trkpt>
      <trkpt lat="47.45097" lon="6.90686">
        <ele>537</ele>
        <time>2015-04-06T09:15:48.000Z</time>
      </trkpt>
      <trkpt lat="47.45094" lon="6.90686">
        <ele>537</ele>
        <time>2015-04-06T09:15:49.000Z</time>
      </trkpt>
      <trkpt lat="47.45092" lon="6.90686">
        <ele>537</ele>
        <time>2015-04-06T09:15:50.000Z</time>
      </trkpt>
      <trkpt lat="47.45089" lon="6.90686">
        <ele>537</ele>
        <time>2015-04-06T09:15:51.000Z</time>
      </trkpt>
      <trkpt lat="47.45087" lon="6.90686">
        <ele>537</ele>
        <time>2015-04-06T09:15:52.000Z</time>
      </trkpt>
      <trkpt lat="47.45084" lon="6.90687">
        <ele>537</ele>
        <time>2015-04-06T09:15:53.000Z</time>
      </trkpt>
      <trkpt lat="47.45082" lon="6.90688">
        <ele>538</ele>
        <time>2015-04-06T09:15:54.000Z</time>
      </trkpt>
      <trkpt lat="47.45079" lon="6.90689">
        <ele>538</ele>
        <time>2015-04-06T09:15:55.000Z</time>
      </trkpt>
      <trkpt lat="47.45077" lon="6.90691">
        <ele>539</ele>
        <time>2015-04-06T09:15:56.000Z</time>
      </trkpt>
      <trkpt lat="47.45075" lon="6.90692">
        <ele>539</ele>
        <time>2015-04-06T09:15:57.000Z</time>
      </trkpt>
      <trkpt lat="47.45072" lon="6.90694">
        <ele>539</ele>
        <time>2015-04-06T09:15:58.000Z</time>
      </trkpt>
      <trkpt lat="47.4507" lon="6.90695">
        <ele>539</ele>
        <time>2015-04-06T09:15:59.000Z</time>
      </trkpt>
      <trkpt lat="47.45067" lon="6.90698">
        <ele>539</ele>
        <time>2015-04-06T09:16:01.000Z</time>
      </trkpt>
      <trkpt lat="47.45066" lon="6.90699">
        <ele>539</ele>
        <time>2015-04-06T09:16:02.000Z</time>
      </trkpt>
      <trkpt lat="47.45061" lon="6.90698">
        <ele>539</ele>
        <time>2015-04-06T09:16:07.000Z</time>
      </trkpt>
      <trkpt lat="47.4506" lon="6.90698">
        <ele>539</ele>
        <time>2015-04-06T09:16:08.000Z</time>
      </trkpt>
      <trkpt lat="47.45056" lon="6.90697">
        <ele>539</ele>
        <time>2015-04-06T09:16:11.000Z</time>
      </trkpt>
      <trkpt lat="47.45053" lon="6.90697">
        <ele>540</ele>
        <time>2015-04-06T09:16:12.000Z</time>
      </trkpt>
      <trkpt lat="47.45051" lon="6.90696">
        <ele>540</ele>
        <time>2015-04-06T09:16:13.000Z</time>
      </trkpt>
      <trkpt lat="47.45048" lon="6.90695">
        <ele>540</ele>
        <time>2015-04-06T09:16:14.000Z</time>
      </trkpt>
      <trkpt lat="47.45043" lon="6.90695">
        <ele>540</ele>
        <time>2015-04-06T09:16:16.000Z</time>
      </trkpt>
      <trkpt lat="47.45041" lon="6.90695">
        <ele>540</ele>
        <time>2015-04-06T09:16:17.000Z</time>
      </trkpt>
      <trkpt lat="47.45037" lon="6.90694">
        <ele>540</ele>
        <time>2015-04-06T09:16:19.000Z</time>
      </trkpt>
      <trkpt lat="47.45035" lon="6.90694">
        <ele>540</ele>
        <time>2015-04-06T09:16:20.000Z</time>
      </trkpt>
      <trkpt lat="47.45031" lon="6.90693">
        <ele>540</ele>
        <time>2015-04-06T09:16:23.000Z</time>
      </trkpt>
      <trkpt lat="47.4503" lon="6.90693">
        <ele>540</ele>
        <time>2015-04-06T09:16:24.000Z</time>
      </trkpt>
      <trkpt lat="47.45026" lon="6.90693">
        <ele>540</ele>
        <time>2015-04-06T09:16:28.000Z</time>
      </trkpt>
      <trkpt lat="47.45025" lon="6.90694">
        <ele>540</ele>
        <time>2015-04-06T09:16:29.000Z</time>
      </trkpt>
      <trkpt lat="47.45021" lon="6.90693">
        <ele>540</ele>
        <time>2015-04-06T09:16:32.000Z</time>
      </trkpt>
      <trkpt lat="47.45019" lon="6.90692">
        <ele>540</ele>
        <time>2015-04-06T09:16:33.000Z</time>
      </trkpt>
      <trkpt lat="47.45016" lon="6.90691">
        <ele>540</ele>
        <time>2015-04-06T09:16:34.000Z</time>
      </trkpt>
      <trkpt lat="47.45014" lon="6.9069">
        <ele>540</ele>
        <time>2015-04-06T09:16:35.000Z</time>
      </trkpt>
      <trkpt lat="47.4501" lon="6.90689">
        <ele>540</ele>
        <time>2015-04-06T09:16:37.000Z</time>
      </trkpt>
      <trkpt lat="47.45009" lon="6.90689">
        <ele>540</ele>
        <time>2015-04-06T09:16:38.000Z</time>
      </trkpt>
      <trkpt lat="47.45006" lon="6.90688">
        <ele>540</ele>
        <time>2015-04-06T09:16:40.000Z</time>
      </trkpt>
      <trkpt lat="47.45004" lon="6.90688">
        <ele>540</ele>
        <time>2015-04-06T09:16:41.000Z</time>
      </trkpt>
      <trkpt lat="47.45002" lon="6.90688">
        <ele>540</ele>
        <time>2015-04-06T09:16:42.000Z</time>
      </trkpt>
      <trkpt lat="47.44999" lon="6.90688">
        <ele>544</ele>
        <time>2015-04-06T09:16:43.000Z</time>
      </trkpt>
      <trkpt lat="47.44997" lon="6.90688">
        <ele>544</ele>
        <time>2015-04-06T09:16:44.000Z</time>
      </trkpt>
      <trkpt lat="47.44994" lon="6.90688">
        <ele>544</ele>
        <time>2015-04-06T09:16:45.000Z</time>
      </trkpt>
      <trkpt lat="47.44992" lon="6.90689">
        <ele>544</ele>
        <time>2015-04-06T09:16:46.000Z</time>
      </trkpt>
      <trkpt lat="47.44989" lon="6.90689">
        <ele>544</ele>
        <time>2015-04-06T09:16:47.000Z</time>
      </trkpt>
      <trkpt lat="47.44985" lon="6.90689">
        <ele>545</ele>
        <time>2015-04-06T09:16:49.000Z</time>
      </trkpt>
      <trkpt lat="47.44983" lon="6.90689">
        <ele>545</ele>
        <time>2015-04-06T09:16:50.000Z</time>
      </trkpt>
      <trkpt lat="47.44979" lon="6.90689">
        <ele>545</ele>
        <time>2015-04-06T09:16:52.000Z</time>
      </trkpt>
      <trkpt lat="47.44977" lon="6.90689">
        <ele>545</ele>
        <time>2015-04-06T09:16:53.000Z</time>
      </trkpt>
      <trkpt lat="47.44973" lon="6.90689">
        <ele>546</ele>
        <time>2015-04-06T09:16:55.000Z</time>
      </trkpt>
      <trkpt lat="47.44972" lon="6.90689">
        <ele>546</ele>
        <time>2015-04-06T09:16:56.000Z</time>
      </trkpt>
      <trkpt lat="47.44968" lon="6.90688">
        <ele>546</ele>
        <time>2015-04-06T09:17:00.000Z</time>
      </trkpt>
      <trkpt lat="47.44967" lon="6.90688">
        <ele>546</ele>
        <time>2015-04-06T09:17:01.000Z</time>
      </trkpt>
      <trkpt lat="47.44963" lon="6.90687">
        <ele>546</ele>
        <time>2015-04-06T09:17:05.000Z</time>
      </trkpt>
      <trkpt lat="47.44962" lon="6.90687">
        <ele>546</ele>
        <time>2015-04-06T09:17:06.000Z</time>
      </trkpt>
      <trkpt lat="47.44959" lon="6.90687">
        <ele>547</ele>
        <time>2015-04-06T09:17:08.000Z</time>
      </trkpt>
      <trkpt lat="47.44957" lon="6.90687">
        <ele>547</ele>
        <time>2015-04-06T09:17:09.000Z</time>
      </trkpt>
      <trkpt lat="47.44952" lon="6.90686">
        <ele>547</ele>
        <time>2015-04-06T09:17:11.000Z</time>
      </trkpt>
      <trkpt lat="47.44951" lon="6.90685">
        <ele>547</ele>
        <time>2015-04-06T09:17:12.000Z</time>
      </trkpt>
      <trkpt lat="47.44946" lon="6.90685">
        <ele>547</ele>
        <time>2015-04-06T09:17:15.000Z</time>
      </trkpt>
      <trkpt lat="47.44945" lon="6.90686">
        <ele>547</ele>
        <time>2015-04-06T09:17:16.000Z</time>
      </trkpt>
      <trkpt lat="47.44942" lon="6.90686">
        <ele>548</ele>
        <time>2015-04-06T09:17:18.000Z</time>
      </trkpt>
      <trkpt lat="47.4494" lon="6.90685">
        <ele>548</ele>
        <time>2015-04-06T09:17:19.000Z</time>
      </trkpt>
      <trkpt lat="47.44936" lon="6.90685">
        <ele>548</ele>
        <time>2015-04-06T09:17:21.000Z</time>
      </trkpt>
      <trkpt lat="47.44934" lon="6.90685">
        <ele>548</ele>
        <time>2015-04-06T09:17:22.000Z</time>
      </trkpt>
      <trkpt lat="47.4493" lon="6.90686">
        <ele>548</ele>
        <time>2015-04-06T09:17:25.000Z</time>
      </trkpt>
      <trkpt lat="47.44929" lon="6.90687">
        <ele>548</ele>
        <time>2015-04-06T09:17:26.000Z</time>
      </trkpt>
      <trkpt lat="47.44925" lon="6.90689">
        <ele>548</ele>
        <time>2015-04-06T09:17:28.000Z</time>
      </trkpt>
      <trkpt lat="47.44924" lon="6.9069">
        <ele>548</ele>
        <time>2015-04-06T09:17:29.000Z</time>
      </trkpt>
      <trkpt lat="47.44919" lon="6.90689">
        <ele>548</ele>
        <time>2015-04-06T09:17:35.000Z</time>
      </trkpt>
      <trkpt lat="47.44918" lon="6.90689">
        <ele>548</ele>
        <time>2015-04-06T09:17:36.000Z</time>
      </trkpt>
      <trkpt lat="47.44914" lon="6.90689">
        <ele>553</ele>
        <time>2015-04-06T09:17:38.000Z</time>
      </trkpt>
      <trkpt lat="47.44912" lon="6.90688">
        <ele>553</ele>
        <time>2015-04-06T09:17:39.000Z</time>
      </trkpt>
      <trkpt lat="47.44909" lon="6.90686">
        <ele>553</ele>
        <time>2015-04-06T09:17:41.000Z</time>
      </trkpt>
      <trkpt lat="47.44907" lon="6.90686">
        <ele>553</ele>
        <time>2015-04-06T09:17:42.000Z</time>
      </trkpt>
      <trkpt lat="47.44903" lon="6.90684">
        <ele>553</ele>
        <time>2015-04-06T09:17:44.000Z</time>
      </trkpt>
      <trkpt lat="47.44901" lon="6.90683">
        <ele>554</ele>
        <time>2015-04-06T09:17:45.000Z</time>
      </trkpt>
      <trkpt lat="47.44898" lon="6.90681">
        <ele>554</ele>
        <time>2015-04-06T09:17:47.000Z</time>
      </trkpt>
      <trkpt lat="47.44896" lon="6.9068">
        <ele>554</ele>
        <time>2015-04-06T09:17:48.000Z</time>
      </trkpt>
      <trkpt lat="47.44894" lon="6.90679">
        <ele>554</ele>
        <time>2015-04-06T09:17:49.000Z</time>
      </trkpt>
      <trkpt lat="47.44892" lon="6.90677">
        <ele>554</ele>
        <time>2015-04-06T09:17:50.000Z</time>
      </trkpt>
      <trkpt lat="47.44889" lon="6.90674">
        <ele>554</ele>
        <time>2015-04-06T09:17:52.000Z</time>
      </trkpt>
      <trkpt lat="47.44888" lon="6.90673">
        <ele>555</ele>
        <time>2015-04-06T09:17:53.000Z</time>
      </trkpt>
      <trkpt lat="47.44884" lon="6.90675">
        <ele>555</ele>
        <time>2015-04-06T09:18:01.000Z</time>
      </trkpt>
      <trkpt lat="47.44883" lon="6.90676">
        <ele>555</ele>
        <time>2015-04-06T09:18:02.000Z</time>
      </trkpt>
      <trkpt lat="47.4488" lon="6.90673">
        <ele>555</ele>
        <time>2015-04-06T09:18:05.000Z</time>
      </trkpt>
      <trkpt lat="47.44879" lon="6.90672">
        <ele>556</ele>
        <time>2015-04-06T09:18:06.000Z</time>
      </trkpt>
      <trkpt lat="47.44876" lon="6.90669">
        <ele>556</ele>
        <time>2015-04-06T09:18:08.000Z</time>
      </trkpt>
      <trkpt lat="47.44875" lon="6.90667">
        <ele>556</ele>
        <time>2015-04-06T09:18:09.000Z</time>
      </trkpt>
      <trkpt lat="47.44872" lon="6.90666">
        <ele>550</ele>
        <time>2015-04-06T09:18:11.000Z</time>
      </trkpt>
      <trkpt lat="47.4487" lon="6.90665">
        <ele>550</ele>
        <time>2015-04-06T09:18:12.000Z</time>
      </trkpt>
      <trkpt lat="47.44867" lon="6.90664">
        <ele>551</ele>
        <time>2015-04-06T09:18:14.000Z</time>
      </trkpt>
      <trkpt lat="47.44865" lon="6.90663">
        <ele>551</ele>
        <time>2015-04-06T09:18:15.000Z</time>
      </trkpt>
      <trkpt lat="47.44862" lon="6.90661">
        <ele>551</ele>
        <time>2015-04-06T09:18:17.000Z</time>
      </trkpt>
      <trkpt lat="47.44861" lon="6.9066">
        <ele>551</ele>
        <time>2015-04-06T09:18:18.000Z</time>
      </trkpt>
      <trkpt lat="47.44858" lon="6.90659">
        <ele>552</ele>
        <time>2015-04-06T09:18:20.000Z</time>
      </trkpt>
      <trkpt lat="47.44856" lon="6.9066">
        <ele>552</ele>
        <time>2015-04-06T09:18:21.000Z</time>
      </trkpt>
      <trkpt lat="47.44852" lon="6.90659">
        <ele>553</ele>
        <time>2015-04-06T09:18:24.000Z</time>
      </trkpt>
      <trkpt lat="47.4485" lon="6.90658">
        <ele>553</ele>
        <time>2015-04-06T09:18:25.000Z</time>
      </trkpt>
      <trkpt lat="47.44847" lon="6.90656">
        <ele>553</ele>
        <time>2015-04-06T09:18:27.000Z</time>
      </trkpt>
      <trkpt lat="47.44845" lon="6.90655">
        <ele>553</ele>
        <time>2015-04-06T09:18:28.000Z</time>
      </trkpt>
      <trkpt lat="47.44842" lon="6.90653">
        <ele>554</ele>
        <time>2015-04-06T09:18:31.000Z</time>
      </trkpt>
      <trkpt lat="47.44841" lon="6.90652">
        <ele>553</ele>
        <time>2015-04-06T09:18:32.000Z</time>
      </trkpt>
      <trkpt lat="47.44837" lon="6.90649">
        <ele>553</ele>
        <time>2015-04-06T09:18:38.000Z</time>
      </trkpt>
      <trkpt lat="47.44836" lon="6.90649">
        <ele>553</ele>
        <time>2015-04-06T09:18:39.000Z</time>
      </trkpt>
      <trkpt lat="47.44832" lon="6.90644">
        <ele>560</ele>
        <time>2015-04-06T09:18:43.000Z</time>
      </trkpt>
      <trkpt lat="47.44832" lon="6.90644">
        <ele>560</ele>
        <time>2015-04-06T09:18:44.000Z</time>
      </trkpt>
      <trkpt lat="47.44829" lon="6.90639">
        <ele>560</ele>
        <time>2015-04-06T09:18:52.000Z</time>
      </trkpt>
      <trkpt lat="47.44829" lon="6.90638">
        <ele>560</ele>
        <time>2015-04-06T09:18:53.000Z</time>
      </trkpt>
      <trkpt lat="47.44826" lon="6.90635">
        <ele>560</ele>
        <time>2015-04-06T09:18:59.000Z</time>
      </trkpt>
      <trkpt lat="47.44825" lon="6.90634">
        <ele>560</ele>
        <time>2015-04-06T09:19:00.000Z</time>
      </trkpt>
      <trkpt lat="47.44821" lon="6.90633">
        <ele>560</ele>
        <time>2015-04-06T09:19:04.000Z</time>
      </trkpt>
      <trkpt lat="47.4482" lon="6.90634">
        <ele>560</ele>
        <time>2015-04-06T09:19:05.000Z</time>
      </trkpt>
      <trkpt lat="47.44816" lon="6.90635">
        <ele>561</ele>
        <time>2015-04-06T09:19:09.000Z</time>
      </trkpt>
      <trkpt lat="47.44815" lon="6.90634">
        <ele>561</ele>
        <time>2015-04-06T09:19:10.000Z</time>
      </trkpt>
      <trkpt lat="47.44812" lon="6.90632">
        <ele>561</ele>
        <time>2015-04-06T09:19:12.000Z</time>
      </trkpt>
      <trkpt lat="47.4481" lon="6.9063">
        <ele>561</ele>
        <time>2015-04-06T09:19:13.000Z</time>
      </trkpt>
      <trkpt lat="47.44808" lon="6.90627">
        <ele>561</ele>
        <time>2015-04-06T09:19:16.000Z</time>
      </trkpt>
      <trkpt lat="47.44807" lon="6.90626">
        <ele>561</ele>
        <time>2015-04-06T09:19:17.000Z</time>
      </trkpt>
      <trkpt lat="47.44802" lon="6.90626">
        <ele>561</ele>
        <time>2015-04-06T09:19:20.000Z</time>
      </trkpt>
      <trkpt lat="47.44801" lon="6.90626">
        <ele>561</ele>
        <time>2015-04-06T09:19:21.000Z</time>
      </trkpt>
      <trkpt lat="47.44797" lon="6.90625">
        <ele>562</ele>
        <time>2015-04-06T09:19:24.000Z</time>
      </trkpt>
      <trkpt lat="47.44796" lon="6.90623">
        <ele>562</ele>
        <time>2015-04-06T09:19:25.000Z</time>
      </trkpt>
      <trkpt lat="47.44793" lon="6.9062">
        <ele>562</ele>
        <time>2015-04-06T09:19:31.000Z</time>
      </trkpt>
      <trkpt lat="47.44792" lon="6.9062">
        <ele>562</ele>
        <time>2015-04-06T09:19:32.000Z</time>
      </trkpt>
      <trkpt lat="47.44789" lon="6.90619">
        <ele>562</ele>
        <time>2015-04-06T09:19:37.000Z</time>
      </trkpt>
      <trkpt lat="47.44787" lon="6.90619">
        <ele>562</ele>
        <time>2015-04-06T09:19:38.000Z</time>
      </trkpt>
      <trkpt lat="47.44783" lon="6.90616">
        <ele>562</ele>
        <time>2015-04-06T09:19:41.000Z</time>
      </trkpt>
      <trkpt lat="47.44782" lon="6.90614">
        <ele>562</ele>
        <time>2015-04-06T09:19:42.000Z</time>
      </trkpt>
      <trkpt lat="47.44779" lon="6.90612">
        <ele>563</ele>
        <time>2015-04-06T09:19:45.000Z</time>
      </trkpt>
      <trkpt lat="47.44778" lon="6.9061">
        <ele>563</ele>
        <time>2015-04-06T09:19:46.000Z</time>
      </trkpt>
      <trkpt lat="47.44776" lon="6.90605">
        <ele>563</ele>
        <time>2015-04-06T09:19:51.000Z</time>
      </trkpt>
      <trkpt lat="47.44775" lon="6.90604">
        <ele>563</ele>
        <time>2015-04-06T09:19:52.000Z</time>
      </trkpt>
      <trkpt lat="47.44772" lon="6.90601">
        <ele>563</ele>
        <time>2015-04-06T09:19:55.000Z</time>
      </trkpt>
      <trkpt lat="47.44771" lon="6.90599">
        <ele>563</ele>
        <time>2015-04-06T09:19:56.000Z</time>
      </trkpt>
      <trkpt lat="47.44767" lon="6.90596">
        <ele>563</ele>
        <time>2015-04-06T09:19:59.000Z</time>
      </trkpt>
      <trkpt lat="47.44765" lon="6.90595">
        <ele>563</ele>
        <time>2015-04-06T09:20:00.000Z</time>
      </trkpt>
      <trkpt lat="47.44762" lon="6.90594">
        <ele>564</ele>
        <time>2015-04-06T09:20:02.000Z</time>
      </trkpt>
      <trkpt lat="47.4476" lon="6.90593">
        <ele>564</ele>
        <time>2015-04-06T09:20:03.000Z</time>
      </trkpt>
      <trkpt lat="47.44757" lon="6.90592">
        <ele>564</ele>
        <time>2015-04-06T09:20:05.000Z</time>
      </trkpt>
      <trkpt lat="47.44755" lon="6.90592">
        <ele>564</ele>
        <time>2015-04-06T09:20:06.000Z</time>
      </trkpt>
      <trkpt lat="47.44751" lon="6.90591">
        <ele>564</ele>
        <time>2015-04-06T09:20:09.000Z</time>
      </trkpt>
      <trkpt lat="47.4475" lon="6.90591">
        <ele>566</ele>
        <time>2015-04-06T09:20:10.000Z</time>
      </trkpt>
      <trkpt lat="47.44746" lon="6.90588">
        <ele>566</ele>
        <time>2015-04-06T09:20:15.000Z</time>
      </trkpt>
      <trkpt lat="47.44745" lon="6.90587">
        <ele>566</ele>
        <time>2015-04-06T09:20:16.000Z</time>
      </trkpt>
      <trkpt lat="47.44741" lon="6.90584">
        <ele>566</ele>
        <time>2015-04-06T09:20:22.000Z</time>
      </trkpt>
      <trkpt lat="47.44741" lon="6.90584">
        <ele>567</ele>
        <time>2015-04-06T09:20:23.000Z</time>
      </trkpt>
      <trkpt lat="47.4474" lon="6.90577">
        <ele>566</ele>
        <time>2015-04-06T09:20:28.000Z</time>
      </trkpt>
      <trkpt lat="47.44739" lon="6.90576">
        <ele>566</ele>
        <time>2015-04-06T09:20:29.000Z</time>
      </trkpt>
      <trkpt lat="47.44735" lon="6.90573">
        <ele>566</ele>
        <time>2015-04-06T09:20:35.000Z</time>
      </trkpt>
      <trkpt lat="47.44734" lon="6.90573">
        <ele>567</ele>
        <time>2015-04-06T09:20:36.000Z</time>
      </trkpt>
      <trkpt lat="47.44731" lon="6.90573">
        <ele>567</ele>
        <time>2015-04-06T09:20:39.000Z</time>
      </trkpt>
      <trkpt lat="47.4473" lon="6.90572">
        <ele>567</ele>
        <time>2015-04-06T09:20:40.000Z</time>
      </trkpt>
      <trkpt lat="47.44727" lon="6.90568">
        <ele>567</ele>
        <time>2015-04-06T09:20:44.000Z</time>
      </trkpt>
      <trkpt lat="47.44726" lon="6.90568">
        <ele>567</ele>
        <time>2015-04-06T09:20:45.000Z</time>
      </trkpt>
      <trkpt lat="47.44721" lon="6.90569">
        <ele>567</ele>
        <time>2015-04-06T09:20:56.000Z</time>
      </trkpt>
      <trkpt lat="47.44721" lon="6.90568">
        <ele>567</ele>
        <time>2015-04-06T09:20:57.000Z</time>
      </trkpt>
      <trkpt lat="47.44717" lon="6.90565">
        <ele>567</ele>
        <time>2015-04-06T09:21:12.000Z</time>
      </trkpt>
      <trkpt lat="47.44716" lon="6.90564">
        <ele>568</ele>
        <time>2015-04-06T09:21:13.000Z</time>
      </trkpt>
      <trkpt lat="47.44712" lon="6.90563">
        <ele>568</ele>
        <time>2015-04-06T09:21:17.000Z</time>
      </trkpt>
      <trkpt lat="47.44712" lon="6.90563">
        <ele>568</ele>
        <time>2015-04-06T09:21:18.000Z</time>
      </trkpt>
      <trkpt lat="47.4471" lon="6.9056">
        <ele>568</ele>
        <time>2015-04-06T09:21:20.000Z</time>
      </trkpt>
      <trkpt lat="47.44708" lon="6.90558">
        <ele>568</ele>
        <time>2015-04-06T09:21:21.000Z</time>
      </trkpt>
      <trkpt lat="47.44705" lon="6.90555">
        <ele>568</ele>
        <time>2015-04-06T09:21:23.000Z</time>
      </trkpt>
      <trkpt lat="47.44704" lon="6.90553">
        <ele>568</ele>
        <time>2015-04-06T09:21:24.000Z</time>
      </trkpt>
      <trkpt lat="47.447" lon="6.90551">
        <ele>568</ele>
        <time>2015-04-06T09:21:26.000Z</time>
      </trkpt>
      <trkpt lat="47.44698" lon="6.90549">
        <ele>568</ele>
        <time>2015-04-06T09:21:27.000Z</time>
      </trkpt>
      <trkpt lat="47.44696" lon="6.90545">
        <ele>569</ele>
        <time>2015-04-06T09:21:30.001Z</time>
      </trkpt>
      <trkpt lat="47.44695" lon="6.90542">
        <ele>569</ele>
        <time>2015-04-06T09:21:31.000Z</time>
      </trkpt>
      <trkpt lat="47.44693" lon="6.90536">
        <ele>569</ele>
        <time>2015-04-06T09:21:36.000Z</time>
      </trkpt>
      <trkpt lat="47.44693" lon="6.90536">
        <ele>569</ele>
        <time>2015-04-06T09:21:37.000Z</time>
      </trkpt>
      <trkpt lat="47.44689" lon="6.90535">
        <ele>569</ele>
        <time>2015-04-06T09:21:43.000Z</time>
      </trkpt>
      <trkpt lat="47.44688" lon="6.90535">
        <ele>569</ele>
        <time>2015-04-06T09:21:44.000Z</time>
      </trkpt>
      <trkpt lat="47.44684" lon="6.90535">
        <ele>569</ele>
        <time>2015-04-06T09:21:47.000Z</time>
      </trkpt>
      <trkpt lat="47.44683" lon="6.90534">
        <ele>569</ele>
        <time>2015-04-06T09:21:48.000Z</time>
      </trkpt>
      <trkpt lat="47.4468" lon="6.90532">
        <ele>570</ele>
        <time>2015-04-06T09:21:51.000Z</time>
      </trkpt>
      <trkpt lat="47.44679" lon="6.9053">
        <ele>570</ele>
        <time>2015-04-06T09:21:52.000Z</time>
      </trkpt>
      <trkpt lat="47.44675" lon="6.90526">
        <ele>570</ele>
        <time>2015-04-06T09:21:56.000Z</time>
      </trkpt>
      <trkpt lat="47.44673" lon="6.90526">
        <ele>570</ele>
        <time>2015-04-06T09:21:57.000Z</time>
      </trkpt>
      <trkpt lat="47.4467" lon="6.90525">
        <ele>570</ele>
        <time>2015-04-06T09:21:59.000Z</time>
      </trkpt>
      <trkpt lat="47.44669" lon="6.90525">
        <ele>570</ele>
        <time>2015-04-06T09:22:00.000Z</time>
      </trkpt>
      <trkpt lat="47.44665" lon="6.90522">
        <ele>573</ele>
        <time>2015-04-06T09:22:05.000Z</time>
      </trkpt>
      <trkpt lat="47.44664" lon="6.90522">
        <ele>573</ele>
        <time>2015-04-06T09:22:06.000Z</time>
      </trkpt>
      <trkpt lat="47.4466" lon="6.90522">
        <ele>573</ele>
        <time>2015-04-06T09:22:10.000Z</time>
      </trkpt>
      <trkpt lat="47.44659" lon="6.90522">
        <ele>573</ele>
        <time>2015-04-06T09:22:11.000Z</time>
      </trkpt>
      <trkpt lat="47.44655" lon="6.9052">
        <ele>573</ele>
        <time>2015-04-06T09:22:14.000Z</time>
      </trkpt>
      <trkpt lat="47.44653" lon="6.9052">
        <ele>573</ele>
        <time>2015-04-06T09:22:15.000Z</time>
      </trkpt>
      <trkpt lat="47.4465" lon="6.9052">
        <ele>573</ele>
        <time>2015-04-06T09:22:17.000Z</time>
      </trkpt>
      <trkpt lat="47.44648" lon="6.90519">
        <ele>573</ele>
        <time>2015-04-06T09:22:18.000Z</time>
      </trkpt>
      <trkpt lat="47.44644" lon="6.90518">
        <ele>573</ele>
        <time>2015-04-06T09:22:20.000Z</time>
      </trkpt>
      <trkpt lat="47.44642" lon="6.90517">
        <ele>573</ele>
        <time>2015-04-06T09:22:21.000Z</time>
      </trkpt>
      <trkpt lat="47.44639" lon="6.90515">
        <ele>573</ele>
        <time>2015-04-06T09:22:23.000Z</time>
      </trkpt>
      <trkpt lat="47.44637" lon="6.90515">
        <ele>573</ele>
        <time>2015-04-06T09:22:24.000Z</time>
      </trkpt>
      <trkpt lat="47.44633" lon="6.90513">
        <ele>573</ele>
        <time>2015-04-06T09:22:28.000Z</time>
      </trkpt>
      <trkpt lat="47.44632" lon="6.90512">
        <ele>573</ele>
        <time>2015-04-06T09:22:29.000Z</time>
      </trkpt>
      <trkpt lat="47.44629" lon="6.90511">
        <ele>573</ele>
        <time>2015-04-06T09:22:31.000Z</time>
      </trkpt>
      <trkpt lat="47.44627" lon="6.90511">
        <ele>573</ele>
        <time>2015-04-06T09:22:32.000Z</time>
      </trkpt>
      <trkpt lat="47.44624" lon="6.9051">
        <ele>573</ele>
        <time>2015-04-06T09:22:33.000Z</time>
      </trkpt>
      <trkpt lat="47.44621" lon="6.9051">
        <ele>573</ele>
        <time>2015-04-06T09:22:34.000Z</time>
      </trkpt>
      <trkpt lat="47.44618" lon="6.90509">
        <ele>573</ele>
        <time>2015-04-06T09:22:36.000Z</time>
      </trkpt>
      <trkpt lat="47.44616" lon="6.9051">
        <ele>573</ele>
        <time>2015-04-06T09:22:37.000Z</time>
      </trkpt>
      <trkpt lat="47.44613" lon="6.90509">
        <ele>573</ele>
        <time>2015-04-06T09:22:39.000Z</time>
      </trkpt>
      <trkpt lat="47.44611" lon="6.90508">
        <ele>573</ele>
        <time>2015-04-06T09:22:40.000Z</time>
      </trkpt>
      <trkpt lat="47.44608" lon="6.90507">
        <ele>573</ele>
        <time>2015-04-06T09:22:41.000Z</time>
      </trkpt>
      <trkpt lat="47.44605" lon="6.90505">
        <ele>573</ele>
        <time>2015-04-06T09:22:42.000Z</time>
      </trkpt>
      <trkpt lat="47.44602" lon="6.90503">
        <ele>573</ele>
        <time>2015-04-06T09:22:43.000Z</time>
      </trkpt>
      <trkpt lat="47.44598" lon="6.90501">
        <ele>574</ele>
        <time>2015-04-06T09:22:44.000Z</time>
      </trkpt>
      <trkpt lat="47.44594" lon="6.905">
        <ele>574</ele>
        <time>2015-04-06T09:22:45.000Z</time>
      </trkpt>
      <trkpt lat="47.4459" lon="6.90499">
        <ele>575</ele>
        <time>2015-04-06T09:22:46.000Z</time>
      </trkpt>
      <trkpt lat="47.44586" lon="6.90497">
        <ele>575</ele>
        <time>2015-04-06T09:22:47.000Z</time>
      </trkpt>
      <trkpt lat="47.44581" lon="6.90496">
        <ele>575</ele>
        <time>2015-04-06T09:22:48.000Z</time>
      </trkpt>
      <trkpt lat="47.44578" lon="6.90495">
        <ele>574</ele>
        <time>2015-04-06T09:22:49.000Z</time>
      </trkpt>
      <trkpt lat="47.44575" lon="6.90494">
        <ele>574</ele>
        <time>2015-04-06T09:22:50.000Z</time>
      </trkpt>
      <trkpt lat="47.44573" lon="6.90493">
        <ele>574</ele>
        <time>2015-04-06T09:22:51.000Z</time>
      </trkpt>
      <trkpt lat="47.44569" lon="6.90492">
        <ele>574</ele>
        <time>2015-04-06T09:22:52.000Z</time>
      </trkpt>
      <trkpt lat="47.44566" lon="6.90491">
        <ele>573</ele>
        <time>2015-04-06T09:22:53.000Z</time>
      </trkpt>
      <trkpt lat="47.44562" lon="6.9049">
        <ele>573</ele>
        <time>2015-04-06T09:22:54.000Z</time>
      </trkpt>
      <trkpt lat="47.44559" lon="6.90489">
        <ele>573</ele>
        <time>2015-04-06T09:22:55.000Z</time>
      </trkpt>
      <trkpt lat="47.44556" lon="6.90489">
        <ele>573</ele>
        <time>2015-04-06T09:22:56.000Z</time>
      </trkpt>
      <trkpt lat="47.44553" lon="6.90489">
        <ele>573</ele>
        <time>2015-04-06T09:22:57.000Z</time>
      </trkpt>
      <trkpt lat="47.44551" lon="6.9049">
        <ele>573</ele>
        <time>2015-04-06T09:22:58.000Z</time>
      </trkpt>
      <trkpt lat="47.44548" lon="6.90489">
        <ele>573</ele>
        <time>2015-04-06T09:23:00.000Z</time>
      </trkpt>
      <trkpt lat="47.44547" lon="6.90487">
        <ele>572</ele>
        <time>2015-04-06T09:23:01.000Z</time>
      </trkpt>
      <trkpt lat="47.44546" lon="6.90484">
        <ele>572</ele>
        <time>2015-04-06T09:23:02.000Z</time>
      </trkpt>
      <trkpt lat="47.44544" lon="6.90482">
        <ele>572</ele>
        <time>2015-04-06T09:23:03.000Z</time>
      </trkpt>
      <trkpt lat="47.44543" lon="6.90479">
        <ele>572</ele>
        <time>2015-04-06T09:23:04.000Z</time>
      </trkpt>
      <trkpt lat="47.44541" lon="6.90475">
        <ele>572</ele>
        <time>2015-04-06T09:23:05.000Z</time>
      </trkpt>
      <trkpt lat="47.44538" lon="6.90471">
        <ele>572</ele>
        <time>2015-04-06T09:23:07.000Z</time>
      </trkpt>
      <trkpt lat="47.44536" lon="6.90469">
        <ele>572</ele>
        <time>2015-04-06T09:23:08.000Z</time>
      </trkpt>
      <trkpt lat="47.44534" lon="6.90467">
        <ele>572</ele>
        <time>2015-04-06T09:23:09.000Z</time>
      </trkpt>
      <trkpt lat="47.44532" lon="6.90465">
        <ele>572</ele>
        <time>2015-04-06T09:23:10.000Z</time>
      </trkpt>
      <trkpt lat="47.44527" lon="6.90464">
        <ele>572</ele>
        <time>2015-04-06T09:23:12.000Z</time>
      </trkpt>
      <trkpt lat="47.44526" lon="6.90464">
        <ele>572</ele>
        <time>2015-04-06T09:23:13.000Z</time>
      </trkpt>
      <trkpt lat="47.44523" lon="6.90463">
        <ele>572</ele>
        <time>2015-04-06T09:23:20.000Z</time>
      </trkpt>
      <trkpt lat="47.44521" lon="6.90463">
        <ele>572</ele>
        <time>2015-04-06T09:23:21.000Z</time>
      </trkpt>
      <trkpt lat="47.44517" lon="6.90464">
        <ele>572</ele>
        <time>2015-04-06T09:23:37.000Z</time>
      </trkpt>
      <trkpt lat="47.44516" lon="6.90465">
        <ele>572</ele>
        <time>2015-04-06T09:23:38.000Z</time>
      </trkpt>
      <trkpt lat="47.44513" lon="6.9047">
        <ele>572</ele>
        <time>2015-04-06T09:23:40.000Z</time>
      </trkpt>
      <trkpt lat="47.44512" lon="6.90473">
        <ele>572</ele>
        <time>2015-04-06T09:23:41.000Z</time>
      </trkpt>
      <trkpt lat="47.4451" lon="6.90476">
        <ele>572</ele>
        <time>2015-04-06T09:23:42.000Z</time>
      </trkpt>
      <trkpt lat="47.44509" lon="6.90479">
        <ele>571</ele>
        <time>2015-04-06T09:23:43.000Z</time>
      </trkpt>
      <trkpt lat="47.44508" lon="6.90482">
        <ele>571</ele>
        <time>2015-04-06T09:23:44.000Z</time>
      </trkpt>
      <trkpt lat="47.44507" lon="6.90486">
        <ele>571</ele>
        <time>2015-04-06T09:23:45.000Z</time>
      </trkpt>
      <trkpt lat="47.44506" lon="6.9049">
        <ele>571</ele>
        <time>2015-04-06T09:23:46.000Z</time>
      </trkpt>
      <trkpt lat="47.44505" lon="6.90494">
        <ele>571</ele>
        <time>2015-04-06T09:23:47.000Z</time>
      </trkpt>
      <trkpt lat="47.44504" lon="6.90497">
        <ele>571</ele>
        <time>2015-04-06T09:23:48.000Z</time>
      </trkpt>
      <trkpt lat="47.44504" lon="6.90501">
        <ele>571</ele>
        <time>2015-04-06T09:23:49.000Z</time>
      </trkpt>
      <trkpt lat="47.44504" lon="6.90505">
        <ele>571</ele>
        <time>2015-04-06T09:23:50.000Z</time>
      </trkpt>
      <trkpt lat="47.44503" lon="6.90509">
        <ele>571</ele>
        <time>2015-04-06T09:23:51.000Z</time>
      </trkpt>
      <trkpt lat="47.44502" lon="6.90513">
        <ele>570</ele>
        <time>2015-04-06T09:23:52.000Z</time>
      </trkpt>
      <trkpt lat="47.44501" lon="6.90518">
        <ele>570</ele>
        <time>2015-04-06T09:23:53.000Z</time>
      </trkpt>
      <trkpt lat="47.445" lon="6.90522">
        <ele>570</ele>
        <time>2015-04-06T09:23:54.000Z</time>
      </trkpt>
      <trkpt lat="47.44499" lon="6.90525">
        <ele>567</ele>
        <time>2015-04-06T09:23:55.000Z</time>
      </trkpt>
      <trkpt lat="47.44498" lon="6.90528">
        <ele>567</ele>
        <time>2015-04-06T09:23:56.000Z</time>
      </trkpt>
      <trkpt lat="47.44497" lon="6.90531">
        <ele>567</ele>
        <time>2015-04-06T09:23:57.000Z</time>
      </trkpt>
      <trkpt lat="47.44496" lon="6.90535">
        <ele>566</ele>
        <time>2015-04-06T09:23:59.000Z</time>
      </trkpt>
      <trkpt lat="47.44495" lon="6.90537">
        <ele>566</ele>
        <time>2015-04-06T09:24:00.000Z</time>
      </trkpt>
      <trkpt lat="47.44493" lon="6.90543">
        <ele>566</ele>
        <time>2015-04-06T09:24:03.000Z</time>
      </trkpt>
      <trkpt lat="47.44492" lon="6.90545">
        <ele>566</ele>
        <time>2015-04-06T09:24:04.000Z</time>
      </trkpt>
      <trkpt lat="47.44491" lon="6.90549">
        <ele>566</ele>
        <time>2015-04-06T09:24:06.000Z</time>
      </trkpt>
      <trkpt lat="47.4449" lon="6.90551">
        <ele>565</ele>
        <time>2015-04-06T09:24:07.000Z</time>
      </trkpt>
      <trkpt lat="47.44489" lon="6.90555">
        <ele>565</ele>
        <time>2015-04-06T09:24:09.000Z</time>
      </trkpt>
      <trkpt lat="47.44489" lon="6.90557">
        <ele>565</ele>
        <time>2015-04-06T09:24:10.000Z</time>
      </trkpt>
      <trkpt lat="47.44486" lon="6.90563">
        <ele>565</ele>
        <time>2015-04-06T09:24:13.000Z</time>
      </trkpt>
      <trkpt lat="47.44485" lon="6.90565">
        <ele>565</ele>
        <time>2015-04-06T09:24:14.000Z</time>
      </trkpt>
      <trkpt lat="47.44483" lon="6.90569">
        <ele>565</ele>
        <time>2015-04-06T09:24:16.000Z</time>
      </trkpt>
      <trkpt lat="47.44482" lon="6.90571">
        <ele>565</ele>
        <time>2015-04-06T09:24:17.000Z</time>
      </trkpt>
      <trkpt lat="47.44481" lon="6.90576">
        <ele>565</ele>
        <time>2015-04-06T09:24:19.000Z</time>
      </trkpt>
      <trkpt lat="47.4448" lon="6.90578">
        <ele>565</ele>
        <time>2015-04-06T09:24:20.000Z</time>
      </trkpt>
      <trkpt lat="47.44479" lon="6.90583">
        <ele>565</ele>
        <time>2015-04-06T09:24:22.000Z</time>
      </trkpt>
      <trkpt lat="47.44478" lon="6.90586">
        <ele>565</ele>
        <time>2015-04-06T09:24:23.000Z</time>
      </trkpt>
      <trkpt lat="47.44478" lon="6.90592">
        <ele>565</ele>
        <time>2015-04-06T09:24:25.000Z</time>
      </trkpt>
      <trkpt lat="47.44478" lon="6.90595">
        <ele>565</ele>
        <time>2015-04-06T09:24:26.000Z</time>
      </trkpt>
      <trkpt lat="47.44478" lon="6.90599">
        <ele>565</ele>
        <time>2015-04-06T09:24:28.000Z</time>
      </trkpt>
      <trkpt lat="47.44478" lon="6.90602">
        <ele>565</ele>
        <time>2015-04-06T09:24:29.000Z</time>
      </trkpt>
      <trkpt lat="47.44479" lon="6.90608">
        <ele>565</ele>
        <time>2015-04-06T09:24:31.000Z</time>
      </trkpt>
      <trkpt lat="47.44479" lon="6.90611">
        <ele>565</ele>
        <time>2015-04-06T09:24:32.000Z</time>
      </trkpt>
      <trkpt lat="47.44479" lon="6.90616">
        <ele>565</ele>
        <time>2015-04-06T09:24:34.000Z</time>
      </trkpt>
      <trkpt lat="47.44479" lon="6.90619">
        <ele>565</ele>
        <time>2015-04-06T09:24:35.000Z</time>
      </trkpt>
      <trkpt lat="47.44479" lon="6.90626">
        <ele>565</ele>
        <time>2015-04-06T09:24:37.000Z</time>
      </trkpt>
      <trkpt lat="47.4448" lon="6.90629">
        <ele>565</ele>
        <time>2015-04-06T09:24:38.000Z</time>
      </trkpt>
      <trkpt lat="47.4448" lon="6.90635">
        <ele>566</ele>
        <time>2015-04-06T09:24:40.000Z</time>
      </trkpt>
      <trkpt lat="47.4448" lon="6.90637">
        <ele>566</ele>
        <time>2015-04-06T09:24:41.000Z</time>
      </trkpt>
      <trkpt lat="47.4448" lon="6.90642">
        <ele>566</ele>
        <time>2015-04-06T09:24:43.000Z</time>
      </trkpt>
      <trkpt lat="47.4448" lon="6.90645">
        <ele>566</ele>
        <time>2015-04-06T09:24:44.000Z</time>
      </trkpt>
      <trkpt lat="47.44481" lon="6.9065">
        <ele>566</ele>
        <time>2015-04-06T09:24:46.000Z</time>
      </trkpt>
      <trkpt lat="47.44481" lon="6.90653">
        <ele>566</ele>
        <time>2015-04-06T09:24:47.000Z</time>
      </trkpt>
      <trkpt lat="47.44482" lon="6.90657">
        <ele>566</ele>
        <time>2015-04-06T09:24:49.000Z</time>
      </trkpt>
      <trkpt lat="47.44482" lon="6.90659">
        <ele>566</ele>
        <time>2015-04-06T09:24:50.000Z</time>
      </trkpt>
      <trkpt lat="47.44484" lon="6.90666">
        <ele>566</ele>
        <time>2015-04-06T09:24:53.000Z</time>
      </trkpt>
      <trkpt lat="47.44484" lon="6.90668">
        <ele>568</ele>
        <time>2015-04-06T09:24:54.000Z</time>
      </trkpt>
      <trkpt lat="47.44485" lon="6.90672">
        <ele>568</ele>
        <time>2015-04-06T09:24:56.000Z</time>
      </trkpt>
      <trkpt lat="47.44486" lon="6.90675">
        <ele>568</ele>
        <time>2015-04-06T09:24:57.000Z</time>
      </trkpt>
      <trkpt lat="47.44486" lon="6.90679">
        <ele>569</ele>
        <time>2015-04-06T09:24:59.000Z</time>
      </trkpt>
      <trkpt lat="47.44486" lon="6.90682">
        <ele>569</ele>
        <time>2015-04-06T09:25:00.000Z</time>
      </trkpt>
      <trkpt lat="47.44487" lon="6.90687">
        <ele>569</ele>
        <time>2015-04-06T09:25:02.000Z</time>
      </trkpt>
      <trkpt lat="47.44487" lon="6.90689">
        <ele>569</ele>
        <time>2015-04-06T09:25:03.000Z</time>
      </trkpt>
      <trkpt lat="47.44488" lon="6.90695">
        <ele>570</ele>
        <time>2015-04-06T09:25:05.000Z</time>
      </trkpt>
      <trkpt lat="47.44489" lon="6.90698">
        <ele>570</ele>
        <time>2015-04-06T09:25:06.000Z</time>
      </trkpt>
      <trkpt lat="47.4449" lon="6.90703">
        <ele>570</ele>
        <time>2015-04-06T09:25:08.000Z</time>
      </trkpt>
      <trkpt lat="47.44491" lon="6.90706">
        <ele>570</ele>
        <time>2015-04-06T09:25:09.000Z</time>
      </trkpt>
      <trkpt lat="47.44491" lon="6.90712">
        <ele>571</ele>
        <time>2015-04-06T09:25:11.000Z</time>
      </trkpt>
      <trkpt lat="47.44492" lon="6.90714">
        <ele>571</ele>
        <time>2015-04-06T09:25:12.000Z</time>
      </trkpt>
      <trkpt lat="47.44492" lon="6.90719">
        <ele>571</ele>
        <time>2015-04-06T09:25:14.000Z</time>
      </trkpt>
      <trkpt lat="47.44493" lon="6.90721">
        <ele>571</ele>
        <time>2015-04-06T09:25:15.000Z</time>
      </trkpt>
      <trkpt lat="47.44493" lon="6.90725">
        <ele>571</ele>
        <time>2015-04-06T09:25:17.000Z</time>
      </trkpt>
      <trkpt lat="47.44494" lon="6.90728">
        <ele>572</ele>
        <time>2015-04-06T09:25:18.000Z</time>
      </trkpt>
      <trkpt lat="47.44494" lon="6.90732">
        <ele>572</ele>
        <time>2015-04-06T09:25:20.000Z</time>
      </trkpt>
      <trkpt lat="47.44495" lon="6.90734">
        <ele>572</ele>
        <time>2015-04-06T09:25:21.000Z</time>
      </trkpt>
      <trkpt lat="47.44495" lon="6.9074">
        <ele>573</ele>
        <time>2015-04-06T09:25:23.000Z</time>
      </trkpt>
      <trkpt lat="47.44495" lon="6.90743">
        <ele>573</ele>
        <time>2015-04-06T09:25:24.000Z</time>
      </trkpt>
      <trkpt lat="47.44496" lon="6.90749">
        <ele>573</ele>
        <time>2015-04-06T09:25:26.000Z</time>
      </trkpt>
      <trkpt lat="47.44497" lon="6.90751">
        <ele>574</ele>
        <time>2015-04-06T09:25:27.000Z</time>
      </trkpt>
      <trkpt lat="47.44499" lon="6.90755">
        <ele>574</ele>
        <time>2015-04-06T09:25:30.000Z</time>
      </trkpt>
      <trkpt lat="47.445" lon="6.90757">
        <ele>575</ele>
        <time>2015-04-06T09:25:31.000Z</time>
      </trkpt>
      <trkpt lat="47.44501" lon="6.90762">
        <ele>575</ele>
        <time>2015-04-06T09:25:34.000Z</time>
      </trkpt>
      <trkpt lat="47.44502" lon="6.90764">
        <ele>575</ele>
        <time>2015-04-06T09:25:35.000Z</time>
      </trkpt>
      <trkpt lat="47.44503" lon="6.9077">
        <ele>576</ele>
        <time>2015-04-06T09:25:38.000Z</time>
      </trkpt>
      <trkpt lat="47.44504" lon="6.90772">
        <ele>576</ele>
        <time>2015-04-06T09:25:39.000Z</time>
      </trkpt>
      <trkpt lat="47.44505" lon="6.90776">
        <ele>576</ele>
        <time>2015-04-06T09:25:41.000Z</time>
      </trkpt>
      <trkpt lat="47.44506" lon="6.90778">
        <ele>576</ele>
        <time>2015-04-06T09:25:42.000Z</time>
      </trkpt>
      <trkpt lat="47.44508" lon="6.90781">
        <ele>577</ele>
        <time>2015-04-06T09:25:44.000Z</time>
      </trkpt>
      <trkpt lat="47.44509" lon="6.90783">
        <ele>577</ele>
        <time>2015-04-06T09:25:45.000Z</time>
      </trkpt>
      <trkpt lat="47.44512" lon="6.90787">
        <ele>577</ele>
        <time>2015-04-06T09:25:47.000Z</time>
      </trkpt>
      <trkpt lat="47.44512" lon="6.9079">
        <ele>577</ele>
        <time>2015-04-06T09:25:48.000Z</time>
      </trkpt>
      <trkpt lat="47.44514" lon="6.90794">
        <ele>577</ele>
        <time>2015-04-06T09:25:50.000Z</time>
      </trkpt>
      <trkpt lat="47.44515" lon="6.90795">
        <ele>577</ele>
        <time>2015-04-06T09:25:51.000Z</time>
      </trkpt>
      <trkpt lat="47.44517" lon="6.908">
        <ele>578</ele>
        <time>2015-04-06T09:25:53.000Z</time>
      </trkpt>
      <trkpt lat="47.44518" lon="6.90802">
        <ele>578</ele>
        <time>2015-04-06T09:25:54.000Z</time>
      </trkpt>
      <trkpt lat="47.44519" lon="6.90808">
        <ele>578</ele>
        <time>2015-04-06T09:25:57.000Z</time>
      </trkpt>
      <trkpt lat="47.4452" lon="6.9081">
        <ele>578</ele>
        <time>2015-04-06T09:25:58.000Z</time>
      </trkpt>
      <trkpt lat="47.4452" lon="6.90815">
        <ele>578</ele>
        <time>2015-04-06T09:26:00.000Z</time>
      </trkpt>
      <trkpt lat="47.4452" lon="6.90817">
        <ele>578</ele>
        <time>2015-04-06T09:26:01.000Z</time>
      </trkpt>
      <trkpt lat="47.44521" lon="6.90822">
        <ele>578</ele>
        <time>2015-04-06T09:26:03.000Z</time>
      </trkpt>
      <trkpt lat="47.4452" lon="6.90824">
        <ele>579</ele>
        <time>2015-04-06T09:26:04.000Z</time>
      </trkpt>
      <trkpt lat="47.44519" lon="6.90828">
        <ele>579</ele>
        <time>2015-04-06T09:26:06.000Z</time>
      </trkpt>
      <trkpt lat="47.44517" lon="6.9083">
        <ele>579</ele>
        <time>2015-04-06T09:26:07.000Z</time>
      </trkpt>
      <trkpt lat="47.44515" lon="6.90833">
        <ele>579</ele>
        <time>2015-04-06T09:26:08.000Z</time>
      </trkpt>
      <trkpt lat="47.44513" lon="6.90835">
        <ele>581</ele>
        <time>2015-04-06T09:26:09.000Z</time>
      </trkpt>
      <trkpt lat="47.44511" lon="6.90838">
        <ele>581</ele>
        <time>2015-04-06T09:26:10.000Z</time>
      </trkpt>
      <trkpt lat="47.4451" lon="6.90842">
        <ele>581</ele>
        <time>2015-04-06T09:26:11.000Z</time>
      </trkpt>
      <trkpt lat="47.44509" lon="6.90847">
        <ele>581</ele>
        <time>2015-04-06T09:26:12.000Z</time>
      </trkpt>
      <trkpt lat="47.44508" lon="6.90852">
        <ele>581</ele>
        <time>2015-04-06T09:26:13.000Z</time>
      </trkpt>
      <trkpt lat="47.44507" lon="6.90857">
        <ele>581</ele>
        <time>2015-04-06T09:26:14.000Z</time>
      </trkpt>
      <trkpt lat="47.44505" lon="6.90862">
        <ele>581</ele>
        <time>2015-04-06T09:26:15.000Z</time>
      </trkpt>
      <trkpt lat="47.44504" lon="6.90867">
        <ele>581</ele>
        <time>2015-04-06T09:26:16.000Z</time>
      </trkpt>
      <trkpt lat="47.44502" lon="6.90873">
        <ele>581</ele>
        <time>2015-04-06T09:26:17.000Z</time>
      </trkpt>
      <trkpt lat="47.445" lon="6.90877">
        <ele>581</ele>
        <time>2015-04-06T09:26:18.000Z</time>
      </trkpt>
      <trkpt lat="47.44498" lon="6.90882">
        <ele>579</ele>
        <time>2015-04-06T09:26:19.000Z</time>
      </trkpt>
      <trkpt lat="47.44496" lon="6.90886">
        <ele>580</ele>
        <time>2015-04-06T09:26:20.000Z</time>
      </trkpt>
      <trkpt lat="47.44494" lon="6.9089">
        <ele>580</ele>
        <time>2015-04-06T09:26:21.000Z</time>
      </trkpt>
      <trkpt lat="47.44493" lon="6.90894">
        <ele>580</ele>
        <time>2015-04-06T09:26:22.000Z</time>
      </trkpt>
      <trkpt lat="47.44491" lon="6.90898">
        <ele>580</ele>
        <time>2015-04-06T09:26:23.000Z</time>
      </trkpt>
      <trkpt lat="47.4449" lon="6.90902">
        <ele>580</ele>
        <time>2015-04-06T09:26:24.000Z</time>
      </trkpt>
      <trkpt lat="47.44489" lon="6.90906">
        <ele>580</ele>
        <time>2015-04-06T09:26:25.000Z</time>
      </trkpt>
      <trkpt lat="47.44488" lon="6.9091">
        <ele>580</ele>
        <time>2015-04-06T09:26:26.000Z</time>
      </trkpt>
      <trkpt lat="47.44487" lon="6.90914">
        <ele>580</ele>
        <time>2015-04-06T09:26:27.000Z</time>
      </trkpt>
      <trkpt lat="47.44486" lon="6.90919">
        <ele>580</ele>
        <time>2015-04-06T09:26:28.000Z</time>
      </trkpt>
      <trkpt lat="47.44485" lon="6.90923">
        <ele>580</ele>
        <time>2015-04-06T09:26:29.000Z</time>
      </trkpt>
      <trkpt lat="47.44484" lon="6.90927">
        <ele>580</ele>
        <time>2015-04-06T09:26:30.000Z</time>
      </trkpt>
      <trkpt lat="47.44483" lon="6.90931">
        <ele>580</ele>
        <time>2015-04-06T09:26:31.000Z</time>
      </trkpt>
      <trkpt lat="47.44483" lon="6.90935">
        <ele>580</ele>
        <time>2015-04-06T09:26:32.000Z</time>
      </trkpt>
      <trkpt lat="47.44482" lon="6.90939">
        <ele>580</ele>
        <time>2015-04-06T09:26:33.000Z</time>
      </trkpt>
      <trkpt lat="47.44481" lon="6.90943">
        <ele>580</ele>
        <time>2015-04-06T09:26:34.000Z</time>
      </trkpt>
      <trkpt lat="47.4448" lon="6.90948">
        <ele>580</ele>
        <time>2015-04-06T09:26:35.000Z</time>
      </trkpt>
      <trkpt lat="47.44478" lon="6.90953">
        <ele>580</ele>
        <time>2015-04-06T09:26:36.000Z</time>
      </trkpt>
      <trkpt lat="47.44477" lon="6.90957">
        <ele>580</ele>
        <time>2015-04-06T09:26:37.000Z</time>
      </trkpt>
      <trkpt lat="47.44475" lon="6.90963">
        <ele>580</ele>
        <time>2015-04-06T09:26:38.000Z</time>
      </trkpt>
      <trkpt lat="47.44473" lon="6.90969">
        <ele>580</ele>
        <time>2015-04-06T09:26:39.000Z</time>
      </trkpt>
      <trkpt lat="47.44472" lon="6.90974">
        <ele>580</ele>
        <time>2015-04-06T09:26:40.000Z</time>
      </trkpt>
      <trkpt lat="47.4447" lon="6.9098">
        <ele>580</ele>
        <time>2015-04-06T09:26:41.000Z</time>
      </trkpt>
      <trkpt lat="47.44468" lon="6.90985">
        <ele>580</ele>
        <time>2015-04-06T09:26:42.000Z</time>
      </trkpt>
      <trkpt lat="47.44467" lon="6.90988">
        <ele>580</ele>
        <time>2015-04-06T09:26:43.000Z</time>
      </trkpt>
      <trkpt lat="47.44466" lon="6.90992">
        <ele>580</ele>
        <time>2015-04-06T09:26:44.000Z</time>
      </trkpt>
      <trkpt lat="47.44466" lon="6.90996">
        <ele>580</ele>
        <time>2015-04-06T09:26:45.000Z</time>
      </trkpt>
      <trkpt lat="47.44467" lon="6.90999">
        <ele>580</ele>
        <time>2015-04-06T09:26:46.000Z</time>
      </trkpt>
      <trkpt lat="47.44467" lon="6.91003">
        <ele>582</ele>
        <time>2015-04-06T09:26:47.000Z</time>
      </trkpt>
      <trkpt lat="47.44468" lon="6.91006">
        <ele>582</ele>
        <time>2015-04-06T09:26:47.999Z</time>
      </trkpt>
      <trkpt lat="47.44468" lon="6.9101">
        <ele>582</ele>
        <time>2015-04-06T09:26:49.000Z</time>
      </trkpt>
      <trkpt lat="47.44467" lon="6.91013">
        <ele>582</ele>
        <time>2015-04-06T09:26:50.000Z</time>
      </trkpt>
      <trkpt lat="47.44466" lon="6.91017">
        <ele>582</ele>
        <time>2015-04-06T09:26:51.000Z</time>
      </trkpt>
      <trkpt lat="47.44464" lon="6.91022">
        <ele>582</ele>
        <time>2015-04-06T09:26:52.000Z</time>
      </trkpt>
      <trkpt lat="47.44463" lon="6.91026">
        <ele>582</ele>
        <time>2015-04-06T09:26:53.000Z</time>
      </trkpt>
      <trkpt lat="47.44462" lon="6.91029">
        <ele>582</ele>
        <time>2015-04-06T09:26:54.000Z</time>
      </trkpt>
      <trkpt lat="47.4446" lon="6.91033">
        <ele>582</ele>
        <time>2015-04-06T09:26:55.000Z</time>
      </trkpt>
      <trkpt lat="47.44459" lon="6.91036">
        <ele>582</ele>
        <time>2015-04-06T09:26:56.000Z</time>
      </trkpt>
      <trkpt lat="47.44458" lon="6.91039">
        <ele>582</ele>
        <time>2015-04-06T09:26:57.000Z</time>
      </trkpt>
      <trkpt lat="47.44456" lon="6.91045">
        <ele>582</ele>
        <time>2015-04-06T09:26:59.000Z</time>
      </trkpt>
      <trkpt lat="47.44456" lon="6.91047">
        <ele>583</ele>
        <time>2015-04-06T09:27:00.000Z</time>
      </trkpt>
      <trkpt lat="47.44457" lon="6.91052">
        <ele>583</ele>
        <time>2015-04-06T09:27:02.000Z</time>
      </trkpt>
      <trkpt lat="47.44458" lon="6.91054">
        <ele>583</ele>
        <time>2015-04-06T09:27:03.000Z</time>
      </trkpt>
      <trkpt lat="47.44461" lon="6.91059">
        <ele>583</ele>
        <time>2015-04-06T09:27:05.000Z</time>
      </trkpt>
      <trkpt lat="47.44463" lon="6.91062">
        <ele>583</ele>
        <time>2015-04-06T09:27:06.000Z</time>
      </trkpt>
      <trkpt lat="47.44464" lon="6.91064">
        <ele>584</ele>
        <time>2015-04-06T09:27:07.000Z</time>
      </trkpt>
      <trkpt lat="47.44466" lon="6.91067">
        <ele>584</ele>
        <time>2015-04-06T09:27:08.000Z</time>
      </trkpt>
      <trkpt lat="47.44467" lon="6.9107">
        <ele>584</ele>
        <time>2015-04-06T09:27:09.000Z</time>
      </trkpt>
      <trkpt lat="47.44469" lon="6.91074">
        <ele>584</ele>
        <time>2015-04-06T09:27:10.000Z</time>
      </trkpt>
      <trkpt lat="47.4447" lon="6.91078">
        <ele>584</ele>
        <time>2015-04-06T09:27:11.000Z</time>
      </trkpt>
      <trkpt lat="47.44472" lon="6.91083">
        <ele>585</ele>
        <time>2015-04-06T09:27:12.000Z</time>
      </trkpt>
      <trkpt lat="47.44473" lon="6.91087">
        <ele>585</ele>
        <time>2015-04-06T09:27:13.000Z</time>
      </trkpt>
      <trkpt lat="47.44473" lon="6.91092">
        <ele>585</ele>
        <time>2015-04-06T09:27:14.000Z</time>
      </trkpt>
      <trkpt lat="47.44474" lon="6.91096">
        <ele>585</ele>
        <time>2015-04-06T09:27:15.000Z</time>
      </trkpt>
      <trkpt lat="47.44475" lon="6.91101">
        <ele>585</ele>
        <time>2015-04-06T09:27:16.000Z</time>
      </trkpt>
      <trkpt lat="47.44475" lon="6.91105">
        <ele>585</ele>
        <time>2015-04-06T09:27:17.000Z</time>
      </trkpt>
      <trkpt lat="47.44476" lon="6.9111">
        <ele>585</ele>
        <time>2015-04-06T09:27:18.000Z</time>
      </trkpt>
      <trkpt lat="47.44477" lon="6.91113">
        <ele>585</ele>
        <time>2015-04-06T09:27:19.000Z</time>
      </trkpt>
      <trkpt lat="47.44478" lon="6.91117">
        <ele>585</ele>
        <time>2015-04-06T09:27:20.000Z</time>
      </trkpt>
      <trkpt lat="47.44478" lon="6.91121">
        <ele>585</ele>
        <time>2015-04-06T09:27:21.000Z</time>
      </trkpt>
      <trkpt lat="47.44479" lon="6.91124">
        <ele>585</ele>
        <time>2015-04-06T09:27:22.000Z</time>
      </trkpt>
      <trkpt lat="47.4448" lon="6.91128">
        <ele>585</ele>
        <time>2015-04-06T09:27:23.000Z</time>
      </trkpt>
      <trkpt lat="47.44481" lon="6.91132">
        <ele>585</ele>
        <time>2015-04-06T09:27:24.000Z</time>
      </trkpt>
      <trkpt lat="47.44482" lon="6.91136">
        <ele>585</ele>
        <time>2015-04-06T09:27:25.000Z</time>
      </trkpt>
      <trkpt lat="47.44483" lon="6.9114">
        <ele>585</ele>
        <time>2015-04-06T09:27:26.000Z</time>
      </trkpt>
      <trkpt lat="47.44485" lon="6.91145">
        <ele>585</ele>
        <time>2015-04-06T09:27:27.000Z</time>
      </trkpt>
      <trkpt lat="47.44487" lon="6.91149">
        <ele>585</ele>
        <time>2015-04-06T09:27:28.000Z</time>
      </trkpt>
      <trkpt lat="47.44489" lon="6.91153">
        <ele>586</ele>
        <time>2015-04-06T09:27:29.000Z</time>
      </trkpt>
      <trkpt lat="47.44491" lon="6.91157">
        <ele>586</ele>
        <time>2015-04-06T09:27:30.000Z</time>
      </trkpt>
      <trkpt lat="47.44492" lon="6.9116">
        <ele>586</ele>
        <time>2015-04-06T09:27:31.000Z</time>
      </trkpt>
      <trkpt lat="47.44494" lon="6.91164">
        <ele>586</ele>
        <time>2015-04-06T09:27:32.000Z</time>
      </trkpt>
      <trkpt lat="47.44496" lon="6.91167">
        <ele>587</ele>
        <time>2015-04-06T09:27:33.000Z</time>
      </trkpt>
      <trkpt lat="47.44497" lon="6.9117">
        <ele>586</ele>
        <time>2015-04-06T09:27:34.000Z</time>
      </trkpt>
      <trkpt lat="47.44498" lon="6.91173">
        <ele>586</ele>
        <time>2015-04-06T09:27:35.000Z</time>
      </trkpt>
      <trkpt lat="47.44499" lon="6.91176">
        <ele>585</ele>
        <time>2015-04-06T09:27:36.000Z</time>
      </trkpt>
      <trkpt lat="47.44499" lon="6.91182">
        <ele>584</ele>
        <time>2015-04-06T09:27:38.000Z</time>
      </trkpt>
      <trkpt lat="47.44497" lon="6.91185">
        <ele>584</ele>
        <time>2015-04-06T09:27:39.000Z</time>
      </trkpt>
      <trkpt lat="47.44496" lon="6.9119">
        <ele>583</ele>
        <time>2015-04-06T09:27:40.000Z</time>
      </trkpt>
      <trkpt lat="47.44496" lon="6.91195">
        <ele>583</ele>
        <time>2015-04-06T09:27:41.000Z</time>
      </trkpt>
      <trkpt lat="47.44495" lon="6.912">
        <ele>583</ele>
        <time>2015-04-06T09:27:42.000Z</time>
      </trkpt>
      <trkpt lat="47.44495" lon="6.91205">
        <ele>583</ele>
        <time>2015-04-06T09:27:43.000Z</time>
      </trkpt>
      <trkpt lat="47.44495" lon="6.91209">
        <ele>582</ele>
        <time>2015-04-06T09:27:44.000Z</time>
      </trkpt>
      <trkpt lat="47.44495" lon="6.91213">
        <ele>582</ele>
        <time>2015-04-06T09:27:45.000Z</time>
      </trkpt>
      <trkpt lat="47.44496" lon="6.91217">
        <ele>582</ele>
        <time>2015-04-06T09:27:46.000Z</time>
      </trkpt>
      <trkpt lat="47.44498" lon="6.9122">
        <ele>582</ele>
        <time>2015-04-06T09:27:47.000Z</time>
      </trkpt>
      <trkpt lat="47.44499" lon="6.91224">
        <ele>582</ele>
        <time>2015-04-06T09:27:48.000Z</time>
      </trkpt>
      <trkpt lat="47.44499" lon="6.91228">
        <ele>582</ele>
        <time>2015-04-06T09:27:49.000Z</time>
      </trkpt>
      <trkpt lat="47.44499" lon="6.91232">
        <ele>583</ele>
        <time>2015-04-06T09:27:50.000Z</time>
      </trkpt>
      <trkpt lat="47.44499" lon="6.91237">
        <ele>583</ele>
        <time>2015-04-06T09:27:51.000Z</time>
      </trkpt>
      <trkpt lat="47.44498" lon="6.91241">
        <ele>583</ele>
        <time>2015-04-06T09:27:52.000Z</time>
      </trkpt>
      <trkpt lat="47.44497" lon="6.91245">
        <ele>583</ele>
        <time>2015-04-06T09:27:53.000Z</time>
      </trkpt>
      <trkpt lat="47.44497" lon="6.91249">
        <ele>584</ele>
        <time>2015-04-06T09:27:54.000Z</time>
      </trkpt>
      <trkpt lat="47.44496" lon="6.91253">
        <ele>583</ele>
        <time>2015-04-06T09:27:55.000Z</time>
      </trkpt>
      <trkpt lat="47.44496" lon="6.91257">
        <ele>583</ele>
        <time>2015-04-06T09:27:56.000Z</time>
      </trkpt>
      <trkpt lat="47.44497" lon="6.91261">
        <ele>583</ele>
        <time>2015-04-06T09:27:57.000Z</time>
      </trkpt>
      <trkpt lat="47.44498" lon="6.91264">
        <ele>583</ele>
        <time>2015-04-06T09:27:58.000Z</time>
      </trkpt>
      <trkpt lat="47.44498" lon="6.91267">
        <ele>582</ele>
        <time>2015-04-06T09:27:59.000Z</time>
      </trkpt>
      <trkpt lat="47.44501" lon="6.91271">
        <ele>588</ele>
        <time>2015-04-06T09:28:01.000Z</time>
      </trkpt>
      <trkpt lat="47.445" lon="6.91277">
        <ele>589</ele>
        <time>2015-04-06T09:28:02.000Z</time>
      </trkpt>
      <trkpt lat="47.445" lon="6.91281">
        <ele>589</ele>
        <time>2015-04-06T09:28:03.000Z</time>
      </trkpt>
      <trkpt lat="47.445" lon="6.91286">
        <ele>589</ele>
        <time>2015-04-06T09:28:04.000Z</time>
      </trkpt>
      <trkpt lat="47.445" lon="6.91291">
        <ele>590</ele>
        <time>2015-04-06T09:28:05.000Z</time>
      </trkpt>
      <trkpt lat="47.445" lon="6.91296">
        <ele>590</ele>
        <time>2015-04-06T09:28:06.000Z</time>
      </trkpt>
      <trkpt lat="47.445" lon="6.91302">
        <ele>590</ele>
        <time>2015-04-06T09:28:07.000Z</time>
      </trkpt>
      <trkpt lat="47.445" lon="6.91307">
        <ele>590</ele>
        <time>2015-04-06T09:28:08.000Z</time>
      </trkpt>
      <trkpt lat="47.445" lon="6.91313">
        <ele>590</ele>
        <time>2015-04-06T09:28:09.000Z</time>
      </trkpt>
      <trkpt lat="47.445" lon="6.91319">
        <ele>585</ele>
        <time>2015-04-06T09:28:10.000Z</time>
      </trkpt>
      <trkpt lat="47.44499" lon="6.91325">
        <ele>587</ele>
        <time>2015-04-06T09:28:11.000Z</time>
      </trkpt>
      <trkpt lat="47.44499" lon="6.91331">
        <ele>588</ele>
        <time>2015-04-06T09:28:12.000Z</time>
      </trkpt>
      <trkpt lat="47.44499" lon="6.91337">
        <ele>588</ele>
        <time>2015-04-06T09:28:13.000Z</time>
      </trkpt>
      <trkpt lat="47.44499" lon="6.91342">
        <ele>587</ele>
        <time>2015-04-06T09:28:14.000Z</time>
      </trkpt>
      <trkpt lat="47.44499" lon="6.91346">
        <ele>586</ele>
        <time>2015-04-06T09:28:15.000Z</time>
      </trkpt>
      <trkpt lat="47.445" lon="6.9135">
        <ele>591</ele>
        <time>2015-04-06T09:28:16.000Z</time>
      </trkpt>
      <trkpt lat="47.44502" lon="6.91354">
        <ele>592</ele>
        <time>2015-04-06T09:28:18.000Z</time>
      </trkpt>
      <trkpt lat="47.44502" lon="6.91356">
        <ele>592</ele>
        <time>2015-04-06T09:28:19.000Z</time>
      </trkpt>
      <trkpt lat="47.44505" lon="6.91352">
        <ele>592</ele>
        <time>2015-04-06T09:28:27.000Z</time>
      </trkpt>
      <trkpt lat="47.44508" lon="6.9135">
        <ele>592</ele>
        <time>2015-04-06T09:28:28.000Z</time>
      </trkpt>
      <trkpt lat="47.44511" lon="6.91346">
        <ele>592</ele>
        <time>2015-04-06T09:28:30.000Z</time>
      </trkpt>
      <trkpt lat="47.44512" lon="6.91345">
        <ele>592</ele>
        <time>2015-04-06T09:28:31.000Z</time>
      </trkpt>
      <trkpt lat="47.44515" lon="6.91344">
        <ele>592</ele>
        <time>2015-04-06T09:28:34.000Z</time>
      </trkpt>
      <trkpt lat="47.44516" lon="6.91344">
        <ele>592</ele>
        <time>2015-04-06T09:28:35.000Z</time>
      </trkpt>
      <trkpt lat="47.4452" lon="6.9134">
        <ele>592</ele>
        <time>2015-04-06T09:28:37.000Z</time>
      </trkpt>
      <trkpt lat="47.44521" lon="6.91337">
        <ele>592</ele>
        <time>2015-04-06T09:28:38.000Z</time>
      </trkpt>
      <trkpt lat="47.44523" lon="6.91334">
        <ele>592</ele>
        <time>2015-04-06T09:28:39.000Z</time>
      </trkpt>
      <trkpt lat="47.44525" lon="6.91332">
        <ele>591</ele>
        <time>2015-04-06T09:28:40.000Z</time>
      </trkpt>
      <trkpt lat="47.44527" lon="6.9133">
        <ele>591</ele>
        <time>2015-04-06T09:28:41.000Z</time>
      </trkpt>
      <trkpt lat="47.4453" lon="6.91327">
        <ele>591</ele>
        <time>2015-04-06T09:28:42.000Z</time>
      </trkpt>
      <trkpt lat="47.44532" lon="6.91325">
        <ele>591</ele>
        <time>2015-04-06T09:28:43.000Z</time>
      </trkpt>
      <trkpt lat="47.44534" lon="6.91323">
        <ele>592</ele>
        <time>2015-04-06T09:28:44.000Z</time>
      </trkpt>
      <trkpt lat="47.44536" lon="6.91321">
        <ele>592</ele>
        <time>2015-04-06T09:28:45.000Z</time>
      </trkpt>
      <trkpt lat="47.44537" lon="6.91318">
        <ele>592</ele>
        <time>2015-04-06T09:28:46.000Z</time>
      </trkpt>
      <trkpt lat="47.4454" lon="6.91314">
        <ele>592</ele>
        <time>2015-04-06T09:28:48.000Z</time>
      </trkpt>
      <trkpt lat="47.44541" lon="6.91312">
        <ele>592</ele>
        <time>2015-04-06T09:28:49.000Z</time>
      </trkpt>
      <trkpt lat="47.44544" lon="6.91309">
        <ele>592</ele>
        <time>2015-04-06T09:28:51.000Z</time>
      </trkpt>
      <trkpt lat="47.44545" lon="6.91307">
        <ele>592</ele>
        <time>2015-04-06T09:28:52.000Z</time>
      </trkpt>
      <trkpt lat="47.44547" lon="6.91304">
        <ele>592</ele>
        <time>2015-04-06T09:28:54.000Z</time>
      </trkpt>
      <trkpt lat="47.44548" lon="6.91302">
        <ele>592</ele>
        <time>2015-04-06T09:28:55.000Z</time>
      </trkpt>
      <trkpt lat="47.4455" lon="6.91297">
        <ele>592</ele>
        <time>2015-04-06T09:28:58.000Z</time>
      </trkpt>
      <trkpt lat="47.44551" lon="6.91295">
        <ele>592</ele>
        <time>2015-04-06T09:28:59.000Z</time>
      </trkpt>
      <trkpt lat="47.44554" lon="6.91292">
        <ele>592</ele>
        <time>2015-04-06T09:29:01.000Z</time>
      </trkpt>
      <trkpt lat="47.44556" lon="6.9129">
        <ele>592</ele>
        <time>2015-04-06T09:29:02.000Z</time>
      </trkpt>
      <trkpt lat="47.4456" lon="6.91287">
        <ele>592</ele>
        <time>2015-04-06T09:29:04.000Z</time>
      </trkpt>
      <trkpt lat="47.44562" lon="6.91286">
        <ele>592</ele>
        <time>2015-04-06T09:29:05.000Z</time>
      </trkpt>
      <trkpt lat="47.44565" lon="6.91284">
        <ele>593</ele>
        <time>2015-04-06T09:29:07.000Z</time>
      </trkpt>
      <trkpt lat="47.44567" lon="6.91284">
        <ele>593</ele>
        <time>2015-04-06T09:29:08.000Z</time>
      </trkpt>
      <trkpt lat="47.44571" lon="6.91283">
        <ele>593</ele>
        <time>2015-04-06T09:29:10.000Z</time>
      </trkpt>
      <trkpt lat="47.44572" lon="6.91282">
        <ele>593</ele>
        <time>2015-04-06T09:29:11.000Z</time>
      </trkpt>
      <trkpt lat="47.44575" lon="6.91279">
        <ele>593</ele>
        <time>2015-04-06T09:29:13.000Z</time>
      </trkpt>
      <trkpt lat="47.44576" lon="6.91278">
        <ele>593</ele>
        <time>2015-04-06T09:29:14.000Z</time>
      </trkpt>
      <trkpt lat="47.4458" lon="6.91278">
        <ele>593</ele>
        <time>2015-04-06T09:29:16.000Z</time>
      </trkpt>
      <trkpt lat="47.44582" lon="6.91278">
        <ele>593</ele>
        <time>2015-04-06T09:29:17.000Z</time>
      </trkpt>
      <trkpt lat="47.44586" lon="6.91276">
        <ele>598</ele>
        <time>2015-04-06T09:29:19.000Z</time>
      </trkpt>
      <trkpt lat="47.44588" lon="6.91275">
        <ele>598</ele>
        <time>2015-04-06T09:29:20.000Z</time>
      </trkpt>
      <trkpt lat="47.44591" lon="6.91271">
        <ele>597</ele>
        <time>2015-04-06T09:29:24.000Z</time>
      </trkpt>
      <trkpt lat="47.44592" lon="6.9127">
        <ele>597</ele>
        <time>2015-04-06T09:29:25.000Z</time>
      </trkpt>
      <trkpt lat="47.44595" lon="6.91268">
        <ele>597</ele>
        <time>2015-04-06T09:29:28.000Z</time>
      </trkpt>
      <trkpt lat="47.44597" lon="6.91268">
        <ele>597</ele>
        <time>2015-04-06T09:29:29.000Z</time>
      </trkpt>
      <trkpt lat="47.446" lon="6.91266">
        <ele>598</ele>
        <time>2015-04-06T09:29:31.000Z</time>
      </trkpt>
      <trkpt lat="47.44602" lon="6.91265">
        <ele>598</ele>
        <time>2015-04-06T09:29:32.000Z</time>
      </trkpt>
      <trkpt lat="47.44605" lon="6.91265">
        <ele>598</ele>
        <time>2015-04-06T09:29:33.000Z</time>
      </trkpt>
      <trkpt lat="47.44608" lon="6.91265">
        <ele>598</ele>
        <time>2015-04-06T09:29:34.000Z</time>
      </trkpt>
      <trkpt lat="47.44611" lon="6.91264">
        <ele>598</ele>
        <time>2015-04-06T09:29:35.000Z</time>
      </trkpt>
      <trkpt lat="47.44613" lon="6.91264">
        <ele>598</ele>
        <time>2015-04-06T09:29:36.000Z</time>
      </trkpt>
      <trkpt lat="47.44616" lon="6.91261">
        <ele>598</ele>
        <time>2015-04-06T09:29:44.000Z</time>
      </trkpt>
      <trkpt lat="47.44618" lon="6.91261">
        <ele>599</ele>
        <time>2015-04-06T09:29:45.000Z</time>
      </trkpt>
      <trkpt lat="47.4462" lon="6.91262">
        <ele>599</ele>
        <time>2015-04-06T09:29:46.000Z</time>
      </trkpt>
      <trkpt lat="47.44622" lon="6.91262">
        <ele>599</ele>
        <time>2015-04-06T09:29:47.000Z</time>
      </trkpt>
      <trkpt lat="47.44627" lon="6.91262">
        <ele>599</ele>
        <time>2015-04-06T09:29:49.000Z</time>
      </trkpt>
      <trkpt lat="47.44628" lon="6.91262">
        <ele>599</ele>
        <time>2015-04-06T09:29:50.000Z</time>
      </trkpt>
      <trkpt lat="47.44633" lon="6.9126">
        <ele>599</ele>
        <time>2015-04-06T09:29:52.000Z</time>
      </trkpt>
      <trkpt lat="47.44634" lon="6.91259">
        <ele>600</ele>
        <time>2015-04-06T09:29:53.000Z</time>
      </trkpt>
      <trkpt lat="47.44638" lon="6.91258">
        <ele>600</ele>
        <time>2015-04-06T09:29:56.000Z</time>
      </trkpt>
      <trkpt lat="47.4464" lon="6.91258">
        <ele>600</ele>
        <time>2015-04-06T09:29:57.000Z</time>
      </trkpt>
      <trkpt lat="47.44643" lon="6.91255">
        <ele>600</ele>
        <time>2015-04-06T09:29:59.000Z</time>
      </trkpt>
      <trkpt lat="47.44645" lon="6.91254">
        <ele>600</ele>
        <time>2015-04-06T09:30:00.000Z</time>
      </trkpt>
      <trkpt lat="47.44649" lon="6.91251">
        <ele>601</ele>
        <time>2015-04-06T09:30:02.000Z</time>
      </trkpt>
      <trkpt lat="47.44651" lon="6.91249">
        <ele>601</ele>
        <time>2015-04-06T09:30:03.000Z</time>
      </trkpt>
      <trkpt lat="47.44653" lon="6.91247">
        <ele>601</ele>
        <time>2015-04-06T09:30:04.000Z</time>
      </trkpt>
      <trkpt lat="47.44655" lon="6.91245">
        <ele>601</ele>
        <time>2015-04-06T09:30:05.000Z</time>
      </trkpt>
      <trkpt lat="47.44657" lon="6.91244">
        <ele>601</ele>
        <time>2015-04-06T09:30:06.000Z</time>
      </trkpt>
      <trkpt lat="47.4466" lon="6.91243">
        <ele>602</ele>
        <time>2015-04-06T09:30:07.000Z</time>
      </trkpt>
      <trkpt lat="47.44663" lon="6.91242">
        <ele>602</ele>
        <time>2015-04-06T09:30:08.000Z</time>
      </trkpt>
      <trkpt lat="47.44666" lon="6.91242">
        <ele>602</ele>
        <time>2015-04-06T09:30:09.000Z</time>
      </trkpt>
      <trkpt lat="47.44669" lon="6.91242">
        <ele>603</ele>
        <time>2015-04-06T09:30:10.000Z</time>
      </trkpt>
      <trkpt lat="47.44672" lon="6.91242">
        <ele>603</ele>
        <time>2015-04-06T09:30:11.000Z</time>
      </trkpt>
      <trkpt lat="47.44675" lon="6.91243">
        <ele>603</ele>
        <time>2015-04-06T09:30:12.000Z</time>
      </trkpt>
      <trkpt lat="47.44677" lon="6.91243">
        <ele>603</ele>
        <time>2015-04-06T09:30:13.000Z</time>
      </trkpt>
      <trkpt lat="47.44681" lon="6.91244">
        <ele>602</ele>
        <time>2015-04-06T09:30:16.000Z</time>
      </trkpt>
      <trkpt lat="47.44683" lon="6.91245">
        <ele>602</ele>
        <time>2015-04-06T09:30:17.000Z</time>
      </trkpt>
      <trkpt lat="47.44685" lon="6.91246">
        <ele>602</ele>
        <time>2015-04-06T09:30:19.000Z</time>
      </trkpt>
      <trkpt lat="47.44687" lon="6.91246">
        <ele>602</ele>
        <time>2015-04-06T09:30:20.000Z</time>
      </trkpt>
      <trkpt lat="47.44689" lon="6.91246">
        <ele>602</ele>
        <time>2015-04-06T09:30:21.000Z</time>
      </trkpt>
      <trkpt lat="47.44692" lon="6.91247">
        <ele>602</ele>
        <time>2015-04-06T09:30:22.000Z</time>
      </trkpt>
      <trkpt lat="47.44695" lon="6.91248">
        <ele>602</ele>
        <time>2015-04-06T09:30:23.000Z</time>
      </trkpt>
      <trkpt lat="47.44697" lon="6.91248">
        <ele>602</ele>
        <time>2015-04-06T09:30:24.000Z</time>
      </trkpt>
      <trkpt lat="47.447" lon="6.9125">
        <ele>602</ele>
        <time>2015-04-06T09:30:25.000Z</time>
      </trkpt>
      <trkpt lat="47.44702" lon="6.9125">
        <ele>602</ele>
        <time>2015-04-06T09:30:26.000Z</time>
      </trkpt>
      <trkpt lat="47.44705" lon="6.9125">
        <ele>602</ele>
        <time>2015-04-06T09:30:27.000Z</time>
      </trkpt>
      <trkpt lat="47.44707" lon="6.91251">
        <ele>602</ele>
        <time>2015-04-06T09:30:28.000Z</time>
      </trkpt>
      <trkpt lat="47.44709" lon="6.91251">
        <ele>602</ele>
        <time>2015-04-06T09:30:29.000Z</time>
      </trkpt>
      <trkpt lat="47.44712" lon="6.91251">
        <ele>602</ele>
        <time>2015-04-06T09:30:30.000Z</time>
      </trkpt>
      <trkpt lat="47.44715" lon="6.91252">
        <ele>602</ele>
        <time>2015-04-06T09:30:31.000Z</time>
      </trkpt>
      <trkpt lat="47.44718" lon="6.91253">
        <ele>602</ele>
        <time>2015-04-06T09:30:32.000Z</time>
      </trkpt>
      <trkpt lat="47.44721" lon="6.91254">
        <ele>602</ele>
        <time>2015-04-06T09:30:33.000Z</time>
      </trkpt>
      <trkpt lat="47.44724" lon="6.91254">
        <ele>602</ele>
        <time>2015-04-06T09:30:34.000Z</time>
      </trkpt>
      <trkpt lat="47.44727" lon="6.91255">
        <ele>602</ele>
        <time>2015-04-06T09:30:35.000Z</time>
      </trkpt>
      <trkpt lat="47.4473" lon="6.91257">
        <ele>602</ele>
        <time>2015-04-06T09:30:36.000Z</time>
      </trkpt>
      <trkpt lat="47.44733" lon="6.91259">
        <ele>602</ele>
        <time>2015-04-06T09:30:37.000Z</time>
      </trkpt>
      <trkpt lat="47.44736" lon="6.9126">
        <ele>602</ele>
        <time>2015-04-06T09:30:38.000Z</time>
      </trkpt>
      <trkpt lat="47.4474" lon="6.91261">
        <ele>602</ele>
        <time>2015-04-06T09:30:39.000Z</time>
      </trkpt>
      <trkpt lat="47.44743" lon="6.91261">
        <ele>602</ele>
        <time>2015-04-06T09:30:40.000Z</time>
      </trkpt>
      <trkpt lat="47.44747" lon="6.91262">
        <ele>602</ele>
        <time>2015-04-06T09:30:41.000Z</time>
      </trkpt>
      <trkpt lat="47.4475" lon="6.91263">
        <ele>602</ele>
        <time>2015-04-06T09:30:42.000Z</time>
      </trkpt>
      <trkpt lat="47.44753" lon="6.91264">
        <ele>601</ele>
        <time>2015-04-06T09:30:43.000Z</time>
      </trkpt>
      <trkpt lat="47.44755" lon="6.91265">
        <ele>601</ele>
        <time>2015-04-06T09:30:44.001Z</time>
      </trkpt>
      <trkpt lat="47.44759" lon="6.91267">
        <ele>601</ele>
        <time>2015-04-06T09:30:45.000Z</time>
      </trkpt>
      <trkpt lat="47.44763" lon="6.91269">
        <ele>600</ele>
        <time>2015-04-06T09:30:46.000Z</time>
      </trkpt>
      <trkpt lat="47.44768" lon="6.91272">
        <ele>600</ele>
        <time>2015-04-06T09:30:47.000Z</time>
      </trkpt>
      <trkpt lat="47.44773" lon="6.91275">
        <ele>600</ele>
        <time>2015-04-06T09:30:48.000Z</time>
      </trkpt>
      <trkpt lat="47.44778" lon="6.91278">
        <ele>600</ele>
        <time>2015-04-06T09:30:49.000Z</time>
      </trkpt>
      <trkpt lat="47.44783" lon="6.9128">
        <ele>599</ele>
        <time>2015-04-06T09:30:50.000Z</time>
      </trkpt>
      <trkpt lat="47.44787" lon="6.91283">
        <ele>599</ele>
        <time>2015-04-06T09:30:51.000Z</time>
      </trkpt>
      <trkpt lat="47.44791" lon="6.91285">
        <ele>599</ele>
        <time>2015-04-06T09:30:52.000Z</time>
      </trkpt>
      <trkpt lat="47.44796" lon="6.91288">
        <ele>599</ele>
        <time>2015-04-06T09:30:53.000Z</time>
      </trkpt>
      <trkpt lat="47.448" lon="6.91291">
        <ele>599</ele>
        <time>2015-04-06T09:30:54.000Z</time>
      </trkpt>
      <trkpt lat="47.44806" lon="6.91294">
        <ele>598</ele>
        <time>2015-04-06T09:30:55.000Z</time>
      </trkpt>
      <trkpt lat="47.44811" lon="6.91297">
        <ele>598</ele>
        <time>2015-04-06T09:30:56.000Z</time>
      </trkpt>
      <trkpt lat="47.44816" lon="6.913">
        <ele>598</ele>
        <time>2015-04-06T09:30:57.000Z</time>
      </trkpt>
      <trkpt lat="47.44821" lon="6.91303">
        <ele>598</ele>
        <time>2015-04-06T09:30:58.000Z</time>
      </trkpt>
      <trkpt lat="47.44826" lon="6.91305">
        <ele>597</ele>
        <time>2015-04-06T09:30:59.000Z</time>
      </trkpt>
      <trkpt lat="47.44831" lon="6.91307">
        <ele>597</ele>
        <time>2015-04-06T09:31:00.000Z</time>
      </trkpt>
      <trkpt lat="47.44836" lon="6.91309">
        <ele>594</ele>
        <time>2015-04-06T09:31:01.000Z</time>
      </trkpt>
      <trkpt lat="47.4485" lon="6.9131">
        <ele>593</ele>
        <time>2015-04-06T09:31:02.000Z</time>
      </trkpt>
      <trkpt lat="47.4486" lon="6.91312">
        <ele>593</ele>
        <time>2015-04-06T09:31:03.000Z</time>
      </trkpt>
      <trkpt lat="47.44866" lon="6.91314">
        <ele>593</ele>
        <time>2015-04-06T09:31:04.000Z</time>
      </trkpt>
      <trkpt lat="47.44874" lon="6.91318">
        <ele>592</ele>
        <time>2015-04-06T09:31:05.000Z</time>
      </trkpt>
      <trkpt lat="47.4488" lon="6.91321">
        <ele>592</ele>
        <time>2015-04-06T09:31:06.000Z</time>
      </trkpt>
      <trkpt lat="47.44886" lon="6.91325">
        <ele>592</ele>
        <time>2015-04-06T09:31:07.000Z</time>
      </trkpt>
      <trkpt lat="47.44894" lon="6.91324">
        <ele>592</ele>
        <time>2015-04-06T09:31:08.000Z</time>
      </trkpt>
      <trkpt lat="47.44905" lon="6.91324">
        <ele>592</ele>
        <time>2015-04-06T09:31:09.000Z</time>
      </trkpt>
      <trkpt lat="47.44912" lon="6.91321">
        <ele>591</ele>
        <time>2015-04-06T09:31:10.001Z</time>
      </trkpt>
      <trkpt lat="47.44919" lon="6.91325">
        <ele>590</ele>
        <time>2015-04-06T09:31:11.000Z</time>
      </trkpt>
      <trkpt lat="47.4493" lon="6.9133">
        <ele>589</ele>
        <time>2015-04-06T09:31:12.000Z</time>
      </trkpt>
      <trkpt lat="47.44941" lon="6.91338">
        <ele>589</ele>
        <time>2015-04-06T09:31:13.000Z</time>
      </trkpt>
      <trkpt lat="47.44949" lon="6.91344">
        <ele>588</ele>
        <time>2015-04-06T09:31:14.000Z</time>
      </trkpt>
      <trkpt lat="47.44954" lon="6.91347">
        <ele>588</ele>
        <time>2015-04-06T09:31:15.000Z</time>
      </trkpt>
      <trkpt lat="47.44959" lon="6.9135">
        <ele>587</ele>
        <time>2015-04-06T09:31:16.000Z</time>
      </trkpt>
      <trkpt lat="47.44966" lon="6.91352">
        <ele>587</ele>
        <time>2015-04-06T09:31:17.000Z</time>
      </trkpt>
      <trkpt lat="47.44972" lon="6.91353">
        <ele>587</ele>
        <time>2015-04-06T09:31:18.000Z</time>
      </trkpt>
      <trkpt lat="47.44978" lon="6.91354">
        <ele>586</ele>
        <time>2015-04-06T09:31:19.000Z</time>
      </trkpt>
      <trkpt lat="47.44985" lon="6.91355">
        <ele>586</ele>
        <time>2015-04-06T09:31:20.000Z</time>
      </trkpt>
      <trkpt lat="47.4499" lon="6.91355">
        <ele>586</ele>
        <time>2015-04-06T09:31:21.000Z</time>
      </trkpt>
      <trkpt lat="47.44998" lon="6.91358">
        <ele>586</ele>
        <time>2015-04-06T09:31:22.000Z</time>
      </trkpt>
      <trkpt lat="47.45005" lon="6.91357">
        <ele>582</ele>
        <time>2015-04-06T09:31:23.000Z</time>
      </trkpt>
      <trkpt lat="47.45011" lon="6.91359">
        <ele>582</ele>
        <time>2015-04-06T09:31:24.000Z</time>
      </trkpt>
      <trkpt lat="47.45013" lon="6.91359">
        <ele>582</ele>
        <time>2015-04-06T09:31:25.000Z</time>
      </trkpt>
      <trkpt lat="47.45018" lon="6.91361">
        <ele>582</ele>
        <time>2015-04-06T09:31:26.000Z</time>
      </trkpt>
      <trkpt lat="47.45024" lon="6.91361">
        <ele>582</ele>
        <time>2015-04-06T09:31:27.000Z</time>
      </trkpt>
      <trkpt lat="47.45029" lon="6.91362">
        <ele>582</ele>
        <time>2015-04-06T09:31:28.000Z</time>
      </trkpt>
      <trkpt lat="47.45034" lon="6.91364">
        <ele>582</ele>
        <time>2015-04-06T09:31:29.000Z</time>
      </trkpt>
      <trkpt lat="47.45038" lon="6.91364">
        <ele>581</ele>
        <time>2015-04-06T09:31:30.000Z</time>
      </trkpt>
      <trkpt lat="47.45044" lon="6.91366">
        <ele>581</ele>
        <time>2015-04-06T09:31:31.000Z</time>
      </trkpt>
      <trkpt lat="47.45049" lon="6.91367">
        <ele>581</ele>
        <time>2015-04-06T09:31:32.000Z</time>
      </trkpt>
      <trkpt lat="47.45054" lon="6.91368">
        <ele>581</ele>
        <time>2015-04-06T09:31:33.000Z</time>
      </trkpt>
      <trkpt lat="47.45061" lon="6.91371">
        <ele>581</ele>
        <time>2015-04-06T09:31:34.000Z</time>
      </trkpt>
      <trkpt lat="47.45069" lon="6.91371">
        <ele>580</ele>
        <time>2015-04-06T09:31:35.000Z</time>
      </trkpt>
      <trkpt lat="47.45075" lon="6.91373">
        <ele>580</ele>
        <time>2015-04-06T09:31:36.000Z</time>
      </trkpt>
      <trkpt lat="47.45077" lon="6.91372">
        <ele>580</ele>
        <time>2015-04-06T09:31:37.000Z</time>
      </trkpt>
      <trkpt lat="47.4508" lon="6.91371">
        <ele>580</ele>
        <time>2015-04-06T09:31:38.000Z</time>
      </trkpt>
      <trkpt lat="47.45084" lon="6.91371">
        <ele>578</ele>
        <time>2015-04-06T09:31:39.000Z</time>
      </trkpt>
      <trkpt lat="47.45086" lon="6.91372">
        <ele>578</ele>
        <time>2015-04-06T09:31:40.000Z</time>
      </trkpt>
      <trkpt lat="47.45089" lon="6.91371">
        <ele>578</ele>
        <time>2015-04-06T09:31:41.000Z</time>
      </trkpt>
      <trkpt lat="47.45095" lon="6.91371">
        <ele>578</ele>
        <time>2015-04-06T09:31:42.000Z</time>
      </trkpt>
      <trkpt lat="47.451" lon="6.91368">
        <ele>578</ele>
        <time>2015-04-06T09:31:43.000Z</time>
      </trkpt>
      <trkpt lat="47.45105" lon="6.91368">
        <ele>578</ele>
        <time>2015-04-06T09:31:44.000Z</time>
      </trkpt>
      <trkpt lat="47.45112" lon="6.91369">
        <ele>578</ele>
        <time>2015-04-06T09:31:45.000Z</time>
      </trkpt>
      <trkpt lat="47.45121" lon="6.91371">
        <ele>578</ele>
        <time>2015-04-06T09:31:46.000Z</time>
      </trkpt>
      <trkpt lat="47.45129" lon="6.9137">
        <ele>578</ele>
        <time>2015-04-06T09:31:47.000Z</time>
      </trkpt>
      <trkpt lat="47.45135" lon="6.91372">
        <ele>578</ele>
        <time>2015-04-06T09:31:48.000Z</time>
      </trkpt>
      <trkpt lat="47.45142" lon="6.91376">
        <ele>578</ele>
        <time>2015-04-06T09:31:49.000Z</time>
      </trkpt>
      <trkpt lat="47.45151" lon="6.91377">
        <ele>578</ele>
        <time>2015-04-06T09:31:50.000Z</time>
      </trkpt>
      <trkpt lat="47.45159" lon="6.91381">
        <ele>578</ele>
        <time>2015-04-06T09:31:51.000Z</time>
      </trkpt>
      <trkpt lat="47.45164" lon="6.91379">
        <ele>578</ele>
        <time>2015-04-06T09:31:52.000Z</time>
      </trkpt>
      <trkpt lat="47.45169" lon="6.91377">
        <ele>577</ele>
        <time>2015-04-06T09:31:53.000Z</time>
      </trkpt>
      <trkpt lat="47.45176" lon="6.91378">
        <ele>577</ele>
        <time>2015-04-06T09:31:54.000Z</time>
      </trkpt>
      <trkpt lat="47.45179" lon="6.91383">
        <ele>577</ele>
        <time>2015-04-06T09:31:55.000Z</time>
      </trkpt>
      <trkpt lat="47.45184" lon="6.91385">
        <ele>577</ele>
        <time>2015-04-06T09:31:56.000Z</time>
      </trkpt>
      <trkpt lat="47.45188" lon="6.91384">
        <ele>577</ele>
        <time>2015-04-06T09:31:57.000Z</time>
      </trkpt>
      <trkpt lat="47.45193" lon="6.91381">
        <ele>576</ele>
        <time>2015-04-06T09:31:58.000Z</time>
      </trkpt>
      <trkpt lat="47.45197" lon="6.91379">
        <ele>576</ele>
        <time>2015-04-06T09:31:59.002Z</time>
      </trkpt>
      <trkpt lat="47.45203" lon="6.91385">
        <ele>576</ele>
        <time>2015-04-06T09:32:00.000Z</time>
      </trkpt>
      <trkpt lat="47.4521" lon="6.91386">
        <ele>576</ele>
        <time>2015-04-06T09:32:01.000Z</time>
      </trkpt>
      <trkpt lat="47.45215" lon="6.91387">
        <ele>576</ele>
        <time>2015-04-06T09:32:02.000Z</time>
      </trkpt>
      <trkpt lat="47.45226" lon="6.91392">
        <ele>576</ele>
        <time>2015-04-06T09:32:03.000Z</time>
      </trkpt>
      <trkpt lat="47.45233" lon="6.91393">
        <ele>576</ele>
        <time>2015-04-06T09:32:04.000Z</time>
      </trkpt>
      <trkpt lat="47.45238" lon="6.91394">
        <ele>576</ele>
        <time>2015-04-06T09:32:05.000Z</time>
      </trkpt>
      <trkpt lat="47.45245" lon="6.91397">
        <ele>576</ele>
        <time>2015-04-06T09:32:06.000Z</time>
      </trkpt>
      <trkpt lat="47.45254" lon="6.91399">
        <ele>574</ele>
        <time>2015-04-06T09:32:07.000Z</time>
      </trkpt>
      <trkpt lat="47.45261" lon="6.91401">
        <ele>574</ele>
        <time>2015-04-06T09:32:08.000Z</time>
      </trkpt>
      <trkpt lat="47.45268" lon="6.91401">
        <ele>574</ele>
        <time>2015-04-06T09:32:09.000Z</time>
      </trkpt>
      <trkpt lat="47.45276" lon="6.91401">
        <ele>574</ele>
        <time>2015-04-06T09:32:10.000Z</time>
      </trkpt>
      <trkpt lat="47.45285" lon="6.91402">
        <ele>574</ele>
        <time>2015-04-06T09:32:11.000Z</time>
      </trkpt>
      <trkpt lat="47.45292" lon="6.91406">
        <ele>573</ele>
        <time>2015-04-06T09:32:12.000Z</time>
      </trkpt>
      <trkpt lat="47.45298" lon="6.91408">
        <ele>573</ele>
        <time>2015-04-06T09:32:13.000Z</time>
      </trkpt>
      <trkpt lat="47.45302" lon="6.9141">
        <ele>573</ele>
        <time>2015-04-06T09:32:14.000Z</time>
      </trkpt>
      <trkpt lat="47.45307" lon="6.91412">
        <ele>573</ele>
        <time>2015-04-06T09:32:15.000Z</time>
      </trkpt>
      <trkpt lat="47.45312" lon="6.91414">
        <ele>573</ele>
        <time>2015-04-06T09:32:16.000Z</time>
      </trkpt>
      <trkpt lat="47.45318" lon="6.91414">
        <ele>573</ele>
        <time>2015-04-06T09:32:17.000Z</time>
      </trkpt>
      <trkpt lat="47.45323" lon="6.91415">
        <ele>572</ele>
        <time>2015-04-06T09:32:18.000Z</time>
      </trkpt>
      <trkpt lat="47.4533" lon="6.91416">
        <ele>572</ele>
        <time>2015-04-06T09:32:19.000Z</time>
      </trkpt>
      <trkpt lat="47.45338" lon="6.91418">
        <ele>572</ele>
        <time>2015-04-06T09:32:20.000Z</time>
      </trkpt>
      <trkpt lat="47.45344" lon="6.91417">
        <ele>572</ele>
        <time>2015-04-06T09:32:21.000Z</time>
      </trkpt>
      <trkpt lat="47.45348" lon="6.91415">
        <ele>571</ele>
        <time>2015-04-06T09:32:22.000Z</time>
      </trkpt>
      <trkpt lat="47.45352" lon="6.91415">
        <ele>570</ele>
        <time>2015-04-06T09:32:23.000Z</time>
      </trkpt>
      <trkpt lat="47.45357" lon="6.91415">
        <ele>570</ele>
        <time>2015-04-06T09:32:24.000Z</time>
      </trkpt>
      <trkpt lat="47.45365" lon="6.91416">
        <ele>570</ele>
        <time>2015-04-06T09:32:25.001Z</time>
      </trkpt>
      <trkpt lat="47.45369" lon="6.91414">
        <ele>569</ele>
        <time>2015-04-06T09:32:26.000Z</time>
      </trkpt>
      <trkpt lat="47.45374" lon="6.91416">
        <ele>569</ele>
        <time>2015-04-06T09:32:27.000Z</time>
      </trkpt>
      <trkpt lat="47.45379" lon="6.91415">
        <ele>569</ele>
        <time>2015-04-06T09:32:28.000Z</time>
      </trkpt>
      <trkpt lat="47.45386" lon="6.91415">
        <ele>569</ele>
        <time>2015-04-06T09:32:29.000Z</time>
      </trkpt>
      <trkpt lat="47.45392" lon="6.91419">
        <ele>571</ele>
        <time>2015-04-06T09:32:30.000Z</time>
      </trkpt>
      <trkpt lat="47.45397" lon="6.91419">
        <ele>571</ele>
        <time>2015-04-06T09:32:31.000Z</time>
      </trkpt>
      <trkpt lat="47.45408" lon="6.91421">
        <ele>570</ele>
        <time>2015-04-06T09:32:32.000Z</time>
      </trkpt>
      <trkpt lat="47.45413" lon="6.91422">
        <ele>570</ele>
        <time>2015-04-06T09:32:33.000Z</time>
      </trkpt>
      <trkpt lat="47.45418" lon="6.91424">
        <ele>568</ele>
        <time>2015-04-06T09:32:34.000Z</time>
      </trkpt>
      <trkpt lat="47.45427" lon="6.91425">
        <ele>568</ele>
        <time>2015-04-06T09:32:35.000Z</time>
      </trkpt>
      <trkpt lat="47.45432" lon="6.91424">
        <ele>567</ele>
        <time>2015-04-06T09:32:36.000Z</time>
      </trkpt>
      <trkpt lat="47.45437" lon="6.91423">
        <ele>567</ele>
        <time>2015-04-06T09:32:37.000Z</time>
      </trkpt>
      <trkpt lat="47.45442" lon="6.91423">
        <ele>567</ele>
        <time>2015-04-06T09:32:38.000Z</time>
      </trkpt>
      <trkpt lat="47.45447" lon="6.91422">
        <ele>566</ele>
        <time>2015-04-06T09:32:39.000Z</time>
      </trkpt>
      <trkpt lat="47.45452" lon="6.91423">
        <ele>566</ele>
        <time>2015-04-06T09:32:40.000Z</time>
      </trkpt>
      <trkpt lat="47.45454" lon="6.91423">
        <ele>565</ele>
        <time>2015-04-06T09:32:41.000Z</time>
      </trkpt>
      <trkpt lat="47.45459" lon="6.91428">
        <ele>565</ele>
        <time>2015-04-06T09:32:42.000Z</time>
      </trkpt>
      <trkpt lat="47.45467" lon="6.91434">
        <ele>565</ele>
        <time>2015-04-06T09:32:43.000Z</time>
      </trkpt>
      <trkpt lat="47.45475" lon="6.91437">
        <ele>564</ele>
        <time>2015-04-06T09:32:44.000Z</time>
      </trkpt>
      <trkpt lat="47.45481" lon="6.91439">
        <ele>564</ele>
        <time>2015-04-06T09:32:45.000Z</time>
      </trkpt>
      <trkpt lat="47.45486" lon="6.91439">
        <ele>563</ele>
        <time>2015-04-06T09:32:46.000Z</time>
      </trkpt>
      <trkpt lat="47.45491" lon="6.91442">
        <ele>563</ele>
        <time>2015-04-06T09:32:47.000Z</time>
      </trkpt>
      <trkpt lat="47.45496" lon="6.91441">
        <ele>563</ele>
        <time>2015-04-06T09:32:48.000Z</time>
      </trkpt>
      <trkpt lat="47.45499" lon="6.91445">
        <ele>563</ele>
        <time>2015-04-06T09:32:49.000Z</time>
      </trkpt>
      <trkpt lat="47.45507" lon="6.91448">
        <ele>555</ele>
        <time>2015-04-06T09:32:50.000Z</time>
      </trkpt>
      <trkpt lat="47.45515" lon="6.91445">
        <ele>555</ele>
        <time>2015-04-06T09:32:51.000Z</time>
      </trkpt>
      <trkpt lat="47.45522" lon="6.91447">
        <ele>554</ele>
        <time>2015-04-06T09:32:52.000Z</time>
      </trkpt>
      <trkpt lat="47.45526" lon="6.91447">
        <ele>554</ele>
        <time>2015-04-06T09:32:53.001Z</time>
      </trkpt>
      <trkpt lat="47.45527" lon="6.91454">
        <ele>554</ele>
        <time>2015-04-06T09:32:54.000Z</time>
      </trkpt>
      <trkpt lat="47.45531" lon="6.91459">
        <ele>554</ele>
        <time>2015-04-06T09:32:55.000Z</time>
      </trkpt>
      <trkpt lat="47.45536" lon="6.91463">
        <ele>554</ele>
        <time>2015-04-06T09:32:56.000Z</time>
      </trkpt>
      <trkpt lat="47.4554" lon="6.91467">
        <ele>553</ele>
        <time>2015-04-06T09:32:57.000Z</time>
      </trkpt>
      <trkpt lat="47.4555" lon="6.9148">
        <ele>552</ele>
        <time>2015-04-06T09:32:58.000Z</time>
      </trkpt>
      <trkpt lat="47.45554" lon="6.91487">
        <ele>552</ele>
        <time>2015-04-06T09:32:59.000Z</time>
      </trkpt>
      <trkpt lat="47.4556" lon="6.91492">
        <ele>551</ele>
        <time>2015-04-06T09:33:00.000Z</time>
      </trkpt>
      <trkpt lat="47.45565" lon="6.91497">
        <ele>550</ele>
        <time>2015-04-06T09:33:01.000Z</time>
      </trkpt>
      <trkpt lat="47.45569" lon="6.91504">
        <ele>552</ele>
        <time>2015-04-06T09:33:02.000Z</time>
      </trkpt>
      <trkpt lat="47.45571" lon="6.91508">
        <ele>551</ele>
        <time>2015-04-06T09:33:03.000Z</time>
      </trkpt>
      <trkpt lat="47.45679" lon="6.91588">
        <ele>546</ele>
        <time>2015-04-06T09:33:23.000Z</time>
      </trkpt>
      <trkpt lat="47.4567" lon="6.91593">
        <ele>546</ele>
        <time>2015-04-06T09:33:24.000Z</time>
      </trkpt>
      <trkpt lat="47.45668" lon="6.91596">
        <ele>546</ele>
        <time>2015-04-06T09:33:30.000Z</time>
      </trkpt>
      <trkpt lat="47.45665" lon="6.91597">
        <ele>548</ele>
        <time>2015-04-06T09:33:31.000Z</time>
      </trkpt>
      <trkpt lat="47.45662" lon="6.91598">
        <ele>548</ele>
        <time>2015-04-06T09:33:33.000Z</time>
      </trkpt>
      <trkpt lat="47.45659" lon="6.91598">
        <ele>548</ele>
        <time>2015-04-06T09:33:34.000Z</time>
      </trkpt>
      <trkpt lat="47.45656" lon="6.91596">
        <ele>548</ele>
        <time>2015-04-06T09:33:36.000Z</time>
      </trkpt>
      <trkpt lat="47.45655" lon="6.91592">
        <ele>548</ele>
        <time>2015-04-06T09:33:37.000Z</time>
      </trkpt>
      <trkpt lat="47.45654" lon="6.91589">
        <ele>548</ele>
        <time>2015-04-06T09:33:38.000Z</time>
      </trkpt>
      <trkpt lat="47.45652" lon="6.91585">
        <ele>548</ele>
        <time>2015-04-06T09:33:39.000Z</time>
      </trkpt>
      <trkpt lat="47.45654" lon="6.9158">
        <ele>545</ele>
        <time>2015-04-06T09:33:41.000Z</time>
      </trkpt>
      <trkpt lat="47.45655" lon="6.91578">
        <ele>545</ele>
        <time>2015-04-06T09:33:42.000Z</time>
      </trkpt>
      <trkpt lat="47.45657" lon="6.91573">
        <ele>545</ele>
        <time>2015-04-06T09:33:44.000Z</time>
      </trkpt>
      <trkpt lat="47.45658" lon="6.91571">
        <ele>545</ele>
        <time>2015-04-06T09:33:45.000Z</time>
      </trkpt>
      <trkpt lat="47.4566" lon="6.91567">
        <ele>545</ele>
        <time>2015-04-06T09:33:46.000Z</time>
      </trkpt>
      <trkpt lat="47.45662" lon="6.91562">
        <ele>545</ele>
        <time>2015-04-06T09:33:47.000Z</time>
      </trkpt>
      <trkpt lat="47.45664" lon="6.91558">
        <ele>545</ele>
        <time>2015-04-06T09:33:48.000Z</time>
      </trkpt>
      <trkpt lat="47.45666" lon="6.91554">
        <ele>545</ele>
        <time>2015-04-06T09:33:49.000Z</time>
      </trkpt>
      <trkpt lat="47.45667" lon="6.9155">
        <ele>545</ele>
        <time>2015-04-06T09:33:50.000Z</time>
      </trkpt>
      <trkpt lat="47.45667" lon="6.91546">
        <ele>542</ele>
        <time>2015-04-06T09:33:51.000Z</time>
      </trkpt>
      <trkpt lat="47.45668" lon="6.91543">
        <ele>542</ele>
        <time>2015-04-06T09:33:52.000Z</time>
      </trkpt>
      <trkpt lat="47.4567" lon="6.91539">
        <ele>541</ele>
        <time>2015-04-06T09:33:53.000Z</time>
      </trkpt>
      <trkpt lat="47.45672" lon="6.91537">
        <ele>541</ele>
        <time>2015-04-06T09:33:54.000Z</time>
      </trkpt>
      <trkpt lat="47.45673" lon="6.91535">
        <ele>541</ele>
        <time>2015-04-06T09:33:55.000Z</time>
      </trkpt>
      <trkpt lat="47.45675" lon="6.91533">
        <ele>541</ele>
        <time>2015-04-06T09:33:56.000Z</time>
      </trkpt>
      <trkpt lat="47.45677" lon="6.91531">
        <ele>541</ele>
        <time>2015-04-06T09:33:57.000Z</time>
      </trkpt>
      <trkpt lat="47.45679" lon="6.91529">
        <ele>541</ele>
        <time>2015-04-06T09:33:58.000Z</time>
      </trkpt>
      <trkpt lat="47.45682" lon="6.91527">
        <ele>541</ele>
        <time>2015-04-06T09:33:59.000Z</time>
      </trkpt>
      <trkpt lat="47.45685" lon="6.91525">
        <ele>541</ele>
        <time>2015-04-06T09:34:00.000Z</time>
      </trkpt>
      <trkpt lat="47.45687" lon="6.91523">
        <ele>541</ele>
        <time>2015-04-06T09:34:01.000Z</time>
      </trkpt>
      <trkpt lat="47.4569" lon="6.91522">
        <ele>541</ele>
        <time>2015-04-06T09:34:02.000Z</time>
      </trkpt>
      <trkpt lat="47.45692" lon="6.9152">
        <ele>541</ele>
        <time>2015-04-06T09:34:03.000Z</time>
      </trkpt>
      <trkpt lat="47.45694" lon="6.91519">
        <ele>541</ele>
        <time>2015-04-06T09:34:04.000Z</time>
      </trkpt>
      <trkpt lat="47.45697" lon="6.91517">
        <ele>541</ele>
        <time>2015-04-06T09:34:05.000Z</time>
      </trkpt>
      <trkpt lat="47.45699" lon="6.91515">
        <ele>541</ele>
        <time>2015-04-06T09:34:06.000Z</time>
      </trkpt>
      <trkpt lat="47.45701" lon="6.91513">
        <ele>541</ele>
        <time>2015-04-06T09:34:07.000Z</time>
      </trkpt>
      <trkpt lat="47.45703" lon="6.9151">
        <ele>541</ele>
        <time>2015-04-06T09:34:08.000Z</time>
      </trkpt>
      <trkpt lat="47.45705" lon="6.91507">
        <ele>541</ele>
        <time>2015-04-06T09:34:09.000Z</time>
      </trkpt>
      <trkpt lat="47.45707" lon="6.91502">
        <ele>541</ele>
        <time>2015-04-06T09:34:11.000Z</time>
      </trkpt>
      <trkpt lat="47.45709" lon="6.91499">
        <ele>537</ele>
        <time>2015-04-06T09:34:12.000Z</time>
      </trkpt>
      <trkpt lat="47.45711" lon="6.91497">
        <ele>537</ele>
        <time>2015-04-06T09:34:13.000Z</time>
      </trkpt>
      <trkpt lat="47.45713" lon="6.91493">
        <ele>537</ele>
        <time>2015-04-06T09:34:14.000Z</time>
      </trkpt>
      <trkpt lat="47.45727" lon="6.91484">
        <ele>537</ele>
        <time>2015-04-06T09:34:15.000Z</time>
      </trkpt>
      <trkpt lat="47.45733" lon="6.91479">
        <ele>537</ele>
        <time>2015-04-06T09:34:16.000Z</time>
      </trkpt>
      <trkpt lat="47.45736" lon="6.91475">
        <ele>537</ele>
        <time>2015-04-06T09:34:17.000Z</time>
      </trkpt>
      <trkpt lat="47.45739" lon="6.91471">
        <ele>537</ele>
        <time>2015-04-06T09:34:18.000Z</time>
      </trkpt>
      <trkpt lat="47.45743" lon="6.91467">
        <ele>537</ele>
        <time>2015-04-06T09:34:19.000Z</time>
      </trkpt>
      <trkpt lat="47.45745" lon="6.9146">
        <ele>536</ele>
        <time>2015-04-06T09:34:20.000Z</time>
      </trkpt>
      <trkpt lat="47.45748" lon="6.91455">
        <ele>536</ele>
        <time>2015-04-06T09:34:21.000Z</time>
      </trkpt>
      <trkpt lat="47.45749" lon="6.9145">
        <ele>535</ele>
        <time>2015-04-06T09:34:22.000Z</time>
      </trkpt>
      <trkpt lat="47.45751" lon="6.91443">
        <ele>534</ele>
        <time>2015-04-06T09:34:23.000Z</time>
      </trkpt>
      <trkpt lat="47.45751" lon="6.91436">
        <ele>533</ele>
        <time>2015-04-06T09:34:24.000Z</time>
      </trkpt>
      <trkpt lat="47.45755" lon="6.91431">
        <ele>533</ele>
        <time>2015-04-06T09:34:25.000Z</time>
      </trkpt>
      <trkpt lat="47.45758" lon="6.91426">
        <ele>533</ele>
        <time>2015-04-06T09:34:26.000Z</time>
      </trkpt>
      <trkpt lat="47.4576" lon="6.91422">
        <ele>533</ele>
        <time>2015-04-06T09:34:27.000Z</time>
      </trkpt>
      <trkpt lat="47.45763" lon="6.91418">
        <ele>533</ele>
        <time>2015-04-06T09:34:28.000Z</time>
      </trkpt>
      <trkpt lat="47.45767" lon="6.91414">
        <ele>527</ele>
        <time>2015-04-06T09:34:29.000Z</time>
      </trkpt>
      <trkpt lat="47.45779" lon="6.9141">
        <ele>525</ele>
        <time>2015-04-06T09:34:30.000Z</time>
      </trkpt>
      <trkpt lat="47.45783" lon="6.91411">
        <ele>524</ele>
        <time>2015-04-06T09:34:31.000Z</time>
      </trkpt>
      <trkpt lat="47.45787" lon="6.91414">
        <ele>524</ele>
        <time>2015-04-06T09:34:32.000Z</time>
      </trkpt>
      <trkpt lat="47.45794" lon="6.91418">
        <ele>532</ele>
        <time>2015-04-06T09:34:33.000Z</time>
      </trkpt>
      <trkpt lat="47.45798" lon="6.91418">
        <ele>532</ele>
        <time>2015-04-06T09:34:34.000Z</time>
      </trkpt>
      <trkpt lat="47.45801" lon="6.91421">
        <ele>532</ele>
        <time>2015-04-06T09:34:35.000Z</time>
      </trkpt>
      <trkpt lat="47.45801" lon="6.91419">
        <ele>532</ele>
        <time>2015-04-06T09:34:36.000Z</time>
      </trkpt>
      <trkpt lat="47.45806" lon="6.91422">
        <ele>532</ele>
        <time>2015-04-06T09:34:37.000Z</time>
      </trkpt>
      <trkpt lat="47.45811" lon="6.91421">
        <ele>531</ele>
        <time>2015-04-06T09:34:38.000Z</time>
      </trkpt>
      <trkpt lat="47.45821" lon="6.91423">
        <ele>530</ele>
        <time>2015-04-06T09:34:39.000Z</time>
      </trkpt>
      <trkpt lat="47.45826" lon="6.91424">
        <ele>529</ele>
        <time>2015-04-06T09:34:40.000Z</time>
      </trkpt>
      <trkpt lat="47.4583" lon="6.91424">
        <ele>529</ele>
        <time>2015-04-06T09:34:41.001Z</time>
      </trkpt>
      <trkpt lat="47.45835" lon="6.91425">
        <ele>529</ele>
        <time>2015-04-06T09:34:42.000Z</time>
      </trkpt>
      <trkpt lat="47.4584" lon="6.91426">
        <ele>529</ele>
        <time>2015-04-06T09:34:43.000Z</time>
      </trkpt>
      <trkpt lat="47.45845" lon="6.91425">
        <ele>530</ele>
        <time>2015-04-06T09:34:44.000Z</time>
      </trkpt>
      <trkpt lat="47.45851" lon="6.91425">
        <ele>530</ele>
        <time>2015-04-06T09:34:45.000Z</time>
      </trkpt>
      <trkpt lat="47.45856" lon="6.91425">
        <ele>531</ele>
        <time>2015-04-06T09:34:46.000Z</time>
      </trkpt>
      <trkpt lat="47.45861" lon="6.91425">
        <ele>531</ele>
        <time>2015-04-06T09:34:47.000Z</time>
      </trkpt>
      <trkpt lat="47.45866" lon="6.91425">
        <ele>531</ele>
        <time>2015-04-06T09:34:48.000Z</time>
      </trkpt>
      <trkpt lat="47.45871" lon="6.91425">
        <ele>532</ele>
        <time>2015-04-06T09:34:49.000Z</time>
      </trkpt>
      <trkpt lat="47.45875" lon="6.91425">
        <ele>532</ele>
        <time>2015-04-06T09:34:50.000Z</time>
      </trkpt>
      <trkpt lat="47.4588" lon="6.91424">
        <ele>532</ele>
        <time>2015-04-06T09:34:51.000Z</time>
      </trkpt>
      <trkpt lat="47.45885" lon="6.91423">
        <ele>532</ele>
        <time>2015-04-06T09:34:52.000Z</time>
      </trkpt>
      <trkpt lat="47.45889" lon="6.91423">
        <ele>532</ele>
        <time>2015-04-06T09:34:53.000Z</time>
      </trkpt>
      <trkpt lat="47.45893" lon="6.91421">
        <ele>532</ele>
        <time>2015-04-06T09:34:54.000Z</time>
      </trkpt>
      <trkpt lat="47.45898" lon="6.9142">
        <ele>531</ele>
        <time>2015-04-06T09:34:55.000Z</time>
      </trkpt>
      <trkpt lat="47.45903" lon="6.91418">
        <ele>531</ele>
        <time>2015-04-06T09:34:56.000Z</time>
      </trkpt>
      <trkpt lat="47.45909" lon="6.91415">
        <ele>527</ele>
        <time>2015-04-06T09:34:57.000Z</time>
      </trkpt>
      <trkpt lat="47.45913" lon="6.91413">
        <ele>528</ele>
        <time>2015-04-06T09:34:58.000Z</time>
      </trkpt>
      <trkpt lat="47.45916" lon="6.91409">
        <ele>527</ele>
        <time>2015-04-06T09:34:59.000Z</time>
      </trkpt>
      <trkpt lat="47.45918" lon="6.91406">
        <ele>528</ele>
        <time>2015-04-06T09:35:00.000Z</time>
      </trkpt>
      <trkpt lat="47.45921" lon="6.91403">
        <ele>528</ele>
        <time>2015-04-06T09:35:01.000Z</time>
      </trkpt>
      <trkpt lat="47.45923" lon="6.914">
        <ele>528</ele>
        <time>2015-04-06T09:35:02.000Z</time>
      </trkpt>
      <trkpt lat="47.45926" lon="6.91397">
        <ele>527</ele>
        <time>2015-04-06T09:35:03.000Z</time>
      </trkpt>
      <trkpt lat="47.4593" lon="6.91395">
        <ele>527</ele>
        <time>2015-04-06T09:35:04.000Z</time>
      </trkpt>
      <trkpt lat="47.45933" lon="6.91393">
        <ele>527</ele>
        <time>2015-04-06T09:35:05.000Z</time>
      </trkpt>
      <trkpt lat="47.45937" lon="6.91392">
        <ele>527</ele>
        <time>2015-04-06T09:35:06.000Z</time>
      </trkpt>
      <trkpt lat="47.45939" lon="6.91391">
        <ele>527</ele>
        <time>2015-04-06T09:35:07.000Z</time>
      </trkpt>
      <trkpt lat="47.45943" lon="6.9139">
        <ele>527</ele>
        <time>2015-04-06T09:35:08.000Z</time>
      </trkpt>
      <trkpt lat="47.45945" lon="6.91389">
        <ele>527</ele>
        <time>2015-04-06T09:35:09.000Z</time>
      </trkpt>
      <trkpt lat="47.45948" lon="6.91387">
        <ele>527</ele>
        <time>2015-04-06T09:35:10.000Z</time>
      </trkpt>
      <trkpt lat="47.45952" lon="6.91386">
        <ele>527</ele>
        <time>2015-04-06T09:35:11.000Z</time>
      </trkpt>
      <trkpt lat="47.45955" lon="6.91384">
        <ele>527</ele>
        <time>2015-04-06T09:35:12.000Z</time>
      </trkpt>
      <trkpt lat="47.45958" lon="6.91384">
        <ele>527</ele>
        <time>2015-04-06T09:35:13.000Z</time>
      </trkpt>
      <trkpt lat="47.45961" lon="6.91383">
        <ele>527</ele>
        <time>2015-04-06T09:35:14.000Z</time>
      </trkpt>
      <trkpt lat="47.45964" lon="6.91382">
        <ele>527</ele>
        <time>2015-04-06T09:35:15.000Z</time>
      </trkpt>
      <trkpt lat="47.45966" lon="6.91381">
        <ele>527</ele>
        <time>2015-04-06T09:35:16.000Z</time>
      </trkpt>
      <trkpt lat="47.45969" lon="6.9138">
        <ele>527</ele>
        <time>2015-04-06T09:35:17.000Z</time>
      </trkpt>
      <trkpt lat="47.45972" lon="6.91379">
        <ele>527</ele>
        <time>2015-04-06T09:35:19.000Z</time>
      </trkpt>
      <trkpt lat="47.45973" lon="6.91378">
        <ele>527</ele>
        <time>2015-04-06T09:35:20.000Z</time>
      </trkpt>
      <trkpt lat="47.45977" lon="6.9138">
        <ele>528</ele>
        <time>2015-04-06T09:35:24.000Z</time>
      </trkpt>
      <trkpt lat="47.45978" lon="6.9138">
        <ele>528</ele>
        <time>2015-04-06T09:35:25.000Z</time>
      </trkpt>
      <trkpt lat="47.45981" lon="6.91381">
        <ele>528</ele>
        <time>2015-04-06T09:35:29.000Z</time>
      </trkpt>
      <trkpt lat="47.45983" lon="6.91381">
        <ele>528</ele>
        <time>2015-04-06T09:35:30.000Z</time>
      </trkpt>
      <trkpt lat="47.45987" lon="6.91378">
        <ele>528</ele>
        <time>2015-04-06T09:35:33.000Z</time>
      </trkpt>
      <trkpt lat="47.45989" lon="6.91377">
        <ele>528</ele>
        <time>2015-04-06T09:35:34.000Z</time>
      </trkpt>
      <trkpt lat="47.45991" lon="6.91376">
        <ele>528</ele>
        <time>2015-04-06T09:35:35.000Z</time>
      </trkpt>
      <trkpt lat="47.45994" lon="6.91376">
        <ele>528</ele>
        <time>2015-04-06T09:35:36.000Z</time>
      </trkpt>
      <trkpt lat="47.45996" lon="6.91371">
        <ele>528</ele>
        <time>2015-04-06T09:35:41.000Z</time>
      </trkpt>
      <trkpt lat="47.45999" lon="6.91368">
        <ele>528</ele>
        <time>2015-04-06T09:35:42.000Z</time>
      </trkpt>
      <trkpt lat="47.46001" lon="6.91366">
        <ele>531</ele>
        <time>2015-04-06T09:35:43.000Z</time>
      </trkpt>
      <trkpt lat="47.46003" lon="6.91364">
        <ele>531</ele>
        <time>2015-04-06T09:35:44.000Z</time>
      </trkpt>
      <trkpt lat="47.46006" lon="6.91362">
        <ele>531</ele>
        <time>2015-04-06T09:35:45.000Z</time>
      </trkpt>
      <trkpt lat="47.4601" lon="6.9136">
        <ele>531</ele>
        <time>2015-04-06T09:35:46.000Z</time>
      </trkpt>
      <trkpt lat="47.46013" lon="6.91359">
        <ele>531</ele>
        <time>2015-04-06T09:35:47.000Z</time>
      </trkpt>
      <trkpt lat="47.46017" lon="6.91357">
        <ele>531</ele>
        <time>2015-04-06T09:35:48.000Z</time>
      </trkpt>
      <trkpt lat="47.4602" lon="6.91354">
        <ele>531</ele>
        <time>2015-04-06T09:35:49.000Z</time>
      </trkpt>
      <trkpt lat="47.46024" lon="6.91351">
        <ele>531</ele>
        <time>2015-04-06T09:35:50.000Z</time>
      </trkpt>
      <trkpt lat="47.46027" lon="6.91347">
        <ele>531</ele>
        <time>2015-04-06T09:35:51.000Z</time>
      </trkpt>
      <trkpt lat="47.4603" lon="6.91343">
        <ele>531</ele>
        <time>2015-04-06T09:35:52.000Z</time>
      </trkpt>
      <trkpt lat="47.46034" lon="6.9134">
        <ele>530</ele>
        <time>2015-04-06T09:35:53.000Z</time>
      </trkpt>
      <trkpt lat="47.46037" lon="6.91336">
        <ele>530</ele>
        <time>2015-04-06T09:35:54.000Z</time>
      </trkpt>
      <trkpt lat="47.46039" lon="6.91333">
        <ele>525</ele>
        <time>2015-04-06T09:35:55.000Z</time>
      </trkpt>
      <trkpt lat="47.46041" lon="6.9133">
        <ele>525</ele>
        <time>2015-04-06T09:35:56.000Z</time>
      </trkpt>
      <trkpt lat="47.46043" lon="6.91327">
        <ele>525</ele>
        <time>2015-04-06T09:35:57.000Z</time>
      </trkpt>
      <trkpt lat="47.46046" lon="6.91324">
        <ele>525</ele>
        <time>2015-04-06T09:35:58.000Z</time>
      </trkpt>
      <trkpt lat="47.46048" lon="6.91322">
        <ele>525</ele>
        <time>2015-04-06T09:35:59.000Z</time>
      </trkpt>
      <trkpt lat="47.46051" lon="6.91318">
        <ele>525</ele>
        <time>2015-04-06T09:36:00.000Z</time>
      </trkpt>
      <trkpt lat="47.46055" lon="6.91314">
        <ele>525</ele>
        <time>2015-04-06T09:36:01.000Z</time>
      </trkpt>
      <trkpt lat="47.46058" lon="6.91309">
        <ele>525</ele>
        <time>2015-04-06T09:36:02.000Z</time>
      </trkpt>
      <trkpt lat="47.46069" lon="6.91294">
        <ele>524</ele>
        <time>2015-04-06T09:36:03.000Z</time>
      </trkpt>
      <trkpt lat="47.46073" lon="6.91287">
        <ele>523</ele>
        <time>2015-04-06T09:36:04.000Z</time>
      </trkpt>
      <trkpt lat="47.46077" lon="6.91281">
        <ele>523</ele>
        <time>2015-04-06T09:36:05.000Z</time>
      </trkpt>
      <trkpt lat="47.46081" lon="6.91274">
        <ele>522</ele>
        <time>2015-04-06T09:36:06.000Z</time>
      </trkpt>
      <trkpt lat="47.46086" lon="6.91266">
        <ele>521</ele>
        <time>2015-04-06T09:36:07.000Z</time>
      </trkpt>
      <trkpt lat="47.46088" lon="6.9126">
        <ele>520</ele>
        <time>2015-04-06T09:36:08.000Z</time>
      </trkpt>
      <trkpt lat="47.46092" lon="6.91252">
        <ele>520</ele>
        <time>2015-04-06T09:36:09.000Z</time>
      </trkpt>
      <trkpt lat="47.46094" lon="6.91247">
        <ele>517</ele>
        <time>2015-04-06T09:36:10.000Z</time>
      </trkpt>
      <trkpt lat="47.46097" lon="6.91242">
        <ele>516</ele>
        <time>2015-04-06T09:36:11.000Z</time>
      </trkpt>
      <trkpt lat="47.46099" lon="6.91237">
        <ele>515</ele>
        <time>2015-04-06T09:36:12.000Z</time>
      </trkpt>
      <trkpt lat="47.46101" lon="6.91234">
        <ele>515</ele>
        <time>2015-04-06T09:36:13.000Z</time>
      </trkpt>
      <trkpt lat="47.46103" lon="6.9123">
        <ele>514</ele>
        <time>2015-04-06T09:36:14.000Z</time>
      </trkpt>
      <trkpt lat="47.46106" lon="6.91227">
        <ele>514</ele>
        <time>2015-04-06T09:37:33.000Z</time>
      </trkpt>
      <trkpt lat="47.46107" lon="6.91227">
        <ele>514</ele>
        <time>2015-04-06T09:37:34.000Z</time>
      </trkpt>
      <trkpt lat="47.4611" lon="6.91224">
        <ele>513</ele>
        <time>2015-04-06T09:37:37.000Z</time>
      </trkpt>
      <trkpt lat="47.46111" lon="6.91223">
        <ele>513</ele>
        <time>2015-04-06T09:37:38.000Z</time>
      </trkpt>
      <trkpt lat="47.46112" lon="6.91216">
        <ele>513</ele>
        <time>2015-04-06T09:37:46.000Z</time>
      </trkpt>
      <trkpt lat="47.46119" lon="6.91212">
        <ele>512</ele>
        <time>2015-04-06T09:37:47.000Z</time>
      </trkpt>
      <trkpt lat="47.46123" lon="6.91209">
        <ele>512</ele>
        <time>2015-04-06T09:37:48.000Z</time>
      </trkpt>
      <trkpt lat="47.46124" lon="6.91207">
        <ele>512</ele>
        <time>2015-04-06T09:37:49.000Z</time>
      </trkpt>
      <trkpt lat="47.46121" lon="6.91199">
        <ele>511</ele>
        <time>2015-04-06T09:37:50.000Z</time>
      </trkpt>
      <trkpt lat="47.4612" lon="6.91193">
        <ele>511</ele>
        <time>2015-04-06T09:37:51.000Z</time>
      </trkpt>
      <trkpt lat="47.46119" lon="6.91189">
        <ele>511</ele>
        <time>2015-04-06T09:37:52.000Z</time>
      </trkpt>
      <trkpt lat="47.46122" lon="6.91186">
        <ele>511</ele>
        <time>2015-04-06T09:37:53.000Z</time>
      </trkpt>
      <trkpt lat="47.46125" lon="6.91183">
        <ele>510</ele>
        <time>2015-04-06T09:37:54.000Z</time>
      </trkpt>
      <trkpt lat="47.46126" lon="6.91178">
        <ele>510</ele>
        <time>2015-04-06T09:37:55.000Z</time>
      </trkpt>
      <trkpt lat="47.46128" lon="6.91175">
        <ele>510</ele>
        <time>2015-04-06T09:37:56.000Z</time>
      </trkpt>
      <trkpt lat="47.4613" lon="6.9117">
        <ele>510</ele>
        <time>2015-04-06T09:37:57.000Z</time>
      </trkpt>
      <trkpt lat="47.46135" lon="6.91162">
        <ele>504</ele>
        <time>2015-04-06T09:37:58.000Z</time>
      </trkpt>
      <trkpt lat="47.46134" lon="6.91153">
        <ele>503</ele>
        <time>2015-04-06T09:37:59.000Z</time>
      </trkpt>
      <trkpt lat="47.46138" lon="6.91145">
        <ele>503</ele>
        <time>2015-04-06T09:38:00.000Z</time>
      </trkpt>
      <trkpt lat="47.4614" lon="6.91135">
        <ele>502</ele>
        <time>2015-04-06T09:38:01.000Z</time>
      </trkpt>
      <trkpt lat="47.46141" lon="6.91124">
        <ele>502</ele>
        <time>2015-04-06T09:38:02.000Z</time>
      </trkpt>
      <trkpt lat="47.46143" lon="6.91114">
        <ele>501</ele>
        <time>2015-04-06T09:38:03.000Z</time>
      </trkpt>
      <trkpt lat="47.46146" lon="6.91104">
        <ele>500</ele>
        <time>2015-04-06T09:38:04.000Z</time>
      </trkpt>
      <trkpt lat="47.4615" lon="6.91095">
        <ele>499</ele>
        <time>2015-04-06T09:38:05.000Z</time>
      </trkpt>
      <trkpt lat="47.46152" lon="6.91087">
        <ele>498</ele>
        <time>2015-04-06T09:38:06.000Z</time>
      </trkpt>
      <trkpt lat="47.46156" lon="6.91078">
        <ele>494</ele>
        <time>2015-04-06T09:38:07.000Z</time>
      </trkpt>
      <trkpt lat="47.46161" lon="6.9107">
        <ele>494</ele>
        <time>2015-04-06T09:38:08.000Z</time>
      </trkpt>
      <trkpt lat="47.46165" lon="6.91063">
        <ele>493</ele>
        <time>2015-04-06T09:38:09.000Z</time>
      </trkpt>
      <trkpt lat="47.4617" lon="6.91056">
        <ele>491</ele>
        <time>2015-04-06T09:38:10.000Z</time>
      </trkpt>
      <trkpt lat="47.46178" lon="6.91049">
        <ele>490</ele>
        <time>2015-04-06T09:38:11.000Z</time>
      </trkpt>
      <trkpt lat="47.46182" lon="6.9104">
        <ele>489</ele>
        <time>2015-04-06T09:38:12.000Z</time>
      </trkpt>
      <trkpt lat="47.46186" lon="6.91031">
        <ele>489</ele>
        <time>2015-04-06T09:38:13.000Z</time>
      </trkpt>
      <trkpt lat="47.46191" lon="6.91019">
        <ele>488</ele>
        <time>2015-04-06T09:38:14.000Z</time>
      </trkpt>
      <trkpt lat="47.462" lon="6.91014">
        <ele>488</ele>
        <time>2015-04-06T09:38:15.000Z</time>
      </trkpt>
      <trkpt lat="47.46207" lon="6.91005">
        <ele>487</ele>
        <time>2015-04-06T09:38:16.000Z</time>
      </trkpt>
      <trkpt lat="47.46212" lon="6.90995">
        <ele>483</ele>
        <time>2015-04-06T09:38:17.000Z</time>
      </trkpt>
      <trkpt lat="47.46217" lon="6.90986">
        <ele>482</ele>
        <time>2015-04-06T09:38:18.000Z</time>
      </trkpt>
      <trkpt lat="47.46221" lon="6.90974">
        <ele>482</ele>
        <time>2015-04-06T09:38:19.000Z</time>
      </trkpt>
      <trkpt lat="47.46224" lon="6.90966">
        <ele>482</ele>
        <time>2015-04-06T09:38:20.000Z</time>
      </trkpt>
      <trkpt lat="47.46229" lon="6.90953">
        <ele>481</ele>
        <time>2015-04-06T09:38:21.000Z</time>
      </trkpt>
      <trkpt lat="47.46235" lon="6.90939">
        <ele>480</ele>
        <time>2015-04-06T09:38:22.000Z</time>
      </trkpt>
      <trkpt lat="47.4624" lon="6.90927">
        <ele>479</ele>
        <time>2015-04-06T09:38:23.000Z</time>
      </trkpt>
      <trkpt lat="47.46245" lon="6.90915">
        <ele>477</ele>
        <time>2015-04-06T09:38:24.000Z</time>
      </trkpt>
      <trkpt lat="47.46249" lon="6.90902">
        <ele>476</ele>
        <time>2015-04-06T09:38:25.000Z</time>
      </trkpt>
      <trkpt lat="47.46252" lon="6.90892">
        <ele>474</ele>
        <time>2015-04-06T09:38:26.000Z</time>
      </trkpt>
      <trkpt lat="47.46256" lon="6.90881">
        <ele>473</ele>
        <time>2015-04-06T09:38:27.000Z</time>
      </trkpt>
      <trkpt lat="47.46262" lon="6.90871">
        <ele>473</ele>
        <time>2015-04-06T09:38:28.000Z</time>
      </trkpt>
      <trkpt lat="47.46266" lon="6.90864">
        <ele>472</ele>
        <time>2015-04-06T09:38:29.000Z</time>
      </trkpt>
      <trkpt lat="47.46272" lon="6.90858">
        <ele>472</ele>
        <time>2015-04-06T09:38:30.000Z</time>
      </trkpt>
      <trkpt lat="47.46277" lon="6.90855">
        <ele>472</ele>
        <time>2015-04-06T09:38:31.000Z</time>
      </trkpt>
      <trkpt lat="47.46281" lon="6.90848">
        <ele>472</ele>
        <time>2015-04-06T09:38:32.000Z</time>
      </trkpt>
      <trkpt lat="47.46285" lon="6.90843">
        <ele>471</ele>
        <time>2015-04-06T09:38:33.000Z</time>
      </trkpt>
      <trkpt lat="47.4629" lon="6.90832">
        <ele>468</ele>
        <time>2015-04-06T09:38:34.000Z</time>
      </trkpt>
      <trkpt lat="47.46295" lon="6.90824">
        <ele>468</ele>
        <time>2015-04-06T09:38:35.000Z</time>
      </trkpt>
      <trkpt lat="47.46301" lon="6.90812">
        <ele>467</ele>
        <time>2015-04-06T09:38:36.000Z</time>
      </trkpt>
      <trkpt lat="47.46308" lon="6.90805">
        <ele>467</ele>
        <time>2015-04-06T09:38:37.000Z</time>
      </trkpt>
      <trkpt lat="47.46314" lon="6.90794">
        <ele>466</ele>
        <time>2015-04-06T09:38:38.000Z</time>
      </trkpt>
      <trkpt lat="47.4632" lon="6.90783">
        <ele>466</ele>
        <time>2015-04-06T09:38:39.000Z</time>
      </trkpt>
      <trkpt lat="47.46325" lon="6.90773">
        <ele>465</ele>
        <time>2015-04-06T09:38:40.000Z</time>
      </trkpt>
      <trkpt lat="47.46327" lon="6.9076">
        <ele>464</ele>
        <time>2015-04-06T09:38:41.000Z</time>
      </trkpt>
      <trkpt lat="47.4633" lon="6.9075">
        <ele>462</ele>
        <time>2015-04-06T09:38:42.000Z</time>
      </trkpt>
      <trkpt lat="47.46334" lon="6.90738">
        <ele>461</ele>
        <time>2015-04-06T09:38:43.000Z</time>
      </trkpt>
      <trkpt lat="47.46336" lon="6.90727">
        <ele>460</ele>
        <time>2015-04-06T09:38:44.000Z</time>
      </trkpt>
      <trkpt lat="47.46339" lon="6.90718">
        <ele>459</ele>
        <time>2015-04-06T09:38:45.000Z</time>
      </trkpt>
      <trkpt lat="47.46337" lon="6.90709">
        <ele>459</ele>
        <time>2015-04-06T09:38:46.000Z</time>
      </trkpt>
      <trkpt lat="47.46338" lon="6.90698">
        <ele>459</ele>
        <time>2015-04-06T09:38:47.000Z</time>
      </trkpt>
      <trkpt lat="47.46339" lon="6.90691">
        <ele>458</ele>
        <time>2015-04-06T09:38:48.000Z</time>
      </trkpt>
      <trkpt lat="47.46343" lon="6.9069">
        <ele>458</ele>
        <time>2015-04-06T09:38:49.000Z</time>
      </trkpt>
      <trkpt lat="47.46345" lon="6.90686">
        <ele>458</ele>
        <time>2015-04-06T09:38:50.000Z</time>
      </trkpt>
      <trkpt lat="47.46347" lon="6.9068">
        <ele>458</ele>
        <time>2015-04-06T09:38:51.000Z</time>
      </trkpt>
      <trkpt lat="47.46349" lon="6.90669">
        <ele>458</ele>
        <time>2015-04-06T09:38:52.000Z</time>
      </trkpt>
      <trkpt lat="47.46352" lon="6.90663">
        <ele>455</ele>
        <time>2015-04-06T09:38:53.000Z</time>
      </trkpt>
      <trkpt lat="47.46358" lon="6.9066">
        <ele>454</ele>
        <time>2015-04-06T09:38:54.000Z</time>
      </trkpt>
      <trkpt lat="47.46364" lon="6.90658">
        <ele>453</ele>
        <time>2015-04-06T09:38:55.000Z</time>
      </trkpt>
      <trkpt lat="47.46371" lon="6.90656">
        <ele>453</ele>
        <time>2015-04-06T09:38:56.000Z</time>
      </trkpt>
      <trkpt lat="47.46377" lon="6.90653">
        <ele>453</ele>
        <time>2015-04-06T09:38:57.000Z</time>
      </trkpt>
      <trkpt lat="47.46383" lon="6.9065">
        <ele>452</ele>
        <time>2015-04-06T09:38:58.000Z</time>
      </trkpt>
      <trkpt lat="47.4639" lon="6.90645">
        <ele>452</ele>
        <time>2015-04-06T09:38:59.000Z</time>
      </trkpt>
      <trkpt lat="47.46396" lon="6.9064">
        <ele>452</ele>
        <time>2015-04-06T09:39:00.000Z</time>
      </trkpt>
      <trkpt lat="47.46401" lon="6.90634">
        <ele>451</ele>
        <time>2015-04-06T09:39:01.000Z</time>
      </trkpt>
      <trkpt lat="47.46407" lon="6.90626">
        <ele>451</ele>
        <time>2015-04-06T09:39:02.000Z</time>
      </trkpt>
      <trkpt lat="47.46411" lon="6.90616">
        <ele>450</ele>
        <time>2015-04-06T09:39:03.000Z</time>
      </trkpt>
      <trkpt lat="47.46415" lon="6.90606">
        <ele>449</ele>
        <time>2015-04-06T09:39:04.000Z</time>
      </trkpt>
      <trkpt lat="47.4642" lon="6.90595">
        <ele>446</ele>
        <time>2015-04-06T09:39:05.000Z</time>
      </trkpt>
      <trkpt lat="47.46425" lon="6.90586">
        <ele>445</ele>
        <time>2015-04-06T09:39:06.000Z</time>
      </trkpt>
      <trkpt lat="47.46428" lon="6.90577">
        <ele>444</ele>
        <time>2015-04-06T09:39:07.000Z</time>
      </trkpt>
      <trkpt lat="47.46431" lon="6.90564">
        <ele>443</ele>
        <time>2015-04-06T09:39:08.000Z</time>
      </trkpt>
      <trkpt lat="47.46434" lon="6.90553">
        <ele>443</ele>
        <time>2015-04-06T09:39:09.000Z</time>
      </trkpt>
      <trkpt lat="47.46439" lon="6.90546">
        <ele>442</ele>
        <time>2015-04-06T09:39:10.000Z</time>
      </trkpt>
      <trkpt lat="47.4644" lon="6.90534">
        <ele>442</ele>
        <time>2015-04-06T09:39:11.000Z</time>
      </trkpt>
      <trkpt lat="47.46445" lon="6.90525">
        <ele>442</ele>
        <time>2015-04-06T09:39:12.000Z</time>
      </trkpt>
      <trkpt lat="47.46448" lon="6.90516">
        <ele>442</ele>
        <time>2015-04-06T09:39:13.000Z</time>
      </trkpt>
      <trkpt lat="47.46449" lon="6.90509">
        <ele>442</ele>
        <time>2015-04-06T09:39:14.000Z</time>
      </trkpt>
      <trkpt lat="47.46453" lon="6.905">
        <ele>442</ele>
        <time>2015-04-06T09:39:15.000Z</time>
      </trkpt>
      <trkpt lat="47.46456" lon="6.9049">
        <ele>439</ele>
        <time>2015-04-06T09:39:16.000Z</time>
      </trkpt>
      <trkpt lat="47.4646" lon="6.90478">
        <ele>439</ele>
        <time>2015-04-06T09:39:17.000Z</time>
      </trkpt>
      <trkpt lat="47.46462" lon="6.90467">
        <ele>439</ele>
        <time>2015-04-06T09:39:18.000Z</time>
      </trkpt>
      <trkpt lat="47.46465" lon="6.90455">
        <ele>438</ele>
        <time>2015-04-06T09:39:19.000Z</time>
      </trkpt>
      <trkpt lat="47.46469" lon="6.90444">
        <ele>438</ele>
        <time>2015-04-06T09:39:20.000Z</time>
      </trkpt>
      <trkpt lat="47.46472" lon="6.90432">
        <ele>437</ele>
        <time>2015-04-06T09:39:21.000Z</time>
      </trkpt>
      <trkpt lat="47.46474" lon="6.90419">
        <ele>437</ele>
        <time>2015-04-06T09:39:22.000Z</time>
      </trkpt>
      <trkpt lat="47.46477" lon="6.90407">
        <ele>434</ele>
        <time>2015-04-06T09:39:23.000Z</time>
      </trkpt>
      <trkpt lat="47.46478" lon="6.90394">
        <ele>434</ele>
        <time>2015-04-06T09:39:24.000Z</time>
      </trkpt>
      <trkpt lat="47.46478" lon="6.90385">
        <ele>434</ele>
        <time>2015-04-06T09:39:25.000Z</time>
      </trkpt>
      <trkpt lat="47.4648" lon="6.90377">
        <ele>434</ele>
        <time>2015-04-06T09:39:26.000Z</time>
      </trkpt>
      <trkpt lat="47.46483" lon="6.9037">
        <ele>433</ele>
        <time>2015-04-06T09:39:27.000Z</time>
      </trkpt>
      <trkpt lat="47.46491" lon="6.90362">
        <ele>432</ele>
        <time>2015-04-06T09:39:28.000Z</time>
      </trkpt>
      <trkpt lat="47.46497" lon="6.90357">
        <ele>432</ele>
        <time>2015-04-06T09:39:29.000Z</time>
      </trkpt>
      <trkpt lat="47.46503" lon="6.90351">
        <ele>429</ele>
        <time>2015-04-06T09:39:30.000Z</time>
      </trkpt>
      <trkpt lat="47.4651" lon="6.90344">
        <ele>429</ele>
        <time>2015-04-06T09:39:31.000Z</time>
      </trkpt>
      <trkpt lat="47.46517" lon="6.90338">
        <ele>429</ele>
        <time>2015-04-06T09:39:32.000Z</time>
      </trkpt>
      <trkpt lat="47.46523" lon="6.90329">
        <ele>426</ele>
        <time>2015-04-06T09:39:33.000Z</time>
      </trkpt>
      <trkpt lat="47.4653" lon="6.90322">
        <ele>426</ele>
        <time>2015-04-06T09:39:34.000Z</time>
      </trkpt>
      <trkpt lat="47.46536" lon="6.90314">
        <ele>425</ele>
        <time>2015-04-06T09:39:35.000Z</time>
      </trkpt>
      <trkpt lat="47.46542" lon="6.90306">
        <ele>425</ele>
        <time>2015-04-06T09:39:36.000Z</time>
      </trkpt>
      <trkpt lat="47.46548" lon="6.90298">
        <ele>425</ele>
        <time>2015-04-06T09:39:37.000Z</time>
      </trkpt>
      <trkpt lat="47.46556" lon="6.90289">
        <ele>424</ele>
        <time>2015-04-06T09:39:38.000Z</time>
      </trkpt>
      <trkpt lat="47.46562" lon="6.9028">
        <ele>424</ele>
        <time>2015-04-06T09:39:38.999Z</time>
      </trkpt>
      <trkpt lat="47.46568" lon="6.90269">
        <ele>423</ele>
        <time>2015-04-06T09:39:40.000Z</time>
      </trkpt>
      <trkpt lat="47.46574" lon="6.9026">
        <ele>422</ele>
        <time>2015-04-06T09:39:41.000Z</time>
      </trkpt>
      <trkpt lat="47.46581" lon="6.90249">
        <ele>420</ele>
        <time>2015-04-06T09:39:42.000Z</time>
      </trkpt>
      <trkpt lat="47.46584" lon="6.90244">
        <ele>419</ele>
        <time>2015-04-06T09:39:43.000Z</time>
      </trkpt>
      <trkpt lat="47.46584" lon="6.9024">
        <ele>419</ele>
        <time>2015-04-06T09:39:45.000Z</time>
      </trkpt>
      <trkpt lat="47.46589" lon="6.90239">
        <ele>419</ele>
        <time>2015-04-06T09:39:46.000Z</time>
      </trkpt>
      <trkpt lat="47.46587" lon="6.90234">
        <ele>419</ele>
        <time>2015-04-06T09:39:47.000Z</time>
      </trkpt>
      <trkpt lat="47.46585" lon="6.9023">
        <ele>418</ele>
        <time>2015-04-06T09:39:48.000Z</time>
      </trkpt>
      <trkpt lat="47.46588" lon="6.90227">
        <ele>418</ele>
        <time>2015-04-06T09:39:49.000Z</time>
      </trkpt>
      <trkpt lat="47.46592" lon="6.90219">
        <ele>418</ele>
        <time>2015-04-06T09:39:50.000Z</time>
      </trkpt>
      <trkpt lat="47.46595" lon="6.9021">
        <ele>417</ele>
        <time>2015-04-06T09:39:51.000Z</time>
      </trkpt>
      <trkpt lat="47.46597" lon="6.90202">
        <ele>417</ele>
        <time>2015-04-06T09:39:52.000Z</time>
      </trkpt>
      <trkpt lat="47.46601" lon="6.90195">
        <ele>417</ele>
        <time>2015-04-06T09:39:53.000Z</time>
      </trkpt>
      <trkpt lat="47.46608" lon="6.9019">
        <ele>417</ele>
        <time>2015-04-06T09:39:54.000Z</time>
      </trkpt>
      <trkpt lat="47.46615" lon="6.90184">
        <ele>417</ele>
        <time>2015-04-06T09:39:55.000Z</time>
      </trkpt>
      <trkpt lat="47.46622" lon="6.90176">
        <ele>417</ele>
        <time>2015-04-06T09:39:56.000Z</time>
      </trkpt>
      <trkpt lat="47.4663" lon="6.90174">
        <ele>417</ele>
        <time>2015-04-06T09:39:57.000Z</time>
      </trkpt>
      <trkpt lat="47.46638" lon="6.90171">
        <ele>417</ele>
        <time>2015-04-06T09:39:58.000Z</time>
      </trkpt>
      <trkpt lat="47.46644" lon="6.90167">
        <ele>415</ele>
        <time>2015-04-06T09:39:59.000Z</time>
      </trkpt>
      <trkpt lat="47.46651" lon="6.90163">
        <ele>415</ele>
        <time>2015-04-06T09:40:00.000Z</time>
      </trkpt>
      <trkpt lat="47.46657" lon="6.90158">
        <ele>415</ele>
        <time>2015-04-06T09:40:01.000Z</time>
      </trkpt>
      <trkpt lat="47.46664" lon="6.90154">
        <ele>415</ele>
        <time>2015-04-06T09:40:02.000Z</time>
      </trkpt>
      <trkpt lat="47.4667" lon="6.90149">
        <ele>417</ele>
        <time>2015-04-06T09:40:03.000Z</time>
      </trkpt>
      <trkpt lat="47.46676" lon="6.90146">
        <ele>417</ele>
        <time>2015-04-06T09:40:04.000Z</time>
      </trkpt>
      <trkpt lat="47.46681" lon="6.90138">
        <ele>418</ele>
        <time>2015-04-06T09:40:05.000Z</time>
      </trkpt>
      <trkpt lat="47.46688" lon="6.90132">
        <ele>418</ele>
        <time>2015-04-06T09:40:06.000Z</time>
      </trkpt>
      <trkpt lat="47.46697" lon="6.90128">
        <ele>418</ele>
        <time>2015-04-06T09:40:07.000Z</time>
      </trkpt>
      <trkpt lat="47.46702" lon="6.90123">
        <ele>418</ele>
        <time>2015-04-06T09:40:08.001Z</time>
      </trkpt>
      <trkpt lat="47.46708" lon="6.90124">
        <ele>418</ele>
        <time>2015-04-06T09:40:09.000Z</time>
      </trkpt>
      <trkpt lat="47.46711" lon="6.90122">
        <ele>419</ele>
        <time>2015-04-06T09:40:10.000Z</time>
      </trkpt>
      <trkpt lat="47.46715" lon="6.9012">
        <ele>419</ele>
        <time>2015-04-06T09:40:11.000Z</time>
      </trkpt>
      <trkpt lat="47.46719" lon="6.90119">
        <ele>419</ele>
        <time>2015-04-06T09:40:12.000Z</time>
      </trkpt>
      <trkpt lat="47.46724" lon="6.90118">
        <ele>419</ele>
        <time>2015-04-06T09:40:13.000Z</time>
      </trkpt>
      <trkpt lat="47.46725" lon="6.90117">
        <ele>419</ele>
        <time>2015-04-06T09:40:14.000Z</time>
      </trkpt>
      <trkpt lat="47.46727" lon="6.90117">
        <ele>419</ele>
        <time>2015-04-06T09:40:15.000Z</time>
      </trkpt>
      <trkpt lat="47.4673" lon="6.90115">
        <ele>419</ele>
        <time>2015-04-06T09:40:16.000Z</time>
      </trkpt>
      <trkpt lat="47.46734" lon="6.90114">
        <ele>420</ele>
        <time>2015-04-06T09:40:18.000Z</time>
      </trkpt>
      <trkpt lat="47.46734" lon="6.90112">
        <ele>420</ele>
        <time>2015-04-06T09:40:19.000Z</time>
      </trkpt>
      <trkpt lat="47.46733" lon="6.90106">
        <ele>420</ele>
        <time>2015-04-06T09:40:25.000Z</time>
      </trkpt>
      <trkpt lat="47.46733" lon="6.90105">
        <ele>420</ele>
        <time>2015-04-06T09:40:26.000Z</time>
      </trkpt>
      <trkpt lat="47.46732" lon="6.90099">
        <ele>420</ele>
        <time>2015-04-06T09:40:31.000Z</time>
      </trkpt>
      <trkpt lat="47.46732" lon="6.90098">
        <ele>420</ele>
        <time>2015-04-06T09:40:32.000Z</time>
      </trkpt>
      <trkpt lat="47.46732" lon="6.90091">
        <ele>420</ele>
        <time>2015-04-06T09:40:36.000Z</time>
      </trkpt>
      <trkpt lat="47.46732" lon="6.9009">
        <ele>420</ele>
        <time>2015-04-06T09:40:37.000Z</time>
      </trkpt>
      <trkpt lat="47.46732" lon="6.90085">
        <ele>420</ele>
        <time>2015-04-06T09:40:45.000Z</time>
      </trkpt>
      <trkpt lat="47.46731" lon="6.90083">
        <ele>419</ele>
        <time>2015-04-06T09:40:46.000Z</time>
      </trkpt>
      <trkpt lat="47.4673" lon="6.90078">
        <ele>419</ele>
        <time>2015-04-06T09:40:52.000Z</time>
      </trkpt>
      <trkpt lat="47.46729" lon="6.90078">
        <ele>419</ele>
        <time>2015-04-06T09:40:53.000Z</time>
      </trkpt>
      <trkpt lat="47.46725" lon="6.9008">
        <ele>419</ele>
        <time>2015-04-06T09:40:56.000Z</time>
      </trkpt>
      <trkpt lat="47.46724" lon="6.90082">
        <ele>418</ele>
        <time>2015-04-06T09:40:57.000Z</time>
      </trkpt>
      <trkpt lat="47.46728" lon="6.90085">
        <ele>420</ele>
        <time>2015-04-06T09:41:35.000Z</time>
      </trkpt>
      <trkpt lat="47.46728" lon="6.90085">
        <ele>420</ele>
        <time>2015-04-06T09:41:36.000Z</time>
      </trkpt>
      <trkpt lat="47.46725" lon="6.90089">
        <ele>419</ele>
        <time>2015-04-06T09:44:34.000Z</time>
      </trkpt>
      <trkpt lat="47.46725" lon="6.9009">
        <ele>419</ele>
        <time>2015-04-06T09:44:35.000Z</time>
      </trkpt>
      <trkpt lat="47.46726" lon="6.90096">
        <ele>419</ele>
        <time>2015-04-06T09:44:44.000Z</time>
      </trkpt>
      <trkpt lat="47.46726" lon="6.90096">
        <ele>419</ele>
        <time>2015-04-06T09:44:45.000Z</time>
      </trkpt>
      <trkpt lat="47.4673" lon="6.90099">
        <ele>420</ele>
        <time>2015-04-06T09:48:18.000Z</time>
      </trkpt>
      <trkpt lat="47.4673" lon="6.90099">
        <ele>420</ele>
        <time>2015-04-06T09:48:19.000Z</time>
      </trkpt>
      <trkpt lat="47.46734" lon="6.90101">
        <ele>420</ele>
        <time>2015-04-06T09:49:43.000Z</time>
      </trkpt>
      <trkpt lat="47.46734" lon="6.90102">
        <ele>420</ele>
        <time>2015-04-06T09:49:44.000Z</time>
      </trkpt>
      <trkpt lat="47.46738" lon="6.90098">
        <ele>420</ele>
        <time>2015-04-06T09:50:54.000Z</time>
      </trkpt>
      <trkpt lat="47.46738" lon="6.90098">
        <ele>420</ele>
        <time>2015-04-06T09:50:55.000Z</time>
      </trkpt>
      <trkpt lat="47.46735" lon="6.90094">
        <ele>420</ele>
        <time>2015-04-06T09:54:45.000Z</time>
      </trkpt>
      <trkpt lat="47.46733" lon="6.90093">
        <ele>420</ele>
        <time>2015-04-06T09:54:46.000Z</time>
      </trkpt>
      <trkpt lat="47.46732" lon="6.90089">
        <ele>420</ele>
        <time>2015-04-06T09:54:48.000Z</time>
      </trkpt>
      <trkpt lat="47.46732" lon="6.90086">
        <ele>420</ele>
        <time>2015-04-06T09:54:49.000Z</time>
      </trkpt>
      <trkpt lat="47.46733" lon="6.90081">
        <ele>419</ele>
        <time>2015-04-06T09:54:51.000Z</time>
      </trkpt>
      <trkpt lat="47.46734" lon="6.9008">
        <ele>419</ele>
        <time>2015-04-06T09:54:52.000Z</time>
      </trkpt>
      <trkpt lat="47.46737" lon="6.90075">
        <ele>419</ele>
        <time>2015-04-06T09:54:57.000Z</time>
      </trkpt>
      <trkpt lat="47.46738" lon="6.90073">
        <ele>419</ele>
        <time>2015-04-06T09:54:58.000Z</time>
      </trkpt>
      <trkpt lat="47.4674" lon="6.90067">
        <ele>419</ele>
        <time>2015-04-06T09:55:00.000Z</time>
      </trkpt>
      <trkpt lat="47.4674" lon="6.90064">
        <ele>419</ele>
        <time>2015-04-06T09:55:01.000Z</time>
      </trkpt>
      <trkpt lat="47.46742" lon="6.90062">
        <ele>419</ele>
        <time>2015-04-06T09:55:02.000Z</time>
      </trkpt>
      <trkpt lat="47.46743" lon="6.90059">
        <ele>419</ele>
        <time>2015-04-06T09:55:03.000Z</time>
      </trkpt>
      <trkpt lat="47.46745" lon="6.90056">
        <ele>419</ele>
        <time>2015-04-06T09:55:04.000Z</time>
      </trkpt>
      <trkpt lat="47.46747" lon="6.90054">
        <ele>419</ele>
        <time>2015-04-06T09:55:05.000Z</time>
      </trkpt>
      <trkpt lat="47.4675" lon="6.90051">
        <ele>419</ele>
        <time>2015-04-06T09:55:06.000Z</time>
      </trkpt>
      <trkpt lat="47.46752" lon="6.90048">
        <ele>424</ele>
        <time>2015-04-06T09:55:07.000Z</time>
      </trkpt>
      <trkpt lat="47.46753" lon="6.90046">
        <ele>424</ele>
        <time>2015-04-06T09:55:08.000Z</time>
      </trkpt>
      <trkpt lat="47.46755" lon="6.90044">
        <ele>424</ele>
        <time>2015-04-06T09:55:09.000Z</time>
      </trkpt>
      <trkpt lat="47.46758" lon="6.90043">
        <ele>424</ele>
        <time>2015-04-06T09:55:10.000Z</time>
      </trkpt>
      <trkpt lat="47.4676" lon="6.90041">
        <ele>425</ele>
        <time>2015-04-06T09:55:11.000Z</time>
      </trkpt>
      <trkpt lat="47.46763" lon="6.9004">
        <ele>425</ele>
        <time>2015-04-06T09:55:12.000Z</time>
      </trkpt>
      <trkpt lat="47.46765" lon="6.90038">
        <ele>425</ele>
        <time>2015-04-06T09:55:13.000Z</time>
      </trkpt>
      <trkpt lat="47.46768" lon="6.90036">
        <ele>425</ele>
        <time>2015-04-06T09:55:14.000Z</time>
      </trkpt>
      <trkpt lat="47.4677" lon="6.90034">
        <ele>425</ele>
        <time>2015-04-06T09:55:15.000Z</time>
      </trkpt>
      <trkpt lat="47.46773" lon="6.90031">
        <ele>425</ele>
        <time>2015-04-06T09:55:16.000Z</time>
      </trkpt>
      <trkpt lat="47.46775" lon="6.90029">
        <ele>425</ele>
        <time>2015-04-06T09:55:17.000Z</time>
      </trkpt>
      <trkpt lat="47.46778" lon="6.90026">
        <ele>425</ele>
        <time>2015-04-06T09:55:18.000Z</time>
      </trkpt>
      <trkpt lat="47.46781" lon="6.90024">
        <ele>425</ele>
        <time>2015-04-06T09:55:19.000Z</time>
      </trkpt>
      <trkpt lat="47.46783" lon="6.90021">
        <ele>425</ele>
        <time>2015-04-06T09:55:20.000Z</time>
      </trkpt>
      <trkpt lat="47.46786" lon="6.90018">
        <ele>425</ele>
        <time>2015-04-06T09:55:21.000Z</time>
      </trkpt>
      <trkpt lat="47.46788" lon="6.90015">
        <ele>426</ele>
        <time>2015-04-06T09:55:22.000Z</time>
      </trkpt>
      <trkpt lat="47.4679" lon="6.90011">
        <ele>426</ele>
        <time>2015-04-06T09:55:23.000Z</time>
      </trkpt>
      <trkpt lat="47.46792" lon="6.90008">
        <ele>426</ele>
        <time>2015-04-06T09:55:24.000Z</time>
      </trkpt>
      <trkpt lat="47.46794" lon="6.90004">
        <ele>426</ele>
        <time>2015-04-06T09:55:25.000Z</time>
      </trkpt>
      <trkpt lat="47.46795" lon="6.9">
        <ele>426</ele>
        <time>2015-04-06T09:55:26.000Z</time>
      </trkpt>
      <trkpt lat="47.46797" lon="6.89997">
        <ele>424</ele>
        <time>2015-04-06T09:55:27.000Z</time>
      </trkpt>
      <trkpt lat="47.468" lon="6.89994">
        <ele>425</ele>
        <time>2015-04-06T09:55:28.000Z</time>
      </trkpt>
      <trkpt lat="47.46802" lon="6.89992">
        <ele>425</ele>
        <time>2015-04-06T09:55:29.000Z</time>
      </trkpt>
      <trkpt lat="47.46804" lon="6.8999">
        <ele>425</ele>
        <time>2015-04-06T09:55:30.000Z</time>
      </trkpt>
      <trkpt lat="47.46806" lon="6.89987">
        <ele>425</ele>
        <time>2015-04-06T09:55:31.000Z</time>
      </trkpt>
      <trkpt lat="47.46807" lon="6.89984">
        <ele>425</ele>
        <time>2015-04-06T09:55:32.000Z</time>
      </trkpt>
      <trkpt lat="47.46809" lon="6.89981">
        <ele>425</ele>
        <time>2015-04-06T09:55:33.000Z</time>
      </trkpt>
      <trkpt lat="47.46811" lon="6.89977">
        <ele>425</ele>
        <time>2015-04-06T09:55:34.000Z</time>
      </trkpt>
      <trkpt lat="47.46812" lon="6.89974">
        <ele>425</ele>
        <time>2015-04-06T09:55:35.000Z</time>
      </trkpt>
      <trkpt lat="47.46814" lon="6.89971">
        <ele>425</ele>
        <time>2015-04-06T09:55:36.000Z</time>
      </trkpt>
      <trkpt lat="47.46816" lon="6.89968">
        <ele>425</ele>
        <time>2015-04-06T09:55:37.000Z</time>
      </trkpt>
      <trkpt lat="47.46817" lon="6.89965">
        <ele>425</ele>
        <time>2015-04-06T09:55:38.000Z</time>
      </trkpt>
      <trkpt lat="47.46819" lon="6.89961">
        <ele>425</ele>
        <time>2015-04-06T09:55:39.000Z</time>
      </trkpt>
      <trkpt lat="47.46821" lon="6.89958">
        <ele>425</ele>
        <time>2015-04-06T09:55:40.000Z</time>
      </trkpt>
      <trkpt lat="47.46823" lon="6.89954">
        <ele>425</ele>
        <time>2015-04-06T09:55:41.000Z</time>
      </trkpt>
      <trkpt lat="47.46826" lon="6.89951">
        <ele>425</ele>
        <time>2015-04-06T09:55:42.000Z</time>
      </trkpt>
      <trkpt lat="47.46828" lon="6.89947">
        <ele>425</ele>
        <time>2015-04-06T09:55:43.000Z</time>
      </trkpt>
      <trkpt lat="47.4683" lon="6.89943">
        <ele>425</ele>
        <time>2015-04-06T09:55:44.000Z</time>
      </trkpt>
      <trkpt lat="47.46833" lon="6.89939">
        <ele>425</ele>
        <time>2015-04-06T09:55:45.000Z</time>
      </trkpt>
      <trkpt lat="47.46835" lon="6.89936">
        <ele>428</ele>
        <time>2015-04-06T09:55:46.000Z</time>
      </trkpt>
      <trkpt lat="47.46838" lon="6.89933">
        <ele>428</ele>
        <time>2015-04-06T09:55:47.000Z</time>
      </trkpt>
      <trkpt lat="47.46841" lon="6.8993">
        <ele>428</ele>
        <time>2015-04-06T09:55:48.000Z</time>
      </trkpt>
      <trkpt lat="47.46844" lon="6.89927">
        <ele>428</ele>
        <time>2015-04-06T09:55:49.000Z</time>
      </trkpt>
      <trkpt lat="47.46847" lon="6.89925">
        <ele>428</ele>
        <time>2015-04-06T09:55:50.000Z</time>
      </trkpt>
      <trkpt lat="47.4685" lon="6.89922">
        <ele>428</ele>
        <time>2015-04-06T09:55:51.000Z</time>
      </trkpt>
      <trkpt lat="47.46853" lon="6.89919">
        <ele>428</ele>
        <time>2015-04-06T09:55:52.000Z</time>
      </trkpt>
      <trkpt lat="47.46856" lon="6.89916">
        <ele>427</ele>
        <time>2015-04-06T09:55:53.000Z</time>
      </trkpt>
      <trkpt lat="47.46858" lon="6.89913">
        <ele>427</ele>
        <time>2015-04-06T09:55:54.000Z</time>
      </trkpt>
      <trkpt lat="47.46861" lon="6.8991">
        <ele>427</ele>
        <time>2015-04-06T09:55:55.000Z</time>
      </trkpt>
      <trkpt lat="47.46863" lon="6.89907">
        <ele>427</ele>
        <time>2015-04-06T09:55:56.000Z</time>
      </trkpt>
      <trkpt lat="47.46864" lon="6.89903">
        <ele>427</ele>
        <time>2015-04-06T09:55:57.000Z</time>
      </trkpt>
      <trkpt lat="47.46866" lon="6.899">
        <ele>427</ele>
        <time>2015-04-06T09:55:58.000Z</time>
      </trkpt>
      <trkpt lat="47.46867" lon="6.89896">
        <ele>427</ele>
        <time>2015-04-06T09:55:59.000Z</time>
      </trkpt>
      <trkpt lat="47.46869" lon="6.89892">
        <ele>427</ele>
        <time>2015-04-06T09:56:00.000Z</time>
      </trkpt>
      <trkpt lat="47.4687" lon="6.89889">
        <ele>427</ele>
        <time>2015-04-06T09:56:01.000Z</time>
      </trkpt>
      <trkpt lat="47.46872" lon="6.89885">
        <ele>427</ele>
        <time>2015-04-06T09:56:02.000Z</time>
      </trkpt>
      <trkpt lat="47.46874" lon="6.89882">
        <ele>427</ele>
        <time>2015-04-06T09:56:03.000Z</time>
      </trkpt>
      <trkpt lat="47.46876" lon="6.89879">
        <ele>427</ele>
        <time>2015-04-06T09:56:04.000Z</time>
      </trkpt>
      <trkpt lat="47.46879" lon="6.89875">
        <ele>427</ele>
        <time>2015-04-06T09:56:05.000Z</time>
      </trkpt>
      <trkpt lat="47.46882" lon="6.89872">
        <ele>427</ele>
        <time>2015-04-06T09:56:06.000Z</time>
      </trkpt>
      <trkpt lat="47.46885" lon="6.89868">
        <ele>427</ele>
        <time>2015-04-06T09:56:07.000Z</time>
      </trkpt>
      <trkpt lat="47.46887" lon="6.89864">
        <ele>426</ele>
        <time>2015-04-06T09:56:08.000Z</time>
      </trkpt>
      <trkpt lat="47.4689" lon="6.89859">
        <ele>426</ele>
        <time>2015-04-06T09:56:09.000Z</time>
      </trkpt>
      <trkpt lat="47.46891" lon="6.89854">
        <ele>426</ele>
        <time>2015-04-06T09:56:10.000Z</time>
      </trkpt>
      <trkpt lat="47.46893" lon="6.89848">
        <ele>426</ele>
        <time>2015-04-06T09:56:11.000Z</time>
      </trkpt>
      <trkpt lat="47.46893" lon="6.89841">
        <ele>426</ele>
        <time>2015-04-06T09:56:12.000Z</time>
      </trkpt>
      <trkpt lat="47.46893" lon="6.89835">
        <ele>426</ele>
        <time>2015-04-06T09:56:13.000Z</time>
      </trkpt>
      <trkpt lat="47.46893" lon="6.89829">
        <ele>425</ele>
        <time>2015-04-06T09:56:14.000Z</time>
      </trkpt>
      <trkpt lat="47.46893" lon="6.89824">
        <ele>425</ele>
        <time>2015-04-06T09:56:15.000Z</time>
      </trkpt>
      <trkpt lat="47.46893" lon="6.89819">
        <ele>425</ele>
        <time>2015-04-06T09:56:16.000Z</time>
      </trkpt>
      <trkpt lat="47.46893" lon="6.89814">
        <ele>425</ele>
        <time>2015-04-06T09:56:17.000Z</time>
      </trkpt>
      <trkpt lat="47.46893" lon="6.89809">
        <ele>425</ele>
        <time>2015-04-06T09:56:18.000Z</time>
      </trkpt>
      <trkpt lat="47.46893" lon="6.89804">
        <ele>424</ele>
        <time>2015-04-06T09:56:19.000Z</time>
      </trkpt>
      <trkpt lat="47.46893" lon="6.89798">
        <ele>424</ele>
        <time>2015-04-06T09:56:20.000Z</time>
      </trkpt>
      <trkpt lat="47.46892" lon="6.89792">
        <ele>424</ele>
        <time>2015-04-06T09:56:21.000Z</time>
      </trkpt>
      <trkpt lat="47.46892" lon="6.89785">
        <ele>424</ele>
        <time>2015-04-06T09:56:22.000Z</time>
      </trkpt>
      <trkpt lat="47.4689" lon="6.89777">
        <ele>424</ele>
        <time>2015-04-06T09:56:23.000Z</time>
      </trkpt>
      <trkpt lat="47.46889" lon="6.89769">
        <ele>424</ele>
        <time>2015-04-06T09:56:24.000Z</time>
      </trkpt>
      <trkpt lat="47.46889" lon="6.89763">
        <ele>424</ele>
        <time>2015-04-06T09:56:25.000Z</time>
      </trkpt>
      <trkpt lat="47.46889" lon="6.89756">
        <ele>424</ele>
        <time>2015-04-06T09:56:26.000Z</time>
      </trkpt>
      <trkpt lat="47.4689" lon="6.89749">
        <ele>422</ele>
        <time>2015-04-06T09:56:27.000Z</time>
      </trkpt>
      <trkpt lat="47.46889" lon="6.89742">
        <ele>422</ele>
        <time>2015-04-06T09:56:28.000Z</time>
      </trkpt>
      <trkpt lat="47.46888" lon="6.89734">
        <ele>422</ele>
        <time>2015-04-06T09:56:29.000Z</time>
      </trkpt>
      <trkpt lat="47.46888" lon="6.89728">
        <ele>422</ele>
        <time>2015-04-06T09:56:30.000Z</time>
      </trkpt>
      <trkpt lat="47.46887" lon="6.8972">
        <ele>422</ele>
        <time>2015-04-06T09:56:31.000Z</time>
      </trkpt>
      <trkpt lat="47.46886" lon="6.89715">
        <ele>422</ele>
        <time>2015-04-06T09:56:32.000Z</time>
      </trkpt>
      <trkpt lat="47.46887" lon="6.89707">
        <ele>421</ele>
        <time>2015-04-06T09:56:33.000Z</time>
      </trkpt>
      <trkpt lat="47.46887" lon="6.89699">
        <ele>421</ele>
        <time>2015-04-06T09:56:34.000Z</time>
      </trkpt>
      <trkpt lat="47.46887" lon="6.89689">
        <ele>421</ele>
        <time>2015-04-06T09:56:35.000Z</time>
      </trkpt>
      <trkpt lat="47.46886" lon="6.89681">
        <ele>421</ele>
        <time>2015-04-06T09:56:36.000Z</time>
      </trkpt>
      <trkpt lat="47.46884" lon="6.89673">
        <ele>421</ele>
        <time>2015-04-06T09:56:37.000Z</time>
      </trkpt>
      <trkpt lat="47.46883" lon="6.89664">
        <ele>419</ele>
        <time>2015-04-06T09:56:38.000Z</time>
      </trkpt>
      <trkpt lat="47.46882" lon="6.89655">
        <ele>419</ele>
        <time>2015-04-06T09:56:39.000Z</time>
      </trkpt>
      <trkpt lat="47.46878" lon="6.89646">
        <ele>419</ele>
        <time>2015-04-06T09:56:40.000Z</time>
      </trkpt>
      <trkpt lat="47.46879" lon="6.89638">
        <ele>419</ele>
        <time>2015-04-06T09:56:41.000Z</time>
      </trkpt>
      <trkpt lat="47.4688" lon="6.89631">
        <ele>419</ele>
        <time>2015-04-06T09:56:42.000Z</time>
      </trkpt>
      <trkpt lat="47.4688" lon="6.89624">
        <ele>419</ele>
        <time>2015-04-06T09:56:43.000Z</time>
      </trkpt>
      <trkpt lat="47.4688" lon="6.89615">
        <ele>419</ele>
        <time>2015-04-06T09:56:44.000Z</time>
      </trkpt>
      <trkpt lat="47.4688" lon="6.89607">
        <ele>419</ele>
        <time>2015-04-06T09:56:45.000Z</time>
      </trkpt>
      <trkpt lat="47.4688" lon="6.89597">
        <ele>419</ele>
        <time>2015-04-06T09:56:46.000Z</time>
      </trkpt>
      <trkpt lat="47.46879" lon="6.89589">
        <ele>419</ele>
        <time>2015-04-06T09:56:47.000Z</time>
      </trkpt>
      <trkpt lat="47.46878" lon="6.8958">
        <ele>419</ele>
        <time>2015-04-06T09:56:48.000Z</time>
      </trkpt>
      <trkpt lat="47.46878" lon="6.8957">
        <ele>419</ele>
        <time>2015-04-06T09:56:49.000Z</time>
      </trkpt>
      <trkpt lat="47.46878" lon="6.89565">
        <ele>419</ele>
        <time>2015-04-06T09:56:50.000Z</time>
      </trkpt>
      <trkpt lat="47.46879" lon="6.89558">
        <ele>419</ele>
        <time>2015-04-06T09:56:51.000Z</time>
      </trkpt>
      <trkpt lat="47.46877" lon="6.8955">
        <ele>419</ele>
        <time>2015-04-06T09:56:52.000Z</time>
      </trkpt>
      <trkpt lat="47.46876" lon="6.8954">
        <ele>419</ele>
        <time>2015-04-06T09:56:53.000Z</time>
      </trkpt>
      <trkpt lat="47.46875" lon="6.89532">
        <ele>419</ele>
        <time>2015-04-06T09:56:54.000Z</time>
      </trkpt>
      <trkpt lat="47.46874" lon="6.89524">
        <ele>419</ele>
        <time>2015-04-06T09:56:55.000Z</time>
      </trkpt>
      <trkpt lat="47.46875" lon="6.89516">
        <ele>419</ele>
        <time>2015-04-06T09:56:56.000Z</time>
      </trkpt>
      <trkpt lat="47.46875" lon="6.89508">
        <ele>420</ele>
        <time>2015-04-06T09:56:57.000Z</time>
      </trkpt>
      <trkpt lat="47.46874" lon="6.89499">
        <ele>420</ele>
        <time>2015-04-06T09:56:58.000Z</time>
      </trkpt>
      <trkpt lat="47.46874" lon="6.8949">
        <ele>420</ele>
        <time>2015-04-06T09:56:59.000Z</time>
      </trkpt>
      <trkpt lat="47.46872" lon="6.89483">
        <ele>420</ele>
        <time>2015-04-06T09:57:00.000Z</time>
      </trkpt>
      <trkpt lat="47.46871" lon="6.89475">
        <ele>420</ele>
        <time>2015-04-06T09:57:01.001Z</time>
      </trkpt>
      <trkpt lat="47.4687" lon="6.8947">
        <ele>420</ele>
        <time>2015-04-06T09:57:02.000Z</time>
      </trkpt>
      <trkpt lat="47.46869" lon="6.89462">
        <ele>420</ele>
        <time>2015-04-06T09:57:03.000Z</time>
      </trkpt>
      <trkpt lat="47.4687" lon="6.89455">
        <ele>420</ele>
        <time>2015-04-06T09:57:04.000Z</time>
      </trkpt>
      <trkpt lat="47.46869" lon="6.89448">
        <ele>420</ele>
        <time>2015-04-06T09:57:05.000Z</time>
      </trkpt>
      <trkpt lat="47.46868" lon="6.89439">
        <ele>420</ele>
        <time>2015-04-06T09:57:06.000Z</time>
      </trkpt>
      <trkpt lat="47.46868" lon="6.89432">
        <ele>420</ele>
        <time>2015-04-06T09:57:07.000Z</time>
      </trkpt>
      <trkpt lat="47.46868" lon="6.89424">
        <ele>420</ele>
        <time>2015-04-06T09:57:08.000Z</time>
      </trkpt>
      <trkpt lat="47.46867" lon="6.89415">
        <ele>420</ele>
        <time>2015-04-06T09:57:09.000Z</time>
      </trkpt>
      <trkpt lat="47.46866" lon="6.89409">
        <ele>420</ele>
        <time>2015-04-06T09:57:10.000Z</time>
      </trkpt>
      <trkpt lat="47.46865" lon="6.89401">
        <ele>420</ele>
        <time>2015-04-06T09:57:11.000Z</time>
      </trkpt>
      <trkpt lat="47.46865" lon="6.89392">
        <ele>420</ele>
        <time>2015-04-06T09:57:12.000Z</time>
      </trkpt>
      <trkpt lat="47.46864" lon="6.89384">
        <ele>420</ele>
        <time>2015-04-06T09:57:13.000Z</time>
      </trkpt>
      <trkpt lat="47.46865" lon="6.89376">
        <ele>420</ele>
        <time>2015-04-06T09:57:14.000Z</time>
      </trkpt>
      <trkpt lat="47.46864" lon="6.89368">
        <ele>420</ele>
        <time>2015-04-06T09:57:15.000Z</time>
      </trkpt>
      <trkpt lat="47.46864" lon="6.89359">
        <ele>420</ele>
        <time>2015-04-06T09:57:16.000Z</time>
      </trkpt>
      <trkpt lat="47.46863" lon="6.89351">
        <ele>420</ele>
        <time>2015-04-06T09:57:17.000Z</time>
      </trkpt>
      <trkpt lat="47.46862" lon="6.89343">
        <ele>420</ele>
        <time>2015-04-06T09:57:18.000Z</time>
      </trkpt>
      <trkpt lat="47.46861" lon="6.89334">
        <ele>420</ele>
        <time>2015-04-06T09:57:19.000Z</time>
      </trkpt>
      <trkpt lat="47.4686" lon="6.89326">
        <ele>419</ele>
        <time>2015-04-06T09:57:20.000Z</time>
      </trkpt>
      <trkpt lat="47.46859" lon="6.89318">
        <ele>419</ele>
        <time>2015-04-06T09:57:21.000Z</time>
      </trkpt>
      <trkpt lat="47.46858" lon="6.8931">
        <ele>418</ele>
        <time>2015-04-06T09:57:22.000Z</time>
      </trkpt>
      <trkpt lat="47.46857" lon="6.89302">
        <ele>418</ele>
        <time>2015-04-06T09:57:23.000Z</time>
      </trkpt>
      <trkpt lat="47.46856" lon="6.89295">
        <ele>418</ele>
        <time>2015-04-06T09:57:24.000Z</time>
      </trkpt>
      <trkpt lat="47.46855" lon="6.89288">
        <ele>418</ele>
        <time>2015-04-06T09:57:25.000Z</time>
      </trkpt>
      <trkpt lat="47.46854" lon="6.8928">
        <ele>418</ele>
        <time>2015-04-06T09:57:26.000Z</time>
      </trkpt>
      <trkpt lat="47.46853" lon="6.89272">
        <ele>418</ele>
        <time>2015-04-06T09:57:27.000Z</time>
      </trkpt>
      <trkpt lat="47.46853" lon="6.89264">
        <ele>418</ele>
        <time>2015-04-06T09:57:28.000Z</time>
      </trkpt>
      <trkpt lat="47.46851" lon="6.89256">
        <ele>418</ele>
        <time>2015-04-06T09:57:29.000Z</time>
      </trkpt>
      <trkpt lat="47.4685" lon="6.89247">
        <ele>417</ele>
        <time>2015-04-06T09:57:30.000Z</time>
      </trkpt>
      <trkpt lat="47.46848" lon="6.89239">
        <ele>416</ele>
        <time>2015-04-06T09:57:31.000Z</time>
      </trkpt>
      <trkpt lat="47.46847" lon="6.89231">
        <ele>416</ele>
        <time>2015-04-06T09:57:32.000Z</time>
      </trkpt>
      <trkpt lat="47.46844" lon="6.89224">
        <ele>416</ele>
        <time>2015-04-06T09:57:33.000Z</time>
      </trkpt>
      <trkpt lat="47.46844" lon="6.89213">
        <ele>416</ele>
        <time>2015-04-06T09:57:34.000Z</time>
      </trkpt>
      <trkpt lat="47.46843" lon="6.89204">
        <ele>416</ele>
        <time>2015-04-06T09:57:35.000Z</time>
      </trkpt>
      <trkpt lat="47.46842" lon="6.89194">
        <ele>416</ele>
        <time>2015-04-06T09:57:36.000Z</time>
      </trkpt>
      <trkpt lat="47.46843" lon="6.89184">
        <ele>416</ele>
        <time>2015-04-06T09:57:37.000Z</time>
      </trkpt>
      <trkpt lat="47.46842" lon="6.89175">
        <ele>416</ele>
        <time>2015-04-06T09:57:38.000Z</time>
      </trkpt>
      <trkpt lat="47.46842" lon="6.89169">
        <ele>416</ele>
        <time>2015-04-06T09:57:39.000Z</time>
      </trkpt>
      <trkpt lat="47.46841" lon="6.89157">
        <ele>415</ele>
        <time>2015-04-06T09:57:40.000Z</time>
      </trkpt>
      <trkpt lat="47.46841" lon="6.89147">
        <ele>414</ele>
        <time>2015-04-06T09:57:41.000Z</time>
      </trkpt>
      <trkpt lat="47.4684" lon="6.89146">
        <ele>414</ele>
        <time>2015-04-06T09:57:42.000Z</time>
      </trkpt>
      <trkpt lat="47.46838" lon="6.89141">
        <ele>414</ele>
        <time>2015-04-06T09:57:43.000Z</time>
      </trkpt>
      <trkpt lat="47.46838" lon="6.8913">
        <ele>413</ele>
        <time>2015-04-06T09:57:44.000Z</time>
      </trkpt>
      <trkpt lat="47.46838" lon="6.8912">
        <ele>413</ele>
        <time>2015-04-06T09:57:45.000Z</time>
      </trkpt>
      <trkpt lat="47.46835" lon="6.89115">
        <ele>413</ele>
        <time>2015-04-06T09:57:46.000Z</time>
      </trkpt>
      <trkpt lat="47.46832" lon="6.89107">
        <ele>414</ele>
        <time>2015-04-06T09:57:47.000Z</time>
      </trkpt>
      <trkpt lat="47.46833" lon="6.89098">
        <ele>413</ele>
        <time>2015-04-06T09:57:48.000Z</time>
      </trkpt>
      <trkpt lat="47.46833" lon="6.89088">
        <ele>414</ele>
        <time>2015-04-06T09:57:49.000Z</time>
      </trkpt>
      <trkpt lat="47.46831" lon="6.89077">
        <ele>414</ele>
        <time>2015-04-06T09:57:50.000Z</time>
      </trkpt>
      <trkpt lat="47.46828" lon="6.89067">
        <ele>413</ele>
        <time>2015-04-06T09:57:51.000Z</time>
      </trkpt>
      <trkpt lat="47.46827" lon="6.89055">
        <ele>413</ele>
        <time>2015-04-06T09:57:52.000Z</time>
      </trkpt>
      <trkpt lat="47.46825" lon="6.89041">
        <ele>412</ele>
        <time>2015-04-06T09:57:53.000Z</time>
      </trkpt>
      <trkpt lat="47.46823" lon="6.8903">
        <ele>412</ele>
        <time>2015-04-06T09:57:54.000Z</time>
      </trkpt>
      <trkpt lat="47.46821" lon="6.8902">
        <ele>412</ele>
        <time>2015-04-06T09:57:55.000Z</time>
      </trkpt>
      <trkpt lat="47.46818" lon="6.89011">
        <ele>412</ele>
        <time>2015-04-06T09:57:56.000Z</time>
      </trkpt>
      <trkpt lat="47.46817" lon="6.89001">
        <ele>412</ele>
        <time>2015-04-06T09:57:57.000Z</time>
      </trkpt>
      <trkpt lat="47.46815" lon="6.88992">
        <ele>411</ele>
        <time>2015-04-06T09:57:58.000Z</time>
      </trkpt>
      <trkpt lat="47.46815" lon="6.88983">
        <ele>410</ele>
        <time>2015-04-06T09:57:59.000Z</time>
      </trkpt>
      <trkpt lat="47.46816" lon="6.88975">
        <ele>410</ele>
        <time>2015-04-06T09:58:00.000Z</time>
      </trkpt>
      <trkpt lat="47.46815" lon="6.88965">
        <ele>410</ele>
        <time>2015-04-06T09:58:01.000Z</time>
      </trkpt>
      <trkpt lat="47.46812" lon="6.88955">
        <ele>410</ele>
        <time>2015-04-06T09:58:02.000Z</time>
      </trkpt>
      <trkpt lat="47.46811" lon="6.88945">
        <ele>410</ele>
        <time>2015-04-06T09:58:03.000Z</time>
      </trkpt>
      <trkpt lat="47.4681" lon="6.88936">
        <ele>409</ele>
        <time>2015-04-06T09:58:04.000Z</time>
      </trkpt>
      <trkpt lat="47.46809" lon="6.88926">
        <ele>409</ele>
        <time>2015-04-06T09:58:05.000Z</time>
      </trkpt>
      <trkpt lat="47.46808" lon="6.88916">
        <ele>408</ele>
        <time>2015-04-06T09:58:06.000Z</time>
      </trkpt>
      <trkpt lat="47.46806" lon="6.88906">
        <ele>408</ele>
        <time>2015-04-06T09:58:07.000Z</time>
      </trkpt>
      <trkpt lat="47.46804" lon="6.88895">
        <ele>408</ele>
        <time>2015-04-06T09:58:08.000Z</time>
      </trkpt>
      <trkpt lat="47.46803" lon="6.88885">
        <ele>408</ele>
        <time>2015-04-06T09:58:09.000Z</time>
      </trkpt>
      <trkpt lat="47.46801" lon="6.88874">
        <ele>408</ele>
        <time>2015-04-06T09:58:10.000Z</time>
      </trkpt>
      <trkpt lat="47.468" lon="6.88864">
        <ele>408</ele>
        <time>2015-04-06T09:58:11.000Z</time>
      </trkpt>
      <trkpt lat="47.46798" lon="6.88853">
        <ele>408</ele>
        <time>2015-04-06T09:58:12.000Z</time>
      </trkpt>
      <trkpt lat="47.46796" lon="6.88843">
        <ele>408</ele>
        <time>2015-04-06T09:58:13.000Z</time>
      </trkpt>
      <trkpt lat="47.46795" lon="6.88833">
        <ele>408</ele>
        <time>2015-04-06T09:58:14.000Z</time>
      </trkpt>
      <trkpt lat="47.46793" lon="6.88822">
        <ele>408</ele>
        <time>2015-04-06T09:58:15.000Z</time>
      </trkpt>
      <trkpt lat="47.46791" lon="6.88812">
        <ele>408</ele>
        <time>2015-04-06T09:58:16.000Z</time>
      </trkpt>
      <trkpt lat="47.4679" lon="6.88801">
        <ele>408</ele>
        <time>2015-04-06T09:58:17.000Z</time>
      </trkpt>
      <trkpt lat="47.46789" lon="6.88791">
        <ele>408</ele>
        <time>2015-04-06T09:58:18.000Z</time>
      </trkpt>
      <trkpt lat="47.46788" lon="6.88781">
        <ele>408</ele>
        <time>2015-04-06T09:58:19.000Z</time>
      </trkpt>
      <trkpt lat="47.46786" lon="6.88771">
        <ele>408</ele>
        <time>2015-04-06T09:58:20.000Z</time>
      </trkpt>
      <trkpt lat="47.46785" lon="6.88761">
        <ele>408</ele>
        <time>2015-04-06T09:58:21.000Z</time>
      </trkpt>
      <trkpt lat="47.46784" lon="6.88752">
        <ele>408</ele>
        <time>2015-04-06T09:58:22.000Z</time>
      </trkpt>
      <trkpt lat="47.46783" lon="6.88742">
        <ele>408</ele>
        <time>2015-04-06T09:58:23.000Z</time>
      </trkpt>
      <trkpt lat="47.46783" lon="6.88735">
        <ele>408</ele>
        <time>2015-04-06T09:58:24.000Z</time>
      </trkpt>
      <trkpt lat="47.46782" lon="6.88727">
        <ele>407</ele>
        <time>2015-04-06T09:58:25.000Z</time>
      </trkpt>
      <trkpt lat="47.46782" lon="6.88721">
        <ele>407</ele>
        <time>2015-04-06T09:58:26.000Z</time>
      </trkpt>
      <trkpt lat="47.46783" lon="6.88713">
        <ele>407</ele>
        <time>2015-04-06T09:58:27.000Z</time>
      </trkpt>
      <trkpt lat="47.46781" lon="6.88704">
        <ele>407</ele>
        <time>2015-04-06T09:58:28.000Z</time>
      </trkpt>
      <trkpt lat="47.46781" lon="6.88696">
        <ele>407</ele>
        <time>2015-04-06T09:58:29.000Z</time>
      </trkpt>
      <trkpt lat="47.4678" lon="6.8869">
        <ele>407</ele>
        <time>2015-04-06T09:58:30.000Z</time>
      </trkpt>
      <trkpt lat="47.4678" lon="6.88684">
        <ele>407</ele>
        <time>2015-04-06T09:58:31.000Z</time>
      </trkpt>
      <trkpt lat="47.4678" lon="6.88678">
        <ele>407</ele>
        <time>2015-04-06T09:58:32.000Z</time>
      </trkpt>
      <trkpt lat="47.46781" lon="6.88673">
        <ele>407</ele>
        <time>2015-04-06T09:58:33.000Z</time>
      </trkpt>
      <trkpt lat="47.46783" lon="6.88668">
        <ele>407</ele>
        <time>2015-04-06T09:58:34.000Z</time>
      </trkpt>
      <trkpt lat="47.46784" lon="6.88665">
        <ele>406</ele>
        <time>2015-04-06T09:58:35.000Z</time>
      </trkpt>
      <trkpt lat="47.46783" lon="6.88659">
        <ele>406</ele>
        <time>2015-04-06T09:58:36.000Z</time>
      </trkpt>
      <trkpt lat="47.46784" lon="6.88654">
        <ele>406</ele>
        <time>2015-04-06T09:58:37.000Z</time>
      </trkpt>
      <trkpt lat="47.46783" lon="6.88647">
        <ele>406</ele>
        <time>2015-04-06T09:58:38.000Z</time>
      </trkpt>
      <trkpt lat="47.46784" lon="6.88639">
        <ele>406</ele>
        <time>2015-04-06T09:58:39.000Z</time>
      </trkpt>
      <trkpt lat="47.46784" lon="6.88633">
        <ele>406</ele>
        <time>2015-04-06T09:58:40.000Z</time>
      </trkpt>
      <trkpt lat="47.46782" lon="6.88624">
        <ele>406</ele>
        <time>2015-04-06T09:58:41.000Z</time>
      </trkpt>
      <trkpt lat="47.46782" lon="6.88616">
        <ele>406</ele>
        <time>2015-04-06T09:58:42.000Z</time>
      </trkpt>
      <trkpt lat="47.46781" lon="6.88607">
        <ele>407</ele>
        <time>2015-04-06T09:58:43.000Z</time>
      </trkpt>
      <trkpt lat="47.46781" lon="6.886">
        <ele>407</ele>
        <time>2015-04-06T09:58:44.000Z</time>
      </trkpt>
      <trkpt lat="47.46782" lon="6.88593">
        <ele>407</ele>
        <time>2015-04-06T09:58:45.000Z</time>
      </trkpt>
      <trkpt lat="47.46781" lon="6.88588">
        <ele>407</ele>
        <time>2015-04-06T09:58:46.000Z</time>
      </trkpt>
      <trkpt lat="47.46779" lon="6.88581">
        <ele>408</ele>
        <time>2015-04-06T09:58:47.000Z</time>
      </trkpt>
      <trkpt lat="47.46778" lon="6.88574">
        <ele>408</ele>
        <time>2015-04-06T09:58:48.000Z</time>
      </trkpt>
      <trkpt lat="47.46778" lon="6.88567">
        <ele>408</ele>
        <time>2015-04-06T09:58:49.000Z</time>
      </trkpt>
      <trkpt lat="47.4678" lon="6.88562">
        <ele>408</ele>
        <time>2015-04-06T09:58:50.000Z</time>
      </trkpt>
      <trkpt lat="47.46781" lon="6.88557">
        <ele>408</ele>
        <time>2015-04-06T09:58:51.000Z</time>
      </trkpt>
      <trkpt lat="47.46782" lon="6.8855">
        <ele>408</ele>
        <time>2015-04-06T09:58:52.000Z</time>
      </trkpt>
      <trkpt lat="47.46784" lon="6.88543">
        <ele>408</ele>
        <time>2015-04-06T09:58:53.000Z</time>
      </trkpt>
      <trkpt lat="47.46782" lon="6.88534">
        <ele>408</ele>
        <time>2015-04-06T09:58:54.000Z</time>
      </trkpt>
      <trkpt lat="47.46784" lon="6.88529">
        <ele>408</ele>
        <time>2015-04-06T09:58:55.000Z</time>
      </trkpt>
      <trkpt lat="47.46784" lon="6.88522">
        <ele>408</ele>
        <time>2015-04-06T09:58:56.000Z</time>
      </trkpt>
      <trkpt lat="47.46784" lon="6.88515">
        <ele>408</ele>
        <time>2015-04-06T09:58:57.000Z</time>
      </trkpt>
      <trkpt lat="47.46784" lon="6.88508">
        <ele>408</ele>
        <time>2015-04-06T09:58:58.000Z</time>
      </trkpt>
      <trkpt lat="47.46784" lon="6.88501">
        <ele>409</ele>
        <time>2015-04-06T09:58:59.000Z</time>
      </trkpt>
      <trkpt lat="47.46784" lon="6.88494">
        <ele>410</ele>
        <time>2015-04-06T09:59:00.000Z</time>
      </trkpt>
      <trkpt lat="47.46783" lon="6.88487">
        <ele>410</ele>
        <time>2015-04-06T09:59:01.000Z</time>
      </trkpt>
      <trkpt lat="47.46784" lon="6.88483">
        <ele>410</ele>
        <time>2015-04-06T09:59:02.000Z</time>
      </trkpt>
      <trkpt lat="47.46783" lon="6.88476">
        <ele>410</ele>
        <time>2015-04-06T09:59:03.000Z</time>
      </trkpt>
      <trkpt lat="47.46784" lon="6.88471">
        <ele>410</ele>
        <time>2015-04-06T09:59:04.000Z</time>
      </trkpt>
      <trkpt lat="47.46785" lon="6.88465">
        <ele>410</ele>
        <time>2015-04-06T09:59:05.000Z</time>
      </trkpt>
      <trkpt lat="47.46785" lon="6.88459">
        <ele>410</ele>
        <time>2015-04-06T09:59:06.000Z</time>
      </trkpt>
      <trkpt lat="47.46786" lon="6.88452">
        <ele>410</ele>
        <time>2015-04-06T09:59:07.000Z</time>
      </trkpt>
      <trkpt lat="47.46786" lon="6.88444">
        <ele>410</ele>
        <time>2015-04-06T09:59:08.000Z</time>
      </trkpt>
      <trkpt lat="47.46787" lon="6.88437">
        <ele>410</ele>
        <time>2015-04-06T09:59:09.000Z</time>
      </trkpt>
      <trkpt lat="47.46785" lon="6.8843">
        <ele>410</ele>
        <time>2015-04-06T09:59:10.000Z</time>
      </trkpt>
      <trkpt lat="47.46787" lon="6.88422">
        <ele>410</ele>
        <time>2015-04-06T09:59:11.000Z</time>
      </trkpt>
      <trkpt lat="47.46787" lon="6.88418">
        <ele>410</ele>
        <time>2015-04-06T09:59:12.000Z</time>
      </trkpt>
      <trkpt lat="47.46787" lon="6.88414">
        <ele>411</ele>
        <time>2015-04-06T09:59:13.000Z</time>
      </trkpt>
      <trkpt lat="47.46787" lon="6.88408">
        <ele>411</ele>
        <time>2015-04-06T09:59:14.000Z</time>
      </trkpt>
      <trkpt lat="47.46788" lon="6.88402">
        <ele>411</ele>
        <time>2015-04-06T09:59:14.999Z</time>
      </trkpt>
      <trkpt lat="47.46789" lon="6.88397">
        <ele>411</ele>
        <time>2015-04-06T09:59:16.000Z</time>
      </trkpt>
      <trkpt lat="47.4679" lon="6.88392">
        <ele>411</ele>
        <time>2015-04-06T09:59:17.000Z</time>
      </trkpt>
      <trkpt lat="47.46791" lon="6.88387">
        <ele>411</ele>
        <time>2015-04-06T09:59:18.000Z</time>
      </trkpt>
      <trkpt lat="47.46791" lon="6.88382">
        <ele>411</ele>
        <time>2015-04-06T09:59:19.000Z</time>
      </trkpt>
      <trkpt lat="47.46791" lon="6.88377">
        <ele>411</ele>
        <time>2015-04-06T09:59:20.000Z</time>
      </trkpt>
      <trkpt lat="47.46792" lon="6.88371">
        <ele>411</ele>
        <time>2015-04-06T09:59:21.000Z</time>
      </trkpt>
      <trkpt lat="47.46792" lon="6.88365">
        <ele>411</ele>
        <time>2015-04-06T09:59:22.000Z</time>
      </trkpt>
      <trkpt lat="47.46792" lon="6.8836">
        <ele>411</ele>
        <time>2015-04-06T09:59:23.000Z</time>
      </trkpt>
      <trkpt lat="47.46792" lon="6.88354">
        <ele>411</ele>
        <time>2015-04-06T09:59:24.000Z</time>
      </trkpt>
      <trkpt lat="47.46792" lon="6.88348">
        <ele>411</ele>
        <time>2015-04-06T09:59:25.000Z</time>
      </trkpt>
      <trkpt lat="47.46792" lon="6.88343">
        <ele>411</ele>
        <time>2015-04-06T09:59:26.000Z</time>
      </trkpt>
      <trkpt lat="47.46792" lon="6.88338">
        <ele>411</ele>
        <time>2015-04-06T09:59:27.000Z</time>
      </trkpt>
      <trkpt lat="47.46792" lon="6.88333">
        <ele>410</ele>
        <time>2015-04-06T09:59:28.000Z</time>
      </trkpt>
      <trkpt lat="47.46792" lon="6.88328">
        <ele>410</ele>
        <time>2015-04-06T09:59:29.000Z</time>
      </trkpt>
      <trkpt lat="47.46792" lon="6.88323">
        <ele>410</ele>
        <time>2015-04-06T09:59:30.000Z</time>
      </trkpt>
      <trkpt lat="47.46792" lon="6.88318">
        <ele>410</ele>
        <time>2015-04-06T09:59:31.000Z</time>
      </trkpt>
      <trkpt lat="47.46793" lon="6.88313">
        <ele>410</ele>
        <time>2015-04-06T09:59:32.000Z</time>
      </trkpt>
      <trkpt lat="47.46793" lon="6.88307">
        <ele>410</ele>
        <time>2015-04-06T09:59:33.000Z</time>
      </trkpt>
      <trkpt lat="47.46793" lon="6.88302">
        <ele>410</ele>
        <time>2015-04-06T09:59:34.000Z</time>
      </trkpt>
      <trkpt lat="47.46793" lon="6.88296">
        <ele>410</ele>
        <time>2015-04-06T09:59:35.000Z</time>
      </trkpt>
      <trkpt lat="47.46794" lon="6.88291">
        <ele>410</ele>
        <time>2015-04-06T09:59:36.000Z</time>
      </trkpt>
      <trkpt lat="47.46794" lon="6.88285">
        <ele>410</ele>
        <time>2015-04-06T09:59:37.000Z</time>
      </trkpt>
      <trkpt lat="47.46795" lon="6.88278">
        <ele>410</ele>
        <time>2015-04-06T09:59:38.000Z</time>
      </trkpt>
      <trkpt lat="47.46795" lon="6.88273">
        <ele>410</ele>
        <time>2015-04-06T09:59:39.000Z</time>
      </trkpt>
      <trkpt lat="47.46796" lon="6.88267">
        <ele>410</ele>
        <time>2015-04-06T09:59:40.000Z</time>
      </trkpt>
      <trkpt lat="47.46796" lon="6.88261">
        <ele>410</ele>
        <time>2015-04-06T09:59:41.000Z</time>
      </trkpt>
      <trkpt lat="47.46797" lon="6.88255">
        <ele>410</ele>
        <time>2015-04-06T09:59:42.000Z</time>
      </trkpt>
      <trkpt lat="47.46797" lon="6.8825">
        <ele>411</ele>
        <time>2015-04-06T09:59:43.000Z</time>
      </trkpt>
      <trkpt lat="47.46797" lon="6.88244">
        <ele>411</ele>
        <time>2015-04-06T09:59:44.000Z</time>
      </trkpt>
      <trkpt lat="47.46797" lon="6.88238">
        <ele>411</ele>
        <time>2015-04-06T09:59:45.000Z</time>
      </trkpt>
      <trkpt lat="47.46798" lon="6.88233">
        <ele>411</ele>
        <time>2015-04-06T09:59:46.000Z</time>
      </trkpt>
      <trkpt lat="47.46799" lon="6.88227">
        <ele>411</ele>
        <time>2015-04-06T09:59:47.000Z</time>
      </trkpt>
      <trkpt lat="47.468" lon="6.88221">
        <ele>411</ele>
        <time>2015-04-06T09:59:48.000Z</time>
      </trkpt>
      <trkpt lat="47.46801" lon="6.88215">
        <ele>411</ele>
        <time>2015-04-06T09:59:49.000Z</time>
      </trkpt>
      <trkpt lat="47.46801" lon="6.8821">
        <ele>411</ele>
        <time>2015-04-06T09:59:50.000Z</time>
      </trkpt>
      <trkpt lat="47.46802" lon="6.88204">
        <ele>411</ele>
        <time>2015-04-06T09:59:51.000Z</time>
      </trkpt>
      <trkpt lat="47.46803" lon="6.88199">
        <ele>411</ele>
        <time>2015-04-06T09:59:52.000Z</time>
      </trkpt>
      <trkpt lat="47.46804" lon="6.88194">
        <ele>411</ele>
        <time>2015-04-06T09:59:53.000Z</time>
      </trkpt>
      <trkpt lat="47.46806" lon="6.88189">
        <ele>411</ele>
        <time>2015-04-06T09:59:54.000Z</time>
      </trkpt>
      <trkpt lat="47.46807" lon="6.88184">
        <ele>411</ele>
        <time>2015-04-06T09:59:55.000Z</time>
      </trkpt>
      <trkpt lat="47.46808" lon="6.88179">
        <ele>411</ele>
        <time>2015-04-06T09:59:56.000Z</time>
      </trkpt>
      <trkpt lat="47.46809" lon="6.88175">
        <ele>412</ele>
        <time>2015-04-06T09:59:57.000Z</time>
      </trkpt>
      <trkpt lat="47.4681" lon="6.8817">
        <ele>412</ele>
        <time>2015-04-06T09:59:58.000Z</time>
      </trkpt>
      <trkpt lat="47.46811" lon="6.88165">
        <ele>412</ele>
        <time>2015-04-06T09:59:59.000Z</time>
      </trkpt>
      <trkpt lat="47.46812" lon="6.88159">
        <ele>412</ele>
        <time>2015-04-06T10:00:00.000Z</time>
      </trkpt>
      <trkpt lat="47.46813" lon="6.88154">
        <ele>412</ele>
        <time>2015-04-06T10:00:01.000Z</time>
      </trkpt>
      <trkpt lat="47.46814" lon="6.88149">
        <ele>413</ele>
        <time>2015-04-06T10:00:02.000Z</time>
      </trkpt>
      <trkpt lat="47.46814" lon="6.88144">
        <ele>413</ele>
        <time>2015-04-06T10:00:03.000Z</time>
      </trkpt>
      <trkpt lat="47.46815" lon="6.88138">
        <ele>413</ele>
        <time>2015-04-06T10:00:04.000Z</time>
      </trkpt>
      <trkpt lat="47.46816" lon="6.88134">
        <ele>413</ele>
        <time>2015-04-06T10:00:05.000Z</time>
      </trkpt>
      <trkpt lat="47.46817" lon="6.8813">
        <ele>413</ele>
        <time>2015-04-06T10:00:06.000Z</time>
      </trkpt>
      <trkpt lat="47.46817" lon="6.88126">
        <ele>413</ele>
        <time>2015-04-06T10:00:07.000Z</time>
      </trkpt>
      <trkpt lat="47.46817" lon="6.88123">
        <ele>413</ele>
        <time>2015-04-06T10:00:08.000Z</time>
      </trkpt>
      <trkpt lat="47.46818" lon="6.88119">
        <ele>413</ele>
        <time>2015-04-06T10:00:09.000Z</time>
      </trkpt>
      <trkpt lat="47.46818" lon="6.88116">
        <ele>413</ele>
        <time>2015-04-06T10:00:10.000Z</time>
      </trkpt>
      <trkpt lat="47.46819" lon="6.88112">
        <ele>413</ele>
        <time>2015-04-06T10:00:11.000Z</time>
      </trkpt>
      <trkpt lat="47.46821" lon="6.88108">
        <ele>413</ele>
        <time>2015-04-06T10:00:12.000Z</time>
      </trkpt>
      <trkpt lat="47.46822" lon="6.88104">
        <ele>413</ele>
        <time>2015-04-06T10:00:13.000Z</time>
      </trkpt>
      <trkpt lat="47.46824" lon="6.881">
        <ele>414</ele>
        <time>2015-04-06T10:00:14.000Z</time>
      </trkpt>
      <trkpt lat="47.46825" lon="6.88096">
        <ele>414</ele>
        <time>2015-04-06T10:00:15.000Z</time>
      </trkpt>
      <trkpt lat="47.46826" lon="6.88092">
        <ele>414</ele>
        <time>2015-04-06T10:00:16.000Z</time>
      </trkpt>
      <trkpt lat="47.46826" lon="6.88088">
        <ele>414</ele>
        <time>2015-04-06T10:00:17.000Z</time>
      </trkpt>
      <trkpt lat="47.46827" lon="6.88084">
        <ele>414</ele>
        <time>2015-04-06T10:00:18.000Z</time>
      </trkpt>
      <trkpt lat="47.46828" lon="6.88081">
        <ele>415</ele>
        <time>2015-04-06T10:00:19.000Z</time>
      </trkpt>
      <trkpt lat="47.46828" lon="6.88076">
        <ele>415</ele>
        <time>2015-04-06T10:00:20.000Z</time>
      </trkpt>
      <trkpt lat="47.46829" lon="6.88072">
        <ele>414</ele>
        <time>2015-04-06T10:00:21.000Z</time>
      </trkpt>
      <trkpt lat="47.4683" lon="6.88068">
        <ele>414</ele>
        <time>2015-04-06T10:00:22.000Z</time>
      </trkpt>
      <trkpt lat="47.46831" lon="6.88064">
        <ele>414</ele>
        <time>2015-04-06T10:00:23.000Z</time>
      </trkpt>
      <trkpt lat="47.46831" lon="6.88059">
        <ele>414</ele>
        <time>2015-04-06T10:00:24.000Z</time>
      </trkpt>
      <trkpt lat="47.46832" lon="6.88055">
        <ele>414</ele>
        <time>2015-04-06T10:00:25.000Z</time>
      </trkpt>
      <trkpt lat="47.46832" lon="6.88051">
        <ele>414</ele>
        <time>2015-04-06T10:00:26.000Z</time>
      </trkpt>
      <trkpt lat="47.46833" lon="6.88047">
        <ele>414</ele>
        <time>2015-04-06T10:00:27.000Z</time>
      </trkpt>
      <trkpt lat="47.46834" lon="6.88043">
        <ele>414</ele>
        <time>2015-04-06T10:00:28.000Z</time>
      </trkpt>
      <trkpt lat="47.46834" lon="6.88039">
        <ele>414</ele>
        <time>2015-04-06T10:00:29.000Z</time>
      </trkpt>
      <trkpt lat="47.46835" lon="6.88035">
        <ele>414</ele>
        <time>2015-04-06T10:00:30.000Z</time>
      </trkpt>
      <trkpt lat="47.46835" lon="6.8803">
        <ele>414</ele>
        <time>2015-04-06T10:00:31.000Z</time>
      </trkpt>
      <trkpt lat="47.46835" lon="6.88025">
        <ele>414</ele>
        <time>2015-04-06T10:00:32.000Z</time>
      </trkpt>
      <trkpt lat="47.46834" lon="6.88021">
        <ele>414</ele>
        <time>2015-04-06T10:00:33.000Z</time>
      </trkpt>
      <trkpt lat="47.46834" lon="6.88017">
        <ele>415</ele>
        <time>2015-04-06T10:00:34.000Z</time>
      </trkpt>
      <trkpt lat="47.46833" lon="6.88013">
        <ele>415</ele>
        <time>2015-04-06T10:00:35.000Z</time>
      </trkpt>
      <trkpt lat="47.46833" lon="6.88008">
        <ele>415</ele>
        <time>2015-04-06T10:00:36.000Z</time>
      </trkpt>
      <trkpt lat="47.46833" lon="6.88004">
        <ele>416</ele>
        <time>2015-04-06T10:00:37.000Z</time>
      </trkpt>
      <trkpt lat="47.46833" lon="6.88">
        <ele>416</ele>
        <time>2015-04-06T10:00:38.000Z</time>
      </trkpt>
      <trkpt lat="47.46833" lon="6.87995">
        <ele>416</ele>
        <time>2015-04-06T10:00:39.000Z</time>
      </trkpt>
      <trkpt lat="47.46833" lon="6.87991">
        <ele>415</ele>
        <time>2015-04-06T10:00:40.000Z</time>
      </trkpt>
      <trkpt lat="47.46833" lon="6.87987">
        <ele>415</ele>
        <time>2015-04-06T10:00:41.000Z</time>
      </trkpt>
      <trkpt lat="47.46833" lon="6.87984">
        <ele>415</ele>
        <time>2015-04-06T10:00:42.000Z</time>
      </trkpt>
      <trkpt lat="47.46832" lon="6.8798">
        <ele>415</ele>
        <time>2015-04-06T10:00:43.000Z</time>
      </trkpt>
      <trkpt lat="47.46832" lon="6.87976">
        <ele>414</ele>
        <time>2015-04-06T10:00:44.000Z</time>
      </trkpt>
      <trkpt lat="47.46831" lon="6.87971">
        <ele>414</ele>
        <time>2015-04-06T10:00:45.000Z</time>
      </trkpt>
      <trkpt lat="47.46831" lon="6.87966">
        <ele>414</ele>
        <time>2015-04-06T10:00:46.000Z</time>
      </trkpt>
      <trkpt lat="47.46831" lon="6.87961">
        <ele>414</ele>
        <time>2015-04-06T10:00:47.000Z</time>
      </trkpt>
      <trkpt lat="47.46831" lon="6.87956">
        <ele>414</ele>
        <time>2015-04-06T10:00:48.000Z</time>
      </trkpt>
      <trkpt lat="47.46831" lon="6.87951">
        <ele>414</ele>
        <time>2015-04-06T10:00:49.000Z</time>
      </trkpt>
      <trkpt lat="47.46832" lon="6.87947">
        <ele>414</ele>
        <time>2015-04-06T10:00:50.000Z</time>
      </trkpt>
      <trkpt lat="47.46832" lon="6.87942">
        <ele>414</ele>
        <time>2015-04-06T10:00:51.000Z</time>
      </trkpt>
      <trkpt lat="47.46833" lon="6.87937">
        <ele>414</ele>
        <time>2015-04-06T10:00:52.000Z</time>
      </trkpt>
      <trkpt lat="47.46833" lon="6.87931">
        <ele>414</ele>
        <time>2015-04-06T10:00:53.000Z</time>
      </trkpt>
      <trkpt lat="47.46833" lon="6.87926">
        <ele>414</ele>
        <time>2015-04-06T10:00:54.000Z</time>
      </trkpt>
      <trkpt lat="47.46833" lon="6.87921">
        <ele>415</ele>
        <time>2015-04-06T10:00:55.000Z</time>
      </trkpt>
      <trkpt lat="47.46833" lon="6.87916">
        <ele>415</ele>
        <time>2015-04-06T10:00:56.000Z</time>
      </trkpt>
      <trkpt lat="47.46834" lon="6.87911">
        <ele>415</ele>
        <time>2015-04-06T10:00:57.000Z</time>
      </trkpt>
      <trkpt lat="47.46834" lon="6.87906">
        <ele>414</ele>
        <time>2015-04-06T10:00:58.000Z</time>
      </trkpt>
      <trkpt lat="47.46834" lon="6.87901">
        <ele>414</ele>
        <time>2015-04-06T10:00:59.000Z</time>
      </trkpt>
      <trkpt lat="47.46834" lon="6.87895">
        <ele>414</ele>
        <time>2015-04-06T10:01:00.000Z</time>
      </trkpt>
      <trkpt lat="47.46834" lon="6.87891">
        <ele>414</ele>
        <time>2015-04-06T10:01:01.000Z</time>
      </trkpt>
      <trkpt lat="47.46833" lon="6.87886">
        <ele>414</ele>
        <time>2015-04-06T10:01:02.000Z</time>
      </trkpt>
      <trkpt lat="47.46833" lon="6.87882">
        <ele>414</ele>
        <time>2015-04-06T10:01:03.000Z</time>
      </trkpt>
      <trkpt lat="47.46833" lon="6.87878">
        <ele>414</ele>
        <time>2015-04-06T10:01:04.000Z</time>
      </trkpt>
      <trkpt lat="47.46833" lon="6.87874">
        <ele>414</ele>
        <time>2015-04-06T10:01:05.000Z</time>
      </trkpt>
      <trkpt lat="47.46834" lon="6.87871">
        <ele>414</ele>
        <time>2015-04-06T10:01:06.000Z</time>
      </trkpt>
      <trkpt lat="47.46836" lon="6.87867">
        <ele>414</ele>
        <time>2015-04-06T10:01:07.000Z</time>
      </trkpt>
      <trkpt lat="47.46837" lon="6.87863">
        <ele>414</ele>
        <time>2015-04-06T10:01:08.000Z</time>
      </trkpt>
      <trkpt lat="47.46838" lon="6.87858">
        <ele>414</ele>
        <time>2015-04-06T10:01:09.000Z</time>
      </trkpt>
      <trkpt lat="47.46838" lon="6.87853">
        <ele>414</ele>
        <time>2015-04-06T10:01:10.000Z</time>
      </trkpt>
      <trkpt lat="47.46838" lon="6.87848">
        <ele>414</ele>
        <time>2015-04-06T10:01:11.000Z</time>
      </trkpt>
      <trkpt lat="47.46839" lon="6.87843">
        <ele>414</ele>
        <time>2015-04-06T10:01:12.000Z</time>
      </trkpt>
      <trkpt lat="47.46839" lon="6.87838">
        <ele>415</ele>
        <time>2015-04-06T10:01:13.000Z</time>
      </trkpt>
      <trkpt lat="47.46839" lon="6.87833">
        <ele>415</ele>
        <time>2015-04-06T10:01:14.000Z</time>
      </trkpt>
      <trkpt lat="47.46839" lon="6.87829">
        <ele>415</ele>
        <time>2015-04-06T10:01:15.000Z</time>
      </trkpt>
      <trkpt lat="47.4684" lon="6.87824">
        <ele>414</ele>
        <time>2015-04-06T10:01:16.000Z</time>
      </trkpt>
      <trkpt lat="47.4684" lon="6.8782">
        <ele>414</ele>
        <time>2015-04-06T10:01:17.000Z</time>
      </trkpt>
      <trkpt lat="47.4684" lon="6.87816">
        <ele>414</ele>
        <time>2015-04-06T10:01:18.000Z</time>
      </trkpt>
      <trkpt lat="47.4684" lon="6.87811">
        <ele>414</ele>
        <time>2015-04-06T10:01:19.000Z</time>
      </trkpt>
      <trkpt lat="47.4684" lon="6.87806">
        <ele>414</ele>
        <time>2015-04-06T10:01:20.000Z</time>
      </trkpt>
      <trkpt lat="47.4684" lon="6.87801">
        <ele>414</ele>
        <time>2015-04-06T10:01:21.000Z</time>
      </trkpt>
      <trkpt lat="47.46839" lon="6.87797">
        <ele>414</ele>
        <time>2015-04-06T10:01:22.000Z</time>
      </trkpt>
      <trkpt lat="47.46839" lon="6.87791">
        <ele>414</ele>
        <time>2015-04-06T10:01:23.000Z</time>
      </trkpt>
      <trkpt lat="47.46839" lon="6.87786">
        <ele>414</ele>
        <time>2015-04-06T10:01:24.000Z</time>
      </trkpt>
      <trkpt lat="47.46838" lon="6.87781">
        <ele>414</ele>
        <time>2015-04-06T10:01:25.000Z</time>
      </trkpt>
      <trkpt lat="47.46838" lon="6.87776">
        <ele>414</ele>
        <time>2015-04-06T10:01:26.000Z</time>
      </trkpt>
      <trkpt lat="47.46838" lon="6.87771">
        <ele>414</ele>
        <time>2015-04-06T10:01:27.000Z</time>
      </trkpt>
      <trkpt lat="47.46838" lon="6.87766">
        <ele>414</ele>
        <time>2015-04-06T10:01:28.000Z</time>
      </trkpt>
      <trkpt lat="47.46839" lon="6.87761">
        <ele>414</ele>
        <time>2015-04-06T10:01:29.000Z</time>
      </trkpt>
      <trkpt lat="47.46841" lon="6.87756">
        <ele>415</ele>
        <time>2015-04-06T10:01:30.000Z</time>
      </trkpt>
      <trkpt lat="47.46842" lon="6.87752">
        <ele>415</ele>
        <time>2015-04-06T10:01:31.000Z</time>
      </trkpt>
      <trkpt lat="47.46843" lon="6.87748">
        <ele>415</ele>
        <time>2015-04-06T10:01:32.000Z</time>
      </trkpt>
      <trkpt lat="47.46843" lon="6.87743">
        <ele>415</ele>
        <time>2015-04-06T10:01:33.000Z</time>
      </trkpt>
      <trkpt lat="47.46842" lon="6.87738">
        <ele>415</ele>
        <time>2015-04-06T10:01:34.000Z</time>
      </trkpt>
      <trkpt lat="47.46842" lon="6.87733">
        <ele>415</ele>
        <time>2015-04-06T10:01:35.000Z</time>
      </trkpt>
      <trkpt lat="47.46841" lon="6.87728">
        <ele>415</ele>
        <time>2015-04-06T10:01:36.000Z</time>
      </trkpt>
      <trkpt lat="47.46841" lon="6.87722">
        <ele>415</ele>
        <time>2015-04-06T10:01:37.000Z</time>
      </trkpt>
      <trkpt lat="47.46841" lon="6.87717">
        <ele>415</ele>
        <time>2015-04-06T10:01:38.000Z</time>
      </trkpt>
      <trkpt lat="47.4684" lon="6.87711">
        <ele>415</ele>
        <time>2015-04-06T10:01:39.000Z</time>
      </trkpt>
      <trkpt lat="47.46838" lon="6.87706">
        <ele>415</ele>
        <time>2015-04-06T10:01:40.000Z</time>
      </trkpt>
      <trkpt lat="47.46837" lon="6.87701">
        <ele>415</ele>
        <time>2015-04-06T10:01:41.000Z</time>
      </trkpt>
      <trkpt lat="47.46836" lon="6.87696">
        <ele>415</ele>
        <time>2015-04-06T10:01:42.000Z</time>
      </trkpt>
      <trkpt lat="47.46835" lon="6.87691">
        <ele>416</ele>
        <time>2015-04-06T10:01:43.000Z</time>
      </trkpt>
      <trkpt lat="47.46833" lon="6.87686">
        <ele>415</ele>
        <time>2015-04-06T10:01:44.000Z</time>
      </trkpt>
      <trkpt lat="47.46832" lon="6.87682">
        <ele>415</ele>
        <time>2015-04-06T10:01:45.000Z</time>
      </trkpt>
      <trkpt lat="47.46831" lon="6.87677">
        <ele>415</ele>
        <time>2015-04-06T10:01:46.000Z</time>
      </trkpt>
      <trkpt lat="47.4683" lon="6.87673">
        <ele>416</ele>
        <time>2015-04-06T10:01:47.000Z</time>
      </trkpt>
      <trkpt lat="47.46829" lon="6.87668">
        <ele>416</ele>
        <time>2015-04-06T10:01:48.000Z</time>
      </trkpt>
      <trkpt lat="47.46828" lon="6.87663">
        <ele>416</ele>
        <time>2015-04-06T10:01:49.000Z</time>
      </trkpt>
      <trkpt lat="47.46827" lon="6.87659">
        <ele>416</ele>
        <time>2015-04-06T10:01:50.000Z</time>
      </trkpt>
      <trkpt lat="47.46826" lon="6.87654">
        <ele>416</ele>
        <time>2015-04-06T10:01:51.000Z</time>
      </trkpt>
      <trkpt lat="47.46826" lon="6.87648">
        <ele>416</ele>
        <time>2015-04-06T10:01:52.000Z</time>
      </trkpt>
      <trkpt lat="47.46825" lon="6.87642">
        <ele>416</ele>
        <time>2015-04-06T10:01:53.000Z</time>
      </trkpt>
      <trkpt lat="47.46825" lon="6.87636">
        <ele>416</ele>
        <time>2015-04-06T10:01:54.000Z</time>
      </trkpt>
      <trkpt lat="47.46825" lon="6.8763">
        <ele>416</ele>
        <time>2015-04-06T10:01:55.000Z</time>
      </trkpt>
      <trkpt lat="47.46826" lon="6.87624">
        <ele>416</ele>
        <time>2015-04-06T10:01:56.000Z</time>
      </trkpt>
      <trkpt lat="47.46826" lon="6.87619">
        <ele>416</ele>
        <time>2015-04-06T10:01:57.000Z</time>
      </trkpt>
      <trkpt lat="47.46827" lon="6.87614">
        <ele>416</ele>
        <time>2015-04-06T10:01:58.000Z</time>
      </trkpt>
      <trkpt lat="47.46828" lon="6.87609">
        <ele>416</ele>
        <time>2015-04-06T10:01:59.000Z</time>
      </trkpt>
      <trkpt lat="47.46829" lon="6.87603">
        <ele>417</ele>
        <time>2015-04-06T10:02:00.000Z</time>
      </trkpt>
      <trkpt lat="47.4683" lon="6.87598">
        <ele>417</ele>
        <time>2015-04-06T10:02:01.000Z</time>
      </trkpt>
      <trkpt lat="47.46831" lon="6.87592">
        <ele>417</ele>
        <time>2015-04-06T10:02:02.000Z</time>
      </trkpt>
      <trkpt lat="47.46831" lon="6.87587">
        <ele>418</ele>
        <time>2015-04-06T10:02:03.000Z</time>
      </trkpt>
      <trkpt lat="47.46832" lon="6.87581">
        <ele>418</ele>
        <time>2015-04-06T10:02:04.000Z</time>
      </trkpt>
      <trkpt lat="47.46833" lon="6.87576">
        <ele>418</ele>
        <time>2015-04-06T10:02:05.000Z</time>
      </trkpt>
      <trkpt lat="47.46834" lon="6.8757">
        <ele>419</ele>
        <time>2015-04-06T10:02:06.000Z</time>
      </trkpt>
      <trkpt lat="47.46835" lon="6.87566">
        <ele>419</ele>
        <time>2015-04-06T10:02:07.000Z</time>
      </trkpt>
      <trkpt lat="47.46837" lon="6.87561">
        <ele>419</ele>
        <time>2015-04-06T10:02:08.000Z</time>
      </trkpt>
      <trkpt lat="47.46838" lon="6.87556">
        <ele>419</ele>
        <time>2015-04-06T10:02:09.000Z</time>
      </trkpt>
      <trkpt lat="47.4684" lon="6.87552">
        <ele>420</ele>
        <time>2015-04-06T10:02:10.000Z</time>
      </trkpt>
      <trkpt lat="47.46841" lon="6.87547">
        <ele>420</ele>
        <time>2015-04-06T10:02:11.000Z</time>
      </trkpt>
      <trkpt lat="47.46843" lon="6.87542">
        <ele>420</ele>
        <time>2015-04-06T10:02:12.000Z</time>
      </trkpt>
      <trkpt lat="47.46845" lon="6.87537">
        <ele>420</ele>
        <time>2015-04-06T10:02:13.000Z</time>
      </trkpt>
      <trkpt lat="47.46847" lon="6.87533">
        <ele>420</ele>
        <time>2015-04-06T10:02:14.000Z</time>
      </trkpt>
      <trkpt lat="47.46848" lon="6.8753">
        <ele>420</ele>
        <time>2015-04-06T10:02:15.000Z</time>
      </trkpt>
      <trkpt lat="47.4685" lon="6.87527">
        <ele>420</ele>
        <time>2015-04-06T10:02:16.000Z</time>
      </trkpt>
      <trkpt lat="47.46852" lon="6.87523">
        <ele>420</ele>
        <time>2015-04-06T10:02:17.000Z</time>
      </trkpt>
      <trkpt lat="47.46855" lon="6.8752">
        <ele>420</ele>
        <time>2015-04-06T10:02:18.000Z</time>
      </trkpt>
      <trkpt lat="47.46857" lon="6.87518">
        <ele>420</ele>
        <time>2015-04-06T10:02:19.000Z</time>
      </trkpt>
      <trkpt lat="47.4686" lon="6.87517">
        <ele>420</ele>
        <time>2015-04-06T10:02:20.000Z</time>
      </trkpt>
      <trkpt lat="47.46864" lon="6.87516">
        <ele>420</ele>
        <time>2015-04-06T10:02:21.000Z</time>
      </trkpt>
      <trkpt lat="47.46867" lon="6.87514">
        <ele>420</ele>
        <time>2015-04-06T10:02:22.000Z</time>
      </trkpt>
      <trkpt lat="47.4687" lon="6.87513">
        <ele>421</ele>
        <time>2015-04-06T10:02:23.000Z</time>
      </trkpt>
      <trkpt lat="47.46873" lon="6.87511">
        <ele>421</ele>
        <time>2015-04-06T10:02:24.000Z</time>
      </trkpt>
      <trkpt lat="47.46877" lon="6.87509">
        <ele>421</ele>
        <time>2015-04-06T10:02:25.000Z</time>
      </trkpt>
      <trkpt lat="47.46881" lon="6.87507">
        <ele>421</ele>
        <time>2015-04-06T10:02:26.000Z</time>
      </trkpt>
      <trkpt lat="47.46884" lon="6.87504">
        <ele>421</ele>
        <time>2015-04-06T10:02:27.000Z</time>
      </trkpt>
      <trkpt lat="47.46887" lon="6.87502">
        <ele>421</ele>
        <time>2015-04-06T10:02:28.000Z</time>
      </trkpt>
      <trkpt lat="47.4689" lon="6.87499">
        <ele>422</ele>
        <time>2015-04-06T10:02:29.000Z</time>
      </trkpt>
      <trkpt lat="47.46892" lon="6.87496">
        <ele>422</ele>
        <time>2015-04-06T10:02:30.000Z</time>
      </trkpt>
      <trkpt lat="47.46894" lon="6.87493">
        <ele>422</ele>
        <time>2015-04-06T10:02:31.000Z</time>
      </trkpt>
      <trkpt lat="47.46896" lon="6.87492">
        <ele>422</ele>
        <time>2015-04-06T10:02:32.001Z</time>
      </trkpt>
      <trkpt lat="47.46897" lon="6.87486">
        <ele>422</ele>
        <time>2015-04-06T10:02:33.000Z</time>
      </trkpt>
      <trkpt lat="47.46899" lon="6.87482">
        <ele>422</ele>
        <time>2015-04-06T10:02:34.000Z</time>
      </trkpt>
      <trkpt lat="47.46901" lon="6.87478">
        <ele>422</ele>
        <time>2015-04-06T10:02:35.000Z</time>
      </trkpt>
      <trkpt lat="47.46903" lon="6.87473">
        <ele>422</ele>
        <time>2015-04-06T10:02:36.000Z</time>
      </trkpt>
      <trkpt lat="47.46905" lon="6.87469">
        <ele>422</ele>
        <time>2015-04-06T10:02:37.000Z</time>
      </trkpt>
      <trkpt lat="47.46906" lon="6.87463">
        <ele>422</ele>
        <time>2015-04-06T10:02:38.000Z</time>
      </trkpt>
      <trkpt lat="47.46908" lon="6.87457">
        <ele>423</ele>
        <time>2015-04-06T10:02:39.000Z</time>
      </trkpt>
      <trkpt lat="47.46909" lon="6.87451">
        <ele>423</ele>
        <time>2015-04-06T10:02:40.000Z</time>
      </trkpt>
      <trkpt lat="47.46911" lon="6.87445">
        <ele>423</ele>
        <time>2015-04-06T10:02:41.000Z</time>
      </trkpt>
      <trkpt lat="47.46912" lon="6.87439">
        <ele>423</ele>
        <time>2015-04-06T10:02:42.000Z</time>
      </trkpt>
      <trkpt lat="47.46915" lon="6.87433">
        <ele>423</ele>
        <time>2015-04-06T10:02:43.000Z</time>
      </trkpt>
      <trkpt lat="47.46918" lon="6.87428">
        <ele>423</ele>
        <time>2015-04-06T10:02:44.000Z</time>
      </trkpt>
      <trkpt lat="47.46921" lon="6.87424">
        <ele>423</ele>
        <time>2015-04-06T10:02:45.000Z</time>
      </trkpt>
      <trkpt lat="47.46923" lon="6.87421">
        <ele>423</ele>
        <time>2015-04-06T10:02:46.000Z</time>
      </trkpt>
      <trkpt lat="47.46925" lon="6.87417">
        <ele>423</ele>
        <time>2015-04-06T10:02:48.000Z</time>
      </trkpt>
      <trkpt lat="47.46926" lon="6.87415">
        <ele>423</ele>
        <time>2015-04-06T10:02:49.000Z</time>
      </trkpt>
      <trkpt lat="47.46929" lon="6.8741">
        <ele>423</ele>
        <time>2015-04-06T10:02:51.000Z</time>
      </trkpt>
      <trkpt lat="47.46931" lon="6.87405">
        <ele>422</ele>
        <time>2015-04-06T10:02:52.000Z</time>
      </trkpt>
      <trkpt lat="47.46933" lon="6.874">
        <ele>422</ele>
        <time>2015-04-06T10:02:53.000Z</time>
      </trkpt>
      <trkpt lat="47.46935" lon="6.87394">
        <ele>422</ele>
        <time>2015-04-06T10:02:54.000Z</time>
      </trkpt>
      <trkpt lat="47.46938" lon="6.87388">
        <ele>422</ele>
        <time>2015-04-06T10:02:55.000Z</time>
      </trkpt>
      <trkpt lat="47.4694" lon="6.87382">
        <ele>421</ele>
        <time>2015-04-06T10:02:56.000Z</time>
      </trkpt>
      <trkpt lat="47.46943" lon="6.87376">
        <ele>421</ele>
        <time>2015-04-06T10:02:57.000Z</time>
      </trkpt>
      <trkpt lat="47.46953" lon="6.87363">
        <ele>421</ele>
        <time>2015-04-06T10:02:58.000Z</time>
      </trkpt>
      <trkpt lat="47.46958" lon="6.87354">
        <ele>421</ele>
        <time>2015-04-06T10:02:59.000Z</time>
      </trkpt>
      <trkpt lat="47.46961" lon="6.87349">
        <ele>421</ele>
        <time>2015-04-06T10:03:00.000Z</time>
      </trkpt>
      <trkpt lat="47.46964" lon="6.87343">
        <ele>421</ele>
        <time>2015-04-06T10:03:01.000Z</time>
      </trkpt>
      <trkpt lat="47.46965" lon="6.87338">
        <ele>421</ele>
        <time>2015-04-06T10:03:02.000Z</time>
      </trkpt>
      <trkpt lat="47.46965" lon="6.87331">
        <ele>419</ele>
        <time>2015-04-06T10:03:03.000Z</time>
      </trkpt>
      <trkpt lat="47.46963" lon="6.87323">
        <ele>418</ele>
        <time>2015-04-06T10:03:04.000Z</time>
      </trkpt>
      <trkpt lat="47.46965" lon="6.87316">
        <ele>418</ele>
        <time>2015-04-06T10:03:05.000Z</time>
      </trkpt>
      <trkpt lat="47.46965" lon="6.87309">
        <ele>418</ele>
        <time>2015-04-06T10:03:06.000Z</time>
      </trkpt>
      <trkpt lat="47.46966" lon="6.87303">
        <ele>418</ele>
        <time>2015-04-06T10:03:07.000Z</time>
      </trkpt>
      <trkpt lat="47.46969" lon="6.87299">
        <ele>418</ele>
        <time>2015-04-06T10:03:08.000Z</time>
      </trkpt>
      <trkpt lat="47.46973" lon="6.87292">
        <ele>418</ele>
        <time>2015-04-06T10:03:09.000Z</time>
      </trkpt>
      <trkpt lat="47.46975" lon="6.8728">
        <ele>417</ele>
        <time>2015-04-06T10:03:10.000Z</time>
      </trkpt>
      <trkpt lat="47.46976" lon="6.87274">
        <ele>417</ele>
        <time>2015-04-06T10:03:11.001Z</time>
      </trkpt>
      <trkpt lat="47.4698" lon="6.8726">
        <ele>417</ele>
        <time>2015-04-06T10:03:12.000Z</time>
      </trkpt>
      <trkpt lat="47.46982" lon="6.8725">
        <ele>417</ele>
        <time>2015-04-06T10:03:13.000Z</time>
      </trkpt>
      <trkpt lat="47.46985" lon="6.87241">
        <ele>415</ele>
        <time>2015-04-06T10:03:14.000Z</time>
      </trkpt>
      <trkpt lat="47.46988" lon="6.87228">
        <ele>415</ele>
        <time>2015-04-06T10:03:15.000Z</time>
      </trkpt>
      <trkpt lat="47.46989" lon="6.87218">
        <ele>414</ele>
        <time>2015-04-06T10:03:16.000Z</time>
      </trkpt>
      <trkpt lat="47.4699" lon="6.87208">
        <ele>414</ele>
        <time>2015-04-06T10:03:17.000Z</time>
      </trkpt>
      <trkpt lat="47.46992" lon="6.872">
        <ele>414</ele>
        <time>2015-04-06T10:03:18.000Z</time>
      </trkpt>
      <trkpt lat="47.46992" lon="6.8719">
        <ele>414</ele>
        <time>2015-04-06T10:03:19.000Z</time>
      </trkpt>
      <trkpt lat="47.46992" lon="6.87179">
        <ele>414</ele>
        <time>2015-04-06T10:03:20.000Z</time>
      </trkpt>
      <trkpt lat="47.46995" lon="6.87168">
        <ele>414</ele>
        <time>2015-04-06T10:03:21.000Z</time>
      </trkpt>
      <trkpt lat="47.46998" lon="6.87159">
        <ele>413</ele>
        <time>2015-04-06T10:03:22.000Z</time>
      </trkpt>
      <trkpt lat="47.47004" lon="6.8715">
        <ele>413</ele>
        <time>2015-04-06T10:03:23.000Z</time>
      </trkpt>
      <trkpt lat="47.47008" lon="6.87141">
        <ele>412</ele>
        <time>2015-04-06T10:03:24.000Z</time>
      </trkpt>
      <trkpt lat="47.47011" lon="6.8713">
        <ele>412</ele>
        <time>2015-04-06T10:03:25.000Z</time>
      </trkpt>
      <trkpt lat="47.47013" lon="6.87121">
        <ele>411</ele>
        <time>2015-04-06T10:03:26.000Z</time>
      </trkpt>
      <trkpt lat="47.47015" lon="6.87116">
        <ele>411</ele>
        <time>2015-04-06T10:03:29.000Z</time>
      </trkpt>
      <trkpt lat="47.47015" lon="6.87109">
        <ele>410</ele>
        <time>2015-04-06T10:03:30.000Z</time>
      </trkpt>
      <trkpt lat="47.47016" lon="6.87102">
        <ele>410</ele>
        <time>2015-04-06T10:03:31.000Z</time>
      </trkpt>
      <trkpt lat="47.47016" lon="6.87096">
        <ele>409</ele>
        <time>2015-04-06T10:03:32.000Z</time>
      </trkpt>
      <trkpt lat="47.47017" lon="6.87089">
        <ele>409</ele>
        <time>2015-04-06T10:03:33.000Z</time>
      </trkpt>
      <trkpt lat="47.47019" lon="6.8708">
        <ele>406</ele>
        <time>2015-04-06T10:03:34.000Z</time>
      </trkpt>
      <trkpt lat="47.4702" lon="6.87074">
        <ele>406</ele>
        <time>2015-04-06T10:03:35.000Z</time>
      </trkpt>
      <trkpt lat="47.47021" lon="6.87069">
        <ele>406</ele>
        <time>2015-04-06T10:03:36.000Z</time>
      </trkpt>
      <trkpt lat="47.47022" lon="6.87063">
        <ele>406</ele>
        <time>2015-04-06T10:03:38.000Z</time>
      </trkpt>
      <trkpt lat="47.47023" lon="6.87062">
        <ele>406</ele>
        <time>2015-04-06T10:03:39.000Z</time>
      </trkpt>
      <trkpt lat="47.47025" lon="6.87057">
        <ele>406</ele>
        <time>2015-04-06T10:03:41.000Z</time>
      </trkpt>
      <trkpt lat="47.47025" lon="6.87054">
        <ele>406</ele>
        <time>2015-04-06T10:03:42.000Z</time>
      </trkpt>
      <trkpt lat="47.47026" lon="6.87051">
        <ele>406</ele>
        <time>2015-04-06T10:03:43.000Z</time>
      </trkpt>
      <trkpt lat="47.47027" lon="6.87046">
        <ele>406</ele>
        <time>2015-04-06T10:03:44.000Z</time>
      </trkpt>
      <trkpt lat="47.47027" lon="6.87043">
        <ele>406</ele>
        <time>2015-04-06T10:03:45.000Z</time>
      </trkpt>
      <trkpt lat="47.47028" lon="6.87039">
        <ele>405</ele>
        <time>2015-04-06T10:03:46.000Z</time>
      </trkpt>
      <trkpt lat="47.47029" lon="6.87036">
        <ele>405</ele>
        <time>2015-04-06T10:03:47.000Z</time>
      </trkpt>
      <trkpt lat="47.4703" lon="6.87033">
        <ele>405</ele>
        <time>2015-04-06T10:03:48.000Z</time>
      </trkpt>
      <trkpt lat="47.4703" lon="6.87029">
        <ele>405</ele>
        <time>2015-04-06T10:03:49.000Z</time>
      </trkpt>
      <trkpt lat="47.4703" lon="6.87025">
        <ele>405</ele>
        <time>2015-04-06T10:03:50.000Z</time>
      </trkpt>
      <trkpt lat="47.47031" lon="6.87021">
        <ele>405</ele>
        <time>2015-04-06T10:03:51.000Z</time>
      </trkpt>
      <trkpt lat="47.47032" lon="6.87017">
        <ele>405</ele>
        <time>2015-04-06T10:03:52.000Z</time>
      </trkpt>
      <trkpt lat="47.47033" lon="6.87012">
        <ele>405</ele>
        <time>2015-04-06T10:03:53.000Z</time>
      </trkpt>
      <trkpt lat="47.47033" lon="6.87008">
        <ele>405</ele>
        <time>2015-04-06T10:03:54.000Z</time>
      </trkpt>
      <trkpt lat="47.47034" lon="6.87005">
        <ele>405</ele>
        <time>2015-04-06T10:03:55.000Z</time>
      </trkpt>
      <trkpt lat="47.47035" lon="6.87002">
        <ele>405</ele>
        <time>2015-04-06T10:03:56.000Z</time>
      </trkpt>
      <trkpt lat="47.47036" lon="6.86996">
        <ele>402</ele>
        <time>2015-04-06T10:03:58.000Z</time>
      </trkpt>
      <trkpt lat="47.47036" lon="6.86994">
        <ele>402</ele>
        <time>2015-04-06T10:03:59.000Z</time>
      </trkpt>
      <trkpt lat="47.47037" lon="6.8699">
        <ele>402</ele>
        <time>2015-04-06T10:04:00.000Z</time>
      </trkpt>
      <trkpt lat="47.47038" lon="6.86987">
        <ele>402</ele>
        <time>2015-04-06T10:04:01.000Z</time>
      </trkpt>
      <trkpt lat="47.4704" lon="6.86983">
        <ele>402</ele>
        <time>2015-04-06T10:04:02.000Z</time>
      </trkpt>
      <trkpt lat="47.47041" lon="6.8698">
        <ele>402</ele>
        <time>2015-04-06T10:04:03.000Z</time>
      </trkpt>
      <trkpt lat="47.47042" lon="6.86976">
        <ele>402</ele>
        <time>2015-04-06T10:04:04.000Z</time>
      </trkpt>
      <trkpt lat="47.47043" lon="6.86972">
        <ele>402</ele>
        <time>2015-04-06T10:04:05.000Z</time>
      </trkpt>
      <trkpt lat="47.47043" lon="6.86968">
        <ele>402</ele>
        <time>2015-04-06T10:04:06.001Z</time>
      </trkpt>
      <trkpt lat="47.47044" lon="6.86962">
        <ele>402</ele>
        <time>2015-04-06T10:04:07.000Z</time>
      </trkpt>
      <trkpt lat="47.47044" lon="6.86957">
        <ele>402</ele>
        <time>2015-04-06T10:04:08.000Z</time>
      </trkpt>
      <trkpt lat="47.47043" lon="6.86951">
        <ele>402</ele>
        <time>2015-04-06T10:04:09.000Z</time>
      </trkpt>
      <trkpt lat="47.47042" lon="6.86948">
        <ele>402</ele>
        <time>2015-04-06T10:04:10.001Z</time>
      </trkpt>
      <trkpt lat="47.47041" lon="6.86937">
        <ele>402</ele>
        <time>2015-04-06T10:04:11.000Z</time>
      </trkpt>
      <trkpt lat="47.47042" lon="6.8693">
        <ele>402</ele>
        <time>2015-04-06T10:04:12.000Z</time>
      </trkpt>
      <trkpt lat="47.47043" lon="6.86921">
        <ele>401</ele>
        <time>2015-04-06T10:04:13.000Z</time>
      </trkpt>
      <trkpt lat="47.47044" lon="6.86912">
        <ele>399</ele>
        <time>2015-04-06T10:04:14.000Z</time>
      </trkpt>
      <trkpt lat="47.47046" lon="6.86904">
        <ele>399</ele>
        <time>2015-04-06T10:04:15.000Z</time>
      </trkpt>
      <trkpt lat="47.47048" lon="6.86895">
        <ele>398</ele>
        <time>2015-04-06T10:04:16.000Z</time>
      </trkpt>
      <trkpt lat="47.4705" lon="6.86887">
        <ele>398</ele>
        <time>2015-04-06T10:04:17.000Z</time>
      </trkpt>
      <trkpt lat="47.47051" lon="6.86879">
        <ele>398</ele>
        <time>2015-04-06T10:04:18.000Z</time>
      </trkpt>
      <trkpt lat="47.47052" lon="6.86872">
        <ele>398</ele>
        <time>2015-04-06T10:04:19.000Z</time>
      </trkpt>
      <trkpt lat="47.47054" lon="6.86864">
        <ele>397</ele>
        <time>2015-04-06T10:04:20.000Z</time>
      </trkpt>
      <trkpt lat="47.47056" lon="6.86855">
        <ele>397</ele>
        <time>2015-04-06T10:04:21.000Z</time>
      </trkpt>
      <trkpt lat="47.47058" lon="6.86847">
        <ele>397</ele>
        <time>2015-04-06T10:04:22.000Z</time>
      </trkpt>
      <trkpt lat="47.47061" lon="6.86838">
        <ele>397</ele>
        <time>2015-04-06T10:04:23.000Z</time>
      </trkpt>
      <trkpt lat="47.47064" lon="6.86828">
        <ele>395</ele>
        <time>2015-04-06T10:04:24.000Z</time>
      </trkpt>
      <trkpt lat="47.47067" lon="6.86819">
        <ele>395</ele>
        <time>2015-04-06T10:04:25.000Z</time>
      </trkpt>
      <trkpt lat="47.4707" lon="6.86809">
        <ele>394</ele>
        <time>2015-04-06T10:04:26.000Z</time>
      </trkpt>
      <trkpt lat="47.47093" lon="6.86782">
        <ele>392</ele>
        <time>2015-04-06T10:04:27.000Z</time>
      </trkpt>
      <trkpt lat="47.47098" lon="6.86771">
        <ele>392</ele>
        <time>2015-04-06T10:04:28.000Z</time>
      </trkpt>
      <trkpt lat="47.47102" lon="6.8676">
        <ele>392</ele>
        <time>2015-04-06T10:04:29.000Z</time>
      </trkpt>
      <trkpt lat="47.47106" lon="6.86752">
        <ele>392</ele>
        <time>2015-04-06T10:04:30.000Z</time>
      </trkpt>
      <trkpt lat="47.47112" lon="6.86743">
        <ele>390</ele>
        <time>2015-04-06T10:04:31.000Z</time>
      </trkpt>
      <trkpt lat="47.47118" lon="6.86734">
        <ele>390</ele>
        <time>2015-04-06T10:04:32.000Z</time>
      </trkpt>
      <trkpt lat="47.47122" lon="6.86726">
        <ele>390</ele>
        <time>2015-04-06T10:04:33.000Z</time>
      </trkpt>
      <trkpt lat="47.47124" lon="6.86716">
        <ele>390</ele>
        <time>2015-04-06T10:04:34.000Z</time>
      </trkpt>
      <trkpt lat="47.47126" lon="6.86707">
        <ele>389</ele>
        <time>2015-04-06T10:04:35.000Z</time>
      </trkpt>
      <trkpt lat="47.47131" lon="6.86696">
        <ele>389</ele>
        <time>2015-04-06T10:04:36.000Z</time>
      </trkpt>
      <trkpt lat="47.47135" lon="6.86689">
        <ele>389</ele>
        <time>2015-04-06T10:04:37.000Z</time>
      </trkpt>
      <trkpt lat="47.47138" lon="6.86682">
        <ele>389</ele>
        <time>2015-04-06T10:04:38.000Z</time>
      </trkpt>
      <trkpt lat="47.47143" lon="6.86674">
        <ele>389</ele>
        <time>2015-04-06T10:04:39.000Z</time>
      </trkpt>
      <trkpt lat="47.47148" lon="6.86667">
        <ele>389</ele>
        <time>2015-04-06T10:04:40.000Z</time>
      </trkpt>
      <trkpt lat="47.47149" lon="6.8666">
        <ele>388</ele>
        <time>2015-04-06T10:04:41.000Z</time>
      </trkpt>
      <trkpt lat="47.4715" lon="6.86654">
        <ele>388</ele>
        <time>2015-04-06T10:04:42.000Z</time>
      </trkpt>
      <trkpt lat="47.47152" lon="6.86645">
        <ele>388</ele>
        <time>2015-04-06T10:04:43.000Z</time>
      </trkpt>
      <trkpt lat="47.47155" lon="6.86638">
        <ele>387</ele>
        <time>2015-04-06T10:04:44.000Z</time>
      </trkpt>
      <trkpt lat="47.47155" lon="6.86632">
        <ele>387</ele>
        <time>2015-04-06T10:04:45.000Z</time>
      </trkpt>
      <trkpt lat="47.47157" lon="6.86626">
        <ele>387</ele>
        <time>2015-04-06T10:04:46.000Z</time>
      </trkpt>
      <trkpt lat="47.47159" lon="6.86621">
        <ele>387</ele>
        <time>2015-04-06T10:04:47.000Z</time>
      </trkpt>
      <trkpt lat="47.47161" lon="6.86616">
        <ele>387</ele>
        <time>2015-04-06T10:04:48.000Z</time>
      </trkpt>
      <trkpt lat="47.47164" lon="6.8661">
        <ele>386</ele>
        <time>2015-04-06T10:04:49.000Z</time>
      </trkpt>
      <trkpt lat="47.47167" lon="6.86605">
        <ele>386</ele>
        <time>2015-04-06T10:04:50.000Z</time>
      </trkpt>
      <trkpt lat="47.4717" lon="6.86599">
        <ele>384</ele>
        <time>2015-04-06T10:04:51.000Z</time>
      </trkpt>
      <trkpt lat="47.47173" lon="6.86594">
        <ele>384</ele>
        <time>2015-04-06T10:04:52.000Z</time>
      </trkpt>
      <trkpt lat="47.47176" lon="6.8659">
        <ele>384</ele>
        <time>2015-04-06T10:04:53.000Z</time>
      </trkpt>
      <trkpt lat="47.47179" lon="6.86588">
        <ele>384</ele>
        <time>2015-04-06T10:04:54.000Z</time>
      </trkpt>
      <trkpt lat="47.47182" lon="6.86587">
        <ele>384</ele>
        <time>2015-04-06T10:04:55.000Z</time>
      </trkpt>
      <trkpt lat="47.47186" lon="6.86586">
        <ele>384</ele>
        <time>2015-04-06T10:04:56.000Z</time>
      </trkpt>
      <trkpt lat="47.47189" lon="6.86584">
        <ele>384</ele>
        <time>2015-04-06T10:04:57.000Z</time>
      </trkpt>
      <trkpt lat="47.47192" lon="6.86583">
        <ele>384</ele>
        <time>2015-04-06T10:04:58.000Z</time>
      </trkpt>
      <trkpt lat="47.47195" lon="6.86582">
        <ele>382</ele>
        <time>2015-04-06T10:04:59.000Z</time>
      </trkpt>
      <trkpt lat="47.47198" lon="6.86581">
        <ele>381</ele>
        <time>2015-04-06T10:05:00.000Z</time>
      </trkpt>
      <trkpt lat="47.472" lon="6.8658">
        <ele>381</ele>
        <time>2015-04-06T10:05:01.000Z</time>
      </trkpt>
      <trkpt lat="47.47202" lon="6.86579">
        <ele>381</ele>
        <time>2015-04-06T10:05:02.000Z</time>
      </trkpt>
      <trkpt lat="47.47205" lon="6.86577">
        <ele>381</ele>
        <time>2015-04-06T10:05:03.000Z</time>
      </trkpt>
      <trkpt lat="47.47207" lon="6.86576">
        <ele>381</ele>
        <time>2015-04-06T10:05:04.000Z</time>
      </trkpt>
      <trkpt lat="47.4721" lon="6.86574">
        <ele>381</ele>
        <time>2015-04-06T10:05:05.000Z</time>
      </trkpt>
      <trkpt lat="47.47213" lon="6.86571">
        <ele>381</ele>
        <time>2015-04-06T10:05:06.000Z</time>
      </trkpt>
      <trkpt lat="47.47216" lon="6.86568">
        <ele>381</ele>
        <time>2015-04-06T10:05:07.000Z</time>
      </trkpt>
      <trkpt lat="47.4722" lon="6.86564">
        <ele>381</ele>
        <time>2015-04-06T10:05:08.000Z</time>
      </trkpt>
      <trkpt lat="47.47223" lon="6.8656">
        <ele>381</ele>
        <time>2015-04-06T10:05:09.000Z</time>
      </trkpt>
      <trkpt lat="47.47226" lon="6.86554">
        <ele>380</ele>
        <time>2015-04-06T10:05:10.000Z</time>
      </trkpt>
      <trkpt lat="47.47229" lon="6.86547">
        <ele>380</ele>
        <time>2015-04-06T10:05:11.000Z</time>
      </trkpt>
      <trkpt lat="47.4723" lon="6.8654">
        <ele>380</ele>
        <time>2015-04-06T10:05:12.000Z</time>
      </trkpt>
      <trkpt lat="47.4723" lon="6.86533">
        <ele>380</ele>
        <time>2015-04-06T10:05:13.000Z</time>
      </trkpt>
      <trkpt lat="47.47229" lon="6.86527">
        <ele>380</ele>
        <time>2015-04-06T10:05:14.000Z</time>
      </trkpt>
      <trkpt lat="47.47228" lon="6.86521">
        <ele>380</ele>
        <time>2015-04-06T10:05:15.000Z</time>
      </trkpt>
      <trkpt lat="47.47227" lon="6.86518">
        <ele>379</ele>
        <time>2015-04-06T10:05:16.000Z</time>
      </trkpt>
      <trkpt lat="47.47226" lon="6.86515">
        <ele>379</ele>
        <time>2015-04-06T10:05:17.000Z</time>
      </trkpt>
      <trkpt lat="47.47229" lon="6.86511">
        <ele>379</ele>
        <time>2015-04-06T10:05:21.000Z</time>
      </trkpt>
      <trkpt lat="47.47231" lon="6.86509">
        <ele>379</ele>
        <time>2015-04-06T10:05:22.000Z</time>
      </trkpt>
      <trkpt lat="47.47233" lon="6.86507">
        <ele>379</ele>
        <time>2015-04-06T10:05:23.000Z</time>
      </trkpt>
      <trkpt lat="47.47235" lon="6.86505">
        <ele>379</ele>
        <time>2015-04-06T10:05:24.000Z</time>
      </trkpt>
      <trkpt lat="47.47237" lon="6.86502">
        <ele>379</ele>
        <time>2015-04-06T10:05:25.000Z</time>
      </trkpt>
      <trkpt lat="47.47238" lon="6.86498">
        <ele>377</ele>
        <time>2015-04-06T10:05:26.000Z</time>
      </trkpt>
      <trkpt lat="47.4724" lon="6.86493">
        <ele>377</ele>
        <time>2015-04-06T10:05:27.000Z</time>
      </trkpt>
      <trkpt lat="47.4725" lon="6.86478">
        <ele>377</ele>
        <time>2015-04-06T10:05:28.000Z</time>
      </trkpt>
      <trkpt lat="47.47252" lon="6.8647">
        <ele>375</ele>
        <time>2015-04-06T10:05:29.000Z</time>
      </trkpt>
      <trkpt lat="47.47253" lon="6.86462">
        <ele>375</ele>
        <time>2015-04-06T10:05:30.000Z</time>
      </trkpt>
      <trkpt lat="47.47254" lon="6.86456">
        <ele>375</ele>
        <time>2015-04-06T10:05:30.999Z</time>
      </trkpt>
      <trkpt lat="47.47256" lon="6.86449">
        <ele>375</ele>
        <time>2015-04-06T10:05:32.001Z</time>
      </trkpt>
      <trkpt lat="47.47258" lon="6.86439">
        <ele>375</ele>
        <time>2015-04-06T10:05:33.000Z</time>
      </trkpt>
      <trkpt lat="47.47259" lon="6.86433">
        <ele>375</ele>
        <time>2015-04-06T10:05:34.000Z</time>
      </trkpt>
      <trkpt lat="47.47262" lon="6.86426">
        <ele>375</ele>
        <time>2015-04-06T10:05:35.000Z</time>
      </trkpt>
      <trkpt lat="47.47265" lon="6.86422">
        <ele>375</ele>
        <time>2015-04-06T10:05:36.000Z</time>
      </trkpt>
      <trkpt lat="47.47268" lon="6.86416">
        <ele>374</ele>
        <time>2015-04-06T10:05:37.000Z</time>
      </trkpt>
      <trkpt lat="47.47272" lon="6.8641">
        <ele>373</ele>
        <time>2015-04-06T10:05:38.000Z</time>
      </trkpt>
      <trkpt lat="47.47276" lon="6.86403">
        <ele>373</ele>
        <time>2015-04-06T10:05:39.000Z</time>
      </trkpt>
      <trkpt lat="47.47278" lon="6.86396">
        <ele>373</ele>
        <time>2015-04-06T10:05:40.000Z</time>
      </trkpt>
      <trkpt lat="47.4728" lon="6.86387">
        <ele>373</ele>
        <time>2015-04-06T10:05:41.000Z</time>
      </trkpt>
      <trkpt lat="47.47283" lon="6.86378">
        <ele>373</ele>
        <time>2015-04-06T10:05:42.000Z</time>
      </trkpt>
      <trkpt lat="47.47285" lon="6.8637">
        <ele>373</ele>
        <time>2015-04-06T10:05:43.000Z</time>
      </trkpt>
      <trkpt lat="47.47288" lon="6.86362">
        <ele>372</ele>
        <time>2015-04-06T10:05:44.000Z</time>
      </trkpt>
      <trkpt lat="47.47292" lon="6.86355">
        <ele>372</ele>
        <time>2015-04-06T10:05:45.000Z</time>
      </trkpt>
      <trkpt lat="47.47296" lon="6.86347">
        <ele>372</ele>
        <time>2015-04-06T10:05:46.000Z</time>
      </trkpt>
      <trkpt lat="47.47299" lon="6.86339">
        <ele>372</ele>
        <time>2015-04-06T10:05:47.000Z</time>
      </trkpt>
      <trkpt lat="47.47303" lon="6.86331">
        <ele>371</ele>
        <time>2015-04-06T10:05:48.000Z</time>
      </trkpt>
      <trkpt lat="47.47308" lon="6.86324">
        <ele>370</ele>
        <time>2015-04-06T10:05:49.000Z</time>
      </trkpt>
      <trkpt lat="47.47311" lon="6.86318">
        <ele>370</ele>
        <time>2015-04-06T10:05:50.000Z</time>
      </trkpt>
      <trkpt lat="47.47313" lon="6.8631">
        <ele>370</ele>
        <time>2015-04-06T10:05:51.000Z</time>
      </trkpt>
      <trkpt lat="47.47317" lon="6.86303">
        <ele>370</ele>
        <time>2015-04-06T10:05:52.000Z</time>
      </trkpt>
      <trkpt lat="47.47321" lon="6.86295">
        <ele>370</ele>
        <time>2015-04-06T10:05:53.000Z</time>
      </trkpt>
      <trkpt lat="47.47326" lon="6.86287">
        <ele>370</ele>
        <time>2015-04-06T10:05:54.000Z</time>
      </trkpt>
      <trkpt lat="47.4733" lon="6.86279">
        <ele>370</ele>
        <time>2015-04-06T10:05:55.000Z</time>
      </trkpt>
      <trkpt lat="47.47334" lon="6.8627">
        <ele>369</ele>
        <time>2015-04-06T10:05:56.000Z</time>
      </trkpt>
      <trkpt lat="47.47338" lon="6.8626">
        <ele>369</ele>
        <time>2015-04-06T10:05:57.000Z</time>
      </trkpt>
      <trkpt lat="47.47342" lon="6.86251">
        <ele>369</ele>
        <time>2015-04-06T10:05:58.000Z</time>
      </trkpt>
      <trkpt lat="47.47345" lon="6.86243">
        <ele>368</ele>
        <time>2015-04-06T10:05:59.000Z</time>
      </trkpt>
      <trkpt lat="47.47348" lon="6.86234">
        <ele>368</ele>
        <time>2015-04-06T10:06:00.000Z</time>
      </trkpt>
      <trkpt lat="47.47351" lon="6.86225">
        <ele>368</ele>
        <time>2015-04-06T10:06:01.000Z</time>
      </trkpt>
      <trkpt lat="47.47355" lon="6.86216">
        <ele>368</ele>
        <time>2015-04-06T10:06:02.000Z</time>
      </trkpt>
      <trkpt lat="47.4736" lon="6.86205">
        <ele>368</ele>
        <time>2015-04-06T10:06:03.000Z</time>
      </trkpt>
      <trkpt lat="47.47363" lon="6.86196">
        <ele>367</ele>
        <time>2015-04-06T10:06:04.000Z</time>
      </trkpt>
      <trkpt lat="47.47366" lon="6.86185">
        <ele>367</ele>
        <time>2015-04-06T10:06:05.000Z</time>
      </trkpt>
      <trkpt lat="47.4737" lon="6.86175">
        <ele>367</ele>
        <time>2015-04-06T10:06:06.000Z</time>
      </trkpt>
      <trkpt lat="47.47373" lon="6.86164">
        <ele>366</ele>
        <time>2015-04-06T10:06:07.000Z</time>
      </trkpt>
      <trkpt lat="47.47373" lon="6.86154">
        <ele>365</ele>
        <time>2015-04-06T10:06:08.000Z</time>
      </trkpt>
      <trkpt lat="47.47375" lon="6.86142">
        <ele>365</ele>
        <time>2015-04-06T10:06:09.000Z</time>
      </trkpt>
      <trkpt lat="47.47378" lon="6.86131">
        <ele>365</ele>
        <time>2015-04-06T10:06:10.000Z</time>
      </trkpt>
      <trkpt lat="47.47379" lon="6.86121">
        <ele>365</ele>
        <time>2015-04-06T10:06:11.000Z</time>
      </trkpt>
      <trkpt lat="47.47382" lon="6.86111">
        <ele>365</ele>
        <time>2015-04-06T10:06:12.000Z</time>
      </trkpt>
      <trkpt lat="47.47385" lon="6.86102">
        <ele>365</ele>
        <time>2015-04-06T10:06:13.000Z</time>
      </trkpt>
      <trkpt lat="47.47389" lon="6.86092">
        <ele>364</ele>
        <time>2015-04-06T10:06:14.000Z</time>
      </trkpt>
      <trkpt lat="47.47392" lon="6.86084">
        <ele>364</ele>
        <time>2015-04-06T10:06:15.000Z</time>
      </trkpt>
      <trkpt lat="47.47393" lon="6.86073">
        <ele>363</ele>
        <time>2015-04-06T10:06:16.000Z</time>
      </trkpt>
      <trkpt lat="47.47393" lon="6.86062">
        <ele>363</ele>
        <time>2015-04-06T10:06:17.000Z</time>
      </trkpt>
      <trkpt lat="47.47394" lon="6.8605">
        <ele>363</ele>
        <time>2015-04-06T10:06:18.000Z</time>
      </trkpt>
      <trkpt lat="47.47395" lon="6.86038">
        <ele>363</ele>
        <time>2015-04-06T10:06:19.000Z</time>
      </trkpt>
      <trkpt lat="47.47397" lon="6.86028">
        <ele>363</ele>
        <time>2015-04-06T10:06:20.000Z</time>
      </trkpt>
      <trkpt lat="47.47397" lon="6.86018">
        <ele>363</ele>
        <time>2015-04-06T10:06:21.000Z</time>
      </trkpt>
      <trkpt lat="47.47397" lon="6.86008">
        <ele>363</ele>
        <time>2015-04-06T10:06:22.000Z</time>
      </trkpt>
      <trkpt lat="47.47396" lon="6.85999">
        <ele>362</ele>
        <time>2015-04-06T10:06:23.000Z</time>
      </trkpt>
      <trkpt lat="47.47397" lon="6.85991">
        <ele>362</ele>
        <time>2015-04-06T10:06:24.000Z</time>
      </trkpt>
      <trkpt lat="47.47397" lon="6.85983">
        <ele>362</ele>
        <time>2015-04-06T10:06:25.000Z</time>
      </trkpt>
      <trkpt lat="47.47397" lon="6.85972">
        <ele>362</ele>
        <time>2015-04-06T10:06:26.000Z</time>
      </trkpt>
      <trkpt lat="47.47397" lon="6.85964">
        <ele>361</ele>
        <time>2015-04-06T10:06:27.000Z</time>
      </trkpt>
      <trkpt lat="47.47398" lon="6.85955">
        <ele>361</ele>
        <time>2015-04-06T10:06:28.000Z</time>
      </trkpt>
      <trkpt lat="47.47399" lon="6.85947">
        <ele>361</ele>
        <time>2015-04-06T10:06:29.000Z</time>
      </trkpt>
      <trkpt lat="47.47403" lon="6.85941">
        <ele>361</ele>
        <time>2015-04-06T10:06:30.000Z</time>
      </trkpt>
      <trkpt lat="47.47409" lon="6.8594">
        <ele>361</ele>
        <time>2015-04-06T10:06:31.000Z</time>
      </trkpt>
      <trkpt lat="47.47413" lon="6.85938">
        <ele>361</ele>
        <time>2015-04-06T10:06:32.000Z</time>
      </trkpt>
      <trkpt lat="47.47418" lon="6.85938">
        <ele>361</ele>
        <time>2015-04-06T10:06:33.000Z</time>
      </trkpt>
      <trkpt lat="47.47423" lon="6.85938">
        <ele>360</ele>
        <time>2015-04-06T10:06:34.000Z</time>
      </trkpt>
      <trkpt lat="47.47429" lon="6.85937">
        <ele>361</ele>
        <time>2015-04-06T10:06:35.000Z</time>
      </trkpt>
      <trkpt lat="47.47435" lon="6.85937">
        <ele>361</ele>
        <time>2015-04-06T10:06:36.000Z</time>
      </trkpt>
      <trkpt lat="47.47438" lon="6.85938">
        <ele>361</ele>
        <time>2015-04-06T10:06:37.000Z</time>
      </trkpt>
      <trkpt lat="47.47445" lon="6.85938">
        <ele>361</ele>
        <time>2015-04-06T10:06:38.000Z</time>
      </trkpt>
      <trkpt lat="47.47449" lon="6.85938">
        <ele>361</ele>
        <time>2015-04-06T10:06:39.000Z</time>
      </trkpt>
      <trkpt lat="47.47452" lon="6.85937">
        <ele>361</ele>
        <time>2015-04-06T10:06:40.000Z</time>
      </trkpt>
      <trkpt lat="47.47457" lon="6.85936">
        <ele>361</ele>
        <time>2015-04-06T10:06:41.000Z</time>
      </trkpt>
      <trkpt lat="47.47461" lon="6.85933">
        <ele>361</ele>
        <time>2015-04-06T10:06:42.000Z</time>
      </trkpt>
      <trkpt lat="47.47466" lon="6.85932">
        <ele>361</ele>
        <time>2015-04-06T10:06:43.000Z</time>
      </trkpt>
      <trkpt lat="47.47471" lon="6.85929">
        <ele>360</ele>
        <time>2015-04-06T10:06:44.000Z</time>
      </trkpt>
      <trkpt lat="47.47477" lon="6.85927">
        <ele>360</ele>
        <time>2015-04-06T10:06:45.000Z</time>
      </trkpt>
      <trkpt lat="47.47481" lon="6.85926">
        <ele>360</ele>
        <time>2015-04-06T10:06:46.000Z</time>
      </trkpt>
      <trkpt lat="47.47485" lon="6.85923">
        <ele>360</ele>
        <time>2015-04-06T10:06:47.000Z</time>
      </trkpt>
      <trkpt lat="47.4749" lon="6.85923">
        <ele>360</ele>
        <time>2015-04-06T10:06:48.000Z</time>
      </trkpt>
      <trkpt lat="47.47494" lon="6.85921">
        <ele>360</ele>
        <time>2015-04-06T10:06:49.000Z</time>
      </trkpt>
      <trkpt lat="47.47499" lon="6.8592">
        <ele>360</ele>
        <time>2015-04-06T10:06:50.000Z</time>
      </trkpt>
      <trkpt lat="47.47503" lon="6.85921">
        <ele>360</ele>
        <time>2015-04-06T10:06:51.000Z</time>
      </trkpt>
      <trkpt lat="47.47507" lon="6.85922">
        <ele>360</ele>
        <time>2015-04-06T10:06:52.000Z</time>
      </trkpt>
      <trkpt lat="47.47511" lon="6.85924">
        <ele>359</ele>
        <time>2015-04-06T10:06:53.000Z</time>
      </trkpt>
      <trkpt lat="47.47514" lon="6.85933">
        <ele>359</ele>
        <time>2015-04-06T10:06:54.000Z</time>
      </trkpt>
      <trkpt lat="47.47518" lon="6.85936">
        <ele>359</ele>
        <time>2015-04-06T10:06:55.000Z</time>
      </trkpt>
      <trkpt lat="47.47522" lon="6.85941">
        <ele>359</ele>
        <time>2015-04-06T10:06:56.000Z</time>
      </trkpt>
      <trkpt lat="47.47527" lon="6.85943">
        <ele>359</ele>
        <time>2015-04-06T10:06:57.000Z</time>
      </trkpt>
      <trkpt lat="47.47529" lon="6.8595">
        <ele>359</ele>
        <time>2015-04-06T10:06:58.000Z</time>
      </trkpt>
      <trkpt lat="47.47534" lon="6.85955">
        <ele>359</ele>
        <time>2015-04-06T10:06:59.000Z</time>
      </trkpt>
      <trkpt lat="47.47537" lon="6.85961">
        <ele>359</ele>
        <time>2015-04-06T10:07:00.000Z</time>
      </trkpt>
      <trkpt lat="47.4754" lon="6.85967">
        <ele>359</ele>
        <time>2015-04-06T10:07:01.000Z</time>
      </trkpt>
      <trkpt lat="47.47545" lon="6.85973">
        <ele>359</ele>
        <time>2015-04-06T10:07:02.000Z</time>
      </trkpt>
      <trkpt lat="47.47547" lon="6.85982">
        <ele>359</ele>
        <time>2015-04-06T10:07:03.000Z</time>
      </trkpt>
      <trkpt lat="47.47551" lon="6.8599">
        <ele>359</ele>
        <time>2015-04-06T10:07:04.000Z</time>
      </trkpt>
      <trkpt lat="47.47551" lon="6.85999">
        <ele>359</ele>
        <time>2015-04-06T10:07:05.000Z</time>
      </trkpt>
      <trkpt lat="47.47554" lon="6.86005">
        <ele>360</ele>
        <time>2015-04-06T10:07:06.000Z</time>
      </trkpt>
      <trkpt lat="47.47555" lon="6.86008">
        <ele>360</ele>
        <time>2015-04-06T10:07:07.000Z</time>
      </trkpt>
      <trkpt lat="47.47554" lon="6.86016">
        <ele>360</ele>
        <time>2015-04-06T10:07:08.000Z</time>
      </trkpt>
      <trkpt lat="47.47554" lon="6.86024">
        <ele>360</ele>
        <time>2015-04-06T10:07:09.000Z</time>
      </trkpt>
      <trkpt lat="47.47553" lon="6.86032">
        <ele>360</ele>
        <time>2015-04-06T10:07:10.000Z</time>
      </trkpt>
      <trkpt lat="47.47552" lon="6.86038">
        <ele>360</ele>
        <time>2015-04-06T10:07:11.000Z</time>
      </trkpt>
      <trkpt lat="47.47551" lon="6.86045">
        <ele>360</ele>
        <time>2015-04-06T10:07:12.000Z</time>
      </trkpt>
      <trkpt lat="47.4755" lon="6.86048">
        <ele>360</ele>
        <time>2015-04-06T10:07:13.000Z</time>
      </trkpt>
      <trkpt lat="47.4755" lon="6.86052">
        <ele>360</ele>
        <time>2015-04-06T10:07:14.000Z</time>
      </trkpt>
      <trkpt lat="47.47547" lon="6.86055">
        <ele>360</ele>
        <time>2015-04-06T10:07:16.000Z</time>
      </trkpt>
      <trkpt lat="47.47547" lon="6.86058">
        <ele>360</ele>
        <time>2015-04-06T10:07:17.000Z</time>
      </trkpt>
      <trkpt lat="47.47549" lon="6.86054">
        <ele>360</ele>
        <time>2015-04-06T10:07:20.000Z</time>
      </trkpt>
      <trkpt lat="47.4755" lon="6.86051">
        <ele>360</ele>
        <time>2015-04-06T10:07:21.000Z</time>
      </trkpt>
      <trkpt lat="47.47551" lon="6.86048">
        <ele>360</ele>
        <time>2015-04-06T10:07:22.000Z</time>
      </trkpt>
      <trkpt lat="47.47553" lon="6.86044">
        <ele>360</ele>
        <time>2015-04-06T10:07:23.000Z</time>
      </trkpt>
      <trkpt lat="47.47555" lon="6.86039">
        <ele>360</ele>
        <time>2015-04-06T10:07:24.000Z</time>
      </trkpt>
      <trkpt lat="47.47557" lon="6.86033">
        <ele>360</ele>
        <time>2015-04-06T10:07:25.000Z</time>
      </trkpt>
      <trkpt lat="47.47559" lon="6.86026">
        <ele>360</ele>
        <time>2015-04-06T10:07:26.000Z</time>
      </trkpt>
      <trkpt lat="47.47562" lon="6.86021">
        <ele>360</ele>
        <time>2015-04-06T10:07:27.000Z</time>
      </trkpt>
      <trkpt lat="47.47563" lon="6.86014">
        <ele>359</ele>
        <time>2015-04-06T10:07:28.000Z</time>
      </trkpt>
      <trkpt lat="47.47564" lon="6.86008">
        <ele>359</ele>
        <time>2015-04-06T10:07:29.000Z</time>
      </trkpt>
      <trkpt lat="47.47563" lon="6.86002">
        <ele>359</ele>
        <time>2015-04-06T10:07:30.000Z</time>
      </trkpt>
      <trkpt lat="47.47562" lon="6.85995">
        <ele>359</ele>
        <time>2015-04-06T10:07:31.000Z</time>
      </trkpt>
      <trkpt lat="47.4756" lon="6.85988">
        <ele>359</ele>
        <time>2015-04-06T10:07:32.000Z</time>
      </trkpt>
      <trkpt lat="47.47557" lon="6.85981">
        <ele>359</ele>
        <time>2015-04-06T10:07:33.000Z</time>
      </trkpt>
      <trkpt lat="47.47555" lon="6.85976">
        <ele>359</ele>
        <time>2015-04-06T10:07:33.999Z</time>
      </trkpt>
      <trkpt lat="47.47522" lon="6.85938">
        <ele>359</ele>
        <time>2015-04-06T10:07:40.176Z</time>
      </trkpt>
      <trkpt lat="47.47519" lon="6.85933">
        <ele>359</ele>
        <time>2015-04-06T10:07:41.176Z</time>
      </trkpt>
      <trkpt lat="47.47517" lon="6.85931">
        <ele>359</ele>
        <time>2015-04-06T10:07:42.177Z</time>
      </trkpt>
      <trkpt lat="47.47513" lon="6.85927">
        <ele>359</ele>
        <time>2015-04-06T10:07:43.127Z</time>
      </trkpt>
      <trkpt lat="47.47511" lon="6.85924">
        <ele>359</ele>
        <time>2015-04-06T10:07:44.166Z</time>
      </trkpt>
      <trkpt lat="47.47506" lon="6.8592">
        <ele>360</ele>
        <time>2015-04-06T10:07:45.162Z</time>
      </trkpt>
      <trkpt lat="47.47511" lon="6.85922">
        <ele>359</ele>
        <time>2015-04-06T10:07:46.000Z</time>
      </trkpt>
      <trkpt lat="47.4751" lon="6.85915">
        <ele>359</ele>
        <time>2015-04-06T10:07:47.000Z</time>
      </trkpt>
      <trkpt lat="47.47509" lon="6.85909">
        <ele>359</ele>
        <time>2015-04-06T10:07:48.000Z</time>
      </trkpt>
      <trkpt lat="47.47509" lon="6.85903">
        <ele>359</ele>
        <time>2015-04-06T10:07:49.000Z</time>
      </trkpt>
      <trkpt lat="47.47509" lon="6.85898">
        <ele>359</ele>
        <time>2015-04-06T10:07:50.000Z</time>
      </trkpt>
      <trkpt lat="47.47509" lon="6.85892">
        <ele>359</ele>
        <time>2015-04-06T10:07:51.000Z</time>
      </trkpt>
      <trkpt lat="47.4751" lon="6.85887">
        <ele>359</ele>
        <time>2015-04-06T10:07:52.000Z</time>
      </trkpt>
      <trkpt lat="47.47512" lon="6.85882">
        <ele>359</ele>
        <time>2015-04-06T10:07:53.000Z</time>
      </trkpt>
      <trkpt lat="47.47513" lon="6.85876">
        <ele>359</ele>
        <time>2015-04-06T10:07:54.000Z</time>
      </trkpt>
      <trkpt lat="47.47515" lon="6.8587">
        <ele>359</ele>
        <time>2015-04-06T10:07:55.000Z</time>
      </trkpt>
      <trkpt lat="47.47517" lon="6.85864">
        <ele>359</ele>
        <time>2015-04-06T10:07:56.000Z</time>
      </trkpt>
      <trkpt lat="47.47518" lon="6.85859">
        <ele>359</ele>
        <time>2015-04-06T10:07:57.000Z</time>
      </trkpt>
      <trkpt lat="47.4752" lon="6.85853">
        <ele>359</ele>
        <time>2015-04-06T10:07:58.000Z</time>
      </trkpt>
      <trkpt lat="47.47522" lon="6.85848">
        <ele>359</ele>
        <time>2015-04-06T10:07:59.000Z</time>
      </trkpt>
      <trkpt lat="47.47524" lon="6.85842">
        <ele>359</ele>
        <time>2015-04-06T10:08:00.000Z</time>
      </trkpt>
      <trkpt lat="47.47526" lon="6.85836">
        <ele>359</ele>
        <time>2015-04-06T10:08:01.000Z</time>
      </trkpt>
      <trkpt lat="47.47527" lon="6.8583">
        <ele>359</ele>
        <time>2015-04-06T10:08:02.000Z</time>
      </trkpt>
      <trkpt lat="47.47529" lon="6.85824">
        <ele>359</ele>
        <time>2015-04-06T10:08:03.000Z</time>
      </trkpt>
      <trkpt lat="47.47531" lon="6.85818">
        <ele>359</ele>
        <time>2015-04-06T10:08:04.000Z</time>
      </trkpt>
      <trkpt lat="47.47533" lon="6.85812">
        <ele>358</ele>
        <time>2015-04-06T10:08:05.000Z</time>
      </trkpt>
      <trkpt lat="47.47535" lon="6.85806">
        <ele>358</ele>
        <time>2015-04-06T10:08:06.000Z</time>
      </trkpt>
      <trkpt lat="47.47537" lon="6.858">
        <ele>358</ele>
        <time>2015-04-06T10:08:07.000Z</time>
      </trkpt>
      <trkpt lat="47.47541" lon="6.85795">
        <ele>358</ele>
        <time>2015-04-06T10:08:08.000Z</time>
      </trkpt>
      <trkpt lat="47.47544" lon="6.85788">
        <ele>358</ele>
        <time>2015-04-06T10:08:09.000Z</time>
      </trkpt>
      <trkpt lat="47.47547" lon="6.85781">
        <ele>358</ele>
        <time>2015-04-06T10:08:10.000Z</time>
      </trkpt>
      <trkpt lat="47.47547" lon="6.85774">
        <ele>358</ele>
        <time>2015-04-06T10:08:11.000Z</time>
      </trkpt>
      <trkpt lat="47.47547" lon="6.85766">
        <ele>358</ele>
        <time>2015-04-06T10:08:12.000Z</time>
      </trkpt>
      <trkpt lat="47.47548" lon="6.85757">
        <ele>357</ele>
        <time>2015-04-06T10:08:13.000Z</time>
      </trkpt>
      <trkpt lat="47.47551" lon="6.85749">
        <ele>356</ele>
        <time>2015-04-06T10:08:14.000Z</time>
      </trkpt>
      <trkpt lat="47.47551" lon="6.85741">
        <ele>356</ele>
        <time>2015-04-06T10:08:15.000Z</time>
      </trkpt>
      <trkpt lat="47.47555" lon="6.85733">
        <ele>355</ele>
        <time>2015-04-06T10:08:16.000Z</time>
      </trkpt>
      <trkpt lat="47.47559" lon="6.85725">
        <ele>355</ele>
        <time>2015-04-06T10:08:17.000Z</time>
      </trkpt>
      <trkpt lat="47.47562" lon="6.85715">
        <ele>355</ele>
        <time>2015-04-06T10:08:18.000Z</time>
      </trkpt>
      <trkpt lat="47.47565" lon="6.85703">
        <ele>355</ele>
        <time>2015-04-06T10:08:19.000Z</time>
      </trkpt>
      <trkpt lat="47.47566" lon="6.85694">
        <ele>354</ele>
        <time>2015-04-06T10:08:20.000Z</time>
      </trkpt>
      <trkpt lat="47.4757" lon="6.85685">
        <ele>354</ele>
        <time>2015-04-06T10:08:21.000Z</time>
      </trkpt>
      <trkpt lat="47.47572" lon="6.85675">
        <ele>353</ele>
        <time>2015-04-06T10:08:22.000Z</time>
      </trkpt>
      <trkpt lat="47.47575" lon="6.85666">
        <ele>352</ele>
        <time>2015-04-06T10:08:22.999Z</time>
      </trkpt>
      <trkpt lat="47.47578" lon="6.85655">
        <ele>352</ele>
        <time>2015-04-06T10:08:23.999Z</time>
      </trkpt>
      <trkpt lat="47.4758" lon="6.85643">
        <ele>352</ele>
        <time>2015-04-06T10:08:25.000Z</time>
      </trkpt>
      <trkpt lat="47.47578" lon="6.85636">
        <ele>352</ele>
        <time>2015-04-06T10:08:26.000Z</time>
      </trkpt>
      <trkpt lat="47.47579" lon="6.85626">
        <ele>352</ele>
        <time>2015-04-06T10:08:27.000Z</time>
      </trkpt>
      <trkpt lat="47.47577" lon="6.85616">
        <ele>352</ele>
        <time>2015-04-06T10:08:28.000Z</time>
      </trkpt>
      <trkpt lat="47.47576" lon="6.85607">
        <ele>352</ele>
        <time>2015-04-06T10:08:29.000Z</time>
      </trkpt>
      <trkpt lat="47.47574" lon="6.85598">
        <ele>352</ele>
        <time>2015-04-06T10:08:30.000Z</time>
      </trkpt>
      <trkpt lat="47.47573" lon="6.8559">
        <ele>352</ele>
        <time>2015-04-06T10:08:31.000Z</time>
      </trkpt>
      <trkpt lat="47.47572" lon="6.85586">
        <ele>352</ele>
        <time>2015-04-06T10:08:32.000Z</time>
      </trkpt>
      <trkpt lat="47.47571" lon="6.8558">
        <ele>351</ele>
        <time>2015-04-06T10:08:33.000Z</time>
      </trkpt>
      <trkpt lat="47.47566" lon="6.85569">
        <ele>351</ele>
        <time>2015-04-06T10:08:34.000Z</time>
      </trkpt>
      <trkpt lat="47.47562" lon="6.85561">
        <ele>351</ele>
        <time>2015-04-06T10:08:35.000Z</time>
      </trkpt>
      <trkpt lat="47.47559" lon="6.85553">
        <ele>351</ele>
        <time>2015-04-06T10:08:36.000Z</time>
      </trkpt>
      <trkpt lat="47.47555" lon="6.85548">
        <ele>351</ele>
        <time>2015-04-06T10:08:37.000Z</time>
      </trkpt>
      <trkpt lat="47.47553" lon="6.85541">
        <ele>351</ele>
        <time>2015-04-06T10:08:38.000Z</time>
      </trkpt>
      <trkpt lat="47.47548" lon="6.85536">
        <ele>352</ele>
        <time>2015-04-06T10:08:39.000Z</time>
      </trkpt>
      <trkpt lat="47.47544" lon="6.85531">
        <ele>352</ele>
        <time>2015-04-06T10:08:40.000Z</time>
      </trkpt>
      <trkpt lat="47.47539" lon="6.85527">
        <ele>352</ele>
        <time>2015-04-06T10:08:41.000Z</time>
      </trkpt>
      <trkpt lat="47.47536" lon="6.85522">
        <ele>352</ele>
        <time>2015-04-06T10:08:42.000Z</time>
      </trkpt>
      <trkpt lat="47.47533" lon="6.85519">
        <ele>352</ele>
        <time>2015-04-06T10:08:43.000Z</time>
      </trkpt>
      <trkpt lat="47.47529" lon="6.85513">
        <ele>352</ele>
        <time>2015-04-06T10:08:44.000Z</time>
      </trkpt>
      <trkpt lat="47.47524" lon="6.85512">
        <ele>352</ele>
        <time>2015-04-06T10:08:45.000Z</time>
      </trkpt>
      <trkpt lat="47.47518" lon="6.85505">
        <ele>353</ele>
        <time>2015-04-06T10:08:46.000Z</time>
      </trkpt>
      <trkpt lat="47.47511" lon="6.85499">
        <ele>353</ele>
        <time>2015-04-06T10:08:47.000Z</time>
      </trkpt>
      <trkpt lat="47.47505" lon="6.85495">
        <ele>353</ele>
        <time>2015-04-06T10:08:48.000Z</time>
      </trkpt>
      <trkpt lat="47.47501" lon="6.8549">
        <ele>353</ele>
        <time>2015-04-06T10:08:49.000Z</time>
      </trkpt>
      <trkpt lat="47.47495" lon="6.85487">
        <ele>354</ele>
        <time>2015-04-06T10:08:50.000Z</time>
      </trkpt>
      <trkpt lat="47.47492" lon="6.85484">
        <ele>354</ele>
        <time>2015-04-06T10:08:51.000Z</time>
      </trkpt>
      <trkpt lat="47.4749" lon="6.85481">
        <ele>354</ele>
        <time>2015-04-06T10:08:52.000Z</time>
      </trkpt>
      <trkpt lat="47.47486" lon="6.85477">
        <ele>355</ele>
        <time>2015-04-06T10:08:53.000Z</time>
      </trkpt>
      <trkpt lat="47.47483" lon="6.85474">
        <ele>355</ele>
        <time>2015-04-06T10:08:54.000Z</time>
      </trkpt>
      <trkpt lat="47.4748" lon="6.85472">
        <ele>355</ele>
        <time>2015-04-06T10:08:55.000Z</time>
      </trkpt>
      <trkpt lat="47.47479" lon="6.85466">
        <ele>355</ele>
        <time>2015-04-06T10:08:56.000Z</time>
      </trkpt>
      <trkpt lat="47.47477" lon="6.85459">
        <ele>355</ele>
        <time>2015-04-06T10:08:57.000Z</time>
      </trkpt>
      <trkpt lat="47.47478" lon="6.85453">
        <ele>354</ele>
        <time>2015-04-06T10:08:58.000Z</time>
      </trkpt>
      <trkpt lat="47.47478" lon="6.85446">
        <ele>354</ele>
        <time>2015-04-06T10:08:59.000Z</time>
      </trkpt>
      <trkpt lat="47.47478" lon="6.85438">
        <ele>354</ele>
        <time>2015-04-06T10:09:00.000Z</time>
      </trkpt>
      <trkpt lat="47.47479" lon="6.85432">
        <ele>354</ele>
        <time>2015-04-06T10:09:01.000Z</time>
      </trkpt>
      <trkpt lat="47.4748" lon="6.85425">
        <ele>354</ele>
        <time>2015-04-06T10:09:02.000Z</time>
      </trkpt>
      <trkpt lat="47.47482" lon="6.85417">
        <ele>354</ele>
        <time>2015-04-06T10:09:03.000Z</time>
      </trkpt>
      <trkpt lat="47.47483" lon="6.85411">
        <ele>353</ele>
        <time>2015-04-06T10:09:04.000Z</time>
      </trkpt>
      <trkpt lat="47.47485" lon="6.85404">
        <ele>353</ele>
        <time>2015-04-06T10:09:05.000Z</time>
      </trkpt>
      <trkpt lat="47.47485" lon="6.85397">
        <ele>353</ele>
        <time>2015-04-06T10:09:06.000Z</time>
      </trkpt>
      <trkpt lat="47.47486" lon="6.85391">
        <ele>354</ele>
        <time>2015-04-06T10:09:07.000Z</time>
      </trkpt>
      <trkpt lat="47.47488" lon="6.85385">
        <ele>354</ele>
        <time>2015-04-06T10:09:08.000Z</time>
      </trkpt>
      <trkpt lat="47.4749" lon="6.85379">
        <ele>354</ele>
        <time>2015-04-06T10:09:09.000Z</time>
      </trkpt>
      <trkpt lat="47.47491" lon="6.85375">
        <ele>354</ele>
        <time>2015-04-06T10:09:10.000Z</time>
      </trkpt>
      <trkpt lat="47.47492" lon="6.85371">
        <ele>354</ele>
        <time>2015-04-06T10:09:11.000Z</time>
      </trkpt>
      <trkpt lat="47.47496" lon="6.8537">
        <ele>354</ele>
        <time>2015-04-06T10:09:12.000Z</time>
      </trkpt>
      <trkpt lat="47.47498" lon="6.85369">
        <ele>354</ele>
        <time>2015-04-06T10:09:13.000Z</time>
      </trkpt>
      <trkpt lat="47.47502" lon="6.85364">
        <ele>351</ele>
        <time>2015-04-06T10:09:14.000Z</time>
      </trkpt>
      <trkpt lat="47.47504" lon="6.85358">
        <ele>351</ele>
        <time>2015-04-06T10:09:15.000Z</time>
      </trkpt>
      <trkpt lat="47.47506" lon="6.85354">
        <ele>351</ele>
        <time>2015-04-06T10:09:16.000Z</time>
      </trkpt>
      <trkpt lat="47.47508" lon="6.8535">
        <ele>351</ele>
        <time>2015-04-06T10:09:17.000Z</time>
      </trkpt>
      <trkpt lat="47.4751" lon="6.85345">
        <ele>351</ele>
        <time>2015-04-06T10:09:18.000Z</time>
      </trkpt>
      <trkpt lat="47.47512" lon="6.85339">
        <ele>352</ele>
        <time>2015-04-06T10:09:19.000Z</time>
      </trkpt>
      <trkpt lat="47.47515" lon="6.85334">
        <ele>351</ele>
        <time>2015-04-06T10:09:20.000Z</time>
      </trkpt>
      <trkpt lat="47.47518" lon="6.85329">
        <ele>352</ele>
        <time>2015-04-06T10:09:21.000Z</time>
      </trkpt>
      <trkpt lat="47.47521" lon="6.85323">
        <ele>351</ele>
        <time>2015-04-06T10:09:22.000Z</time>
      </trkpt>
      <trkpt lat="47.47524" lon="6.85318">
        <ele>351</ele>
        <time>2015-04-06T10:09:23.000Z</time>
      </trkpt>
      <trkpt lat="47.47525" lon="6.85313">
        <ele>351</ele>
        <time>2015-04-06T10:09:24.000Z</time>
      </trkpt>
      <trkpt lat="47.47527" lon="6.85308">
        <ele>351</ele>
        <time>2015-04-06T10:09:25.000Z</time>
      </trkpt>
      <trkpt lat="47.47528" lon="6.85303">
        <ele>351</ele>
        <time>2015-04-06T10:09:26.000Z</time>
      </trkpt>
      <trkpt lat="47.47533" lon="6.85297">
        <ele>351</ele>
        <time>2015-04-06T10:09:27.000Z</time>
      </trkpt>
      <trkpt lat="47.47536" lon="6.85291">
        <ele>351</ele>
        <time>2015-04-06T10:09:28.000Z</time>
      </trkpt>
      <trkpt lat="47.47537" lon="6.85285">
        <ele>351</ele>
        <time>2015-04-06T10:09:29.000Z</time>
      </trkpt>
      <trkpt lat="47.47538" lon="6.8528">
        <ele>351</ele>
        <time>2015-04-06T10:09:30.000Z</time>
      </trkpt>
      <trkpt lat="47.4754" lon="6.85275">
        <ele>351</ele>
        <time>2015-04-06T10:09:31.001Z</time>
      </trkpt>
      <trkpt lat="47.47543" lon="6.8527">
        <ele>351</ele>
        <time>2015-04-06T10:09:32.000Z</time>
      </trkpt>
      <trkpt lat="47.47554" lon="6.85269">
        <ele>350</ele>
        <time>2015-04-06T10:09:33.000Z</time>
      </trkpt>
      <trkpt lat="47.47559" lon="6.85265">
        <ele>350</ele>
        <time>2015-04-06T10:09:34.000Z</time>
      </trkpt>
      <trkpt lat="47.47565" lon="6.85263">
        <ele>350</ele>
        <time>2015-04-06T10:09:35.000Z</time>
      </trkpt>
      <trkpt lat="47.47571" lon="6.85264">
        <ele>350</ele>
        <time>2015-04-06T10:09:36.000Z</time>
      </trkpt>
      <trkpt lat="47.47579" lon="6.85264">
        <ele>350</ele>
        <time>2015-04-06T10:09:37.000Z</time>
      </trkpt>
      <trkpt lat="47.47585" lon="6.85263">
        <ele>347</ele>
        <time>2015-04-06T10:09:38.000Z</time>
      </trkpt>
      <trkpt lat="47.47592" lon="6.85262">
        <ele>347</ele>
        <time>2015-04-06T10:09:39.000Z</time>
      </trkpt>
      <trkpt lat="47.47599" lon="6.85259">
        <ele>346</ele>
        <time>2015-04-06T10:09:40.000Z</time>
      </trkpt>
      <trkpt lat="47.47607" lon="6.85257">
        <ele>345</ele>
        <time>2015-04-06T10:09:41.000Z</time>
      </trkpt>
      <trkpt lat="47.47615" lon="6.85253">
        <ele>345</ele>
        <time>2015-04-06T10:09:42.000Z</time>
      </trkpt>
      <trkpt lat="47.47622" lon="6.85247">
        <ele>345</ele>
        <time>2015-04-06T10:09:43.000Z</time>
      </trkpt>
      <trkpt lat="47.47629" lon="6.85238">
        <ele>344</ele>
        <time>2015-04-06T10:09:44.000Z</time>
      </trkpt>
      <trkpt lat="47.47634" lon="6.85228">
        <ele>344</ele>
        <time>2015-04-06T10:09:45.000Z</time>
      </trkpt>
      <trkpt lat="47.4764" lon="6.85216">
        <ele>344</ele>
        <time>2015-04-06T10:09:46.000Z</time>
      </trkpt>
      <trkpt lat="47.47644" lon="6.85204">
        <ele>343</ele>
        <time>2015-04-06T10:09:47.000Z</time>
      </trkpt>
      <trkpt lat="47.47648" lon="6.85192">
        <ele>343</ele>
        <time>2015-04-06T10:09:48.000Z</time>
      </trkpt>
      <trkpt lat="47.47652" lon="6.85181">
        <ele>342</ele>
        <time>2015-04-06T10:09:49.000Z</time>
      </trkpt>
      <trkpt lat="47.47655" lon="6.85168">
        <ele>342</ele>
        <time>2015-04-06T10:09:50.000Z</time>
      </trkpt>
      <trkpt lat="47.4766" lon="6.85157">
        <ele>341</ele>
        <time>2015-04-06T10:09:51.000Z</time>
      </trkpt>
      <trkpt lat="47.47664" lon="6.85145">
        <ele>342</ele>
        <time>2015-04-06T10:09:52.000Z</time>
      </trkpt>
      <trkpt lat="47.47669" lon="6.85134">
        <ele>338</ele>
        <time>2015-04-06T10:09:53.000Z</time>
      </trkpt>
      <trkpt lat="47.47674" lon="6.85122">
        <ele>338</ele>
        <time>2015-04-06T10:09:54.001Z</time>
      </trkpt>
      <trkpt lat="47.4768" lon="6.85106">
        <ele>338</ele>
        <time>2015-04-06T10:09:55.000Z</time>
      </trkpt>
      <trkpt lat="47.47686" lon="6.85091">
        <ele>338</ele>
        <time>2015-04-06T10:09:56.000Z</time>
      </trkpt>
      <trkpt lat="47.47693" lon="6.8508">
        <ele>337</ele>
        <time>2015-04-06T10:09:57.000Z</time>
      </trkpt>
      <trkpt lat="47.47699" lon="6.85069">
        <ele>337</ele>
        <time>2015-04-06T10:09:58.000Z</time>
      </trkpt>
      <trkpt lat="47.47707" lon="6.85058">
        <ele>336</ele>
        <time>2015-04-06T10:09:59.000Z</time>
      </trkpt>
      <trkpt lat="47.47714" lon="6.85048">
        <ele>336</ele>
        <time>2015-04-06T10:10:00.000Z</time>
      </trkpt>
      <trkpt lat="47.47721" lon="6.85037">
        <ele>336</ele>
        <time>2015-04-06T10:10:01.000Z</time>
      </trkpt>
      <trkpt lat="47.47728" lon="6.85028">
        <ele>335</ele>
        <time>2015-04-06T10:10:02.000Z</time>
      </trkpt>
      <trkpt lat="47.47736" lon="6.85019">
        <ele>335</ele>
        <time>2015-04-06T10:10:03.000Z</time>
      </trkpt>
      <trkpt lat="47.47744" lon="6.85014">
        <ele>334</ele>
        <time>2015-04-06T10:10:04.000Z</time>
      </trkpt>
      <trkpt lat="47.47751" lon="6.85009">
        <ele>333</ele>
        <time>2015-04-06T10:10:05.000Z</time>
      </trkpt>
      <trkpt lat="47.47758" lon="6.85001">
        <ele>333</ele>
        <time>2015-04-06T10:10:06.000Z</time>
      </trkpt>
      <trkpt lat="47.47761" lon="6.84994">
        <ele>332</ele>
        <time>2015-04-06T10:10:07.000Z</time>
      </trkpt>
      <trkpt lat="47.47767" lon="6.8499">
        <ele>332</ele>
        <time>2015-04-06T10:10:08.000Z</time>
      </trkpt>
      <trkpt lat="47.47772" lon="6.84986">
        <ele>332</ele>
        <time>2015-04-06T10:10:09.000Z</time>
      </trkpt>
      <trkpt lat="47.47778" lon="6.84982">
        <ele>331</ele>
        <time>2015-04-06T10:10:10.000Z</time>
      </trkpt>
      <trkpt lat="47.47783" lon="6.84978">
        <ele>331</ele>
        <time>2015-04-06T10:10:11.000Z</time>
      </trkpt>
      <trkpt lat="47.4779" lon="6.84973">
        <ele>331</ele>
        <time>2015-04-06T10:10:12.000Z</time>
      </trkpt>
      <trkpt lat="47.47795" lon="6.84969">
        <ele>331</ele>
        <time>2015-04-06T10:10:13.000Z</time>
      </trkpt>
      <trkpt lat="47.47798" lon="6.84965">
        <ele>331</ele>
        <time>2015-04-06T10:10:14.000Z</time>
      </trkpt>
      <trkpt lat="47.47799" lon="6.84964">
        <ele>331</ele>
        <time>2015-04-06T10:10:15.000Z</time>
      </trkpt>
      <trkpt lat="47.47799" lon="6.8496">
        <ele>331</ele>
        <time>2015-04-06T10:10:18.000Z</time>
      </trkpt>
      <trkpt lat="47.47801" lon="6.84956">
        <ele>331</ele>
        <time>2015-04-06T10:10:19.000Z</time>
      </trkpt>
      <trkpt lat="47.47805" lon="6.84955">
        <ele>331</ele>
        <time>2015-04-06T10:10:20.000Z</time>
      </trkpt>
      <trkpt lat="47.47808" lon="6.84954">
        <ele>331</ele>
        <time>2015-04-06T10:10:21.000Z</time>
      </trkpt>
      <trkpt lat="47.47811" lon="6.84955">
        <ele>331</ele>
        <time>2015-04-06T10:10:22.000Z</time>
      </trkpt>
      <trkpt lat="47.47816" lon="6.84954">
        <ele>331</ele>
        <time>2015-04-06T10:10:23.000Z</time>
      </trkpt>
      <trkpt lat="47.47819" lon="6.84952">
        <ele>330</ele>
        <time>2015-04-06T10:10:24.000Z</time>
      </trkpt>
      <trkpt lat="47.47823" lon="6.84949">
        <ele>330</ele>
        <time>2015-04-06T10:10:25.000Z</time>
      </trkpt>
      <trkpt lat="47.47827" lon="6.84945">
        <ele>330</ele>
        <time>2015-04-06T10:10:26.000Z</time>
      </trkpt>
      <trkpt lat="47.47831" lon="6.84938">
        <ele>330</ele>
        <time>2015-04-06T10:10:27.000Z</time>
      </trkpt>
      <trkpt lat="47.47835" lon="6.84931">
        <ele>329</ele>
        <time>2015-04-06T10:10:28.000Z</time>
      </trkpt>
      <trkpt lat="47.47837" lon="6.84924">
        <ele>329</ele>
        <time>2015-04-06T10:10:29.000Z</time>
      </trkpt>
      <trkpt lat="47.47841" lon="6.84917">
        <ele>329</ele>
        <time>2015-04-06T10:10:30.000Z</time>
      </trkpt>
      <trkpt lat="47.47844" lon="6.8491">
        <ele>329</ele>
        <time>2015-04-06T10:10:31.000Z</time>
      </trkpt>
      <trkpt lat="47.47848" lon="6.84905">
        <ele>329</ele>
        <time>2015-04-06T10:10:32.000Z</time>
      </trkpt>
      <trkpt lat="47.47852" lon="6.84899">
        <ele>329</ele>
        <time>2015-04-06T10:10:33.000Z</time>
      </trkpt>
      <trkpt lat="47.47856" lon="6.84894">
        <ele>329</ele>
        <time>2015-04-06T10:10:34.000Z</time>
      </trkpt>
      <trkpt lat="47.47861" lon="6.8489">
        <ele>329</ele>
        <time>2015-04-06T10:10:35.000Z</time>
      </trkpt>
      <trkpt lat="47.47867" lon="6.84886">
        <ele>329</ele>
        <time>2015-04-06T10:10:36.000Z</time>
      </trkpt>
      <trkpt lat="47.47872" lon="6.84882">
        <ele>329</ele>
        <time>2015-04-06T10:10:37.000Z</time>
      </trkpt>
      <trkpt lat="47.47876" lon="6.84878">
        <ele>328</ele>
        <time>2015-04-06T10:10:38.000Z</time>
      </trkpt>
      <trkpt lat="47.4788" lon="6.84875">
        <ele>328</ele>
        <time>2015-04-06T10:10:39.000Z</time>
      </trkpt>
      <trkpt lat="47.47886" lon="6.84874">
        <ele>328</ele>
        <time>2015-04-06T10:10:40.000Z</time>
      </trkpt>
      <trkpt lat="47.4789" lon="6.84875">
        <ele>328</ele>
        <time>2015-04-06T10:10:41.000Z</time>
      </trkpt>
      <trkpt lat="47.47896" lon="6.84875">
        <ele>328</ele>
        <time>2015-04-06T10:10:42.000Z</time>
      </trkpt>
      <trkpt lat="47.47902" lon="6.84874">
        <ele>328</ele>
        <time>2015-04-06T10:10:43.000Z</time>
      </trkpt>
      <trkpt lat="47.47909" lon="6.84873">
        <ele>328</ele>
        <time>2015-04-06T10:10:44.000Z</time>
      </trkpt>
      <trkpt lat="47.47913" lon="6.84868">
        <ele>328</ele>
        <time>2015-04-06T10:10:45.000Z</time>
      </trkpt>
      <trkpt lat="47.47915" lon="6.84866">
        <ele>328</ele>
        <time>2015-04-06T10:10:46.000Z</time>
      </trkpt>
      <trkpt lat="47.47922" lon="6.84864">
        <ele>327</ele>
        <time>2015-04-06T10:10:47.000Z</time>
      </trkpt>
      <trkpt lat="47.47927" lon="6.84862">
        <ele>327</ele>
        <time>2015-04-06T10:10:48.000Z</time>
      </trkpt>
      <trkpt lat="47.47933" lon="6.84861">
        <ele>327</ele>
        <time>2015-04-06T10:10:49.000Z</time>
      </trkpt>
      <trkpt lat="47.47937" lon="6.84861">
        <ele>327</ele>
        <time>2015-04-06T10:10:50.000Z</time>
      </trkpt>
      <trkpt lat="47.47942" lon="6.84861">
        <ele>327</ele>
        <time>2015-04-06T10:10:51.000Z</time>
      </trkpt>
      <trkpt lat="47.47948" lon="6.8486">
        <ele>327</ele>
        <time>2015-04-06T10:10:52.000Z</time>
      </trkpt>
      <trkpt lat="47.47952" lon="6.84859">
        <ele>327</ele>
        <time>2015-04-06T10:10:53.000Z</time>
      </trkpt>
      <trkpt lat="47.47955" lon="6.84859">
        <ele>327</ele>
        <time>2015-04-06T10:10:54.000Z</time>
      </trkpt>
      <trkpt lat="47.4796" lon="6.84856">
        <ele>327</ele>
        <time>2015-04-06T10:10:55.000Z</time>
      </trkpt>
      <trkpt lat="47.47964" lon="6.84851">
        <ele>327</ele>
        <time>2015-04-06T10:10:56.000Z</time>
      </trkpt>
      <trkpt lat="47.47968" lon="6.84847">
        <ele>327</ele>
        <time>2015-04-06T10:10:57.000Z</time>
      </trkpt>
      <trkpt lat="47.47972" lon="6.84842">
        <ele>327</ele>
        <time>2015-04-06T10:10:58.000Z</time>
      </trkpt>
      <trkpt lat="47.47975" lon="6.84838">
        <ele>327</ele>
        <time>2015-04-06T10:10:59.000Z</time>
      </trkpt>
      <trkpt lat="47.47978" lon="6.84831">
        <ele>327</ele>
        <time>2015-04-06T10:11:00.000Z</time>
      </trkpt>
      <trkpt lat="47.47983" lon="6.84825">
        <ele>327</ele>
        <time>2015-04-06T10:11:01.000Z</time>
      </trkpt>
      <trkpt lat="47.47986" lon="6.84819">
        <ele>327</ele>
        <time>2015-04-06T10:11:02.000Z</time>
      </trkpt>
      <trkpt lat="47.4799" lon="6.84815">
        <ele>327</ele>
        <time>2015-04-06T10:11:03.000Z</time>
      </trkpt>
      <trkpt lat="47.47995" lon="6.84809">
        <ele>326</ele>
        <time>2015-04-06T10:11:04.000Z</time>
      </trkpt>
      <trkpt lat="47.47999" lon="6.84804">
        <ele>326</ele>
        <time>2015-04-06T10:11:05.000Z</time>
      </trkpt>
      <trkpt lat="47.48004" lon="6.84798">
        <ele>326</ele>
        <time>2015-04-06T10:11:06.000Z</time>
      </trkpt>
      <trkpt lat="47.48012" lon="6.84792">
        <ele>326</ele>
        <time>2015-04-06T10:11:07.000Z</time>
      </trkpt>
      <trkpt lat="47.48019" lon="6.84787">
        <ele>326</ele>
        <time>2015-04-06T10:11:08.000Z</time>
      </trkpt>
      <trkpt lat="47.48023" lon="6.84781">
        <ele>326</ele>
        <time>2015-04-06T10:11:09.000Z</time>
      </trkpt>
      <trkpt lat="47.48028" lon="6.84776">
        <ele>326</ele>
        <time>2015-04-06T10:11:10.000Z</time>
      </trkpt>
      <trkpt lat="47.48032" lon="6.84772">
        <ele>326</ele>
        <time>2015-04-06T10:11:11.000Z</time>
      </trkpt>
      <trkpt lat="47.48038" lon="6.84767">
        <ele>326</ele>
        <time>2015-04-06T10:11:12.000Z</time>
      </trkpt>
      <trkpt lat="47.48043" lon="6.84764">
        <ele>326</ele>
        <time>2015-04-06T10:11:13.000Z</time>
      </trkpt>
      <trkpt lat="47.48048" lon="6.84761">
        <ele>325</ele>
        <time>2015-04-06T10:11:14.000Z</time>
      </trkpt>
      <trkpt lat="47.48052" lon="6.84756">
        <ele>325</ele>
        <time>2015-04-06T10:11:15.000Z</time>
      </trkpt>
      <trkpt lat="47.48058" lon="6.8475">
        <ele>325</ele>
        <time>2015-04-06T10:11:16.000Z</time>
      </trkpt>
      <trkpt lat="47.48062" lon="6.84743">
        <ele>325</ele>
        <time>2015-04-06T10:11:17.000Z</time>
      </trkpt>
      <trkpt lat="47.48068" lon="6.84738">
        <ele>325</ele>
        <time>2015-04-06T10:11:18.000Z</time>
      </trkpt>
      <trkpt lat="47.48073" lon="6.84735">
        <ele>325</ele>
        <time>2015-04-06T10:11:19.000Z</time>
      </trkpt>
      <trkpt lat="47.48077" lon="6.84729">
        <ele>325</ele>
        <time>2015-04-06T10:11:20.000Z</time>
      </trkpt>
      <trkpt lat="47.48083" lon="6.84725">
        <ele>324</ele>
        <time>2015-04-06T10:11:21.000Z</time>
      </trkpt>
      <trkpt lat="47.48086" lon="6.8472">
        <ele>324</ele>
        <time>2015-04-06T10:11:22.000Z</time>
      </trkpt>
      <trkpt lat="47.48091" lon="6.84714">
        <ele>324</ele>
        <time>2015-04-06T10:11:23.000Z</time>
      </trkpt>
      <trkpt lat="47.48097" lon="6.84707">
        <ele>324</ele>
        <time>2015-04-06T10:11:24.000Z</time>
      </trkpt>
      <trkpt lat="47.48104" lon="6.84702">
        <ele>324</ele>
        <time>2015-04-06T10:11:25.000Z</time>
      </trkpt>
      <trkpt lat="47.48108" lon="6.84698">
        <ele>324</ele>
        <time>2015-04-06T10:11:26.000Z</time>
      </trkpt>
      <trkpt lat="47.48114" lon="6.84692">
        <ele>324</ele>
        <time>2015-04-06T10:11:27.000Z</time>
      </trkpt>
      <trkpt lat="47.48119" lon="6.84687">
        <ele>324</ele>
        <time>2015-04-06T10:11:28.000Z</time>
      </trkpt>
      <trkpt lat="47.48122" lon="6.84682">
        <ele>324</ele>
        <time>2015-04-06T10:11:29.000Z</time>
      </trkpt>
      <trkpt lat="47.48126" lon="6.84678">
        <ele>324</ele>
        <time>2015-04-06T10:11:30.000Z</time>
      </trkpt>
      <trkpt lat="47.48132" lon="6.84671">
        <ele>324</ele>
        <time>2015-04-06T10:11:31.000Z</time>
      </trkpt>
      <trkpt lat="47.48137" lon="6.84666">
        <ele>323</ele>
        <time>2015-04-06T10:11:32.000Z</time>
      </trkpt>
      <trkpt lat="47.48145" lon="6.84663">
        <ele>323</ele>
        <time>2015-04-06T10:11:33.000Z</time>
      </trkpt>
      <trkpt lat="47.48151" lon="6.84659">
        <ele>323</ele>
        <time>2015-04-06T10:11:34.000Z</time>
      </trkpt>
      <trkpt lat="47.48155" lon="6.84652">
        <ele>323</ele>
        <time>2015-04-06T10:11:35.000Z</time>
      </trkpt>
      <trkpt lat="47.48161" lon="6.84645">
        <ele>323</ele>
        <time>2015-04-06T10:11:36.000Z</time>
      </trkpt>
      <trkpt lat="47.48166" lon="6.8464">
        <ele>323</ele>
        <time>2015-04-06T10:11:37.000Z</time>
      </trkpt>
      <trkpt lat="47.48172" lon="6.84633">
        <ele>323</ele>
        <time>2015-04-06T10:11:38.000Z</time>
      </trkpt>
      <trkpt lat="47.48177" lon="6.84628">
        <ele>323</ele>
        <time>2015-04-06T10:11:39.000Z</time>
      </trkpt>
      <trkpt lat="47.48183" lon="6.84624">
        <ele>323</ele>
        <time>2015-04-06T10:11:40.000Z</time>
      </trkpt>
      <trkpt lat="47.48187" lon="6.84618">
        <ele>323</ele>
        <time>2015-04-06T10:11:41.000Z</time>
      </trkpt>
      <trkpt lat="47.48192" lon="6.84612">
        <ele>323</ele>
        <time>2015-04-06T10:11:42.000Z</time>
      </trkpt>
      <trkpt lat="47.48198" lon="6.84607">
        <ele>323</ele>
        <time>2015-04-06T10:11:43.000Z</time>
      </trkpt>
      <trkpt lat="47.48204" lon="6.84602">
        <ele>323</ele>
        <time>2015-04-06T10:11:44.000Z</time>
      </trkpt>
      <trkpt lat="47.48208" lon="6.84596">
        <ele>323</ele>
        <time>2015-04-06T10:11:45.000Z</time>
      </trkpt>
      <trkpt lat="47.48215" lon="6.84592">
        <ele>323</ele>
        <time>2015-04-06T10:11:46.000Z</time>
      </trkpt>
      <trkpt lat="47.48219" lon="6.84586">
        <ele>323</ele>
        <time>2015-04-06T10:11:47.000Z</time>
      </trkpt>
      <trkpt lat="47.48223" lon="6.8458">
        <ele>322</ele>
        <time>2015-04-06T10:11:48.000Z</time>
      </trkpt>
      <trkpt lat="47.48228" lon="6.84574">
        <ele>322</ele>
        <time>2015-04-06T10:11:49.000Z</time>
      </trkpt>
      <trkpt lat="47.48232" lon="6.84568">
        <ele>322</ele>
        <time>2015-04-06T10:11:50.000Z</time>
      </trkpt>
      <trkpt lat="47.48236" lon="6.84561">
        <ele>322</ele>
        <time>2015-04-06T10:11:51.000Z</time>
      </trkpt>
      <trkpt lat="47.48242" lon="6.84556">
        <ele>322</ele>
        <time>2015-04-06T10:11:52.000Z</time>
      </trkpt>
      <trkpt lat="47.48247" lon="6.84552">
        <ele>322</ele>
        <time>2015-04-06T10:11:53.000Z</time>
      </trkpt>
      <trkpt lat="47.48253" lon="6.84546">
        <ele>323</ele>
        <time>2015-04-06T10:11:54.000Z</time>
      </trkpt>
      <trkpt lat="47.48256" lon="6.84541">
        <ele>322</ele>
        <time>2015-04-06T10:11:55.000Z</time>
      </trkpt>
      <trkpt lat="47.4826" lon="6.84535">
        <ele>322</ele>
        <time>2015-04-06T10:11:56.000Z</time>
      </trkpt>
      <trkpt lat="47.48266" lon="6.8453">
        <ele>322</ele>
        <time>2015-04-06T10:11:57.000Z</time>
      </trkpt>
      <trkpt lat="47.4827" lon="6.84528">
        <ele>322</ele>
        <time>2015-04-06T10:11:58.000Z</time>
      </trkpt>
      <trkpt lat="47.48274" lon="6.84525">
        <ele>322</ele>
        <time>2015-04-06T10:11:59.000Z</time>
      </trkpt>
      <trkpt lat="47.48278" lon="6.84519">
        <ele>322</ele>
        <time>2015-04-06T10:12:00.000Z</time>
      </trkpt>
      <trkpt lat="47.48282" lon="6.84514">
        <ele>322</ele>
        <time>2015-04-06T10:12:01.000Z</time>
      </trkpt>
      <trkpt lat="47.48286" lon="6.84508">
        <ele>322</ele>
        <time>2015-04-06T10:12:02.000Z</time>
      </trkpt>
      <trkpt lat="47.48292" lon="6.84505">
        <ele>323</ele>
        <time>2015-04-06T10:12:03.000Z</time>
      </trkpt>
      <trkpt lat="47.48298" lon="6.84499">
        <ele>322</ele>
        <time>2015-04-06T10:12:04.000Z</time>
      </trkpt>
      <trkpt lat="47.48306" lon="6.84493">
        <ele>322</ele>
        <time>2015-04-06T10:12:05.000Z</time>
      </trkpt>
      <trkpt lat="47.48308" lon="6.84489">
        <ele>323</ele>
        <time>2015-04-06T10:12:06.000Z</time>
      </trkpt>
      <trkpt lat="47.48312" lon="6.84483">
        <ele>323</ele>
        <time>2015-04-06T10:12:07.000Z</time>
      </trkpt>
      <trkpt lat="47.48317" lon="6.84478">
        <ele>323</ele>
        <time>2015-04-06T10:12:08.000Z</time>
      </trkpt>
      <trkpt lat="47.48324" lon="6.84472">
        <ele>323</ele>
        <time>2015-04-06T10:12:09.000Z</time>
      </trkpt>
      <trkpt lat="47.4833" lon="6.84471">
        <ele>323</ele>
        <time>2015-04-06T10:12:10.000Z</time>
      </trkpt>
      <trkpt lat="47.48335" lon="6.84467">
        <ele>322</ele>
        <time>2015-04-06T10:12:11.000Z</time>
      </trkpt>
      <trkpt lat="47.48339" lon="6.84464">
        <ele>322</ele>
        <time>2015-04-06T10:12:12.000Z</time>
      </trkpt>
      <trkpt lat="47.48343" lon="6.84458">
        <ele>322</ele>
        <time>2015-04-06T10:12:13.000Z</time>
      </trkpt>
      <trkpt lat="47.48348" lon="6.84453">
        <ele>322</ele>
        <time>2015-04-06T10:12:14.000Z</time>
      </trkpt>
      <trkpt lat="47.48355" lon="6.84449">
        <ele>322</ele>
        <time>2015-04-06T10:12:15.000Z</time>
      </trkpt>
      <trkpt lat="47.4836" lon="6.84443">
        <ele>322</ele>
        <time>2015-04-06T10:12:16.000Z</time>
      </trkpt>
      <trkpt lat="47.48366" lon="6.84438">
        <ele>322</ele>
        <time>2015-04-06T10:12:17.000Z</time>
      </trkpt>
      <trkpt lat="47.48371" lon="6.84432">
        <ele>322</ele>
        <time>2015-04-06T10:12:18.000Z</time>
      </trkpt>
      <trkpt lat="47.48372" lon="6.84427">
        <ele>322</ele>
        <time>2015-04-06T10:12:19.000Z</time>
      </trkpt>
      <trkpt lat="47.48377" lon="6.84422">
        <ele>322</ele>
        <time>2015-04-06T10:12:20.000Z</time>
      </trkpt>
      <trkpt lat="47.4838" lon="6.84415">
        <ele>321</ele>
        <time>2015-04-06T10:12:21.000Z</time>
      </trkpt>
      <trkpt lat="47.48383" lon="6.84409">
        <ele>321</ele>
        <time>2015-04-06T10:12:22.000Z</time>
      </trkpt>
      <trkpt lat="47.48389" lon="6.84404">
        <ele>321</ele>
        <time>2015-04-06T10:12:23.000Z</time>
      </trkpt>
      <trkpt lat="47.48393" lon="6.844">
        <ele>321</ele>
        <time>2015-04-06T10:12:24.000Z</time>
      </trkpt>
      <trkpt lat="47.48402" lon="6.8439">
        <ele>321</ele>
        <time>2015-04-06T10:12:25.000Z</time>
      </trkpt>
      <trkpt lat="47.48406" lon="6.84387">
        <ele>321</ele>
        <time>2015-04-06T10:12:26.000Z</time>
      </trkpt>
      <trkpt lat="47.48409" lon="6.84381">
        <ele>321</ele>
        <time>2015-04-06T10:12:27.000Z</time>
      </trkpt>
      <trkpt lat="47.48414" lon="6.84376">
        <ele>321</ele>
        <time>2015-04-06T10:12:28.000Z</time>
      </trkpt>
      <trkpt lat="47.48418" lon="6.84373">
        <ele>320</ele>
        <time>2015-04-06T10:12:29.000Z</time>
      </trkpt>
      <trkpt lat="47.48426" lon="6.84368">
        <ele>320</ele>
        <time>2015-04-06T10:12:30.000Z</time>
      </trkpt>
      <trkpt lat="47.48431" lon="6.84364">
        <ele>321</ele>
        <time>2015-04-06T10:12:31.000Z</time>
      </trkpt>
      <trkpt lat="47.48437" lon="6.84358">
        <ele>321</ele>
        <time>2015-04-06T10:12:32.000Z</time>
      </trkpt>
      <trkpt lat="47.48443" lon="6.84348">
        <ele>321</ele>
        <time>2015-04-06T10:12:33.000Z</time>
      </trkpt>
      <trkpt lat="47.48447" lon="6.84343">
        <ele>321</ele>
        <time>2015-04-06T10:12:34.000Z</time>
      </trkpt>
      <trkpt lat="47.48452" lon="6.84335">
        <ele>321</ele>
        <time>2015-04-06T10:12:35.000Z</time>
      </trkpt>
      <trkpt lat="47.48457" lon="6.84329">
        <ele>321</ele>
        <time>2015-04-06T10:12:36.000Z</time>
      </trkpt>
      <trkpt lat="47.4846" lon="6.84323">
        <ele>321</ele>
        <time>2015-04-06T10:12:37.000Z</time>
      </trkpt>
      <trkpt lat="47.48464" lon="6.84315">
        <ele>321</ele>
        <time>2015-04-06T10:12:38.000Z</time>
      </trkpt>
      <trkpt lat="47.48468" lon="6.8431">
        <ele>321</ele>
        <time>2015-04-06T10:12:39.000Z</time>
      </trkpt>
      <trkpt lat="47.48473" lon="6.84307">
        <ele>321</ele>
        <time>2015-04-06T10:12:40.000Z</time>
      </trkpt>
      <trkpt lat="47.48478" lon="6.84303">
        <ele>321</ele>
        <time>2015-04-06T10:12:41.000Z</time>
      </trkpt>
      <trkpt lat="47.48485" lon="6.84299">
        <ele>321</ele>
        <time>2015-04-06T10:12:42.000Z</time>
      </trkpt>
      <trkpt lat="47.48489" lon="6.84293">
        <ele>321</ele>
        <time>2015-04-06T10:12:43.000Z</time>
      </trkpt>
      <trkpt lat="47.48496" lon="6.84284">
        <ele>321</ele>
        <time>2015-04-06T10:12:44.000Z</time>
      </trkpt>
      <trkpt lat="47.48499" lon="6.84277">
        <ele>321</ele>
        <time>2015-04-06T10:12:45.000Z</time>
      </trkpt>
      <trkpt lat="47.48503" lon="6.84272">
        <ele>321</ele>
        <time>2015-04-06T10:12:46.000Z</time>
      </trkpt>
      <trkpt lat="47.48513" lon="6.84271">
        <ele>321</ele>
        <time>2015-04-06T10:12:47.000Z</time>
      </trkpt>
      <trkpt lat="47.48518" lon="6.84262">
        <ele>321</ele>
        <time>2015-04-06T10:12:48.000Z</time>
      </trkpt>
      <trkpt lat="47.48524" lon="6.84256">
        <ele>321</ele>
        <time>2015-04-06T10:12:49.000Z</time>
      </trkpt>
      <trkpt lat="47.48529" lon="6.84248">
        <ele>321</ele>
        <time>2015-04-06T10:12:50.000Z</time>
      </trkpt>
      <trkpt lat="47.48534" lon="6.8424">
        <ele>321</ele>
        <time>2015-04-06T10:12:51.000Z</time>
      </trkpt>
      <trkpt lat="47.48539" lon="6.84233">
        <ele>321</ele>
        <time>2015-04-06T10:12:52.000Z</time>
      </trkpt>
      <trkpt lat="47.48542" lon="6.84226">
        <ele>321</ele>
        <time>2015-04-06T10:12:53.000Z</time>
      </trkpt>
      <trkpt lat="47.48546" lon="6.84218">
        <ele>321</ele>
        <time>2015-04-06T10:12:54.000Z</time>
      </trkpt>
      <trkpt lat="47.4855" lon="6.84211">
        <ele>321</ele>
        <time>2015-04-06T10:12:55.000Z</time>
      </trkpt>
      <trkpt lat="47.48557" lon="6.84208">
        <ele>321</ele>
        <time>2015-04-06T10:12:56.000Z</time>
      </trkpt>
      <trkpt lat="47.48564" lon="6.84202">
        <ele>321</ele>
        <time>2015-04-06T10:12:57.000Z</time>
      </trkpt>
      <trkpt lat="47.4857" lon="6.84196">
        <ele>321</ele>
        <time>2015-04-06T10:12:58.000Z</time>
      </trkpt>
      <trkpt lat="47.48573" lon="6.8419">
        <ele>321</ele>
        <time>2015-04-06T10:12:59.000Z</time>
      </trkpt>
      <trkpt lat="47.48577" lon="6.84184">
        <ele>321</ele>
        <time>2015-04-06T10:13:00.000Z</time>
      </trkpt>
      <trkpt lat="47.48581" lon="6.84178">
        <ele>320</ele>
        <time>2015-04-06T10:13:01.000Z</time>
      </trkpt>
      <trkpt lat="47.48584" lon="6.84172">
        <ele>320</ele>
        <time>2015-04-06T10:13:02.000Z</time>
      </trkpt>
      <trkpt lat="47.48587" lon="6.84169">
        <ele>320</ele>
        <time>2015-04-06T10:13:03.000Z</time>
      </trkpt>
      <trkpt lat="47.48591" lon="6.84164">
        <ele>320</ele>
        <time>2015-04-06T10:13:04.000Z</time>
      </trkpt>
      <trkpt lat="47.48593" lon="6.8416">
        <ele>320</ele>
        <time>2015-04-06T10:13:05.000Z</time>
      </trkpt>
      <trkpt lat="47.48596" lon="6.84157">
        <ele>320</ele>
        <time>2015-04-06T10:13:06.000Z</time>
      </trkpt>
      <trkpt lat="47.48599" lon="6.84152">
        <ele>320</ele>
        <time>2015-04-06T10:13:07.000Z</time>
      </trkpt>
      <trkpt lat="47.48603" lon="6.84148">
        <ele>320</ele>
        <time>2015-04-06T10:13:08.000Z</time>
      </trkpt>
      <trkpt lat="47.48605" lon="6.84142">
        <ele>320</ele>
        <time>2015-04-06T10:13:09.000Z</time>
      </trkpt>
      <trkpt lat="47.48611" lon="6.84137">
        <ele>320</ele>
        <time>2015-04-06T10:13:10.000Z</time>
      </trkpt>
      <trkpt lat="47.48615" lon="6.84128">
        <ele>320</ele>
        <time>2015-04-06T10:13:11.000Z</time>
      </trkpt>
      <trkpt lat="47.4862" lon="6.84122">
        <ele>320</ele>
        <time>2015-04-06T10:13:12.000Z</time>
      </trkpt>
      <trkpt lat="47.48626" lon="6.84119">
        <ele>320</ele>
        <time>2015-04-06T10:13:13.000Z</time>
      </trkpt>
      <trkpt lat="47.48627" lon="6.84115">
        <ele>320</ele>
        <time>2015-04-06T10:13:14.000Z</time>
      </trkpt>
      <trkpt lat="47.48633" lon="6.84106">
        <ele>320</ele>
        <time>2015-04-06T10:13:15.000Z</time>
      </trkpt>
      <trkpt lat="47.48637" lon="6.841">
        <ele>320</ele>
        <time>2015-04-06T10:13:16.000Z</time>
      </trkpt>
      <trkpt lat="47.48641" lon="6.84093">
        <ele>320</ele>
        <time>2015-04-06T10:13:17.000Z</time>
      </trkpt>
      <trkpt lat="47.48645" lon="6.84086">
        <ele>320</ele>
        <time>2015-04-06T10:13:18.000Z</time>
      </trkpt>
      <trkpt lat="47.48649" lon="6.84078">
        <ele>320</ele>
        <time>2015-04-06T10:13:19.000Z</time>
      </trkpt>
      <trkpt lat="47.48654" lon="6.84071">
        <ele>320</ele>
        <time>2015-04-06T10:13:20.000Z</time>
      </trkpt>
      <trkpt lat="47.4866" lon="6.84067">
        <ele>320</ele>
        <time>2015-04-06T10:13:21.000Z</time>
      </trkpt>
      <trkpt lat="47.48664" lon="6.84063">
        <ele>320</ele>
        <time>2015-04-06T10:13:22.000Z</time>
      </trkpt>
      <trkpt lat="47.48669" lon="6.84058">
        <ele>320</ele>
        <time>2015-04-06T10:13:23.000Z</time>
      </trkpt>
      <trkpt lat="47.48673" lon="6.84052">
        <ele>320</ele>
        <time>2015-04-06T10:13:24.000Z</time>
      </trkpt>
      <trkpt lat="47.48678" lon="6.84047">
        <ele>320</ele>
        <time>2015-04-06T10:13:25.000Z</time>
      </trkpt>
      <trkpt lat="47.48681" lon="6.8404">
        <ele>320</ele>
        <time>2015-04-06T10:13:26.000Z</time>
      </trkpt>
      <trkpt lat="47.48686" lon="6.84034">
        <ele>320</ele>
        <time>2015-04-06T10:13:27.000Z</time>
      </trkpt>
      <trkpt lat="47.4869" lon="6.84028">
        <ele>320</ele>
        <time>2015-04-06T10:13:28.000Z</time>
      </trkpt>
      <trkpt lat="47.48695" lon="6.84023">
        <ele>320</ele>
        <time>2015-04-06T10:13:29.000Z</time>
      </trkpt>
      <trkpt lat="47.48698" lon="6.84017">
        <ele>320</ele>
        <time>2015-04-06T10:13:30.000Z</time>
      </trkpt>
      <trkpt lat="47.48702" lon="6.84011">
        <ele>320</ele>
        <time>2015-04-06T10:13:31.000Z</time>
      </trkpt>
      <trkpt lat="47.48705" lon="6.84005">
        <ele>320</ele>
        <time>2015-04-06T10:13:32.000Z</time>
      </trkpt>
      <trkpt lat="47.4871" lon="6.84001">
        <ele>320</ele>
        <time>2015-04-06T10:13:33.000Z</time>
      </trkpt>
      <trkpt lat="47.48714" lon="6.83995">
        <ele>320</ele>
        <time>2015-04-06T10:13:34.000Z</time>
      </trkpt>
      <trkpt lat="47.48718" lon="6.83989">
        <ele>320</ele>
        <time>2015-04-06T10:13:35.000Z</time>
      </trkpt>
      <trkpt lat="47.48727" lon="6.83985">
        <ele>320</ele>
        <time>2015-04-06T10:13:36.000Z</time>
      </trkpt>
      <trkpt lat="47.48731" lon="6.83979">
        <ele>320</ele>
        <time>2015-04-06T10:13:37.000Z</time>
      </trkpt>
      <trkpt lat="47.48732" lon="6.83967">
        <ele>320</ele>
        <time>2015-04-06T10:13:38.000Z</time>
      </trkpt>
      <trkpt lat="47.48736" lon="6.83961">
        <ele>320</ele>
        <time>2015-04-06T10:13:39.000Z</time>
      </trkpt>
      <trkpt lat="47.4874" lon="6.83953">
        <ele>319</ele>
        <time>2015-04-06T10:13:40.000Z</time>
      </trkpt>
      <trkpt lat="47.48743" lon="6.83947">
        <ele>319</ele>
        <time>2015-04-06T10:13:41.000Z</time>
      </trkpt>
      <trkpt lat="47.48747" lon="6.83941">
        <ele>319</ele>
        <time>2015-04-06T10:13:42.000Z</time>
      </trkpt>
      <trkpt lat="47.4875" lon="6.83934">
        <ele>319</ele>
        <time>2015-04-06T10:13:43.000Z</time>
      </trkpt>
      <trkpt lat="47.48753" lon="6.83927">
        <ele>319</ele>
        <time>2015-04-06T10:13:44.000Z</time>
      </trkpt>
      <trkpt lat="47.48755" lon="6.83923">
        <ele>319</ele>
        <time>2015-04-06T10:13:45.000Z</time>
      </trkpt>
      <trkpt lat="47.48756" lon="6.8392">
        <ele>319</ele>
        <time>2015-04-06T10:13:46.000Z</time>
      </trkpt>
      <trkpt lat="47.48758" lon="6.83914">
        <ele>319</ele>
        <time>2015-04-06T10:13:47.000Z</time>
      </trkpt>
      <trkpt lat="47.48761" lon="6.83907">
        <ele>319</ele>
        <time>2015-04-06T10:13:48.000Z</time>
      </trkpt>
      <trkpt lat="47.4876" lon="6.83898">
        <ele>319</ele>
        <time>2015-04-06T10:13:49.000Z</time>
      </trkpt>
      <trkpt lat="47.48762" lon="6.83891">
        <ele>319</ele>
        <time>2015-04-06T10:13:50.000Z</time>
      </trkpt>
      <trkpt lat="47.48764" lon="6.83886">
        <ele>319</ele>
        <time>2015-04-06T10:13:51.000Z</time>
      </trkpt>
      <trkpt lat="47.48766" lon="6.83882">
        <ele>319</ele>
        <time>2015-04-06T10:13:52.000Z</time>
      </trkpt>
      <trkpt lat="47.4877" lon="6.83876">
        <ele>319</ele>
        <time>2015-04-06T10:13:53.000Z</time>
      </trkpt>
      <trkpt lat="47.48772" lon="6.83869">
        <ele>320</ele>
        <time>2015-04-06T10:13:54.000Z</time>
      </trkpt>
      <trkpt lat="47.48774" lon="6.83864">
        <ele>320</ele>
        <time>2015-04-06T10:13:55.000Z</time>
      </trkpt>
      <trkpt lat="47.48777" lon="6.83859">
        <ele>320</ele>
        <time>2015-04-06T10:13:56.000Z</time>
      </trkpt>
      <trkpt lat="47.48777" lon="6.83853">
        <ele>320</ele>
        <time>2015-04-06T10:13:57.000Z</time>
      </trkpt>
      <trkpt lat="47.48777" lon="6.83846">
        <ele>320</ele>
        <time>2015-04-06T10:13:58.000Z</time>
      </trkpt>
      <trkpt lat="47.48775" lon="6.83839">
        <ele>320</ele>
        <time>2015-04-06T10:13:59.000Z</time>
      </trkpt>
      <trkpt lat="47.48775" lon="6.83833">
        <ele>320</ele>
        <time>2015-04-06T10:14:00.000Z</time>
      </trkpt>
      <trkpt lat="47.48773" lon="6.83828">
        <ele>320</ele>
        <time>2015-04-06T10:14:01.000Z</time>
      </trkpt>
      <trkpt lat="47.48772" lon="6.83825">
        <ele>320</ele>
        <time>2015-04-06T10:14:02.000Z</time>
      </trkpt>
      <trkpt lat="47.48771" lon="6.8382">
        <ele>320</ele>
        <time>2015-04-06T10:14:03.000Z</time>
      </trkpt>
      <trkpt lat="47.4877" lon="6.83817">
        <ele>320</ele>
        <time>2015-04-06T10:14:04.000Z</time>
      </trkpt>
      <trkpt lat="47.4877" lon="6.83813">
        <ele>320</ele>
        <time>2015-04-06T10:14:05.000Z</time>
      </trkpt>
      <trkpt lat="47.48772" lon="6.83808">
        <ele>320</ele>
        <time>2015-04-06T10:14:06.000Z</time>
      </trkpt>
      <trkpt lat="47.48783" lon="6.83804">
        <ele>320</ele>
        <time>2015-04-06T10:14:07.000Z</time>
      </trkpt>
      <trkpt lat="47.48787" lon="6.83801">
        <ele>320</ele>
        <time>2015-04-06T10:14:08.000Z</time>
      </trkpt>
      <trkpt lat="47.48789" lon="6.83795">
        <ele>320</ele>
        <time>2015-04-06T10:14:09.000Z</time>
      </trkpt>
      <trkpt lat="47.4879" lon="6.83789">
        <ele>320</ele>
        <time>2015-04-06T10:14:10.000Z</time>
      </trkpt>
      <trkpt lat="47.4879" lon="6.83782">
        <ele>320</ele>
        <time>2015-04-06T10:14:11.000Z</time>
      </trkpt>
      <trkpt lat="47.48785" lon="6.83775">
        <ele>320</ele>
        <time>2015-04-06T10:14:12.000Z</time>
      </trkpt>
      <trkpt lat="47.4878" lon="6.83769">
        <ele>320</ele>
        <time>2015-04-06T10:14:13.000Z</time>
      </trkpt>
      <trkpt lat="47.48776" lon="6.83765">
        <ele>320</ele>
        <time>2015-04-06T10:14:14.000Z</time>
      </trkpt>
      <trkpt lat="47.48771" lon="6.83761">
        <ele>320</ele>
        <time>2015-04-06T10:14:15.000Z</time>
      </trkpt>
      <trkpt lat="47.48772" lon="6.83753">
        <ele>320</ele>
        <time>2015-04-06T10:14:16.000Z</time>
      </trkpt>
      <trkpt lat="47.48773" lon="6.83747">
        <ele>320</ele>
        <time>2015-04-06T10:14:17.000Z</time>
      </trkpt>
      <trkpt lat="47.48773" lon="6.8374">
        <ele>320</ele>
        <time>2015-04-06T10:14:18.000Z</time>
      </trkpt>
      <trkpt lat="47.48776" lon="6.83734">
        <ele>320</ele>
        <time>2015-04-06T10:14:19.000Z</time>
      </trkpt>
      <trkpt lat="47.48776" lon="6.83728">
        <ele>319</ele>
        <time>2015-04-06T10:14:20.000Z</time>
      </trkpt>
      <trkpt lat="47.48778" lon="6.83721">
        <ele>319</ele>
        <time>2015-04-06T10:14:21.000Z</time>
      </trkpt>
      <trkpt lat="47.48778" lon="6.83713">
        <ele>319</ele>
        <time>2015-04-06T10:14:22.000Z</time>
      </trkpt>
      <trkpt lat="47.48779" lon="6.83708">
        <ele>319</ele>
        <time>2015-04-06T10:14:23.000Z</time>
      </trkpt>
      <trkpt lat="47.48781" lon="6.83702">
        <ele>319</ele>
        <time>2015-04-06T10:14:24.000Z</time>
      </trkpt>
      <trkpt lat="47.48781" lon="6.83694">
        <ele>319</ele>
        <time>2015-04-06T10:14:25.000Z</time>
      </trkpt>
      <trkpt lat="47.48782" lon="6.83685">
        <ele>319</ele>
        <time>2015-04-06T10:14:26.000Z</time>
      </trkpt>
      <trkpt lat="47.48784" lon="6.83677">
        <ele>319</ele>
        <time>2015-04-06T10:14:27.000Z</time>
      </trkpt>
      <trkpt lat="47.48786" lon="6.83669">
        <ele>319</ele>
        <time>2015-04-06T10:14:28.000Z</time>
      </trkpt>
      <trkpt lat="47.48786" lon="6.83662">
        <ele>319</ele>
        <time>2015-04-06T10:14:29.000Z</time>
      </trkpt>
      <trkpt lat="47.48788" lon="6.83657">
        <ele>319</ele>
        <time>2015-04-06T10:14:30.000Z</time>
      </trkpt>
      <trkpt lat="47.48787" lon="6.83647">
        <ele>319</ele>
        <time>2015-04-06T10:14:31.000Z</time>
      </trkpt>
      <trkpt lat="47.48786" lon="6.83638">
        <ele>319</ele>
        <time>2015-04-06T10:14:32.000Z</time>
      </trkpt>
      <trkpt lat="47.48785" lon="6.83629">
        <ele>319</ele>
        <time>2015-04-06T10:14:33.000Z</time>
      </trkpt>
      <trkpt lat="47.48781" lon="6.83621">
        <ele>319</ele>
        <time>2015-04-06T10:14:34.000Z</time>
      </trkpt>
      <trkpt lat="47.4878" lon="6.83613">
        <ele>319</ele>
        <time>2015-04-06T10:14:35.000Z</time>
      </trkpt>
      <trkpt lat="47.48778" lon="6.83606">
        <ele>319</ele>
        <time>2015-04-06T10:14:36.000Z</time>
      </trkpt>
      <trkpt lat="47.48777" lon="6.83597">
        <ele>319</ele>
        <time>2015-04-06T10:14:37.000Z</time>
      </trkpt>
      <trkpt lat="47.48777" lon="6.8359">
        <ele>319</ele>
        <time>2015-04-06T10:14:38.000Z</time>
      </trkpt>
      <trkpt lat="47.48777" lon="6.83584">
        <ele>319</ele>
        <time>2015-04-06T10:14:39.000Z</time>
      </trkpt>
      <trkpt lat="47.48775" lon="6.83578">
        <ele>319</ele>
        <time>2015-04-06T10:14:40.000Z</time>
      </trkpt>
      <trkpt lat="47.48775" lon="6.83573">
        <ele>319</ele>
        <time>2015-04-06T10:14:41.000Z</time>
      </trkpt>
      <trkpt lat="47.48775" lon="6.83564">
        <ele>319</ele>
        <time>2015-04-06T10:14:42.000Z</time>
      </trkpt>
      <trkpt lat="47.48775" lon="6.83555">
        <ele>319</ele>
        <time>2015-04-06T10:14:43.000Z</time>
      </trkpt>
      <trkpt lat="47.48775" lon="6.83547">
        <ele>319</ele>
        <time>2015-04-06T10:14:44.000Z</time>
      </trkpt>
      <trkpt lat="47.48776" lon="6.83539">
        <ele>319</ele>
        <time>2015-04-06T10:14:45.000Z</time>
      </trkpt>
      <trkpt lat="47.48777" lon="6.83533">
        <ele>319</ele>
        <time>2015-04-06T10:14:46.000Z</time>
      </trkpt>
      <trkpt lat="47.48778" lon="6.83527">
        <ele>319</ele>
        <time>2015-04-06T10:14:47.000Z</time>
      </trkpt>
      <trkpt lat="47.48779" lon="6.83519">
        <ele>319</ele>
        <time>2015-04-06T10:14:48.000Z</time>
      </trkpt>
      <trkpt lat="47.48781" lon="6.83513">
        <ele>319</ele>
        <time>2015-04-06T10:14:49.000Z</time>
      </trkpt>
      <trkpt lat="47.48784" lon="6.83505">
        <ele>319</ele>
        <time>2015-04-06T10:14:50.000Z</time>
      </trkpt>
      <trkpt lat="47.48785" lon="6.83497">
        <ele>320</ele>
        <time>2015-04-06T10:14:51.000Z</time>
      </trkpt>
      <trkpt lat="47.48786" lon="6.83489">
        <ele>320</ele>
        <time>2015-04-06T10:14:52.000Z</time>
      </trkpt>
      <trkpt lat="47.48787" lon="6.83482">
        <ele>320</ele>
        <time>2015-04-06T10:14:53.000Z</time>
      </trkpt>
      <trkpt lat="47.4879" lon="6.83474">
        <ele>320</ele>
        <time>2015-04-06T10:14:54.000Z</time>
      </trkpt>
      <trkpt lat="47.48794" lon="6.83467">
        <ele>319</ele>
        <time>2015-04-06T10:14:55.000Z</time>
      </trkpt>
      <trkpt lat="47.48798" lon="6.83461">
        <ele>319</ele>
        <time>2015-04-06T10:14:56.000Z</time>
      </trkpt>
      <trkpt lat="47.48801" lon="6.83454">
        <ele>319</ele>
        <time>2015-04-06T10:14:57.000Z</time>
      </trkpt>
      <trkpt lat="47.48801" lon="6.83446">
        <ele>319</ele>
        <time>2015-04-06T10:14:58.000Z</time>
      </trkpt>
      <trkpt lat="47.48802" lon="6.83441">
        <ele>319</ele>
        <time>2015-04-06T10:14:59.000Z</time>
      </trkpt>
      <trkpt lat="47.48808" lon="6.83434">
        <ele>319</ele>
        <time>2015-04-06T10:15:00.000Z</time>
      </trkpt>
      <trkpt lat="47.48813" lon="6.83428">
        <ele>319</ele>
        <time>2015-04-06T10:15:01.000Z</time>
      </trkpt>
      <trkpt lat="47.48817" lon="6.83422">
        <ele>319</ele>
        <time>2015-04-06T10:15:02.000Z</time>
      </trkpt>
      <trkpt lat="47.48822" lon="6.83419">
        <ele>319</ele>
        <time>2015-04-06T10:15:03.000Z</time>
      </trkpt>
      <trkpt lat="47.48826" lon="6.83416">
        <ele>319</ele>
        <time>2015-04-06T10:15:04.000Z</time>
      </trkpt>
      <trkpt lat="47.4883" lon="6.83413">
        <ele>319</ele>
        <time>2015-04-06T10:15:05.000Z</time>
      </trkpt>
      <trkpt lat="47.48833" lon="6.83408">
        <ele>319</ele>
        <time>2015-04-06T10:15:06.000Z</time>
      </trkpt>
      <trkpt lat="47.48833" lon="6.83401">
        <ele>319</ele>
        <time>2015-04-06T10:15:07.000Z</time>
      </trkpt>
      <trkpt lat="47.48836" lon="6.83394">
        <ele>319</ele>
        <time>2015-04-06T10:15:08.000Z</time>
      </trkpt>
      <trkpt lat="47.48839" lon="6.83388">
        <ele>319</ele>
        <time>2015-04-06T10:15:09.000Z</time>
      </trkpt>
      <trkpt lat="47.48842" lon="6.83385">
        <ele>319</ele>
        <time>2015-04-06T10:15:10.000Z</time>
      </trkpt>
      <trkpt lat="47.48847" lon="6.83382">
        <ele>319</ele>
        <time>2015-04-06T10:15:11.000Z</time>
      </trkpt>
      <trkpt lat="47.4885" lon="6.83377">
        <ele>319</ele>
        <time>2015-04-06T10:15:12.000Z</time>
      </trkpt>
      <trkpt lat="47.48852" lon="6.83371">
        <ele>320</ele>
        <time>2015-04-06T10:15:13.000Z</time>
      </trkpt>
      <trkpt lat="47.48854" lon="6.83366">
        <ele>320</ele>
        <time>2015-04-06T10:15:14.000Z</time>
      </trkpt>
      <trkpt lat="47.48856" lon="6.83362">
        <ele>320</ele>
        <time>2015-04-06T10:15:15.000Z</time>
      </trkpt>
      <trkpt lat="47.48863" lon="6.83357">
        <ele>320</ele>
        <time>2015-04-06T10:15:16.000Z</time>
      </trkpt>
      <trkpt lat="47.48868" lon="6.83352">
        <ele>320</ele>
        <time>2015-04-06T10:15:17.000Z</time>
      </trkpt>
      <trkpt lat="47.48874" lon="6.83351">
        <ele>320</ele>
        <time>2015-04-06T10:15:18.000Z</time>
      </trkpt>
      <trkpt lat="47.48879" lon="6.83347">
        <ele>320</ele>
        <time>2015-04-06T10:15:19.000Z</time>
      </trkpt>
      <trkpt lat="47.48882" lon="6.8334">
        <ele>320</ele>
        <time>2015-04-06T10:15:20.000Z</time>
      </trkpt>
      <trkpt lat="47.48885" lon="6.83335">
        <ele>320</ele>
        <time>2015-04-06T10:15:21.000Z</time>
      </trkpt>
      <trkpt lat="47.48889" lon="6.8333">
        <ele>320</ele>
        <time>2015-04-06T10:15:22.000Z</time>
      </trkpt>
      <trkpt lat="47.48893" lon="6.83326">
        <ele>320</ele>
        <time>2015-04-06T10:15:23.000Z</time>
      </trkpt>
      <trkpt lat="47.48898" lon="6.83323">
        <ele>320</ele>
        <time>2015-04-06T10:15:24.000Z</time>
      </trkpt>
      <trkpt lat="47.48902" lon="6.8332">
        <ele>320</ele>
        <time>2015-04-06T10:15:25.000Z</time>
      </trkpt>
      <trkpt lat="47.48905" lon="6.83319">
        <ele>320</ele>
        <time>2015-04-06T10:15:26.000Z</time>
      </trkpt>
      <trkpt lat="47.48909" lon="6.83316">
        <ele>320</ele>
        <time>2015-04-06T10:15:27.000Z</time>
      </trkpt>
      <trkpt lat="47.48915" lon="6.83313">
        <ele>320</ele>
        <time>2015-04-06T10:15:28.000Z</time>
      </trkpt>
      <trkpt lat="47.48919" lon="6.83311">
        <ele>320</ele>
        <time>2015-04-06T10:15:29.000Z</time>
      </trkpt>
      <trkpt lat="47.48923" lon="6.83307">
        <ele>320</ele>
        <time>2015-04-06T10:15:30.000Z</time>
      </trkpt>
      <trkpt lat="47.48928" lon="6.83304">
        <ele>320</ele>
        <time>2015-04-06T10:15:31.000Z</time>
      </trkpt>
      <trkpt lat="47.48929" lon="6.83304">
        <ele>320</ele>
        <time>2015-04-06T10:15:32.000Z</time>
      </trkpt>
      <trkpt lat="47.48937" lon="6.83305">
        <ele>320</ele>
        <time>2015-04-06T10:15:33.000Z</time>
      </trkpt>
      <trkpt lat="47.4894" lon="6.83305">
        <ele>320</ele>
        <time>2015-04-06T10:15:34.000Z</time>
      </trkpt>
      <trkpt lat="47.48943" lon="6.83306">
        <ele>320</ele>
        <time>2015-04-06T10:15:35.000Z</time>
      </trkpt>
      <trkpt lat="47.48945" lon="6.83308">
        <ele>320</ele>
        <time>2015-04-06T10:15:36.000Z</time>
      </trkpt>
      <trkpt lat="47.48949" lon="6.83308">
        <ele>320</ele>
        <time>2015-04-06T10:15:37.000Z</time>
      </trkpt>
      <trkpt lat="47.48953" lon="6.83309">
        <ele>320</ele>
        <time>2015-04-06T10:15:38.000Z</time>
      </trkpt>
      <trkpt lat="47.48956" lon="6.8331">
        <ele>320</ele>
        <time>2015-04-06T10:15:39.000Z</time>
      </trkpt>
      <trkpt lat="47.48962" lon="6.8331">
        <ele>320</ele>
        <time>2015-04-06T10:15:40.000Z</time>
      </trkpt>
      <trkpt lat="47.48966" lon="6.83312">
        <ele>320</ele>
        <time>2015-04-06T10:15:41.000Z</time>
      </trkpt>
      <trkpt lat="47.4897" lon="6.83314">
        <ele>320</ele>
        <time>2015-04-06T10:15:42.000Z</time>
      </trkpt>
      <trkpt lat="47.48974" lon="6.83315">
        <ele>320</ele>
        <time>2015-04-06T10:15:43.000Z</time>
      </trkpt>
      <trkpt lat="47.48979" lon="6.83316">
        <ele>319</ele>
        <time>2015-04-06T10:15:44.000Z</time>
      </trkpt>
      <trkpt lat="47.48983" lon="6.83317">
        <ele>319</ele>
        <time>2015-04-06T10:15:45.000Z</time>
      </trkpt>
      <trkpt lat="47.48987" lon="6.83318">
        <ele>319</ele>
        <time>2015-04-06T10:15:46.000Z</time>
      </trkpt>
      <trkpt lat="47.48991" lon="6.83319">
        <ele>319</ele>
        <time>2015-04-06T10:15:47.000Z</time>
      </trkpt>
      <trkpt lat="47.48996" lon="6.8332">
        <ele>319</ele>
        <time>2015-04-06T10:15:48.000Z</time>
      </trkpt>
      <trkpt lat="47.49" lon="6.83322">
        <ele>319</ele>
        <time>2015-04-06T10:15:49.000Z</time>
      </trkpt>
      <trkpt lat="47.49004" lon="6.83324">
        <ele>319</ele>
        <time>2015-04-06T10:15:50.000Z</time>
      </trkpt>
      <trkpt lat="47.49011" lon="6.83326">
        <ele>319</ele>
        <time>2015-04-06T10:15:51.000Z</time>
      </trkpt>
      <trkpt lat="47.49016" lon="6.83328">
        <ele>319</ele>
        <time>2015-04-06T10:15:52.000Z</time>
      </trkpt>
      <trkpt lat="47.49021" lon="6.8333">
        <ele>319</ele>
        <time>2015-04-06T10:15:53.000Z</time>
      </trkpt>
      <trkpt lat="47.49025" lon="6.83332">
        <ele>319</ele>
        <time>2015-04-06T10:15:54.000Z</time>
      </trkpt>
      <trkpt lat="47.49032" lon="6.83333">
        <ele>319</ele>
        <time>2015-04-06T10:15:55.000Z</time>
      </trkpt>
      <trkpt lat="47.49039" lon="6.83334">
        <ele>319</ele>
        <time>2015-04-06T10:15:56.000Z</time>
      </trkpt>
      <trkpt lat="47.49045" lon="6.83335">
        <ele>319</ele>
        <time>2015-04-06T10:15:57.000Z</time>
      </trkpt>
      <trkpt lat="47.4905" lon="6.83337">
        <ele>319</ele>
        <time>2015-04-06T10:15:58.000Z</time>
      </trkpt>
      <trkpt lat="47.49056" lon="6.8334">
        <ele>319</ele>
        <time>2015-04-06T10:15:59.000Z</time>
      </trkpt>
      <trkpt lat="47.49061" lon="6.83342">
        <ele>319</ele>
        <time>2015-04-06T10:16:00.000Z</time>
      </trkpt>
      <trkpt lat="47.49066" lon="6.83344">
        <ele>319</ele>
        <time>2015-04-06T10:16:01.000Z</time>
      </trkpt>
      <trkpt lat="47.49072" lon="6.83346">
        <ele>319</ele>
        <time>2015-04-06T10:16:02.000Z</time>
      </trkpt>
      <trkpt lat="47.49078" lon="6.83347">
        <ele>320</ele>
        <time>2015-04-06T10:16:03.000Z</time>
      </trkpt>
      <trkpt lat="47.49085" lon="6.83348">
        <ele>320</ele>
        <time>2015-04-06T10:16:04.000Z</time>
      </trkpt>
      <trkpt lat="47.49092" lon="6.8335">
        <ele>320</ele>
        <time>2015-04-06T10:16:05.000Z</time>
      </trkpt>
      <trkpt lat="47.49097" lon="6.83352">
        <ele>320</ele>
        <time>2015-04-06T10:16:06.000Z</time>
      </trkpt>
      <trkpt lat="47.49099" lon="6.83354">
        <ele>320</ele>
        <time>2015-04-06T10:16:07.000Z</time>
      </trkpt>
      <trkpt lat="47.49103" lon="6.83355">
        <ele>320</ele>
        <time>2015-04-06T10:16:08.000Z</time>
      </trkpt>
      <trkpt lat="47.49108" lon="6.83358">
        <ele>320</ele>
        <time>2015-04-06T10:16:09.000Z</time>
      </trkpt>
      <trkpt lat="47.49112" lon="6.8336">
        <ele>320</ele>
        <time>2015-04-06T10:16:10.000Z</time>
      </trkpt>
      <trkpt lat="47.49119" lon="6.83365">
        <ele>320</ele>
        <time>2015-04-06T10:16:11.000Z</time>
      </trkpt>
      <trkpt lat="47.49124" lon="6.83366">
        <ele>320</ele>
        <time>2015-04-06T10:16:12.000Z</time>
      </trkpt>
      <trkpt lat="47.49128" lon="6.83369">
        <ele>320</ele>
        <time>2015-04-06T10:16:13.000Z</time>
      </trkpt>
      <trkpt lat="47.49134" lon="6.83371">
        <ele>320</ele>
        <time>2015-04-06T10:16:14.000Z</time>
      </trkpt>
      <trkpt lat="47.4914" lon="6.83372">
        <ele>320</ele>
        <time>2015-04-06T10:16:15.000Z</time>
      </trkpt>
      <trkpt lat="47.49144" lon="6.83373">
        <ele>320</ele>
        <time>2015-04-06T10:16:16.000Z</time>
      </trkpt>
      <trkpt lat="47.49147" lon="6.83376">
        <ele>320</ele>
        <time>2015-04-06T10:16:17.000Z</time>
      </trkpt>
      <trkpt lat="47.49154" lon="6.83375">
        <ele>320</ele>
        <time>2015-04-06T10:16:18.000Z</time>
      </trkpt>
      <trkpt lat="47.49161" lon="6.83374">
        <ele>320</ele>
        <time>2015-04-06T10:16:19.000Z</time>
      </trkpt>
      <trkpt lat="47.49167" lon="6.83376">
        <ele>320</ele>
        <time>2015-04-06T10:16:20.000Z</time>
      </trkpt>
      <trkpt lat="47.49175" lon="6.83376">
        <ele>320</ele>
        <time>2015-04-06T10:16:21.000Z</time>
      </trkpt>
      <trkpt lat="47.4918" lon="6.83377">
        <ele>320</ele>
        <time>2015-04-06T10:16:22.000Z</time>
      </trkpt>
      <trkpt lat="47.49186" lon="6.83379">
        <ele>320</ele>
        <time>2015-04-06T10:16:23.000Z</time>
      </trkpt>
      <trkpt lat="47.49194" lon="6.8338">
        <ele>320</ele>
        <time>2015-04-06T10:16:24.000Z</time>
      </trkpt>
      <trkpt lat="47.49197" lon="6.83381">
        <ele>320</ele>
        <time>2015-04-06T10:16:25.000Z</time>
      </trkpt>
      <trkpt lat="47.492" lon="6.83382">
        <ele>319</ele>
        <time>2015-04-06T10:16:26.000Z</time>
      </trkpt>
      <trkpt lat="47.49203" lon="6.83384">
        <ele>319</ele>
        <time>2015-04-06T10:16:27.000Z</time>
      </trkpt>
      <trkpt lat="47.49206" lon="6.83385">
        <ele>319</ele>
        <time>2015-04-06T10:16:28.000Z</time>
      </trkpt>
      <trkpt lat="47.49208" lon="6.83389">
        <ele>319</ele>
        <time>2015-04-06T10:16:29.000Z</time>
      </trkpt>
      <trkpt lat="47.4921" lon="6.83391">
        <ele>319</ele>
        <time>2015-04-06T10:16:30.000Z</time>
      </trkpt>
      <trkpt lat="47.49213" lon="6.83392">
        <ele>319</ele>
        <time>2015-04-06T10:16:31.000Z</time>
      </trkpt>
      <trkpt lat="47.49217" lon="6.83394">
        <ele>319</ele>
        <time>2015-04-06T10:16:32.000Z</time>
      </trkpt>
      <trkpt lat="47.4922" lon="6.83393">
        <ele>319</ele>
        <time>2015-04-06T10:16:44.000Z</time>
      </trkpt>
      <trkpt lat="47.49221" lon="6.83393">
        <ele>319</ele>
        <time>2015-04-06T10:16:45.000Z</time>
      </trkpt>
      <trkpt lat="47.49224" lon="6.83393">
        <ele>319</ele>
        <time>2015-04-06T10:16:50.000Z</time>
      </trkpt>
      <trkpt lat="47.49226" lon="6.83392">
        <ele>319</ele>
        <time>2015-04-06T10:16:51.000Z</time>
      </trkpt>
      <trkpt lat="47.49228" lon="6.83392">
        <ele>319</ele>
        <time>2015-04-06T10:16:52.000Z</time>
      </trkpt>
      <trkpt lat="47.49231" lon="6.83391">
        <ele>319</ele>
        <time>2015-04-06T10:16:53.000Z</time>
      </trkpt>
      <trkpt lat="47.49233" lon="6.83391">
        <ele>319</ele>
        <time>2015-04-06T10:16:54.000Z</time>
      </trkpt>
      <trkpt lat="47.49236" lon="6.8339">
        <ele>319</ele>
        <time>2015-04-06T10:16:55.000Z</time>
      </trkpt>
      <trkpt lat="47.49238" lon="6.8339">
        <ele>319</ele>
        <time>2015-04-06T10:16:56.000Z</time>
      </trkpt>
      <trkpt lat="47.49241" lon="6.83391">
        <ele>319</ele>
        <time>2015-04-06T10:16:57.000Z</time>
      </trkpt>
      <trkpt lat="47.49245" lon="6.83392">
        <ele>319</ele>
        <time>2015-04-06T10:17:05.000Z</time>
      </trkpt>
      <trkpt lat="47.49245" lon="6.83393">
        <ele>319</ele>
        <time>2015-04-06T10:17:06.000Z</time>
      </trkpt>
      <trkpt lat="47.49249" lon="6.83395">
        <ele>319</ele>
        <time>2015-04-06T10:17:13.000Z</time>
      </trkpt>
      <trkpt lat="47.4925" lon="6.83395">
        <ele>319</ele>
        <time>2015-04-06T10:17:14.000Z</time>
      </trkpt>
      <trkpt lat="47.49254" lon="6.83397">
        <ele>319</ele>
        <time>2015-04-06T10:17:26.000Z</time>
      </trkpt>
      <trkpt lat="47.49254" lon="6.83398">
        <ele>319</ele>
        <time>2015-04-06T10:17:27.000Z</time>
      </trkpt>
      <trkpt lat="47.49258" lon="6.834">
        <ele>319</ele>
        <time>2015-04-06T10:17:36.000Z</time>
      </trkpt>
      <trkpt lat="47.49259" lon="6.834">
        <ele>319</ele>
        <time>2015-04-06T10:17:37.000Z</time>
      </trkpt>
      <trkpt lat="47.49262" lon="6.83403">
        <ele>319</ele>
        <time>2015-04-06T10:17:42.000Z</time>
      </trkpt>
      <trkpt lat="47.49263" lon="6.83404">
        <ele>319</ele>
        <time>2015-04-06T10:17:43.000Z</time>
      </trkpt>
      <trkpt lat="47.49266" lon="6.83407">
        <ele>319</ele>
        <time>2015-04-06T10:17:45.000Z</time>
      </trkpt>
      <trkpt lat="47.49269" lon="6.83409">
        <ele>319</ele>
        <time>2015-04-06T10:17:46.000Z</time>
      </trkpt>
      <trkpt lat="47.49272" lon="6.8341">
        <ele>319</ele>
        <time>2015-04-06T10:17:47.000Z</time>
      </trkpt>
      <trkpt lat="47.49276" lon="6.83411">
        <ele>319</ele>
        <time>2015-04-06T10:17:48.000Z</time>
      </trkpt>
      <trkpt lat="47.49281" lon="6.83412">
        <ele>319</ele>
        <time>2015-04-06T10:17:49.000Z</time>
      </trkpt>
      <trkpt lat="47.49285" lon="6.83413">
        <ele>319</ele>
        <time>2015-04-06T10:17:50.000Z</time>
      </trkpt>
      <trkpt lat="47.49289" lon="6.83414">
        <ele>319</ele>
        <time>2015-04-06T10:17:51.000Z</time>
      </trkpt>
      <trkpt lat="47.49292" lon="6.83414">
        <ele>319</ele>
        <time>2015-04-06T10:17:52.000Z</time>
      </trkpt>
      <trkpt lat="47.49296" lon="6.83414">
        <ele>319</ele>
        <time>2015-04-06T10:17:54.000Z</time>
      </trkpt>
      <trkpt lat="47.49298" lon="6.83414">
        <ele>319</ele>
        <time>2015-04-06T10:17:55.000Z</time>
      </trkpt>
      <trkpt lat="47.49301" lon="6.83414">
        <ele>319</ele>
        <time>2015-04-06T10:17:56.000Z</time>
      </trkpt>
      <trkpt lat="47.49305" lon="6.83414">
        <ele>319</ele>
        <time>2015-04-06T10:17:57.000Z</time>
      </trkpt>
      <trkpt lat="47.49308" lon="6.83414">
        <ele>319</ele>
        <time>2015-04-06T10:17:58.000Z</time>
      </trkpt>
      <trkpt lat="47.49312" lon="6.83416">
        <ele>319</ele>
        <time>2015-04-06T10:17:59.000Z</time>
      </trkpt>
      <trkpt lat="47.49317" lon="6.83417">
        <ele>319</ele>
        <time>2015-04-06T10:18:00.000Z</time>
      </trkpt>
      <trkpt lat="47.49321" lon="6.83418">
        <ele>319</ele>
        <time>2015-04-06T10:18:01.000Z</time>
      </trkpt>
      <trkpt lat="47.49332" lon="6.83419">
        <ele>319</ele>
        <time>2015-04-06T10:18:02.000Z</time>
      </trkpt>
      <trkpt lat="47.49339" lon="6.8342">
        <ele>319</ele>
        <time>2015-04-06T10:18:03.000Z</time>
      </trkpt>
      <trkpt lat="47.49345" lon="6.83421">
        <ele>319</ele>
        <time>2015-04-06T10:18:04.000Z</time>
      </trkpt>
      <trkpt lat="47.4935" lon="6.83421">
        <ele>319</ele>
        <time>2015-04-06T10:18:05.000Z</time>
      </trkpt>
      <trkpt lat="47.49354" lon="6.83422">
        <ele>318</ele>
        <time>2015-04-06T10:18:06.000Z</time>
      </trkpt>
      <trkpt lat="47.49361" lon="6.83422">
        <ele>318</ele>
        <time>2015-04-06T10:18:07.000Z</time>
      </trkpt>
      <trkpt lat="47.49365" lon="6.83421">
        <ele>318</ele>
        <time>2015-04-06T10:18:08.000Z</time>
      </trkpt>
      <trkpt lat="47.4937" lon="6.83419">
        <ele>318</ele>
        <time>2015-04-06T10:18:09.000Z</time>
      </trkpt>
      <trkpt lat="47.49374" lon="6.83418">
        <ele>318</ele>
        <time>2015-04-06T10:18:10.000Z</time>
      </trkpt>
      <trkpt lat="47.49377" lon="6.83418">
        <ele>318</ele>
        <time>2015-04-06T10:18:11.000Z</time>
      </trkpt>
      <trkpt lat="47.4938" lon="6.83417">
        <ele>318</ele>
        <time>2015-04-06T10:18:12.000Z</time>
      </trkpt>
      <trkpt lat="47.49384" lon="6.83414">
        <ele>319</ele>
        <time>2015-04-06T10:18:13.000Z</time>
      </trkpt>
      <trkpt lat="47.49389" lon="6.8341">
        <ele>319</ele>
        <time>2015-04-06T10:18:14.000Z</time>
      </trkpt>
      <trkpt lat="47.49394" lon="6.83407">
        <ele>319</ele>
        <time>2015-04-06T10:18:15.000Z</time>
      </trkpt>
      <trkpt lat="47.49398" lon="6.83404">
        <ele>319</ele>
        <time>2015-04-06T10:18:16.000Z</time>
      </trkpt>
      <trkpt lat="47.49403" lon="6.83401">
        <ele>319</ele>
        <time>2015-04-06T10:18:17.000Z</time>
      </trkpt>
      <trkpt lat="47.49407" lon="6.83398">
        <ele>319</ele>
        <time>2015-04-06T10:18:18.000Z</time>
      </trkpt>
      <trkpt lat="47.49411" lon="6.83395">
        <ele>319</ele>
        <time>2015-04-06T10:18:19.000Z</time>
      </trkpt>
      <trkpt lat="47.49416" lon="6.83392">
        <ele>319</ele>
        <time>2015-04-06T10:18:20.000Z</time>
      </trkpt>
      <trkpt lat="47.49422" lon="6.83389">
        <ele>319</ele>
        <time>2015-04-06T10:18:21.000Z</time>
      </trkpt>
      <trkpt lat="47.49428" lon="6.83386">
        <ele>319</ele>
        <time>2015-04-06T10:18:22.000Z</time>
      </trkpt>
      <trkpt lat="47.49433" lon="6.83383">
        <ele>319</ele>
        <time>2015-04-06T10:18:23.000Z</time>
      </trkpt>
      <trkpt lat="47.49437" lon="6.83379">
        <ele>319</ele>
        <time>2015-04-06T10:18:24.000Z</time>
      </trkpt>
      <trkpt lat="47.49443" lon="6.83375">
        <ele>319</ele>
        <time>2015-04-06T10:18:25.000Z</time>
      </trkpt>
      <trkpt lat="47.49447" lon="6.83373">
        <ele>319</ele>
        <time>2015-04-06T10:18:26.000Z</time>
      </trkpt>
      <trkpt lat="47.49451" lon="6.8337">
        <ele>319</ele>
        <time>2015-04-06T10:18:27.000Z</time>
      </trkpt>
      <trkpt lat="47.49456" lon="6.83366">
        <ele>319</ele>
        <time>2015-04-06T10:18:28.000Z</time>
      </trkpt>
      <trkpt lat="47.49462" lon="6.83366">
        <ele>319</ele>
        <time>2015-04-06T10:18:29.000Z</time>
      </trkpt>
      <trkpt lat="47.49466" lon="6.83363">
        <ele>319</ele>
        <time>2015-04-06T10:18:30.000Z</time>
      </trkpt>
      <trkpt lat="47.49471" lon="6.8336">
        <ele>319</ele>
        <time>2015-04-06T10:18:31.000Z</time>
      </trkpt>
      <trkpt lat="47.49476" lon="6.83356">
        <ele>319</ele>
        <time>2015-04-06T10:18:32.000Z</time>
      </trkpt>
      <trkpt lat="47.49481" lon="6.83353">
        <ele>320</ele>
        <time>2015-04-06T10:18:33.000Z</time>
      </trkpt>
      <trkpt lat="47.49485" lon="6.8335">
        <ele>320</ele>
        <time>2015-04-06T10:18:34.000Z</time>
      </trkpt>
      <trkpt lat="47.4949" lon="6.83347">
        <ele>320</ele>
        <time>2015-04-06T10:18:35.000Z</time>
      </trkpt>
      <trkpt lat="47.49495" lon="6.83345">
        <ele>320</ele>
        <time>2015-04-06T10:18:36.000Z</time>
      </trkpt>
      <trkpt lat="47.49499" lon="6.83343">
        <ele>320</ele>
        <time>2015-04-06T10:18:37.000Z</time>
      </trkpt>
      <trkpt lat="47.49504" lon="6.83342">
        <ele>320</ele>
        <time>2015-04-06T10:18:38.000Z</time>
      </trkpt>
      <trkpt lat="47.49507" lon="6.83341">
        <ele>320</ele>
        <time>2015-04-06T10:18:39.000Z</time>
      </trkpt>
      <trkpt lat="47.4951" lon="6.83342">
        <ele>320</ele>
        <time>2015-04-06T10:18:40.000Z</time>
      </trkpt>
      <trkpt lat="47.49514" lon="6.83344">
        <ele>320</ele>
        <time>2015-04-06T10:18:41.000Z</time>
      </trkpt>
      <trkpt lat="47.49518" lon="6.83342">
        <ele>320</ele>
        <time>2015-04-06T10:18:42.000Z</time>
      </trkpt>
      <trkpt lat="47.49521" lon="6.83341">
        <ele>320</ele>
        <time>2015-04-06T10:18:43.000Z</time>
      </trkpt>
      <trkpt lat="47.49524" lon="6.83338">
        <ele>320</ele>
        <time>2015-04-06T10:18:44.000Z</time>
      </trkpt>
      <trkpt lat="47.49527" lon="6.83335">
        <ele>319</ele>
        <time>2015-04-06T10:18:45.000Z</time>
      </trkpt>
      <trkpt lat="47.49531" lon="6.8333">
        <ele>320</ele>
        <time>2015-04-06T10:18:46.000Z</time>
      </trkpt>
      <trkpt lat="47.49534" lon="6.83327">
        <ele>320</ele>
        <time>2015-04-06T10:18:47.000Z</time>
      </trkpt>
      <trkpt lat="47.49537" lon="6.83323">
        <ele>320</ele>
        <time>2015-04-06T10:18:48.000Z</time>
      </trkpt>
      <trkpt lat="47.49544" lon="6.83319">
        <ele>320</ele>
        <time>2015-04-06T10:18:49.000Z</time>
      </trkpt>
      <trkpt lat="47.4955" lon="6.83316">
        <ele>320</ele>
        <time>2015-04-06T10:18:50.000Z</time>
      </trkpt>
      <trkpt lat="47.49554" lon="6.83313">
        <ele>320</ele>
        <time>2015-04-06T10:18:51.000Z</time>
      </trkpt>
      <trkpt lat="47.49557" lon="6.8331">
        <ele>320</ele>
        <time>2015-04-06T10:18:52.000Z</time>
      </trkpt>
      <trkpt lat="47.49563" lon="6.83307">
        <ele>320</ele>
        <time>2015-04-06T10:18:53.000Z</time>
      </trkpt>
      <trkpt lat="47.49569" lon="6.83302">
        <ele>320</ele>
        <time>2015-04-06T10:18:54.000Z</time>
      </trkpt>
      <trkpt lat="47.49572" lon="6.83299">
        <ele>320</ele>
        <time>2015-04-06T10:18:55.000Z</time>
      </trkpt>
      <trkpt lat="47.49575" lon="6.83295">
        <ele>320</ele>
        <time>2015-04-06T10:18:56.000Z</time>
      </trkpt>
      <trkpt lat="47.49579" lon="6.83293">
        <ele>320</ele>
        <time>2015-04-06T10:18:57.000Z</time>
      </trkpt>
      <trkpt lat="47.49586" lon="6.83293">
        <ele>319</ele>
        <time>2015-04-06T10:18:58.000Z</time>
      </trkpt>
      <trkpt lat="47.49593" lon="6.83291">
        <ele>319</ele>
        <time>2015-04-06T10:18:59.000Z</time>
      </trkpt>
      <trkpt lat="47.49597" lon="6.83288">
        <ele>319</ele>
        <time>2015-04-06T10:19:00.000Z</time>
      </trkpt>
      <trkpt lat="47.49601" lon="6.83287">
        <ele>319</ele>
        <time>2015-04-06T10:19:01.000Z</time>
      </trkpt>
      <trkpt lat="47.49606" lon="6.83283">
        <ele>319</ele>
        <time>2015-04-06T10:19:02.000Z</time>
      </trkpt>
      <trkpt lat="47.49608" lon="6.83282">
        <ele>319</ele>
        <time>2015-04-06T10:19:03.000Z</time>
      </trkpt>
      <trkpt lat="47.4961" lon="6.83277">
        <ele>319</ele>
        <time>2015-04-06T10:19:04.000Z</time>
      </trkpt>
      <trkpt lat="47.49616" lon="6.83274">
        <ele>319</ele>
        <time>2015-04-06T10:19:05.000Z</time>
      </trkpt>
      <trkpt lat="47.49619" lon="6.83271">
        <ele>319</ele>
        <time>2015-04-06T10:19:06.000Z</time>
      </trkpt>
      <trkpt lat="47.49627" lon="6.83268">
        <ele>319</ele>
        <time>2015-04-06T10:19:07.000Z</time>
      </trkpt>
      <trkpt lat="47.49632" lon="6.83264">
        <ele>319</ele>
        <time>2015-04-06T10:19:08.000Z</time>
      </trkpt>
      <trkpt lat="47.49638" lon="6.83262">
        <ele>319</ele>
        <time>2015-04-06T10:19:09.000Z</time>
      </trkpt>
      <trkpt lat="47.49644" lon="6.83257">
        <ele>319</ele>
        <time>2015-04-06T10:19:10.000Z</time>
      </trkpt>
      <trkpt lat="47.4965" lon="6.83254">
        <ele>318</ele>
        <time>2015-04-06T10:19:11.000Z</time>
      </trkpt>
      <trkpt lat="47.49656" lon="6.8325">
        <ele>318</ele>
        <time>2015-04-06T10:19:12.000Z</time>
      </trkpt>
      <trkpt lat="47.4966" lon="6.83246">
        <ele>319</ele>
        <time>2015-04-06T10:19:13.000Z</time>
      </trkpt>
      <trkpt lat="47.49664" lon="6.83244">
        <ele>319</ele>
        <time>2015-04-06T10:19:14.000Z</time>
      </trkpt>
      <trkpt lat="47.49669" lon="6.8324">
        <ele>320</ele>
        <time>2015-04-06T10:19:15.000Z</time>
      </trkpt>
      <trkpt lat="47.49674" lon="6.83236">
        <ele>321</ele>
        <time>2015-04-06T10:19:16.001Z</time>
      </trkpt>
      <trkpt lat="47.49679" lon="6.83235">
        <ele>322</ele>
        <time>2015-04-06T10:19:17.000Z</time>
      </trkpt>
      <trkpt lat="47.49684" lon="6.8323">
        <ele>322</ele>
        <time>2015-04-06T10:19:18.000Z</time>
      </trkpt>
      <trkpt lat="47.4969" lon="6.83228">
        <ele>323</ele>
        <time>2015-04-06T10:19:19.000Z</time>
      </trkpt>
      <trkpt lat="47.49695" lon="6.83227">
        <ele>323</ele>
        <time>2015-04-06T10:19:20.000Z</time>
      </trkpt>
      <trkpt lat="47.497" lon="6.83227">
        <ele>324</ele>
        <time>2015-04-06T10:19:20.999Z</time>
      </trkpt>
      <trkpt lat="47.49704" lon="6.83225">
        <ele>324</ele>
        <time>2015-04-06T10:19:22.000Z</time>
      </trkpt>
      <trkpt lat="47.49708" lon="6.83225">
        <ele>324</ele>
        <time>2015-04-06T10:19:23.000Z</time>
      </trkpt>
      <trkpt lat="47.49713" lon="6.83224">
        <ele>325</ele>
        <time>2015-04-06T10:19:24.001Z</time>
      </trkpt>
      <trkpt lat="47.49717" lon="6.83222">
        <ele>325</ele>
        <time>2015-04-06T10:19:25.000Z</time>
      </trkpt>
      <trkpt lat="47.49722" lon="6.83223">
        <ele>325</ele>
        <time>2015-04-06T10:19:26.000Z</time>
      </trkpt>
      <trkpt lat="47.49727" lon="6.83225">
        <ele>325</ele>
        <time>2015-04-06T10:19:27.000Z</time>
      </trkpt>
      <trkpt lat="47.49734" lon="6.83226">
        <ele>326</ele>
        <time>2015-04-06T10:19:28.000Z</time>
      </trkpt>
      <trkpt lat="47.4974" lon="6.83231">
        <ele>326</ele>
        <time>2015-04-06T10:19:29.000Z</time>
      </trkpt>
      <trkpt lat="47.49744" lon="6.83236">
        <ele>326</ele>
        <time>2015-04-06T10:19:30.000Z</time>
      </trkpt>
      <trkpt lat="47.49748" lon="6.8324">
        <ele>326</ele>
        <time>2015-04-06T10:19:31.000Z</time>
      </trkpt>
      <trkpt lat="47.49752" lon="6.83243">
        <ele>328</ele>
        <time>2015-04-06T10:19:32.000Z</time>
      </trkpt>
      <trkpt lat="47.49757" lon="6.83247">
        <ele>328</ele>
        <time>2015-04-06T10:19:33.000Z</time>
      </trkpt>
      <trkpt lat="47.49761" lon="6.83249">
        <ele>329</ele>
        <time>2015-04-06T10:19:34.000Z</time>
      </trkpt>
      <trkpt lat="47.49765" lon="6.83253">
        <ele>327</ele>
        <time>2015-04-06T10:19:35.000Z</time>
      </trkpt>
      <trkpt lat="47.49769" lon="6.83257">
        <ele>327</ele>
        <time>2015-04-06T10:19:36.000Z</time>
      </trkpt>
      <trkpt lat="47.49773" lon="6.8326">
        <ele>327</ele>
        <time>2015-04-06T10:19:37.000Z</time>
      </trkpt>
      <trkpt lat="47.49778" lon="6.83262">
        <ele>327</ele>
        <time>2015-04-06T10:19:38.000Z</time>
      </trkpt>
      <trkpt lat="47.49782" lon="6.83265">
        <ele>327</ele>
        <time>2015-04-06T10:19:39.000Z</time>
      </trkpt>
      <trkpt lat="47.49787" lon="6.83267">
        <ele>327</ele>
        <time>2015-04-06T10:19:40.000Z</time>
      </trkpt>
      <trkpt lat="47.4979" lon="6.8327">
        <ele>328</ele>
        <time>2015-04-06T10:19:41.000Z</time>
      </trkpt>
      <trkpt lat="47.49793" lon="6.83273">
        <ele>328</ele>
        <time>2015-04-06T10:19:42.000Z</time>
      </trkpt>
      <trkpt lat="47.49795" lon="6.83275">
        <ele>328</ele>
        <time>2015-04-06T10:19:43.001Z</time>
      </trkpt>
      <trkpt lat="47.49799" lon="6.83278">
        <ele>328</ele>
        <time>2015-04-06T10:19:44.000Z</time>
      </trkpt>
      <trkpt lat="47.49801" lon="6.83281">
        <ele>328</ele>
        <time>2015-04-06T10:19:45.000Z</time>
      </trkpt>
      <trkpt lat="47.49805" lon="6.83283">
        <ele>328</ele>
        <time>2015-04-06T10:19:46.000Z</time>
      </trkpt>
      <trkpt lat="47.49807" lon="6.83287">
        <ele>328</ele>
        <time>2015-04-06T10:19:47.000Z</time>
      </trkpt>
      <trkpt lat="47.49808" lon="6.8329">
        <ele>328</ele>
        <time>2015-04-06T10:19:48.000Z</time>
      </trkpt>
      <trkpt lat="47.4981" lon="6.83294">
        <ele>328</ele>
        <time>2015-04-06T10:19:48.999Z</time>
      </trkpt>
      <trkpt lat="47.49812" lon="6.83297">
        <ele>328</ele>
        <time>2015-04-06T10:19:50.000Z</time>
      </trkpt>
      <trkpt lat="47.49813" lon="6.83301">
        <ele>328</ele>
        <time>2015-04-06T10:19:51.000Z</time>
      </trkpt>
      <trkpt lat="47.49815" lon="6.83304">
        <ele>328</ele>
        <time>2015-04-06T10:19:52.000Z</time>
      </trkpt>
      <trkpt lat="47.49817" lon="6.83308">
        <ele>327</ele>
        <time>2015-04-06T10:19:53.000Z</time>
      </trkpt>
      <trkpt lat="47.49819" lon="6.83311">
        <ele>328</ele>
        <time>2015-04-06T10:19:54.000Z</time>
      </trkpt>
      <trkpt lat="47.49821" lon="6.83314">
        <ele>328</ele>
        <time>2015-04-06T10:19:55.000Z</time>
      </trkpt>
      <trkpt lat="47.49833" lon="6.83317">
        <ele>328</ele>
        <time>2015-04-06T10:19:56.000Z</time>
      </trkpt>
      <trkpt lat="47.49837" lon="6.8332">
        <ele>329</ele>
        <time>2015-04-06T10:19:57.000Z</time>
      </trkpt>
      <trkpt lat="47.49842" lon="6.83323">
        <ele>329</ele>
        <time>2015-04-06T10:19:58.000Z</time>
      </trkpt>
      <trkpt lat="47.49846" lon="6.83326">
        <ele>329</ele>
        <time>2015-04-06T10:19:59.002Z</time>
      </trkpt>
      <trkpt lat="47.49852" lon="6.83328">
        <ele>330</ele>
        <time>2015-04-06T10:20:00.000Z</time>
      </trkpt>
      <trkpt lat="47.49856" lon="6.83327">
        <ele>330</ele>
        <time>2015-04-06T10:20:01.000Z</time>
      </trkpt>
      <trkpt lat="47.49859" lon="6.83328">
        <ele>330</ele>
        <time>2015-04-06T10:20:02.000Z</time>
      </trkpt>
      <trkpt lat="47.49864" lon="6.83329">
        <ele>330</ele>
        <time>2015-04-06T10:20:03.000Z</time>
      </trkpt>
      <trkpt lat="47.49867" lon="6.83332">
        <ele>330</ele>
        <time>2015-04-06T10:20:04.000Z</time>
      </trkpt>
      <trkpt lat="47.49872" lon="6.83337">
        <ele>330</ele>
        <time>2015-04-06T10:20:05.000Z</time>
      </trkpt>
      <trkpt lat="47.49879" lon="6.8334">
        <ele>330</ele>
        <time>2015-04-06T10:20:06.000Z</time>
      </trkpt>
      <trkpt lat="47.49888" lon="6.83342">
        <ele>330</ele>
        <time>2015-04-06T10:20:07.000Z</time>
      </trkpt>
      <trkpt lat="47.49894" lon="6.83345">
        <ele>331</ele>
        <time>2015-04-06T10:20:08.000Z</time>
      </trkpt>
      <trkpt lat="47.49899" lon="6.83349">
        <ele>331</ele>
        <time>2015-04-06T10:20:09.000Z</time>
      </trkpt>
      <trkpt lat="47.49904" lon="6.83351">
        <ele>331</ele>
        <time>2015-04-06T10:20:10.000Z</time>
      </trkpt>
      <trkpt lat="47.49907" lon="6.83353">
        <ele>331</ele>
        <time>2015-04-06T10:20:11.000Z</time>
      </trkpt>
      <trkpt lat="47.49914" lon="6.83354">
        <ele>331</ele>
        <time>2015-04-06T10:20:12.000Z</time>
      </trkpt>
      <trkpt lat="47.49919" lon="6.83355">
        <ele>332</ele>
        <time>2015-04-06T10:20:13.000Z</time>
      </trkpt>
      <trkpt lat="47.49925" lon="6.83356">
        <ele>332</ele>
        <time>2015-04-06T10:20:14.000Z</time>
      </trkpt>
      <trkpt lat="47.49931" lon="6.83357">
        <ele>332</ele>
        <time>2015-04-06T10:20:15.000Z</time>
      </trkpt>
      <trkpt lat="47.49937" lon="6.83357">
        <ele>332</ele>
        <time>2015-04-06T10:20:16.000Z</time>
      </trkpt>
      <trkpt lat="47.49943" lon="6.83356">
        <ele>332</ele>
        <time>2015-04-06T10:20:17.000Z</time>
      </trkpt>
      <trkpt lat="47.49948" lon="6.83356">
        <ele>332</ele>
        <time>2015-04-06T10:20:18.000Z</time>
      </trkpt>
      <trkpt lat="47.49953" lon="6.83357">
        <ele>332</ele>
        <time>2015-04-06T10:20:19.000Z</time>
      </trkpt>
      <trkpt lat="47.49959" lon="6.83358">
        <ele>332</ele>
        <time>2015-04-06T10:20:20.000Z</time>
      </trkpt>
      <trkpt lat="47.49964" lon="6.83359">
        <ele>331</ele>
        <time>2015-04-06T10:20:21.000Z</time>
      </trkpt>
      <trkpt lat="47.49969" lon="6.83359">
        <ele>331</ele>
        <time>2015-04-06T10:20:22.000Z</time>
      </trkpt>
      <trkpt lat="47.49975" lon="6.8336">
        <ele>331</ele>
        <time>2015-04-06T10:20:23.000Z</time>
      </trkpt>
      <trkpt lat="47.49981" lon="6.83361">
        <ele>331</ele>
        <time>2015-04-06T10:20:24.000Z</time>
      </trkpt>
      <trkpt lat="47.49986" lon="6.83362">
        <ele>331</ele>
        <time>2015-04-06T10:20:25.000Z</time>
      </trkpt>
      <trkpt lat="47.49991" lon="6.83362">
        <ele>331</ele>
        <time>2015-04-06T10:20:26.000Z</time>
      </trkpt>
      <trkpt lat="47.49997" lon="6.83362">
        <ele>331</ele>
        <time>2015-04-06T10:20:27.001Z</time>
      </trkpt>
      <trkpt lat="47.50002" lon="6.83363">
        <ele>328</ele>
        <time>2015-04-06T10:20:28.000Z</time>
      </trkpt>
      <trkpt lat="47.50009" lon="6.83362">
        <ele>328</ele>
        <time>2015-04-06T10:20:29.000Z</time>
      </trkpt>
      <trkpt lat="47.50015" lon="6.83363">
        <ele>328</ele>
        <time>2015-04-06T10:20:30.000Z</time>
      </trkpt>
      <trkpt lat="47.5002" lon="6.83363">
        <ele>328</ele>
        <time>2015-04-06T10:20:31.000Z</time>
      </trkpt>
      <trkpt lat="47.50026" lon="6.83365">
        <ele>328</ele>
        <time>2015-04-06T10:20:32.000Z</time>
      </trkpt>
      <trkpt lat="47.50032" lon="6.83367">
        <ele>328</ele>
        <time>2015-04-06T10:20:33.000Z</time>
      </trkpt>
      <trkpt lat="47.50038" lon="6.83368">
        <ele>328</ele>
        <time>2015-04-06T10:20:34.000Z</time>
      </trkpt>
      <trkpt lat="47.50044" lon="6.83368">
        <ele>327</ele>
        <time>2015-04-06T10:20:35.000Z</time>
      </trkpt>
      <trkpt lat="47.50047" lon="6.83367">
        <ele>327</ele>
        <time>2015-04-06T10:20:36.000Z</time>
      </trkpt>
      <trkpt lat="47.5005" lon="6.83367">
        <ele>327</ele>
        <time>2015-04-06T10:20:36.999Z</time>
      </trkpt>
      <trkpt lat="47.50058" lon="6.83369">
        <ele>327</ele>
        <time>2015-04-06T10:20:38.000Z</time>
      </trkpt>
      <trkpt lat="47.50064" lon="6.83368">
        <ele>327</ele>
        <time>2015-04-06T10:20:39.000Z</time>
      </trkpt>
      <trkpt lat="47.5007" lon="6.83369">
        <ele>327</ele>
        <time>2015-04-06T10:20:40.000Z</time>
      </trkpt>
      <trkpt lat="47.50077" lon="6.83371">
        <ele>326</ele>
        <time>2015-04-06T10:20:41.000Z</time>
      </trkpt>
      <trkpt lat="47.50084" lon="6.83371">
        <ele>324</ele>
        <time>2015-04-06T10:20:42.000Z</time>
      </trkpt>
      <trkpt lat="47.50091" lon="6.83373">
        <ele>324</ele>
        <time>2015-04-06T10:20:43.000Z</time>
      </trkpt>
      <trkpt lat="47.50096" lon="6.83375">
        <ele>324</ele>
        <time>2015-04-06T10:20:44.000Z</time>
      </trkpt>
      <trkpt lat="47.50102" lon="6.83377">
        <ele>324</ele>
        <time>2015-04-06T10:20:45.000Z</time>
      </trkpt>
      <trkpt lat="47.50107" lon="6.83377">
        <ele>324</ele>
        <time>2015-04-06T10:20:46.000Z</time>
      </trkpt>
      <trkpt lat="47.50113" lon="6.83378">
        <ele>324</ele>
        <time>2015-04-06T10:20:47.000Z</time>
      </trkpt>
      <trkpt lat="47.50119" lon="6.83379">
        <ele>324</ele>
        <time>2015-04-06T10:20:48.000Z</time>
      </trkpt>
      <trkpt lat="47.50124" lon="6.83381">
        <ele>324</ele>
        <time>2015-04-06T10:20:49.000Z</time>
      </trkpt>
      <trkpt lat="47.5013" lon="6.83381">
        <ele>324</ele>
        <time>2015-04-06T10:20:50.000Z</time>
      </trkpt>
      <trkpt lat="47.50138" lon="6.8338">
        <ele>323</ele>
        <time>2015-04-06T10:20:51.000Z</time>
      </trkpt>
      <trkpt lat="47.50144" lon="6.83378">
        <ele>323</ele>
        <time>2015-04-06T10:20:52.000Z</time>
      </trkpt>
      <trkpt lat="47.5015" lon="6.83378">
        <ele>323</ele>
        <time>2015-04-06T10:20:53.000Z</time>
      </trkpt>
      <trkpt lat="47.50156" lon="6.83377">
        <ele>323</ele>
        <time>2015-04-06T10:20:54.000Z</time>
      </trkpt>
      <trkpt lat="47.50164" lon="6.83382">
        <ele>323</ele>
        <time>2015-04-06T10:20:55.000Z</time>
      </trkpt>
      <trkpt lat="47.5017" lon="6.83382">
        <ele>322</ele>
        <time>2015-04-06T10:20:56.000Z</time>
      </trkpt>
      <trkpt lat="47.50176" lon="6.83384">
        <ele>322</ele>
        <time>2015-04-06T10:20:57.000Z</time>
      </trkpt>
      <trkpt lat="47.50183" lon="6.83384">
        <ele>322</ele>
        <time>2015-04-06T10:20:58.000Z</time>
      </trkpt>
      <trkpt lat="47.5019" lon="6.83385">
        <ele>322</ele>
        <time>2015-04-06T10:20:59.000Z</time>
      </trkpt>
      <trkpt lat="47.50197" lon="6.83385">
        <ele>322</ele>
        <time>2015-04-06T10:21:00.000Z</time>
      </trkpt>
      <trkpt lat="47.50204" lon="6.83385">
        <ele>322</ele>
        <time>2015-04-06T10:21:01.000Z</time>
      </trkpt>
      <trkpt lat="47.5021" lon="6.83385">
        <ele>322</ele>
        <time>2015-04-06T10:21:02.000Z</time>
      </trkpt>
      <trkpt lat="47.50217" lon="6.83386">
        <ele>322</ele>
        <time>2015-04-06T10:21:03.000Z</time>
      </trkpt>
      <trkpt lat="47.50223" lon="6.83389">
        <ele>322</ele>
        <time>2015-04-06T10:21:04.000Z</time>
      </trkpt>
      <trkpt lat="47.50228" lon="6.8339">
        <ele>322</ele>
        <time>2015-04-06T10:21:05.000Z</time>
      </trkpt>
      <trkpt lat="47.50234" lon="6.83391">
        <ele>322</ele>
        <time>2015-04-06T10:21:06.000Z</time>
      </trkpt>
      <trkpt lat="47.50241" lon="6.83394">
        <ele>322</ele>
        <time>2015-04-06T10:21:07.000Z</time>
      </trkpt>
      <trkpt lat="47.50247" lon="6.83392">
        <ele>322</ele>
        <time>2015-04-06T10:21:08.000Z</time>
      </trkpt>
      <trkpt lat="47.50251" lon="6.83392">
        <ele>321</ele>
        <time>2015-04-06T10:21:09.000Z</time>
      </trkpt>
      <trkpt lat="47.50256" lon="6.83393">
        <ele>321</ele>
        <time>2015-04-06T10:21:10.000Z</time>
      </trkpt>
      <trkpt lat="47.50262" lon="6.83392">
        <ele>321</ele>
        <time>2015-04-06T10:21:11.000Z</time>
      </trkpt>
      <trkpt lat="47.50268" lon="6.8339">
        <ele>321</ele>
        <time>2015-04-06T10:21:12.000Z</time>
      </trkpt>
      <trkpt lat="47.50272" lon="6.83387">
        <ele>321</ele>
        <time>2015-04-06T10:21:13.000Z</time>
      </trkpt>
      <trkpt lat="47.5028" lon="6.83384">
        <ele>320</ele>
        <time>2015-04-06T10:21:14.000Z</time>
      </trkpt>
      <trkpt lat="47.50286" lon="6.83382">
        <ele>320</ele>
        <time>2015-04-06T10:21:15.000Z</time>
      </trkpt>
      <trkpt lat="47.5029" lon="6.8338">
        <ele>320</ele>
        <time>2015-04-06T10:21:16.000Z</time>
      </trkpt>
      <trkpt lat="47.50296" lon="6.83377">
        <ele>320</ele>
        <time>2015-04-06T10:21:17.000Z</time>
      </trkpt>
      <trkpt lat="47.50303" lon="6.83375">
        <ele>320</ele>
        <time>2015-04-06T10:21:18.000Z</time>
      </trkpt>
      <trkpt lat="47.50308" lon="6.83373">
        <ele>320</ele>
        <time>2015-04-06T10:21:19.000Z</time>
      </trkpt>
      <trkpt lat="47.50312" lon="6.83374">
        <ele>320</ele>
        <time>2015-04-06T10:21:20.000Z</time>
      </trkpt>
      <trkpt lat="47.50318" lon="6.83373">
        <ele>320</ele>
        <time>2015-04-06T10:21:21.000Z</time>
      </trkpt>
      <trkpt lat="47.50322" lon="6.83372">
        <ele>320</ele>
        <time>2015-04-06T10:21:22.000Z</time>
      </trkpt>
      <trkpt lat="47.50329" lon="6.83374">
        <ele>320</ele>
        <time>2015-04-06T10:21:23.000Z</time>
      </trkpt>
      <trkpt lat="47.50335" lon="6.83373">
        <ele>319</ele>
        <time>2015-04-06T10:21:24.000Z</time>
      </trkpt>
      <trkpt lat="47.50339" lon="6.83372">
        <ele>319</ele>
        <time>2015-04-06T10:21:25.000Z</time>
      </trkpt>
      <trkpt lat="47.50346" lon="6.83372">
        <ele>319</ele>
        <time>2015-04-06T10:21:26.000Z</time>
      </trkpt>
      <trkpt lat="47.50351" lon="6.83371">
        <ele>319</ele>
        <time>2015-04-06T10:21:27.000Z</time>
      </trkpt>
      <trkpt lat="47.50356" lon="6.8337">
        <ele>319</ele>
        <time>2015-04-06T10:21:28.000Z</time>
      </trkpt>
      <trkpt lat="47.50364" lon="6.83368">
        <ele>319</ele>
        <time>2015-04-06T10:21:29.000Z</time>
      </trkpt>
      <trkpt lat="47.50369" lon="6.83368">
        <ele>319</ele>
        <time>2015-04-06T10:21:30.000Z</time>
      </trkpt>
      <trkpt lat="47.50371" lon="6.83365">
        <ele>319</ele>
        <time>2015-04-06T10:21:31.000Z</time>
      </trkpt>
      <trkpt lat="47.50376" lon="6.83363">
        <ele>319</ele>
        <time>2015-04-06T10:21:32.000Z</time>
      </trkpt>
      <trkpt lat="47.50381" lon="6.83362">
        <ele>319</ele>
        <time>2015-04-06T10:21:33.000Z</time>
      </trkpt>
      <trkpt lat="47.50385" lon="6.83364">
        <ele>319</ele>
        <time>2015-04-06T10:21:34.000Z</time>
      </trkpt>
      <trkpt lat="47.50388" lon="6.83362">
        <ele>319</ele>
        <time>2015-04-06T10:21:35.000Z</time>
      </trkpt>
      <trkpt lat="47.50395" lon="6.83364">
        <ele>319</ele>
        <time>2015-04-06T10:21:36.000Z</time>
      </trkpt>
      <trkpt lat="47.50398" lon="6.83363">
        <ele>319</ele>
        <time>2015-04-06T10:21:37.000Z</time>
      </trkpt>
      <trkpt lat="47.50402" lon="6.83361">
        <ele>319</ele>
        <time>2015-04-06T10:21:38.000Z</time>
      </trkpt>
      <trkpt lat="47.50404" lon="6.83359">
        <ele>319</ele>
        <time>2015-04-06T10:21:39.000Z</time>
      </trkpt>
      <trkpt lat="47.50408" lon="6.83358">
        <ele>319</ele>
        <time>2015-04-06T10:21:40.000Z</time>
      </trkpt>
      <trkpt lat="47.50413" lon="6.83354">
        <ele>319</ele>
        <time>2015-04-06T10:21:41.000Z</time>
      </trkpt>
      <trkpt lat="47.50419" lon="6.83352">
        <ele>318</ele>
        <time>2015-04-06T10:21:42.000Z</time>
      </trkpt>
      <trkpt lat="47.50425" lon="6.83349">
        <ele>318</ele>
        <time>2015-04-06T10:21:43.000Z</time>
      </trkpt>
      <trkpt lat="47.50431" lon="6.83346">
        <ele>318</ele>
        <time>2015-04-06T10:21:44.000Z</time>
      </trkpt>
      <trkpt lat="47.50434" lon="6.83339">
        <ele>318</ele>
        <time>2015-04-06T10:21:45.000Z</time>
      </trkpt>
      <trkpt lat="47.50436" lon="6.83334">
        <ele>318</ele>
        <time>2015-04-06T10:21:46.000Z</time>
      </trkpt>
      <trkpt lat="47.5044" lon="6.83328">
        <ele>318</ele>
        <time>2015-04-06T10:21:47.000Z</time>
      </trkpt>
      <trkpt lat="47.50445" lon="6.83322">
        <ele>318</ele>
        <time>2015-04-06T10:21:48.000Z</time>
      </trkpt>
      <trkpt lat="47.50448" lon="6.83315">
        <ele>318</ele>
        <time>2015-04-06T10:21:49.000Z</time>
      </trkpt>
      <trkpt lat="47.5045" lon="6.83311">
        <ele>318</ele>
        <time>2015-04-06T10:21:50.000Z</time>
      </trkpt>
      <trkpt lat="47.50452" lon="6.83306">
        <ele>318</ele>
        <time>2015-04-06T10:21:51.000Z</time>
      </trkpt>
      <trkpt lat="47.50449" lon="6.833">
        <ele>318</ele>
        <time>2015-04-06T10:21:52.000Z</time>
      </trkpt>
      <trkpt lat="47.50447" lon="6.83294">
        <ele>318</ele>
        <time>2015-04-06T10:21:53.000Z</time>
      </trkpt>
      <trkpt lat="47.50444" lon="6.83286">
        <ele>318</ele>
        <time>2015-04-06T10:21:54.000Z</time>
      </trkpt>
      <trkpt lat="47.50442" lon="6.83277">
        <ele>318</ele>
        <time>2015-04-06T10:21:55.000Z</time>
      </trkpt>
      <trkpt lat="47.50439" lon="6.83266">
        <ele>318</ele>
        <time>2015-04-06T10:21:56.000Z</time>
      </trkpt>
      <trkpt lat="47.50438" lon="6.83256">
        <ele>318</ele>
        <time>2015-04-06T10:21:57.000Z</time>
      </trkpt>
      <trkpt lat="47.50437" lon="6.83245">
        <ele>318</ele>
        <time>2015-04-06T10:21:58.000Z</time>
      </trkpt>
      <trkpt lat="47.50435" lon="6.8324">
        <ele>318</ele>
        <time>2015-04-06T10:21:59.000Z</time>
      </trkpt>
      <trkpt lat="47.50434" lon="6.83228">
        <ele>318</ele>
        <time>2015-04-06T10:22:00.000Z</time>
      </trkpt>
      <trkpt lat="47.5043" lon="6.83217">
        <ele>318</ele>
        <time>2015-04-06T10:22:01.000Z</time>
      </trkpt>
      <trkpt lat="47.50431" lon="6.83209">
        <ele>318</ele>
        <time>2015-04-06T10:22:02.000Z</time>
      </trkpt>
      <trkpt lat="47.5043" lon="6.83201">
        <ele>318</ele>
        <time>2015-04-06T10:22:03.000Z</time>
      </trkpt>
      <trkpt lat="47.50427" lon="6.83192">
        <ele>318</ele>
        <time>2015-04-06T10:22:04.000Z</time>
      </trkpt>
      <trkpt lat="47.50423" lon="6.83182">
        <ele>318</ele>
        <time>2015-04-06T10:22:05.000Z</time>
      </trkpt>
      <trkpt lat="47.50422" lon="6.83176">
        <ele>318</ele>
        <time>2015-04-06T10:22:06.000Z</time>
      </trkpt>
      <trkpt lat="47.50423" lon="6.83174">
        <ele>318</ele>
        <time>2015-04-06T10:22:07.000Z</time>
      </trkpt>
      <trkpt lat="47.50419" lon="6.83163">
        <ele>318</ele>
        <time>2015-04-06T10:22:08.000Z</time>
      </trkpt>
      <trkpt lat="47.50418" lon="6.83155">
        <ele>318</ele>
        <time>2015-04-06T10:22:09.000Z</time>
      </trkpt>
      <trkpt lat="47.50418" lon="6.83146">
        <ele>318</ele>
        <time>2015-04-06T10:22:10.000Z</time>
      </trkpt>
      <trkpt lat="47.50418" lon="6.83138">
        <ele>318</ele>
        <time>2015-04-06T10:22:11.000Z</time>
      </trkpt>
      <trkpt lat="47.50416" lon="6.83129">
        <ele>318</ele>
        <time>2015-04-06T10:22:12.000Z</time>
      </trkpt>
      <trkpt lat="47.50417" lon="6.83124">
        <ele>318</ele>
        <time>2015-04-06T10:22:13.000Z</time>
      </trkpt>
      <trkpt lat="47.50417" lon="6.83118">
        <ele>318</ele>
        <time>2015-04-06T10:22:14.000Z</time>
      </trkpt>
      <trkpt lat="47.50416" lon="6.8311">
        <ele>318</ele>
        <time>2015-04-06T10:22:15.000Z</time>
      </trkpt>
      <trkpt lat="47.50414" lon="6.83102">
        <ele>318</ele>
        <time>2015-04-06T10:22:16.000Z</time>
      </trkpt>
      <trkpt lat="47.50412" lon="6.83093">
        <ele>318</ele>
        <time>2015-04-06T10:22:17.000Z</time>
      </trkpt>
      <trkpt lat="47.50412" lon="6.83086">
        <ele>318</ele>
        <time>2015-04-06T10:22:18.000Z</time>
      </trkpt>
      <trkpt lat="47.50409" lon="6.83078">
        <ele>318</ele>
        <time>2015-04-06T10:22:19.000Z</time>
      </trkpt>
      <trkpt lat="47.50409" lon="6.8307">
        <ele>318</ele>
        <time>2015-04-06T10:22:20.000Z</time>
      </trkpt>
      <trkpt lat="47.50407" lon="6.83062">
        <ele>318</ele>
        <time>2015-04-06T10:22:21.000Z</time>
      </trkpt>
      <trkpt lat="47.50407" lon="6.83055">
        <ele>318</ele>
        <time>2015-04-06T10:22:22.000Z</time>
      </trkpt>
      <trkpt lat="47.50403" lon="6.83047">
        <ele>318</ele>
        <time>2015-04-06T10:22:23.000Z</time>
      </trkpt>
      <trkpt lat="47.50399" lon="6.8304">
        <ele>318</ele>
        <time>2015-04-06T10:22:24.000Z</time>
      </trkpt>
      <trkpt lat="47.50399" lon="6.8303">
        <ele>318</ele>
        <time>2015-04-06T10:22:25.000Z</time>
      </trkpt>
      <trkpt lat="47.50397" lon="6.8302">
        <ele>318</ele>
        <time>2015-04-06T10:22:26.000Z</time>
      </trkpt>
      <trkpt lat="47.50397" lon="6.83013">
        <ele>318</ele>
        <time>2015-04-06T10:22:27.000Z</time>
      </trkpt>
      <trkpt lat="47.50394" lon="6.83">
        <ele>318</ele>
        <time>2015-04-06T10:22:28.000Z</time>
      </trkpt>
      <trkpt lat="47.50393" lon="6.82987">
        <ele>318</ele>
        <time>2015-04-06T10:22:29.000Z</time>
      </trkpt>
      <trkpt lat="47.5039" lon="6.82973">
        <ele>318</ele>
        <time>2015-04-06T10:22:30.000Z</time>
      </trkpt>
      <trkpt lat="47.50391" lon="6.82963">
        <ele>318</ele>
        <time>2015-04-06T10:22:31.000Z</time>
      </trkpt>
      <trkpt lat="47.5039" lon="6.82952">
        <ele>318</ele>
        <time>2015-04-06T10:22:32.000Z</time>
      </trkpt>
      <trkpt lat="47.50388" lon="6.82944">
        <ele>318</ele>
        <time>2015-04-06T10:22:33.000Z</time>
      </trkpt>
      <trkpt lat="47.50385" lon="6.82933">
        <ele>318</ele>
        <time>2015-04-06T10:22:34.000Z</time>
      </trkpt>
      <trkpt lat="47.50385" lon="6.82924">
        <ele>318</ele>
        <time>2015-04-06T10:22:35.000Z</time>
      </trkpt>
      <trkpt lat="47.50381" lon="6.82912">
        <ele>318</ele>
        <time>2015-04-06T10:22:36.000Z</time>
      </trkpt>
      <trkpt lat="47.50381" lon="6.82901">
        <ele>318</ele>
        <time>2015-04-06T10:22:37.000Z</time>
      </trkpt>
      <trkpt lat="47.50381" lon="6.82891">
        <ele>318</ele>
        <time>2015-04-06T10:22:38.000Z</time>
      </trkpt>
      <trkpt lat="47.50377" lon="6.82879">
        <ele>318</ele>
        <time>2015-04-06T10:22:39.000Z</time>
      </trkpt>
      <trkpt lat="47.50375" lon="6.8287">
        <ele>318</ele>
        <time>2015-04-06T10:22:40.000Z</time>
      </trkpt>
      <trkpt lat="47.50372" lon="6.82862">
        <ele>318</ele>
        <time>2015-04-06T10:22:41.000Z</time>
      </trkpt>
      <trkpt lat="47.5037" lon="6.82851">
        <ele>318</ele>
        <time>2015-04-06T10:22:42.000Z</time>
      </trkpt>
      <trkpt lat="47.50367" lon="6.82839">
        <ele>318</ele>
        <time>2015-04-06T10:22:43.000Z</time>
      </trkpt>
      <trkpt lat="47.50363" lon="6.8283">
        <ele>318</ele>
        <time>2015-04-06T10:22:44.000Z</time>
      </trkpt>
      <trkpt lat="47.50363" lon="6.8282">
        <ele>319</ele>
        <time>2015-04-06T10:22:45.000Z</time>
      </trkpt>
      <trkpt lat="47.50361" lon="6.82811">
        <ele>319</ele>
        <time>2015-04-06T10:22:46.000Z</time>
      </trkpt>
      <trkpt lat="47.50358" lon="6.82802">
        <ele>319</ele>
        <time>2015-04-06T10:22:47.000Z</time>
      </trkpt>
      <trkpt lat="47.50357" lon="6.82793">
        <ele>319</ele>
        <time>2015-04-06T10:22:48.000Z</time>
      </trkpt>
      <trkpt lat="47.50354" lon="6.82782">
        <ele>319</ele>
        <time>2015-04-06T10:22:49.000Z</time>
      </trkpt>
      <trkpt lat="47.50352" lon="6.82771">
        <ele>319</ele>
        <time>2015-04-06T10:22:50.000Z</time>
      </trkpt>
      <trkpt lat="47.50352" lon="6.82764">
        <ele>319</ele>
        <time>2015-04-06T10:22:51.000Z</time>
      </trkpt>
      <trkpt lat="47.5035" lon="6.82754">
        <ele>319</ele>
        <time>2015-04-06T10:22:52.000Z</time>
      </trkpt>
      <trkpt lat="47.5035" lon="6.8275">
        <ele>319</ele>
        <time>2015-04-06T10:22:53.000Z</time>
      </trkpt>
      <trkpt lat="47.50351" lon="6.8274">
        <ele>319</ele>
        <time>2015-04-06T10:22:54.000Z</time>
      </trkpt>
      <trkpt lat="47.50353" lon="6.82731">
        <ele>319</ele>
        <time>2015-04-06T10:22:55.000Z</time>
      </trkpt>
      <trkpt lat="47.50351" lon="6.82719">
        <ele>319</ele>
        <time>2015-04-06T10:22:56.000Z</time>
      </trkpt>
      <trkpt lat="47.5035" lon="6.82706">
        <ele>319</ele>
        <time>2015-04-06T10:22:57.000Z</time>
      </trkpt>
      <trkpt lat="47.50351" lon="6.82701">
        <ele>319</ele>
        <time>2015-04-06T10:22:58.000Z</time>
      </trkpt>
      <trkpt lat="47.50351" lon="6.8269">
        <ele>318</ele>
        <time>2015-04-06T10:22:59.000Z</time>
      </trkpt>
      <trkpt lat="47.50352" lon="6.82681">
        <ele>318</ele>
        <time>2015-04-06T10:23:00.000Z</time>
      </trkpt>
      <trkpt lat="47.5035" lon="6.82668">
        <ele>318</ele>
        <time>2015-04-06T10:23:01.000Z</time>
      </trkpt>
      <trkpt lat="47.50352" lon="6.82661">
        <ele>318</ele>
        <time>2015-04-06T10:23:02.000Z</time>
      </trkpt>
      <trkpt lat="47.5035" lon="6.82652">
        <ele>318</ele>
        <time>2015-04-06T10:23:03.000Z</time>
      </trkpt>
      <trkpt lat="47.50348" lon="6.82643">
        <ele>318</ele>
        <time>2015-04-06T10:23:04.000Z</time>
      </trkpt>
      <trkpt lat="47.50347" lon="6.82634">
        <ele>317</ele>
        <time>2015-04-06T10:23:05.000Z</time>
      </trkpt>
      <trkpt lat="47.50346" lon="6.82624">
        <ele>317</ele>
        <time>2015-04-06T10:23:06.000Z</time>
      </trkpt>
      <trkpt lat="47.50346" lon="6.82612">
        <ele>317</ele>
        <time>2015-04-06T10:23:07.000Z</time>
      </trkpt>
      <trkpt lat="47.50348" lon="6.82604">
        <ele>318</ele>
        <time>2015-04-06T10:23:08.000Z</time>
      </trkpt>
      <trkpt lat="47.50351" lon="6.82595">
        <ele>318</ele>
        <time>2015-04-06T10:23:09.000Z</time>
      </trkpt>
      <trkpt lat="47.50353" lon="6.82589">
        <ele>318</ele>
        <time>2015-04-06T10:23:10.000Z</time>
      </trkpt>
      <trkpt lat="47.50353" lon="6.82578">
        <ele>317</ele>
        <time>2015-04-06T10:23:11.000Z</time>
      </trkpt>
      <trkpt lat="47.50353" lon="6.82569">
        <ele>317</ele>
        <time>2015-04-06T10:23:12.000Z</time>
      </trkpt>
      <trkpt lat="47.50354" lon="6.82559">
        <ele>317</ele>
        <time>2015-04-06T10:23:13.000Z</time>
      </trkpt>
      <trkpt lat="47.50359" lon="6.82551">
        <ele>317</ele>
        <time>2015-04-06T10:23:14.000Z</time>
      </trkpt>
      <trkpt lat="47.50362" lon="6.8254">
        <ele>317</ele>
        <time>2015-04-06T10:23:15.000Z</time>
      </trkpt>
      <trkpt lat="47.50365" lon="6.82532">
        <ele>317</ele>
        <time>2015-04-06T10:23:16.000Z</time>
      </trkpt>
      <trkpt lat="47.50366" lon="6.82532">
        <ele>317</ele>
        <time>2015-04-06T10:23:17.000Z</time>
      </trkpt>
      <trkpt lat="47.5037" lon="6.82526">
        <ele>317</ele>
        <time>2015-04-06T10:23:18.000Z</time>
      </trkpt>
      <trkpt lat="47.50373" lon="6.82523">
        <ele>316</ele>
        <time>2015-04-06T10:23:19.000Z</time>
      </trkpt>
      <trkpt lat="47.5036" lon="6.8251">
        <ele>317</ele>
        <time>2015-04-06T10:23:20.000Z</time>
      </trkpt>
      <trkpt lat="47.50354" lon="6.82502">
        <ele>317</ele>
        <time>2015-04-06T10:23:21.000Z</time>
      </trkpt>
      <trkpt lat="47.50348" lon="6.82495">
        <ele>317</ele>
        <time>2015-04-06T10:23:22.001Z</time>
      </trkpt>
      <trkpt lat="47.50342" lon="6.82489">
        <ele>317</ele>
        <time>2015-04-06T10:23:23.000Z</time>
      </trkpt>
      <trkpt lat="47.50341" lon="6.82482">
        <ele>317</ele>
        <time>2015-04-06T10:23:24.000Z</time>
      </trkpt>
      <trkpt lat="47.50339" lon="6.82475">
        <ele>316</ele>
        <time>2015-04-06T10:23:25.000Z</time>
      </trkpt>
      <trkpt lat="47.50342" lon="6.82477">
        <ele>316</ele>
        <time>2015-04-06T10:23:26.000Z</time>
      </trkpt>
      <trkpt lat="47.50346" lon="6.82478">
        <ele>316</ele>
        <time>2015-04-06T10:23:27.000Z</time>
      </trkpt>
      <trkpt lat="47.50348" lon="6.82474">
        <ele>316</ele>
        <time>2015-04-06T10:23:28.000Z</time>
      </trkpt>
      <trkpt lat="47.50346" lon="6.82471">
        <ele>316</ele>
        <time>2015-04-06T10:23:29.000Z</time>
      </trkpt>
      <trkpt lat="47.50347" lon="6.82466">
        <ele>316</ele>
        <time>2015-04-06T10:23:30.000Z</time>
      </trkpt>
      <trkpt lat="47.50349" lon="6.82458">
        <ele>316</ele>
        <time>2015-04-06T10:23:31.000Z</time>
      </trkpt>
      <trkpt lat="47.50352" lon="6.8245">
        <ele>316</ele>
        <time>2015-04-06T10:23:32.000Z</time>
      </trkpt>
      <trkpt lat="47.50357" lon="6.82441">
        <ele>315</ele>
        <time>2015-04-06T10:23:33.000Z</time>
      </trkpt>
      <trkpt lat="47.5036" lon="6.82433">
        <ele>315</ele>
        <time>2015-04-06T10:23:34.000Z</time>
      </trkpt>
      <trkpt lat="47.5036" lon="6.82426">
        <ele>315</ele>
        <time>2015-04-06T10:23:35.000Z</time>
      </trkpt>
      <trkpt lat="47.50357" lon="6.82419">
        <ele>315</ele>
        <time>2015-04-06T10:23:36.000Z</time>
      </trkpt>
      <trkpt lat="47.50354" lon="6.82411">
        <ele>316</ele>
        <time>2015-04-06T10:23:37.000Z</time>
      </trkpt>
      <trkpt lat="47.50351" lon="6.82404">
        <ele>316</ele>
        <time>2015-04-06T10:23:38.000Z</time>
      </trkpt>
      <trkpt lat="47.5035" lon="6.82397">
        <ele>316</ele>
        <time>2015-04-06T10:23:39.000Z</time>
      </trkpt>
      <trkpt lat="47.5035" lon="6.82387">
        <ele>317</ele>
        <time>2015-04-06T10:23:40.000Z</time>
      </trkpt>
      <trkpt lat="47.50349" lon="6.82378">
        <ele>317</ele>
        <time>2015-04-06T10:23:41.000Z</time>
      </trkpt>
      <trkpt lat="47.50349" lon="6.82369">
        <ele>317</ele>
        <time>2015-04-06T10:23:42.000Z</time>
      </trkpt>
      <trkpt lat="47.50349" lon="6.82357">
        <ele>317</ele>
        <time>2015-04-06T10:23:43.000Z</time>
      </trkpt>
      <trkpt lat="47.5035" lon="6.82349">
        <ele>318</ele>
        <time>2015-04-06T10:23:44.000Z</time>
      </trkpt>
      <trkpt lat="47.50349" lon="6.8234">
        <ele>318</ele>
        <time>2015-04-06T10:23:45.000Z</time>
      </trkpt>
      <trkpt lat="47.5035" lon="6.82332">
        <ele>319</ele>
        <time>2015-04-06T10:23:46.000Z</time>
      </trkpt>
      <trkpt lat="47.5035" lon="6.82323">
        <ele>319</ele>
        <time>2015-04-06T10:23:47.000Z</time>
      </trkpt>
      <trkpt lat="47.50351" lon="6.82313">
        <ele>319</ele>
        <time>2015-04-06T10:23:48.000Z</time>
      </trkpt>
      <trkpt lat="47.50353" lon="6.82305">
        <ele>319</ele>
        <time>2015-04-06T10:23:49.000Z</time>
      </trkpt>
      <trkpt lat="47.50358" lon="6.82297">
        <ele>319</ele>
        <time>2015-04-06T10:23:50.000Z</time>
      </trkpt>
      <trkpt lat="47.5036" lon="6.82289">
        <ele>319</ele>
        <time>2015-04-06T10:23:51.000Z</time>
      </trkpt>
      <trkpt lat="47.50362" lon="6.82283">
        <ele>319</ele>
        <time>2015-04-06T10:23:52.000Z</time>
      </trkpt>
      <trkpt lat="47.50361" lon="6.82274">
        <ele>319</ele>
        <time>2015-04-06T10:23:53.000Z</time>
      </trkpt>
      <trkpt lat="47.50362" lon="6.82267">
        <ele>319</ele>
        <time>2015-04-06T10:23:54.000Z</time>
      </trkpt>
      <trkpt lat="47.5036" lon="6.82254">
        <ele>319</ele>
        <time>2015-04-06T10:23:55.000Z</time>
      </trkpt>
      <trkpt lat="47.50362" lon="6.82245">
        <ele>319</ele>
        <time>2015-04-06T10:23:56.000Z</time>
      </trkpt>
      <trkpt lat="47.50363" lon="6.82236">
        <ele>319</ele>
        <time>2015-04-06T10:23:57.000Z</time>
      </trkpt>
      <trkpt lat="47.50363" lon="6.82225">
        <ele>319</ele>
        <time>2015-04-06T10:23:58.000Z</time>
      </trkpt>
      <trkpt lat="47.50365" lon="6.82215">
        <ele>319</ele>
        <time>2015-04-06T10:23:59.000Z</time>
      </trkpt>
      <trkpt lat="47.50367" lon="6.82207">
        <ele>319</ele>
        <time>2015-04-06T10:24:00.000Z</time>
      </trkpt>
      <trkpt lat="47.50367" lon="6.82197">
        <ele>319</ele>
        <time>2015-04-06T10:24:01.000Z</time>
      </trkpt>
      <trkpt lat="47.50365" lon="6.82186">
        <ele>319</ele>
        <time>2015-04-06T10:24:02.000Z</time>
      </trkpt>
      <trkpt lat="47.50365" lon="6.82174">
        <ele>318</ele>
        <time>2015-04-06T10:24:03.000Z</time>
      </trkpt>
      <trkpt lat="47.50365" lon="6.82164">
        <ele>317</ele>
        <time>2015-04-06T10:24:04.000Z</time>
      </trkpt>
      <trkpt lat="47.50364" lon="6.82153">
        <ele>317</ele>
        <time>2015-04-06T10:24:05.000Z</time>
      </trkpt>
      <trkpt lat="47.50365" lon="6.82145">
        <ele>317</ele>
        <time>2015-04-06T10:24:06.000Z</time>
      </trkpt>
      <trkpt lat="47.50365" lon="6.82135">
        <ele>317</ele>
        <time>2015-04-06T10:24:07.000Z</time>
      </trkpt>
      <trkpt lat="47.50367" lon="6.82127">
        <ele>317</ele>
        <time>2015-04-06T10:24:08.000Z</time>
      </trkpt>
      <trkpt lat="47.50369" lon="6.82118">
        <ele>317</ele>
        <time>2015-04-06T10:24:09.000Z</time>
      </trkpt>
      <trkpt lat="47.50371" lon="6.82109">
        <ele>317</ele>
        <time>2015-04-06T10:24:10.000Z</time>
      </trkpt>
      <trkpt lat="47.50371" lon="6.821">
        <ele>317</ele>
        <time>2015-04-06T10:24:11.000Z</time>
      </trkpt>
      <trkpt lat="47.50372" lon="6.82092">
        <ele>317</ele>
        <time>2015-04-06T10:24:12.000Z</time>
      </trkpt>
      <trkpt lat="47.50374" lon="6.82082">
        <ele>317</ele>
        <time>2015-04-06T10:24:13.000Z</time>
      </trkpt>
      <trkpt lat="47.50376" lon="6.8207">
        <ele>316</ele>
        <time>2015-04-06T10:24:14.000Z</time>
      </trkpt>
      <trkpt lat="47.50378" lon="6.82063">
        <ele>316</ele>
        <time>2015-04-06T10:24:15.000Z</time>
      </trkpt>
      <trkpt lat="47.50377" lon="6.82054">
        <ele>316</ele>
        <time>2015-04-06T10:24:16.000Z</time>
      </trkpt>
      <trkpt lat="47.50378" lon="6.82043">
        <ele>316</ele>
        <time>2015-04-06T10:24:17.000Z</time>
      </trkpt>
      <trkpt lat="47.50381" lon="6.82031">
        <ele>316</ele>
        <time>2015-04-06T10:24:18.000Z</time>
      </trkpt>
      <trkpt lat="47.50382" lon="6.82022">
        <ele>316</ele>
        <time>2015-04-06T10:24:19.000Z</time>
      </trkpt>
      <trkpt lat="47.50381" lon="6.82012">
        <ele>316</ele>
        <time>2015-04-06T10:24:20.000Z</time>
      </trkpt>
      <trkpt lat="47.50382" lon="6.82001">
        <ele>316</ele>
        <time>2015-04-06T10:24:21.000Z</time>
      </trkpt>
      <trkpt lat="47.50384" lon="6.81993">
        <ele>316</ele>
        <time>2015-04-06T10:24:22.000Z</time>
      </trkpt>
      <trkpt lat="47.50385" lon="6.81985">
        <ele>316</ele>
        <time>2015-04-06T10:24:23.000Z</time>
      </trkpt>
      <trkpt lat="47.50385" lon="6.81974">
        <ele>316</ele>
        <time>2015-04-06T10:24:24.000Z</time>
      </trkpt>
      <trkpt lat="47.50384" lon="6.81963">
        <ele>317</ele>
        <time>2015-04-06T10:24:25.000Z</time>
      </trkpt>
      <trkpt lat="47.50384" lon="6.81952">
        <ele>317</ele>
        <time>2015-04-06T10:24:26.000Z</time>
      </trkpt>
      <trkpt lat="47.50385" lon="6.81941">
        <ele>317</ele>
        <time>2015-04-06T10:24:27.000Z</time>
      </trkpt>
      <trkpt lat="47.50386" lon="6.81931">
        <ele>317</ele>
        <time>2015-04-06T10:24:28.000Z</time>
      </trkpt>
      <trkpt lat="47.50385" lon="6.81919">
        <ele>317</ele>
        <time>2015-04-06T10:24:29.000Z</time>
      </trkpt>
      <trkpt lat="47.50385" lon="6.81909">
        <ele>318</ele>
        <time>2015-04-06T10:24:30.000Z</time>
      </trkpt>
      <trkpt lat="47.50385" lon="6.81901">
        <ele>318</ele>
        <time>2015-04-06T10:24:31.000Z</time>
      </trkpt>
      <trkpt lat="47.50389" lon="6.81894">
        <ele>318</ele>
        <time>2015-04-06T10:24:32.000Z</time>
      </trkpt>
      <trkpt lat="47.5039" lon="6.81887">
        <ele>318</ele>
        <time>2015-04-06T10:24:33.000Z</time>
      </trkpt>
      <trkpt lat="47.50387" lon="6.81874">
        <ele>318</ele>
        <time>2015-04-06T10:24:34.000Z</time>
      </trkpt>
      <trkpt lat="47.50385" lon="6.81861">
        <ele>319</ele>
        <time>2015-04-06T10:24:35.000Z</time>
      </trkpt>
      <trkpt lat="47.50386" lon="6.81854">
        <ele>319</ele>
        <time>2015-04-06T10:24:36.000Z</time>
      </trkpt>
      <trkpt lat="47.50387" lon="6.81847">
        <ele>319</ele>
        <time>2015-04-06T10:24:37.000Z</time>
      </trkpt>
      <trkpt lat="47.50389" lon="6.8184">
        <ele>319</ele>
        <time>2015-04-06T10:24:38.000Z</time>
      </trkpt>
      <trkpt lat="47.50387" lon="6.81829">
        <ele>319</ele>
        <time>2015-04-06T10:24:39.000Z</time>
      </trkpt>
      <trkpt lat="47.50387" lon="6.81818">
        <ele>319</ele>
        <time>2015-04-06T10:24:40.000Z</time>
      </trkpt>
      <trkpt lat="47.50387" lon="6.81809">
        <ele>319</ele>
        <time>2015-04-06T10:24:41.000Z</time>
      </trkpt>
      <trkpt lat="47.50388" lon="6.81801">
        <ele>319</ele>
        <time>2015-04-06T10:24:42.000Z</time>
      </trkpt>
      <trkpt lat="47.50387" lon="6.81789">
        <ele>319</ele>
        <time>2015-04-06T10:24:43.000Z</time>
      </trkpt>
      <trkpt lat="47.50386" lon="6.81776">
        <ele>319</ele>
        <time>2015-04-06T10:24:44.000Z</time>
      </trkpt>
      <trkpt lat="47.50387" lon="6.81767">
        <ele>319</ele>
        <time>2015-04-06T10:24:45.000Z</time>
      </trkpt>
      <trkpt lat="47.50386" lon="6.81757">
        <ele>319</ele>
        <time>2015-04-06T10:24:46.000Z</time>
      </trkpt>
      <trkpt lat="47.50388" lon="6.81747">
        <ele>318</ele>
        <time>2015-04-06T10:24:47.000Z</time>
      </trkpt>
      <trkpt lat="47.50389" lon="6.81736">
        <ele>318</ele>
        <time>2015-04-06T10:24:48.000Z</time>
      </trkpt>
      <trkpt lat="47.50391" lon="6.8172">
        <ele>319</ele>
        <time>2015-04-06T10:24:49.000Z</time>
      </trkpt>
      <trkpt lat="47.5039" lon="6.81709">
        <ele>319</ele>
        <time>2015-04-06T10:24:50.000Z</time>
      </trkpt>
      <trkpt lat="47.5039" lon="6.817">
        <ele>319</ele>
        <time>2015-04-06T10:24:51.000Z</time>
      </trkpt>
      <trkpt lat="47.50395" lon="6.81696">
        <ele>319</ele>
        <time>2015-04-06T10:24:52.000Z</time>
      </trkpt>
      <trkpt lat="47.50395" lon="6.81686">
        <ele>318</ele>
        <time>2015-04-06T10:24:53.000Z</time>
      </trkpt>
      <trkpt lat="47.50396" lon="6.81675">
        <ele>318</ele>
        <time>2015-04-06T10:24:54.000Z</time>
      </trkpt>
      <trkpt lat="47.50398" lon="6.81667">
        <ele>318</ele>
        <time>2015-04-06T10:24:55.000Z</time>
      </trkpt>
      <trkpt lat="47.50396" lon="6.81657">
        <ele>318</ele>
        <time>2015-04-06T10:24:56.000Z</time>
      </trkpt>
      <trkpt lat="47.50396" lon="6.81643">
        <ele>318</ele>
        <time>2015-04-06T10:24:57.000Z</time>
      </trkpt>
      <trkpt lat="47.50397" lon="6.81633">
        <ele>318</ele>
        <time>2015-04-06T10:24:58.000Z</time>
      </trkpt>
      <trkpt lat="47.50396" lon="6.81624">
        <ele>318</ele>
        <time>2015-04-06T10:24:59.000Z</time>
      </trkpt>
      <trkpt lat="47.50399" lon="6.8161">
        <ele>318</ele>
        <time>2015-04-06T10:25:00.000Z</time>
      </trkpt>
      <trkpt lat="47.50402" lon="6.81606">
        <ele>317</ele>
        <time>2015-04-06T10:25:01.000Z</time>
      </trkpt>
      <trkpt lat="47.50404" lon="6.816">
        <ele>317</ele>
        <time>2015-04-06T10:25:02.000Z</time>
      </trkpt>
      <trkpt lat="47.50406" lon="6.81592">
        <ele>316</ele>
        <time>2015-04-06T10:25:03.000Z</time>
      </trkpt>
      <trkpt lat="47.50408" lon="6.81583">
        <ele>316</ele>
        <time>2015-04-06T10:25:04.000Z</time>
      </trkpt>
      <trkpt lat="47.5041" lon="6.81572">
        <ele>316</ele>
        <time>2015-04-06T10:25:05.000Z</time>
      </trkpt>
      <trkpt lat="47.50413" lon="6.81563">
        <ele>317</ele>
        <time>2015-04-06T10:25:06.000Z</time>
      </trkpt>
      <trkpt lat="47.50415" lon="6.81556">
        <ele>317</ele>
        <time>2015-04-06T10:25:07.000Z</time>
      </trkpt>
      <trkpt lat="47.50414" lon="6.81544">
        <ele>317</ele>
        <time>2015-04-06T10:25:08.000Z</time>
      </trkpt>
      <trkpt lat="47.50415" lon="6.81535">
        <ele>318</ele>
        <time>2015-04-06T10:25:09.000Z</time>
      </trkpt>
      <trkpt lat="47.50411" lon="6.8152">
        <ele>318</ele>
        <time>2015-04-06T10:25:10.000Z</time>
      </trkpt>
      <trkpt lat="47.50409" lon="6.8151">
        <ele>317</ele>
        <time>2015-04-06T10:25:11.000Z</time>
      </trkpt>
      <trkpt lat="47.5041" lon="6.81502">
        <ele>317</ele>
        <time>2015-04-06T10:25:12.000Z</time>
      </trkpt>
      <trkpt lat="47.5041" lon="6.81491">
        <ele>318</ele>
        <time>2015-04-06T10:25:13.000Z</time>
      </trkpt>
      <trkpt lat="47.5041" lon="6.81482">
        <ele>318</ele>
        <time>2015-04-06T10:25:14.000Z</time>
      </trkpt>
      <trkpt lat="47.5041" lon="6.81474">
        <ele>319</ele>
        <time>2015-04-06T10:25:15.000Z</time>
      </trkpt>
      <trkpt lat="47.50412" lon="6.81465">
        <ele>319</ele>
        <time>2015-04-06T10:25:16.000Z</time>
      </trkpt>
      <trkpt lat="47.50412" lon="6.81457">
        <ele>319</ele>
        <time>2015-04-06T10:25:17.000Z</time>
      </trkpt>
      <trkpt lat="47.50411" lon="6.81445">
        <ele>319</ele>
        <time>2015-04-06T10:25:18.000Z</time>
      </trkpt>
      <trkpt lat="47.50411" lon="6.81433">
        <ele>319</ele>
        <time>2015-04-06T10:25:19.000Z</time>
      </trkpt>
      <trkpt lat="47.50412" lon="6.81423">
        <ele>319</ele>
        <time>2015-04-06T10:25:20.000Z</time>
      </trkpt>
      <trkpt lat="47.5041" lon="6.81414">
        <ele>319</ele>
        <time>2015-04-06T10:25:21.000Z</time>
      </trkpt>
      <trkpt lat="47.50411" lon="6.81404">
        <ele>319</ele>
        <time>2015-04-06T10:25:22.000Z</time>
      </trkpt>
      <trkpt lat="47.50411" lon="6.81392">
        <ele>320</ele>
        <time>2015-04-06T10:25:23.000Z</time>
      </trkpt>
      <trkpt lat="47.50412" lon="6.81384">
        <ele>320</ele>
        <time>2015-04-06T10:25:24.000Z</time>
      </trkpt>
      <trkpt lat="47.50413" lon="6.81373">
        <ele>320</ele>
        <time>2015-04-06T10:25:25.000Z</time>
      </trkpt>
      <trkpt lat="47.50413" lon="6.81361">
        <ele>320</ele>
        <time>2015-04-06T10:25:26.000Z</time>
      </trkpt>
      <trkpt lat="47.50415" lon="6.81356">
        <ele>320</ele>
        <time>2015-04-06T10:25:27.000Z</time>
      </trkpt>
      <trkpt lat="47.50416" lon="6.81347">
        <ele>319</ele>
        <time>2015-04-06T10:25:28.000Z</time>
      </trkpt>
      <trkpt lat="47.50416" lon="6.81337">
        <ele>319</ele>
        <time>2015-04-06T10:25:29.000Z</time>
      </trkpt>
      <trkpt lat="47.50416" lon="6.81326">
        <ele>319</ele>
        <time>2015-04-06T10:25:30.000Z</time>
      </trkpt>
      <trkpt lat="47.50417" lon="6.81317">
        <ele>318</ele>
        <time>2015-04-06T10:25:31.000Z</time>
      </trkpt>
      <trkpt lat="47.50417" lon="6.81308">
        <ele>318</ele>
        <time>2015-04-06T10:25:32.000Z</time>
      </trkpt>
      <trkpt lat="47.50419" lon="6.81298">
        <ele>318</ele>
        <time>2015-04-06T10:25:33.000Z</time>
      </trkpt>
      <trkpt lat="47.50419" lon="6.81292">
        <ele>318</ele>
        <time>2015-04-06T10:25:34.000Z</time>
      </trkpt>
      <trkpt lat="47.50419" lon="6.81283">
        <ele>319</ele>
        <time>2015-04-06T10:25:35.000Z</time>
      </trkpt>
      <trkpt lat="47.50419" lon="6.81273">
        <ele>319</ele>
        <time>2015-04-06T10:25:36.000Z</time>
      </trkpt>
      <trkpt lat="47.50426" lon="6.81272">
        <ele>319</ele>
        <time>2015-04-06T10:25:37.000Z</time>
      </trkpt>
      <trkpt lat="47.50426" lon="6.81265">
        <ele>319</ele>
        <time>2015-04-06T10:25:38.000Z</time>
      </trkpt>
      <trkpt lat="47.50427" lon="6.81258">
        <ele>320</ele>
        <time>2015-04-06T10:25:39.000Z</time>
      </trkpt>
      <trkpt lat="47.5043" lon="6.8125">
        <ele>319</ele>
        <time>2015-04-06T10:25:40.000Z</time>
      </trkpt>
      <trkpt lat="47.50435" lon="6.81243">
        <ele>319</ele>
        <time>2015-04-06T10:25:41.000Z</time>
      </trkpt>
      <trkpt lat="47.50435" lon="6.81229">
        <ele>319</ele>
        <time>2015-04-06T10:25:42.000Z</time>
      </trkpt>
      <trkpt lat="47.50437" lon="6.81221">
        <ele>319</ele>
        <time>2015-04-06T10:25:43.000Z</time>
      </trkpt>
      <trkpt lat="47.50436" lon="6.8121">
        <ele>319</ele>
        <time>2015-04-06T10:25:44.000Z</time>
      </trkpt>
      <trkpt lat="47.50438" lon="6.81205">
        <ele>319</ele>
        <time>2015-04-06T10:25:45.000Z</time>
      </trkpt>
      <trkpt lat="47.5044" lon="6.81196">
        <ele>319</ele>
        <time>2015-04-06T10:25:46.000Z</time>
      </trkpt>
      <trkpt lat="47.5044" lon="6.81185">
        <ele>320</ele>
        <time>2015-04-06T10:25:47.000Z</time>
      </trkpt>
      <trkpt lat="47.50442" lon="6.81177">
        <ele>320</ele>
        <time>2015-04-06T10:25:47.999Z</time>
      </trkpt>
      <trkpt lat="47.50441" lon="6.81163">
        <ele>319</ele>
        <time>2015-04-06T10:25:49.001Z</time>
      </trkpt>
      <trkpt lat="47.50442" lon="6.81152">
        <ele>319</ele>
        <time>2015-04-06T10:25:50.000Z</time>
      </trkpt>
      <trkpt lat="47.50441" lon="6.81142">
        <ele>319</ele>
        <time>2015-04-06T10:25:51.000Z</time>
      </trkpt>
      <trkpt lat="47.5044" lon="6.81133">
        <ele>318</ele>
        <time>2015-04-06T10:25:52.000Z</time>
      </trkpt>
      <trkpt lat="47.5044" lon="6.81123">
        <ele>318</ele>
        <time>2015-04-06T10:25:53.000Z</time>
      </trkpt>
      <trkpt lat="47.50439" lon="6.81112">
        <ele>318</ele>
        <time>2015-04-06T10:25:54.000Z</time>
      </trkpt>
      <trkpt lat="47.5044" lon="6.81102">
        <ele>318</ele>
        <time>2015-04-06T10:25:55.000Z</time>
      </trkpt>
      <trkpt lat="47.5044" lon="6.81091">
        <ele>318</ele>
        <time>2015-04-06T10:25:56.000Z</time>
      </trkpt>
      <trkpt lat="47.50441" lon="6.81081">
        <ele>316</ele>
        <time>2015-04-06T10:25:57.000Z</time>
      </trkpt>
      <trkpt lat="47.50442" lon="6.81071">
        <ele>316</ele>
        <time>2015-04-06T10:25:58.000Z</time>
      </trkpt>
      <trkpt lat="47.50441" lon="6.81062">
        <ele>316</ele>
        <time>2015-04-06T10:25:59.000Z</time>
      </trkpt>
      <trkpt lat="47.50441" lon="6.81053">
        <ele>316</ele>
        <time>2015-04-06T10:26:00.000Z</time>
      </trkpt>
      <trkpt lat="47.50442" lon="6.81044">
        <ele>315</ele>
        <time>2015-04-06T10:26:01.000Z</time>
      </trkpt>
      <trkpt lat="47.50441" lon="6.81034">
        <ele>315</ele>
        <time>2015-04-06T10:26:02.000Z</time>
      </trkpt>
      <trkpt lat="47.50443" lon="6.81025">
        <ele>315</ele>
        <time>2015-04-06T10:26:03.000Z</time>
      </trkpt>
      <trkpt lat="47.50444" lon="6.81017">
        <ele>315</ele>
        <time>2015-04-06T10:26:04.000Z</time>
      </trkpt>
      <trkpt lat="47.50444" lon="6.81007">
        <ele>315</ele>
        <time>2015-04-06T10:26:05.000Z</time>
      </trkpt>
      <trkpt lat="47.50444" lon="6.80997">
        <ele>315</ele>
        <time>2015-04-06T10:26:06.000Z</time>
      </trkpt>
      <trkpt lat="47.50445" lon="6.80988">
        <ele>315</ele>
        <time>2015-04-06T10:26:07.000Z</time>
      </trkpt>
      <trkpt lat="47.50445" lon="6.80979">
        <ele>315</ele>
        <time>2015-04-06T10:26:08.000Z</time>
      </trkpt>
      <trkpt lat="47.50446" lon="6.80972">
        <ele>314</ele>
        <time>2015-04-06T10:26:09.000Z</time>
      </trkpt>
      <trkpt lat="47.50446" lon="6.80962">
        <ele>314</ele>
        <time>2015-04-06T10:26:10.000Z</time>
      </trkpt>
      <trkpt lat="47.50446" lon="6.80953">
        <ele>314</ele>
        <time>2015-04-06T10:26:11.000Z</time>
      </trkpt>
      <trkpt lat="47.50447" lon="6.80945">
        <ele>314</ele>
        <time>2015-04-06T10:26:12.000Z</time>
      </trkpt>
      <trkpt lat="47.50448" lon="6.80935">
        <ele>315</ele>
        <time>2015-04-06T10:26:13.000Z</time>
      </trkpt>
      <trkpt lat="47.50448" lon="6.80925">
        <ele>315</ele>
        <time>2015-04-06T10:26:14.000Z</time>
      </trkpt>
      <trkpt lat="47.50449" lon="6.80916">
        <ele>316</ele>
        <time>2015-04-06T10:26:15.000Z</time>
      </trkpt>
      <trkpt lat="47.50449" lon="6.80906">
        <ele>316</ele>
        <time>2015-04-06T10:26:16.000Z</time>
      </trkpt>
      <trkpt lat="47.50449" lon="6.80897">
        <ele>316</ele>
        <time>2015-04-06T10:26:17.000Z</time>
      </trkpt>
      <trkpt lat="47.5045" lon="6.80889">
        <ele>316</ele>
        <time>2015-04-06T10:26:18.000Z</time>
      </trkpt>
      <trkpt lat="47.50451" lon="6.80879">
        <ele>316</ele>
        <time>2015-04-06T10:26:19.000Z</time>
      </trkpt>
      <trkpt lat="47.50451" lon="6.8087">
        <ele>316</ele>
        <time>2015-04-06T10:26:20.000Z</time>
      </trkpt>
      <trkpt lat="47.50451" lon="6.80862">
        <ele>316</ele>
        <time>2015-04-06T10:26:21.000Z</time>
      </trkpt>
      <trkpt lat="47.50451" lon="6.80852">
        <ele>316</ele>
        <time>2015-04-06T10:26:22.000Z</time>
      </trkpt>
      <trkpt lat="47.50451" lon="6.80842">
        <ele>316</ele>
        <time>2015-04-06T10:26:23.000Z</time>
      </trkpt>
      <trkpt lat="47.50449" lon="6.80833">
        <ele>317</ele>
        <time>2015-04-06T10:26:24.000Z</time>
      </trkpt>
      <trkpt lat="47.50449" lon="6.80826">
        <ele>317</ele>
        <time>2015-04-06T10:26:25.000Z</time>
      </trkpt>
      <trkpt lat="47.50449" lon="6.80818">
        <ele>317</ele>
        <time>2015-04-06T10:26:26.000Z</time>
      </trkpt>
      <trkpt lat="47.50448" lon="6.8081">
        <ele>317</ele>
        <time>2015-04-06T10:26:27.000Z</time>
      </trkpt>
      <trkpt lat="47.50451" lon="6.80802">
        <ele>317</ele>
        <time>2015-04-06T10:26:28.000Z</time>
      </trkpt>
      <trkpt lat="47.50452" lon="6.80794">
        <ele>317</ele>
        <time>2015-04-06T10:26:29.000Z</time>
      </trkpt>
      <trkpt lat="47.50454" lon="6.80787">
        <ele>316</ele>
        <time>2015-04-06T10:26:30.000Z</time>
      </trkpt>
      <trkpt lat="47.50457" lon="6.80779">
        <ele>316</ele>
        <time>2015-04-06T10:26:31.000Z</time>
      </trkpt>
      <trkpt lat="47.50457" lon="6.80767">
        <ele>316</ele>
        <time>2015-04-06T10:26:32.000Z</time>
      </trkpt>
      <trkpt lat="47.50458" lon="6.80758">
        <ele>316</ele>
        <time>2015-04-06T10:26:33.000Z</time>
      </trkpt>
      <trkpt lat="47.50458" lon="6.80748">
        <ele>316</ele>
        <time>2015-04-06T10:26:34.000Z</time>
      </trkpt>
      <trkpt lat="47.50459" lon="6.80737">
        <ele>315</ele>
        <time>2015-04-06T10:26:35.000Z</time>
      </trkpt>
      <trkpt lat="47.50458" lon="6.80728">
        <ele>315</ele>
        <time>2015-04-06T10:26:36.000Z</time>
      </trkpt>
      <trkpt lat="47.5046" lon="6.80722">
        <ele>315</ele>
        <time>2015-04-06T10:26:37.000Z</time>
      </trkpt>
      <trkpt lat="47.50461" lon="6.80714">
        <ele>315</ele>
        <time>2015-04-06T10:26:38.000Z</time>
      </trkpt>
      <trkpt lat="47.50461" lon="6.80704">
        <ele>315</ele>
        <time>2015-04-06T10:26:39.000Z</time>
      </trkpt>
      <trkpt lat="47.50462" lon="6.80694">
        <ele>315</ele>
        <time>2015-04-06T10:26:40.000Z</time>
      </trkpt>
      <trkpt lat="47.50463" lon="6.80684">
        <ele>315</ele>
        <time>2015-04-06T10:26:41.000Z</time>
      </trkpt>
      <trkpt lat="47.50464" lon="6.80675">
        <ele>315</ele>
        <time>2015-04-06T10:26:42.000Z</time>
      </trkpt>
      <trkpt lat="47.50464" lon="6.80666">
        <ele>315</ele>
        <time>2015-04-06T10:26:43.000Z</time>
      </trkpt>
      <trkpt lat="47.50464" lon="6.80656">
        <ele>315</ele>
        <time>2015-04-06T10:26:44.000Z</time>
      </trkpt>
      <trkpt lat="47.50464" lon="6.80646">
        <ele>315</ele>
        <time>2015-04-06T10:26:45.000Z</time>
      </trkpt>
      <trkpt lat="47.50464" lon="6.80637">
        <ele>315</ele>
        <time>2015-04-06T10:26:46.000Z</time>
      </trkpt>
      <trkpt lat="47.50464" lon="6.80627">
        <ele>315</ele>
        <time>2015-04-06T10:26:47.000Z</time>
      </trkpt>
      <trkpt lat="47.50464" lon="6.80618">
        <ele>314</ele>
        <time>2015-04-06T10:26:48.000Z</time>
      </trkpt>
      <trkpt lat="47.50464" lon="6.80609">
        <ele>314</ele>
        <time>2015-04-06T10:26:49.000Z</time>
      </trkpt>
      <trkpt lat="47.50465" lon="6.80599">
        <ele>314</ele>
        <time>2015-04-06T10:26:50.000Z</time>
      </trkpt>
      <trkpt lat="47.50464" lon="6.8059">
        <ele>314</ele>
        <time>2015-04-06T10:26:51.000Z</time>
      </trkpt>
      <trkpt lat="47.50464" lon="6.80583">
        <ele>315</ele>
        <time>2015-04-06T10:26:52.000Z</time>
      </trkpt>
      <trkpt lat="47.50465" lon="6.80574">
        <ele>315</ele>
        <time>2015-04-06T10:26:53.000Z</time>
      </trkpt>
      <trkpt lat="47.50467" lon="6.80567">
        <ele>315</ele>
        <time>2015-04-06T10:26:54.000Z</time>
      </trkpt>
      <trkpt lat="47.50467" lon="6.80557">
        <ele>315</ele>
        <time>2015-04-06T10:26:55.000Z</time>
      </trkpt>
      <trkpt lat="47.50468" lon="6.80548">
        <ele>315</ele>
        <time>2015-04-06T10:26:56.000Z</time>
      </trkpt>
      <trkpt lat="47.50469" lon="6.80541">
        <ele>315</ele>
        <time>2015-04-06T10:26:57.000Z</time>
      </trkpt>
      <trkpt lat="47.5047" lon="6.80532">
        <ele>316</ele>
        <time>2015-04-06T10:26:58.000Z</time>
      </trkpt>
      <trkpt lat="47.50472" lon="6.80523">
        <ele>316</ele>
        <time>2015-04-06T10:26:59.000Z</time>
      </trkpt>
      <trkpt lat="47.5047" lon="6.80511">
        <ele>316</ele>
        <time>2015-04-06T10:27:00.000Z</time>
      </trkpt>
      <trkpt lat="47.5047" lon="6.80503">
        <ele>316</ele>
        <time>2015-04-06T10:27:01.000Z</time>
      </trkpt>
      <trkpt lat="47.5047" lon="6.80496">
        <ele>317</ele>
        <time>2015-04-06T10:27:02.000Z</time>
      </trkpt>
      <trkpt lat="47.50471" lon="6.8049">
        <ele>317</ele>
        <time>2015-04-06T10:27:03.001Z</time>
      </trkpt>
      <trkpt lat="47.50473" lon="6.80483">
        <ele>317</ele>
        <time>2015-04-06T10:27:04.000Z</time>
      </trkpt>
      <trkpt lat="47.50473" lon="6.80478">
        <ele>317</ele>
        <time>2015-04-06T10:27:05.000Z</time>
      </trkpt>
      <trkpt lat="47.50474" lon="6.80471">
        <ele>317</ele>
        <time>2015-04-06T10:27:06.000Z</time>
      </trkpt>
      <trkpt lat="47.50473" lon="6.80466">
        <ele>317</ele>
        <time>2015-04-06T10:27:07.000Z</time>
      </trkpt>
      <trkpt lat="47.50473" lon="6.8046">
        <ele>317</ele>
        <time>2015-04-06T10:27:08.000Z</time>
      </trkpt>
      <trkpt lat="47.50472" lon="6.80453">
        <ele>317</ele>
        <time>2015-04-06T10:27:08.999Z</time>
      </trkpt>
      <trkpt lat="47.5047" lon="6.80441">
        <ele>317</ele>
        <time>2015-04-06T10:27:10.000Z</time>
      </trkpt>
      <trkpt lat="47.50469" lon="6.80435">
        <ele>317</ele>
        <time>2015-04-06T10:27:11.000Z</time>
      </trkpt>
      <trkpt lat="47.50467" lon="6.8043">
        <ele>317</ele>
        <time>2015-04-06T10:27:12.000Z</time>
      </trkpt>
      <trkpt lat="47.50464" lon="6.80428">
        <ele>317</ele>
        <time>2015-04-06T10:27:13.000Z</time>
      </trkpt>
      <trkpt lat="47.50462" lon="6.80426">
        <ele>317</ele>
        <time>2015-04-06T10:27:14.000Z</time>
      </trkpt>
      <trkpt lat="47.50458" lon="6.80424">
        <ele>317</ele>
        <time>2015-04-06T10:27:15.000Z</time>
      </trkpt>
      <trkpt lat="47.50454" lon="6.80422">
        <ele>317</ele>
        <time>2015-04-06T10:27:16.000Z</time>
      </trkpt>
      <trkpt lat="47.50451" lon="6.80422">
        <ele>317</ele>
        <time>2015-04-06T10:27:17.000Z</time>
      </trkpt>
      <trkpt lat="47.50448" lon="6.80421">
        <ele>317</ele>
        <time>2015-04-06T10:27:18.000Z</time>
      </trkpt>
      <trkpt lat="47.50445" lon="6.80421">
        <ele>317</ele>
        <time>2015-04-06T10:27:19.000Z</time>
      </trkpt>
      <trkpt lat="47.50442" lon="6.80422">
        <ele>317</ele>
        <time>2015-04-06T10:27:20.000Z</time>
      </trkpt>
      <trkpt lat="47.5044" lon="6.80424">
        <ele>317</ele>
        <time>2015-04-06T10:27:21.000Z</time>
      </trkpt>
      <trkpt lat="47.50438" lon="6.80427">
        <ele>317</ele>
        <time>2015-04-06T10:27:22.000Z</time>
      </trkpt>
      <trkpt lat="47.50436" lon="6.8043">
        <ele>317</ele>
        <time>2015-04-06T10:27:23.000Z</time>
      </trkpt>
      <trkpt lat="47.50434" lon="6.80434">
        <ele>317</ele>
        <time>2015-04-06T10:27:24.000Z</time>
      </trkpt>
      <trkpt lat="47.50433" lon="6.80439">
        <ele>317</ele>
        <time>2015-04-06T10:27:25.000Z</time>
      </trkpt>
      <trkpt lat="47.50433" lon="6.80443">
        <ele>317</ele>
        <time>2015-04-06T10:27:26.000Z</time>
      </trkpt>
      <trkpt lat="47.50433" lon="6.80447">
        <ele>317</ele>
        <time>2015-04-06T10:27:27.000Z</time>
      </trkpt>
      <trkpt lat="47.50436" lon="6.8045">
        <ele>317</ele>
        <time>2015-04-06T10:27:28.000Z</time>
      </trkpt>
      <trkpt lat="47.50439" lon="6.80452">
        <ele>317</ele>
        <time>2015-04-06T10:27:29.000Z</time>
      </trkpt>
      <trkpt lat="47.50443" lon="6.80453">
        <ele>317</ele>
        <time>2015-04-06T10:27:30.000Z</time>
      </trkpt>
      <trkpt lat="47.50447" lon="6.80454">
        <ele>317</ele>
        <time>2015-04-06T10:27:31.000Z</time>
      </trkpt>
      <trkpt lat="47.5045" lon="6.80453">
        <ele>317</ele>
        <time>2015-04-06T10:27:32.000Z</time>
      </trkpt>
      <trkpt lat="47.50454" lon="6.80453">
        <ele>317</ele>
        <time>2015-04-06T10:27:33.000Z</time>
      </trkpt>
      <trkpt lat="47.50457" lon="6.80453">
        <ele>317</ele>
        <time>2015-04-06T10:27:34.000Z</time>
      </trkpt>
      <trkpt lat="47.50461" lon="6.80453">
        <ele>317</ele>
        <time>2015-04-06T10:27:35.000Z</time>
      </trkpt>
      <trkpt lat="47.50465" lon="6.80453">
        <ele>317</ele>
        <time>2015-04-06T10:27:36.000Z</time>
      </trkpt>
      <trkpt lat="47.50469" lon="6.80453">
        <ele>317</ele>
        <time>2015-04-06T10:27:37.000Z</time>
      </trkpt>
      <trkpt lat="47.50473" lon="6.80454">
        <ele>317</ele>
        <time>2015-04-06T10:27:38.000Z</time>
      </trkpt>
      <trkpt lat="47.50476" lon="6.80453">
        <ele>317</ele>
        <time>2015-04-06T10:27:39.000Z</time>
      </trkpt>
      <trkpt lat="47.5048" lon="6.80453">
        <ele>317</ele>
        <time>2015-04-06T10:27:40.000Z</time>
      </trkpt>
      <trkpt lat="47.50483" lon="6.80452">
        <ele>317</ele>
        <time>2015-04-06T10:27:41.000Z</time>
      </trkpt>
      <trkpt lat="47.50487" lon="6.80451">
        <ele>317</ele>
        <time>2015-04-06T10:27:42.000Z</time>
      </trkpt>
      <trkpt lat="47.50491" lon="6.80451">
        <ele>316</ele>
        <time>2015-04-06T10:27:43.000Z</time>
      </trkpt>
      <trkpt lat="47.50495" lon="6.80451">
        <ele>316</ele>
        <time>2015-04-06T10:27:44.000Z</time>
      </trkpt>
      <trkpt lat="47.505" lon="6.80451">
        <ele>316</ele>
        <time>2015-04-06T10:27:45.000Z</time>
      </trkpt>
      <trkpt lat="47.50504" lon="6.80451">
        <ele>316</ele>
        <time>2015-04-06T10:27:46.000Z</time>
      </trkpt>
      <trkpt lat="47.50509" lon="6.80452">
        <ele>316</ele>
        <time>2015-04-06T10:27:47.000Z</time>
      </trkpt>
      <trkpt lat="47.50514" lon="6.80453">
        <ele>316</ele>
        <time>2015-04-06T10:27:48.000Z</time>
      </trkpt>
      <trkpt lat="47.50522" lon="6.80453">
        <ele>316</ele>
        <time>2015-04-06T10:27:49.000Z</time>
      </trkpt>
      <trkpt lat="47.50527" lon="6.80452">
        <ele>316</ele>
        <time>2015-04-06T10:27:50.000Z</time>
      </trkpt>
      <trkpt lat="47.5053" lon="6.80451">
        <ele>316</ele>
        <time>2015-04-06T10:27:51.000Z</time>
      </trkpt>
      <trkpt lat="47.50534" lon="6.80449">
        <ele>316</ele>
        <time>2015-04-06T10:27:52.000Z</time>
      </trkpt>
      <trkpt lat="47.50535" lon="6.80442">
        <ele>316</ele>
        <time>2015-04-06T10:27:53.000Z</time>
      </trkpt>
      <trkpt lat="47.50536" lon="6.80437">
        <ele>316</ele>
        <time>2015-04-06T10:27:54.000Z</time>
      </trkpt>
      <trkpt lat="47.50536" lon="6.80431">
        <ele>316</ele>
        <time>2015-04-06T10:27:55.000Z</time>
      </trkpt>
      <trkpt lat="47.5054" lon="6.80426">
        <ele>316</ele>
        <time>2015-04-06T10:27:56.000Z</time>
      </trkpt>
      <trkpt lat="47.50541" lon="6.80418">
        <ele>316</ele>
        <time>2015-04-06T10:27:57.000Z</time>
      </trkpt>
      <trkpt lat="47.50541" lon="6.80412">
        <ele>316</ele>
        <time>2015-04-06T10:27:58.000Z</time>
      </trkpt>
      <trkpt lat="47.50538" lon="6.80408">
        <ele>316</ele>
        <time>2015-04-06T10:27:59.000Z</time>
      </trkpt>
      <trkpt lat="47.50536" lon="6.80406">
        <ele>316</ele>
        <time>2015-04-06T10:28:00.000Z</time>
      </trkpt>
      <trkpt lat="47.50535" lon="6.80418">
        <ele>316</ele>
        <time>2015-04-06T10:28:01.000Z</time>
      </trkpt>
      <trkpt lat="47.50535" lon="6.80424">
        <ele>316</ele>
        <time>2015-04-06T10:28:02.000Z</time>
      </trkpt>
      <trkpt lat="47.50534" lon="6.8043">
        <ele>316</ele>
        <time>2015-04-06T10:28:03.000Z</time>
      </trkpt>
      <trkpt lat="47.50532" lon="6.80436">
        <ele>316</ele>
        <time>2015-04-06T10:28:04.000Z</time>
      </trkpt>
      <trkpt lat="47.5053" lon="6.8044">
        <ele>316</ele>
        <time>2015-04-06T10:28:05.000Z</time>
      </trkpt>
      <trkpt lat="47.50527" lon="6.80446">
        <ele>316</ele>
        <time>2015-04-06T10:28:06.000Z</time>
      </trkpt>
      <trkpt lat="47.50525" lon="6.80445">
        <ele>316</ele>
        <time>2015-04-06T10:28:07.000Z</time>
      </trkpt>
      <trkpt lat="47.50518" lon="6.80429">
        <ele>316</ele>
        <time>2015-04-06T10:28:08.000Z</time>
      </trkpt>
      <trkpt lat="47.50514" lon="6.80423">
        <ele>316</ele>
        <time>2015-04-06T10:28:09.000Z</time>
      </trkpt>
      <trkpt lat="47.50512" lon="6.80416">
        <ele>316</ele>
        <time>2015-04-06T10:28:10.000Z</time>
      </trkpt>
      <trkpt lat="47.50513" lon="6.8041">
        <ele>316</ele>
        <time>2015-04-06T10:28:11.000Z</time>
      </trkpt>
      <trkpt lat="47.50511" lon="6.80401">
        <ele>316</ele>
        <time>2015-04-06T10:28:12.000Z</time>
      </trkpt>
      <trkpt lat="47.50511" lon="6.80394">
        <ele>316</ele>
        <time>2015-04-06T10:28:13.000Z</time>
      </trkpt>
      <trkpt lat="47.50511" lon="6.80391">
        <ele>316</ele>
        <time>2015-04-06T10:28:14.000Z</time>
      </trkpt>
      <trkpt lat="47.50509" lon="6.80382">
        <ele>316</ele>
        <time>2015-04-06T10:28:15.000Z</time>
      </trkpt>
      <trkpt lat="47.50507" lon="6.80372">
        <ele>316</ele>
        <time>2015-04-06T10:28:16.000Z</time>
      </trkpt>
      <trkpt lat="47.50507" lon="6.80363">
        <ele>316</ele>
        <time>2015-04-06T10:28:17.000Z</time>
      </trkpt>
      <trkpt lat="47.50507" lon="6.80359">
        <ele>316</ele>
        <time>2015-04-06T10:28:18.000Z</time>
      </trkpt>
      <trkpt lat="47.50507" lon="6.8035">
        <ele>316</ele>
        <time>2015-04-06T10:28:19.000Z</time>
      </trkpt>
      <trkpt lat="47.50507" lon="6.80343">
        <ele>315</ele>
        <time>2015-04-06T10:28:20.000Z</time>
      </trkpt>
      <trkpt lat="47.50508" lon="6.80341">
        <ele>315</ele>
        <time>2015-04-06T10:28:21.000Z</time>
      </trkpt>
      <trkpt lat="47.50507" lon="6.80327">
        <ele>315</ele>
        <time>2015-04-06T10:28:22.000Z</time>
      </trkpt>
      <trkpt lat="47.50507" lon="6.80318">
        <ele>315</ele>
        <time>2015-04-06T10:28:23.000Z</time>
      </trkpt>
      <trkpt lat="47.50508" lon="6.80311">
        <ele>315</ele>
        <time>2015-04-06T10:28:24.000Z</time>
      </trkpt>
      <trkpt lat="47.50509" lon="6.80302">
        <ele>315</ele>
        <time>2015-04-06T10:28:25.000Z</time>
      </trkpt>
      <trkpt lat="47.50509" lon="6.80294">
        <ele>315</ele>
        <time>2015-04-06T10:28:26.000Z</time>
      </trkpt>
      <trkpt lat="47.5051" lon="6.80286">
        <ele>315</ele>
        <time>2015-04-06T10:28:27.000Z</time>
      </trkpt>
      <trkpt lat="47.5051" lon="6.80276">
        <ele>315</ele>
        <time>2015-04-06T10:28:28.000Z</time>
      </trkpt>
      <trkpt lat="47.50511" lon="6.80266">
        <ele>315</ele>
        <time>2015-04-06T10:28:29.000Z</time>
      </trkpt>
      <trkpt lat="47.50511" lon="6.8026">
        <ele>315</ele>
        <time>2015-04-06T10:28:30.000Z</time>
      </trkpt>
      <trkpt lat="47.50512" lon="6.80249">
        <ele>316</ele>
        <time>2015-04-06T10:28:31.000Z</time>
      </trkpt>
      <trkpt lat="47.50513" lon="6.8024">
        <ele>316</ele>
        <time>2015-04-06T10:28:32.000Z</time>
      </trkpt>
      <trkpt lat="47.50513" lon="6.80232">
        <ele>316</ele>
        <time>2015-04-06T10:28:33.000Z</time>
      </trkpt>
      <trkpt lat="47.50514" lon="6.80229">
        <ele>317</ele>
        <time>2015-04-06T10:28:34.000Z</time>
      </trkpt>
      <trkpt lat="47.50515" lon="6.80221">
        <ele>317</ele>
        <time>2015-04-06T10:28:35.000Z</time>
      </trkpt>
      <trkpt lat="47.50516" lon="6.80213">
        <ele>317</ele>
        <time>2015-04-06T10:28:36.000Z</time>
      </trkpt>
      <trkpt lat="47.50517" lon="6.80205">
        <ele>317</ele>
        <time>2015-04-06T10:28:37.000Z</time>
      </trkpt>
      <trkpt lat="47.50517" lon="6.80197">
        <ele>318</ele>
        <time>2015-04-06T10:28:38.000Z</time>
      </trkpt>
      <trkpt lat="47.50517" lon="6.80188">
        <ele>318</ele>
        <time>2015-04-06T10:28:39.000Z</time>
      </trkpt>
      <trkpt lat="47.50517" lon="6.8018">
        <ele>318</ele>
        <time>2015-04-06T10:28:40.000Z</time>
      </trkpt>
      <trkpt lat="47.50518" lon="6.80172">
        <ele>318</ele>
        <time>2015-04-06T10:28:41.000Z</time>
      </trkpt>
      <trkpt lat="47.50518" lon="6.80164">
        <ele>319</ele>
        <time>2015-04-06T10:28:42.000Z</time>
      </trkpt>
      <trkpt lat="47.50518" lon="6.80154">
        <ele>319</ele>
        <time>2015-04-06T10:28:43.000Z</time>
      </trkpt>
      <trkpt lat="47.50519" lon="6.80145">
        <ele>320</ele>
        <time>2015-04-06T10:28:44.000Z</time>
      </trkpt>
      <trkpt lat="47.5052" lon="6.80137">
        <ele>320</ele>
        <time>2015-04-06T10:28:45.000Z</time>
      </trkpt>
      <trkpt lat="47.50521" lon="6.80129">
        <ele>320</ele>
        <time>2015-04-06T10:28:46.000Z</time>
      </trkpt>
      <trkpt lat="47.50522" lon="6.80121">
        <ele>320</ele>
        <time>2015-04-06T10:28:47.000Z</time>
      </trkpt>
      <trkpt lat="47.50523" lon="6.80112">
        <ele>320</ele>
        <time>2015-04-06T10:28:48.000Z</time>
      </trkpt>
      <trkpt lat="47.50524" lon="6.80106">
        <ele>321</ele>
        <time>2015-04-06T10:28:49.000Z</time>
      </trkpt>
      <trkpt lat="47.50526" lon="6.801">
        <ele>321</ele>
        <time>2015-04-06T10:28:50.000Z</time>
      </trkpt>
      <trkpt lat="47.5053" lon="6.80094">
        <ele>321</ele>
        <time>2015-04-06T10:28:51.000Z</time>
      </trkpt>
      <trkpt lat="47.50528" lon="6.80082">
        <ele>321</ele>
        <time>2015-04-06T10:28:52.000Z</time>
      </trkpt>
      <trkpt lat="47.50529" lon="6.80074">
        <ele>321</ele>
        <time>2015-04-06T10:28:53.000Z</time>
      </trkpt>
      <trkpt lat="47.50529" lon="6.80065">
        <ele>321</ele>
        <time>2015-04-06T10:28:54.000Z</time>
      </trkpt>
      <trkpt lat="47.50529" lon="6.80056">
        <ele>321</ele>
        <time>2015-04-06T10:28:55.000Z</time>
      </trkpt>
      <trkpt lat="47.5053" lon="6.80051">
        <ele>321</ele>
        <time>2015-04-06T10:28:56.000Z</time>
      </trkpt>
      <trkpt lat="47.5053" lon="6.80042">
        <ele>322</ele>
        <time>2015-04-06T10:28:57.000Z</time>
      </trkpt>
      <trkpt lat="47.50531" lon="6.80035">
        <ele>322</ele>
        <time>2015-04-06T10:28:58.000Z</time>
      </trkpt>
      <trkpt lat="47.50532" lon="6.80027">
        <ele>322</ele>
        <time>2015-04-06T10:28:59.000Z</time>
      </trkpt>
      <trkpt lat="47.50533" lon="6.80019">
        <ele>322</ele>
        <time>2015-04-06T10:29:00.000Z</time>
      </trkpt>
      <trkpt lat="47.50535" lon="6.80011">
        <ele>322</ele>
        <time>2015-04-06T10:29:01.000Z</time>
      </trkpt>
      <trkpt lat="47.50534" lon="6.8">
        <ele>322</ele>
        <time>2015-04-06T10:29:02.000Z</time>
      </trkpt>
      <trkpt lat="47.50534" lon="6.79993">
        <ele>322</ele>
        <time>2015-04-06T10:29:03.000Z</time>
      </trkpt>
      <trkpt lat="47.50534" lon="6.79983">
        <ele>322</ele>
        <time>2015-04-06T10:29:04.000Z</time>
      </trkpt>
      <trkpt lat="47.50533" lon="6.79973">
        <ele>322</ele>
        <time>2015-04-06T10:29:05.000Z</time>
      </trkpt>
      <trkpt lat="47.50531" lon="6.79961">
        <ele>322</ele>
        <time>2015-04-06T10:29:06.000Z</time>
      </trkpt>
      <trkpt lat="47.50533" lon="6.79952">
        <ele>322</ele>
        <time>2015-04-06T10:29:07.000Z</time>
      </trkpt>
      <trkpt lat="47.50534" lon="6.79942">
        <ele>322</ele>
        <time>2015-04-06T10:29:08.000Z</time>
      </trkpt>
      <trkpt lat="47.50534" lon="6.79933">
        <ele>322</ele>
        <time>2015-04-06T10:29:09.000Z</time>
      </trkpt>
      <trkpt lat="47.50536" lon="6.79923">
        <ele>322</ele>
        <time>2015-04-06T10:29:10.000Z</time>
      </trkpt>
      <trkpt lat="47.50536" lon="6.79913">
        <ele>321</ele>
        <time>2015-04-06T10:29:11.000Z</time>
      </trkpt>
      <trkpt lat="47.50535" lon="6.79902">
        <ele>321</ele>
        <time>2015-04-06T10:29:12.000Z</time>
      </trkpt>
      <trkpt lat="47.50534" lon="6.79892">
        <ele>321</ele>
        <time>2015-04-06T10:29:13.000Z</time>
      </trkpt>
      <trkpt lat="47.50535" lon="6.79881">
        <ele>321</ele>
        <time>2015-04-06T10:29:14.000Z</time>
      </trkpt>
      <trkpt lat="47.50535" lon="6.79872">
        <ele>321</ele>
        <time>2015-04-06T10:29:15.000Z</time>
      </trkpt>
      <trkpt lat="47.50535" lon="6.79861">
        <ele>321</ele>
        <time>2015-04-06T10:29:16.000Z</time>
      </trkpt>
      <trkpt lat="47.50536" lon="6.79854">
        <ele>320</ele>
        <time>2015-04-06T10:29:17.000Z</time>
      </trkpt>
      <trkpt lat="47.50536" lon="6.79846">
        <ele>320</ele>
        <time>2015-04-06T10:29:18.000Z</time>
      </trkpt>
      <trkpt lat="47.50536" lon="6.79838">
        <ele>320</ele>
        <time>2015-04-06T10:29:19.000Z</time>
      </trkpt>
      <trkpt lat="47.50536" lon="6.79828">
        <ele>320</ele>
        <time>2015-04-06T10:29:20.000Z</time>
      </trkpt>
      <trkpt lat="47.50536" lon="6.79817">
        <ele>320</ele>
        <time>2015-04-06T10:29:21.000Z</time>
      </trkpt>
      <trkpt lat="47.50533" lon="6.79804">
        <ele>320</ele>
        <time>2015-04-06T10:29:22.000Z</time>
      </trkpt>
      <trkpt lat="47.50533" lon="6.79795">
        <ele>320</ele>
        <time>2015-04-06T10:29:23.000Z</time>
      </trkpt>
      <trkpt lat="47.50531" lon="6.79784">
        <ele>320</ele>
        <time>2015-04-06T10:29:24.000Z</time>
      </trkpt>
      <trkpt lat="47.50529" lon="6.79773">
        <ele>319</ele>
        <time>2015-04-06T10:29:25.000Z</time>
      </trkpt>
      <trkpt lat="47.50527" lon="6.79762">
        <ele>319</ele>
        <time>2015-04-06T10:29:26.000Z</time>
      </trkpt>
      <trkpt lat="47.50527" lon="6.79752">
        <ele>319</ele>
        <time>2015-04-06T10:29:27.000Z</time>
      </trkpt>
      <trkpt lat="47.50527" lon="6.79742">
        <ele>318</ele>
        <time>2015-04-06T10:29:28.000Z</time>
      </trkpt>
      <trkpt lat="47.50525" lon="6.7973">
        <ele>318</ele>
        <time>2015-04-06T10:29:29.000Z</time>
      </trkpt>
      <trkpt lat="47.50523" lon="6.79718">
        <ele>318</ele>
        <time>2015-04-06T10:29:30.000Z</time>
      </trkpt>
      <trkpt lat="47.50522" lon="6.79708">
        <ele>318</ele>
        <time>2015-04-06T10:29:31.000Z</time>
      </trkpt>
      <trkpt lat="47.5052" lon="6.79696">
        <ele>318</ele>
        <time>2015-04-06T10:29:32.000Z</time>
      </trkpt>
      <trkpt lat="47.50518" lon="6.79683">
        <ele>317</ele>
        <time>2015-04-06T10:29:33.000Z</time>
      </trkpt>
      <trkpt lat="47.50516" lon="6.79671">
        <ele>317</ele>
        <time>2015-04-06T10:29:34.000Z</time>
      </trkpt>
      <trkpt lat="47.5051" lon="6.79655">
        <ele>316</ele>
        <time>2015-04-06T10:29:35.000Z</time>
      </trkpt>
      <trkpt lat="47.50509" lon="6.79645">
        <ele>316</ele>
        <time>2015-04-06T10:29:36.000Z</time>
      </trkpt>
      <trkpt lat="47.50508" lon="6.79634">
        <ele>315</ele>
        <time>2015-04-06T10:29:37.000Z</time>
      </trkpt>
      <trkpt lat="47.50506" lon="6.79627">
        <ele>315</ele>
        <time>2015-04-06T10:29:38.000Z</time>
      </trkpt>
      <trkpt lat="47.50506" lon="6.79618">
        <ele>315</ele>
        <time>2015-04-06T10:29:39.000Z</time>
      </trkpt>
      <trkpt lat="47.5051" lon="6.79612">
        <ele>315</ele>
        <time>2015-04-06T10:29:40.000Z</time>
      </trkpt>
      <trkpt lat="47.50515" lon="6.79609">
        <ele>315</ele>
        <time>2015-04-06T10:29:41.000Z</time>
      </trkpt>
      <trkpt lat="47.50519" lon="6.79607">
        <ele>315</ele>
        <time>2015-04-06T10:29:42.000Z</time>
      </trkpt>
      <trkpt lat="47.50524" lon="6.79606">
        <ele>315</ele>
        <time>2015-04-06T10:29:43.000Z</time>
      </trkpt>
      <trkpt lat="47.50529" lon="6.79605">
        <ele>315</ele>
        <time>2015-04-06T10:29:44.000Z</time>
      </trkpt>
      <trkpt lat="47.50535" lon="6.79607">
        <ele>315</ele>
        <time>2015-04-06T10:29:45.000Z</time>
      </trkpt>
      <trkpt lat="47.50539" lon="6.79608">
        <ele>315</ele>
        <time>2015-04-06T10:29:46.000Z</time>
      </trkpt>
      <trkpt lat="47.50538" lon="6.79614">
        <ele>315</ele>
        <time>2015-04-06T10:29:47.000Z</time>
      </trkpt>
      <trkpt lat="47.50542" lon="6.79614">
        <ele>315</ele>
        <time>2015-04-06T10:29:48.000Z</time>
      </trkpt>
      <trkpt lat="47.50548" lon="6.79612">
        <ele>315</ele>
        <time>2015-04-06T10:29:49.000Z</time>
      </trkpt>
      <trkpt lat="47.50555" lon="6.79608">
        <ele>316</ele>
        <time>2015-04-06T10:29:50.000Z</time>
      </trkpt>
      <trkpt lat="47.50561" lon="6.79606">
        <ele>316</ele>
        <time>2015-04-06T10:29:51.000Z</time>
      </trkpt>
      <trkpt lat="47.50565" lon="6.79602">
        <ele>316</ele>
        <time>2015-04-06T10:29:52.001Z</time>
      </trkpt>
      <trkpt lat="47.50569" lon="6.79594">
        <ele>316</ele>
        <time>2015-04-06T10:29:53.001Z</time>
      </trkpt>
      <trkpt lat="47.5057" lon="6.79589">
        <ele>316</ele>
        <time>2015-04-06T10:29:54.000Z</time>
      </trkpt>
      <trkpt lat="47.50569" lon="6.79579">
        <ele>316</ele>
        <time>2015-04-06T10:29:55.000Z</time>
      </trkpt>
      <trkpt lat="47.50573" lon="6.79567">
        <ele>316</ele>
        <time>2015-04-06T10:29:56.000Z</time>
      </trkpt>
      <trkpt lat="47.50577" lon="6.79559">
        <ele>316</ele>
        <time>2015-04-06T10:29:57.000Z</time>
      </trkpt>
      <trkpt lat="47.50575" lon="6.79553">
        <ele>315</ele>
        <time>2015-04-06T10:29:58.000Z</time>
      </trkpt>
      <trkpt lat="47.50575" lon="6.79549">
        <ele>315</ele>
        <time>2015-04-06T10:29:59.000Z</time>
      </trkpt>
      <trkpt lat="47.50573" lon="6.79544">
        <ele>315</ele>
        <time>2015-04-06T10:30:00.000Z</time>
      </trkpt>
      <trkpt lat="47.50573" lon="6.79538">
        <ele>316</ele>
        <time>2015-04-06T10:30:01.000Z</time>
      </trkpt>
      <trkpt lat="47.50573" lon="6.79531">
        <ele>316</ele>
        <time>2015-04-06T10:30:02.000Z</time>
      </trkpt>
      <trkpt lat="47.50575" lon="6.79523">
        <ele>316</ele>
        <time>2015-04-06T10:30:03.000Z</time>
      </trkpt>
      <trkpt lat="47.50577" lon="6.7952">
        <ele>316</ele>
        <time>2015-04-06T10:30:04.000Z</time>
      </trkpt>
      <trkpt lat="47.50583" lon="6.79516">
        <ele>316</ele>
        <time>2015-04-06T10:30:05.000Z</time>
      </trkpt>
      <trkpt lat="47.50586" lon="6.79514">
        <ele>316</ele>
        <time>2015-04-06T10:30:06.000Z</time>
      </trkpt>
      <trkpt lat="47.50587" lon="6.79506">
        <ele>316</ele>
        <time>2015-04-06T10:30:07.000Z</time>
      </trkpt>
      <trkpt lat="47.50587" lon="6.79499">
        <ele>316</ele>
        <time>2015-04-06T10:30:08.000Z</time>
      </trkpt>
      <trkpt lat="47.50587" lon="6.79494">
        <ele>316</ele>
        <time>2015-04-06T10:30:09.000Z</time>
      </trkpt>
      <trkpt lat="47.50589" lon="6.79488">
        <ele>316</ele>
        <time>2015-04-06T10:30:10.000Z</time>
      </trkpt>
      <trkpt lat="47.50592" lon="6.79482">
        <ele>315</ele>
        <time>2015-04-06T10:30:11.000Z</time>
      </trkpt>
      <trkpt lat="47.50595" lon="6.79475">
        <ele>315</ele>
        <time>2015-04-06T10:30:12.000Z</time>
      </trkpt>
      <trkpt lat="47.50598" lon="6.79467">
        <ele>315</ele>
        <time>2015-04-06T10:30:13.000Z</time>
      </trkpt>
      <trkpt lat="47.506" lon="6.79461">
        <ele>315</ele>
        <time>2015-04-06T10:30:14.000Z</time>
      </trkpt>
      <trkpt lat="47.50603" lon="6.79456">
        <ele>315</ele>
        <time>2015-04-06T10:30:15.000Z</time>
      </trkpt>
      <trkpt lat="47.50606" lon="6.7945">
        <ele>315</ele>
        <time>2015-04-06T10:30:16.000Z</time>
      </trkpt>
      <trkpt lat="47.50611" lon="6.79447">
        <ele>315</ele>
        <time>2015-04-06T10:30:17.000Z</time>
      </trkpt>
      <trkpt lat="47.50615" lon="6.79446">
        <ele>315</ele>
        <time>2015-04-06T10:30:18.000Z</time>
      </trkpt>
      <trkpt lat="47.50617" lon="6.79439">
        <ele>315</ele>
        <time>2015-04-06T10:30:19.000Z</time>
      </trkpt>
      <trkpt lat="47.50621" lon="6.79435">
        <ele>315</ele>
        <time>2015-04-06T10:30:20.000Z</time>
      </trkpt>
      <trkpt lat="47.50625" lon="6.79427">
        <ele>315</ele>
        <time>2015-04-06T10:30:21.000Z</time>
      </trkpt>
      <trkpt lat="47.50629" lon="6.79422">
        <ele>314</ele>
        <time>2015-04-06T10:30:22.000Z</time>
      </trkpt>
      <trkpt lat="47.50633" lon="6.79414">
        <ele>314</ele>
        <time>2015-04-06T10:30:23.000Z</time>
      </trkpt>
      <trkpt lat="47.5064" lon="6.79408">
        <ele>314</ele>
        <time>2015-04-06T10:30:24.000Z</time>
      </trkpt>
      <trkpt lat="47.50646" lon="6.79401">
        <ele>314</ele>
        <time>2015-04-06T10:30:25.000Z</time>
      </trkpt>
      <trkpt lat="47.50652" lon="6.79397">
        <ele>314</ele>
        <time>2015-04-06T10:30:26.000Z</time>
      </trkpt>
      <trkpt lat="47.50657" lon="6.79394">
        <ele>314</ele>
        <time>2015-04-06T10:30:27.000Z</time>
      </trkpt>
      <trkpt lat="47.50662" lon="6.79387">
        <ele>314</ele>
        <time>2015-04-06T10:30:28.000Z</time>
      </trkpt>
      <trkpt lat="47.50667" lon="6.79387">
        <ele>314</ele>
        <time>2015-04-06T10:30:29.000Z</time>
      </trkpt>
      <trkpt lat="47.50671" lon="6.79384">
        <ele>314</ele>
        <time>2015-04-06T10:30:30.000Z</time>
      </trkpt>
      <trkpt lat="47.50675" lon="6.79378">
        <ele>314</ele>
        <time>2015-04-06T10:30:31.000Z</time>
      </trkpt>
      <trkpt lat="47.5068" lon="6.79372">
        <ele>314</ele>
        <time>2015-04-06T10:30:32.000Z</time>
      </trkpt>
      <trkpt lat="47.50684" lon="6.79367">
        <ele>314</ele>
        <time>2015-04-06T10:30:33.000Z</time>
      </trkpt>
      <trkpt lat="47.50688" lon="6.79363">
        <ele>314</ele>
        <time>2015-04-06T10:30:34.000Z</time>
      </trkpt>
      <trkpt lat="47.50693" lon="6.7936">
        <ele>314</ele>
        <time>2015-04-06T10:30:35.000Z</time>
      </trkpt>
      <trkpt lat="47.50695" lon="6.79356">
        <ele>314</ele>
        <time>2015-04-06T10:30:36.000Z</time>
      </trkpt>
      <trkpt lat="47.507" lon="6.79352">
        <ele>314</ele>
        <time>2015-04-06T10:30:37.000Z</time>
      </trkpt>
      <trkpt lat="47.50706" lon="6.79346">
        <ele>314</ele>
        <time>2015-04-06T10:30:38.000Z</time>
      </trkpt>
      <trkpt lat="47.50711" lon="6.79343">
        <ele>314</ele>
        <time>2015-04-06T10:30:39.000Z</time>
      </trkpt>
      <trkpt lat="47.50717" lon="6.79338">
        <ele>314</ele>
        <time>2015-04-06T10:30:40.000Z</time>
      </trkpt>
      <trkpt lat="47.50722" lon="6.79333">
        <ele>314</ele>
        <time>2015-04-06T10:30:41.000Z</time>
      </trkpt>
      <trkpt lat="47.50727" lon="6.79328">
        <ele>314</ele>
        <time>2015-04-06T10:30:42.000Z</time>
      </trkpt>
      <trkpt lat="47.50733" lon="6.79322">
        <ele>314</ele>
        <time>2015-04-06T10:30:43.000Z</time>
      </trkpt>
      <trkpt lat="47.50738" lon="6.79317">
        <ele>314</ele>
        <time>2015-04-06T10:30:44.000Z</time>
      </trkpt>
      <trkpt lat="47.5074" lon="6.79313">
        <ele>314</ele>
        <time>2015-04-06T10:30:45.000Z</time>
      </trkpt>
      <trkpt lat="47.50744" lon="6.79309">
        <ele>314</ele>
        <time>2015-04-06T10:30:45.999Z</time>
      </trkpt>
      <trkpt lat="47.50743" lon="6.79301">
        <ele>314</ele>
        <time>2015-04-06T10:30:47.001Z</time>
      </trkpt>
      <trkpt lat="47.50746" lon="6.79294">
        <ele>314</ele>
        <time>2015-04-06T10:30:48.000Z</time>
      </trkpt>
      <trkpt lat="47.50749" lon="6.79286">
        <ele>314</ele>
        <time>2015-04-06T10:30:49.000Z</time>
      </trkpt>
      <trkpt lat="47.50752" lon="6.79275">
        <ele>313</ele>
        <time>2015-04-06T10:30:50.000Z</time>
      </trkpt>
      <trkpt lat="47.50757" lon="6.79269">
        <ele>313</ele>
        <time>2015-04-06T10:30:51.000Z</time>
      </trkpt>
      <trkpt lat="47.50761" lon="6.79261">
        <ele>313</ele>
        <time>2015-04-06T10:30:52.000Z</time>
      </trkpt>
      <trkpt lat="47.50762" lon="6.79256">
        <ele>313</ele>
        <time>2015-04-06T10:30:53.000Z</time>
      </trkpt>
      <trkpt lat="47.50763" lon="6.7925">
        <ele>313</ele>
        <time>2015-04-06T10:30:54.000Z</time>
      </trkpt>
      <trkpt lat="47.50764" lon="6.79244">
        <ele>313</ele>
        <time>2015-04-06T10:30:55.000Z</time>
      </trkpt>
      <trkpt lat="47.50764" lon="6.79237">
        <ele>313</ele>
        <time>2015-04-06T10:30:56.000Z</time>
      </trkpt>
      <trkpt lat="47.50764" lon="6.79231">
        <ele>313</ele>
        <time>2015-04-06T10:30:57.000Z</time>
      </trkpt>
      <trkpt lat="47.50764" lon="6.79223">
        <ele>313</ele>
        <time>2015-04-06T10:30:58.000Z</time>
      </trkpt>
      <trkpt lat="47.50766" lon="6.79219">
        <ele>313</ele>
        <time>2015-04-06T10:30:59.000Z</time>
      </trkpt>
      <trkpt lat="47.50766" lon="6.79214">
        <ele>314</ele>
        <time>2015-04-06T10:31:00.000Z</time>
      </trkpt>
      <trkpt lat="47.50766" lon="6.79209">
        <ele>314</ele>
        <time>2015-04-06T10:31:01.000Z</time>
      </trkpt>
      <trkpt lat="47.50767" lon="6.79204">
        <ele>314</ele>
        <time>2015-04-06T10:31:02.000Z</time>
      </trkpt>
      <trkpt lat="47.50769" lon="6.79198">
        <ele>314</ele>
        <time>2015-04-06T10:31:03.000Z</time>
      </trkpt>
      <trkpt lat="47.50771" lon="6.79192">
        <ele>314</ele>
        <time>2015-04-06T10:31:04.000Z</time>
      </trkpt>
      <trkpt lat="47.50774" lon="6.79184">
        <ele>314</ele>
        <time>2015-04-06T10:31:05.000Z</time>
      </trkpt>
      <trkpt lat="47.50777" lon="6.79177">
        <ele>314</ele>
        <time>2015-04-06T10:31:06.000Z</time>
      </trkpt>
      <trkpt lat="47.5078" lon="6.79169">
        <ele>314</ele>
        <time>2015-04-06T10:31:07.000Z</time>
      </trkpt>
      <trkpt lat="47.50786" lon="6.79148">
        <ele>314</ele>
        <time>2015-04-06T10:31:08.000Z</time>
      </trkpt>
      <trkpt lat="47.50786" lon="6.79137">
        <ele>314</ele>
        <time>2015-04-06T10:31:09.000Z</time>
      </trkpt>
      <trkpt lat="47.50784" lon="6.79129">
        <ele>314</ele>
        <time>2015-04-06T10:31:10.000Z</time>
      </trkpt>
      <trkpt lat="47.50783" lon="6.7912">
        <ele>314</ele>
        <time>2015-04-06T10:31:11.000Z</time>
      </trkpt>
      <trkpt lat="47.50784" lon="6.79113">
        <ele>314</ele>
        <time>2015-04-06T10:31:12.000Z</time>
      </trkpt>
      <trkpt lat="47.50787" lon="6.79106">
        <ele>314</ele>
        <time>2015-04-06T10:31:13.000Z</time>
      </trkpt>
      <trkpt lat="47.50786" lon="6.79097">
        <ele>314</ele>
        <time>2015-04-06T10:31:14.000Z</time>
      </trkpt>
      <trkpt lat="47.50788" lon="6.79086">
        <ele>314</ele>
        <time>2015-04-06T10:31:15.000Z</time>
      </trkpt>
      <trkpt lat="47.50783" lon="6.79074">
        <ele>315</ele>
        <time>2015-04-06T10:31:16.000Z</time>
      </trkpt>
      <trkpt lat="47.50783" lon="6.79069">
        <ele>315</ele>
        <time>2015-04-06T10:31:18.000Z</time>
      </trkpt>
      <trkpt lat="47.50787" lon="6.79063">
        <ele>315</ele>
        <time>2015-04-06T10:31:19.000Z</time>
      </trkpt>
      <trkpt lat="47.50787" lon="6.79054">
        <ele>315</ele>
        <time>2015-04-06T10:31:20.000Z</time>
      </trkpt>
      <trkpt lat="47.50788" lon="6.79042">
        <ele>315</ele>
        <time>2015-04-06T10:31:21.000Z</time>
      </trkpt>
      <trkpt lat="47.50788" lon="6.79034">
        <ele>315</ele>
        <time>2015-04-06T10:31:22.000Z</time>
      </trkpt>
      <trkpt lat="47.50789" lon="6.79024">
        <ele>315</ele>
        <time>2015-04-06T10:31:23.000Z</time>
      </trkpt>
      <trkpt lat="47.50788" lon="6.79012">
        <ele>315</ele>
        <time>2015-04-06T10:31:24.000Z</time>
      </trkpt>
      <trkpt lat="47.50788" lon="6.79001">
        <ele>315</ele>
        <time>2015-04-06T10:31:25.000Z</time>
      </trkpt>
      <trkpt lat="47.50789" lon="6.78994">
        <ele>316</ele>
        <time>2015-04-06T10:31:26.000Z</time>
      </trkpt>
      <trkpt lat="47.50791" lon="6.78984">
        <ele>316</ele>
        <time>2015-04-06T10:31:27.000Z</time>
      </trkpt>
      <trkpt lat="47.5079" lon="6.7898">
        <ele>316</ele>
        <time>2015-04-06T10:31:28.000Z</time>
      </trkpt>
      <trkpt lat="47.50789" lon="6.78969">
        <ele>316</ele>
        <time>2015-04-06T10:31:29.000Z</time>
      </trkpt>
      <trkpt lat="47.50791" lon="6.7896">
        <ele>316</ele>
        <time>2015-04-06T10:31:30.000Z</time>
      </trkpt>
      <trkpt lat="47.50793" lon="6.78953">
        <ele>316</ele>
        <time>2015-04-06T10:31:31.000Z</time>
      </trkpt>
      <trkpt lat="47.50795" lon="6.78948">
        <ele>316</ele>
        <time>2015-04-06T10:31:32.000Z</time>
      </trkpt>
      <trkpt lat="47.50795" lon="6.78942">
        <ele>316</ele>
        <time>2015-04-06T10:31:33.000Z</time>
      </trkpt>
      <trkpt lat="47.50793" lon="6.78937">
        <ele>316</ele>
        <time>2015-04-06T10:31:34.000Z</time>
      </trkpt>
      <trkpt lat="47.50797" lon="6.7893">
        <ele>316</ele>
        <time>2015-04-06T10:31:35.000Z</time>
      </trkpt>
      <trkpt lat="47.50801" lon="6.78926">
        <ele>316</ele>
        <time>2015-04-06T10:31:36.000Z</time>
      </trkpt>
      <trkpt lat="47.50805" lon="6.78918">
        <ele>316</ele>
        <time>2015-04-06T10:31:37.000Z</time>
      </trkpt>
      <trkpt lat="47.5081" lon="6.78911">
        <ele>315</ele>
        <time>2015-04-06T10:31:38.000Z</time>
      </trkpt>
      <trkpt lat="47.5081" lon="6.78902">
        <ele>315</ele>
        <time>2015-04-06T10:31:39.000Z</time>
      </trkpt>
      <trkpt lat="47.50811" lon="6.78893">
        <ele>315</ele>
        <time>2015-04-06T10:31:40.000Z</time>
      </trkpt>
      <trkpt lat="47.5081" lon="6.78881">
        <ele>315</ele>
        <time>2015-04-06T10:31:41.000Z</time>
      </trkpt>
      <trkpt lat="47.50808" lon="6.78869">
        <ele>315</ele>
        <time>2015-04-06T10:31:42.000Z</time>
      </trkpt>
      <trkpt lat="47.50808" lon="6.78857">
        <ele>315</ele>
        <time>2015-04-06T10:31:43.000Z</time>
      </trkpt>
      <trkpt lat="47.50806" lon="6.78847">
        <ele>315</ele>
        <time>2015-04-06T10:31:44.000Z</time>
      </trkpt>
      <trkpt lat="47.50807" lon="6.78842">
        <ele>315</ele>
        <time>2015-04-06T10:31:45.000Z</time>
      </trkpt>
      <trkpt lat="47.50805" lon="6.78835">
        <ele>315</ele>
        <time>2015-04-06T10:31:46.000Z</time>
      </trkpt>
      <trkpt lat="47.50802" lon="6.78824">
        <ele>315</ele>
        <time>2015-04-06T10:31:47.000Z</time>
      </trkpt>
      <trkpt lat="47.508" lon="6.78817">
        <ele>315</ele>
        <time>2015-04-06T10:31:48.000Z</time>
      </trkpt>
      <trkpt lat="47.50801" lon="6.7881">
        <ele>315</ele>
        <time>2015-04-06T10:31:49.000Z</time>
      </trkpt>
      <trkpt lat="47.50802" lon="6.78803">
        <ele>315</ele>
        <time>2015-04-06T10:31:50.000Z</time>
      </trkpt>
      <trkpt lat="47.50802" lon="6.78798">
        <ele>315</ele>
        <time>2015-04-06T10:31:51.000Z</time>
      </trkpt>
      <trkpt lat="47.50804" lon="6.7879">
        <ele>315</ele>
        <time>2015-04-06T10:31:52.000Z</time>
      </trkpt>
      <trkpt lat="47.50807" lon="6.78785">
        <ele>315</ele>
        <time>2015-04-06T10:31:53.000Z</time>
      </trkpt>
      <trkpt lat="47.50807" lon="6.78779">
        <ele>315</ele>
        <time>2015-04-06T10:31:54.000Z</time>
      </trkpt>
      <trkpt lat="47.50807" lon="6.78773">
        <ele>315</ele>
        <time>2015-04-06T10:31:55.000Z</time>
      </trkpt>
      <trkpt lat="47.50808" lon="6.78768">
        <ele>315</ele>
        <time>2015-04-06T10:31:56.000Z</time>
      </trkpt>
      <trkpt lat="47.50809" lon="6.78762">
        <ele>315</ele>
        <time>2015-04-06T10:31:57.000Z</time>
      </trkpt>
      <trkpt lat="47.5081" lon="6.78756">
        <ele>315</ele>
        <time>2015-04-06T10:31:58.000Z</time>
      </trkpt>
      <trkpt lat="47.50811" lon="6.7875">
        <ele>315</ele>
        <time>2015-04-06T10:31:59.000Z</time>
      </trkpt>
      <trkpt lat="47.50812" lon="6.78743">
        <ele>315</ele>
        <time>2015-04-06T10:32:00.000Z</time>
      </trkpt>
      <trkpt lat="47.50813" lon="6.78736">
        <ele>315</ele>
        <time>2015-04-06T10:32:01.000Z</time>
      </trkpt>
      <trkpt lat="47.50813" lon="6.78729">
        <ele>315</ele>
        <time>2015-04-06T10:32:02.000Z</time>
      </trkpt>
      <trkpt lat="47.50813" lon="6.78721">
        <ele>316</ele>
        <time>2015-04-06T10:32:03.000Z</time>
      </trkpt>
      <trkpt lat="47.50813" lon="6.78712">
        <ele>316</ele>
        <time>2015-04-06T10:32:04.000Z</time>
      </trkpt>
      <trkpt lat="47.50813" lon="6.78705">
        <ele>316</ele>
        <time>2015-04-06T10:32:05.000Z</time>
      </trkpt>
      <trkpt lat="47.50812" lon="6.78697">
        <ele>316</ele>
        <time>2015-04-06T10:32:06.000Z</time>
      </trkpt>
      <trkpt lat="47.50812" lon="6.7869">
        <ele>316</ele>
        <time>2015-04-06T10:32:07.000Z</time>
      </trkpt>
      <trkpt lat="47.50812" lon="6.78686">
        <ele>316</ele>
        <time>2015-04-06T10:32:08.000Z</time>
      </trkpt>
      <trkpt lat="47.50815" lon="6.78684">
        <ele>316</ele>
        <time>2015-04-06T10:32:10.000Z</time>
      </trkpt>
      <trkpt lat="47.50818" lon="6.78685">
        <ele>316</ele>
        <time>2015-04-06T10:32:11.000Z</time>
      </trkpt>
      <trkpt lat="47.50823" lon="6.78688">
        <ele>316</ele>
        <time>2015-04-06T10:32:12.000Z</time>
      </trkpt>
      <trkpt lat="47.50827" lon="6.78691">
        <ele>316</ele>
        <time>2015-04-06T10:32:13.000Z</time>
      </trkpt>
      <trkpt lat="47.50831" lon="6.78693">
        <ele>315</ele>
        <time>2015-04-06T10:32:14.000Z</time>
      </trkpt>
      <trkpt lat="47.50835" lon="6.78696">
        <ele>316</ele>
        <time>2015-04-06T10:32:15.000Z</time>
      </trkpt>
      <trkpt lat="47.50838" lon="6.78698">
        <ele>316</ele>
        <time>2015-04-06T10:32:16.000Z</time>
      </trkpt>
      <trkpt lat="47.50842" lon="6.78699">
        <ele>316</ele>
        <time>2015-04-06T10:32:17.000Z</time>
      </trkpt>
      <trkpt lat="47.50846" lon="6.78701">
        <ele>316</ele>
        <time>2015-04-06T10:32:18.000Z</time>
      </trkpt>
      <trkpt lat="47.5085" lon="6.78701">
        <ele>316</ele>
        <time>2015-04-06T10:32:19.000Z</time>
      </trkpt>
      <trkpt lat="47.50854" lon="6.78701">
        <ele>316</ele>
        <time>2015-04-06T10:32:20.000Z</time>
      </trkpt>
      <trkpt lat="47.50859" lon="6.78702">
        <ele>316</ele>
        <time>2015-04-06T10:32:21.000Z</time>
      </trkpt>
      <trkpt lat="47.50863" lon="6.78703">
        <ele>316</ele>
        <time>2015-04-06T10:32:22.000Z</time>
      </trkpt>
      <trkpt lat="47.50867" lon="6.78703">
        <ele>316</ele>
        <time>2015-04-06T10:32:22.999Z</time>
      </trkpt>
      <trkpt lat="47.50876" lon="6.78705">
        <ele>317</ele>
        <time>2015-04-06T10:32:24.000Z</time>
      </trkpt>
      <trkpt lat="47.50883" lon="6.78709">
        <ele>317</ele>
        <time>2015-04-06T10:32:25.000Z</time>
      </trkpt>
      <trkpt lat="47.50889" lon="6.78711">
        <ele>317</ele>
        <time>2015-04-06T10:32:26.000Z</time>
      </trkpt>
      <trkpt lat="47.5089" lon="6.78711">
        <ele>317</ele>
        <time>2015-04-06T10:32:27.000Z</time>
      </trkpt>
      <trkpt lat="47.50893" lon="6.78714">
        <ele>317</ele>
        <time>2015-04-06T10:32:28.000Z</time>
      </trkpt>
      <trkpt lat="47.50897" lon="6.78715">
        <ele>317</ele>
        <time>2015-04-06T10:32:29.000Z</time>
      </trkpt>
      <trkpt lat="47.50901" lon="6.78717">
        <ele>317</ele>
        <time>2015-04-06T10:32:30.000Z</time>
      </trkpt>
      <trkpt lat="47.50904" lon="6.7872">
        <ele>317</ele>
        <time>2015-04-06T10:32:31.000Z</time>
      </trkpt>
      <trkpt lat="47.50908" lon="6.78724">
        <ele>317</ele>
        <time>2015-04-06T10:32:32.000Z</time>
      </trkpt>
      <trkpt lat="47.50911" lon="6.78727">
        <ele>318</ele>
        <time>2015-04-06T10:32:33.000Z</time>
      </trkpt>
      <trkpt lat="47.50915" lon="6.78729">
        <ele>318</ele>
        <time>2015-04-06T10:32:34.000Z</time>
      </trkpt>
      <trkpt lat="47.50918" lon="6.78726">
        <ele>319</ele>
        <time>2015-04-06T10:32:36.000Z</time>
      </trkpt>
      <trkpt lat="47.5092" lon="6.78723">
        <ele>319</ele>
        <time>2015-04-06T10:32:37.000Z</time>
      </trkpt>
      <trkpt lat="47.50922" lon="6.78721">
        <ele>319</ele>
        <time>2015-04-06T10:32:38.000Z</time>
      </trkpt>
      <trkpt lat="47.50923" lon="6.78718">
        <ele>319</ele>
        <time>2015-04-06T10:32:39.000Z</time>
      </trkpt>
      <trkpt lat="47.50924" lon="6.78715">
        <ele>319</ele>
        <time>2015-04-06T10:32:40.000Z</time>
      </trkpt>
      <trkpt lat="47.50927" lon="6.78711">
        <ele>319</ele>
        <time>2015-04-06T10:32:41.000Z</time>
      </trkpt>
      <trkpt lat="47.5093" lon="6.78706">
        <ele>319</ele>
        <time>2015-04-06T10:32:42.000Z</time>
      </trkpt>
      <trkpt lat="47.50933" lon="6.787">
        <ele>319</ele>
        <time>2015-04-06T10:32:43.000Z</time>
      </trkpt>
      <trkpt lat="47.50935" lon="6.78694">
        <ele>319</ele>
        <time>2015-04-06T10:32:44.000Z</time>
      </trkpt>
      <trkpt lat="47.50936" lon="6.78688">
        <ele>319</ele>
        <time>2015-04-06T10:32:45.000Z</time>
      </trkpt>
      <trkpt lat="47.50938" lon="6.78677">
        <ele>319</ele>
        <time>2015-04-06T10:32:46.000Z</time>
      </trkpt>
      <trkpt lat="47.50939" lon="6.7867">
        <ele>319</ele>
        <time>2015-04-06T10:32:47.000Z</time>
      </trkpt>
      <trkpt lat="47.5094" lon="6.78663">
        <ele>319</ele>
        <time>2015-04-06T10:32:48.000Z</time>
      </trkpt>
      <trkpt lat="47.50941" lon="6.78658">
        <ele>319</ele>
        <time>2015-04-06T10:32:49.000Z</time>
      </trkpt>
      <trkpt lat="47.50942" lon="6.78652">
        <ele>319</ele>
        <time>2015-04-06T10:32:50.000Z</time>
      </trkpt>
      <trkpt lat="47.50944" lon="6.78639">
        <ele>319</ele>
        <time>2015-04-06T10:32:52.000Z</time>
      </trkpt>
      <trkpt lat="47.50943" lon="6.78635">
        <ele>319</ele>
        <time>2015-04-06T10:32:53.000Z</time>
      </trkpt>
      <trkpt lat="47.50944" lon="6.7863">
        <ele>319</ele>
        <time>2015-04-06T10:32:54.000Z</time>
      </trkpt>
      <trkpt lat="47.50944" lon="6.78626">
        <ele>318</ele>
        <time>2015-04-06T10:32:55.000Z</time>
      </trkpt>
      <trkpt lat="47.50946" lon="6.78619">
        <ele>318</ele>
        <time>2015-04-06T10:32:56.000Z</time>
      </trkpt>
      <trkpt lat="47.50947" lon="6.78609">
        <ele>318</ele>
        <time>2015-04-06T10:32:57.000Z</time>
      </trkpt>
      <trkpt lat="47.50948" lon="6.78598">
        <ele>318</ele>
        <time>2015-04-06T10:32:58.000Z</time>
      </trkpt>
      <trkpt lat="47.50948" lon="6.78592">
        <ele>318</ele>
        <time>2015-04-06T10:32:59.000Z</time>
      </trkpt>
      <trkpt lat="47.50949" lon="6.78585">
        <ele>318</ele>
        <time>2015-04-06T10:33:00.000Z</time>
      </trkpt>
      <trkpt lat="47.5095" lon="6.78578">
        <ele>317</ele>
        <time>2015-04-06T10:33:01.000Z</time>
      </trkpt>
      <trkpt lat="47.50951" lon="6.7857">
        <ele>317</ele>
        <time>2015-04-06T10:33:02.000Z</time>
      </trkpt>
      <trkpt lat="47.50951" lon="6.78562">
        <ele>317</ele>
        <time>2015-04-06T10:33:03.000Z</time>
      </trkpt>
      <trkpt lat="47.50951" lon="6.78554">
        <ele>317</ele>
        <time>2015-04-06T10:33:04.000Z</time>
      </trkpt>
      <trkpt lat="47.50952" lon="6.78545">
        <ele>317</ele>
        <time>2015-04-06T10:33:05.000Z</time>
      </trkpt>
      <trkpt lat="47.50952" lon="6.78537">
        <ele>317</ele>
        <time>2015-04-06T10:33:06.000Z</time>
      </trkpt>
      <trkpt lat="47.50953" lon="6.78528">
        <ele>317</ele>
        <time>2015-04-06T10:33:07.000Z</time>
      </trkpt>
      <trkpt lat="47.50954" lon="6.78522">
        <ele>317</ele>
        <time>2015-04-06T10:33:08.000Z</time>
      </trkpt>
      <trkpt lat="47.50954" lon="6.78514">
        <ele>317</ele>
        <time>2015-04-06T10:33:09.000Z</time>
      </trkpt>
      <trkpt lat="47.50954" lon="6.78505">
        <ele>317</ele>
        <time>2015-04-06T10:33:10.000Z</time>
      </trkpt>
      <trkpt lat="47.50955" lon="6.78496">
        <ele>316</ele>
        <time>2015-04-06T10:33:11.000Z</time>
      </trkpt>
      <trkpt lat="47.50955" lon="6.78488">
        <ele>316</ele>
        <time>2015-04-06T10:33:12.000Z</time>
      </trkpt>
      <trkpt lat="47.50954" lon="6.7848">
        <ele>316</ele>
        <time>2015-04-06T10:33:13.000Z</time>
      </trkpt>
      <trkpt lat="47.50954" lon="6.78473">
        <ele>316</ele>
        <time>2015-04-06T10:33:14.000Z</time>
      </trkpt>
      <trkpt lat="47.50954" lon="6.78464">
        <ele>316</ele>
        <time>2015-04-06T10:33:15.000Z</time>
      </trkpt>
      <trkpt lat="47.50953" lon="6.78454">
        <ele>316</ele>
        <time>2015-04-06T10:33:16.000Z</time>
      </trkpt>
      <trkpt lat="47.50953" lon="6.78443">
        <ele>316</ele>
        <time>2015-04-06T10:33:17.000Z</time>
      </trkpt>
      <trkpt lat="47.50954" lon="6.78433">
        <ele>316</ele>
        <time>2015-04-06T10:33:18.000Z</time>
      </trkpt>
      <trkpt lat="47.50953" lon="6.78424">
        <ele>316</ele>
        <time>2015-04-06T10:33:19.000Z</time>
      </trkpt>
      <trkpt lat="47.50955" lon="6.78418">
        <ele>316</ele>
        <time>2015-04-06T10:33:20.000Z</time>
      </trkpt>
      <trkpt lat="47.50957" lon="6.78411">
        <ele>316</ele>
        <time>2015-04-06T10:33:21.000Z</time>
      </trkpt>
      <trkpt lat="47.50958" lon="6.78404">
        <ele>316</ele>
        <time>2015-04-06T10:33:22.000Z</time>
      </trkpt>
      <trkpt lat="47.50961" lon="6.78397">
        <ele>316</ele>
        <time>2015-04-06T10:33:23.000Z</time>
      </trkpt>
      <trkpt lat="47.50963" lon="6.78396">
        <ele>316</ele>
        <time>2015-04-06T10:33:24.000Z</time>
      </trkpt>
      <trkpt lat="47.50966" lon="6.78394">
        <ele>316</ele>
        <time>2015-04-06T10:33:25.000Z</time>
      </trkpt>
      <trkpt lat="47.50966" lon="6.7839">
        <ele>316</ele>
        <time>2015-04-06T10:33:28.000Z</time>
      </trkpt>
      <trkpt lat="47.50967" lon="6.78387">
        <ele>316</ele>
        <time>2015-04-06T10:33:29.000Z</time>
      </trkpt>
      <trkpt lat="47.50969" lon="6.78384">
        <ele>316</ele>
        <time>2015-04-06T10:33:31.000Z</time>
      </trkpt>
      <trkpt lat="47.5097" lon="6.78383">
        <ele>316</ele>
        <time>2015-04-06T10:33:32.000Z</time>
      </trkpt>
      <trkpt lat="47.50973" lon="6.78378">
        <ele>316</ele>
        <time>2015-04-06T10:33:36.000Z</time>
      </trkpt>
      <trkpt lat="47.50973" lon="6.78376">
        <ele>316</ele>
        <time>2015-04-06T10:33:37.000Z</time>
      </trkpt>
      <trkpt lat="47.50972" lon="6.7837">
        <ele>316</ele>
        <time>2015-04-06T10:33:42.000Z</time>
      </trkpt>
      <trkpt lat="47.50972" lon="6.78369">
        <ele>316</ele>
        <time>2015-04-06T10:33:43.000Z</time>
      </trkpt>
      <trkpt lat="47.50975" lon="6.78365">
        <ele>316</ele>
        <time>2015-04-06T10:33:45.000Z</time>
      </trkpt>
      <trkpt lat="47.50976" lon="6.78361">
        <ele>316</ele>
        <time>2015-04-06T10:33:46.000Z</time>
      </trkpt>
      <trkpt lat="47.50978" lon="6.78357">
        <ele>316</ele>
        <time>2015-04-06T10:33:47.000Z</time>
      </trkpt>
      <trkpt lat="47.5098" lon="6.78352">
        <ele>316</ele>
        <time>2015-04-06T10:33:48.000Z</time>
      </trkpt>
      <trkpt lat="47.50983" lon="6.78347">
        <ele>316</ele>
        <time>2015-04-06T10:33:49.000Z</time>
      </trkpt>
      <trkpt lat="47.50986" lon="6.78343">
        <ele>316</ele>
        <time>2015-04-06T10:33:50.000Z</time>
      </trkpt>
      <trkpt lat="47.50989" lon="6.7834">
        <ele>317</ele>
        <time>2015-04-06T10:33:51.000Z</time>
      </trkpt>
      <trkpt lat="47.50991" lon="6.78337">
        <ele>317</ele>
        <time>2015-04-06T10:33:52.000Z</time>
      </trkpt>
      <trkpt lat="47.50993" lon="6.78332">
        <ele>317</ele>
        <time>2015-04-06T10:33:53.000Z</time>
      </trkpt>
      <trkpt lat="47.50993" lon="6.78325">
        <ele>316</ele>
        <time>2015-04-06T10:33:54.000Z</time>
      </trkpt>
      <trkpt lat="47.50993" lon="6.78317">
        <ele>316</ele>
        <time>2015-04-06T10:33:55.000Z</time>
      </trkpt>
      <trkpt lat="47.50993" lon="6.7831">
        <ele>316</ele>
        <time>2015-04-06T10:33:56.000Z</time>
      </trkpt>
      <trkpt lat="47.50993" lon="6.78302">
        <ele>316</ele>
        <time>2015-04-06T10:33:57.000Z</time>
      </trkpt>
      <trkpt lat="47.50992" lon="6.78294">
        <ele>316</ele>
        <time>2015-04-06T10:33:58.000Z</time>
      </trkpt>
      <trkpt lat="47.50992" lon="6.78287">
        <ele>316</ele>
        <time>2015-04-06T10:33:59.000Z</time>
      </trkpt>
      <trkpt lat="47.50992" lon="6.7828">
        <ele>316</ele>
        <time>2015-04-06T10:34:00.000Z</time>
      </trkpt>
      <trkpt lat="47.50992" lon="6.78272">
        <ele>316</ele>
        <time>2015-04-06T10:34:01.000Z</time>
      </trkpt>
      <trkpt lat="47.50987" lon="6.78254">
        <ele>316</ele>
        <time>2015-04-06T10:34:02.000Z</time>
      </trkpt>
      <trkpt lat="47.50989" lon="6.78247">
        <ele>316</ele>
        <time>2015-04-06T10:34:03.000Z</time>
      </trkpt>
      <trkpt lat="47.50991" lon="6.78239">
        <ele>316</ele>
        <time>2015-04-06T10:34:04.000Z</time>
      </trkpt>
      <trkpt lat="47.5099" lon="6.78232">
        <ele>316</ele>
        <time>2015-04-06T10:34:05.000Z</time>
      </trkpt>
      <trkpt lat="47.5099" lon="6.78223">
        <ele>316</ele>
        <time>2015-04-06T10:34:06.000Z</time>
      </trkpt>
      <trkpt lat="47.50991" lon="6.78214">
        <ele>316</ele>
        <time>2015-04-06T10:34:07.000Z</time>
      </trkpt>
      <trkpt lat="47.50992" lon="6.78204">
        <ele>316</ele>
        <time>2015-04-06T10:34:08.000Z</time>
      </trkpt>
      <trkpt lat="47.50992" lon="6.78196">
        <ele>316</ele>
        <time>2015-04-06T10:34:09.000Z</time>
      </trkpt>
      <trkpt lat="47.50994" lon="6.78188">
        <ele>316</ele>
        <time>2015-04-06T10:34:10.000Z</time>
      </trkpt>
      <trkpt lat="47.50994" lon="6.78178">
        <ele>316</ele>
        <time>2015-04-06T10:34:11.000Z</time>
      </trkpt>
      <trkpt lat="47.50994" lon="6.7817">
        <ele>316</ele>
        <time>2015-04-06T10:34:12.000Z</time>
      </trkpt>
      <trkpt lat="47.50997" lon="6.78168">
        <ele>316</ele>
        <time>2015-04-06T10:34:13.000Z</time>
      </trkpt>
      <trkpt lat="47.50999" lon="6.78167">
        <ele>316</ele>
        <time>2015-04-06T10:34:14.000Z</time>
      </trkpt>
      <trkpt lat="47.50997" lon="6.78157">
        <ele>316</ele>
        <time>2015-04-06T10:34:15.000Z</time>
      </trkpt>
      <trkpt lat="47.51" lon="6.78155">
        <ele>316</ele>
        <time>2015-04-06T10:34:16.000Z</time>
      </trkpt>
      <trkpt lat="47.51002" lon="6.7815">
        <ele>317</ele>
        <time>2015-04-06T10:34:17.000Z</time>
      </trkpt>
      <trkpt lat="47.51005" lon="6.78151">
        <ele>317</ele>
        <time>2015-04-06T10:34:18.000Z</time>
      </trkpt>
      <trkpt lat="47.51007" lon="6.7815">
        <ele>317</ele>
        <time>2015-04-06T10:34:19.000Z</time>
      </trkpt>
      <trkpt lat="47.51011" lon="6.78148">
        <ele>318</ele>
        <time>2015-04-06T10:34:21.000Z</time>
      </trkpt>
      <trkpt lat="47.51015" lon="6.78149">
        <ele>318</ele>
        <time>2015-04-06T10:34:22.000Z</time>
      </trkpt>
      <trkpt lat="47.51018" lon="6.78149">
        <ele>318</ele>
        <time>2015-04-06T10:34:23.000Z</time>
      </trkpt>
      <trkpt lat="47.51021" lon="6.78149">
        <ele>318</ele>
        <time>2015-04-06T10:34:24.000Z</time>
      </trkpt>
      <trkpt lat="47.51023" lon="6.78149">
        <ele>318</ele>
        <time>2015-04-06T10:34:25.000Z</time>
      </trkpt>
      <trkpt lat="47.51026" lon="6.78149">
        <ele>318</ele>
        <time>2015-04-06T10:34:26.000Z</time>
      </trkpt>
      <trkpt lat="47.5103" lon="6.78149">
        <ele>318</ele>
        <time>2015-04-06T10:34:28.000Z</time>
      </trkpt>
      <trkpt lat="47.51033" lon="6.78149">
        <ele>318</ele>
        <time>2015-04-06T10:34:29.000Z</time>
      </trkpt>
      <trkpt lat="47.51035" lon="6.78154">
        <ele>318</ele>
        <time>2015-04-06T10:34:32.000Z</time>
      </trkpt>
      <trkpt lat="47.51035" lon="6.78156">
        <ele>318</ele>
        <time>2015-04-06T10:34:33.000Z</time>
      </trkpt>
      <trkpt lat="47.51038" lon="6.7816">
        <ele>319</ele>
        <time>2015-04-06T10:34:35.000Z</time>
      </trkpt>
      <trkpt lat="47.51041" lon="6.78162">
        <ele>319</ele>
        <time>2015-04-06T10:34:36.000Z</time>
      </trkpt>
      <trkpt lat="47.51045" lon="6.78164">
        <ele>319</ele>
        <time>2015-04-06T10:34:37.000Z</time>
      </trkpt>
      <trkpt lat="47.51049" lon="6.78165">
        <ele>319</ele>
        <time>2015-04-06T10:34:38.000Z</time>
      </trkpt>
      <trkpt lat="47.51052" lon="6.78166">
        <ele>319</ele>
        <time>2015-04-06T10:34:39.000Z</time>
      </trkpt>
      <trkpt lat="47.51056" lon="6.78167">
        <ele>319</ele>
        <time>2015-04-06T10:34:40.000Z</time>
      </trkpt>
      <trkpt lat="47.51058" lon="6.78168">
        <ele>319</ele>
        <time>2015-04-06T10:34:40.998Z</time>
      </trkpt>
      <trkpt lat="47.51063" lon="6.78167">
        <ele>320</ele>
        <time>2015-04-06T10:34:42.000Z</time>
      </trkpt>
      <trkpt lat="47.51066" lon="6.78167">
        <ele>320</ele>
        <time>2015-04-06T10:34:43.000Z</time>
      </trkpt>
      <trkpt lat="47.5107" lon="6.78167">
        <ele>320</ele>
        <time>2015-04-06T10:34:44.000Z</time>
      </trkpt>
      <trkpt lat="47.51073" lon="6.78167">
        <ele>320</ele>
        <time>2015-04-06T10:34:45.000Z</time>
      </trkpt>
      <trkpt lat="47.51077" lon="6.78167">
        <ele>320</ele>
        <time>2015-04-06T10:34:46.000Z</time>
      </trkpt>
      <trkpt lat="47.51081" lon="6.78167">
        <ele>321</ele>
        <time>2015-04-06T10:34:47.000Z</time>
      </trkpt>
      <trkpt lat="47.51085" lon="6.78167">
        <ele>321</ele>
        <time>2015-04-06T10:34:48.000Z</time>
      </trkpt>
      <trkpt lat="47.51089" lon="6.78168">
        <ele>322</ele>
        <time>2015-04-06T10:34:49.000Z</time>
      </trkpt>
      <trkpt lat="47.51092" lon="6.78168">
        <ele>322</ele>
        <time>2015-04-06T10:34:50.000Z</time>
      </trkpt>
      <trkpt lat="47.51096" lon="6.78168">
        <ele>323</ele>
        <time>2015-04-06T10:34:51.000Z</time>
      </trkpt>
      <trkpt lat="47.51099" lon="6.78169">
        <ele>323</ele>
        <time>2015-04-06T10:34:52.000Z</time>
      </trkpt>
      <trkpt lat="47.51102" lon="6.7817">
        <ele>323</ele>
        <time>2015-04-06T10:34:53.000Z</time>
      </trkpt>
      <trkpt lat="47.51106" lon="6.7817">
        <ele>324</ele>
        <time>2015-04-06T10:34:54.000Z</time>
      </trkpt>
      <trkpt lat="47.51109" lon="6.7817">
        <ele>324</ele>
        <time>2015-04-06T10:34:55.000Z</time>
      </trkpt>
      <trkpt lat="47.51111" lon="6.7817">
        <ele>324</ele>
        <time>2015-04-06T10:34:56.000Z</time>
      </trkpt>
      <trkpt lat="47.51114" lon="6.7817">
        <ele>324</ele>
        <time>2015-04-06T10:34:57.000Z</time>
      </trkpt>
      <trkpt lat="47.51117" lon="6.78171">
        <ele>325</ele>
        <time>2015-04-06T10:34:58.000Z</time>
      </trkpt>
      <trkpt lat="47.5112" lon="6.78175">
        <ele>325</ele>
        <time>2015-04-06T10:35:00.000Z</time>
      </trkpt>
      <trkpt lat="47.51123" lon="6.78176">
        <ele>325</ele>
        <time>2015-04-06T10:35:01.000Z</time>
      </trkpt>
      <trkpt lat="47.51125" lon="6.78176">
        <ele>325</ele>
        <time>2015-04-06T10:35:02.000Z</time>
      </trkpt>
      <trkpt lat="47.51127" lon="6.78175">
        <ele>325</ele>
        <time>2015-04-06T10:35:03.000Z</time>
      </trkpt>
      <trkpt lat="47.5113" lon="6.78174">
        <ele>326</ele>
        <time>2015-04-06T10:35:04.000Z</time>
      </trkpt>
      <trkpt lat="47.51132" lon="6.78172">
        <ele>326</ele>
        <time>2015-04-06T10:35:05.000Z</time>
      </trkpt>
      <trkpt lat="47.51134" lon="6.7817">
        <ele>326</ele>
        <time>2015-04-06T10:35:06.000Z</time>
      </trkpt>
      <trkpt lat="47.51137" lon="6.78167">
        <ele>326</ele>
        <time>2015-04-06T10:35:07.000Z</time>
      </trkpt>
      <trkpt lat="47.51139" lon="6.78165">
        <ele>326</ele>
        <time>2015-04-06T10:35:08.000Z</time>
      </trkpt>
      <trkpt lat="47.51142" lon="6.78162">
        <ele>326</ele>
        <time>2015-04-06T10:35:09.000Z</time>
      </trkpt>
      <trkpt lat="47.51145" lon="6.78159">
        <ele>326</ele>
        <time>2015-04-06T10:35:10.000Z</time>
      </trkpt>
      <trkpt lat="47.51147" lon="6.78156">
        <ele>326</ele>
        <time>2015-04-06T10:35:11.000Z</time>
      </trkpt>
      <trkpt lat="47.5115" lon="6.78153">
        <ele>326</ele>
        <time>2015-04-06T10:35:12.000Z</time>
      </trkpt>
      <trkpt lat="47.51151" lon="6.7815">
        <ele>326</ele>
        <time>2015-04-06T10:35:13.000Z</time>
      </trkpt>
      <trkpt lat="47.51153" lon="6.78146">
        <ele>326</ele>
        <time>2015-04-06T10:35:14.000Z</time>
      </trkpt>
      <trkpt lat="47.51154" lon="6.78142">
        <ele>326</ele>
        <time>2015-04-06T10:35:15.000Z</time>
      </trkpt>
      <trkpt lat="47.51156" lon="6.78138">
        <ele>326</ele>
        <time>2015-04-06T10:35:16.000Z</time>
      </trkpt>
      <trkpt lat="47.51157" lon="6.78135">
        <ele>326</ele>
        <time>2015-04-06T10:35:17.000Z</time>
      </trkpt>
      <trkpt lat="47.51158" lon="6.78131">
        <ele>326</ele>
        <time>2015-04-06T10:35:18.000Z</time>
      </trkpt>
      <trkpt lat="47.51159" lon="6.78127">
        <ele>326</ele>
        <time>2015-04-06T10:35:19.000Z</time>
      </trkpt>
      <trkpt lat="47.5116" lon="6.78122">
        <ele>326</ele>
        <time>2015-04-06T10:35:20.000Z</time>
      </trkpt>
      <trkpt lat="47.51161" lon="6.78118">
        <ele>326</ele>
        <time>2015-04-06T10:35:21.000Z</time>
      </trkpt>
      <trkpt lat="47.51162" lon="6.78114">
        <ele>326</ele>
        <time>2015-04-06T10:35:22.000Z</time>
      </trkpt>
      <trkpt lat="47.51164" lon="6.7811">
        <ele>326</ele>
        <time>2015-04-06T10:35:23.000Z</time>
      </trkpt>
      <trkpt lat="47.51166" lon="6.78106">
        <ele>326</ele>
        <time>2015-04-06T10:35:24.000Z</time>
      </trkpt>
      <trkpt lat="47.51168" lon="6.78102">
        <ele>331</ele>
        <time>2015-04-06T10:35:25.000Z</time>
      </trkpt>
      <trkpt lat="47.5117" lon="6.78098">
        <ele>330</ele>
        <time>2015-04-06T10:35:26.000Z</time>
      </trkpt>
      <trkpt lat="47.51172" lon="6.78094">
        <ele>330</ele>
        <time>2015-04-06T10:35:27.000Z</time>
      </trkpt>
      <trkpt lat="47.51174" lon="6.7809">
        <ele>330</ele>
        <time>2015-04-06T10:35:28.000Z</time>
      </trkpt>
      <trkpt lat="47.51177" lon="6.78087">
        <ele>330</ele>
        <time>2015-04-06T10:35:29.000Z</time>
      </trkpt>
      <trkpt lat="47.51178" lon="6.78083">
        <ele>329</ele>
        <time>2015-04-06T10:35:30.000Z</time>
      </trkpt>
      <trkpt lat="47.5118" lon="6.7808">
        <ele>330</ele>
        <time>2015-04-06T10:35:31.000Z</time>
      </trkpt>
      <trkpt lat="47.51182" lon="6.78076">
        <ele>330</ele>
        <time>2015-04-06T10:35:32.000Z</time>
      </trkpt>
      <trkpt lat="47.51184" lon="6.78072">
        <ele>330</ele>
        <time>2015-04-06T10:35:33.000Z</time>
      </trkpt>
      <trkpt lat="47.51185" lon="6.78069">
        <ele>330</ele>
        <time>2015-04-06T10:35:34.000Z</time>
      </trkpt>
      <trkpt lat="47.51187" lon="6.78065">
        <ele>330</ele>
        <time>2015-04-06T10:35:35.000Z</time>
      </trkpt>
      <trkpt lat="47.51187" lon="6.78061">
        <ele>330</ele>
        <time>2015-04-06T10:35:36.000Z</time>
      </trkpt>
      <trkpt lat="47.51188" lon="6.78058">
        <ele>330</ele>
        <time>2015-04-06T10:35:37.000Z</time>
      </trkpt>
      <trkpt lat="47.51189" lon="6.78052">
        <ele>331</ele>
        <time>2015-04-06T10:35:39.000Z</time>
      </trkpt>
      <trkpt lat="47.5119" lon="6.78048">
        <ele>331</ele>
        <time>2015-04-06T10:35:40.000Z</time>
      </trkpt>
      <trkpt lat="47.51191" lon="6.78044">
        <ele>331</ele>
        <time>2015-04-06T10:35:41.000Z</time>
      </trkpt>
      <trkpt lat="47.51192" lon="6.78039">
        <ele>331</ele>
        <time>2015-04-06T10:35:42.000Z</time>
      </trkpt>
      <trkpt lat="47.51194" lon="6.78035">
        <ele>331</ele>
        <time>2015-04-06T10:35:43.000Z</time>
      </trkpt>
      <trkpt lat="47.51195" lon="6.7803">
        <ele>330</ele>
        <time>2015-04-06T10:35:44.000Z</time>
      </trkpt>
      <trkpt lat="47.51196" lon="6.78026">
        <ele>330</ele>
        <time>2015-04-06T10:35:45.000Z</time>
      </trkpt>
      <trkpt lat="47.51198" lon="6.78022">
        <ele>330</ele>
        <time>2015-04-06T10:35:45.999Z</time>
      </trkpt>
      <trkpt lat="47.51199" lon="6.78016">
        <ele>330</ele>
        <time>2015-04-06T10:35:47.000Z</time>
      </trkpt>
      <trkpt lat="47.512" lon="6.78011">
        <ele>330</ele>
        <time>2015-04-06T10:35:48.000Z</time>
      </trkpt>
      <trkpt lat="47.51201" lon="6.78006">
        <ele>330</ele>
        <time>2015-04-06T10:35:49.000Z</time>
      </trkpt>
      <trkpt lat="47.51203" lon="6.78001">
        <ele>331</ele>
        <time>2015-04-06T10:35:50.000Z</time>
      </trkpt>
      <trkpt lat="47.51204" lon="6.77996">
        <ele>329</ele>
        <time>2015-04-06T10:35:51.000Z</time>
      </trkpt>
      <trkpt lat="47.51206" lon="6.77992">
        <ele>329</ele>
        <time>2015-04-06T10:35:52.000Z</time>
      </trkpt>
      <trkpt lat="47.51208" lon="6.77987">
        <ele>330</ele>
        <time>2015-04-06T10:35:53.000Z</time>
      </trkpt>
      <trkpt lat="47.51209" lon="6.77983">
        <ele>330</ele>
        <time>2015-04-06T10:35:54.000Z</time>
      </trkpt>
      <trkpt lat="47.51211" lon="6.77979">
        <ele>330</ele>
        <time>2015-04-06T10:35:55.000Z</time>
      </trkpt>
      <trkpt lat="47.51212" lon="6.77975">
        <ele>330</ele>
        <time>2015-04-06T10:35:56.000Z</time>
      </trkpt>
      <trkpt lat="47.51214" lon="6.77972">
        <ele>330</ele>
        <time>2015-04-06T10:35:57.000Z</time>
      </trkpt>
      <trkpt lat="47.51215" lon="6.77969">
        <ele>330</ele>
        <time>2015-04-06T10:35:58.000Z</time>
      </trkpt>
      <trkpt lat="47.51216" lon="6.77965">
        <ele>330</ele>
        <time>2015-04-06T10:35:59.000Z</time>
      </trkpt>
      <trkpt lat="47.51218" lon="6.7796">
        <ele>330</ele>
        <time>2015-04-06T10:36:00.000Z</time>
      </trkpt>
      <trkpt lat="47.51219" lon="6.77955">
        <ele>330</ele>
        <time>2015-04-06T10:36:01.000Z</time>
      </trkpt>
      <trkpt lat="47.51221" lon="6.77949">
        <ele>330</ele>
        <time>2015-04-06T10:36:02.000Z</time>
      </trkpt>
      <trkpt lat="47.51222" lon="6.77943">
        <ele>330</ele>
        <time>2015-04-06T10:36:03.000Z</time>
      </trkpt>
      <trkpt lat="47.51223" lon="6.77937">
        <ele>330</ele>
        <time>2015-04-06T10:36:04.000Z</time>
      </trkpt>
      <trkpt lat="47.51224" lon="6.77932">
        <ele>330</ele>
        <time>2015-04-06T10:36:05.000Z</time>
      </trkpt>
      <trkpt lat="47.51226" lon="6.77926">
        <ele>330</ele>
        <time>2015-04-06T10:36:06.000Z</time>
      </trkpt>
      <trkpt lat="47.51228" lon="6.77921">
        <ele>330</ele>
        <time>2015-04-06T10:36:07.000Z</time>
      </trkpt>
      <trkpt lat="47.51231" lon="6.77916">
        <ele>330</ele>
        <time>2015-04-06T10:36:08.000Z</time>
      </trkpt>
      <trkpt lat="47.51234" lon="6.77912">
        <ele>330</ele>
        <time>2015-04-06T10:36:09.000Z</time>
      </trkpt>
      <trkpt lat="47.51237" lon="6.77907">
        <ele>330</ele>
        <time>2015-04-06T10:36:10.000Z</time>
      </trkpt>
      <trkpt lat="47.5124" lon="6.77903">
        <ele>330</ele>
        <time>2015-04-06T10:36:11.000Z</time>
      </trkpt>
      <trkpt lat="47.51243" lon="6.77898">
        <ele>330</ele>
        <time>2015-04-06T10:36:12.000Z</time>
      </trkpt>
      <trkpt lat="47.51245" lon="6.77892">
        <ele>329</ele>
        <time>2015-04-06T10:36:13.000Z</time>
      </trkpt>
      <trkpt lat="47.51246" lon="6.77887">
        <ele>329</ele>
        <time>2015-04-06T10:36:14.000Z</time>
      </trkpt>
      <trkpt lat="47.51248" lon="6.77882">
        <ele>329</ele>
        <time>2015-04-06T10:36:15.000Z</time>
      </trkpt>
      <trkpt lat="47.51249" lon="6.77877">
        <ele>329</ele>
        <time>2015-04-06T10:36:16.000Z</time>
      </trkpt>
      <trkpt lat="47.51239" lon="6.77861">
        <ele>329</ele>
        <time>2015-04-06T10:36:17.000Z</time>
      </trkpt>
      <trkpt lat="47.51239" lon="6.77855">
        <ele>329</ele>
        <time>2015-04-06T10:36:18.000Z</time>
      </trkpt>
      <trkpt lat="47.51242" lon="6.7785">
        <ele>329</ele>
        <time>2015-04-06T10:36:19.000Z</time>
      </trkpt>
      <trkpt lat="47.51239" lon="6.77838">
        <ele>329</ele>
        <time>2015-04-06T10:36:20.000Z</time>
      </trkpt>
      <trkpt lat="47.51242" lon="6.77833">
        <ele>329</ele>
        <time>2015-04-06T10:36:21.000Z</time>
      </trkpt>
      <trkpt lat="47.51243" lon="6.77828">
        <ele>329</ele>
        <time>2015-04-06T10:36:22.000Z</time>
      </trkpt>
      <trkpt lat="47.51244" lon="6.77821">
        <ele>329</ele>
        <time>2015-04-06T10:36:23.000Z</time>
      </trkpt>
      <trkpt lat="47.51245" lon="6.77815">
        <ele>328</ele>
        <time>2015-04-06T10:36:24.000Z</time>
      </trkpt>
      <trkpt lat="47.51247" lon="6.77808">
        <ele>328</ele>
        <time>2015-04-06T10:36:25.000Z</time>
      </trkpt>
      <trkpt lat="47.51248" lon="6.77804">
        <ele>328</ele>
        <time>2015-04-06T10:36:26.000Z</time>
      </trkpt>
      <trkpt lat="47.51249" lon="6.778">
        <ele>328</ele>
        <time>2015-04-06T10:36:27.000Z</time>
      </trkpt>
      <trkpt lat="47.5125" lon="6.77797">
        <ele>334</ele>
        <time>2015-04-06T10:36:28.000Z</time>
      </trkpt>
      <trkpt lat="47.51251" lon="6.77794">
        <ele>334</ele>
        <time>2015-04-06T10:36:29.000Z</time>
      </trkpt>
      <trkpt lat="47.51252" lon="6.77789">
        <ele>334</ele>
        <time>2015-04-06T10:36:31.000Z</time>
      </trkpt>
      <trkpt lat="47.51253" lon="6.77788">
        <ele>334</ele>
        <time>2015-04-06T10:36:32.000Z</time>
      </trkpt>
      <trkpt lat="47.51256" lon="6.77784">
        <ele>334</ele>
        <time>2015-04-06T10:36:34.000Z</time>
      </trkpt>
      <trkpt lat="47.51257" lon="6.77782">
        <ele>334</ele>
        <time>2015-04-06T10:36:35.000Z</time>
      </trkpt>
      <trkpt lat="47.51261" lon="6.7778">
        <ele>334</ele>
        <time>2015-04-06T10:36:37.000Z</time>
      </trkpt>
      <trkpt lat="47.51263" lon="6.77779">
        <ele>334</ele>
        <time>2015-04-06T10:36:38.000Z</time>
      </trkpt>
      <trkpt lat="47.51266" lon="6.77778">
        <ele>334</ele>
        <time>2015-04-06T10:36:39.000Z</time>
      </trkpt>
      <trkpt lat="47.5127" lon="6.77777">
        <ele>334</ele>
        <time>2015-04-06T10:36:40.000Z</time>
      </trkpt>
      <trkpt lat="47.51273" lon="6.77777">
        <ele>335</ele>
        <time>2015-04-06T10:36:41.000Z</time>
      </trkpt>
      <trkpt lat="47.51276" lon="6.77777">
        <ele>335</ele>
        <time>2015-04-06T10:36:42.000Z</time>
      </trkpt>
      <trkpt lat="47.51278" lon="6.77777">
        <ele>335</ele>
        <time>2015-04-06T10:36:43.000Z</time>
      </trkpt>
      <trkpt lat="47.51281" lon="6.77777">
        <ele>335</ele>
        <time>2015-04-06T10:36:44.000Z</time>
      </trkpt>
      <trkpt lat="47.51283" lon="6.77778">
        <ele>335</ele>
        <time>2015-04-06T10:36:45.000Z</time>
      </trkpt>
      <trkpt lat="47.51286" lon="6.77778">
        <ele>336</ele>
        <time>2015-04-06T10:36:46.000Z</time>
      </trkpt>
      <trkpt lat="47.51288" lon="6.77778">
        <ele>336</ele>
        <time>2015-04-06T10:36:47.000Z</time>
      </trkpt>
      <trkpt lat="47.51291" lon="6.77778">
        <ele>336</ele>
        <time>2015-04-06T10:36:48.000Z</time>
      </trkpt>
      <trkpt lat="47.51294" lon="6.77777">
        <ele>336</ele>
        <time>2015-04-06T10:36:49.000Z</time>
      </trkpt>
      <trkpt lat="47.51298" lon="6.77777">
        <ele>337</ele>
        <time>2015-04-06T10:36:50.000Z</time>
      </trkpt>
      <trkpt lat="47.51301" lon="6.77776">
        <ele>337</ele>
        <time>2015-04-06T10:36:51.000Z</time>
      </trkpt>
      <trkpt lat="47.51303" lon="6.77775">
        <ele>337</ele>
        <time>2015-04-06T10:36:52.000Z</time>
      </trkpt>
      <trkpt lat="47.51305" lon="6.77774">
        <ele>337</ele>
        <time>2015-04-06T10:36:54.000Z</time>
      </trkpt>
      <trkpt lat="47.51307" lon="6.77773">
        <ele>338</ele>
        <time>2015-04-06T10:36:55.000Z</time>
      </trkpt>
      <trkpt lat="47.51308" lon="6.77773">
        <ele>338</ele>
        <time>2015-04-06T10:36:56.000Z</time>
      </trkpt>
      <trkpt lat="47.51313" lon="6.77771">
        <ele>338</ele>
        <time>2015-04-06T10:36:57.000Z</time>
      </trkpt>
      <trkpt lat="47.51316" lon="6.77769">
        <ele>339</ele>
        <time>2015-04-06T10:36:58.000Z</time>
      </trkpt>
      <trkpt lat="47.51317" lon="6.77768">
        <ele>339</ele>
        <time>2015-04-06T10:36:59.000Z</time>
      </trkpt>
      <trkpt lat="47.5132" lon="6.77766">
        <ele>339</ele>
        <time>2015-04-06T10:37:03.000Z</time>
      </trkpt>
      <trkpt lat="47.51324" lon="6.77767">
        <ele>339</ele>
        <time>2015-04-06T10:37:04.000Z</time>
      </trkpt>
      <trkpt lat="47.51328" lon="6.77767">
        <ele>340</ele>
        <time>2015-04-06T10:37:06.000Z</time>
      </trkpt>
      <trkpt lat="47.51329" lon="6.7777">
        <ele>340</ele>
        <time>2015-04-06T10:37:07.000Z</time>
      </trkpt>
      <trkpt lat="47.51333" lon="6.77772">
        <ele>339</ele>
        <time>2015-04-06T10:37:09.000Z</time>
      </trkpt>
      <trkpt lat="47.51335" lon="6.77774">
        <ele>348</ele>
        <time>2015-04-06T10:37:10.000Z</time>
      </trkpt>
      <trkpt lat="47.51339" lon="6.77774">
        <ele>348</ele>
        <time>2015-04-06T10:37:13.000Z</time>
      </trkpt>
      <trkpt lat="47.51341" lon="6.77773">
        <ele>348</ele>
        <time>2015-04-06T10:37:14.000Z</time>
      </trkpt>
      <trkpt lat="47.51343" lon="6.77771">
        <ele>348</ele>
        <time>2015-04-06T10:37:16.000Z</time>
      </trkpt>
      <trkpt lat="47.51345" lon="6.7777">
        <ele>348</ele>
        <time>2015-04-06T10:37:17.000Z</time>
      </trkpt>
      <trkpt lat="47.51348" lon="6.77768">
        <ele>348</ele>
        <time>2015-04-06T10:37:19.000Z</time>
      </trkpt>
      <trkpt lat="47.51349" lon="6.77767">
        <ele>348</ele>
        <time>2015-04-06T10:37:20.000Z</time>
      </trkpt>
      <trkpt lat="47.51352" lon="6.77765">
        <ele>348</ele>
        <time>2015-04-06T10:37:22.000Z</time>
      </trkpt>
      <trkpt lat="47.51354" lon="6.77764">
        <ele>348</ele>
        <time>2015-04-06T10:37:23.000Z</time>
      </trkpt>
      <trkpt lat="47.51357" lon="6.77762">
        <ele>349</ele>
        <time>2015-04-06T10:37:25.000Z</time>
      </trkpt>
      <trkpt lat="47.51358" lon="6.77761">
        <ele>349</ele>
        <time>2015-04-06T10:37:26.000Z</time>
      </trkpt>
      <trkpt lat="47.51361" lon="6.77758">
        <ele>349</ele>
        <time>2015-04-06T10:37:28.000Z</time>
      </trkpt>
      <trkpt lat="47.51363" lon="6.77757">
        <ele>349</ele>
        <time>2015-04-06T10:37:29.000Z</time>
      </trkpt>
      <trkpt lat="47.51366" lon="6.77755">
        <ele>350</ele>
        <time>2015-04-06T10:37:31.000Z</time>
      </trkpt>
      <trkpt lat="47.51367" lon="6.77754">
        <ele>350</ele>
        <time>2015-04-06T10:37:32.000Z</time>
      </trkpt>
      <trkpt lat="47.5137" lon="6.77751">
        <ele>350</ele>
        <time>2015-04-06T10:37:34.000Z</time>
      </trkpt>
      <trkpt lat="47.51371" lon="6.7775">
        <ele>350</ele>
        <time>2015-04-06T10:37:35.000Z</time>
      </trkpt>
      <trkpt lat="47.51375" lon="6.77748">
        <ele>353</ele>
        <time>2015-04-06T10:37:37.000Z</time>
      </trkpt>
      <trkpt lat="47.51377" lon="6.77748">
        <ele>354</ele>
        <time>2015-04-06T10:37:38.000Z</time>
      </trkpt>
      <trkpt lat="47.5138" lon="6.77746">
        <ele>354</ele>
        <time>2015-04-06T10:37:40.000Z</time>
      </trkpt>
      <trkpt lat="47.51382" lon="6.77745">
        <ele>354</ele>
        <time>2015-04-06T10:37:41.000Z</time>
      </trkpt>
      <trkpt lat="47.51385" lon="6.77743">
        <ele>355</ele>
        <time>2015-04-06T10:37:43.000Z</time>
      </trkpt>
      <trkpt lat="47.51386" lon="6.77742">
        <ele>355</ele>
        <time>2015-04-06T10:37:44.000Z</time>
      </trkpt>
      <trkpt lat="47.51389" lon="6.7774">
        <ele>355</ele>
        <time>2015-04-06T10:37:46.000Z</time>
      </trkpt>
      <trkpt lat="47.51391" lon="6.77739">
        <ele>355</ele>
        <time>2015-04-06T10:37:47.000Z</time>
      </trkpt>
      <trkpt lat="47.51394" lon="6.77736">
        <ele>356</ele>
        <time>2015-04-06T10:37:50.000Z</time>
      </trkpt>
      <trkpt lat="47.51395" lon="6.77735">
        <ele>356</ele>
        <time>2015-04-06T10:37:51.000Z</time>
      </trkpt>
      <trkpt lat="47.51399" lon="6.77733">
        <ele>356</ele>
        <time>2015-04-06T10:37:54.000Z</time>
      </trkpt>
      <trkpt lat="47.514" lon="6.77732">
        <ele>356</ele>
        <time>2015-04-06T10:37:55.002Z</time>
      </trkpt>
      <trkpt lat="47.51403" lon="6.7773">
        <ele>356</ele>
        <time>2015-04-06T10:37:57.000Z</time>
      </trkpt>
      <trkpt lat="47.51404" lon="6.77728">
        <ele>356</ele>
        <time>2015-04-06T10:37:58.000Z</time>
      </trkpt>
      <trkpt lat="47.51407" lon="6.77725">
        <ele>357</ele>
        <time>2015-04-06T10:38:00.000Z</time>
      </trkpt>
      <trkpt lat="47.51409" lon="6.77724">
        <ele>357</ele>
        <time>2015-04-06T10:38:01.000Z</time>
      </trkpt>
      <trkpt lat="47.51412" lon="6.77726">
        <ele>357</ele>
        <time>2015-04-06T10:38:04.000Z</time>
      </trkpt>
      <trkpt lat="47.51414" lon="6.77726">
        <ele>357</ele>
        <time>2015-04-06T10:38:05.000Z</time>
      </trkpt>
      <trkpt lat="47.51417" lon="6.77725">
        <ele>363</ele>
        <time>2015-04-06T10:38:07.000Z</time>
      </trkpt>
      <trkpt lat="47.51418" lon="6.77724">
        <ele>363</ele>
        <time>2015-04-06T10:38:08.000Z</time>
      </trkpt>
      <trkpt lat="47.51421" lon="6.77723">
        <ele>363</ele>
        <time>2015-04-06T10:38:10.000Z</time>
      </trkpt>
      <trkpt lat="47.51423" lon="6.77723">
        <ele>363</ele>
        <time>2015-04-06T10:38:11.000Z</time>
      </trkpt>
      <trkpt lat="47.51426" lon="6.77723">
        <ele>364</ele>
        <time>2015-04-06T10:38:13.000Z</time>
      </trkpt>
      <trkpt lat="47.51428" lon="6.77724">
        <ele>364</ele>
        <time>2015-04-06T10:38:14.000Z</time>
      </trkpt>
      <trkpt lat="47.51432" lon="6.77723">
        <ele>364</ele>
        <time>2015-04-06T10:38:17.000Z</time>
      </trkpt>
      <trkpt lat="47.51433" lon="6.77723">
        <ele>364</ele>
        <time>2015-04-06T10:38:18.000Z</time>
      </trkpt>
      <trkpt lat="47.51437" lon="6.77722">
        <ele>364</ele>
        <time>2015-04-06T10:38:22.000Z</time>
      </trkpt>
      <trkpt lat="47.51438" lon="6.77722">
        <ele>364</ele>
        <time>2015-04-06T10:38:23.001Z</time>
      </trkpt>
      <trkpt lat="47.51442" lon="6.77723">
        <ele>365</ele>
        <time>2015-04-06T10:38:28.000Z</time>
      </trkpt>
      <trkpt lat="47.51443" lon="6.77724">
        <ele>365</ele>
        <time>2015-04-06T10:38:29.000Z</time>
      </trkpt>
      <trkpt lat="47.51445" lon="6.77725">
        <ele>365</ele>
        <time>2015-04-06T10:38:31.000Z</time>
      </trkpt>
      <trkpt lat="47.51448" lon="6.77725">
        <ele>365</ele>
        <time>2015-04-06T10:38:32.000Z</time>
      </trkpt>
      <trkpt lat="47.51451" lon="6.77726">
        <ele>365</ele>
        <time>2015-04-06T10:38:34.000Z</time>
      </trkpt>
      <trkpt lat="47.51452" lon="6.77727">
        <ele>365</ele>
        <time>2015-04-06T10:38:35.000Z</time>
      </trkpt>
      <trkpt lat="47.51454" lon="6.77724">
        <ele>365</ele>
        <time>2015-04-06T10:38:36.000Z</time>
      </trkpt>
      <trkpt lat="47.51456" lon="6.77722">
        <ele>365</ele>
        <time>2015-04-06T10:38:37.000Z</time>
      </trkpt>
      <trkpt lat="47.51458" lon="6.77718">
        <ele>366</ele>
        <time>2015-04-06T10:38:38.000Z</time>
      </trkpt>
      <trkpt lat="47.51461" lon="6.77714">
        <ele>366</ele>
        <time>2015-04-06T10:38:39.000Z</time>
      </trkpt>
      <trkpt lat="47.51463" lon="6.7771">
        <ele>367</ele>
        <time>2015-04-06T10:38:40.000Z</time>
      </trkpt>
      <trkpt lat="47.51466" lon="6.77707">
        <ele>367</ele>
        <time>2015-04-06T10:38:41.000Z</time>
      </trkpt>
      <trkpt lat="47.51468" lon="6.77706">
        <ele>367</ele>
        <time>2015-04-06T10:38:42.000Z</time>
      </trkpt>
      <trkpt lat="47.51471" lon="6.77706">
        <ele>367</ele>
        <time>2015-04-06T10:38:43.000Z</time>
      </trkpt>
      <trkpt lat="47.51475" lon="6.77709">
        <ele>367</ele>
        <time>2015-04-06T10:38:45.000Z</time>
      </trkpt>
      <trkpt lat="47.51476" lon="6.77711">
        <ele>367</ele>
        <time>2015-04-06T10:38:46.000Z</time>
      </trkpt>
      <trkpt lat="47.51479" lon="6.77714">
        <ele>367</ele>
        <time>2015-04-06T10:38:48.000Z</time>
      </trkpt>
      <trkpt lat="47.5148" lon="6.77715">
        <ele>367</ele>
        <time>2015-04-06T10:38:49.000Z</time>
      </trkpt>
      <trkpt lat="47.51484" lon="6.77716">
        <ele>367</ele>
        <time>2015-04-06T10:38:53.000Z</time>
      </trkpt>
      <trkpt lat="47.51485" lon="6.77715">
        <ele>367</ele>
        <time>2015-04-06T10:38:54.000Z</time>
      </trkpt>
      <trkpt lat="47.51488" lon="6.77712">
        <ele>367</ele>
        <time>2015-04-06T10:38:57.000Z</time>
      </trkpt>
      <trkpt lat="47.5149" lon="6.77711">
        <ele>367</ele>
        <time>2015-04-06T10:38:58.000Z</time>
      </trkpt>
      <trkpt lat="47.51494" lon="6.77711">
        <ele>367</ele>
        <time>2015-04-06T10:39:01.000Z</time>
      </trkpt>
      <trkpt lat="47.51495" lon="6.77712">
        <ele>367</ele>
        <time>2015-04-06T10:39:02.000Z</time>
      </trkpt>
      <trkpt lat="47.51498" lon="6.77713">
        <ele>367</ele>
        <time>2015-04-06T10:39:04.000Z</time>
      </trkpt>
      <trkpt lat="47.515" lon="6.77715">
        <ele>367</ele>
        <time>2015-04-06T10:39:05.000Z</time>
      </trkpt>
      <trkpt lat="47.51503" lon="6.77715">
        <ele>372</ele>
        <time>2015-04-06T10:39:08.000Z</time>
      </trkpt>
      <trkpt lat="47.51505" lon="6.77714">
        <ele>372</ele>
        <time>2015-04-06T10:39:09.000Z</time>
      </trkpt>
      <trkpt lat="47.51508" lon="6.77713">
        <ele>372</ele>
        <time>2015-04-06T10:39:11.000Z</time>
      </trkpt>
      <trkpt lat="47.51509" lon="6.77714">
        <ele>372</ele>
        <time>2015-04-06T10:39:12.000Z</time>
      </trkpt>
      <trkpt lat="47.51512" lon="6.77716">
        <ele>372</ele>
        <time>2015-04-06T10:39:14.000Z</time>
      </trkpt>
      <trkpt lat="47.51513" lon="6.77718">
        <ele>372</ele>
        <time>2015-04-06T10:39:15.000Z</time>
      </trkpt>
      <trkpt lat="47.51516" lon="6.7772">
        <ele>372</ele>
        <time>2015-04-06T10:39:17.000Z</time>
      </trkpt>
      <trkpt lat="47.51518" lon="6.7772">
        <ele>372</ele>
        <time>2015-04-06T10:39:18.000Z</time>
      </trkpt>
      <trkpt lat="47.51521" lon="6.77717">
        <ele>372</ele>
        <time>2015-04-06T10:39:20.000Z</time>
      </trkpt>
      <trkpt lat="47.51523" lon="6.77716">
        <ele>372</ele>
        <time>2015-04-06T10:39:21.000Z</time>
      </trkpt>
      <trkpt lat="47.51527" lon="6.77718">
        <ele>372</ele>
        <time>2015-04-06T10:39:24.000Z</time>
      </trkpt>
      <trkpt lat="47.51528" lon="6.7772">
        <ele>372</ele>
        <time>2015-04-06T10:39:25.000Z</time>
      </trkpt>
      <trkpt lat="47.51531" lon="6.77719">
        <ele>373</ele>
        <time>2015-04-06T10:39:27.000Z</time>
      </trkpt>
      <trkpt lat="47.51533" lon="6.77718">
        <ele>373</ele>
        <time>2015-04-06T10:39:28.000Z</time>
      </trkpt>
      <trkpt lat="47.51536" lon="6.77716">
        <ele>373</ele>
        <time>2015-04-06T10:39:30.000Z</time>
      </trkpt>
      <trkpt lat="47.51538" lon="6.77716">
        <ele>373</ele>
        <time>2015-04-06T10:39:31.000Z</time>
      </trkpt>
      <trkpt lat="47.51541" lon="6.77717">
        <ele>373</ele>
        <time>2015-04-06T10:39:33.000Z</time>
      </trkpt>
      <trkpt lat="47.51543" lon="6.77718">
        <ele>373</ele>
        <time>2015-04-06T10:39:34.000Z</time>
      </trkpt>
      <trkpt lat="47.51546" lon="6.7772">
        <ele>374</ele>
        <time>2015-04-06T10:39:36.000Z</time>
      </trkpt>
      <trkpt lat="47.51548" lon="6.7772">
        <ele>374</ele>
        <time>2015-04-06T10:39:37.000Z</time>
      </trkpt>
      <trkpt lat="47.51551" lon="6.77722">
        <ele>374</ele>
        <time>2015-04-06T10:39:39.000Z</time>
      </trkpt>
      <trkpt lat="47.51552" lon="6.77724">
        <ele>374</ele>
        <time>2015-04-06T10:39:40.000Z</time>
      </trkpt>
      <trkpt lat="47.51556" lon="6.77726">
        <ele>374</ele>
        <time>2015-04-06T10:39:42.000Z</time>
      </trkpt>
      <trkpt lat="47.51557" lon="6.77727">
        <ele>374</ele>
        <time>2015-04-06T10:39:43.000Z</time>
      </trkpt>
      <trkpt lat="47.5156" lon="6.77728">
        <ele>374</ele>
        <time>2015-04-06T10:39:45.000Z</time>
      </trkpt>
      <trkpt lat="47.51561" lon="6.77729">
        <ele>374</ele>
        <time>2015-04-06T10:39:46.000Z</time>
      </trkpt>
      <trkpt lat="47.51564" lon="6.77732">
        <ele>374</ele>
        <time>2015-04-06T10:39:48.000Z</time>
      </trkpt>
      <trkpt lat="47.51565" lon="6.77733">
        <ele>374</ele>
        <time>2015-04-06T10:39:49.000Z</time>
      </trkpt>
      <trkpt lat="47.51568" lon="6.77736">
        <ele>375</ele>
        <time>2015-04-06T10:39:51.000Z</time>
      </trkpt>
      <trkpt lat="47.5157" lon="6.77737">
        <ele>375</ele>
        <time>2015-04-06T10:39:52.000Z</time>
      </trkpt>
      <trkpt lat="47.51573" lon="6.77739">
        <ele>375</ele>
        <time>2015-04-06T10:39:54.000Z</time>
      </trkpt>
      <trkpt lat="47.51574" lon="6.77739">
        <ele>375</ele>
        <time>2015-04-06T10:39:55.000Z</time>
      </trkpt>
      <trkpt lat="47.51577" lon="6.77739">
        <ele>375</ele>
        <time>2015-04-06T10:39:57.000Z</time>
      </trkpt>
      <trkpt lat="47.51579" lon="6.7774">
        <ele>375</ele>
        <time>2015-04-06T10:39:58.000Z</time>
      </trkpt>
      <trkpt lat="47.51582" lon="6.77742">
        <ele>375</ele>
        <time>2015-04-06T10:40:01.000Z</time>
      </trkpt>
      <trkpt lat="47.51584" lon="6.77744">
        <ele>377</ele>
        <time>2015-04-06T10:40:02.000Z</time>
      </trkpt>
      <trkpt lat="47.51587" lon="6.77748">
        <ele>377</ele>
        <time>2015-04-06T10:40:04.000Z</time>
      </trkpt>
      <trkpt lat="47.51589" lon="6.7775">
        <ele>377</ele>
        <time>2015-04-06T10:40:05.000Z</time>
      </trkpt>
      <trkpt lat="47.51591" lon="6.77753">
        <ele>378</ele>
        <time>2015-04-06T10:40:06.000Z</time>
      </trkpt>
      <trkpt lat="47.51593" lon="6.77754">
        <ele>378</ele>
        <time>2015-04-06T10:40:07.000Z</time>
      </trkpt>
      <trkpt lat="47.51597" lon="6.77756">
        <ele>379</ele>
        <time>2015-04-06T10:40:09.000Z</time>
      </trkpt>
      <trkpt lat="47.51598" lon="6.77757">
        <ele>379</ele>
        <time>2015-04-06T10:40:10.000Z</time>
      </trkpt>
      <trkpt lat="47.51601" lon="6.77757">
        <ele>380</ele>
        <time>2015-04-06T10:40:12.000Z</time>
      </trkpt>
      <trkpt lat="47.51603" lon="6.77757">
        <ele>380</ele>
        <time>2015-04-06T10:40:13.000Z</time>
      </trkpt>
      <trkpt lat="47.51607" lon="6.77757">
        <ele>380</ele>
        <time>2015-04-06T10:40:15.000Z</time>
      </trkpt>
      <trkpt lat="47.51609" lon="6.77758">
        <ele>380</ele>
        <time>2015-04-06T10:40:16.000Z</time>
      </trkpt>
      <trkpt lat="47.51612" lon="6.77759">
        <ele>381</ele>
        <time>2015-04-06T10:40:17.000Z</time>
      </trkpt>
      <trkpt lat="47.51614" lon="6.77759">
        <ele>381</ele>
        <time>2015-04-06T10:40:18.000Z</time>
      </trkpt>
      <trkpt lat="47.51618" lon="6.77759">
        <ele>381</ele>
        <time>2015-04-06T10:40:20.000Z</time>
      </trkpt>
      <trkpt lat="47.51619" lon="6.77758">
        <ele>381</ele>
        <time>2015-04-06T10:40:21.000Z</time>
      </trkpt>
      <trkpt lat="47.51622" lon="6.77756">
        <ele>381</ele>
        <time>2015-04-06T10:40:23.001Z</time>
      </trkpt>
      <trkpt lat="47.51624" lon="6.77755">
        <ele>381</ele>
        <time>2015-04-06T10:40:24.000Z</time>
      </trkpt>
      <trkpt lat="47.51628" lon="6.77753">
        <ele>382</ele>
        <time>2015-04-06T10:40:26.000Z</time>
      </trkpt>
      <trkpt lat="47.5163" lon="6.77753">
        <ele>382</ele>
        <time>2015-04-06T10:40:27.000Z</time>
      </trkpt>
      <trkpt lat="47.51634" lon="6.77754">
        <ele>382</ele>
        <time>2015-04-06T10:40:29.000Z</time>
      </trkpt>
      <trkpt lat="47.51635" lon="6.77754">
        <ele>382</ele>
        <time>2015-04-06T10:40:30.000Z</time>
      </trkpt>
      <trkpt lat="47.51639" lon="6.77753">
        <ele>382</ele>
        <time>2015-04-06T10:40:35.000Z</time>
      </trkpt>
      <trkpt lat="47.5164" lon="6.77753">
        <ele>382</ele>
        <time>2015-04-06T10:40:36.000Z</time>
      </trkpt>
      <trkpt lat="47.51644" lon="6.77753">
        <ele>382</ele>
        <time>2015-04-06T10:40:38.000Z</time>
      </trkpt>
      <trkpt lat="47.51647" lon="6.77752">
        <ele>382</ele>
        <time>2015-04-06T10:40:39.000Z</time>
      </trkpt>
      <trkpt lat="47.5165" lon="6.77752">
        <ele>382</ele>
        <time>2015-04-06T10:40:40.000Z</time>
      </trkpt>
      <trkpt lat="47.51652" lon="6.77752">
        <ele>383</ele>
        <time>2015-04-06T10:40:41.000Z</time>
      </trkpt>
      <trkpt lat="47.51655" lon="6.77751">
        <ele>383</ele>
        <time>2015-04-06T10:40:43.000Z</time>
      </trkpt>
      <trkpt lat="47.51656" lon="6.77751">
        <ele>383</ele>
        <time>2015-04-06T10:40:44.000Z</time>
      </trkpt>
      <trkpt lat="47.51659" lon="6.77752">
        <ele>383</ele>
        <time>2015-04-06T10:40:45.000Z</time>
      </trkpt>
      <trkpt lat="47.51662" lon="6.77753">
        <ele>383</ele>
        <time>2015-04-06T10:40:46.000Z</time>
      </trkpt>
      <trkpt lat="47.51665" lon="6.77755">
        <ele>383</ele>
        <time>2015-04-06T10:40:47.000Z</time>
      </trkpt>
      <trkpt lat="47.51667" lon="6.77757">
        <ele>384</ele>
        <time>2015-04-06T10:40:48.000Z</time>
      </trkpt>
      <trkpt lat="47.51669" lon="6.77759">
        <ele>384</ele>
        <time>2015-04-06T10:40:49.000Z</time>
      </trkpt>
      <trkpt lat="47.51671" lon="6.7776">
        <ele>384</ele>
        <time>2015-04-06T10:40:50.000Z</time>
      </trkpt>
      <trkpt lat="47.51675" lon="6.7776">
        <ele>384</ele>
        <time>2015-04-06T10:40:52.000Z</time>
      </trkpt>
      <trkpt lat="47.51677" lon="6.7776">
        <ele>384</ele>
        <time>2015-04-06T10:40:53.000Z</time>
      </trkpt>
      <trkpt lat="47.51681" lon="6.7776">
        <ele>385</ele>
        <time>2015-04-06T10:40:57.000Z</time>
      </trkpt>
      <trkpt lat="47.51682" lon="6.77761">
        <ele>385</ele>
        <time>2015-04-06T10:40:58.000Z</time>
      </trkpt>
      <trkpt lat="47.51686" lon="6.77761">
        <ele>385</ele>
        <time>2015-04-06T10:41:01.000Z</time>
      </trkpt>
      <trkpt lat="47.51687" lon="6.77761">
        <ele>385</ele>
        <time>2015-04-06T10:41:02.000Z</time>
      </trkpt>
      <trkpt lat="47.5169" lon="6.77761">
        <ele>385</ele>
        <time>2015-04-06T10:41:05.000Z</time>
      </trkpt>
      <trkpt lat="47.51691" lon="6.77761">
        <ele>385</ele>
        <time>2015-04-06T10:41:06.000Z</time>
      </trkpt>
      <trkpt lat="47.51694" lon="6.77758">
        <ele>385</ele>
        <time>2015-04-06T10:41:09.000Z</time>
      </trkpt>
      <trkpt lat="47.51695" lon="6.77756">
        <ele>385</ele>
        <time>2015-04-06T10:41:10.000Z</time>
      </trkpt>
      <trkpt lat="47.51697" lon="6.77751">
        <ele>385</ele>
        <time>2015-04-06T10:41:12.000Z</time>
      </trkpt>
      <trkpt lat="47.51699" lon="6.77748">
        <ele>386</ele>
        <time>2015-04-06T10:41:13.000Z</time>
      </trkpt>
      <trkpt lat="47.51701" lon="6.77742">
        <ele>387</ele>
        <time>2015-04-06T10:41:15.000Z</time>
      </trkpt>
      <trkpt lat="47.51702" lon="6.7774">
        <ele>387</ele>
        <time>2015-04-06T10:41:16.000Z</time>
      </trkpt>
      <trkpt lat="47.51704" lon="6.77735">
        <ele>387</ele>
        <time>2015-04-06T10:41:18.000Z</time>
      </trkpt>
      <trkpt lat="47.51705" lon="6.77733">
        <ele>387</ele>
        <time>2015-04-06T10:41:19.000Z</time>
      </trkpt>
      <trkpt lat="47.51703" lon="6.77727">
        <ele>387</ele>
        <time>2015-04-06T10:41:22.000Z</time>
      </trkpt>
      <trkpt lat="47.51702" lon="6.77725">
        <ele>387</ele>
        <time>2015-04-06T10:41:23.000Z</time>
      </trkpt>
      <trkpt lat="47.517" lon="6.77721">
        <ele>387</ele>
        <time>2015-04-06T10:41:25.000Z</time>
      </trkpt>
      <trkpt lat="47.517" lon="6.77718">
        <ele>387</ele>
        <time>2015-04-06T10:41:26.000Z</time>
      </trkpt>
      <trkpt lat="47.51702" lon="6.77714">
        <ele>387</ele>
        <time>2015-04-06T10:41:28.000Z</time>
      </trkpt>
      <trkpt lat="47.51702" lon="6.77712">
        <ele>387</ele>
        <time>2015-04-06T10:41:29.000Z</time>
      </trkpt>
      <trkpt lat="47.51703" lon="6.77707">
        <ele>387</ele>
        <time>2015-04-06T10:41:31.000Z</time>
      </trkpt>
      <trkpt lat="47.51702" lon="6.77704">
        <ele>387</ele>
        <time>2015-04-06T10:41:32.000Z</time>
      </trkpt>
      <trkpt lat="47.51701" lon="6.77698">
        <ele>387</ele>
        <time>2015-04-06T10:41:35.000Z</time>
      </trkpt>
      <trkpt lat="47.51701" lon="6.77696">
        <ele>387</ele>
        <time>2015-04-06T10:41:36.000Z</time>
      </trkpt>
      <trkpt lat="47.51702" lon="6.77692">
        <ele>388</ele>
        <time>2015-04-06T10:41:38.000Z</time>
      </trkpt>
      <trkpt lat="47.51703" lon="6.77689">
        <ele>388</ele>
        <time>2015-04-06T10:41:39.000Z</time>
      </trkpt>
      <trkpt lat="47.51703" lon="6.77684">
        <ele>388</ele>
        <time>2015-04-06T10:41:41.000Z</time>
      </trkpt>
      <trkpt lat="47.51703" lon="6.77681">
        <ele>388</ele>
        <time>2015-04-06T10:41:42.000Z</time>
      </trkpt>
      <trkpt lat="47.51702" lon="6.77676">
        <ele>388</ele>
        <time>2015-04-06T10:41:44.000Z</time>
      </trkpt>
      <trkpt lat="47.51702" lon="6.77673">
        <ele>388</ele>
        <time>2015-04-06T10:41:45.000Z</time>
      </trkpt>
      <trkpt lat="47.51702" lon="6.77666">
        <ele>389</ele>
        <time>2015-04-06T10:41:47.000Z</time>
      </trkpt>
      <trkpt lat="47.51701" lon="6.77663">
        <ele>389</ele>
        <time>2015-04-06T10:41:48.000Z</time>
      </trkpt>
      <trkpt lat="47.51701" lon="6.77659">
        <ele>389</ele>
        <time>2015-04-06T10:41:49.000Z</time>
      </trkpt>
      <trkpt lat="47.51701" lon="6.77655">
        <ele>389</ele>
        <time>2015-04-06T10:41:50.000Z</time>
      </trkpt>
      <trkpt lat="47.517" lon="6.77651">
        <ele>389</ele>
        <time>2015-04-06T10:41:51.000Z</time>
      </trkpt>
      <trkpt lat="47.517" lon="6.77646">
        <ele>389</ele>
        <time>2015-04-06T10:41:52.000Z</time>
      </trkpt>
      <trkpt lat="47.51701" lon="6.77642">
        <ele>389</ele>
        <time>2015-04-06T10:41:53.000Z</time>
      </trkpt>
      <trkpt lat="47.51702" lon="6.77638">
        <ele>389</ele>
        <time>2015-04-06T10:41:54.000Z</time>
      </trkpt>
      <trkpt lat="47.51702" lon="6.77635">
        <ele>390</ele>
        <time>2015-04-06T10:41:55.000Z</time>
      </trkpt>
      <trkpt lat="47.51703" lon="6.77631">
        <ele>390</ele>
        <time>2015-04-06T10:41:56.000Z</time>
      </trkpt>
      <trkpt lat="47.51703" lon="6.77628">
        <ele>390</ele>
        <time>2015-04-06T10:41:57.000Z</time>
      </trkpt>
      <trkpt lat="47.51704" lon="6.77624">
        <ele>390</ele>
        <time>2015-04-06T10:41:58.000Z</time>
      </trkpt>
      <trkpt lat="47.51704" lon="6.7762">
        <ele>390</ele>
        <time>2015-04-06T10:41:59.000Z</time>
      </trkpt>
      <trkpt lat="47.51704" lon="6.77616">
        <ele>390</ele>
        <time>2015-04-06T10:42:00.000Z</time>
      </trkpt>
      <trkpt lat="47.51705" lon="6.77613">
        <ele>390</ele>
        <time>2015-04-06T10:42:01.000Z</time>
      </trkpt>
      <trkpt lat="47.51705" lon="6.77609">
        <ele>390</ele>
        <time>2015-04-06T10:42:02.000Z</time>
      </trkpt>
      <trkpt lat="47.51705" lon="6.77606">
        <ele>390</ele>
        <time>2015-04-06T10:42:03.000Z</time>
      </trkpt>
      <trkpt lat="47.51706" lon="6.77602">
        <ele>390</ele>
        <time>2015-04-06T10:42:04.000Z</time>
      </trkpt>
      <trkpt lat="47.51706" lon="6.77599">
        <ele>390</ele>
        <time>2015-04-06T10:42:05.000Z</time>
      </trkpt>
      <trkpt lat="47.51706" lon="6.77595">
        <ele>390</ele>
        <time>2015-04-06T10:42:06.000Z</time>
      </trkpt>
      <trkpt lat="47.51707" lon="6.77592">
        <ele>390</ele>
        <time>2015-04-06T10:42:07.000Z</time>
      </trkpt>
      <trkpt lat="47.51708" lon="6.77589">
        <ele>390</ele>
        <time>2015-04-06T10:42:08.000Z</time>
      </trkpt>
      <trkpt lat="47.51709" lon="6.77586">
        <ele>390</ele>
        <time>2015-04-06T10:42:09.000Z</time>
      </trkpt>
      <trkpt lat="47.5171" lon="6.77583">
        <ele>390</ele>
        <time>2015-04-06T10:42:10.000Z</time>
      </trkpt>
      <trkpt lat="47.51714" lon="6.7758">
        <ele>390</ele>
        <time>2015-04-06T10:42:12.000Z</time>
      </trkpt>
      <trkpt lat="47.51716" lon="6.77579">
        <ele>390</ele>
        <time>2015-04-06T10:42:13.000Z</time>
      </trkpt>
      <trkpt lat="47.5172" lon="6.77576">
        <ele>390</ele>
        <time>2015-04-06T10:42:15.000Z</time>
      </trkpt>
      <trkpt lat="47.51721" lon="6.77574">
        <ele>390</ele>
        <time>2015-04-06T10:42:16.000Z</time>
      </trkpt>
      <trkpt lat="47.51721" lon="6.77569">
        <ele>390</ele>
        <time>2015-04-06T10:42:18.000Z</time>
      </trkpt>
      <trkpt lat="47.5172" lon="6.77566">
        <ele>390</ele>
        <time>2015-04-06T10:42:19.000Z</time>
      </trkpt>
      <trkpt lat="47.51719" lon="6.77561">
        <ele>390</ele>
        <time>2015-04-06T10:42:20.000Z</time>
      </trkpt>
      <trkpt lat="47.51718" lon="6.77556">
        <ele>390</ele>
        <time>2015-04-06T10:42:21.000Z</time>
      </trkpt>
      <trkpt lat="47.51718" lon="6.77551">
        <ele>390</ele>
        <time>2015-04-06T10:42:21.999Z</time>
      </trkpt>
      <trkpt lat="47.51719" lon="6.77543">
        <ele>390</ele>
        <time>2015-04-06T10:42:23.000Z</time>
      </trkpt>
      <trkpt lat="47.5172" lon="6.77535">
        <ele>390</ele>
        <time>2015-04-06T10:42:24.000Z</time>
      </trkpt>
      <trkpt lat="47.51721" lon="6.77529">
        <ele>390</ele>
        <time>2015-04-06T10:42:25.000Z</time>
      </trkpt>
      <trkpt lat="47.51723" lon="6.77522">
        <ele>390</ele>
        <time>2015-04-06T10:42:26.000Z</time>
      </trkpt>
      <trkpt lat="47.51724" lon="6.77515">
        <ele>390</ele>
        <time>2015-04-06T10:42:27.000Z</time>
      </trkpt>
      <trkpt lat="47.51725" lon="6.77509">
        <ele>390</ele>
        <time>2015-04-06T10:42:28.000Z</time>
      </trkpt>
      <trkpt lat="47.51726" lon="6.77503">
        <ele>390</ele>
        <time>2015-04-06T10:42:29.000Z</time>
      </trkpt>
      <trkpt lat="47.51726" lon="6.77498">
        <ele>389</ele>
        <time>2015-04-06T10:42:30.000Z</time>
      </trkpt>
      <trkpt lat="47.51727" lon="6.77492">
        <ele>389</ele>
        <time>2015-04-06T10:42:31.000Z</time>
      </trkpt>
      <trkpt lat="47.51728" lon="6.77486">
        <ele>389</ele>
        <time>2015-04-06T10:42:32.000Z</time>
      </trkpt>
      <trkpt lat="47.51728" lon="6.77481">
        <ele>389</ele>
        <time>2015-04-06T10:42:33.000Z</time>
      </trkpt>
      <trkpt lat="47.51729" lon="6.77475">
        <ele>389</ele>
        <time>2015-04-06T10:42:34.000Z</time>
      </trkpt>
      <trkpt lat="47.51731" lon="6.7747">
        <ele>389</ele>
        <time>2015-04-06T10:42:35.000Z</time>
      </trkpt>
      <trkpt lat="47.51732" lon="6.77467">
        <ele>389</ele>
        <time>2015-04-06T10:42:36.000Z</time>
      </trkpt>
      <trkpt lat="47.51733" lon="6.77465">
        <ele>389</ele>
        <time>2015-04-06T10:42:37.000Z</time>
      </trkpt>
      <trkpt lat="47.51736" lon="6.77464">
        <ele>389</ele>
        <time>2015-04-06T10:42:38.000Z</time>
      </trkpt>
      <trkpt lat="47.51739" lon="6.77465">
        <ele>389</ele>
        <time>2015-04-06T10:42:39.000Z</time>
      </trkpt>
      <trkpt lat="47.51743" lon="6.77466">
        <ele>389</ele>
        <time>2015-04-06T10:42:40.000Z</time>
      </trkpt>
      <trkpt lat="47.51747" lon="6.77468">
        <ele>389</ele>
        <time>2015-04-06T10:42:41.000Z</time>
      </trkpt>
      <trkpt lat="47.51751" lon="6.7747">
        <ele>388</ele>
        <time>2015-04-06T10:42:42.000Z</time>
      </trkpt>
      <trkpt lat="47.51756" lon="6.77471">
        <ele>388</ele>
        <time>2015-04-06T10:42:43.000Z</time>
      </trkpt>
      <trkpt lat="47.51761" lon="6.77473">
        <ele>388</ele>
        <time>2015-04-06T10:42:44.000Z</time>
      </trkpt>
      <trkpt lat="47.51766" lon="6.77474">
        <ele>388</ele>
        <time>2015-04-06T10:42:45.000Z</time>
      </trkpt>
      <trkpt lat="47.51771" lon="6.77476">
        <ele>388</ele>
        <time>2015-04-06T10:42:46.000Z</time>
      </trkpt>
      <trkpt lat="47.51776" lon="6.77477">
        <ele>388</ele>
        <time>2015-04-06T10:42:47.000Z</time>
      </trkpt>
      <trkpt lat="47.51781" lon="6.77479">
        <ele>388</ele>
        <time>2015-04-06T10:42:48.000Z</time>
      </trkpt>
      <trkpt lat="47.51785" lon="6.77481">
        <ele>388</ele>
        <time>2015-04-06T10:42:49.000Z</time>
      </trkpt>
      <trkpt lat="47.51789" lon="6.77484">
        <ele>388</ele>
        <time>2015-04-06T10:42:50.000Z</time>
      </trkpt>
      <trkpt lat="47.51794" lon="6.77486">
        <ele>388</ele>
        <time>2015-04-06T10:42:51.000Z</time>
      </trkpt>
      <trkpt lat="47.51798" lon="6.77489">
        <ele>388</ele>
        <time>2015-04-06T10:42:52.000Z</time>
      </trkpt>
      <trkpt lat="47.51801" lon="6.77488">
        <ele>388</ele>
        <time>2015-04-06T10:42:53.000Z</time>
      </trkpt>
      <trkpt lat="47.51804" lon="6.77486">
        <ele>388</ele>
        <time>2015-04-06T10:42:54.000Z</time>
      </trkpt>
      <trkpt lat="47.51805" lon="6.77482">
        <ele>388</ele>
        <time>2015-04-06T10:42:55.000Z</time>
      </trkpt>
      <trkpt lat="47.51805" lon="6.77477">
        <ele>388</ele>
        <time>2015-04-06T10:42:56.000Z</time>
      </trkpt>
      <trkpt lat="47.51804" lon="6.77471">
        <ele>388</ele>
        <time>2015-04-06T10:42:57.000Z</time>
      </trkpt>
      <trkpt lat="47.51803" lon="6.77465">
        <ele>388</ele>
        <time>2015-04-06T10:42:58.000Z</time>
      </trkpt>
      <trkpt lat="47.51801" lon="6.7746">
        <ele>388</ele>
        <time>2015-04-06T10:42:59.000Z</time>
      </trkpt>
      <trkpt lat="47.51799" lon="6.77456">
        <ele>388</ele>
        <time>2015-04-06T10:43:00.000Z</time>
      </trkpt>
      <trkpt lat="47.51797" lon="6.77451">
        <ele>388</ele>
        <time>2015-04-06T10:43:02.000Z</time>
      </trkpt>
      <trkpt lat="47.51796" lon="6.7745">
        <ele>388</ele>
        <time>2015-04-06T10:43:03.000Z</time>
      </trkpt>
      <trkpt lat="47.51794" lon="6.77455">
        <ele>388</ele>
        <time>2015-04-06T10:43:11.999Z</time>
      </trkpt>
      <trkpt lat="47.51794" lon="6.77457">
        <ele>388</ele>
        <time>2015-04-06T10:43:13.000Z</time>
      </trkpt>
      <trkpt lat="47.51798" lon="6.77454">
        <ele>388</ele>
        <time>2015-04-06T10:44:00.000Z</time>
      </trkpt>
      <trkpt lat="47.51799" lon="6.77454">
        <ele>388</ele>
        <time>2015-04-06T10:44:01.000Z</time>
      </trkpt>
      <trkpt lat="47.51803" lon="6.77452">
        <ele>388</ele>
        <time>2015-04-06T10:44:33.000Z</time>
      </trkpt>
      <trkpt lat="47.51804" lon="6.77453">
        <ele>388</ele>
        <time>2015-04-06T10:44:34.000Z</time>
      </trkpt>
      <trkpt lat="47.51805" lon="6.77457">
        <ele>388</ele>
        <time>2015-04-06T10:45:05.000Z</time>
      </trkpt>
      <trkpt lat="47.51806" lon="6.77459">
        <ele>388</ele>
        <time>2015-04-06T10:45:06.000Z</time>
      </trkpt>
      <trkpt lat="47.51809" lon="6.77463">
        <ele>388</ele>
        <time>2015-04-06T10:45:21.000Z</time>
      </trkpt>
      <trkpt lat="47.51809" lon="6.77464">
        <ele>388</ele>
        <time>2015-04-06T10:45:22.000Z</time>
      </trkpt>
      <trkpt lat="47.51806" lon="6.7747">
        <ele>388</ele>
        <time>2015-04-06T10:45:25.000Z</time>
      </trkpt>
      <trkpt lat="47.51805" lon="6.77471">
        <ele>388</ele>
        <time>2015-04-06T10:45:26.000Z</time>
      </trkpt>
      <trkpt lat="47.51803" lon="6.77474">
        <ele>388</ele>
        <time>2015-04-06T10:47:51.000Z</time>
      </trkpt>
    </trkseg>
  </trk>
</gpx>